<?xml version='1.0' encoding='UTF-8'?><gpx version="1.1" creator="JPX - https://github.com/jenetics/jpx" xmlns="http://www.topografix.com/GPX/1/1"><trk><trkseg><trkpt lat="44.6646756" lon="11.4829588"><ele>10.75</ele><time>2026-04-22T08:35:26.346Z</time></trkpt><trkpt lat="44.664619" lon="11.4828799"><ele>10.5</ele><time>2026-04-22T08:35:29.342Z</time></trkpt><trkpt lat="44.6645388" lon="11.4827861"><ele>10.25</ele><time>2026-04-22T08:35:32.343Z</time></trkpt><trkpt lat="44.6643361" lon="11.482842"><ele>10.0</ele><time>2026-04-22T08:35:33.346Z</time></trkpt><trkpt lat="44.664261" lon="11.4828725"><ele>10.333333333333334</ele><time>2026-04-22T08:35:35.337Z</time></trkpt><trkpt lat="44.664203" lon="11.4829516"><ele>10.666666666666668</ele><time>2026-04-22T08:35:37.341Z</time></trkpt><trkpt lat="44.6641591" lon="11.4830541"><ele>11.0</ele><time>2026-04-22T08:35:39.35Z</time></trkpt><trkpt lat="44.6641217" lon="11.483162"><ele>11.333333333333334</ele><time>2026-04-22T08:35:41.341Z</time></trkpt><trkpt lat="44.6640853" lon="11.4832757"><ele>11.666666666666666</ele><time>2026-04-22T08:35:43.341Z</time></trkpt><trkpt lat="44.6640449" lon="11.4833905"><ele>12.0</ele><time>2026-04-22T08:35:45.346Z</time></trkpt><trkpt lat="44.6640084" lon="11.4835133"><ele>12.0</ele><time>2026-04-22T08:35:47.353Z</time></trkpt><trkpt lat="44.6639698" lon="11.4836352"><ele>12.0</ele><time>2026-04-22T08:35:49.351Z</time></trkpt><trkpt lat="44.6639273" lon="11.4837537"><ele>12.0</ele><time>2026-04-22T08:35:51.337Z</time></trkpt><trkpt lat="44.6638889" lon="11.4838835"><ele>12.0</ele><time>2026-04-22T08:35:53.353Z</time></trkpt><trkpt lat="44.6638524" lon="11.4840163"><ele>12.0</ele><time>2026-04-22T08:35:55.326Z</time></trkpt><trkpt lat="44.6638089" lon="11.4841473"><ele>12.0</ele><time>2026-04-22T08:35:57.345Z</time></trkpt><trkpt lat="44.6637668" lon="11.4842826"><ele>12.0</ele><time>2026-04-22T08:35:59.353Z</time></trkpt><trkpt lat="44.6637287" lon="11.4844193"><ele>12.0</ele><time>2026-04-22T08:36:01.346Z</time></trkpt><trkpt lat="44.6636891" lon="11.4845595"><ele>12.0</ele><time>2026-04-22T08:36:03.342Z</time></trkpt><trkpt lat="44.6636432" lon="11.4846955"><ele>12.0</ele><time>2026-04-22T08:36:05.349Z</time></trkpt><trkpt lat="44.6635983" lon="11.4848344"><ele>12.0</ele><time>2026-04-22T08:36:07.349Z</time></trkpt><trkpt lat="44.6635559" lon="11.484977"><ele>12.0</ele><time>2026-04-22T08:36:09.347Z</time></trkpt><trkpt lat="44.6635135" lon="11.4851192"><ele>12.0</ele><time>2026-04-22T08:36:11.353Z</time></trkpt><trkpt lat="44.6634699" lon="11.4852603"><ele>12.0</ele><time>2026-04-22T08:36:13.342Z</time></trkpt><trkpt lat="44.6634276" lon="11.485399"><ele>12.0</ele><time>2026-04-22T08:36:15.345Z</time></trkpt><trkpt lat="44.6633869" lon="11.4855358"><ele>12.399999999999999</ele><time>2026-04-22T08:36:17.349Z</time></trkpt><trkpt lat="44.663345" lon="11.4856651"><ele>12.799999999999999</ele><time>2026-04-22T08:36:19.34Z</time></trkpt><trkpt lat="44.6632954" lon="11.4857792"><ele>13.2</ele><time>2026-04-22T08:36:21.347Z</time></trkpt><trkpt lat="44.6631987" lon="11.4858324"><ele>13.6</ele><time>2026-04-22T08:36:23.345Z</time></trkpt><trkpt lat="44.6630949" lon="11.4858822"><ele>14.0</ele><time>2026-04-22T08:36:25.34Z</time></trkpt><trkpt lat="44.6629958" lon="11.4859488"><ele>14.0</ele><time>2026-04-22T08:36:27.351Z</time></trkpt><trkpt lat="44.6629006" lon="11.4860327"><ele>14.0</ele><time>2026-04-22T08:36:29.349Z</time></trkpt><trkpt lat="44.6628031" lon="11.4861243"><ele>14.0</ele><time>2026-04-22T08:36:31.347Z</time></trkpt><trkpt lat="44.6627148" lon="11.48623"><ele>14.0</ele><time>2026-04-22T08:36:33.344Z</time></trkpt><trkpt lat="44.662638" lon="11.4863516"><ele>14.0</ele><time>2026-04-22T08:36:35.345Z</time></trkpt><trkpt lat="44.6625707" lon="11.4864901"><ele>14.0</ele><time>2026-04-22T08:36:37.347Z</time></trkpt><trkpt lat="44.6625185" lon="11.4866351"><ele>14.0</ele><time>2026-04-22T08:36:39.347Z</time></trkpt><trkpt lat="44.6624709" lon="11.4867934"><ele>14.0</ele><time>2026-04-22T08:36:41.343Z</time></trkpt><trkpt lat="44.6624256" lon="11.4869558"><ele>13.799999999999999</ele><time>2026-04-22T08:36:43.342Z</time></trkpt><trkpt lat="44.6623785" lon="11.4871167"><ele>13.599999999999998</ele><time>2026-04-22T08:36:45.34Z</time></trkpt><trkpt lat="44.6623292" lon="11.4872785"><ele>13.4</ele><time>2026-04-22T08:36:47.343Z</time></trkpt><trkpt lat="44.6622794" lon="11.4874401"><ele>13.2</ele><time>2026-04-22T08:36:49.344Z</time></trkpt><trkpt lat="44.6622555" lon="11.487522"><ele>13.0</ele><time>2026-04-22T08:36:50.339Z</time></trkpt><trkpt lat="44.6622307" lon="11.487605"><ele>13.0</ele><time>2026-04-22T08:36:51.343Z</time></trkpt><trkpt lat="44.6622072" lon="11.4876879"><ele>13.0</ele><time>2026-04-22T08:36:52.337Z</time></trkpt><trkpt lat="44.6621813" lon="11.4877726"><ele>13.0</ele><time>2026-04-22T08:36:53.348Z</time></trkpt><trkpt lat="44.6621545" lon="11.4878563"><ele>13.0</ele><time>2026-04-22T08:36:54.343Z</time></trkpt><trkpt lat="44.6621257" lon="11.4879393"><ele>13.0</ele><time>2026-04-22T08:36:55.336Z</time></trkpt><trkpt lat="44.6620983" lon="11.4880231"><ele>13.0</ele><time>2026-04-22T08:36:56.348Z</time></trkpt><trkpt lat="44.6620728" lon="11.4881082"><ele>13.0</ele><time>2026-04-22T08:36:57.343Z</time></trkpt><trkpt lat="44.6620485" lon="11.4881929"><ele>13.0</ele><time>2026-04-22T08:36:58.34Z</time></trkpt><trkpt lat="44.6620245" lon="11.4882774"><ele>13.0</ele><time>2026-04-22T08:36:59.343Z</time></trkpt><trkpt lat="44.6620009" lon="11.4883619"><ele>13.0</ele><time>2026-04-22T08:37:00.335Z</time></trkpt><trkpt lat="44.6619774" lon="11.4884455"><ele>13.0</ele><time>2026-04-22T08:37:01.357Z</time></trkpt><trkpt lat="44.6619541" lon="11.4885293"><ele>13.0</ele><time>2026-04-22T08:37:02.351Z</time></trkpt><trkpt lat="44.6619307" lon="11.4886121"><ele>13.0</ele><time>2026-04-22T08:37:03.347Z</time></trkpt><trkpt lat="44.6619074" lon="11.4886948"><ele>13.0</ele><time>2026-04-22T08:37:04.338Z</time></trkpt><trkpt lat="44.6618654" lon="11.4888605"><ele>12.5</ele><time>2026-04-22T08:37:06.343Z</time></trkpt><trkpt lat="44.6618244" lon="11.4890252"><ele>12.0</ele><time>2026-04-22T08:37:08.335Z</time></trkpt><trkpt lat="44.6617812" lon="11.4891873"><ele>11.5</ele><time>2026-04-22T08:37:10.344Z</time></trkpt><trkpt lat="44.6617349" lon="11.4893478"><ele>11.0</ele><time>2026-04-22T08:37:12.354Z</time></trkpt><trkpt lat="44.6616893" lon="11.4895107"><ele>11.0</ele><time>2026-04-22T08:37:14.342Z</time></trkpt><trkpt lat="44.661643" lon="11.489675"><ele>11.0</ele><time>2026-04-22T08:37:16.338Z</time></trkpt><trkpt lat="44.6616191" lon="11.4897579"><ele>11.0</ele><time>2026-04-22T08:37:17.354Z</time></trkpt><trkpt lat="44.6615932" lon="11.4898401"><ele>11.0</ele><time>2026-04-22T08:37:18.34Z</time></trkpt><trkpt lat="44.6615682" lon="11.4899232"><ele>11.0</ele><time>2026-04-22T08:37:19.337Z</time></trkpt><trkpt lat="44.661544" lon="11.4900062"><ele>11.0</ele><time>2026-04-22T08:37:20.342Z</time></trkpt><trkpt lat="44.6615198" lon="11.4900903"><ele>11.0</ele><time>2026-04-22T08:37:21.35Z</time></trkpt><trkpt lat="44.6614952" lon="11.4901738"><ele>11.0</ele><time>2026-04-22T08:37:22.347Z</time></trkpt><trkpt lat="44.6614704" lon="11.4902574"><ele>11.0</ele><time>2026-04-22T08:37:23.349Z</time></trkpt><trkpt lat="44.6614451" lon="11.4903394"><ele>11.0</ele><time>2026-04-22T08:37:24.344Z</time></trkpt><trkpt lat="44.6614168" lon="11.4904206"><ele>11.0</ele><time>2026-04-22T08:37:25.35Z</time></trkpt><trkpt lat="44.6613886" lon="11.4905002"><ele>11.0</ele><time>2026-04-22T08:37:26.346Z</time></trkpt><trkpt lat="44.6613539" lon="11.4905796"><ele>11.0</ele><time>2026-04-22T08:37:27.348Z</time></trkpt><trkpt lat="44.6612816" lon="11.4907272"><ele>11.0</ele><time>2026-04-22T08:37:29.344Z</time></trkpt><trkpt lat="44.6612436" lon="11.4907995"><ele>11.0</ele><time>2026-04-22T08:37:30.345Z</time></trkpt><trkpt lat="44.6612043" lon="11.490871"><ele>11.0</ele><time>2026-04-22T08:37:31.35Z</time></trkpt><trkpt lat="44.6611159" lon="11.4909951"><ele>11.0</ele><time>2026-04-22T08:37:33.352Z</time></trkpt><trkpt lat="44.6610153" lon="11.4910884"><ele>11.0</ele><time>2026-04-22T08:37:35.342Z</time></trkpt><trkpt lat="44.6609081" lon="11.4911635"><ele>11.0</ele><time>2026-04-22T08:37:37.341Z</time></trkpt><trkpt lat="44.6607915" lon="11.4911992"><ele>10.75</ele><time>2026-04-22T08:37:39.321Z</time></trkpt><trkpt lat="44.6606705" lon="11.4911865"><ele>10.5</ele><time>2026-04-22T08:37:41.343Z</time></trkpt><trkpt lat="44.6605479" lon="11.4911882"><ele>10.25</ele><time>2026-04-22T08:37:43.352Z</time></trkpt><trkpt lat="44.6604429" lon="11.4912756"><ele>10.0</ele><time>2026-04-22T08:37:45.35Z</time></trkpt><trkpt lat="44.6604062" lon="11.4914352"><ele>10.5</ele><time>2026-04-22T08:37:47.343Z</time></trkpt><trkpt lat="44.6604516" lon="11.4915905"><ele>11.0</ele><time>2026-04-22T08:37:49.337Z</time></trkpt><trkpt lat="44.6605357" lon="11.4917162"><ele>11.5</ele><time>2026-04-22T08:37:51.344Z</time></trkpt><trkpt lat="44.6606056" lon="11.4918482"><ele>12.0</ele><time>2026-04-22T08:37:53.343Z</time></trkpt><trkpt lat="44.6606502" lon="11.4920002"><ele>12.6</ele><time>2026-04-22T08:37:55.351Z</time></trkpt><trkpt lat="44.6606811" lon="11.4921464"><ele>13.2</ele><time>2026-04-22T08:37:57.341Z</time></trkpt><trkpt lat="44.6607187" lon="11.4922792"><ele>13.8</ele><time>2026-04-22T08:37:59.343Z</time></trkpt><trkpt lat="44.6607742" lon="11.4923945"><ele>14.4</ele><time>2026-04-22T08:38:01.345Z</time></trkpt><trkpt lat="44.6608435" lon="11.4924887"><ele>15.0</ele><time>2026-04-22T08:38:03.353Z</time></trkpt><trkpt lat="44.660927" lon="11.4925631"><ele>15.0</ele><time>2026-04-22T08:38:05.348Z</time></trkpt><trkpt lat="44.6610149" lon="11.4926437"><ele>15.0</ele><time>2026-04-22T08:38:07.348Z</time></trkpt><trkpt lat="44.6611033" lon="11.4927298"><ele>15.0</ele><time>2026-04-22T08:38:09.34Z</time></trkpt><trkpt lat="44.6611936" lon="11.4928058"><ele>15.0</ele><time>2026-04-22T08:38:11.346Z</time></trkpt><trkpt lat="44.6612874" lon="11.4928896"><ele>15.0</ele><time>2026-04-22T08:38:13.343Z</time></trkpt><trkpt lat="44.6613812" lon="11.4929745"><ele>14.8</ele><time>2026-04-22T08:38:15.338Z</time></trkpt><trkpt lat="44.6614741" lon="11.4930528"><ele>14.6</ele><time>2026-04-22T08:38:17.339Z</time></trkpt><trkpt lat="44.6615647" lon="11.4931373"><ele>14.399999999999999</ele><time>2026-04-22T08:38:19.355Z</time></trkpt><trkpt lat="44.6616587" lon="11.4932196"><ele>14.2</ele><time>2026-04-22T08:38:21.341Z</time></trkpt><trkpt lat="44.6617533" lon="11.4933046"><ele>14.0</ele><time>2026-04-22T08:38:23.34Z</time></trkpt><trkpt lat="44.661846" lon="11.4933896"><ele>14.0</ele><time>2026-04-22T08:38:25.347Z</time></trkpt><trkpt lat="44.661939" lon="11.4934749"><ele>13.999999999999998</ele><time>2026-04-22T08:38:27.344Z</time></trkpt><trkpt lat="44.6620321" lon="11.4935616"><ele>13.999999999999998</ele><time>2026-04-22T08:38:29.35Z</time></trkpt><trkpt lat="44.6621231" lon="11.4936474"><ele>14.0</ele><time>2026-04-22T08:38:31.343Z</time></trkpt><trkpt lat="44.662211" lon="11.4937297"><ele>14.0</ele><time>2026-04-22T08:38:33.344Z</time></trkpt><trkpt lat="44.6622853" lon="11.4938154"><ele>14.166666666666668</ele><time>2026-04-22T08:38:35.344Z</time></trkpt><trkpt lat="44.662325" lon="11.4939162"><ele>14.333333333333334</ele><time>2026-04-22T08:38:37.345Z</time></trkpt><trkpt lat="44.6623101" lon="11.4940146"><ele>14.5</ele><time>2026-04-22T08:38:39.35Z</time></trkpt><trkpt lat="44.6622874" lon="11.4941294"><ele>14.666666666666668</ele><time>2026-04-22T08:38:41.348Z</time></trkpt><trkpt lat="44.6622586" lon="11.4942595"><ele>14.833333333333334</ele><time>2026-04-22T08:38:43.348Z</time></trkpt><trkpt lat="44.6622279" lon="11.4944076"><ele>15.0</ele><time>2026-04-22T08:38:45.336Z</time></trkpt><trkpt lat="44.6621913" lon="11.4945731"><ele>14.714285714285715</ele><time>2026-04-22T08:38:47.341Z</time></trkpt><trkpt lat="44.6621715" lon="11.4946599"><ele>14.428571428571427</ele><time>2026-04-22T08:38:48.341Z</time></trkpt><trkpt lat="44.6621511" lon="11.4947498"><ele>14.142857142857142</ele><time>2026-04-22T08:38:49.339Z</time></trkpt><trkpt lat="44.6621308" lon="11.4948433"><ele>13.857142857142858</ele><time>2026-04-22T08:38:50.353Z</time></trkpt><trkpt lat="44.6621088" lon="11.4949388"><ele>13.571428571428573</ele><time>2026-04-22T08:38:51.35Z</time></trkpt><trkpt lat="44.6620871" lon="11.4950357"><ele>13.285714285714285</ele><time>2026-04-22T08:38:52.343Z</time></trkpt><trkpt lat="44.6620665" lon="11.4951359"><ele>13.0</ele><time>2026-04-22T08:38:53.343Z</time></trkpt><trkpt lat="44.6620431" lon="11.4952366"><ele>13.0</ele><time>2026-04-22T08:38:54.34Z</time></trkpt><trkpt lat="44.6620168" lon="11.4953389"><ele>13.0</ele><time>2026-04-22T08:38:55.348Z</time></trkpt><trkpt lat="44.661991" lon="11.49544"><ele>13.0</ele><time>2026-04-22T08:38:56.343Z</time></trkpt><trkpt lat="44.6619653" lon="11.4955399"><ele>13.0</ele><time>2026-04-22T08:38:57.34Z</time></trkpt><trkpt lat="44.6619413" lon="11.4956383"><ele>13.0</ele><time>2026-04-22T08:38:58.338Z</time></trkpt><trkpt lat="44.6619187" lon="11.4957365"><ele>13.0</ele><time>2026-04-22T08:38:59.342Z</time></trkpt><trkpt lat="44.6618962" lon="11.4958336"><ele>13.0</ele><time>2026-04-22T08:39:00.346Z</time></trkpt><trkpt lat="44.6618743" lon="11.4959291"><ele>13.0</ele><time>2026-04-22T08:39:01.337Z</time></trkpt><trkpt lat="44.6618531" lon="11.496023"><ele>13.0</ele><time>2026-04-22T08:39:02.343Z</time></trkpt><trkpt lat="44.6618329" lon="11.4961154"><ele>13.0</ele><time>2026-04-22T08:39:03.34Z</time></trkpt><trkpt lat="44.6618128" lon="11.496207"><ele>13.0</ele><time>2026-04-22T08:39:04.335Z</time></trkpt><trkpt lat="44.6617931" lon="11.4962979"><ele>13.0</ele><time>2026-04-22T08:39:05.343Z</time></trkpt><trkpt lat="44.6617733" lon="11.4963887"><ele>13.0</ele><time>2026-04-22T08:39:06.338Z</time></trkpt><trkpt lat="44.6617536" lon="11.4964787"><ele>13.0</ele><time>2026-04-22T08:39:07.337Z</time></trkpt><trkpt lat="44.6617333" lon="11.496568"><ele>13.0</ele><time>2026-04-22T08:39:08.344Z</time></trkpt><trkpt lat="44.6617143" lon="11.4966579"><ele>13.0</ele><time>2026-04-22T08:39:09.35Z</time></trkpt><trkpt lat="44.6616943" lon="11.4967465"><ele>13.0</ele><time>2026-04-22T08:39:10.343Z</time></trkpt><trkpt lat="44.6616754" lon="11.4968346"><ele>13.0</ele><time>2026-04-22T08:39:11.349Z</time></trkpt><trkpt lat="44.6616565" lon="11.496924"><ele>13.0</ele><time>2026-04-22T08:39:12.341Z</time></trkpt><trkpt lat="44.6616384" lon="11.4970133"><ele>13.0</ele><time>2026-04-22T08:39:13.337Z</time></trkpt><trkpt lat="44.6616184" lon="11.4971036"><ele>13.0</ele><time>2026-04-22T08:39:14.339Z</time></trkpt><trkpt lat="44.6615977" lon="11.4971925"><ele>12.714285714285714</ele><time>2026-04-22T08:39:15.344Z</time></trkpt><trkpt lat="44.6615777" lon="11.4972816"><ele>12.428571428571429</ele><time>2026-04-22T08:39:16.347Z</time></trkpt><trkpt lat="44.6615585" lon="11.4973707"><ele>12.142857142857142</ele><time>2026-04-22T08:39:17.343Z</time></trkpt><trkpt lat="44.6615374" lon="11.4974592"><ele>11.857142857142858</ele><time>2026-04-22T08:39:18.343Z</time></trkpt><trkpt lat="44.6615165" lon="11.4975462"><ele>11.571428571428571</ele><time>2026-04-22T08:39:19.347Z</time></trkpt><trkpt lat="44.6614939" lon="11.4976338"><ele>11.285714285714286</ele><time>2026-04-22T08:39:20.341Z</time></trkpt><trkpt lat="44.6614703" lon="11.4977205"><ele>11.0</ele><time>2026-04-22T08:39:21.344Z</time></trkpt><trkpt lat="44.6614461" lon="11.4978068"><ele>11.0</ele><time>2026-04-22T08:39:22.352Z</time></trkpt><trkpt lat="44.6614205" lon="11.497893"><ele>11.0</ele><time>2026-04-22T08:39:23.342Z</time></trkpt><trkpt lat="44.6613942" lon="11.4979787"><ele>11.0</ele><time>2026-04-22T08:39:24.341Z</time></trkpt><trkpt lat="44.6613665" lon="11.4980645"><ele>11.0</ele><time>2026-04-22T08:39:25.347Z</time></trkpt><trkpt lat="44.6613391" lon="11.4981488"><ele>11.0</ele><time>2026-04-22T08:39:26.337Z</time></trkpt><trkpt lat="44.6613132" lon="11.4982336"><ele>11.0</ele><time>2026-04-22T08:39:27.345Z</time></trkpt><trkpt lat="44.6612871" lon="11.4983179"><ele>11.0</ele><time>2026-04-22T08:39:28.35Z</time></trkpt><trkpt lat="44.661261" lon="11.4984023"><ele>11.0</ele><time>2026-04-22T08:39:29.338Z</time></trkpt><trkpt lat="44.6612348" lon="11.4984859"><ele>11.0</ele><time>2026-04-22T08:39:30.35Z</time></trkpt><trkpt lat="44.6612084" lon="11.4985693"><ele>11.0</ele><time>2026-04-22T08:39:31.35Z</time></trkpt><trkpt lat="44.6611822" lon="11.4986528"><ele>11.0</ele><time>2026-04-22T08:39:32.341Z</time></trkpt><trkpt lat="44.6611564" lon="11.4987355"><ele>11.0</ele><time>2026-04-22T08:39:33.339Z</time></trkpt><trkpt lat="44.6611315" lon="11.4988188"><ele>11.0</ele><time>2026-04-22T08:39:34.342Z</time></trkpt><trkpt lat="44.6611068" lon="11.4989032"><ele>11.0</ele><time>2026-04-22T08:39:35.345Z</time></trkpt><trkpt lat="44.6610821" lon="11.4989866"><ele>11.142857142857142</ele><time>2026-04-22T08:39:36.339Z</time></trkpt><trkpt lat="44.6610583" lon="11.4990717"><ele>11.285714285714285</ele><time>2026-04-22T08:39:37.337Z</time></trkpt><trkpt lat="44.6610346" lon="11.4991569"><ele>11.428571428571427</ele><time>2026-04-22T08:39:38.335Z</time></trkpt><trkpt lat="44.6610107" lon="11.4992423"><ele>11.571428571428571</ele><time>2026-04-22T08:39:39.34Z</time></trkpt><trkpt lat="44.6609855" lon="11.4993267"><ele>11.714285714285714</ele><time>2026-04-22T08:39:40.337Z</time></trkpt><trkpt lat="44.6609604" lon="11.4994109"><ele>11.857142857142856</ele><time>2026-04-22T08:39:41.347Z</time></trkpt><trkpt lat="44.6609359" lon="11.4994955"><ele>12.0</ele><time>2026-04-22T08:39:42.335Z</time></trkpt><trkpt lat="44.6609098" lon="11.4995778"><ele>12.0</ele><time>2026-04-22T08:39:43.341Z</time></trkpt><trkpt lat="44.6608834" lon="11.4996607"><ele>12.0</ele><time>2026-04-22T08:39:44.344Z</time></trkpt><trkpt lat="44.6608547" lon="11.4997414"><ele>12.0</ele><time>2026-04-22T08:39:45.343Z</time></trkpt><trkpt lat="44.6608272" lon="11.4998215"><ele>12.0</ele><time>2026-04-22T08:39:46.339Z</time></trkpt><trkpt lat="44.6607981" lon="11.4999023"><ele>12.0</ele><time>2026-04-22T08:39:47.346Z</time></trkpt><trkpt lat="44.6607694" lon="11.4999818"><ele>12.0</ele><time>2026-04-22T08:39:48.346Z</time></trkpt><trkpt lat="44.6607406" lon="11.500063"><ele>12.0</ele><time>2026-04-22T08:39:49.346Z</time></trkpt><trkpt lat="44.6607114" lon="11.5001433"><ele>12.0</ele><time>2026-04-22T08:39:50.349Z</time></trkpt><trkpt lat="44.6606832" lon="11.5002246"><ele>11.999999999999998</ele><time>2026-04-22T08:39:51.342Z</time></trkpt><trkpt lat="44.6606541" lon="11.5003056"><ele>12.0</ele><time>2026-04-22T08:39:52.344Z</time></trkpt><trkpt lat="44.6606262" lon="11.5003861"><ele>12.0</ele><time>2026-04-22T08:39:53.356Z</time></trkpt><trkpt lat="44.6605981" lon="11.5004673"><ele>12.0</ele><time>2026-04-22T08:39:54.34Z</time></trkpt><trkpt lat="44.6605694" lon="11.5005485"><ele>12.0</ele><time>2026-04-22T08:39:55.34Z</time></trkpt><trkpt lat="44.6605405" lon="11.5006285"><ele>11.999999999999998</ele><time>2026-04-22T08:39:56.349Z</time></trkpt><trkpt lat="44.6605121" lon="11.5007103"><ele>12.0</ele><time>2026-04-22T08:39:57.352Z</time></trkpt><trkpt lat="44.6604833" lon="11.5007919"><ele>12.142857142857142</ele><time>2026-04-22T08:39:58.341Z</time></trkpt><trkpt lat="44.6604537" lon="11.5008731"><ele>12.285714285714285</ele><time>2026-04-22T08:39:59.353Z</time></trkpt><trkpt lat="44.6604247" lon="11.5009549"><ele>12.428571428571427</ele><time>2026-04-22T08:40:00.354Z</time></trkpt><trkpt lat="44.6603963" lon="11.5010368"><ele>12.571428571428571</ele><time>2026-04-22T08:40:01.337Z</time></trkpt><trkpt lat="44.6603676" lon="11.5011199"><ele>12.714285714285715</ele><time>2026-04-22T08:40:02.341Z</time></trkpt><trkpt lat="44.6603391" lon="11.5012036"><ele>12.857142857142856</ele><time>2026-04-22T08:40:03.338Z</time></trkpt><trkpt lat="44.6603106" lon="11.5012859"><ele>13.0</ele><time>2026-04-22T08:40:04.35Z</time></trkpt><trkpt lat="44.6602822" lon="11.5013681"><ele>13.0</ele><time>2026-04-22T08:40:05.341Z</time></trkpt><trkpt lat="44.6602541" lon="11.50145"><ele>13.0</ele><time>2026-04-22T08:40:06.338Z</time></trkpt><trkpt lat="44.6602259" lon="11.5015339"><ele>13.0</ele><time>2026-04-22T08:40:07.353Z</time></trkpt><trkpt lat="44.6601975" lon="11.5016177"><ele>13.0</ele><time>2026-04-22T08:40:08.344Z</time></trkpt><trkpt lat="44.6601687" lon="11.5017029"><ele>13.0</ele><time>2026-04-22T08:40:09.346Z</time></trkpt><trkpt lat="44.66014" lon="11.5017879"><ele>13.0</ele><time>2026-04-22T08:40:10.341Z</time></trkpt><trkpt lat="44.6601105" lon="11.501874"><ele>13.0</ele><time>2026-04-22T08:40:11.344Z</time></trkpt><trkpt lat="44.660082" lon="11.5019598"><ele>13.0</ele><time>2026-04-22T08:40:12.348Z</time></trkpt><trkpt lat="44.6600533" lon="11.5020454"><ele>13.0</ele><time>2026-04-22T08:40:13.346Z</time></trkpt><trkpt lat="44.6600258" lon="11.5021307"><ele>13.0</ele><time>2026-04-22T08:40:14.346Z</time></trkpt><trkpt lat="44.6599989" lon="11.502217"><ele>13.0</ele><time>2026-04-22T08:40:15.34Z</time></trkpt><trkpt lat="44.6599716" lon="11.5023021"><ele>13.0</ele><time>2026-04-22T08:40:16.355Z</time></trkpt><trkpt lat="44.6599446" lon="11.5023877"><ele>13.0</ele><time>2026-04-22T08:40:17.345Z</time></trkpt><trkpt lat="44.6599176" lon="11.5024732"><ele>13.0</ele><time>2026-04-22T08:40:18.347Z</time></trkpt><trkpt lat="44.6598909" lon="11.5025599"><ele>13.0</ele><time>2026-04-22T08:40:19.34Z</time></trkpt><trkpt lat="44.6598646" lon="11.5026467"><ele>13.0</ele><time>2026-04-22T08:40:20.348Z</time></trkpt><trkpt lat="44.6598375" lon="11.5027334"><ele>13.0</ele><time>2026-04-22T08:40:21.344Z</time></trkpt><trkpt lat="44.6598112" lon="11.5028193"><ele>13.0</ele><time>2026-04-22T08:40:22.349Z</time></trkpt><trkpt lat="44.6597857" lon="11.5029068"><ele>13.0</ele><time>2026-04-22T08:40:23.342Z</time></trkpt><trkpt lat="44.6597604" lon="11.5029938"><ele>13.0</ele><time>2026-04-22T08:40:24.35Z</time></trkpt><trkpt lat="44.6597358" lon="11.5030817"><ele>13.0</ele><time>2026-04-22T08:40:25.343Z</time></trkpt><trkpt lat="44.6597112" lon="11.5031691"><ele>12.714285714285714</ele><time>2026-04-22T08:40:26.346Z</time></trkpt><trkpt lat="44.6596875" lon="11.5032588"><ele>12.428571428571429</ele><time>2026-04-22T08:40:27.347Z</time></trkpt><trkpt lat="44.659664" lon="11.5033491"><ele>12.142857142857142</ele><time>2026-04-22T08:40:28.346Z</time></trkpt><trkpt lat="44.659642" lon="11.5034409"><ele>11.857142857142858</ele><time>2026-04-22T08:40:29.344Z</time></trkpt><trkpt lat="44.6596213" lon="11.5035333"><ele>11.571428571428571</ele><time>2026-04-22T08:40:30.341Z</time></trkpt><trkpt lat="44.6596004" lon="11.5036258"><ele>11.285714285714286</ele><time>2026-04-22T08:40:31.341Z</time></trkpt><trkpt lat="44.6595797" lon="11.5037179"><ele>11.0</ele><time>2026-04-22T08:40:32.345Z</time></trkpt><trkpt lat="44.6595599" lon="11.5038102"><ele>10.857142857142858</ele><time>2026-04-22T08:40:33.35Z</time></trkpt><trkpt lat="44.6595408" lon="11.5039038"><ele>10.714285714285714</ele><time>2026-04-22T08:40:34.351Z</time></trkpt><trkpt lat="44.6595222" lon="11.5039965"><ele>10.571428571428571</ele><time>2026-04-22T08:40:35.342Z</time></trkpt><trkpt lat="44.6595058" lon="11.5040899"><ele>10.428571428571429</ele><time>2026-04-22T08:40:36.338Z</time></trkpt><trkpt lat="44.6594906" lon="11.5041799"><ele>10.285714285714286</ele><time>2026-04-22T08:40:37.336Z</time></trkpt><trkpt lat="44.6594806" lon="11.5042689"><ele>10.142857142857142</ele><time>2026-04-22T08:40:38.339Z</time></trkpt><trkpt lat="44.6594686" lon="11.5043559"><ele>10.0</ele><time>2026-04-22T08:40:39.357Z</time></trkpt><trkpt lat="44.6594571" lon="11.5044431"><ele>10.0</ele><time>2026-04-22T08:40:40.344Z</time></trkpt><trkpt lat="44.659449" lon="11.5045315"><ele>10.0</ele><time>2026-04-22T08:40:41.347Z</time></trkpt><trkpt lat="44.6594417" lon="11.5046206"><ele>10.0</ele><time>2026-04-22T08:40:42.351Z</time></trkpt><trkpt lat="44.6594342" lon="11.5047102"><ele>10.0</ele><time>2026-04-22T08:40:43.348Z</time></trkpt><trkpt lat="44.6594273" lon="11.5047993"><ele>10.0</ele><time>2026-04-22T08:40:44.347Z</time></trkpt><trkpt lat="44.6594246" lon="11.5048879"><ele>10.0</ele><time>2026-04-22T08:40:45.346Z</time></trkpt><trkpt lat="44.659444" lon="11.5049725"><ele>10.0</ele><time>2026-04-22T08:40:46.348Z</time></trkpt><trkpt lat="44.6594899" lon="11.505037"><ele>10.0</ele><time>2026-04-22T08:40:47.342Z</time></trkpt><trkpt lat="44.6595493" lon="11.5050769"><ele>10.0</ele><time>2026-04-22T08:40:48.341Z</time></trkpt><trkpt lat="44.6596106" lon="11.5051064"><ele>10.0</ele><time>2026-04-22T08:40:49.341Z</time></trkpt><trkpt lat="44.6596728" lon="11.5051313"><ele>10.0</ele><time>2026-04-22T08:40:50.34Z</time></trkpt><trkpt lat="44.659735" lon="11.5051536"><ele>10.0</ele><time>2026-04-22T08:40:51.343Z</time></trkpt><trkpt lat="44.6597974" lon="11.5051759"><ele>10.0</ele><time>2026-04-22T08:40:52.349Z</time></trkpt><trkpt lat="44.6598596" lon="11.5051983"><ele>10.0</ele><time>2026-04-22T08:40:53.338Z</time></trkpt><trkpt lat="44.6599217" lon="11.5052194"><ele>10.0</ele><time>2026-04-22T08:40:54.346Z</time></trkpt><trkpt lat="44.659984" lon="11.5052425"><ele>10.0</ele><time>2026-04-22T08:40:55.347Z</time></trkpt><trkpt lat="44.6600458" lon="11.5052655"><ele>10.0</ele><time>2026-04-22T08:40:56.337Z</time></trkpt><trkpt lat="44.6601075" lon="11.5052882"><ele>10.0</ele><time>2026-04-22T08:40:57.341Z</time></trkpt><trkpt lat="44.6601698" lon="11.5053102"><ele>10.0</ele><time>2026-04-22T08:40:58.336Z</time></trkpt><trkpt lat="44.6602317" lon="11.5053328"><ele>10.0</ele><time>2026-04-22T08:40:59.348Z</time></trkpt><trkpt lat="44.6602939" lon="11.5053545"><ele>10.0</ele><time>2026-04-22T08:41:00.349Z</time></trkpt><trkpt lat="44.6604146" lon="11.5053966"><ele>10.0</ele><time>2026-04-22T08:41:02.347Z</time></trkpt><trkpt lat="44.6604761" lon="11.5054182"><ele>10.0</ele><time>2026-04-22T08:41:03.344Z</time></trkpt><trkpt lat="44.6605369" lon="11.5054412"><ele>10.0</ele><time>2026-04-22T08:41:04.346Z</time></trkpt><trkpt lat="44.6605984" lon="11.5054636"><ele>10.0</ele><time>2026-04-22T08:41:05.339Z</time></trkpt><trkpt lat="44.6606599" lon="11.5054847"><ele>10.0</ele><time>2026-04-22T08:41:06.344Z</time></trkpt><trkpt lat="44.6607218" lon="11.505507"><ele>10.0</ele><time>2026-04-22T08:41:07.351Z</time></trkpt><trkpt lat="44.6608441" lon="11.505552"><ele>10.0</ele><time>2026-04-22T08:41:09.347Z</time></trkpt><trkpt lat="44.6609049" lon="11.505575"><ele>10.0</ele><time>2026-04-22T08:41:10.34Z</time></trkpt><trkpt lat="44.6609659" lon="11.5055988"><ele>10.0</ele><time>2026-04-22T08:41:11.346Z</time></trkpt><trkpt lat="44.6610866" lon="11.5056419"><ele>10.0</ele><time>2026-04-22T08:41:13.355Z</time></trkpt><trkpt lat="44.6612073" lon="11.5056843"><ele>10.0</ele><time>2026-04-22T08:41:15.352Z</time></trkpt><trkpt lat="44.6613308" lon="11.5057141"><ele>10.0</ele><time>2026-04-22T08:41:17.338Z</time></trkpt><trkpt lat="44.6614526" lon="11.5057612"><ele>10.166666666666668</ele><time>2026-04-22T08:41:19.354Z</time></trkpt><trkpt lat="44.6615139" lon="11.5057859"><ele>10.333333333333334</ele><time>2026-04-22T08:41:20.347Z</time></trkpt><trkpt lat="44.6615746" lon="11.5058113"><ele>10.5</ele><time>2026-04-22T08:41:21.342Z</time></trkpt><trkpt lat="44.6616354" lon="11.5058377"><ele>10.666666666666666</ele><time>2026-04-22T08:41:22.341Z</time></trkpt><trkpt lat="44.6616959" lon="11.5058629"><ele>10.833333333333332</ele><time>2026-04-22T08:41:23.337Z</time></trkpt><trkpt lat="44.6618157" lon="11.5059106"><ele>11.0</ele><time>2026-04-22T08:41:25.351Z</time></trkpt><trkpt lat="44.6619342" lon="11.5059539"><ele>10.75</ele><time>2026-04-22T08:41:27.35Z</time></trkpt><trkpt lat="44.6620507" lon="11.5059975"><ele>10.5</ele><time>2026-04-22T08:41:29.353Z</time></trkpt><trkpt lat="44.6621663" lon="11.5060399"><ele>10.25</ele><time>2026-04-22T08:41:31.346Z</time></trkpt><trkpt lat="44.6622818" lon="11.5060822"><ele>10.0</ele><time>2026-04-22T08:41:33.338Z</time></trkpt><trkpt lat="44.6623972" lon="11.5061238"><ele>10.0</ele><time>2026-04-22T08:41:35.344Z</time></trkpt><trkpt lat="44.6625159" lon="11.5061619"><ele>10.0</ele><time>2026-04-22T08:41:37.346Z</time></trkpt><trkpt lat="44.6626317" lon="11.5062083"><ele>10.0</ele><time>2026-04-22T08:41:39.345Z</time></trkpt><trkpt lat="44.662748" lon="11.5062484"><ele>10.0</ele><time>2026-04-22T08:41:41.349Z</time></trkpt><trkpt lat="44.6628627" lon="11.5062879"><ele>10.6</ele><time>2026-04-22T08:41:43.354Z</time></trkpt><trkpt lat="44.6629799" lon="11.5063324"><ele>11.2</ele><time>2026-04-22T08:41:45.35Z</time></trkpt><trkpt lat="44.6630966" lon="11.5063725"><ele>11.8</ele><time>2026-04-22T08:41:47.348Z</time></trkpt><trkpt lat="44.6632154" lon="11.5064174"><ele>12.4</ele><time>2026-04-22T08:41:49.339Z</time></trkpt><trkpt lat="44.6632765" lon="11.5064416"><ele>13.0</ele><time>2026-04-22T08:41:50.346Z</time></trkpt><trkpt lat="44.6633383" lon="11.5064627"><ele>13.0</ele><time>2026-04-22T08:41:51.345Z</time></trkpt><trkpt lat="44.6634004" lon="11.5064819"><ele>13.0</ele><time>2026-04-22T08:41:52.35Z</time></trkpt><trkpt lat="44.6634638" lon="11.5065052"><ele>13.0</ele><time>2026-04-22T08:41:53.351Z</time></trkpt><trkpt lat="44.6635247" lon="11.5065302"><ele>13.0</ele><time>2026-04-22T08:41:54.344Z</time></trkpt><trkpt lat="44.6635883" lon="11.5065523"><ele>13.0</ele><time>2026-04-22T08:41:55.342Z</time></trkpt><trkpt lat="44.6636496" lon="11.5065754"><ele>13.0</ele><time>2026-04-22T08:41:56.349Z</time></trkpt><trkpt lat="44.6637706" lon="11.5066212"><ele>13.0</ele><time>2026-04-22T08:41:58.341Z</time></trkpt><trkpt lat="44.6638908" lon="11.5066658"><ele>12.75</ele><time>2026-04-22T08:42:00.346Z</time></trkpt><trkpt lat="44.6640098" lon="11.5067083"><ele>12.5</ele><time>2026-04-22T08:42:02.343Z</time></trkpt><trkpt lat="44.6641256" lon="11.5067469"><ele>12.25</ele><time>2026-04-22T08:42:04.352Z</time></trkpt><trkpt lat="44.6642308" lon="11.506791"><ele>12.0</ele><time>2026-04-22T08:42:06.332Z</time></trkpt><trkpt lat="44.6642748" lon="11.5069196"><ele>12.0</ele><time>2026-04-22T08:42:08.344Z</time></trkpt><trkpt lat="44.6642429" lon="11.5070628"><ele>12.0</ele><time>2026-04-22T08:42:10.341Z</time></trkpt><trkpt lat="44.6642041" lon="11.5072161"><ele>12.0</ele><time>2026-04-22T08:42:12.348Z</time></trkpt><trkpt lat="44.6641645" lon="11.5073764"><ele>12.0</ele><time>2026-04-22T08:42:14.344Z</time></trkpt><trkpt lat="44.6641281" lon="11.5075421"><ele>11.833333333333334</ele><time>2026-04-22T08:42:16.345Z</time></trkpt><trkpt lat="44.6640898" lon="11.5077108"><ele>11.666666666666666</ele><time>2026-04-22T08:42:18.338Z</time></trkpt><trkpt lat="44.6640703" lon="11.507795"><ele>11.5</ele><time>2026-04-22T08:42:19.347Z</time></trkpt><trkpt lat="44.664031" lon="11.5079642"><ele>11.333333333333332</ele><time>2026-04-22T08:42:21.354Z</time></trkpt><trkpt lat="44.6640111" lon="11.5080491"><ele>11.166666666666666</ele><time>2026-04-22T08:42:22.338Z</time></trkpt><trkpt lat="44.6639905" lon="11.5081333"><ele>11.0</ele><time>2026-04-22T08:42:23.348Z</time></trkpt><trkpt lat="44.663971" lon="11.508218"><ele>11.0</ele><time>2026-04-22T08:42:24.338Z</time></trkpt><trkpt lat="44.663951" lon="11.5083032"><ele>11.0</ele><time>2026-04-22T08:42:25.347Z</time></trkpt><trkpt lat="44.6639314" lon="11.5083877"><ele>11.0</ele><time>2026-04-22T08:42:26.338Z</time></trkpt><trkpt lat="44.6638927" lon="11.5085547"><ele>11.0</ele><time>2026-04-22T08:42:28.342Z</time></trkpt><trkpt lat="44.6638725" lon="11.508639"><ele>11.0</ele><time>2026-04-22T08:42:29.356Z</time></trkpt><trkpt lat="44.6638521" lon="11.5087233"><ele>11.0</ele><time>2026-04-22T08:42:30.338Z</time></trkpt><trkpt lat="44.6638312" lon="11.5088074"><ele>11.0</ele><time>2026-04-22T08:42:31.343Z</time></trkpt><trkpt lat="44.6638111" lon="11.508892"><ele>10.75</ele><time>2026-04-22T08:42:32.348Z</time></trkpt><trkpt lat="44.6637905" lon="11.5089772"><ele>10.5</ele><time>2026-04-22T08:42:33.351Z</time></trkpt><trkpt lat="44.6637707" lon="11.5090627"><ele>10.25</ele><time>2026-04-22T08:42:34.342Z</time></trkpt><trkpt lat="44.6637513" lon="11.5091483"><ele>10.0</ele><time>2026-04-22T08:42:35.345Z</time></trkpt><trkpt lat="44.6637316" lon="11.5092327"><ele>9.75</ele><time>2026-04-22T08:42:36.34Z</time></trkpt><trkpt lat="44.6637119" lon="11.5093178"><ele>9.5</ele><time>2026-04-22T08:42:37.343Z</time></trkpt><trkpt lat="44.6636917" lon="11.509403"><ele>9.25</ele><time>2026-04-22T08:42:38.357Z</time></trkpt><trkpt lat="44.6636714" lon="11.5094883"><ele>9.0</ele><time>2026-04-22T08:42:39.343Z</time></trkpt><trkpt lat="44.6636516" lon="11.5095724"><ele>9.000000000000002</ele><time>2026-04-22T08:42:40.348Z</time></trkpt><trkpt lat="44.6636315" lon="11.5096568"><ele>9.0</ele><time>2026-04-22T08:42:41.348Z</time></trkpt><trkpt lat="44.6636121" lon="11.5097411"><ele>9.0</ele><time>2026-04-22T08:42:42.337Z</time></trkpt><trkpt lat="44.6635918" lon="11.5098251"><ele>9.0</ele><time>2026-04-22T08:42:43.344Z</time></trkpt><trkpt lat="44.663552" lon="11.5099941"><ele>9.0</ele><time>2026-04-22T08:42:45.339Z</time></trkpt><trkpt lat="44.6635315" lon="11.5100789"><ele>9.000000000000002</ele><time>2026-04-22T08:42:46.348Z</time></trkpt><trkpt lat="44.6635106" lon="11.5101638"><ele>9.0</ele><time>2026-04-22T08:42:47.346Z</time></trkpt><trkpt lat="44.6634897" lon="11.5102478"><ele>8.8</ele><time>2026-04-22T08:42:48.353Z</time></trkpt><trkpt lat="44.6634698" lon="11.5103319"><ele>8.600000000000001</ele><time>2026-04-22T08:42:49.34Z</time></trkpt><trkpt lat="44.6634493" lon="11.5104157"><ele>8.4</ele><time>2026-04-22T08:42:50.349Z</time></trkpt><trkpt lat="44.6634083" lon="11.5105825"><ele>8.200000000000001</ele><time>2026-04-22T08:42:52.352Z</time></trkpt><trkpt lat="44.6633686" lon="11.5107496"><ele>8.0</ele><time>2026-04-22T08:42:54.337Z</time></trkpt><trkpt lat="44.6633296" lon="11.5109173"><ele>8.5</ele><time>2026-04-22T08:42:56.338Z</time></trkpt><trkpt lat="44.6632893" lon="11.5110827"><ele>9.0</ele><time>2026-04-22T08:42:58.342Z</time></trkpt><trkpt lat="44.6632488" lon="11.5112487"><ele>9.5</ele><time>2026-04-22T08:43:00.343Z</time></trkpt><trkpt lat="44.6632086" lon="11.5114148"><ele>10.0</ele><time>2026-04-22T08:43:02.353Z</time></trkpt><trkpt lat="44.6631717" lon="11.5115804"><ele>10.0</ele><time>2026-04-22T08:43:04.343Z</time></trkpt><trkpt lat="44.6631318" lon="11.5117439"><ele>10.0</ele><time>2026-04-22T08:43:06.343Z</time></trkpt><trkpt lat="44.6630936" lon="11.5119087"><ele>10.0</ele><time>2026-04-22T08:43:08.345Z</time></trkpt><trkpt lat="44.6630548" lon="11.5120709"><ele>10.0</ele><time>2026-04-22T08:43:10.352Z</time></trkpt><trkpt lat="44.6630172" lon="11.5122301"><ele>10.0</ele><time>2026-04-22T08:43:12.342Z</time></trkpt><trkpt lat="44.6629788" lon="11.5123898"><ele>10.0</ele><time>2026-04-22T08:43:14.348Z</time></trkpt><trkpt lat="44.6629382" lon="11.5125493"><ele>10.0</ele><time>2026-04-22T08:43:16.338Z</time></trkpt><trkpt lat="44.6629016" lon="11.5127099"><ele>10.0</ele><time>2026-04-22T08:43:18.349Z</time></trkpt><trkpt lat="44.662868" lon="11.5128718"><ele>10.0</ele><time>2026-04-22T08:43:20.342Z</time></trkpt><trkpt lat="44.6628283" lon="11.5130309"><ele>10.0</ele><time>2026-04-22T08:43:22.351Z</time></trkpt><trkpt lat="44.6627903" lon="11.5131918"><ele>10.0</ele><time>2026-04-22T08:43:24.341Z</time></trkpt><trkpt lat="44.6627482" lon="11.5133532"><ele>10.0</ele><time>2026-04-22T08:43:26.341Z</time></trkpt><trkpt lat="44.6627056" lon="11.5135185"><ele>10.0</ele><time>2026-04-22T08:43:28.338Z</time></trkpt><trkpt lat="44.6626848" lon="11.5136044"><ele>10.0</ele><time>2026-04-22T08:43:29.336Z</time></trkpt><trkpt lat="44.6626444" lon="11.5137736"><ele>10.0</ele><time>2026-04-22T08:43:31.342Z</time></trkpt><trkpt lat="44.6626244" lon="11.5138585"><ele>10.0</ele><time>2026-04-22T08:43:32.341Z</time></trkpt><trkpt lat="44.6626034" lon="11.5139454"><ele>10.0</ele><time>2026-04-22T08:43:33.347Z</time></trkpt><trkpt lat="44.662583" lon="11.5140325"><ele>10.0</ele><time>2026-04-22T08:43:34.341Z</time></trkpt><trkpt lat="44.6625626" lon="11.514119"><ele>10.0</ele><time>2026-04-22T08:43:35.338Z</time></trkpt><trkpt lat="44.6625413" lon="11.5142069"><ele>10.0</ele><time>2026-04-22T08:43:36.338Z</time></trkpt><trkpt lat="44.6625213" lon="11.5142936"><ele>10.0</ele><time>2026-04-22T08:43:37.341Z</time></trkpt><trkpt lat="44.6624999" lon="11.5143788"><ele>10.0</ele><time>2026-04-22T08:43:38.339Z</time></trkpt><trkpt lat="44.6624799" lon="11.5144647"><ele>10.0</ele><time>2026-04-22T08:43:39.342Z</time></trkpt><trkpt lat="44.6624597" lon="11.5145498"><ele>10.0</ele><time>2026-04-22T08:43:40.345Z</time></trkpt><trkpt lat="44.6624396" lon="11.514636"><ele>10.0</ele><time>2026-04-22T08:43:41.338Z</time></trkpt><trkpt lat="44.6624198" lon="11.5147222"><ele>10.0</ele><time>2026-04-22T08:43:42.341Z</time></trkpt><trkpt lat="44.6623993" lon="11.5148083"><ele>10.0</ele><time>2026-04-22T08:43:43.348Z</time></trkpt><trkpt lat="44.6623777" lon="11.5148937"><ele>10.0</ele><time>2026-04-22T08:43:44.341Z</time></trkpt><trkpt lat="44.6623552" lon="11.5149783"><ele>10.0</ele><time>2026-04-22T08:43:45.343Z</time></trkpt><trkpt lat="44.662314" lon="11.5151449"><ele>10.0</ele><time>2026-04-22T08:43:47.337Z</time></trkpt><trkpt lat="44.662273" lon="11.51531"><ele>10.0</ele><time>2026-04-22T08:43:49.345Z</time></trkpt><trkpt lat="44.6622351" lon="11.5154747"><ele>9.5</ele><time>2026-04-22T08:43:51.35Z</time></trkpt><trkpt lat="44.6621937" lon="11.5156399"><ele>9.0</ele><time>2026-04-22T08:43:53.343Z</time></trkpt><trkpt lat="44.6621491" lon="11.5158035"><ele>8.5</ele><time>2026-04-22T08:43:55.345Z</time></trkpt><trkpt lat="44.6621053" lon="11.515967"><ele>8.0</ele><time>2026-04-22T08:43:57.34Z</time></trkpt><trkpt lat="44.662061" lon="11.5161318"><ele>8.0</ele><time>2026-04-22T08:43:59.341Z</time></trkpt><trkpt lat="44.6620168" lon="11.5162953"><ele>8.0</ele><time>2026-04-22T08:44:01.346Z</time></trkpt><trkpt lat="44.6619717" lon="11.5164606"><ele>8.0</ele><time>2026-04-22T08:44:03.349Z</time></trkpt><trkpt lat="44.6619278" lon="11.5166269"><ele>8.0</ele><time>2026-04-22T08:44:05.347Z</time></trkpt><trkpt lat="44.6618875" lon="11.5167941"><ele>8.0</ele><time>2026-04-22T08:44:07.354Z</time></trkpt><trkpt lat="44.6618431" lon="11.5169584"><ele>8.0</ele><time>2026-04-22T08:44:09.347Z</time></trkpt><trkpt lat="44.6618015" lon="11.5171252"><ele>8.0</ele><time>2026-04-22T08:44:11.357Z</time></trkpt><trkpt lat="44.6617565" lon="11.5172889"><ele>8.0</ele><time>2026-04-22T08:44:13.348Z</time></trkpt><trkpt lat="44.6617093" lon="11.5174484"><ele>7.999999999999999</ele><time>2026-04-22T08:44:15.339Z</time></trkpt><trkpt lat="44.6616864" lon="11.5175311"><ele>8.0</ele><time>2026-04-22T08:44:16.348Z</time></trkpt><trkpt lat="44.6616427" lon="11.5176958"><ele>8.0</ele><time>2026-04-22T08:44:18.346Z</time></trkpt><trkpt lat="44.661598" lon="11.5178616"><ele>8.0</ele><time>2026-04-22T08:44:20.347Z</time></trkpt><trkpt lat="44.6615758" lon="11.5179447"><ele>7.999999999999999</ele><time>2026-04-22T08:44:21.342Z</time></trkpt><trkpt lat="44.6615541" lon="11.5180291"><ele>8.0</ele><time>2026-04-22T08:44:22.346Z</time></trkpt><trkpt lat="44.6615327" lon="11.5181128"><ele>8.142857142857142</ele><time>2026-04-22T08:44:23.344Z</time></trkpt><trkpt lat="44.6615101" lon="11.5181981"><ele>8.285714285714285</ele><time>2026-04-22T08:44:24.335Z</time></trkpt><trkpt lat="44.6614878" lon="11.5182817"><ele>8.428571428571429</ele><time>2026-04-22T08:44:25.34Z</time></trkpt><trkpt lat="44.6614656" lon="11.5183668"><ele>8.571428571428571</ele><time>2026-04-22T08:44:26.349Z</time></trkpt><trkpt lat="44.6614437" lon="11.5184516"><ele>8.714285714285715</ele><time>2026-04-22T08:44:27.343Z</time></trkpt><trkpt lat="44.661423" lon="11.5185367"><ele>8.857142857142858</ele><time>2026-04-22T08:44:28.351Z</time></trkpt><trkpt lat="44.6614002" lon="11.5186208"><ele>9.0</ele><time>2026-04-22T08:44:29.339Z</time></trkpt><trkpt lat="44.6613772" lon="11.5187064"><ele>9.142857142857144</ele><time>2026-04-22T08:44:30.354Z</time></trkpt><trkpt lat="44.6613548" lon="11.5187918"><ele>9.285714285714286</ele><time>2026-04-22T08:44:31.355Z</time></trkpt><trkpt lat="44.6613328" lon="11.5188765"><ele>9.428571428571429</ele><time>2026-04-22T08:44:32.343Z</time></trkpt><trkpt lat="44.6613113" lon="11.5189629"><ele>9.571428571428573</ele><time>2026-04-22T08:44:33.342Z</time></trkpt><trkpt lat="44.6612898" lon="11.5190502"><ele>9.714285714285715</ele><time>2026-04-22T08:44:34.347Z</time></trkpt><trkpt lat="44.6612689" lon="11.5191369"><ele>9.857142857142858</ele><time>2026-04-22T08:44:35.351Z</time></trkpt><trkpt lat="44.6612479" lon="11.5192238"><ele>10.0</ele><time>2026-04-22T08:44:36.343Z</time></trkpt><trkpt lat="44.6612292" lon="11.5193108"><ele>10.0</ele><time>2026-04-22T08:44:37.345Z</time></trkpt><trkpt lat="44.6612128" lon="11.5193983"><ele>10.0</ele><time>2026-04-22T08:44:38.345Z</time></trkpt><trkpt lat="44.6611967" lon="11.5194865"><ele>10.0</ele><time>2026-04-22T08:44:39.343Z</time></trkpt><trkpt lat="44.6611823" lon="11.5195748"><ele>10.0</ele><time>2026-04-22T08:44:40.341Z</time></trkpt><trkpt lat="44.6611687" lon="11.5196651"><ele>10.0</ele><time>2026-04-22T08:44:41.339Z</time></trkpt><trkpt lat="44.6611527" lon="11.5197542"><ele>10.0</ele><time>2026-04-22T08:44:42.346Z</time></trkpt><trkpt lat="44.6611397" lon="11.5198443"><ele>10.0</ele><time>2026-04-22T08:44:43.347Z</time></trkpt><trkpt lat="44.6611266" lon="11.5199332"><ele>10.0</ele><time>2026-04-22T08:44:44.342Z</time></trkpt><trkpt lat="44.6611144" lon="11.5200226"><ele>10.0</ele><time>2026-04-22T08:44:45.343Z</time></trkpt><trkpt lat="44.6611024" lon="11.5201127"><ele>10.0</ele><time>2026-04-22T08:44:46.345Z</time></trkpt><trkpt lat="44.6610906" lon="11.5202023"><ele>10.0</ele><time>2026-04-22T08:44:47.338Z</time></trkpt><trkpt lat="44.6610791" lon="11.5202919"><ele>10.0</ele><time>2026-04-22T08:44:48.336Z</time></trkpt><trkpt lat="44.6610674" lon="11.5203816"><ele>10.0</ele><time>2026-04-22T08:44:49.336Z</time></trkpt><trkpt lat="44.6610558" lon="11.5204707"><ele>10.0</ele><time>2026-04-22T08:44:50.352Z</time></trkpt><trkpt lat="44.6610445" lon="11.5205599"><ele>10.0</ele><time>2026-04-22T08:44:51.349Z</time></trkpt><trkpt lat="44.6610354" lon="11.52065"><ele>10.0</ele><time>2026-04-22T08:44:52.351Z</time></trkpt><trkpt lat="44.6610257" lon="11.52074"><ele>10.0</ele><time>2026-04-22T08:44:53.343Z</time></trkpt><trkpt lat="44.6610146" lon="11.5208297"><ele>10.0</ele><time>2026-04-22T08:44:54.354Z</time></trkpt><trkpt lat="44.6610053" lon="11.5209189"><ele>10.0</ele><time>2026-04-22T08:44:55.349Z</time></trkpt><trkpt lat="44.6609971" lon="11.5210089"><ele>10.0</ele><time>2026-04-22T08:44:56.343Z</time></trkpt><trkpt lat="44.6609858" lon="11.5210975"><ele>10.0</ele><time>2026-04-22T08:44:57.346Z</time></trkpt><trkpt lat="44.6609729" lon="11.5211854"><ele>10.0</ele><time>2026-04-22T08:44:58.338Z</time></trkpt><trkpt lat="44.660961" lon="11.5212741"><ele>10.0</ele><time>2026-04-22T08:44:59.346Z</time></trkpt><trkpt lat="44.6609492" lon="11.5213629"><ele>10.0</ele><time>2026-04-22T08:45:00.346Z</time></trkpt><trkpt lat="44.6609358" lon="11.5214523"><ele>10.0</ele><time>2026-04-22T08:45:01.346Z</time></trkpt><trkpt lat="44.66092" lon="11.5215398"><ele>10.0</ele><time>2026-04-22T08:45:02.346Z</time></trkpt><trkpt lat="44.6609046" lon="11.521629"><ele>10.0</ele><time>2026-04-22T08:45:03.362Z</time></trkpt><trkpt lat="44.6608924" lon="11.5217183"><ele>10.0</ele><time>2026-04-22T08:45:04.345Z</time></trkpt><trkpt lat="44.6608801" lon="11.5218085"><ele>10.0</ele><time>2026-04-22T08:45:05.341Z</time></trkpt><trkpt lat="44.6608672" lon="11.5218977"><ele>10.0</ele><time>2026-04-22T08:45:06.348Z</time></trkpt><trkpt lat="44.6608555" lon="11.5219878"><ele>10.0</ele><time>2026-04-22T08:45:07.343Z</time></trkpt><trkpt lat="44.6608434" lon="11.5220766"><ele>10.0</ele><time>2026-04-22T08:45:08.344Z</time></trkpt><trkpt lat="44.6608304" lon="11.5221667"><ele>10.0</ele><time>2026-04-22T08:45:09.355Z</time></trkpt><trkpt lat="44.6608173" lon="11.5222557"><ele>10.0</ele><time>2026-04-22T08:45:10.346Z</time></trkpt><trkpt lat="44.6608035" lon="11.5223452"><ele>10.0</ele><time>2026-04-22T08:45:11.336Z</time></trkpt><trkpt lat="44.660789" lon="11.5224341"><ele>10.0</ele><time>2026-04-22T08:45:12.343Z</time></trkpt><trkpt lat="44.6607737" lon="11.5225219"><ele>10.0</ele><time>2026-04-22T08:45:13.345Z</time></trkpt><trkpt lat="44.660758" lon="11.5226094"><ele>10.0</ele><time>2026-04-22T08:45:14.346Z</time></trkpt><trkpt lat="44.6607428" lon="11.522697"><ele>10.0</ele><time>2026-04-22T08:45:15.344Z</time></trkpt><trkpt lat="44.660728" lon="11.5227848"><ele>10.0</ele><time>2026-04-22T08:45:16.346Z</time></trkpt><trkpt lat="44.6606986" lon="11.5229556"><ele>10.0</ele><time>2026-04-22T08:45:18.339Z</time></trkpt><trkpt lat="44.6606828" lon="11.523042"><ele>10.0</ele><time>2026-04-22T08:45:19.342Z</time></trkpt><trkpt lat="44.6606669" lon="11.5231294"><ele>9.666666666666668</ele><time>2026-04-22T08:45:20.341Z</time></trkpt><trkpt lat="44.6606354" lon="11.5232991"><ele>9.333333333333334</ele><time>2026-04-22T08:45:22.341Z</time></trkpt><trkpt lat="44.6606203" lon="11.523386"><ele>9.0</ele><time>2026-04-22T08:45:23.345Z</time></trkpt><trkpt lat="44.6606048" lon="11.5234719"><ele>8.666666666666666</ele><time>2026-04-22T08:45:24.343Z</time></trkpt><trkpt lat="44.6605884" lon="11.5235576"><ele>8.333333333333332</ele><time>2026-04-22T08:45:25.338Z</time></trkpt><trkpt lat="44.6605722" lon="11.5236445"><ele>8.0</ele><time>2026-04-22T08:45:26.344Z</time></trkpt><trkpt lat="44.6605425" lon="11.5238169"><ele>7.999999999999999</ele><time>2026-04-22T08:45:28.355Z</time></trkpt><trkpt lat="44.6605111" lon="11.5239881"><ele>8.0</ele><time>2026-04-22T08:45:30.352Z</time></trkpt><trkpt lat="44.6604947" lon="11.5240737"><ele>8.0</ele><time>2026-04-22T08:45:31.335Z</time></trkpt><trkpt lat="44.6604597" lon="11.5242444"><ele>8.0</ele><time>2026-04-22T08:45:33.344Z</time></trkpt><trkpt lat="44.6604406" lon="11.5243293"><ele>7.999999999999999</ele><time>2026-04-22T08:45:34.345Z</time></trkpt><trkpt lat="44.6604242" lon="11.5244149"><ele>8.0</ele><time>2026-04-22T08:45:35.345Z</time></trkpt><trkpt lat="44.6603943" lon="11.5245822"><ele>7.999999999999999</ele><time>2026-04-22T08:45:37.34Z</time></trkpt><trkpt lat="44.6603664" lon="11.5247481"><ele>8.0</ele><time>2026-04-22T08:45:39.344Z</time></trkpt><trkpt lat="44.6603343" lon="11.52492"><ele>8.0</ele><time>2026-04-22T08:45:41.36Z</time></trkpt><trkpt lat="44.6603149" lon="11.5250081"><ele>8.0</ele><time>2026-04-22T08:45:42.344Z</time></trkpt><trkpt lat="44.6602964" lon="11.5250993"><ele>7.999999999999999</ele><time>2026-04-22T08:45:43.336Z</time></trkpt><trkpt lat="44.6602772" lon="11.5251918"><ele>8.0</ele><time>2026-04-22T08:45:44.343Z</time></trkpt><trkpt lat="44.6602593" lon="11.5252857"><ele>8.0</ele><time>2026-04-22T08:45:45.34Z</time></trkpt><trkpt lat="44.6602409" lon="11.5253802"><ele>7.999999999999999</ele><time>2026-04-22T08:45:46.335Z</time></trkpt><trkpt lat="44.6602217" lon="11.5254738"><ele>8.0</ele><time>2026-04-22T08:45:47.345Z</time></trkpt><trkpt lat="44.6602043" lon="11.5255652"><ele>8.0</ele><time>2026-04-22T08:45:48.338Z</time></trkpt><trkpt lat="44.6601876" lon="11.5256552"><ele>7.999999999999999</ele><time>2026-04-22T08:45:49.361Z</time></trkpt><trkpt lat="44.6601708" lon="11.5257442"><ele>8.0</ele><time>2026-04-22T08:45:50.353Z</time></trkpt><trkpt lat="44.6601536" lon="11.5258334"><ele>8.0</ele><time>2026-04-22T08:45:51.336Z</time></trkpt><trkpt lat="44.6601367" lon="11.525921"><ele>8.0</ele><time>2026-04-22T08:45:52.342Z</time></trkpt><trkpt lat="44.6601201" lon="11.5260083"><ele>7.999999999999999</ele><time>2026-04-22T08:45:53.344Z</time></trkpt><trkpt lat="44.6601034" lon="11.5260955"><ele>8.0</ele><time>2026-04-22T08:45:54.342Z</time></trkpt><trkpt lat="44.6600871" lon="11.5261817"><ele>8.0</ele><time>2026-04-22T08:45:55.352Z</time></trkpt><trkpt lat="44.6600709" lon="11.5262679"><ele>7.999999999999999</ele><time>2026-04-22T08:45:56.338Z</time></trkpt><trkpt lat="44.6600551" lon="11.5263536"><ele>8.0</ele><time>2026-04-22T08:45:57.34Z</time></trkpt><trkpt lat="44.6600238" lon="11.5265231"><ele>8.0</ele><time>2026-04-22T08:45:59.346Z</time></trkpt><trkpt lat="44.6599931" lon="11.5266912"><ele>7.5</ele><time>2026-04-22T08:46:01.344Z</time></trkpt><trkpt lat="44.6599593" lon="11.5268592"><ele>7.0</ele><time>2026-04-22T08:46:03.334Z</time></trkpt><trkpt lat="44.6599204" lon="11.5270245"><ele>6.5</ele><time>2026-04-22T08:46:05.354Z</time></trkpt><trkpt lat="44.6598826" lon="11.5271924"><ele>6.0</ele><time>2026-04-22T08:46:07.343Z</time></trkpt><trkpt lat="44.6598424" lon="11.5273577"><ele>6.0</ele><time>2026-04-22T08:46:09.339Z</time></trkpt><trkpt lat="44.6597967" lon="11.5275205"><ele>6.0</ele><time>2026-04-22T08:46:11.353Z</time></trkpt><trkpt lat="44.6597442" lon="11.5276806"><ele>6.0</ele><time>2026-04-22T08:46:13.344Z</time></trkpt><trkpt lat="44.659716" lon="11.5277601"><ele>6.0</ele><time>2026-04-22T08:46:14.346Z</time></trkpt><trkpt lat="44.6596586" lon="11.5279167"><ele>6.0</ele><time>2026-04-22T08:46:16.341Z</time></trkpt><trkpt lat="44.6595952" lon="11.528069"><ele>6.285714285714285</ele><time>2026-04-22T08:46:18.351Z</time></trkpt><trkpt lat="44.65956" lon="11.5281459"><ele>6.571428571428571</ele><time>2026-04-22T08:46:19.347Z</time></trkpt><trkpt lat="44.6595237" lon="11.5282221"><ele>6.857142857142857</ele><time>2026-04-22T08:46:20.348Z</time></trkpt><trkpt lat="44.6594859" lon="11.5282975"><ele>7.142857142857142</ele><time>2026-04-22T08:46:21.34Z</time></trkpt><trkpt lat="44.6594464" lon="11.5283718"><ele>7.428571428571428</ele><time>2026-04-22T08:46:22.346Z</time></trkpt><trkpt lat="44.6594055" lon="11.5284441"><ele>7.7142857142857135</ele><time>2026-04-22T08:46:23.35Z</time></trkpt><trkpt lat="44.6593625" lon="11.528515"><ele>8.0</ele><time>2026-04-22T08:46:24.347Z</time></trkpt><trkpt lat="44.6593187" lon="11.5285845"><ele>8.142857142857142</ele><time>2026-04-22T08:46:25.351Z</time></trkpt><trkpt lat="44.6592747" lon="11.5286563"><ele>8.285714285714285</ele><time>2026-04-22T08:46:26.346Z</time></trkpt><trkpt lat="44.6592301" lon="11.5287269"><ele>8.428571428571429</ele><time>2026-04-22T08:46:27.341Z</time></trkpt><trkpt lat="44.6591851" lon="11.5287975"><ele>8.571428571428571</ele><time>2026-04-22T08:46:28.348Z</time></trkpt><trkpt lat="44.6591402" lon="11.5288681"><ele>8.714285714285715</ele><time>2026-04-22T08:46:29.339Z</time></trkpt><trkpt lat="44.6590967" lon="11.5289377"><ele>8.857142857142858</ele><time>2026-04-22T08:46:30.348Z</time></trkpt><trkpt lat="44.6590541" lon="11.5290068"><ele>9.0</ele><time>2026-04-22T08:46:31.345Z</time></trkpt><trkpt lat="44.6590106" lon="11.5290772"><ele>8.714285714285715</ele><time>2026-04-22T08:46:32.347Z</time></trkpt><trkpt lat="44.6589676" lon="11.5291467"><ele>8.428571428571429</ele><time>2026-04-22T08:46:33.339Z</time></trkpt><trkpt lat="44.6589228" lon="11.5292159"><ele>8.142857142857142</ele><time>2026-04-22T08:46:34.347Z</time></trkpt><trkpt lat="44.6588779" lon="11.5292842"><ele>7.857142857142858</ele><time>2026-04-22T08:46:35.349Z</time></trkpt><trkpt lat="44.6588339" lon="11.5293548"><ele>7.571428571428571</ele><time>2026-04-22T08:46:36.36Z</time></trkpt><trkpt lat="44.6587916" lon="11.5294273"><ele>7.285714285714286</ele><time>2026-04-22T08:46:37.333Z</time></trkpt><trkpt lat="44.6587482" lon="11.5294979"><ele>7.0</ele><time>2026-04-22T08:46:38.344Z</time></trkpt><trkpt lat="44.6587046" lon="11.5295686"><ele>7.0</ele><time>2026-04-22T08:46:39.336Z</time></trkpt><trkpt lat="44.6586606" lon="11.5296393"><ele>7.0</ele><time>2026-04-22T08:46:40.344Z</time></trkpt><trkpt lat="44.6586168" lon="11.5297087"><ele>7.0</ele><time>2026-04-22T08:46:41.35Z</time></trkpt><trkpt lat="44.6585727" lon="11.5297785"><ele>7.0</ele><time>2026-04-22T08:46:42.342Z</time></trkpt><trkpt lat="44.6585282" lon="11.5298479"><ele>7.0</ele><time>2026-04-22T08:46:43.348Z</time></trkpt><trkpt lat="44.6584843" lon="11.5299186"><ele>7.0</ele><time>2026-04-22T08:46:44.341Z</time></trkpt><trkpt lat="44.6584403" lon="11.5299887"><ele>7.0</ele><time>2026-04-22T08:46:45.353Z</time></trkpt><trkpt lat="44.6583953" lon="11.5300586"><ele>7.0</ele><time>2026-04-22T08:46:46.343Z</time></trkpt><trkpt lat="44.6583507" lon="11.5301284"><ele>7.0</ele><time>2026-04-22T08:46:47.347Z</time></trkpt><trkpt lat="44.6583057" lon="11.5301961"><ele>7.0</ele><time>2026-04-22T08:46:48.35Z</time></trkpt><trkpt lat="44.6582608" lon="11.530266"><ele>7.0</ele><time>2026-04-22T08:46:49.341Z</time></trkpt><trkpt lat="44.6582164" lon="11.5303357"><ele>7.0</ele><time>2026-04-22T08:46:50.35Z</time></trkpt><trkpt lat="44.6581731" lon="11.5304052"><ele>7.0</ele><time>2026-04-22T08:46:51.353Z</time></trkpt><trkpt lat="44.6581304" lon="11.5304767"><ele>7.0</ele><time>2026-04-22T08:46:52.348Z</time></trkpt><trkpt lat="44.658087" lon="11.5305467"><ele>7.0</ele><time>2026-04-22T08:46:53.344Z</time></trkpt><trkpt lat="44.6580427" lon="11.5306162"><ele>7.0</ele><time>2026-04-22T08:46:54.338Z</time></trkpt><trkpt lat="44.6579993" lon="11.5306862"><ele>7.0</ele><time>2026-04-22T08:46:55.345Z</time></trkpt><trkpt lat="44.6579554" lon="11.5307558"><ele>7.0</ele><time>2026-04-22T08:46:56.345Z</time></trkpt><trkpt lat="44.6579102" lon="11.5308248"><ele>7.0</ele><time>2026-04-22T08:46:57.35Z</time></trkpt><trkpt lat="44.6578652" lon="11.5308937"><ele>7.0</ele><time>2026-04-22T08:46:58.338Z</time></trkpt><trkpt lat="44.6578198" lon="11.5309641"><ele>7.0</ele><time>2026-04-22T08:46:59.354Z</time></trkpt><trkpt lat="44.657775" lon="11.5310351"><ele>6.857142857142857</ele><time>2026-04-22T08:47:00.35Z</time></trkpt><trkpt lat="44.6577307" lon="11.5311051"><ele>6.714285714285714</ele><time>2026-04-22T08:47:01.349Z</time></trkpt><trkpt lat="44.6576859" lon="11.531175"><ele>6.571428571428571</ele><time>2026-04-22T08:47:02.336Z</time></trkpt><trkpt lat="44.6576429" lon="11.5312441"><ele>6.428571428571429</ele><time>2026-04-22T08:47:03.335Z</time></trkpt><trkpt lat="44.6575996" lon="11.531313"><ele>6.285714285714286</ele><time>2026-04-22T08:47:04.34Z</time></trkpt><trkpt lat="44.6575551" lon="11.5313808"><ele>6.142857142857142</ele><time>2026-04-22T08:47:05.333Z</time></trkpt><trkpt lat="44.6575119" lon="11.5314504"><ele>6.0</ele><time>2026-04-22T08:47:06.338Z</time></trkpt><trkpt lat="44.6574681" lon="11.5315195"><ele>5.999999999999999</ele><time>2026-04-22T08:47:07.335Z</time></trkpt><trkpt lat="44.6574244" lon="11.531588"><ele>6.0</ele><time>2026-04-22T08:47:08.358Z</time></trkpt><trkpt lat="44.6573796" lon="11.5316566"><ele>6.0</ele><time>2026-04-22T08:47:09.35Z</time></trkpt><trkpt lat="44.6573361" lon="11.5317259"><ele>6.0</ele><time>2026-04-22T08:47:10.342Z</time></trkpt><trkpt lat="44.6572923" lon="11.5317951"><ele>6.0</ele><time>2026-04-22T08:47:11.346Z</time></trkpt><trkpt lat="44.6572488" lon="11.5318629"><ele>5.999999999999999</ele><time>2026-04-22T08:47:12.337Z</time></trkpt><trkpt lat="44.657205" lon="11.5319311"><ele>6.0</ele><time>2026-04-22T08:47:13.34Z</time></trkpt><trkpt lat="44.657161" lon="11.5319996"><ele>5.999999999999999</ele><time>2026-04-22T08:47:14.344Z</time></trkpt><trkpt lat="44.6571176" lon="11.532067"><ele>6.0</ele><time>2026-04-22T08:47:15.345Z</time></trkpt><trkpt lat="44.6570743" lon="11.5321355"><ele>6.0</ele><time>2026-04-22T08:47:16.35Z</time></trkpt><trkpt lat="44.6570314" lon="11.5322028"><ele>6.0</ele><time>2026-04-22T08:47:17.342Z</time></trkpt><trkpt lat="44.6569877" lon="11.5322712"><ele>6.0</ele><time>2026-04-22T08:47:18.347Z</time></trkpt><trkpt lat="44.6569441" lon="11.5323374"><ele>5.999999999999999</ele><time>2026-04-22T08:47:19.347Z</time></trkpt><trkpt lat="44.6569016" lon="11.5324065"><ele>6.0</ele><time>2026-04-22T08:47:20.339Z</time></trkpt><trkpt lat="44.6568589" lon="11.5324733"><ele>5.999999999999999</ele><time>2026-04-22T08:47:21.339Z</time></trkpt><trkpt lat="44.6568163" lon="11.5325404"><ele>6.0</ele><time>2026-04-22T08:47:22.338Z</time></trkpt><trkpt lat="44.6567738" lon="11.532609"><ele>6.0</ele><time>2026-04-22T08:47:23.341Z</time></trkpt><trkpt lat="44.6567299" lon="11.5326762"><ele>6.0</ele><time>2026-04-22T08:47:24.338Z</time></trkpt><trkpt lat="44.6566864" lon="11.5327442"><ele>6.0</ele><time>2026-04-22T08:47:25.352Z</time></trkpt><trkpt lat="44.6566427" lon="11.5328112"><ele>5.999999999999999</ele><time>2026-04-22T08:47:26.343Z</time></trkpt><trkpt lat="44.6565999" lon="11.5328793"><ele>6.0</ele><time>2026-04-22T08:47:27.341Z</time></trkpt><trkpt lat="44.6565565" lon="11.5329462"><ele>5.857142857142857</ele><time>2026-04-22T08:47:28.341Z</time></trkpt><trkpt lat="44.656513" lon="11.533014"><ele>5.714285714285714</ele><time>2026-04-22T08:47:29.338Z</time></trkpt><trkpt lat="44.6564706" lon="11.5330812"><ele>5.571428571428571</ele><time>2026-04-22T08:47:30.345Z</time></trkpt><trkpt lat="44.6564273" lon="11.53315"><ele>5.428571428571429</ele><time>2026-04-22T08:47:31.357Z</time></trkpt><trkpt lat="44.6563834" lon="11.5332192"><ele>5.285714285714286</ele><time>2026-04-22T08:47:32.344Z</time></trkpt><trkpt lat="44.65634" lon="11.5332901"><ele>5.142857142857142</ele><time>2026-04-22T08:47:33.339Z</time></trkpt><trkpt lat="44.6562975" lon="11.5333607"><ele>5.0</ele><time>2026-04-22T08:47:34.349Z</time></trkpt><trkpt lat="44.6562532" lon="11.53343"><ele>5.0</ele><time>2026-04-22T08:47:35.338Z</time></trkpt><trkpt lat="44.6562093" lon="11.5334988"><ele>5.0</ele><time>2026-04-22T08:47:36.346Z</time></trkpt><trkpt lat="44.6561663" lon="11.5335678"><ele>5.0</ele><time>2026-04-22T08:47:37.342Z</time></trkpt><trkpt lat="44.6561238" lon="11.5336373"><ele>5.0</ele><time>2026-04-22T08:47:38.346Z</time></trkpt><trkpt lat="44.6560822" lon="11.5337058"><ele>5.0</ele><time>2026-04-22T08:47:39.342Z</time></trkpt><trkpt lat="44.65604" lon="11.5337742"><ele>5.0</ele><time>2026-04-22T08:47:40.355Z</time></trkpt><trkpt lat="44.6559967" lon="11.5338414"><ele>5.0</ele><time>2026-04-22T08:47:41.345Z</time></trkpt><trkpt lat="44.655954" lon="11.533909"><ele>5.125</ele><time>2026-04-22T08:47:42.34Z</time></trkpt><trkpt lat="44.655911" lon="11.5339759"><ele>5.25</ele><time>2026-04-22T08:47:43.333Z</time></trkpt><trkpt lat="44.6558687" lon="11.5340444"><ele>5.375</ele><time>2026-04-22T08:47:44.344Z</time></trkpt><trkpt lat="44.6558256" lon="11.5341112"><ele>5.5</ele><time>2026-04-22T08:47:45.343Z</time></trkpt><trkpt lat="44.6557824" lon="11.5341772"><ele>5.625</ele><time>2026-04-22T08:47:46.341Z</time></trkpt><trkpt lat="44.6557399" lon="11.5342431"><ele>5.75</ele><time>2026-04-22T08:47:47.355Z</time></trkpt><trkpt lat="44.6556978" lon="11.534309"><ele>5.875</ele><time>2026-04-22T08:47:48.341Z</time></trkpt><trkpt lat="44.6556563" lon="11.5343766"><ele>6.0</ele><time>2026-04-22T08:47:49.343Z</time></trkpt><trkpt lat="44.6556138" lon="11.5344438"><ele>5.999999999999999</ele><time>2026-04-22T08:47:50.348Z</time></trkpt><trkpt lat="44.655571" lon="11.5345111"><ele>6.0</ele><time>2026-04-22T08:47:51.345Z</time></trkpt><trkpt lat="44.6555279" lon="11.5345784"><ele>6.0</ele><time>2026-04-22T08:47:52.351Z</time></trkpt><trkpt lat="44.6554851" lon="11.5346461"><ele>6.0</ele><time>2026-04-22T08:47:53.343Z</time></trkpt><trkpt lat="44.6554427" lon="11.5347144"><ele>6.0</ele><time>2026-04-22T08:47:54.356Z</time></trkpt><trkpt lat="44.6553999" lon="11.5347825"><ele>5.999999999999999</ele><time>2026-04-22T08:47:55.349Z</time></trkpt><trkpt lat="44.6553559" lon="11.5348484"><ele>6.0</ele><time>2026-04-22T08:47:56.343Z</time></trkpt><trkpt lat="44.6553123" lon="11.5349162"><ele>5.857142857142857</ele><time>2026-04-22T08:47:57.343Z</time></trkpt><trkpt lat="44.6552699" lon="11.5349848"><ele>5.714285714285714</ele><time>2026-04-22T08:47:58.35Z</time></trkpt><trkpt lat="44.6552262" lon="11.5350507"><ele>5.571428571428571</ele><time>2026-04-22T08:47:59.338Z</time></trkpt><trkpt lat="44.6551821" lon="11.5351156"><ele>5.428571428571429</ele><time>2026-04-22T08:48:00.343Z</time></trkpt><trkpt lat="44.6551383" lon="11.5351834"><ele>5.285714285714286</ele><time>2026-04-22T08:48:01.339Z</time></trkpt><trkpt lat="44.6550949" lon="11.5352511"><ele>5.142857142857142</ele><time>2026-04-22T08:48:02.34Z</time></trkpt><trkpt lat="44.6550529" lon="11.5353207"><ele>5.0</ele><time>2026-04-22T08:48:03.342Z</time></trkpt><trkpt lat="44.6550107" lon="11.5353896"><ele>5.0</ele><time>2026-04-22T08:48:04.352Z</time></trkpt><trkpt lat="44.6549677" lon="11.5354593"><ele>5.0</ele><time>2026-04-22T08:48:05.338Z</time></trkpt><trkpt lat="44.6549254" lon="11.5355291"><ele>5.0</ele><time>2026-04-22T08:48:06.338Z</time></trkpt><trkpt lat="44.6548825" lon="11.5355976"><ele>5.0</ele><time>2026-04-22T08:48:07.341Z</time></trkpt><trkpt lat="44.6548387" lon="11.5356657"><ele>5.0</ele><time>2026-04-22T08:48:08.353Z</time></trkpt><trkpt lat="44.6547955" lon="11.5357339"><ele>5.0</ele><time>2026-04-22T08:48:09.344Z</time></trkpt><trkpt lat="44.6547522" lon="11.5358031"><ele>5.0</ele><time>2026-04-22T08:48:10.347Z</time></trkpt><trkpt lat="44.6547087" lon="11.5358711"><ele>5.0</ele><time>2026-04-22T08:48:11.355Z</time></trkpt><trkpt lat="44.6546654" lon="11.53594"><ele>5.0</ele><time>2026-04-22T08:48:12.35Z</time></trkpt><trkpt lat="44.6546222" lon="11.5360089"><ele>5.0</ele><time>2026-04-22T08:48:13.336Z</time></trkpt><trkpt lat="44.6545767" lon="11.5360746"><ele>5.0</ele><time>2026-04-22T08:48:14.349Z</time></trkpt><trkpt lat="44.6545296" lon="11.5361383"><ele>5.0</ele><time>2026-04-22T08:48:15.337Z</time></trkpt><trkpt lat="44.6544857" lon="11.5362061"><ele>5.0</ele><time>2026-04-22T08:48:16.355Z</time></trkpt><trkpt lat="44.654443" lon="11.5362739"><ele>5.0</ele><time>2026-04-22T08:48:17.347Z</time></trkpt><trkpt lat="44.6544002" lon="11.5363404"><ele>5.285714285714286</ele><time>2026-04-22T08:48:18.346Z</time></trkpt><trkpt lat="44.6543586" lon="11.5364084"><ele>5.571428571428571</ele><time>2026-04-22T08:48:19.351Z</time></trkpt><trkpt lat="44.6543172" lon="11.5364758"><ele>5.857142857142858</ele><time>2026-04-22T08:48:20.348Z</time></trkpt><trkpt lat="44.6542747" lon="11.5365438"><ele>6.142857142857142</ele><time>2026-04-22T08:48:21.343Z</time></trkpt><trkpt lat="44.6542317" lon="11.5366101"><ele>6.428571428571429</ele><time>2026-04-22T08:48:22.35Z</time></trkpt><trkpt lat="44.6541882" lon="11.5366784"><ele>6.714285714285714</ele><time>2026-04-22T08:48:23.341Z</time></trkpt><trkpt lat="44.6541446" lon="11.5367476"><ele>7.0</ele><time>2026-04-22T08:48:24.354Z</time></trkpt><trkpt lat="44.6541011" lon="11.5368162"><ele>7.0</ele><time>2026-04-22T08:48:25.342Z</time></trkpt><trkpt lat="44.6540578" lon="11.5368842"><ele>7.0</ele><time>2026-04-22T08:48:26.345Z</time></trkpt><trkpt lat="44.6540151" lon="11.5369508"><ele>7.0</ele><time>2026-04-22T08:48:27.35Z</time></trkpt><trkpt lat="44.6539717" lon="11.5370189"><ele>7.0</ele><time>2026-04-22T08:48:28.347Z</time></trkpt><trkpt lat="44.6539297" lon="11.5370888"><ele>7.0</ele><time>2026-04-22T08:48:29.348Z</time></trkpt><trkpt lat="44.6538869" lon="11.5371615"><ele>7.0</ele><time>2026-04-22T08:48:30.343Z</time></trkpt><trkpt lat="44.6538431" lon="11.5372289"><ele>7.0</ele><time>2026-04-22T08:48:31.345Z</time></trkpt><trkpt lat="44.6537993" lon="11.5372977"><ele>7.0</ele><time>2026-04-22T08:48:32.345Z</time></trkpt><trkpt lat="44.6537563" lon="11.5373632"><ele>7.0</ele><time>2026-04-22T08:48:33.345Z</time></trkpt><trkpt lat="44.6537123" lon="11.5374296"><ele>7.0</ele><time>2026-04-22T08:48:34.352Z</time></trkpt><trkpt lat="44.6536696" lon="11.5374972"><ele>7.0</ele><time>2026-04-22T08:48:35.337Z</time></trkpt><trkpt lat="44.6536264" lon="11.5375642"><ele>7.0</ele><time>2026-04-22T08:48:36.339Z</time></trkpt><trkpt lat="44.6535836" lon="11.5376315"><ele>7.0</ele><time>2026-04-22T08:48:37.343Z</time></trkpt><trkpt lat="44.6534992" lon="11.5377593"><ele>7.0</ele><time>2026-04-22T08:48:39.346Z</time></trkpt><trkpt lat="44.6534575" lon="11.5378298"><ele>7.000000000000001</ele><time>2026-04-22T08:48:40.35Z</time></trkpt><trkpt lat="44.6534154" lon="11.5378978"><ele>7.0</ele><time>2026-04-22T08:48:41.347Z</time></trkpt><trkpt lat="44.653373" lon="11.5379654"><ele>7.0</ele><time>2026-04-22T08:48:42.337Z</time></trkpt><trkpt lat="44.6532892" lon="11.5380965"><ele>7.0</ele><time>2026-04-22T08:48:44.354Z</time></trkpt><trkpt lat="44.6532059" lon="11.5382276"><ele>7.000000000000001</ele><time>2026-04-22T08:48:46.347Z</time></trkpt><trkpt lat="44.6531638" lon="11.5382934"><ele>7.0</ele><time>2026-04-22T08:48:47.351Z</time></trkpt><trkpt lat="44.6531216" lon="11.5383604"><ele>7.0</ele><time>2026-04-22T08:48:48.338Z</time></trkpt><trkpt lat="44.6530792" lon="11.5384259"><ele>7.0</ele><time>2026-04-22T08:48:49.34Z</time></trkpt><trkpt lat="44.6530367" lon="11.5384925"><ele>7.0</ele><time>2026-04-22T08:48:50.337Z</time></trkpt><trkpt lat="44.6529939" lon="11.5385599"><ele>7.0</ele><time>2026-04-22T08:48:51.349Z</time></trkpt><trkpt lat="44.6529512" lon="11.5386287"><ele>7.0</ele><time>2026-04-22T08:48:52.338Z</time></trkpt><trkpt lat="44.6529091" lon="11.5386969"><ele>7.0</ele><time>2026-04-22T08:48:53.349Z</time></trkpt><trkpt lat="44.6528652" lon="11.5387653"><ele>7.0</ele><time>2026-04-22T08:48:54.342Z</time></trkpt><trkpt lat="44.6528212" lon="11.538833"><ele>7.0</ele><time>2026-04-22T08:48:55.347Z</time></trkpt><trkpt lat="44.6527766" lon="11.5388999"><ele>7.0</ele><time>2026-04-22T08:48:56.346Z</time></trkpt><trkpt lat="44.6527321" lon="11.5389671"><ele>7.0</ele><time>2026-04-22T08:48:57.347Z</time></trkpt><trkpt lat="44.6526873" lon="11.5390368"><ele>7.0</ele><time>2026-04-22T08:48:58.355Z</time></trkpt><trkpt lat="44.6526422" lon="11.5391043"><ele>7.0</ele><time>2026-04-22T08:48:59.348Z</time></trkpt><trkpt lat="44.6525989" lon="11.5391731"><ele>7.0</ele><time>2026-04-22T08:49:00.34Z</time></trkpt><trkpt lat="44.6525542" lon="11.5392439"><ele>7.0</ele><time>2026-04-22T08:49:01.347Z</time></trkpt><trkpt lat="44.6525112" lon="11.5393152"><ele>7.0</ele><time>2026-04-22T08:49:02.346Z</time></trkpt><trkpt lat="44.6524688" lon="11.539384"><ele>7.0</ele><time>2026-04-22T08:49:03.341Z</time></trkpt><trkpt lat="44.6524264" lon="11.5394534"><ele>7.0</ele><time>2026-04-22T08:49:04.341Z</time></trkpt><trkpt lat="44.6523836" lon="11.5395214"><ele>7.0</ele><time>2026-04-22T08:49:05.348Z</time></trkpt><trkpt lat="44.652343" lon="11.5395896"><ele>7.0</ele><time>2026-04-22T08:49:06.349Z</time></trkpt><trkpt lat="44.6523017" lon="11.5396575"><ele>7.0</ele><time>2026-04-22T08:49:07.346Z</time></trkpt><trkpt lat="44.6522598" lon="11.5397262"><ele>7.0</ele><time>2026-04-22T08:49:08.355Z</time></trkpt><trkpt lat="44.6522167" lon="11.539794"><ele>7.0</ele><time>2026-04-22T08:49:09.342Z</time></trkpt><trkpt lat="44.6521737" lon="11.5398606"><ele>7.0</ele><time>2026-04-22T08:49:10.343Z</time></trkpt><trkpt lat="44.6521311" lon="11.5399291"><ele>7.0</ele><time>2026-04-22T08:49:11.347Z</time></trkpt><trkpt lat="44.6520885" lon="11.5399962"><ele>7.0</ele><time>2026-04-22T08:49:12.337Z</time></trkpt><trkpt lat="44.6520439" lon="11.5400666"><ele>7.0</ele><time>2026-04-22T08:49:13.338Z</time></trkpt><trkpt lat="44.6519992" lon="11.5401364"><ele>7.0</ele><time>2026-04-22T08:49:14.34Z</time></trkpt><trkpt lat="44.6519559" lon="11.5402063"><ele>7.0</ele><time>2026-04-22T08:49:15.344Z</time></trkpt><trkpt lat="44.651912" lon="11.5402752"><ele>7.0</ele><time>2026-04-22T08:49:16.346Z</time></trkpt><trkpt lat="44.6518663" lon="11.540343"><ele>7.0</ele><time>2026-04-22T08:49:17.358Z</time></trkpt><trkpt lat="44.6518212" lon="11.5404094"><ele>7.0</ele><time>2026-04-22T08:49:18.342Z</time></trkpt><trkpt lat="44.6517756" lon="11.5404767"><ele>7.0</ele><time>2026-04-22T08:49:19.342Z</time></trkpt><trkpt lat="44.651731" lon="11.5405426"><ele>7.0</ele><time>2026-04-22T08:49:20.338Z</time></trkpt><trkpt lat="44.6516868" lon="11.5406095"><ele>7.0</ele><time>2026-04-22T08:49:21.337Z</time></trkpt><trkpt lat="44.6516426" lon="11.5406763"><ele>7.0</ele><time>2026-04-22T08:49:22.34Z</time></trkpt><trkpt lat="44.6515998" lon="11.5407432"><ele>7.0</ele><time>2026-04-22T08:49:23.34Z</time></trkpt><trkpt lat="44.6515565" lon="11.5408105"><ele>6.999999999999999</ele><time>2026-04-22T08:49:24.342Z</time></trkpt><trkpt lat="44.6515121" lon="11.5408738"><ele>6.999999999999999</ele><time>2026-04-22T08:49:25.346Z</time></trkpt><trkpt lat="44.651427" lon="11.5410006"><ele>7.0</ele><time>2026-04-22T08:49:27.34Z</time></trkpt><trkpt lat="44.6513494" lon="11.5411197"><ele>7.0</ele><time>2026-04-22T08:49:29.347Z</time></trkpt><trkpt lat="44.6512816" lon="11.5412244"><ele>7.166666666666667</ele><time>2026-04-22T08:49:31.352Z</time></trkpt><trkpt lat="44.6512244" lon="11.5413138"><ele>7.333333333333334</ele><time>2026-04-22T08:49:33.337Z</time></trkpt><trkpt lat="44.6511762" lon="11.5413905"><ele>7.5</ele><time>2026-04-22T08:49:36.354Z</time></trkpt><trkpt lat="44.6511646" lon="11.541512"><ele>7.666666666666666</ele><time>2026-04-22T08:49:40.341Z</time></trkpt><trkpt lat="44.6511997" lon="11.5415996"><ele>7.833333333333333</ele><time>2026-04-22T08:49:42.344Z</time></trkpt><trkpt lat="44.6512547" lon="11.5416932"><ele>8.0</ele><time>2026-04-22T08:49:44.338Z</time></trkpt><trkpt lat="44.6513179" lon="11.5417896"><ele>8.0</ele><time>2026-04-22T08:49:46.341Z</time></trkpt><trkpt lat="44.6513879" lon="11.5418949"><ele>8.0</ele><time>2026-04-22T08:49:48.341Z</time></trkpt><trkpt lat="44.6514612" lon="11.5420041"><ele>8.0</ele><time>2026-04-22T08:49:50.347Z</time></trkpt><trkpt lat="44.6515356" lon="11.5421181"><ele>8.0</ele><time>2026-04-22T08:49:52.348Z</time></trkpt><trkpt lat="44.6516146" lon="11.5422331"><ele>8.0</ele><time>2026-04-22T08:49:54.349Z</time></trkpt><trkpt lat="44.6516928" lon="11.5423545"><ele>8.25</ele><time>2026-04-22T08:49:56.342Z</time></trkpt><trkpt lat="44.6517734" lon="11.5424762"><ele>8.5</ele><time>2026-04-22T08:49:58.349Z</time></trkpt><trkpt lat="44.6518551" lon="11.5425956"><ele>8.75</ele><time>2026-04-22T08:50:00.347Z</time></trkpt><trkpt lat="44.6519363" lon="11.5427166"><ele>9.0</ele><time>2026-04-22T08:50:02.345Z</time></trkpt><trkpt lat="44.6520152" lon="11.5428374"><ele>9.25</ele><time>2026-04-22T08:50:04.342Z</time></trkpt><trkpt lat="44.6520945" lon="11.5429566"><ele>9.5</ele><time>2026-04-22T08:50:06.354Z</time></trkpt><trkpt lat="44.6521739" lon="11.5430751"><ele>9.75</ele><time>2026-04-22T08:50:08.342Z</time></trkpt><trkpt lat="44.6522535" lon="11.5431959"><ele>10.0</ele><time>2026-04-22T08:50:10.348Z</time></trkpt><trkpt lat="44.6523331" lon="11.5433163"><ele>10.0</ele><time>2026-04-22T08:50:12.336Z</time></trkpt><trkpt lat="44.6524111" lon="11.5434361"><ele>10.0</ele><time>2026-04-22T08:50:14.339Z</time></trkpt><trkpt lat="44.6524885" lon="11.5435559"><ele>10.0</ele><time>2026-04-22T08:50:16.343Z</time></trkpt><trkpt lat="44.6525654" lon="11.5436755"><ele>10.0</ele><time>2026-04-22T08:50:18.354Z</time></trkpt><trkpt lat="44.6526414" lon="11.5437982"><ele>9.75</ele><time>2026-04-22T08:50:20.341Z</time></trkpt><trkpt lat="44.6527192" lon="11.543924"><ele>9.5</ele><time>2026-04-22T08:50:22.34Z</time></trkpt><trkpt lat="44.6527986" lon="11.5440487"><ele>9.25</ele><time>2026-04-22T08:50:24.341Z</time></trkpt><trkpt lat="44.6528782" lon="11.5441751"><ele>9.0</ele><time>2026-04-22T08:50:26.347Z</time></trkpt><trkpt lat="44.6529579" lon="11.5443017"><ele>9.0</ele><time>2026-04-22T08:50:28.35Z</time></trkpt><trkpt lat="44.6530385" lon="11.5444294"><ele>9.0</ele><time>2026-04-22T08:50:30.343Z</time></trkpt><trkpt lat="44.6531203" lon="11.5445588"><ele>9.0</ele><time>2026-04-22T08:50:32.343Z</time></trkpt><trkpt lat="44.653201" lon="11.5446857"><ele>9.0</ele><time>2026-04-22T08:50:34.347Z</time></trkpt><trkpt lat="44.6532805" lon="11.5448161"><ele>9.0</ele><time>2026-04-22T08:50:36.346Z</time></trkpt><trkpt lat="44.6533613" lon="11.5449434"><ele>9.0</ele><time>2026-04-22T08:50:38.35Z</time></trkpt><trkpt lat="44.6534418" lon="11.5450708"><ele>9.0</ele><time>2026-04-22T08:50:40.347Z</time></trkpt><trkpt lat="44.653521" lon="11.5451955"><ele>9.0</ele><time>2026-04-22T08:50:42.341Z</time></trkpt><trkpt lat="44.6536015" lon="11.5453214"><ele>9.5</ele><time>2026-04-22T08:50:44.338Z</time></trkpt><trkpt lat="44.6536816" lon="11.5454495"><ele>10.0</ele><time>2026-04-22T08:50:46.34Z</time></trkpt><trkpt lat="44.6537627" lon="11.5455779"><ele>10.5</ele><time>2026-04-22T08:50:48.343Z</time></trkpt><trkpt lat="44.6538439" lon="11.5457056"><ele>11.0</ele><time>2026-04-22T08:50:50.339Z</time></trkpt><trkpt lat="44.653925" lon="11.5458339"><ele>11.0</ele><time>2026-04-22T08:50:52.344Z</time></trkpt><trkpt lat="44.6540057" lon="11.5459629"><ele>11.0</ele><time>2026-04-22T08:50:54.346Z</time></trkpt><trkpt lat="44.6540846" lon="11.5460919"><ele>11.0</ele><time>2026-04-22T08:50:56.339Z</time></trkpt><trkpt lat="44.6541633" lon="11.546224"><ele>11.0</ele><time>2026-04-22T08:50:58.342Z</time></trkpt><trkpt lat="44.6542402" lon="11.5463573"><ele>10.75</ele><time>2026-04-22T08:51:00.327Z</time></trkpt><trkpt lat="44.6543174" lon="11.5464916"><ele>10.5</ele><time>2026-04-22T08:51:02.332Z</time></trkpt><trkpt lat="44.6543924" lon="11.5466272"><ele>10.25</ele><time>2026-04-22T08:51:04.334Z</time></trkpt><trkpt lat="44.6544657" lon="11.5467637"><ele>10.0</ele><time>2026-04-22T08:51:06.343Z</time></trkpt><trkpt lat="44.6545369" lon="11.5469022"><ele>10.0</ele><time>2026-04-22T08:51:08.337Z</time></trkpt><trkpt lat="44.6546062" lon="11.5470427"><ele>10.0</ele><time>2026-04-22T08:51:10.343Z</time></trkpt><trkpt lat="44.6546753" lon="11.5471823"><ele>10.0</ele><time>2026-04-22T08:51:12.333Z</time></trkpt><trkpt lat="44.6547442" lon="11.5473242"><ele>10.0</ele><time>2026-04-22T08:51:14.351Z</time></trkpt><trkpt lat="44.6548132" lon="11.5474686"><ele>10.0</ele><time>2026-04-22T08:51:16.342Z</time></trkpt><trkpt lat="44.6548831" lon="11.5476153"><ele>10.0</ele><time>2026-04-22T08:51:18.347Z</time></trkpt><trkpt lat="44.6549182" lon="11.5476891"><ele>10.0</ele><time>2026-04-22T08:51:19.345Z</time></trkpt><trkpt lat="44.654953" lon="11.5477639"><ele>10.0</ele><time>2026-04-22T08:51:20.34Z</time></trkpt><trkpt lat="44.6549884" lon="11.5478377"><ele>10.0</ele><time>2026-04-22T08:51:21.349Z</time></trkpt><trkpt lat="44.6550239" lon="11.547912"><ele>10.0</ele><time>2026-04-22T08:51:22.352Z</time></trkpt><trkpt lat="44.6550585" lon="11.5479877"><ele>10.0</ele><time>2026-04-22T08:51:23.346Z</time></trkpt><trkpt lat="44.6550938" lon="11.5480637"><ele>10.0</ele><time>2026-04-22T08:51:24.34Z</time></trkpt><trkpt lat="44.6551288" lon="11.5481384"><ele>10.0</ele><time>2026-04-22T08:51:25.352Z</time></trkpt><trkpt lat="44.6551635" lon="11.5482125"><ele>10.0</ele><time>2026-04-22T08:51:26.341Z</time></trkpt><trkpt lat="44.6552319" lon="11.5483609"><ele>10.0</ele><time>2026-04-22T08:51:28.349Z</time></trkpt><trkpt lat="44.6552666" lon="11.5484358"><ele>10.0</ele><time>2026-04-22T08:51:29.335Z</time></trkpt><trkpt lat="44.6553021" lon="11.5485104"><ele>10.0</ele><time>2026-04-22T08:51:30.337Z</time></trkpt><trkpt lat="44.6553372" lon="11.548585"><ele>10.0</ele><time>2026-04-22T08:51:31.335Z</time></trkpt><trkpt lat="44.6553724" lon="11.5486598"><ele>10.0</ele><time>2026-04-22T08:51:32.339Z</time></trkpt><trkpt lat="44.6554074" lon="11.5487342"><ele>10.0</ele><time>2026-04-22T08:51:33.352Z</time></trkpt><trkpt lat="44.6554424" lon="11.5488087"><ele>10.0</ele><time>2026-04-22T08:51:34.34Z</time></trkpt><trkpt lat="44.6554784" lon="11.5488828"><ele>10.0</ele><time>2026-04-22T08:51:35.344Z</time></trkpt><trkpt lat="44.6555141" lon="11.548957"><ele>10.0</ele><time>2026-04-22T08:51:36.343Z</time></trkpt><trkpt lat="44.6555499" lon="11.5490305"><ele>10.0</ele><time>2026-04-22T08:51:37.348Z</time></trkpt><trkpt lat="44.6555854" lon="11.5491039"><ele>10.0</ele><time>2026-04-22T08:51:38.347Z</time></trkpt><trkpt lat="44.655621" lon="11.5491784"><ele>10.0</ele><time>2026-04-22T08:51:39.339Z</time></trkpt><trkpt lat="44.6556573" lon="11.5492511"><ele>10.0</ele><time>2026-04-22T08:51:40.346Z</time></trkpt><trkpt lat="44.6557288" lon="11.5493962"><ele>10.0</ele><time>2026-04-22T08:51:42.34Z</time></trkpt><trkpt lat="44.6557654" lon="11.549469"><ele>10.0</ele><time>2026-04-22T08:51:43.349Z</time></trkpt><trkpt lat="44.6558011" lon="11.5495424"><ele>10.0</ele><time>2026-04-22T08:51:44.345Z</time></trkpt><trkpt lat="44.6558377" lon="11.5496156"><ele>10.0</ele><time>2026-04-22T08:51:45.345Z</time></trkpt><trkpt lat="44.6559101" lon="11.5497598"><ele>10.0</ele><time>2026-04-22T08:51:47.34Z</time></trkpt><trkpt lat="44.655983" lon="11.5499035"><ele>10.0</ele><time>2026-04-22T08:51:49.349Z</time></trkpt><trkpt lat="44.6560564" lon="11.550048"><ele>10.0</ele><time>2026-04-22T08:51:51.343Z</time></trkpt><trkpt lat="44.6560927" lon="11.5501217"><ele>10.0</ele><time>2026-04-22T08:51:52.338Z</time></trkpt><trkpt lat="44.6561291" lon="11.550195"><ele>10.0</ele><time>2026-04-22T08:51:53.346Z</time></trkpt><trkpt lat="44.6561655" lon="11.5502686"><ele>10.0</ele><time>2026-04-22T08:51:54.346Z</time></trkpt><trkpt lat="44.6562027" lon="11.5503431"><ele>10.0</ele><time>2026-04-22T08:51:55.346Z</time></trkpt><trkpt lat="44.6562409" lon="11.5504166"><ele>10.0</ele><time>2026-04-22T08:51:56.342Z</time></trkpt><trkpt lat="44.6562794" lon="11.5504907"><ele>10.142857142857142</ele><time>2026-04-22T08:51:57.342Z</time></trkpt><trkpt lat="44.6563157" lon="11.5505652"><ele>10.285714285714286</ele><time>2026-04-22T08:51:58.358Z</time></trkpt><trkpt lat="44.6563525" lon="11.55064"><ele>10.428571428571429</ele><time>2026-04-22T08:51:59.338Z</time></trkpt><trkpt lat="44.65639" lon="11.550713"><ele>10.571428571428571</ele><time>2026-04-22T08:52:00.336Z</time></trkpt><trkpt lat="44.6564273" lon="11.5507868"><ele>10.714285714285714</ele><time>2026-04-22T08:52:01.342Z</time></trkpt><trkpt lat="44.6564639" lon="11.5508612"><ele>10.857142857142858</ele><time>2026-04-22T08:52:02.347Z</time></trkpt><trkpt lat="44.6565016" lon="11.5509357"><ele>11.0</ele><time>2026-04-22T08:52:03.341Z</time></trkpt><trkpt lat="44.656538" lon="11.55101"><ele>11.0</ele><time>2026-04-22T08:52:04.338Z</time></trkpt><trkpt lat="44.6565749" lon="11.5510832"><ele>11.0</ele><time>2026-04-22T08:52:05.336Z</time></trkpt><trkpt lat="44.6566116" lon="11.5511561"><ele>11.0</ele><time>2026-04-22T08:52:06.347Z</time></trkpt><trkpt lat="44.6566485" lon="11.55123"><ele>11.0</ele><time>2026-04-22T08:52:07.348Z</time></trkpt><trkpt lat="44.6566849" lon="11.5513035"><ele>11.0</ele><time>2026-04-22T08:52:08.338Z</time></trkpt><trkpt lat="44.6567222" lon="11.5513761"><ele>11.0</ele><time>2026-04-22T08:52:09.353Z</time></trkpt><trkpt lat="44.6567595" lon="11.5514491"><ele>11.0</ele><time>2026-04-22T08:52:10.34Z</time></trkpt><trkpt lat="44.6567965" lon="11.5515228"><ele>11.0</ele><time>2026-04-22T08:52:11.339Z</time></trkpt><trkpt lat="44.6568331" lon="11.5515965"><ele>10.857142857142858</ele><time>2026-04-22T08:52:12.338Z</time></trkpt><trkpt lat="44.6568703" lon="11.5516696"><ele>10.714285714285714</ele><time>2026-04-22T08:52:13.349Z</time></trkpt><trkpt lat="44.6569068" lon="11.551743"><ele>10.571428571428571</ele><time>2026-04-22T08:52:14.346Z</time></trkpt><trkpt lat="44.6569429" lon="11.5518171"><ele>10.428571428571429</ele><time>2026-04-22T08:52:15.342Z</time></trkpt><trkpt lat="44.65698" lon="11.5518923"><ele>10.285714285714286</ele><time>2026-04-22T08:52:16.345Z</time></trkpt><trkpt lat="44.6570166" lon="11.5519684"><ele>10.142857142857142</ele><time>2026-04-22T08:52:17.345Z</time></trkpt><trkpt lat="44.657053" lon="11.5520461"><ele>10.0</ele><time>2026-04-22T08:52:18.344Z</time></trkpt><trkpt lat="44.6570893" lon="11.5521241"><ele>10.0</ele><time>2026-04-22T08:52:19.348Z</time></trkpt><trkpt lat="44.6571255" lon="11.5522032"><ele>10.0</ele><time>2026-04-22T08:52:20.346Z</time></trkpt><trkpt lat="44.657161" lon="11.5522809"><ele>10.0</ele><time>2026-04-22T08:52:21.347Z</time></trkpt><trkpt lat="44.6571964" lon="11.5523584"><ele>10.0</ele><time>2026-04-22T08:52:22.342Z</time></trkpt><trkpt lat="44.6572314" lon="11.552437"><ele>10.0</ele><time>2026-04-22T08:52:23.344Z</time></trkpt><trkpt lat="44.6572653" lon="11.5525144"><ele>10.0</ele><time>2026-04-22T08:52:24.339Z</time></trkpt><trkpt lat="44.6572994" lon="11.5525918"><ele>10.0</ele><time>2026-04-22T08:52:25.349Z</time></trkpt><trkpt lat="44.6573328" lon="11.5526686"><ele>10.0</ele><time>2026-04-22T08:52:26.34Z</time></trkpt><trkpt lat="44.6573666" lon="11.552745"><ele>10.0</ele><time>2026-04-22T08:52:27.342Z</time></trkpt><trkpt lat="44.6573999" lon="11.5528205"><ele>10.0</ele><time>2026-04-22T08:52:28.339Z</time></trkpt><trkpt lat="44.6574339" lon="11.552897"><ele>10.0</ele><time>2026-04-22T08:52:29.342Z</time></trkpt><trkpt lat="44.6574676" lon="11.5529734"><ele>10.0</ele><time>2026-04-22T08:52:30.34Z</time></trkpt><trkpt lat="44.6575016" lon="11.5530503"><ele>10.0</ele><time>2026-04-22T08:52:31.344Z</time></trkpt><trkpt lat="44.6575334" lon="11.5531271"><ele>10.0</ele><time>2026-04-22T08:52:32.337Z</time></trkpt><trkpt lat="44.657567" lon="11.5532045"><ele>10.0</ele><time>2026-04-22T08:52:33.341Z</time></trkpt><trkpt lat="44.6576008" lon="11.5532808"><ele>9.875</ele><time>2026-04-22T08:52:34.337Z</time></trkpt><trkpt lat="44.6576348" lon="11.5533571"><ele>9.75</ele><time>2026-04-22T08:52:35.34Z</time></trkpt><trkpt lat="44.6576686" lon="11.5534332"><ele>9.625</ele><time>2026-04-22T08:52:36.341Z</time></trkpt><trkpt lat="44.6577017" lon="11.5535093"><ele>9.5</ele><time>2026-04-22T08:52:37.343Z</time></trkpt><trkpt lat="44.6577349" lon="11.5535857"><ele>9.375</ele><time>2026-04-22T08:52:38.352Z</time></trkpt><trkpt lat="44.657769" lon="11.5536626"><ele>9.25</ele><time>2026-04-22T08:52:39.344Z</time></trkpt><trkpt lat="44.6578018" lon="11.5537386"><ele>9.125</ele><time>2026-04-22T08:52:40.339Z</time></trkpt><trkpt lat="44.6578356" lon="11.5538143"><ele>9.0</ele><time>2026-04-22T08:52:41.339Z</time></trkpt><trkpt lat="44.6578691" lon="11.5538896"><ele>9.0</ele><time>2026-04-22T08:52:42.337Z</time></trkpt><trkpt lat="44.6579032" lon="11.5539655"><ele>9.0</ele><time>2026-04-22T08:52:43.342Z</time></trkpt><trkpt lat="44.657937" lon="11.5540414"><ele>9.0</ele><time>2026-04-22T08:52:44.341Z</time></trkpt><trkpt lat="44.6579705" lon="11.5541185"><ele>9.0</ele><time>2026-04-22T08:52:45.35Z</time></trkpt><trkpt lat="44.6580028" lon="11.5541959"><ele>9.0</ele><time>2026-04-22T08:52:46.344Z</time></trkpt><trkpt lat="44.6580348" lon="11.5542739"><ele>9.0</ele><time>2026-04-22T08:52:47.347Z</time></trkpt><trkpt lat="44.6580677" lon="11.5543511"><ele>9.0</ele><time>2026-04-22T08:52:48.346Z</time></trkpt><trkpt lat="44.6581019" lon="11.5544274"><ele>9.0</ele><time>2026-04-22T08:52:49.353Z</time></trkpt><trkpt lat="44.6581356" lon="11.5545033"><ele>9.000000000000002</ele><time>2026-04-22T08:52:50.344Z</time></trkpt><trkpt lat="44.6581695" lon="11.5545785"><ele>9.0</ele><time>2026-04-22T08:52:51.348Z</time></trkpt><trkpt lat="44.6582345" lon="11.5547305"><ele>9.0</ele><time>2026-04-22T08:52:53.353Z</time></trkpt><trkpt lat="44.6582687" lon="11.5548052"><ele>9.0</ele><time>2026-04-22T08:52:54.345Z</time></trkpt><trkpt lat="44.6583027" lon="11.5548814"><ele>9.0</ele><time>2026-04-22T08:52:55.348Z</time></trkpt><trkpt lat="44.658336" lon="11.5549571"><ele>9.000000000000002</ele><time>2026-04-22T08:52:56.344Z</time></trkpt><trkpt lat="44.65837" lon="11.5550338"><ele>9.0</ele><time>2026-04-22T08:52:57.335Z</time></trkpt><trkpt lat="44.6584035" lon="11.5551098"><ele>9.000000000000002</ele><time>2026-04-22T08:52:58.339Z</time></trkpt><trkpt lat="44.6584381" lon="11.5551856"><ele>9.0</ele><time>2026-04-22T08:52:59.351Z</time></trkpt><trkpt lat="44.658473" lon="11.5552608"><ele>9.0</ele><time>2026-04-22T08:53:00.347Z</time></trkpt><trkpt lat="44.6585078" lon="11.5553374"><ele>9.0</ele><time>2026-04-22T08:53:01.335Z</time></trkpt><trkpt lat="44.6585414" lon="11.5554143"><ele>9.0</ele><time>2026-04-22T08:53:02.344Z</time></trkpt><trkpt lat="44.6585756" lon="11.5554911"><ele>9.000000000000002</ele><time>2026-04-22T08:53:03.34Z</time></trkpt><trkpt lat="44.6586103" lon="11.5555674"><ele>9.0</ele><time>2026-04-22T08:53:04.345Z</time></trkpt><trkpt lat="44.6586454" lon="11.5556439"><ele>9.000000000000002</ele><time>2026-04-22T08:53:05.342Z</time></trkpt><trkpt lat="44.6586798" lon="11.5557211"><ele>9.0</ele><time>2026-04-22T08:53:06.341Z</time></trkpt><trkpt lat="44.6587146" lon="11.5557984"><ele>9.0</ele><time>2026-04-22T08:53:07.345Z</time></trkpt><trkpt lat="44.6587511" lon="11.5558762"><ele>9.0</ele><time>2026-04-22T08:53:08.341Z</time></trkpt><trkpt lat="44.6587869" lon="11.5559547"><ele>9.0</ele><time>2026-04-22T08:53:09.341Z</time></trkpt><trkpt lat="44.6588229" lon="11.5560336"><ele>9.000000000000002</ele><time>2026-04-22T08:53:10.343Z</time></trkpt><trkpt lat="44.6588591" lon="11.5561116"><ele>9.0</ele><time>2026-04-22T08:53:11.347Z</time></trkpt><trkpt lat="44.6588945" lon="11.55619"><ele>8.857142857142858</ele><time>2026-04-22T08:53:12.34Z</time></trkpt><trkpt lat="44.6589296" lon="11.5562675"><ele>8.714285714285715</ele><time>2026-04-22T08:53:13.337Z</time></trkpt><trkpt lat="44.6589638" lon="11.5563441"><ele>8.571428571428571</ele><time>2026-04-22T08:53:14.343Z</time></trkpt><trkpt lat="44.658998" lon="11.5564212"><ele>8.428571428571429</ele><time>2026-04-22T08:53:15.339Z</time></trkpt><trkpt lat="44.6590324" lon="11.5564972"><ele>8.285714285714285</ele><time>2026-04-22T08:53:16.336Z</time></trkpt><trkpt lat="44.6590664" lon="11.5565727"><ele>8.142857142857142</ele><time>2026-04-22T08:53:17.349Z</time></trkpt><trkpt lat="44.6591338" lon="11.5567214"><ele>8.0</ele><time>2026-04-22T08:53:19.351Z</time></trkpt><trkpt lat="44.6591997" lon="11.5568694"><ele>8.0</ele><time>2026-04-22T08:53:21.34Z</time></trkpt><trkpt lat="44.6592642" lon="11.5570169"><ele>8.0</ele><time>2026-04-22T08:53:23.338Z</time></trkpt><trkpt lat="44.6593302" lon="11.5571656"><ele>8.0</ele><time>2026-04-22T08:53:25.344Z</time></trkpt><trkpt lat="44.6593941" lon="11.5573149"><ele>8.0</ele><time>2026-04-22T08:53:27.344Z</time></trkpt><trkpt lat="44.6594593" lon="11.5574613"><ele>8.0</ele><time>2026-04-22T08:53:29.343Z</time></trkpt><trkpt lat="44.6595232" lon="11.5576043"><ele>8.0</ele><time>2026-04-22T08:53:31.34Z</time></trkpt><trkpt lat="44.6595865" lon="11.5577505"><ele>8.0</ele><time>2026-04-22T08:53:33.342Z</time></trkpt><trkpt lat="44.6596536" lon="11.5578998"><ele>8.0</ele><time>2026-04-22T08:53:35.345Z</time></trkpt><trkpt lat="44.6596863" lon="11.5579758"><ele>8.0</ele><time>2026-04-22T08:53:36.343Z</time></trkpt><trkpt lat="44.6597522" lon="11.5581268"><ele>8.142857142857142</ele><time>2026-04-22T08:53:38.344Z</time></trkpt><trkpt lat="44.6597854" lon="11.5582027"><ele>8.285714285714285</ele><time>2026-04-22T08:53:39.344Z</time></trkpt><trkpt lat="44.6598198" lon="11.5582786"><ele>8.428571428571429</ele><time>2026-04-22T08:53:40.337Z</time></trkpt><trkpt lat="44.6598536" lon="11.5583547"><ele>8.571428571428571</ele><time>2026-04-22T08:53:41.351Z</time></trkpt><trkpt lat="44.6598882" lon="11.5584312"><ele>8.714285714285715</ele><time>2026-04-22T08:53:42.351Z</time></trkpt><trkpt lat="44.6599221" lon="11.5585077"><ele>8.857142857142858</ele><time>2026-04-22T08:53:43.338Z</time></trkpt><trkpt lat="44.659988" lon="11.5586548"><ele>9.0</ele><time>2026-04-22T08:53:45.34Z</time></trkpt><trkpt lat="44.6600553" lon="11.5588051"><ele>8.875</ele><time>2026-04-22T08:53:47.359Z</time></trkpt><trkpt lat="44.6600883" lon="11.5588807"><ele>8.75</ele><time>2026-04-22T08:53:48.345Z</time></trkpt><trkpt lat="44.6601223" lon="11.5589576"><ele>8.625</ele><time>2026-04-22T08:53:49.342Z</time></trkpt><trkpt lat="44.6601563" lon="11.5590346"><ele>8.5</ele><time>2026-04-22T08:53:50.337Z</time></trkpt><trkpt lat="44.6601905" lon="11.5591114"><ele>8.375</ele><time>2026-04-22T08:53:51.349Z</time></trkpt><trkpt lat="44.6602255" lon="11.559186"><ele>8.25</ele><time>2026-04-22T08:53:52.336Z</time></trkpt><trkpt lat="44.6602605" lon="11.5592619"><ele>8.125</ele><time>2026-04-22T08:53:53.346Z</time></trkpt><trkpt lat="44.6602945" lon="11.5593364"><ele>8.0</ele><time>2026-04-22T08:53:54.344Z</time></trkpt><trkpt lat="44.6603284" lon="11.5594124"><ele>8.0</ele><time>2026-04-22T08:53:55.34Z</time></trkpt><trkpt lat="44.6603637" lon="11.5594875"><ele>8.0</ele><time>2026-04-22T08:53:56.34Z</time></trkpt><trkpt lat="44.6603994" lon="11.5595619"><ele>8.0</ele><time>2026-04-22T08:53:57.335Z</time></trkpt><trkpt lat="44.6604341" lon="11.5596367"><ele>8.0</ele><time>2026-04-22T08:53:58.346Z</time></trkpt><trkpt lat="44.6604689" lon="11.5597125"><ele>8.0</ele><time>2026-04-22T08:53:59.346Z</time></trkpt><trkpt lat="44.6605041" lon="11.559788"><ele>8.0</ele><time>2026-04-22T08:54:00.338Z</time></trkpt><trkpt lat="44.6605405" lon="11.5598634"><ele>8.0</ele><time>2026-04-22T08:54:01.346Z</time></trkpt><trkpt lat="44.6605766" lon="11.5599387"><ele>8.0</ele><time>2026-04-22T08:54:02.336Z</time></trkpt><trkpt lat="44.6606116" lon="11.5600156"><ele>8.0</ele><time>2026-04-22T08:54:03.342Z</time></trkpt><trkpt lat="44.6606467" lon="11.5600924"><ele>7.999999999999999</ele><time>2026-04-22T08:54:04.336Z</time></trkpt><trkpt lat="44.6606829" lon="11.5601694"><ele>8.0</ele><time>2026-04-22T08:54:05.341Z</time></trkpt><trkpt lat="44.6607196" lon="11.5602461"><ele>8.0</ele><time>2026-04-22T08:54:06.339Z</time></trkpt><trkpt lat="44.6607559" lon="11.5603229"><ele>7.999999999999999</ele><time>2026-04-22T08:54:07.338Z</time></trkpt><trkpt lat="44.6607918" lon="11.5603992"><ele>8.0</ele><time>2026-04-22T08:54:08.338Z</time></trkpt><trkpt lat="44.6608281" lon="11.5604745"><ele>8.0</ele><time>2026-04-22T08:54:09.342Z</time></trkpt><trkpt lat="44.6608649" lon="11.56055"><ele>8.0</ele><time>2026-04-22T08:54:10.346Z</time></trkpt><trkpt lat="44.6608998" lon="11.5606263"><ele>7.999999999999999</ele><time>2026-04-22T08:54:11.341Z</time></trkpt><trkpt lat="44.6609362" lon="11.5607042"><ele>8.0</ele><time>2026-04-22T08:54:12.353Z</time></trkpt><trkpt lat="44.6609733" lon="11.5607814"><ele>8.0</ele><time>2026-04-22T08:54:13.334Z</time></trkpt><trkpt lat="44.6610101" lon="11.5608578"><ele>7.999999999999999</ele><time>2026-04-22T08:54:14.353Z</time></trkpt><trkpt lat="44.6610457" lon="11.560936"><ele>8.0</ele><time>2026-04-22T08:54:15.345Z</time></trkpt><trkpt lat="44.6610819" lon="11.5610122"><ele>8.0</ele><time>2026-04-22T08:54:16.34Z</time></trkpt><trkpt lat="44.6611185" lon="11.5610893"><ele>8.0</ele><time>2026-04-22T08:54:17.34Z</time></trkpt><trkpt lat="44.6611554" lon="11.5611676"><ele>7.999999999999999</ele><time>2026-04-22T08:54:18.349Z</time></trkpt><trkpt lat="44.6611915" lon="11.5612443"><ele>8.0</ele><time>2026-04-22T08:54:19.342Z</time></trkpt><trkpt lat="44.6612277" lon="11.5613211"><ele>8.0</ele><time>2026-04-22T08:54:20.337Z</time></trkpt><trkpt lat="44.6612635" lon="11.5613991"><ele>7.999999999999999</ele><time>2026-04-22T08:54:21.341Z</time></trkpt><trkpt lat="44.6612999" lon="11.5614775"><ele>8.0</ele><time>2026-04-22T08:54:22.339Z</time></trkpt><trkpt lat="44.6613369" lon="11.5615569"><ele>8.0</ele><time>2026-04-22T08:54:23.347Z</time></trkpt><trkpt lat="44.6613737" lon="11.5616365"><ele>8.142857142857142</ele><time>2026-04-22T08:54:24.335Z</time></trkpt><trkpt lat="44.6614118" lon="11.5617156"><ele>8.285714285714285</ele><time>2026-04-22T08:54:25.339Z</time></trkpt><trkpt lat="44.6614487" lon="11.5617941"><ele>8.428571428571429</ele><time>2026-04-22T08:54:26.34Z</time></trkpt><trkpt lat="44.6614847" lon="11.5618715"><ele>8.571428571428571</ele><time>2026-04-22T08:54:27.345Z</time></trkpt><trkpt lat="44.6615212" lon="11.5619494"><ele>8.714285714285715</ele><time>2026-04-22T08:54:28.335Z</time></trkpt><trkpt lat="44.6615571" lon="11.5620259"><ele>8.857142857142858</ele><time>2026-04-22T08:54:29.343Z</time></trkpt><trkpt lat="44.6615931" lon="11.5621018"><ele>9.0</ele><time>2026-04-22T08:54:30.339Z</time></trkpt><trkpt lat="44.6616288" lon="11.562178"><ele>8.714285714285715</ele><time>2026-04-22T08:54:31.343Z</time></trkpt><trkpt lat="44.6616652" lon="11.5622542"><ele>8.428571428571429</ele><time>2026-04-22T08:54:32.34Z</time></trkpt><trkpt lat="44.6617017" lon="11.5623304"><ele>8.142857142857142</ele><time>2026-04-22T08:54:33.339Z</time></trkpt><trkpt lat="44.6617381" lon="11.5624066"><ele>7.857142857142858</ele><time>2026-04-22T08:54:34.338Z</time></trkpt><trkpt lat="44.6617748" lon="11.5624834"><ele>7.571428571428571</ele><time>2026-04-22T08:54:35.338Z</time></trkpt><trkpt lat="44.661811" lon="11.5625591"><ele>7.285714285714286</ele><time>2026-04-22T08:54:36.34Z</time></trkpt><trkpt lat="44.6618467" lon="11.5626342"><ele>7.0</ele><time>2026-04-22T08:54:37.344Z</time></trkpt><trkpt lat="44.6618822" lon="11.5627089"><ele>7.0</ele><time>2026-04-22T08:54:38.34Z</time></trkpt><trkpt lat="44.6619189" lon="11.5627838"><ele>7.0</ele><time>2026-04-22T08:54:39.355Z</time></trkpt><trkpt lat="44.6619548" lon="11.5628583"><ele>7.0</ele><time>2026-04-22T08:54:40.34Z</time></trkpt><trkpt lat="44.6619904" lon="11.5629325"><ele>7.0</ele><time>2026-04-22T08:54:41.344Z</time></trkpt><trkpt lat="44.6620263" lon="11.5630061"><ele>7.0</ele><time>2026-04-22T08:54:42.344Z</time></trkpt><trkpt lat="44.6620631" lon="11.5630798"><ele>7.0</ele><time>2026-04-22T08:54:43.346Z</time></trkpt><trkpt lat="44.6620993" lon="11.5631535"><ele>7.0</ele><time>2026-04-22T08:54:44.335Z</time></trkpt><trkpt lat="44.6621349" lon="11.5632277"><ele>7.0</ele><time>2026-04-22T08:54:45.335Z</time></trkpt><trkpt lat="44.6621703" lon="11.5633015"><ele>7.333333333333334</ele><time>2026-04-22T08:54:46.337Z</time></trkpt><trkpt lat="44.6622075" lon="11.5633753"><ele>7.666666666666667</ele><time>2026-04-22T08:54:47.339Z</time></trkpt><trkpt lat="44.6622441" lon="11.5634485"><ele>8.0</ele><time>2026-04-22T08:54:48.346Z</time></trkpt><trkpt lat="44.6622804" lon="11.5635217"><ele>8.333333333333334</ele><time>2026-04-22T08:54:49.344Z</time></trkpt><trkpt lat="44.6623515" lon="11.5636668"><ele>8.666666666666666</ele><time>2026-04-22T08:54:51.347Z</time></trkpt><trkpt lat="44.6624237" lon="11.5638114"><ele>9.0</ele><time>2026-04-22T08:54:53.343Z</time></trkpt><trkpt lat="44.6624954" lon="11.563957"><ele>9.0</ele><time>2026-04-22T08:54:55.349Z</time></trkpt><trkpt lat="44.6625312" lon="11.5640302"><ele>9.0</ele><time>2026-04-22T08:54:56.347Z</time></trkpt><trkpt lat="44.6625672" lon="11.5641042"><ele>9.0</ele><time>2026-04-22T08:54:57.336Z</time></trkpt><trkpt lat="44.6626033" lon="11.5641777"><ele>9.0</ele><time>2026-04-22T08:54:58.35Z</time></trkpt><trkpt lat="44.6626407" lon="11.5642521"><ele>9.0</ele><time>2026-04-22T08:54:59.335Z</time></trkpt><trkpt lat="44.6626771" lon="11.5643262"><ele>9.0</ele><time>2026-04-22T08:55:00.34Z</time></trkpt><trkpt lat="44.662714" lon="11.5643998"><ele>9.0</ele><time>2026-04-22T08:55:01.347Z</time></trkpt><trkpt lat="44.6627498" lon="11.5644736"><ele>9.0</ele><time>2026-04-22T08:55:02.339Z</time></trkpt><trkpt lat="44.6627857" lon="11.5645491"><ele>9.0</ele><time>2026-04-22T08:55:03.343Z</time></trkpt><trkpt lat="44.662821" lon="11.5646253"><ele>9.0</ele><time>2026-04-22T08:55:04.34Z</time></trkpt><trkpt lat="44.6628575" lon="11.5647007"><ele>9.0</ele><time>2026-04-22T08:55:05.343Z</time></trkpt><trkpt lat="44.6628927" lon="11.564776"><ele>9.0</ele><time>2026-04-22T08:55:06.331Z</time></trkpt><trkpt lat="44.6629293" lon="11.5648504"><ele>9.0</ele><time>2026-04-22T08:55:07.338Z</time></trkpt><trkpt lat="44.6629659" lon="11.5649235"><ele>9.0</ele><time>2026-04-22T08:55:08.343Z</time></trkpt><trkpt lat="44.6630025" lon="11.5649972"><ele>9.0</ele><time>2026-04-22T08:55:09.344Z</time></trkpt><trkpt lat="44.6630379" lon="11.5650715"><ele>9.0</ele><time>2026-04-22T08:55:10.337Z</time></trkpt><trkpt lat="44.6630739" lon="11.5651472"><ele>9.000000000000002</ele><time>2026-04-22T08:55:11.342Z</time></trkpt><trkpt lat="44.6631091" lon="11.5652236"><ele>9.0</ele><time>2026-04-22T08:55:12.337Z</time></trkpt><trkpt lat="44.6631445" lon="11.5652998"><ele>9.0</ele><time>2026-04-22T08:55:13.346Z</time></trkpt><trkpt lat="44.6631798" lon="11.5653759"><ele>9.0</ele><time>2026-04-22T08:55:14.331Z</time></trkpt><trkpt lat="44.6632157" lon="11.5654511"><ele>9.0</ele><time>2026-04-22T08:55:15.339Z</time></trkpt><trkpt lat="44.663252" lon="11.5655255"><ele>9.000000000000002</ele><time>2026-04-22T08:55:16.347Z</time></trkpt><trkpt lat="44.6632874" lon="11.5656007"><ele>9.0</ele><time>2026-04-22T08:55:17.343Z</time></trkpt><trkpt lat="44.6633221" lon="11.5656768"><ele>9.0</ele><time>2026-04-22T08:55:18.333Z</time></trkpt><trkpt lat="44.6633552" lon="11.5657541"><ele>9.0</ele><time>2026-04-22T08:55:19.339Z</time></trkpt><trkpt lat="44.6633876" lon="11.5658315"><ele>9.0</ele><time>2026-04-22T08:55:20.341Z</time></trkpt><trkpt lat="44.6634186" lon="11.5659093"><ele>9.0</ele><time>2026-04-22T08:55:21.347Z</time></trkpt><trkpt lat="44.6634462" lon="11.56599"><ele>9.0</ele><time>2026-04-22T08:55:22.344Z</time></trkpt><trkpt lat="44.6634734" lon="11.5660705"><ele>9.0</ele><time>2026-04-22T08:55:23.365Z</time></trkpt><trkpt lat="44.6634997" lon="11.5661516"><ele>9.0</ele><time>2026-04-22T08:55:24.341Z</time></trkpt><trkpt lat="44.6635253" lon="11.5662332"><ele>9.0</ele><time>2026-04-22T08:55:25.339Z</time></trkpt><trkpt lat="44.6635499" lon="11.5663148"><ele>8.8</ele><time>2026-04-22T08:55:26.342Z</time></trkpt><trkpt lat="44.6635735" lon="11.5663969"><ele>8.600000000000001</ele><time>2026-04-22T08:55:27.342Z</time></trkpt><trkpt lat="44.6636182" lon="11.5665613"><ele>8.4</ele><time>2026-04-22T08:55:29.346Z</time></trkpt><trkpt lat="44.6636596" lon="11.5667278"><ele>8.200000000000001</ele><time>2026-04-22T08:55:31.335Z</time></trkpt><trkpt lat="44.6636995" lon="11.5668957"><ele>8.0</ele><time>2026-04-22T08:55:33.349Z</time></trkpt><trkpt lat="44.6637394" lon="11.5670637"><ele>8.0</ele><time>2026-04-22T08:55:35.341Z</time></trkpt><trkpt lat="44.6637802" lon="11.5672313"><ele>8.0</ele><time>2026-04-22T08:55:37.344Z</time></trkpt><trkpt lat="44.6638128" lon="11.5674022"><ele>8.0</ele><time>2026-04-22T08:55:39.337Z</time></trkpt><trkpt lat="44.6638416" lon="11.5675751"><ele>8.0</ele><time>2026-04-22T08:55:41.348Z</time></trkpt><trkpt lat="44.6638536" lon="11.5676628"><ele>8.0</ele><time>2026-04-22T08:55:42.339Z</time></trkpt><trkpt lat="44.663866" lon="11.5677506"><ele>8.0</ele><time>2026-04-22T08:55:43.342Z</time></trkpt><trkpt lat="44.6638789" lon="11.5678386"><ele>7.999999999999999</ele><time>2026-04-22T08:55:44.338Z</time></trkpt><trkpt lat="44.6638908" lon="11.5679256"><ele>8.0</ele><time>2026-04-22T08:55:45.342Z</time></trkpt><trkpt lat="44.6639022" lon="11.5680128"><ele>8.0</ele><time>2026-04-22T08:55:46.343Z</time></trkpt><trkpt lat="44.6639137" lon="11.5680999"><ele>7.999999999999999</ele><time>2026-04-22T08:55:47.343Z</time></trkpt><trkpt lat="44.6639255" lon="11.568187"><ele>8.0</ele><time>2026-04-22T08:55:48.338Z</time></trkpt><trkpt lat="44.6639481" lon="11.5683591"><ele>8.0</ele><time>2026-04-22T08:55:50.34Z</time></trkpt><trkpt lat="44.6639747" lon="11.5685334"><ele>8.125</ele><time>2026-04-22T08:55:52.343Z</time></trkpt><trkpt lat="44.6639851" lon="11.5686215"><ele>8.25</ele><time>2026-04-22T08:55:53.334Z</time></trkpt><trkpt lat="44.6639964" lon="11.568709"><ele>8.375</ele><time>2026-04-22T08:55:54.342Z</time></trkpt><trkpt lat="44.6640077" lon="11.5687961"><ele>8.5</ele><time>2026-04-22T08:55:55.351Z</time></trkpt><trkpt lat="44.6640206" lon="11.5688838"><ele>8.625</ele><time>2026-04-22T08:55:56.339Z</time></trkpt><trkpt lat="44.6640333" lon="11.5689711"><ele>8.75</ele><time>2026-04-22T08:55:57.344Z</time></trkpt><trkpt lat="44.6640452" lon="11.5690583"><ele>8.875</ele><time>2026-04-22T08:55:58.351Z</time></trkpt><trkpt lat="44.664059" lon="11.569145"><ele>9.0</ele><time>2026-04-22T08:55:59.341Z</time></trkpt><trkpt lat="44.6640878" lon="11.569317"><ele>9.0</ele><time>2026-04-22T08:56:01.338Z</time></trkpt><trkpt lat="44.6641175" lon="11.5694881"><ele>9.0</ele><time>2026-04-22T08:56:03.343Z</time></trkpt><trkpt lat="44.6641489" lon="11.5696603"><ele>9.0</ele><time>2026-04-22T08:56:05.351Z</time></trkpt><trkpt lat="44.6641652" lon="11.5697461"><ele>9.0</ele><time>2026-04-22T08:56:06.348Z</time></trkpt><trkpt lat="44.6641984" lon="11.5699109"><ele>9.0</ele><time>2026-04-22T08:56:08.34Z</time></trkpt><trkpt lat="44.6642164" lon="11.5699958"><ele>9.0</ele><time>2026-04-22T08:56:09.346Z</time></trkpt><trkpt lat="44.6642345" lon="11.5700822"><ele>9.0</ele><time>2026-04-22T08:56:10.343Z</time></trkpt><trkpt lat="44.6642716" lon="11.5702509"><ele>9.0</ele><time>2026-04-22T08:56:12.345Z</time></trkpt><trkpt lat="44.6643076" lon="11.5704179"><ele>9.0</ele><time>2026-04-22T08:56:14.343Z</time></trkpt><trkpt lat="44.6643269" lon="11.5705026"><ele>9.0</ele><time>2026-04-22T08:56:15.351Z</time></trkpt><trkpt lat="44.6643646" lon="11.5706726"><ele>9.0</ele><time>2026-04-22T08:56:17.357Z</time></trkpt><trkpt lat="44.6643831" lon="11.570758"><ele>9.0</ele><time>2026-04-22T08:56:18.34Z</time></trkpt><trkpt lat="44.6644033" lon="11.570844"><ele>9.0</ele><time>2026-04-22T08:56:19.336Z</time></trkpt><trkpt lat="44.6644215" lon="11.570929"><ele>9.0</ele><time>2026-04-22T08:56:20.339Z</time></trkpt><trkpt lat="44.6644404" lon="11.5710164"><ele>9.0</ele><time>2026-04-22T08:56:21.341Z</time></trkpt><trkpt lat="44.6644585" lon="11.5711031"><ele>9.0</ele><time>2026-04-22T08:56:22.34Z</time></trkpt><trkpt lat="44.6644766" lon="11.5711894"><ele>9.0</ele><time>2026-04-22T08:56:23.338Z</time></trkpt><trkpt lat="44.6644937" lon="11.5712764"><ele>9.0</ele><time>2026-04-22T08:56:24.342Z</time></trkpt><trkpt lat="44.6645117" lon="11.5713634"><ele>9.0</ele><time>2026-04-22T08:56:25.349Z</time></trkpt><trkpt lat="44.6645291" lon="11.5714503"><ele>9.0</ele><time>2026-04-22T08:56:26.35Z</time></trkpt><trkpt lat="44.664546" lon="11.5715373"><ele>9.0</ele><time>2026-04-22T08:56:27.34Z</time></trkpt><trkpt lat="44.6645638" lon="11.5716232"><ele>9.0</ele><time>2026-04-22T08:56:28.348Z</time></trkpt><trkpt lat="44.6645813" lon="11.5717096"><ele>9.0</ele><time>2026-04-22T08:56:29.352Z</time></trkpt><trkpt lat="44.6645973" lon="11.5717955"><ele>9.0</ele><time>2026-04-22T08:56:30.334Z</time></trkpt><trkpt lat="44.6646126" lon="11.5718829"><ele>9.0</ele><time>2026-04-22T08:56:31.343Z</time></trkpt><trkpt lat="44.6646278" lon="11.57197"><ele>9.0</ele><time>2026-04-22T08:56:32.34Z</time></trkpt><trkpt lat="44.6646438" lon="11.5720565"><ele>9.0</ele><time>2026-04-22T08:56:33.349Z</time></trkpt><trkpt lat="44.664658" lon="11.5721431"><ele>9.0</ele><time>2026-04-22T08:56:34.347Z</time></trkpt><trkpt lat="44.6646702" lon="11.5722306"><ele>9.0</ele><time>2026-04-22T08:56:35.341Z</time></trkpt><trkpt lat="44.6646826" lon="11.5723177"><ele>9.0</ele><time>2026-04-22T08:56:36.334Z</time></trkpt><trkpt lat="44.6646966" lon="11.5724053"><ele>9.0</ele><time>2026-04-22T08:56:37.345Z</time></trkpt><trkpt lat="44.6647093" lon="11.5724927"><ele>9.0</ele><time>2026-04-22T08:56:38.341Z</time></trkpt><trkpt lat="44.6647198" lon="11.5725814"><ele>9.0</ele><time>2026-04-22T08:56:39.341Z</time></trkpt><trkpt lat="44.66473" lon="11.5726699"><ele>9.0</ele><time>2026-04-22T08:56:40.341Z</time></trkpt><trkpt lat="44.6647429" lon="11.5727581"><ele>9.0</ele><time>2026-04-22T08:56:41.349Z</time></trkpt><trkpt lat="44.6647548" lon="11.5728458"><ele>9.0</ele><time>2026-04-22T08:56:42.35Z</time></trkpt><trkpt lat="44.6647782" lon="11.5730178"><ele>9.0</ele><time>2026-04-22T08:56:44.354Z</time></trkpt><trkpt lat="44.6648009" lon="11.5731905"><ele>9.0</ele><time>2026-04-22T08:56:46.339Z</time></trkpt><trkpt lat="44.664826" lon="11.5733607"><ele>9.0</ele><time>2026-04-22T08:56:48.351Z</time></trkpt><trkpt lat="44.6648495" lon="11.5735264"><ele>8.5</ele><time>2026-04-22T08:56:50.35Z</time></trkpt><trkpt lat="44.6648766" lon="11.5736889"><ele>8.0</ele><time>2026-04-22T08:56:52.351Z</time></trkpt><trkpt lat="44.6649061" lon="11.5738521"><ele>7.5</ele><time>2026-04-22T08:56:54.341Z</time></trkpt><trkpt lat="44.6649373" lon="11.5740177"><ele>7.0</ele><time>2026-04-22T08:56:56.343Z</time></trkpt><trkpt lat="44.6649669" lon="11.5741854"><ele>7.0</ele><time>2026-04-22T08:56:58.346Z</time></trkpt><trkpt lat="44.6650014" lon="11.5743545"><ele>7.0</ele><time>2026-04-22T08:57:00.346Z</time></trkpt><trkpt lat="44.6650365" lon="11.574523"><ele>7.0</ele><time>2026-04-22T08:57:02.345Z</time></trkpt><trkpt lat="44.6650719" lon="11.5746903"><ele>7.0</ele><time>2026-04-22T08:57:04.341Z</time></trkpt><trkpt lat="44.6651073" lon="11.5748579"><ele>7.3999999999999995</ele><time>2026-04-22T08:57:06.343Z</time></trkpt><trkpt lat="44.6651429" lon="11.5750255"><ele>7.799999999999999</ele><time>2026-04-22T08:57:08.347Z</time></trkpt><trkpt lat="44.6651787" lon="11.5751942"><ele>8.2</ele><time>2026-04-22T08:57:10.337Z</time></trkpt><trkpt lat="44.6652156" lon="11.5753625"><ele>8.6</ele><time>2026-04-22T08:57:12.336Z</time></trkpt><trkpt lat="44.665233" lon="11.5754478"><ele>9.0</ele><time>2026-04-22T08:57:13.351Z</time></trkpt><trkpt lat="44.6652511" lon="11.5755331"><ele>9.000000000000002</ele><time>2026-04-22T08:57:14.336Z</time></trkpt><trkpt lat="44.6652695" lon="11.5756183"><ele>9.0</ele><time>2026-04-22T08:57:15.339Z</time></trkpt><trkpt lat="44.6653061" lon="11.5757875"><ele>9.0</ele><time>2026-04-22T08:57:17.346Z</time></trkpt><trkpt lat="44.6653237" lon="11.5758731"><ele>9.0</ele><time>2026-04-22T08:57:18.338Z</time></trkpt><trkpt lat="44.6653409" lon="11.5759593"><ele>9.0</ele><time>2026-04-22T08:57:19.337Z</time></trkpt><trkpt lat="44.6653572" lon="11.5760452"><ele>9.000000000000002</ele><time>2026-04-22T08:57:20.333Z</time></trkpt><trkpt lat="44.6653735" lon="11.5761308"><ele>9.0</ele><time>2026-04-22T08:57:21.344Z</time></trkpt><trkpt lat="44.6653918" lon="11.5762155"><ele>8.75</ele><time>2026-04-22T08:57:22.339Z</time></trkpt><trkpt lat="44.6654265" lon="11.5763828"><ele>8.5</ele><time>2026-04-22T08:57:24.345Z</time></trkpt><trkpt lat="44.6654608" lon="11.5765488"><ele>8.25</ele><time>2026-04-22T08:57:26.349Z</time></trkpt><trkpt lat="44.6654959" lon="11.5767174"><ele>8.0</ele><time>2026-04-22T08:57:28.34Z</time></trkpt><trkpt lat="44.6655294" lon="11.5768866"><ele>8.0</ele><time>2026-04-22T08:57:30.339Z</time></trkpt><trkpt lat="44.6655464" lon="11.5769727"><ele>8.0</ele><time>2026-04-22T08:57:31.336Z</time></trkpt><trkpt lat="44.6655637" lon="11.5770579"><ele>8.0</ele><time>2026-04-22T08:57:32.342Z</time></trkpt><trkpt lat="44.6655803" lon="11.5771438"><ele>8.0</ele><time>2026-04-22T08:57:33.339Z</time></trkpt><trkpt lat="44.6655954" lon="11.5772302"><ele>8.0</ele><time>2026-04-22T08:57:34.347Z</time></trkpt><trkpt lat="44.665608" lon="11.5773185"><ele>8.0</ele><time>2026-04-22T08:57:35.34Z</time></trkpt><trkpt lat="44.6656177" lon="11.5774077"><ele>8.0</ele><time>2026-04-22T08:57:36.338Z</time></trkpt><trkpt lat="44.6656258" lon="11.5774973"><ele>8.0</ele><time>2026-04-22T08:57:37.343Z</time></trkpt><trkpt lat="44.6656363" lon="11.5775852"><ele>8.200000000000001</ele><time>2026-04-22T08:57:38.339Z</time></trkpt><trkpt lat="44.6656428" lon="11.5776742"><ele>8.4</ele><time>2026-04-22T08:57:39.343Z</time></trkpt><trkpt lat="44.6656569" lon="11.5778484"><ele>8.600000000000001</ele><time>2026-04-22T08:57:41.342Z</time></trkpt><trkpt lat="44.6656721" lon="11.5780223"><ele>8.8</ele><time>2026-04-22T08:57:43.339Z</time></trkpt><trkpt lat="44.6656905" lon="11.5781941"><ele>9.0</ele><time>2026-04-22T08:57:45.338Z</time></trkpt><trkpt lat="44.6657106" lon="11.5783659"><ele>9.2</ele><time>2026-04-22T08:57:47.344Z</time></trkpt><trkpt lat="44.6657354" lon="11.5785384"><ele>9.4</ele><time>2026-04-22T08:57:49.335Z</time></trkpt><trkpt lat="44.6657633" lon="11.5787104"><ele>9.6</ele><time>2026-04-22T08:57:51.347Z</time></trkpt><trkpt lat="44.665794" lon="11.5788812"><ele>9.8</ele><time>2026-04-22T08:57:53.346Z</time></trkpt><trkpt lat="44.6658085" lon="11.5789677"><ele>10.0</ele><time>2026-04-22T08:57:54.341Z</time></trkpt><trkpt lat="44.665838" lon="11.579137"><ele>10.0</ele><time>2026-04-22T08:57:56.336Z</time></trkpt><trkpt lat="44.6658638" lon="11.5793074"><ele>10.0</ele><time>2026-04-22T08:57:58.338Z</time></trkpt><trkpt lat="44.6658932" lon="11.579476"><ele>10.0</ele><time>2026-04-22T08:58:00.336Z</time></trkpt><trkpt lat="44.6659191" lon="11.5796439"><ele>10.0</ele><time>2026-04-22T08:58:02.353Z</time></trkpt><trkpt lat="44.665946" lon="11.5798091"><ele>10.0</ele><time>2026-04-22T08:58:04.342Z</time></trkpt><trkpt lat="44.6659744" lon="11.5799736"><ele>10.0</ele><time>2026-04-22T08:58:06.338Z</time></trkpt><trkpt lat="44.6660052" lon="11.5801404"><ele>10.0</ele><time>2026-04-22T08:58:08.328Z</time></trkpt><trkpt lat="44.6660351" lon="11.5803098"><ele>10.0</ele><time>2026-04-22T08:58:10.341Z</time></trkpt><trkpt lat="44.6660498" lon="11.5803963"><ele>10.0</ele><time>2026-04-22T08:58:11.343Z</time></trkpt><trkpt lat="44.666063" lon="11.5804831"><ele>9.75</ele><time>2026-04-22T08:58:12.339Z</time></trkpt><trkpt lat="44.6660774" lon="11.580571"><ele>9.5</ele><time>2026-04-22T08:58:13.344Z</time></trkpt><trkpt lat="44.6660916" lon="11.5806574"><ele>9.25</ele><time>2026-04-22T08:58:14.344Z</time></trkpt><trkpt lat="44.6661064" lon="11.5807447"><ele>9.0</ele><time>2026-04-22T08:58:15.347Z</time></trkpt><trkpt lat="44.666122" lon="11.5808318"><ele>8.75</ele><time>2026-04-22T08:58:16.348Z</time></trkpt><trkpt lat="44.6661369" lon="11.5809191"><ele>8.5</ele><time>2026-04-22T08:58:17.341Z</time></trkpt><trkpt lat="44.6661513" lon="11.581006"><ele>8.25</ele><time>2026-04-22T08:58:18.341Z</time></trkpt><trkpt lat="44.6661665" lon="11.5810935"><ele>8.0</ele><time>2026-04-22T08:58:19.338Z</time></trkpt><trkpt lat="44.6661823" lon="11.5811801"><ele>8.0</ele><time>2026-04-22T08:58:20.348Z</time></trkpt><trkpt lat="44.6661976" lon="11.5812672"><ele>7.999999999999999</ele><time>2026-04-22T08:58:21.348Z</time></trkpt><trkpt lat="44.6662128" lon="11.5813543"><ele>8.0</ele><time>2026-04-22T08:58:22.341Z</time></trkpt><trkpt lat="44.6662282" lon="11.5814425"><ele>8.0</ele><time>2026-04-22T08:58:23.34Z</time></trkpt><trkpt lat="44.6662433" lon="11.5815302"><ele>7.999999999999999</ele><time>2026-04-22T08:58:24.341Z</time></trkpt><trkpt lat="44.6662577" lon="11.5816184"><ele>8.0</ele><time>2026-04-22T08:58:25.346Z</time></trkpt><trkpt lat="44.6662722" lon="11.581706"><ele>8.0</ele><time>2026-04-22T08:58:26.348Z</time></trkpt><trkpt lat="44.6662882" lon="11.5817944"><ele>8.0</ele><time>2026-04-22T08:58:27.336Z</time></trkpt><trkpt lat="44.6663039" lon="11.5818823"><ele>7.999999999999999</ele><time>2026-04-22T08:58:28.357Z</time></trkpt><trkpt lat="44.6663198" lon="11.5819707"><ele>8.0</ele><time>2026-04-22T08:58:29.343Z</time></trkpt><trkpt lat="44.6663351" lon="11.5820585"><ele>8.0</ele><time>2026-04-22T08:58:30.346Z</time></trkpt><trkpt lat="44.6663512" lon="11.5821471"><ele>7.999999999999999</ele><time>2026-04-22T08:58:31.34Z</time></trkpt><trkpt lat="44.6663674" lon="11.5822358"><ele>8.0</ele><time>2026-04-22T08:58:32.341Z</time></trkpt><trkpt lat="44.6663819" lon="11.5823237"><ele>8.0</ele><time>2026-04-22T08:58:33.347Z</time></trkpt><trkpt lat="44.6663968" lon="11.5824114"><ele>8.0</ele><time>2026-04-22T08:58:34.331Z</time></trkpt><trkpt lat="44.6664122" lon="11.5824985"><ele>8.0</ele><time>2026-04-22T08:58:35.337Z</time></trkpt><trkpt lat="44.6664433" lon="11.5826689"><ele>8.0</ele><time>2026-04-22T08:58:37.349Z</time></trkpt><trkpt lat="44.6664756" lon="11.5828392"><ele>8.0</ele><time>2026-04-22T08:58:39.343Z</time></trkpt><trkpt lat="44.6665078" lon="11.5830091"><ele>8.0</ele><time>2026-04-22T08:58:41.338Z</time></trkpt><trkpt lat="44.6665373" lon="11.58318"><ele>8.0</ele><time>2026-04-22T08:58:43.342Z</time></trkpt><trkpt lat="44.6665678" lon="11.5833512"><ele>8.0</ele><time>2026-04-22T08:58:45.342Z</time></trkpt><trkpt lat="44.666591" lon="11.5835235"><ele>8.0</ele><time>2026-04-22T08:58:47.337Z</time></trkpt><trkpt lat="44.6666187" lon="11.5836932"><ele>8.0</ele><time>2026-04-22T08:58:49.341Z</time></trkpt><trkpt lat="44.6666483" lon="11.5838631"><ele>8.0</ele><time>2026-04-22T08:58:51.34Z</time></trkpt><trkpt lat="44.6666792" lon="11.5840346"><ele>8.0</ele><time>2026-04-22T08:58:53.341Z</time></trkpt><trkpt lat="44.6666937" lon="11.5841208"><ele>8.0</ele><time>2026-04-22T08:58:54.344Z</time></trkpt><trkpt lat="44.6667235" lon="11.584293"><ele>8.0</ele><time>2026-04-22T08:58:56.34Z</time></trkpt><trkpt lat="44.6667527" lon="11.5844649"><ele>8.0</ele><time>2026-04-22T08:58:58.337Z</time></trkpt><trkpt lat="44.6667675" lon="11.5845511"><ele>8.0</ele><time>2026-04-22T08:58:59.341Z</time></trkpt><trkpt lat="44.6667972" lon="11.5847222"><ele>8.0</ele><time>2026-04-22T08:59:01.351Z</time></trkpt><trkpt lat="44.6668267" lon="11.5848939"><ele>8.0</ele><time>2026-04-22T08:59:03.327Z</time></trkpt><trkpt lat="44.6668574" lon="11.5850649"><ele>8.0</ele><time>2026-04-22T08:59:05.351Z</time></trkpt><trkpt lat="44.6668883" lon="11.5852372"><ele>8.0</ele><time>2026-04-22T08:59:07.347Z</time></trkpt><trkpt lat="44.6669029" lon="11.5853243"><ele>7.999999999999999</ele><time>2026-04-22T08:59:08.336Z</time></trkpt><trkpt lat="44.6669183" lon="11.5854127"><ele>8.0</ele><time>2026-04-22T08:59:09.352Z</time></trkpt><trkpt lat="44.6669344" lon="11.5854998"><ele>8.0</ele><time>2026-04-22T08:59:10.342Z</time></trkpt><trkpt lat="44.6669485" lon="11.5855872"><ele>7.999999999999999</ele><time>2026-04-22T08:59:11.339Z</time></trkpt><trkpt lat="44.6669625" lon="11.5856736"><ele>8.0</ele><time>2026-04-22T08:59:12.346Z</time></trkpt><trkpt lat="44.666977" lon="11.5857598"><ele>8.0</ele><time>2026-04-22T08:59:13.345Z</time></trkpt><trkpt lat="44.6670075" lon="11.5859297"><ele>7.833333333333333</ele><time>2026-04-22T08:59:15.337Z</time></trkpt><trkpt lat="44.667037" lon="11.5860996"><ele>7.666666666666666</ele><time>2026-04-22T08:59:17.332Z</time></trkpt><trkpt lat="44.6670661" lon="11.5862713"><ele>7.5</ele><time>2026-04-22T08:59:19.338Z</time></trkpt><trkpt lat="44.6670818" lon="11.5863573"><ele>7.333333333333334</ele><time>2026-04-22T08:59:20.347Z</time></trkpt><trkpt lat="44.6670978" lon="11.586444"><ele>7.166666666666667</ele><time>2026-04-22T08:59:21.355Z</time></trkpt><trkpt lat="44.6671133" lon="11.5865306"><ele>7.0</ele><time>2026-04-22T08:59:22.359Z</time></trkpt><trkpt lat="44.6671284" lon="11.5866177"><ele>7.0</ele><time>2026-04-22T08:59:23.352Z</time></trkpt><trkpt lat="44.6671432" lon="11.5867042"><ele>7.0</ele><time>2026-04-22T08:59:24.347Z</time></trkpt><trkpt lat="44.6671585" lon="11.5867904"><ele>7.0</ele><time>2026-04-22T08:59:25.36Z</time></trkpt><trkpt lat="44.6671737" lon="11.5868771"><ele>7.0</ele><time>2026-04-22T08:59:26.344Z</time></trkpt><trkpt lat="44.6671883" lon="11.586965"><ele>7.0</ele><time>2026-04-22T08:59:27.341Z</time></trkpt><trkpt lat="44.6672031" lon="11.5870532"><ele>7.0</ele><time>2026-04-22T08:59:28.346Z</time></trkpt><trkpt lat="44.6672188" lon="11.5871422"><ele>7.0</ele><time>2026-04-22T08:59:29.342Z</time></trkpt><trkpt lat="44.6672345" lon="11.5872308"><ele>7.0</ele><time>2026-04-22T08:59:30.337Z</time></trkpt><trkpt lat="44.66725" lon="11.5873208"><ele>7.0</ele><time>2026-04-22T08:59:31.346Z</time></trkpt><trkpt lat="44.6672643" lon="11.5874113"><ele>7.0</ele><time>2026-04-22T08:59:32.349Z</time></trkpt><trkpt lat="44.6672805" lon="11.5875013"><ele>7.0</ele><time>2026-04-22T08:59:33.337Z</time></trkpt><trkpt lat="44.6672963" lon="11.5875914"><ele>7.0</ele><time>2026-04-22T08:59:34.335Z</time></trkpt><trkpt lat="44.6673108" lon="11.5876816"><ele>7.0</ele><time>2026-04-22T08:59:35.346Z</time></trkpt><trkpt lat="44.6673257" lon="11.5877726"><ele>7.0</ele><time>2026-04-22T08:59:36.341Z</time></trkpt><trkpt lat="44.6673411" lon="11.5878623"><ele>7.0</ele><time>2026-04-22T08:59:37.345Z</time></trkpt><trkpt lat="44.667357" lon="11.5879516"><ele>7.142857142857142</ele><time>2026-04-22T08:59:38.339Z</time></trkpt><trkpt lat="44.6673724" lon="11.5880396"><ele>7.285714285714286</ele><time>2026-04-22T08:59:39.347Z</time></trkpt><trkpt lat="44.6673874" lon="11.5881289"><ele>7.428571428571429</ele><time>2026-04-22T08:59:40.332Z</time></trkpt><trkpt lat="44.6674006" lon="11.5882182"><ele>7.571428571428571</ele><time>2026-04-22T08:59:41.333Z</time></trkpt><trkpt lat="44.6674135" lon="11.5883069"><ele>7.7142857142857135</ele><time>2026-04-22T08:59:42.346Z</time></trkpt><trkpt lat="44.6674277" lon="11.5883956"><ele>7.857142857142857</ele><time>2026-04-22T08:59:43.343Z</time></trkpt><trkpt lat="44.6674426" lon="11.5884833"><ele>8.0</ele><time>2026-04-22T08:59:44.342Z</time></trkpt><trkpt lat="44.6674581" lon="11.5885707"><ele>8.0</ele><time>2026-04-22T08:59:45.342Z</time></trkpt><trkpt lat="44.6674728" lon="11.5886579"><ele>7.999999999999999</ele><time>2026-04-22T08:59:46.346Z</time></trkpt><trkpt lat="44.6674878" lon="11.5887457"><ele>8.0</ele><time>2026-04-22T08:59:47.348Z</time></trkpt><trkpt lat="44.667503" lon="11.588833"><ele>8.0</ele><time>2026-04-22T08:59:48.339Z</time></trkpt><trkpt lat="44.6675177" lon="11.588921"><ele>7.999999999999999</ele><time>2026-04-22T08:59:49.333Z</time></trkpt><trkpt lat="44.6675327" lon="11.5890094"><ele>8.0</ele><time>2026-04-22T08:59:50.345Z</time></trkpt><trkpt lat="44.6675487" lon="11.5890984"><ele>8.0</ele><time>2026-04-22T08:59:51.335Z</time></trkpt><trkpt lat="44.6675635" lon="11.5891864"><ele>7.857142857142857</ele><time>2026-04-22T08:59:52.341Z</time></trkpt><trkpt lat="44.6675773" lon="11.5892741"><ele>7.7142857142857135</ele><time>2026-04-22T08:59:53.332Z</time></trkpt><trkpt lat="44.6676062" lon="11.5894468"><ele>7.571428571428571</ele><time>2026-04-22T08:59:55.337Z</time></trkpt><trkpt lat="44.6676211" lon="11.5895334"><ele>7.428571428571429</ele><time>2026-04-22T08:59:56.347Z</time></trkpt><trkpt lat="44.6676371" lon="11.589621"><ele>7.285714285714286</ele><time>2026-04-22T08:59:57.34Z</time></trkpt><trkpt lat="44.6676522" lon="11.5897078"><ele>7.142857142857142</ele><time>2026-04-22T08:59:58.336Z</time></trkpt><trkpt lat="44.6676669" lon="11.5897953"><ele>7.0</ele><time>2026-04-22T08:59:59.348Z</time></trkpt><trkpt lat="44.667682" lon="11.5898813"><ele>7.0</ele><time>2026-04-22T09:00:00.337Z</time></trkpt><trkpt lat="44.6676966" lon="11.5899682"><ele>7.0</ele><time>2026-04-22T09:00:01.342Z</time></trkpt><trkpt lat="44.6677107" lon="11.5900546"><ele>7.0</ele><time>2026-04-22T09:00:02.343Z</time></trkpt><trkpt lat="44.6677246" lon="11.5901423"><ele>7.0</ele><time>2026-04-22T09:00:03.344Z</time></trkpt><trkpt lat="44.6677392" lon="11.5902291"><ele>7.0</ele><time>2026-04-22T09:00:04.343Z</time></trkpt><trkpt lat="44.667754" lon="11.5903162"><ele>7.0</ele><time>2026-04-22T09:00:05.344Z</time></trkpt><trkpt lat="44.6677842" lon="11.5904885"><ele>7.0</ele><time>2026-04-22T09:00:07.338Z</time></trkpt><trkpt lat="44.6678135" lon="11.5906593"><ele>7.0</ele><time>2026-04-22T09:00:09.333Z</time></trkpt><trkpt lat="44.6678433" lon="11.5908283"><ele>6.999999999999999</ele><time>2026-04-22T09:00:11.338Z</time></trkpt><trkpt lat="44.6678741" lon="11.5909969"><ele>6.999999999999999</ele><time>2026-04-22T09:00:13.344Z</time></trkpt><trkpt lat="44.6679036" lon="11.5911684"><ele>7.0</ele><time>2026-04-22T09:00:15.333Z</time></trkpt><trkpt lat="44.6679194" lon="11.5912555"><ele>7.0</ele><time>2026-04-22T09:00:16.337Z</time></trkpt><trkpt lat="44.6679349" lon="11.5913429"><ele>7.0</ele><time>2026-04-22T09:00:17.353Z</time></trkpt><trkpt lat="44.6679501" lon="11.5914305"><ele>7.0</ele><time>2026-04-22T09:00:18.344Z</time></trkpt><trkpt lat="44.667965" lon="11.591518"><ele>7.0</ele><time>2026-04-22T09:00:19.337Z</time></trkpt><trkpt lat="44.667981" lon="11.5916051"><ele>7.0</ele><time>2026-04-22T09:00:20.338Z</time></trkpt><trkpt lat="44.6679975" lon="11.5916908"><ele>7.0</ele><time>2026-04-22T09:00:21.335Z</time></trkpt><trkpt lat="44.6680144" lon="11.5917764"><ele>7.0</ele><time>2026-04-22T09:00:22.341Z</time></trkpt><trkpt lat="44.6680443" lon="11.5919484"><ele>7.0</ele><time>2026-04-22T09:00:24.335Z</time></trkpt><trkpt lat="44.6680759" lon="11.5921191"><ele>7.0</ele><time>2026-04-22T09:00:26.345Z</time></trkpt><trkpt lat="44.6681078" lon="11.5922874"><ele>7.0</ele><time>2026-04-22T09:00:28.341Z</time></trkpt><trkpt lat="44.668137" lon="11.5924561"><ele>7.0</ele><time>2026-04-22T09:00:30.352Z</time></trkpt><trkpt lat="44.6681646" lon="11.5926244"><ele>7.0</ele><time>2026-04-22T09:00:32.35Z</time></trkpt><trkpt lat="44.6681944" lon="11.5927909"><ele>6.75</ele><time>2026-04-22T09:00:34.346Z</time></trkpt><trkpt lat="44.6682245" lon="11.592957"><ele>6.5</ele><time>2026-04-22T09:00:36.357Z</time></trkpt><trkpt lat="44.6682523" lon="11.5931239"><ele>6.25</ele><time>2026-04-22T09:00:38.35Z</time></trkpt><trkpt lat="44.6682811" lon="11.5932905"><ele>6.0</ele><time>2026-04-22T09:00:40.34Z</time></trkpt><trkpt lat="44.6683095" lon="11.5934588"><ele>6.0</ele><time>2026-04-22T09:00:42.344Z</time></trkpt><trkpt lat="44.6683391" lon="11.5936289"><ele>6.0</ele><time>2026-04-22T09:00:44.339Z</time></trkpt><trkpt lat="44.6683539" lon="11.593715"><ele>6.0</ele><time>2026-04-22T09:00:45.34Z</time></trkpt><trkpt lat="44.6683831" lon="11.5938877"><ele>6.0</ele><time>2026-04-22T09:00:47.355Z</time></trkpt><trkpt lat="44.6683975" lon="11.5939743"><ele>6.0</ele><time>2026-04-22T09:00:48.355Z</time></trkpt><trkpt lat="44.6684125" lon="11.5940605"><ele>6.0</ele><time>2026-04-22T09:00:49.342Z</time></trkpt><trkpt lat="44.6684427" lon="11.5942315"><ele>6.0</ele><time>2026-04-22T09:00:51.34Z</time></trkpt><trkpt lat="44.6684725" lon="11.5944037"><ele>6.0</ele><time>2026-04-22T09:00:53.345Z</time></trkpt><trkpt lat="44.6684868" lon="11.5944901"><ele>6.0</ele><time>2026-04-22T09:00:54.338Z</time></trkpt><trkpt lat="44.6685027" lon="11.594576"><ele>6.0</ele><time>2026-04-22T09:00:55.345Z</time></trkpt><trkpt lat="44.6685332" lon="11.5947475"><ele>6.0</ele><time>2026-04-22T09:00:57.352Z</time></trkpt><trkpt lat="44.6685617" lon="11.5949174"><ele>6.0</ele><time>2026-04-22T09:00:59.345Z</time></trkpt><trkpt lat="44.6685916" lon="11.5950864"><ele>6.0</ele><time>2026-04-22T09:01:01.352Z</time></trkpt><trkpt lat="44.6686192" lon="11.595255"><ele>6.0</ele><time>2026-04-22T09:01:03.348Z</time></trkpt><trkpt lat="44.6686477" lon="11.5954216"><ele>6.0</ele><time>2026-04-22T09:01:05.343Z</time></trkpt><trkpt lat="44.668677" lon="11.5955865"><ele>6.0</ele><time>2026-04-22T09:01:07.348Z</time></trkpt><trkpt lat="44.6687051" lon="11.5957537"><ele>6.0</ele><time>2026-04-22T09:01:09.349Z</time></trkpt><trkpt lat="44.6687327" lon="11.5959075"><ele>6.0</ele><time>2026-04-22T09:01:11.343Z</time></trkpt><trkpt lat="44.6687594" lon="11.5960558"><ele>6.0</ele><time>2026-04-22T09:01:13.346Z</time></trkpt><trkpt lat="44.6687848" lon="11.5962062"><ele>6.25</ele><time>2026-04-22T09:01:15.362Z</time></trkpt><trkpt lat="44.6688128" lon="11.5963616"><ele>6.5</ele><time>2026-04-22T09:01:17.343Z</time></trkpt><trkpt lat="44.6688428" lon="11.5965181"><ele>6.75</ele><time>2026-04-22T09:01:19.351Z</time></trkpt><trkpt lat="44.668869" lon="11.5966867"><ele>7.0</ele><time>2026-04-22T09:01:21.345Z</time></trkpt><trkpt lat="44.6688969" lon="11.59685"><ele>6.75</ele><time>2026-04-22T09:01:23.337Z</time></trkpt><trkpt lat="44.6689211" lon="11.5970149"><ele>6.5</ele><time>2026-04-22T09:01:25.345Z</time></trkpt><trkpt lat="44.6689458" lon="11.5971766"><ele>6.25</ele><time>2026-04-22T09:01:27.345Z</time></trkpt><trkpt lat="44.6689729" lon="11.5973387"><ele>6.0</ele><time>2026-04-22T09:01:29.347Z</time></trkpt><trkpt lat="44.6689993" lon="11.5975031"><ele>6.0</ele><time>2026-04-22T09:01:31.351Z</time></trkpt><trkpt lat="44.6690273" lon="11.5976699"><ele>6.0</ele><time>2026-04-22T09:01:33.348Z</time></trkpt><trkpt lat="44.6690529" lon="11.5978375"><ele>6.0</ele><time>2026-04-22T09:01:35.337Z</time></trkpt><trkpt lat="44.6690795" lon="11.598005"><ele>6.0</ele><time>2026-04-22T09:01:37.346Z</time></trkpt><trkpt lat="44.6691052" lon="11.5981725"><ele>6.25</ele><time>2026-04-22T09:01:39.347Z</time></trkpt><trkpt lat="44.6691301" lon="11.5983424"><ele>6.5</ele><time>2026-04-22T09:01:41.349Z</time></trkpt><trkpt lat="44.6691568" lon="11.5985124"><ele>6.75</ele><time>2026-04-22T09:01:43.344Z</time></trkpt><trkpt lat="44.6691828" lon="11.5986816"><ele>7.0</ele><time>2026-04-22T09:01:45.342Z</time></trkpt><trkpt lat="44.6692087" lon="11.5988513"><ele>7.0</ele><time>2026-04-22T09:01:47.353Z</time></trkpt><trkpt lat="44.6692355" lon="11.5990204"><ele>7.0</ele><time>2026-04-22T09:01:49.35Z</time></trkpt><trkpt lat="44.6692562" lon="11.599192"><ele>7.0</ele><time>2026-04-22T09:01:51.356Z</time></trkpt><trkpt lat="44.6692767" lon="11.5993635"><ele>7.0</ele><time>2026-04-22T09:01:53.346Z</time></trkpt><trkpt lat="44.6692943" lon="11.5995351"><ele>7.0</ele><time>2026-04-22T09:01:55.342Z</time></trkpt><trkpt lat="44.6693111" lon="11.599707"><ele>7.0</ele><time>2026-04-22T09:01:57.338Z</time></trkpt><trkpt lat="44.6693233" lon="11.5998776"><ele>7.0</ele><time>2026-04-22T09:01:59.35Z</time></trkpt><trkpt lat="44.6693363" lon="11.6000493"><ele>7.0</ele><time>2026-04-22T09:02:01.344Z</time></trkpt><trkpt lat="44.6693504" lon="11.6002207"><ele>7.0</ele><time>2026-04-22T09:02:03.344Z</time></trkpt><trkpt lat="44.6693634" lon="11.6003896"><ele>7.0</ele><time>2026-04-22T09:02:05.344Z</time></trkpt><trkpt lat="44.6693758" lon="11.6005602"><ele>7.0</ele><time>2026-04-22T09:02:07.342Z</time></trkpt><trkpt lat="44.669387" lon="11.6007293"><ele>7.0</ele><time>2026-04-22T09:02:09.334Z</time></trkpt><trkpt lat="44.6694019" lon="11.6008968"><ele>7.0</ele><time>2026-04-22T09:02:11.357Z</time></trkpt><trkpt lat="44.669414" lon="11.6010662"><ele>7.0</ele><time>2026-04-22T09:02:13.332Z</time></trkpt><trkpt lat="44.6694269" lon="11.601235"><ele>7.0</ele><time>2026-04-22T09:02:15.356Z</time></trkpt><trkpt lat="44.6694421" lon="11.6014037"><ele>7.0</ele><time>2026-04-22T09:02:17.337Z</time></trkpt><trkpt lat="44.6694553" lon="11.601572"><ele>6.75</ele><time>2026-04-22T09:02:19.346Z</time></trkpt><trkpt lat="44.6694696" lon="11.6017399"><ele>6.5</ele><time>2026-04-22T09:02:21.345Z</time></trkpt><trkpt lat="44.6694847" lon="11.6019091"><ele>6.25</ele><time>2026-04-22T09:02:23.349Z</time></trkpt><trkpt lat="44.6694999" lon="11.6020804"><ele>6.0</ele><time>2026-04-22T09:02:25.335Z</time></trkpt><trkpt lat="44.6695166" lon="11.6022527"><ele>6.0</ele><time>2026-04-22T09:02:27.344Z</time></trkpt><trkpt lat="44.669535" lon="11.602424"><ele>6.0</ele><time>2026-04-22T09:02:29.332Z</time></trkpt><trkpt lat="44.6695545" lon="11.6025928"><ele>6.0</ele><time>2026-04-22T09:02:31.335Z</time></trkpt><trkpt lat="44.6695729" lon="11.6027618"><ele>6.0</ele><time>2026-04-22T09:02:33.336Z</time></trkpt><trkpt lat="44.669593" lon="11.6029313"><ele>6.25</ele><time>2026-04-22T09:02:35.346Z</time></trkpt><trkpt lat="44.6696131" lon="11.603101"><ele>6.5</ele><time>2026-04-22T09:02:37.342Z</time></trkpt><trkpt lat="44.6696334" lon="11.6032718"><ele>6.75</ele><time>2026-04-22T09:02:39.339Z</time></trkpt><trkpt lat="44.6696523" lon="11.6034431"><ele>7.0</ele><time>2026-04-22T09:02:41.342Z</time></trkpt><trkpt lat="44.669666" lon="11.6036166"><ele>6.8</ele><time>2026-04-22T09:02:43.356Z</time></trkpt><trkpt lat="44.6696815" lon="11.6037908"><ele>6.6</ele><time>2026-04-22T09:02:45.335Z</time></trkpt><trkpt lat="44.669696" lon="11.6039651"><ele>6.3999999999999995</ele><time>2026-04-22T09:02:47.334Z</time></trkpt><trkpt lat="44.669708" lon="11.6041391"><ele>6.199999999999999</ele><time>2026-04-22T09:02:49.351Z</time></trkpt><trkpt lat="44.669713" lon="11.6042274"><ele>6.0</ele><time>2026-04-22T09:02:50.348Z</time></trkpt><trkpt lat="44.6697186" lon="11.6043159"><ele>6.0</ele><time>2026-04-22T09:02:51.333Z</time></trkpt><trkpt lat="44.6697247" lon="11.6044043"><ele>6.0</ele><time>2026-04-22T09:02:52.344Z</time></trkpt><trkpt lat="44.6697304" lon="11.6044933"><ele>6.0</ele><time>2026-04-22T09:02:53.343Z</time></trkpt><trkpt lat="44.6697359" lon="11.6045832"><ele>6.0</ele><time>2026-04-22T09:02:54.348Z</time></trkpt><trkpt lat="44.6697417" lon="11.6046729"><ele>6.0</ele><time>2026-04-22T09:02:55.348Z</time></trkpt><trkpt lat="44.6697473" lon="11.6047634"><ele>6.0</ele><time>2026-04-22T09:02:56.347Z</time></trkpt><trkpt lat="44.6697524" lon="11.6048529"><ele>6.0</ele><time>2026-04-22T09:02:57.343Z</time></trkpt><trkpt lat="44.6697579" lon="11.6049429"><ele>6.0</ele><time>2026-04-22T09:02:58.346Z</time></trkpt><trkpt lat="44.6697641" lon="11.6050323"><ele>6.0</ele><time>2026-04-22T09:02:59.347Z</time></trkpt><trkpt lat="44.6697698" lon="11.6051224"><ele>6.0</ele><time>2026-04-22T09:03:00.335Z</time></trkpt><trkpt lat="44.6697743" lon="11.605212"><ele>6.0</ele><time>2026-04-22T09:03:01.336Z</time></trkpt><trkpt lat="44.6697796" lon="11.6053011"><ele>6.0</ele><time>2026-04-22T09:03:02.344Z</time></trkpt><trkpt lat="44.6697841" lon="11.6053894"><ele>6.0</ele><time>2026-04-22T09:03:03.344Z</time></trkpt><trkpt lat="44.6697933" lon="11.6055647"><ele>6.0</ele><time>2026-04-22T09:03:05.337Z</time></trkpt><trkpt lat="44.6698012" lon="11.60574"><ele>6.0</ele><time>2026-04-22T09:03:07.336Z</time></trkpt><trkpt lat="44.6698038" lon="11.605916"><ele>6.0</ele><time>2026-04-22T09:03:09.352Z</time></trkpt><trkpt lat="44.6698014" lon="11.6060931"><ele>6.0</ele><time>2026-04-22T09:03:11.353Z</time></trkpt><trkpt lat="44.6697951" lon="11.6062709"><ele>6.0</ele><time>2026-04-22T09:03:13.345Z</time></trkpt><trkpt lat="44.6697881" lon="11.6063604"><ele>6.0</ele><time>2026-04-22T09:03:14.344Z</time></trkpt><trkpt lat="44.6697803" lon="11.6064516"><ele>5.999999999999999</ele><time>2026-04-22T09:03:15.346Z</time></trkpt><trkpt lat="44.6697716" lon="11.6065416"><ele>6.0</ele><time>2026-04-22T09:03:16.347Z</time></trkpt><trkpt lat="44.6697619" lon="11.6066309"><ele>6.0</ele><time>2026-04-22T09:03:17.344Z</time></trkpt><trkpt lat="44.6697508" lon="11.6067197"><ele>6.0</ele><time>2026-04-22T09:03:18.339Z</time></trkpt><trkpt lat="44.6697373" lon="11.606809"><ele>6.0</ele><time>2026-04-22T09:03:19.349Z</time></trkpt><trkpt lat="44.6697245" lon="11.6068977"><ele>5.999999999999999</ele><time>2026-04-22T09:03:20.345Z</time></trkpt><trkpt lat="44.6697126" lon="11.6069861"><ele>6.0</ele><time>2026-04-22T09:03:21.344Z</time></trkpt><trkpt lat="44.6697009" lon="11.607074"><ele>6.0</ele><time>2026-04-22T09:03:22.338Z</time></trkpt><trkpt lat="44.6696901" lon="11.6071615"><ele>6.0</ele><time>2026-04-22T09:03:23.335Z</time></trkpt><trkpt lat="44.6696706" lon="11.6073356"><ele>6.0</ele><time>2026-04-22T09:03:25.349Z</time></trkpt><trkpt lat="44.6696528" lon="11.6075092"><ele>6.0</ele><time>2026-04-22T09:03:27.339Z</time></trkpt><trkpt lat="44.6696346" lon="11.6076824"><ele>6.0</ele><time>2026-04-22T09:03:29.341Z</time></trkpt><trkpt lat="44.6696206" lon="11.6078536"><ele>5.75</ele><time>2026-04-22T09:03:31.341Z</time></trkpt><trkpt lat="44.6696098" lon="11.6080223"><ele>5.5</ele><time>2026-04-22T09:03:33.335Z</time></trkpt><trkpt lat="44.669598" lon="11.6081919"><ele>5.25</ele><time>2026-04-22T09:03:35.347Z</time></trkpt><trkpt lat="44.6695878" lon="11.6083632"><ele>5.0</ele><time>2026-04-22T09:03:37.342Z</time></trkpt><trkpt lat="44.6695765" lon="11.6085363"><ele>5.25</ele><time>2026-04-22T09:03:39.347Z</time></trkpt><trkpt lat="44.6695644" lon="11.6087092"><ele>5.5</ele><time>2026-04-22T09:03:41.343Z</time></trkpt><trkpt lat="44.6695534" lon="11.6088831"><ele>5.75</ele><time>2026-04-22T09:03:43.345Z</time></trkpt><trkpt lat="44.6695423" lon="11.6090561"><ele>6.0</ele><time>2026-04-22T09:03:45.34Z</time></trkpt><trkpt lat="44.6695308" lon="11.6092309"><ele>6.0</ele><time>2026-04-22T09:03:47.351Z</time></trkpt><trkpt lat="44.6695192" lon="11.6094052"><ele>6.0</ele><time>2026-04-22T09:03:49.35Z</time></trkpt><trkpt lat="44.6695074" lon="11.6095795"><ele>6.0</ele><time>2026-04-22T09:03:51.348Z</time></trkpt><trkpt lat="44.6694946" lon="11.6097527"><ele>6.0</ele><time>2026-04-22T09:03:53.338Z</time></trkpt><trkpt lat="44.6694829" lon="11.6099244"><ele>6.0</ele><time>2026-04-22T09:03:55.342Z</time></trkpt><trkpt lat="44.6694715" lon="11.6100969"><ele>6.0</ele><time>2026-04-22T09:03:57.34Z</time></trkpt><trkpt lat="44.6694588" lon="11.6102689"><ele>6.0</ele><time>2026-04-22T09:03:59.334Z</time></trkpt><trkpt lat="44.6694501" lon="11.6104423"><ele>6.0</ele><time>2026-04-22T09:04:01.345Z</time></trkpt><trkpt lat="44.6694376" lon="11.6106145"><ele>6.0</ele><time>2026-04-22T09:04:03.348Z</time></trkpt><trkpt lat="44.6694267" lon="11.6107858"><ele>6.0</ele><time>2026-04-22T09:04:05.345Z</time></trkpt><trkpt lat="44.6694157" lon="11.6109559"><ele>6.0</ele><time>2026-04-22T09:04:07.344Z</time></trkpt><trkpt lat="44.6694047" lon="11.6111238"><ele>6.0</ele><time>2026-04-22T09:04:09.345Z</time></trkpt><trkpt lat="44.6693951" lon="11.6112922"><ele>5.75</ele><time>2026-04-22T09:04:11.345Z</time></trkpt><trkpt lat="44.6693838" lon="11.6114606"><ele>5.5</ele><time>2026-04-22T09:04:13.348Z</time></trkpt><trkpt lat="44.669371" lon="11.6116294"><ele>5.25</ele><time>2026-04-22T09:04:15.349Z</time></trkpt><trkpt lat="44.6693587" lon="11.6117991"><ele>5.0</ele><time>2026-04-22T09:04:17.346Z</time></trkpt><trkpt lat="44.6693473" lon="11.6119677"><ele>5.25</ele><time>2026-04-22T09:04:19.337Z</time></trkpt><trkpt lat="44.6693356" lon="11.6121371"><ele>5.5</ele><time>2026-04-22T09:04:21.344Z</time></trkpt><trkpt lat="44.6693243" lon="11.6123081"><ele>5.75</ele><time>2026-04-22T09:04:23.346Z</time></trkpt><trkpt lat="44.6693124" lon="11.6124781"><ele>6.0</ele><time>2026-04-22T09:04:25.345Z</time></trkpt><trkpt lat="44.6693022" lon="11.6126477"><ele>6.0</ele><time>2026-04-22T09:04:27.337Z</time></trkpt><trkpt lat="44.6692939" lon="11.6128166"><ele>6.0</ele><time>2026-04-22T09:04:29.339Z</time></trkpt><trkpt lat="44.6692854" lon="11.6129862"><ele>6.0</ele><time>2026-04-22T09:04:31.347Z</time></trkpt><trkpt lat="44.6692771" lon="11.6131583"><ele>6.0</ele><time>2026-04-22T09:04:33.339Z</time></trkpt><trkpt lat="44.6692701" lon="11.613328"><ele>6.0</ele><time>2026-04-22T09:04:35.335Z</time></trkpt><trkpt lat="44.669266" lon="11.6134985"><ele>6.0</ele><time>2026-04-22T09:04:37.346Z</time></trkpt><trkpt lat="44.6692652" lon="11.6136703"><ele>6.0</ele><time>2026-04-22T09:04:39.336Z</time></trkpt><trkpt lat="44.6692645" lon="11.6138397"><ele>6.0</ele><time>2026-04-22T09:04:41.343Z</time></trkpt><trkpt lat="44.6692631" lon="11.614009"><ele>6.0</ele><time>2026-04-22T09:04:43.344Z</time></trkpt><trkpt lat="44.6692626" lon="11.6141763"><ele>6.0</ele><time>2026-04-22T09:04:45.343Z</time></trkpt><trkpt lat="44.6692615" lon="11.6143372"><ele>6.0</ele><time>2026-04-22T09:04:47.338Z</time></trkpt><trkpt lat="44.6692578" lon="11.6145033"><ele>6.0</ele><time>2026-04-22T09:04:49.339Z</time></trkpt><trkpt lat="44.6692562" lon="11.6146735"><ele>6.0</ele><time>2026-04-22T09:04:51.339Z</time></trkpt><trkpt lat="44.6692525" lon="11.6148483"><ele>6.0</ele><time>2026-04-22T09:04:53.342Z</time></trkpt><trkpt lat="44.6692479" lon="11.615024"><ele>6.0</ele><time>2026-04-22T09:04:55.348Z</time></trkpt><trkpt lat="44.6692473" lon="11.615113"><ele>6.0</ele><time>2026-04-22T09:04:56.336Z</time></trkpt><trkpt lat="44.6692506" lon="11.6152891"><ele>6.0</ele><time>2026-04-22T09:04:58.349Z</time></trkpt><trkpt lat="44.6692584" lon="11.615461"><ele>5.75</ele><time>2026-04-22T09:05:00.339Z</time></trkpt><trkpt lat="44.6692761" lon="11.6156301"><ele>5.5</ele><time>2026-04-22T09:05:02.348Z</time></trkpt><trkpt lat="44.6693022" lon="11.6157959"><ele>5.25</ele><time>2026-04-22T09:05:04.336Z</time></trkpt><trkpt lat="44.6693416" lon="11.6159562"><ele>5.0</ele><time>2026-04-22T09:05:06.343Z</time></trkpt><trkpt lat="44.6693899" lon="11.6161116"><ele>5.2</ele><time>2026-04-22T09:05:08.344Z</time></trkpt><trkpt lat="44.6694423" lon="11.6162644"><ele>5.4</ele><time>2026-04-22T09:05:10.35Z</time></trkpt><trkpt lat="44.6694952" lon="11.6164045"><ele>5.6</ele><time>2026-04-22T09:05:12.353Z</time></trkpt><trkpt lat="44.6695521" lon="11.6165346"><ele>5.8</ele><time>2026-04-22T09:05:14.342Z</time></trkpt><trkpt lat="44.6696075" lon="11.616664"><ele>6.0</ele><time>2026-04-22T09:05:16.352Z</time></trkpt><trkpt lat="44.6696626" lon="11.6167923"><ele>6.0</ele><time>2026-04-22T09:05:18.343Z</time></trkpt><trkpt lat="44.6697059" lon="11.6169328"><ele>6.0</ele><time>2026-04-22T09:05:20.348Z</time></trkpt><trkpt lat="44.669687" lon="11.6170978"><ele>6.0</ele><time>2026-04-22T09:05:22.342Z</time></trkpt><trkpt lat="44.6696305" lon="11.6172451"><ele>6.0</ele><time>2026-04-22T09:05:24.342Z</time></trkpt><trkpt lat="44.6695954" lon="11.6173191"><ele>6.0</ele><time>2026-04-22T09:05:25.349Z</time></trkpt><trkpt lat="44.6695271" lon="11.6174631"><ele>6.0</ele><time>2026-04-22T09:05:27.344Z</time></trkpt><trkpt lat="44.669456" lon="11.6176082"><ele>6.0</ele><time>2026-04-22T09:05:29.325Z</time></trkpt><trkpt lat="44.669421" lon="11.6176835"><ele>6.0</ele><time>2026-04-22T09:05:30.344Z</time></trkpt><trkpt lat="44.6693863" lon="11.6177575"><ele>6.0</ele><time>2026-04-22T09:05:31.337Z</time></trkpt><trkpt lat="44.6693157" lon="11.6179018"><ele>6.0</ele><time>2026-04-22T09:05:33.34Z</time></trkpt><trkpt lat="44.669246" lon="11.6180476"><ele>5.666666666666667</ele><time>2026-04-22T09:05:35.342Z</time></trkpt><trkpt lat="44.6691775" lon="11.618196"><ele>5.333333333333333</ele><time>2026-04-22T09:05:37.345Z</time></trkpt><trkpt lat="44.669143" lon="11.618273"><ele>5.0</ele><time>2026-04-22T09:05:38.327Z</time></trkpt><trkpt lat="44.669106" lon="11.6183469"><ele>4.666666666666666</ele><time>2026-04-22T09:05:39.334Z</time></trkpt><trkpt lat="44.6690681" lon="11.6184215"><ele>4.333333333333333</ele><time>2026-04-22T09:05:40.33Z</time></trkpt><trkpt lat="44.6690297" lon="11.6184955"><ele>4.0</ele><time>2026-04-22T09:05:41.344Z</time></trkpt><trkpt lat="44.6689904" lon="11.61857"><ele>4.0</ele><time>2026-04-22T09:05:42.335Z</time></trkpt><trkpt lat="44.6689479" lon="11.6186421"><ele>3.9999999999999996</ele><time>2026-04-22T09:05:43.335Z</time></trkpt><trkpt lat="44.6689028" lon="11.6187101"><ele>4.0</ele><time>2026-04-22T09:05:44.348Z</time></trkpt><trkpt lat="44.6688544" lon="11.6187771"><ele>4.0</ele><time>2026-04-22T09:05:45.343Z</time></trkpt><trkpt lat="44.6688037" lon="11.6188394"><ele>3.9999999999999996</ele><time>2026-04-22T09:05:46.335Z</time></trkpt><trkpt lat="44.6687519" lon="11.6188977"><ele>4.0</ele><time>2026-04-22T09:05:47.34Z</time></trkpt><trkpt lat="44.6686971" lon="11.6189523"><ele>4.0</ele><time>2026-04-22T09:05:48.342Z</time></trkpt><trkpt lat="44.6686408" lon="11.6190022"><ele>4.0</ele><time>2026-04-22T09:05:49.346Z</time></trkpt><trkpt lat="44.6685827" lon="11.619048"><ele>3.9999999999999996</ele><time>2026-04-22T09:05:50.332Z</time></trkpt><trkpt lat="44.6685246" lon="11.6190912"><ele>4.0</ele><time>2026-04-22T09:05:51.344Z</time></trkpt><trkpt lat="44.668467" lon="11.6191348"><ele>4.0</ele><time>2026-04-22T09:05:52.347Z</time></trkpt><trkpt lat="44.6684096" lon="11.6191795"><ele>3.9999999999999996</ele><time>2026-04-22T09:05:53.338Z</time></trkpt><trkpt lat="44.6683522" lon="11.6192231"><ele>4.0</ele><time>2026-04-22T09:05:54.357Z</time></trkpt><trkpt lat="44.6682938" lon="11.6192649"><ele>4.0</ele><time>2026-04-22T09:05:55.339Z</time></trkpt><trkpt lat="44.6682363" lon="11.6193073"><ele>4.0</ele><time>2026-04-22T09:05:56.343Z</time></trkpt><trkpt lat="44.6681791" lon="11.61935"><ele>3.9999999999999996</ele><time>2026-04-22T09:05:57.347Z</time></trkpt><trkpt lat="44.6681227" lon="11.6193926"><ele>4.0</ele><time>2026-04-22T09:05:58.348Z</time></trkpt><trkpt lat="44.6680654" lon="11.619436"><ele>4.0</ele><time>2026-04-22T09:05:59.351Z</time></trkpt><trkpt lat="44.6680083" lon="11.6194764"><ele>3.9999999999999996</ele><time>2026-04-22T09:06:00.35Z</time></trkpt><trkpt lat="44.6679513" lon="11.6195185"><ele>4.0</ele><time>2026-04-22T09:06:01.337Z</time></trkpt><trkpt lat="44.6678948" lon="11.6195612"><ele>4.0</ele><time>2026-04-22T09:06:02.339Z</time></trkpt><trkpt lat="44.6678383" lon="11.6196043"><ele>4.142857142857142</ele><time>2026-04-22T09:06:03.344Z</time></trkpt><trkpt lat="44.6677815" lon="11.6196463"><ele>4.285714285714286</ele><time>2026-04-22T09:06:04.339Z</time></trkpt><trkpt lat="44.6677248" lon="11.6196889"><ele>4.428571428571429</ele><time>2026-04-22T09:06:05.34Z</time></trkpt><trkpt lat="44.6676685" lon="11.6197311"><ele>4.571428571428571</ele><time>2026-04-22T09:06:06.353Z</time></trkpt><trkpt lat="44.6676118" lon="11.619774"><ele>4.714285714285714</ele><time>2026-04-22T09:06:07.351Z</time></trkpt><trkpt lat="44.6675557" lon="11.6198148"><ele>4.857142857142857</ele><time>2026-04-22T09:06:08.341Z</time></trkpt><trkpt lat="44.6674997" lon="11.6198577"><ele>5.0</ele><time>2026-04-22T09:06:09.351Z</time></trkpt><trkpt lat="44.6673884" lon="11.6199427"><ele>5.0</ele><time>2026-04-22T09:06:11.342Z</time></trkpt><trkpt lat="44.6673331" lon="11.6199856"><ele>5.0</ele><time>2026-04-22T09:06:12.348Z</time></trkpt><trkpt lat="44.6672224" lon="11.6200685"><ele>5.0</ele><time>2026-04-22T09:06:14.358Z</time></trkpt><trkpt lat="44.6671668" lon="11.6201103"><ele>5.0</ele><time>2026-04-22T09:06:15.355Z</time></trkpt><trkpt lat="44.667111" lon="11.620153"><ele>5.0</ele><time>2026-04-22T09:06:16.348Z</time></trkpt><trkpt lat="44.6670552" lon="11.620195"><ele>5.0</ele><time>2026-04-22T09:06:17.353Z</time></trkpt><trkpt lat="44.6669992" lon="11.6202374"><ele>5.0</ele><time>2026-04-22T09:06:18.338Z</time></trkpt><trkpt lat="44.666887" lon="11.620322"><ele>5.142857142857142</ele><time>2026-04-22T09:06:20.341Z</time></trkpt><trkpt lat="44.6668308" lon="11.6203656"><ele>5.285714285714286</ele><time>2026-04-22T09:06:21.357Z</time></trkpt><trkpt lat="44.6667735" lon="11.6204078"><ele>5.428571428571429</ele><time>2026-04-22T09:06:22.347Z</time></trkpt><trkpt lat="44.6667165" lon="11.62045"><ele>5.571428571428571</ele><time>2026-04-22T09:06:23.345Z</time></trkpt><trkpt lat="44.6666598" lon="11.6204939"><ele>5.714285714285714</ele><time>2026-04-22T09:06:24.34Z</time></trkpt><trkpt lat="44.6666029" lon="11.6205374"><ele>5.857142857142857</ele><time>2026-04-22T09:06:25.331Z</time></trkpt><trkpt lat="44.666546" lon="11.6205798"><ele>6.0</ele><time>2026-04-22T09:06:26.346Z</time></trkpt><trkpt lat="44.6664889" lon="11.6206227"><ele>5.999999999999999</ele><time>2026-04-22T09:06:27.334Z</time></trkpt><trkpt lat="44.6664313" lon="11.6206642"><ele>6.0</ele><time>2026-04-22T09:06:28.341Z</time></trkpt><trkpt lat="44.6663746" lon="11.6207071"><ele>6.0</ele><time>2026-04-22T09:06:29.344Z</time></trkpt><trkpt lat="44.6663178" lon="11.6207498"><ele>6.0</ele><time>2026-04-22T09:06:30.342Z</time></trkpt><trkpt lat="44.6662609" lon="11.6207922"><ele>6.0</ele><time>2026-04-22T09:06:31.34Z</time></trkpt><trkpt lat="44.666204" lon="11.6208347"><ele>5.999999999999999</ele><time>2026-04-22T09:06:32.343Z</time></trkpt><trkpt lat="44.666147" lon="11.6208768"><ele>6.0</ele><time>2026-04-22T09:06:33.339Z</time></trkpt><trkpt lat="44.6660905" lon="11.6209188"><ele>5.875</ele><time>2026-04-22T09:06:34.336Z</time></trkpt><trkpt lat="44.6660333" lon="11.6209614"><ele>5.75</ele><time>2026-04-22T09:06:35.346Z</time></trkpt><trkpt lat="44.6659764" lon="11.6210046"><ele>5.625</ele><time>2026-04-22T09:06:36.347Z</time></trkpt><trkpt lat="44.6659194" lon="11.6210477"><ele>5.5</ele><time>2026-04-22T09:06:37.348Z</time></trkpt><trkpt lat="44.6658632" lon="11.6210904"><ele>5.375</ele><time>2026-04-22T09:06:38.349Z</time></trkpt><trkpt lat="44.6658068" lon="11.6211344"><ele>5.25</ele><time>2026-04-22T09:06:39.345Z</time></trkpt><trkpt lat="44.6657516" lon="11.6211771"><ele>5.125</ele><time>2026-04-22T09:06:40.344Z</time></trkpt><trkpt lat="44.665696" lon="11.6212196"><ele>5.0</ele><time>2026-04-22T09:06:41.355Z</time></trkpt><trkpt lat="44.6655855" lon="11.6213067"><ele>5.0</ele><time>2026-04-22T09:06:43.343Z</time></trkpt><trkpt lat="44.6655303" lon="11.62135"><ele>5.0</ele><time>2026-04-22T09:06:44.329Z</time></trkpt><trkpt lat="44.6654739" lon="11.6213914"><ele>5.0</ele><time>2026-04-22T09:06:45.346Z</time></trkpt><trkpt lat="44.6654178" lon="11.6214329"><ele>5.0</ele><time>2026-04-22T09:06:46.345Z</time></trkpt><trkpt lat="44.6653615" lon="11.621474"><ele>5.0</ele><time>2026-04-22T09:06:47.339Z</time></trkpt><trkpt lat="44.6652506" lon="11.6215577"><ele>5.0</ele><time>2026-04-22T09:06:49.346Z</time></trkpt><trkpt lat="44.6651392" lon="11.6216391"><ele>4.857142857142857</ele><time>2026-04-22T09:06:51.333Z</time></trkpt><trkpt lat="44.665082" lon="11.6216807"><ele>4.714285714285714</ele><time>2026-04-22T09:06:52.34Z</time></trkpt><trkpt lat="44.6650249" lon="11.6217233"><ele>4.571428571428571</ele><time>2026-04-22T09:06:53.351Z</time></trkpt><trkpt lat="44.6649678" lon="11.6217659"><ele>4.428571428571429</ele><time>2026-04-22T09:06:54.351Z</time></trkpt><trkpt lat="44.6649106" lon="11.6218078"><ele>4.285714285714286</ele><time>2026-04-22T09:06:55.347Z</time></trkpt><trkpt lat="44.6648532" lon="11.621848"><ele>4.142857142857142</ele><time>2026-04-22T09:06:56.337Z</time></trkpt><trkpt lat="44.664796" lon="11.6218893"><ele>4.0</ele><time>2026-04-22T09:06:57.343Z</time></trkpt><trkpt lat="44.6647399" lon="11.6219302"><ele>4.0</ele><time>2026-04-22T09:06:58.344Z</time></trkpt><trkpt lat="44.6646832" lon="11.621971"><ele>4.0</ele><time>2026-04-22T09:06:59.34Z</time></trkpt><trkpt lat="44.6645712" lon="11.6220506"><ele>4.0</ele><time>2026-04-22T09:07:01.347Z</time></trkpt><trkpt lat="44.6644597" lon="11.6221272"><ele>4.0</ele><time>2026-04-22T09:07:03.354Z</time></trkpt><trkpt lat="44.6643475" lon="11.6222059"><ele>4.0</ele><time>2026-04-22T09:07:05.342Z</time></trkpt><trkpt lat="44.6642905" lon="11.6222449"><ele>4.2</ele><time>2026-04-22T09:07:06.361Z</time></trkpt><trkpt lat="44.664178" lon="11.622324"><ele>4.4</ele><time>2026-04-22T09:07:08.341Z</time></trkpt><trkpt lat="44.6640655" lon="11.6224041"><ele>4.6</ele><time>2026-04-22T09:07:10.331Z</time></trkpt><trkpt lat="44.6639532" lon="11.6224831"><ele>4.8</ele><time>2026-04-22T09:07:12.34Z</time></trkpt><trkpt lat="44.6638969" lon="11.622523"><ele>5.0</ele><time>2026-04-22T09:07:13.335Z</time></trkpt><trkpt lat="44.6638402" lon="11.6225627"><ele>5.0</ele><time>2026-04-22T09:07:14.353Z</time></trkpt><trkpt lat="44.6637838" lon="11.6226027"><ele>5.0</ele><time>2026-04-22T09:07:15.353Z</time></trkpt><trkpt lat="44.6637272" lon="11.6226427"><ele>5.0</ele><time>2026-04-22T09:07:16.34Z</time></trkpt><trkpt lat="44.6636695" lon="11.6226833"><ele>5.0</ele><time>2026-04-22T09:07:17.345Z</time></trkpt><trkpt lat="44.6636114" lon="11.6227231"><ele>5.0</ele><time>2026-04-22T09:07:18.353Z</time></trkpt><trkpt lat="44.6635534" lon="11.6227623"><ele>5.0</ele><time>2026-04-22T09:07:19.344Z</time></trkpt><trkpt lat="44.6634955" lon="11.6228026"><ele>5.0</ele><time>2026-04-22T09:07:20.338Z</time></trkpt><trkpt lat="44.663437" lon="11.6228413"><ele>5.0</ele><time>2026-04-22T09:07:21.334Z</time></trkpt><trkpt lat="44.663379" lon="11.6228803"><ele>5.166666666666667</ele><time>2026-04-22T09:07:22.332Z</time></trkpt><trkpt lat="44.6633228" lon="11.6229211"><ele>5.333333333333334</ele><time>2026-04-22T09:07:23.342Z</time></trkpt><trkpt lat="44.6632668" lon="11.6229628"><ele>5.5</ele><time>2026-04-22T09:07:24.338Z</time></trkpt><trkpt lat="44.6632107" lon="11.6230035"><ele>5.666666666666667</ele><time>2026-04-22T09:07:25.344Z</time></trkpt><trkpt lat="44.6630988" lon="11.6230805"><ele>5.833333333333333</ele><time>2026-04-22T09:07:27.341Z</time></trkpt><trkpt lat="44.6629879" lon="11.6231583"><ele>6.0</ele><time>2026-04-22T09:07:29.346Z</time></trkpt><trkpt lat="44.6628788" lon="11.6232372"><ele>5.5</ele><time>2026-04-22T09:07:31.353Z</time></trkpt><trkpt lat="44.6627692" lon="11.6233134"><ele>5.0</ele><time>2026-04-22T09:07:33.332Z</time></trkpt><trkpt lat="44.6626586" lon="11.6233897"><ele>4.5</ele><time>2026-04-22T09:07:35.334Z</time></trkpt><trkpt lat="44.6625483" lon="11.6234688"><ele>4.0</ele><time>2026-04-22T09:07:37.346Z</time></trkpt><trkpt lat="44.6624367" lon="11.6235451"><ele>4.0</ele><time>2026-04-22T09:07:39.336Z</time></trkpt><trkpt lat="44.6623264" lon="11.6236274"><ele>4.0</ele><time>2026-04-22T09:07:41.343Z</time></trkpt><trkpt lat="44.662219" lon="11.623717"><ele>4.0</ele><time>2026-04-22T09:07:43.34Z</time></trkpt><trkpt lat="44.6621132" lon="11.623812"><ele>4.0</ele><time>2026-04-22T09:07:45.348Z</time></trkpt><trkpt lat="44.6620121" lon="11.6239117"><ele>4.25</ele><time>2026-04-22T09:07:47.333Z</time></trkpt><trkpt lat="44.6619155" lon="11.6240204"><ele>4.5</ele><time>2026-04-22T09:07:49.35Z</time></trkpt><trkpt lat="44.6618214" lon="11.624133"><ele>4.75</ele><time>2026-04-22T09:07:51.345Z</time></trkpt><trkpt lat="44.6617326" lon="11.624252"><ele>5.0</ele><time>2026-04-22T09:07:53.335Z</time></trkpt><trkpt lat="44.6616462" lon="11.6243746"><ele>5.0</ele><time>2026-04-22T09:07:55.333Z</time></trkpt><trkpt lat="44.6615611" lon="11.6245028"><ele>5.0</ele><time>2026-04-22T09:07:57.342Z</time></trkpt><trkpt lat="44.6614818" lon="11.6246406"><ele>5.0</ele><time>2026-04-22T09:07:59.347Z</time></trkpt><trkpt lat="44.6614444" lon="11.6247125"><ele>5.0</ele><time>2026-04-22T09:08:00.344Z</time></trkpt><trkpt lat="44.6614079" lon="11.6247871"><ele>5.0</ele><time>2026-04-22T09:08:01.355Z</time></trkpt><trkpt lat="44.6613724" lon="11.6248621"><ele>5.0</ele><time>2026-04-22T09:08:02.35Z</time></trkpt><trkpt lat="44.661308" lon="11.6250083"><ele>5.0</ele><time>2026-04-22T09:08:04.337Z</time></trkpt><trkpt lat="44.6612519" lon="11.6251662"><ele>5.0</ele><time>2026-04-22T09:08:06.344Z</time></trkpt><trkpt lat="44.6612009" lon="11.6253217"><ele>5.0</ele><time>2026-04-22T09:08:08.334Z</time></trkpt><trkpt lat="44.661153" lon="11.6254781"><ele>5.0</ele><time>2026-04-22T09:08:10.344Z</time></trkpt><trkpt lat="44.6611317" lon="11.6255622"><ele>5.0</ele><time>2026-04-22T09:08:11.34Z</time></trkpt><trkpt lat="44.6610936" lon="11.625727"><ele>4.75</ele><time>2026-04-22T09:08:13.337Z</time></trkpt><trkpt lat="44.6610593" lon="11.6258957"><ele>4.5</ele><time>2026-04-22T09:08:15.35Z</time></trkpt><trkpt lat="44.6610286" lon="11.6260596"><ele>4.25</ele><time>2026-04-22T09:08:17.344Z</time></trkpt><trkpt lat="44.6609996" lon="11.6262234"><ele>4.0</ele><time>2026-04-22T09:08:19.342Z</time></trkpt><trkpt lat="44.6609668" lon="11.6263893"><ele>4.0</ele><time>2026-04-22T09:08:21.35Z</time></trkpt><trkpt lat="44.6609363" lon="11.6265537"><ele>4.0</ele><time>2026-04-22T09:08:23.339Z</time></trkpt><trkpt lat="44.6609067" lon="11.6267164"><ele>4.0</ele><time>2026-04-22T09:08:25.343Z</time></trkpt><trkpt lat="44.6608771" lon="11.6268806"><ele>4.0</ele><time>2026-04-22T09:08:27.338Z</time></trkpt><trkpt lat="44.6608467" lon="11.627046"><ele>4.25</ele><time>2026-04-22T09:08:29.345Z</time></trkpt><trkpt lat="44.6608139" lon="11.6272131"><ele>4.5</ele><time>2026-04-22T09:08:31.345Z</time></trkpt><trkpt lat="44.660781" lon="11.6273785"><ele>4.75</ele><time>2026-04-22T09:08:33.346Z</time></trkpt><trkpt lat="44.6607499" lon="11.62754"><ele>5.0</ele><time>2026-04-22T09:08:35.347Z</time></trkpt><trkpt lat="44.6607206" lon="11.6277005"><ele>5.25</ele><time>2026-04-22T09:08:37.345Z</time></trkpt><trkpt lat="44.6606903" lon="11.6278591"><ele>5.5</ele><time>2026-04-22T09:08:39.341Z</time></trkpt><trkpt lat="44.6606596" lon="11.6280193"><ele>5.75</ele><time>2026-04-22T09:08:41.337Z</time></trkpt><trkpt lat="44.6606293" lon="11.6281826"><ele>6.0</ele><time>2026-04-22T09:08:43.346Z</time></trkpt><trkpt lat="44.6606006" lon="11.6283461"><ele>6.0</ele><time>2026-04-22T09:08:45.347Z</time></trkpt><trkpt lat="44.6605689" lon="11.6285108"><ele>6.0</ele><time>2026-04-22T09:08:47.358Z</time></trkpt><trkpt lat="44.6605395" lon="11.6286766"><ele>6.0</ele><time>2026-04-22T09:08:49.335Z</time></trkpt><trkpt lat="44.6605106" lon="11.628842"><ele>6.0</ele><time>2026-04-22T09:08:51.355Z</time></trkpt><trkpt lat="44.6604808" lon="11.629007"><ele>5.75</ele><time>2026-04-22T09:08:53.335Z</time></trkpt><trkpt lat="44.6604498" lon="11.6291719"><ele>5.5</ele><time>2026-04-22T09:08:55.346Z</time></trkpt><trkpt lat="44.6604168" lon="11.6293381"><ele>5.25</ele><time>2026-04-22T09:08:57.341Z</time></trkpt><trkpt lat="44.6603856" lon="11.6295068"><ele>5.0</ele><time>2026-04-22T09:08:59.342Z</time></trkpt><trkpt lat="44.6603546" lon="11.6296756"><ele>5.0</ele><time>2026-04-22T09:09:01.346Z</time></trkpt><trkpt lat="44.6603239" lon="11.6298452"><ele>5.0</ele><time>2026-04-22T09:09:03.337Z</time></trkpt><trkpt lat="44.6602929" lon="11.6300141"><ele>5.0</ele><time>2026-04-22T09:09:05.344Z</time></trkpt><trkpt lat="44.6602611" lon="11.6301817"><ele>5.0</ele><time>2026-04-22T09:09:07.357Z</time></trkpt><trkpt lat="44.66023" lon="11.6303494"><ele>4.75</ele><time>2026-04-22T09:09:09.351Z</time></trkpt><trkpt lat="44.6601994" lon="11.6305154"><ele>4.5</ele><time>2026-04-22T09:09:11.342Z</time></trkpt><trkpt lat="44.6601679" lon="11.6306779"><ele>4.25</ele><time>2026-04-22T09:09:13.343Z</time></trkpt><trkpt lat="44.6601389" lon="11.6308389"><ele>4.0</ele><time>2026-04-22T09:09:15.354Z</time></trkpt><trkpt lat="44.6601098" lon="11.6309993"><ele>4.0</ele><time>2026-04-22T09:09:17.339Z</time></trkpt><trkpt lat="44.660081" lon="11.6311588"><ele>4.0</ele><time>2026-04-22T09:09:19.345Z</time></trkpt><trkpt lat="44.6600504" lon="11.6313193"><ele>4.0</ele><time>2026-04-22T09:09:21.336Z</time></trkpt><trkpt lat="44.6600194" lon="11.6314807"><ele>4.0</ele><time>2026-04-22T09:09:23.344Z</time></trkpt><trkpt lat="44.6599876" lon="11.6316418"><ele>4.0</ele><time>2026-04-22T09:09:25.352Z</time></trkpt><trkpt lat="44.6599586" lon="11.6318037"><ele>4.0</ele><time>2026-04-22T09:09:27.346Z</time></trkpt><trkpt lat="44.6599292" lon="11.6319632"><ele>4.0</ele><time>2026-04-22T09:09:29.33Z</time></trkpt><trkpt lat="44.6599009" lon="11.6321244"><ele>4.0</ele><time>2026-04-22T09:09:31.354Z</time></trkpt><trkpt lat="44.6598697" lon="11.6322833"><ele>4.25</ele><time>2026-04-22T09:09:33.341Z</time></trkpt><trkpt lat="44.6598395" lon="11.6324465"><ele>4.5</ele><time>2026-04-22T09:09:35.351Z</time></trkpt><trkpt lat="44.6598109" lon="11.6326087"><ele>4.75</ele><time>2026-04-22T09:09:37.342Z</time></trkpt><trkpt lat="44.6597819" lon="11.6327702"><ele>5.0</ele><time>2026-04-22T09:09:39.346Z</time></trkpt><trkpt lat="44.6597498" lon="11.6329331"><ele>5.75</ele><time>2026-04-22T09:09:41.347Z</time></trkpt><trkpt lat="44.6597204" lon="11.6330987"><ele>6.5</ele><time>2026-04-22T09:09:43.349Z</time></trkpt><trkpt lat="44.6596895" lon="11.6332604"><ele>7.25</ele><time>2026-04-22T09:09:45.351Z</time></trkpt><trkpt lat="44.6596601" lon="11.6334196"><ele>8.0</ele><time>2026-04-22T09:09:47.338Z</time></trkpt><trkpt lat="44.6596301" lon="11.6335773"><ele>8.5</ele><time>2026-04-22T09:09:49.336Z</time></trkpt><trkpt lat="44.6596005" lon="11.6337349"><ele>9.0</ele><time>2026-04-22T09:09:51.348Z</time></trkpt><trkpt lat="44.6595709" lon="11.6338935"><ele>9.5</ele><time>2026-04-22T09:09:53.348Z</time></trkpt><trkpt lat="44.6595394" lon="11.6340511"><ele>10.0</ele><time>2026-04-22T09:09:55.343Z</time></trkpt><trkpt lat="44.65951" lon="11.6342064"><ele>10.0</ele><time>2026-04-22T09:09:57.347Z</time></trkpt><trkpt lat="44.6594818" lon="11.6343635"><ele>10.0</ele><time>2026-04-22T09:09:59.352Z</time></trkpt><trkpt lat="44.6594533" lon="11.6345173"><ele>10.0</ele><time>2026-04-22T09:10:01.343Z</time></trkpt><trkpt lat="44.6594264" lon="11.6346721"><ele>10.0</ele><time>2026-04-22T09:10:03.333Z</time></trkpt><trkpt lat="44.6593957" lon="11.6348241"><ele>9.0</ele><time>2026-04-22T09:10:05.339Z</time></trkpt><trkpt lat="44.6593661" lon="11.6349798"><ele>8.0</ele><time>2026-04-22T09:10:07.345Z</time></trkpt><trkpt lat="44.6593377" lon="11.6351393"><ele>7.0</ele><time>2026-04-22T09:10:09.348Z</time></trkpt><trkpt lat="44.6593046" lon="11.6352994"><ele>6.0</ele><time>2026-04-22T09:10:11.349Z</time></trkpt><trkpt lat="44.6592719" lon="11.6354609"><ele>5.75</ele><time>2026-04-22T09:10:13.343Z</time></trkpt><trkpt lat="44.6592399" lon="11.6356218"><ele>5.5</ele><time>2026-04-22T09:10:15.337Z</time></trkpt><trkpt lat="44.6592101" lon="11.6357758"><ele>5.25</ele><time>2026-04-22T09:10:17.342Z</time></trkpt><trkpt lat="44.6591807" lon="11.6359301"><ele>5.0</ele><time>2026-04-22T09:10:19.341Z</time></trkpt><trkpt lat="44.6591509" lon="11.6360871"><ele>5.5</ele><time>2026-04-22T09:10:21.345Z</time></trkpt><trkpt lat="44.65912" lon="11.6362423"><ele>6.0</ele><time>2026-04-22T09:10:23.344Z</time></trkpt><trkpt lat="44.65909" lon="11.6363986"><ele>6.5</ele><time>2026-04-22T09:10:25.341Z</time></trkpt><trkpt lat="44.6590595" lon="11.6365569"><ele>7.0</ele><time>2026-04-22T09:10:27.342Z</time></trkpt><trkpt lat="44.6590288" lon="11.6367155"><ele>7.0</ele><time>2026-04-22T09:10:29.344Z</time></trkpt><trkpt lat="44.6589988" lon="11.6368734"><ele>7.0</ele><time>2026-04-22T09:10:31.347Z</time></trkpt><trkpt lat="44.6589655" lon="11.6370298"><ele>7.0</ele><time>2026-04-22T09:10:33.339Z</time></trkpt><trkpt lat="44.658938" lon="11.6371917"><ele>7.0</ele><time>2026-04-22T09:10:35.347Z</time></trkpt><trkpt lat="44.6589041" lon="11.6373548"><ele>7.25</ele><time>2026-04-22T09:10:37.345Z</time></trkpt><trkpt lat="44.6588707" lon="11.6375202"><ele>7.5</ele><time>2026-04-22T09:10:39.342Z</time></trkpt><trkpt lat="44.6588396" lon="11.6376827"><ele>7.75</ele><time>2026-04-22T09:10:41.339Z</time></trkpt><trkpt lat="44.658808" lon="11.6378427"><ele>8.0</ele><time>2026-04-22T09:10:43.34Z</time></trkpt><trkpt lat="44.6587734" lon="11.6379997"><ele>8.0</ele><time>2026-04-22T09:10:45.343Z</time></trkpt><trkpt lat="44.6587359" lon="11.6381542"><ele>8.0</ele><time>2026-04-22T09:10:47.348Z</time></trkpt><trkpt lat="44.6586929" lon="11.6383073"><ele>8.0</ele><time>2026-04-22T09:10:49.343Z</time></trkpt><trkpt lat="44.6586459" lon="11.6384613"><ele>8.0</ele><time>2026-04-22T09:10:51.344Z</time></trkpt><trkpt lat="44.6585941" lon="11.6386128"><ele>7.6000000000000005</ele><time>2026-04-22T09:10:53.338Z</time></trkpt><trkpt lat="44.658539" lon="11.6387624"><ele>7.200000000000001</ele><time>2026-04-22T09:10:55.343Z</time></trkpt><trkpt lat="44.6584809" lon="11.6389126"><ele>6.8</ele><time>2026-04-22T09:10:57.34Z</time></trkpt><trkpt lat="44.6584172" lon="11.639063"><ele>6.4</ele><time>2026-04-22T09:10:59.349Z</time></trkpt><trkpt lat="44.6583832" lon="11.6391387"><ele>6.0</ele><time>2026-04-22T09:11:00.343Z</time></trkpt><trkpt lat="44.6583476" lon="11.6392124"><ele>6.0</ele><time>2026-04-22T09:11:01.335Z</time></trkpt><trkpt lat="44.6583101" lon="11.6392845"><ele>6.0</ele><time>2026-04-22T09:11:02.337Z</time></trkpt><trkpt lat="44.6582726" lon="11.6393572"><ele>6.0</ele><time>2026-04-22T09:11:03.341Z</time></trkpt><trkpt lat="44.6582354" lon="11.6394297"><ele>6.0</ele><time>2026-04-22T09:11:04.337Z</time></trkpt><trkpt lat="44.6581581" lon="11.6395673"><ele>6.0</ele><time>2026-04-22T09:11:06.328Z</time></trkpt><trkpt lat="44.6580749" lon="11.6396988"><ele>6.0</ele><time>2026-04-22T09:11:08.338Z</time></trkpt><trkpt lat="44.6580325" lon="11.6397644"><ele>6.0</ele><time>2026-04-22T09:11:09.341Z</time></trkpt><trkpt lat="44.6579481" lon="11.6398895"><ele>6.0</ele><time>2026-04-22T09:11:11.34Z</time></trkpt><trkpt lat="44.6578627" lon="11.6400115"><ele>6.0</ele><time>2026-04-22T09:11:13.353Z</time></trkpt><trkpt lat="44.657777" lon="11.6401353"><ele>6.0</ele><time>2026-04-22T09:11:15.335Z</time></trkpt><trkpt lat="44.6576873" lon="11.6402551"><ele>6.0</ele><time>2026-04-22T09:11:17.334Z</time></trkpt><trkpt lat="44.6575973" lon="11.6403738"><ele>6.0</ele><time>2026-04-22T09:11:19.343Z</time></trkpt><trkpt lat="44.6575489" lon="11.6404341"><ele>6.0</ele><time>2026-04-22T09:11:20.324Z</time></trkpt><trkpt lat="44.6575001" lon="11.6404954"><ele>6.0</ele><time>2026-04-22T09:11:21.338Z</time></trkpt><trkpt lat="44.6574053" lon="11.6406085"><ele>6.0</ele><time>2026-04-22T09:11:23.332Z</time></trkpt><trkpt lat="44.6573088" lon="11.6407198"><ele>6.0</ele><time>2026-04-22T09:11:25.333Z</time></trkpt><trkpt lat="44.657212" lon="11.640828"><ele>6.0</ele><time>2026-04-22T09:11:27.342Z</time></trkpt><trkpt lat="44.6571126" lon="11.6409307"><ele>6.0</ele><time>2026-04-22T09:11:29.331Z</time></trkpt><trkpt lat="44.6570126" lon="11.6410332"><ele>6.0</ele><time>2026-04-22T09:11:31.338Z</time></trkpt><trkpt lat="44.6569126" lon="11.6411393"><ele>6.4</ele><time>2026-04-22T09:11:33.334Z</time></trkpt><trkpt lat="44.6568615" lon="11.641192"><ele>6.8</ele><time>2026-04-22T09:11:34.343Z</time></trkpt><trkpt lat="44.6567608" lon="11.6412975"><ele>7.200000000000001</ele><time>2026-04-22T09:11:36.349Z</time></trkpt><trkpt lat="44.6566594" lon="11.6414008"><ele>7.6000000000000005</ele><time>2026-04-22T09:11:38.34Z</time></trkpt><trkpt lat="44.6565584" lon="11.6415046"><ele>8.0</ele><time>2026-04-22T09:11:40.336Z</time></trkpt><trkpt lat="44.6564598" lon="11.6416058"><ele>8.0</ele><time>2026-04-22T09:11:42.34Z</time></trkpt><trkpt lat="44.6563633" lon="11.6417056"><ele>8.0</ele><time>2026-04-22T09:11:44.34Z</time></trkpt><trkpt lat="44.6562666" lon="11.6418068"><ele>8.0</ele><time>2026-04-22T09:11:46.338Z</time></trkpt><trkpt lat="44.6561693" lon="11.6419046"><ele>8.0</ele><time>2026-04-22T09:11:48.338Z</time></trkpt><trkpt lat="44.6560716" lon="11.6420048"><ele>8.0</ele><time>2026-04-22T09:11:50.333Z</time></trkpt><trkpt lat="44.6559734" lon="11.6421049"><ele>8.0</ele><time>2026-04-22T09:11:52.343Z</time></trkpt><trkpt lat="44.6558748" lon="11.6422044"><ele>8.0</ele><time>2026-04-22T09:11:54.353Z</time></trkpt><trkpt lat="44.6557769" lon="11.6423054"><ele>8.0</ele><time>2026-04-22T09:11:56.343Z</time></trkpt><trkpt lat="44.6556799" lon="11.6424073"><ele>8.0</ele><time>2026-04-22T09:11:58.342Z</time></trkpt><trkpt lat="44.6555801" lon="11.6425038"><ele>8.0</ele><time>2026-04-22T09:12:00.338Z</time></trkpt><trkpt lat="44.6554806" lon="11.6426031"><ele>8.0</ele><time>2026-04-22T09:12:02.346Z</time></trkpt><trkpt lat="44.6553808" lon="11.6427032"><ele>8.0</ele><time>2026-04-22T09:12:04.34Z</time></trkpt><trkpt lat="44.6552806" lon="11.6428018"><ele>7.75</ele><time>2026-04-22T09:12:06.357Z</time></trkpt><trkpt lat="44.6551864" lon="11.6429039"><ele>7.5</ele><time>2026-04-22T09:12:08.342Z</time></trkpt><trkpt lat="44.6550959" lon="11.6430088"><ele>7.25</ele><time>2026-04-22T09:12:10.353Z</time></trkpt><trkpt lat="44.6550403" lon="11.643148"><ele>7.0</ele><time>2026-04-22T09:12:12.354Z</time></trkpt><trkpt lat="44.6550596" lon="11.6433095"><ele>7.0</ele><time>2026-04-22T09:12:14.344Z</time></trkpt><trkpt lat="44.6551038" lon="11.6434374"><ele>6.999999999999999</ele><time>2026-04-22T09:12:16.343Z</time></trkpt><trkpt lat="44.6551699" lon="11.6435605"><ele>6.999999999999999</ele><time>2026-04-22T09:12:18.357Z</time></trkpt><trkpt lat="44.6552424" lon="11.6436753"><ele>7.0</ele><time>2026-04-22T09:12:20.35Z</time></trkpt><trkpt lat="44.6553463" lon="11.6437242"><ele>7.0</ele><time>2026-04-22T09:12:22.338Z</time></trkpt><trkpt lat="44.6554544" lon="11.6436738"><ele>7.75</ele><time>2026-04-22T09:12:24.343Z</time></trkpt><trkpt lat="44.6555451" lon="11.643566"><ele>8.5</ele><time>2026-04-22T09:12:26.343Z</time></trkpt><trkpt lat="44.6556411" lon="11.6434616"><ele>9.25</ele><time>2026-04-22T09:12:28.341Z</time></trkpt><trkpt lat="44.6557392" lon="11.6433582"><ele>10.0</ele><time>2026-04-22T09:12:30.349Z</time></trkpt><trkpt lat="44.6558354" lon="11.6432475"><ele>10.0</ele><time>2026-04-22T09:12:32.338Z</time></trkpt><trkpt lat="44.6559344" lon="11.643142"><ele>10.0</ele><time>2026-04-22T09:12:34.347Z</time></trkpt><trkpt lat="44.6560354" lon="11.6430409"><ele>10.0</ele><time>2026-04-22T09:12:36.331Z</time></trkpt><trkpt lat="44.6561361" lon="11.6429353"><ele>10.0</ele><time>2026-04-22T09:12:38.357Z</time></trkpt><trkpt lat="44.6561871" lon="11.6428824"><ele>10.0</ele><time>2026-04-22T09:12:39.344Z</time></trkpt><trkpt lat="44.6562399" lon="11.6428285"><ele>9.714285714285714</ele><time>2026-04-22T09:12:40.348Z</time></trkpt><trkpt lat="44.6562921" lon="11.6427716"><ele>9.428571428571429</ele><time>2026-04-22T09:12:41.351Z</time></trkpt><trkpt lat="44.656343" lon="11.6427128"><ele>9.142857142857142</ele><time>2026-04-22T09:12:42.339Z</time></trkpt><trkpt lat="44.6563943" lon="11.6426558"><ele>8.857142857142858</ele><time>2026-04-22T09:12:43.35Z</time></trkpt><trkpt lat="44.6564453" lon="11.6425974"><ele>8.571428571428571</ele><time>2026-04-22T09:12:44.34Z</time></trkpt><trkpt lat="44.6564989" lon="11.6425408"><ele>8.285714285714285</ele><time>2026-04-22T09:12:45.35Z</time></trkpt><trkpt lat="44.6565517" lon="11.6424846"><ele>8.0</ele><time>2026-04-22T09:12:46.35Z</time></trkpt><trkpt lat="44.6566028" lon="11.6424306"><ele>8.0</ele><time>2026-04-22T09:12:47.351Z</time></trkpt><trkpt lat="44.6566524" lon="11.6423756"><ele>8.0</ele><time>2026-04-22T09:12:48.343Z</time></trkpt><trkpt lat="44.6567494" lon="11.6422707"><ele>8.0</ele><time>2026-04-22T09:12:50.354Z</time></trkpt><trkpt lat="44.656844" lon="11.6421757"><ele>8.0</ele><time>2026-04-22T09:12:52.346Z</time></trkpt><trkpt lat="44.6569449" lon="11.6421151"><ele>8.0</ele><time>2026-04-22T09:12:54.348Z</time></trkpt><trkpt lat="44.6570561" lon="11.642106"><ele>7.75</ele><time>2026-04-22T09:12:56.349Z</time></trkpt><trkpt lat="44.6571616" lon="11.6421673"><ele>7.5</ele><time>2026-04-22T09:12:58.344Z</time></trkpt><trkpt lat="44.6572662" lon="11.6422398"><ele>7.25</ele><time>2026-04-22T09:13:00.35Z</time></trkpt><trkpt lat="44.6573737" lon="11.6423042"><ele>7.0</ele><time>2026-04-22T09:13:02.344Z</time></trkpt><trkpt lat="44.6574802" lon="11.6423767"><ele>7.0</ele><time>2026-04-22T09:13:04.338Z</time></trkpt><trkpt lat="44.6575886" lon="11.6424566"><ele>7.0</ele><time>2026-04-22T09:13:06.342Z</time></trkpt><trkpt lat="44.6576943" lon="11.6425316"><ele>7.0</ele><time>2026-04-22T09:13:08.35Z</time></trkpt><trkpt lat="44.6577982" lon="11.6426027"><ele>7.0</ele><time>2026-04-22T09:13:10.337Z</time></trkpt><trkpt lat="44.6579018" lon="11.6426696"><ele>7.0</ele><time>2026-04-22T09:13:12.349Z</time></trkpt><trkpt lat="44.6580009" lon="11.6427305"><ele>6.999999999999999</ele><time>2026-04-22T09:13:14.345Z</time></trkpt><trkpt lat="44.6580999" lon="11.6427894"><ele>6.999999999999999</ele><time>2026-04-22T09:13:16.349Z</time></trkpt><trkpt lat="44.6581951" lon="11.6428456"><ele>7.0</ele><time>2026-04-22T09:13:18.347Z</time></trkpt><trkpt lat="44.6582872" lon="11.6428989"><ele>7.0</ele><time>2026-04-22T09:13:20.351Z</time></trkpt><trkpt lat="44.6583772" lon="11.6429468"><ele>7.500000000000001</ele><time>2026-04-22T09:13:22.352Z</time></trkpt><trkpt lat="44.6584624" lon="11.6430008"><ele>8.0</ele><time>2026-04-22T09:13:24.342Z</time></trkpt><trkpt lat="44.6585455" lon="11.6430553"><ele>8.5</ele><time>2026-04-22T09:13:26.339Z</time></trkpt><trkpt lat="44.6586263" lon="11.6431051"><ele>9.0</ele><time>2026-04-22T09:13:28.35Z</time></trkpt><trkpt lat="44.6587033" lon="11.6431534"><ele>9.5</ele><time>2026-04-22T09:13:30.351Z</time></trkpt><trkpt lat="44.6587802" lon="11.6432057"><ele>10.0</ele><time>2026-04-22T09:13:32.344Z</time></trkpt><trkpt lat="44.6588566" lon="11.6432628"><ele>10.0</ele><time>2026-04-22T09:13:34.344Z</time></trkpt><trkpt lat="44.658935" lon="11.643327"><ele>10.0</ele><time>2026-04-22T09:13:36.339Z</time></trkpt><trkpt lat="44.6590078" lon="11.6433925"><ele>10.0</ele><time>2026-04-22T09:13:38.349Z</time></trkpt><trkpt lat="44.6590683" lon="11.6434747"><ele>10.0</ele><time>2026-04-22T09:13:40.352Z</time></trkpt><trkpt lat="44.6591291" lon="11.6435657"><ele>10.0</ele><time>2026-04-22T09:13:42.336Z</time></trkpt><trkpt lat="44.6591928" lon="11.6436578"><ele>10.0</ele><time>2026-04-22T09:13:44.348Z</time></trkpt><trkpt lat="44.659256" lon="11.6437569"><ele>10.0</ele><time>2026-04-22T09:13:46.341Z</time></trkpt><trkpt lat="44.6593231" lon="11.6438558"><ele>10.0</ele><time>2026-04-22T09:13:48.36Z</time></trkpt><trkpt lat="44.6593922" lon="11.6439596"><ele>10.0</ele><time>2026-04-22T09:13:50.343Z</time></trkpt><trkpt lat="44.6594621" lon="11.6440659"><ele>10.0</ele><time>2026-04-22T09:13:52.34Z</time></trkpt><trkpt lat="44.659536" lon="11.644168"><ele>10.0</ele><time>2026-04-22T09:13:54.348Z</time></trkpt><trkpt lat="44.6596175" lon="11.6442452"><ele>10.333333333333334</ele><time>2026-04-22T09:13:56.336Z</time></trkpt><trkpt lat="44.6597242" lon="11.6442734"><ele>10.666666666666668</ele><time>2026-04-22T09:13:58.34Z</time></trkpt><trkpt lat="44.6597879" lon="11.6442563"><ele>11.0</ele><time>2026-04-22T09:13:59.35Z</time></trkpt><trkpt lat="44.6598532" lon="11.6442297"><ele>11.333333333333334</ele><time>2026-04-22T09:14:00.344Z</time></trkpt><trkpt lat="44.6599222" lon="11.6441968"><ele>11.666666666666666</ele><time>2026-04-22T09:14:01.339Z</time></trkpt><trkpt lat="44.6599989" lon="11.6441775"><ele>12.0</ele><time>2026-04-22T09:14:02.344Z</time></trkpt><trkpt lat="44.6600802" lon="11.644178"><ele>12.0</ele><time>2026-04-22T09:14:03.341Z</time></trkpt><trkpt lat="44.6601626" lon="11.6441979"><ele>12.0</ele><time>2026-04-22T09:14:04.344Z</time></trkpt><trkpt lat="44.6602448" lon="11.6442192"><ele>12.0</ele><time>2026-04-22T09:14:05.34Z</time></trkpt><trkpt lat="44.6603238" lon="11.6442627"><ele>12.0</ele><time>2026-04-22T09:14:06.348Z</time></trkpt><trkpt lat="44.6604026" lon="11.6443064"><ele>12.0</ele><time>2026-04-22T09:14:07.338Z</time></trkpt><trkpt lat="44.6604827" lon="11.6443543"><ele>12.0</ele><time>2026-04-22T09:14:08.345Z</time></trkpt><trkpt lat="44.660562" lon="11.644406"><ele>11.6</ele><time>2026-04-22T09:14:09.338Z</time></trkpt><trkpt lat="44.6606358" lon="11.6444543"><ele>11.2</ele><time>2026-04-22T09:14:10.336Z</time></trkpt><trkpt lat="44.6607042" lon="11.6445019"><ele>10.8</ele><time>2026-04-22T09:14:11.344Z</time></trkpt><trkpt lat="44.6607856" lon="11.6445912"><ele>10.4</ele><time>2026-04-22T09:14:13.332Z</time></trkpt><trkpt lat="44.6608065" lon="11.6447245"><ele>10.0</ele><time>2026-04-22T09:14:15.343Z</time></trkpt><trkpt lat="44.6607458" lon="11.6448333"><ele>9.5</ele><time>2026-04-22T09:14:17.361Z</time></trkpt><trkpt lat="44.6606599" lon="11.6449269"><ele>9.0</ele><time>2026-04-22T09:14:19.343Z</time></trkpt><trkpt lat="44.6605687" lon="11.645026"><ele>8.5</ele><time>2026-04-22T09:14:21.346Z</time></trkpt><trkpt lat="44.6604715" lon="11.6451248"><ele>8.0</ele><time>2026-04-22T09:14:23.343Z</time></trkpt><trkpt lat="44.660374" lon="11.6452234"><ele>8.0</ele><time>2026-04-22T09:14:25.346Z</time></trkpt><trkpt lat="44.6602757" lon="11.6453231"><ele>8.0</ele><time>2026-04-22T09:14:27.346Z</time></trkpt><trkpt lat="44.6601744" lon="11.6454182"><ele>8.0</ele><time>2026-04-22T09:14:29.351Z</time></trkpt><trkpt lat="44.6600749" lon="11.645518"><ele>8.0</ele><time>2026-04-22T09:14:31.347Z</time></trkpt><trkpt lat="44.6599759" lon="11.6456173"><ele>8.0</ele><time>2026-04-22T09:14:33.349Z</time></trkpt><trkpt lat="44.6598765" lon="11.6457168"><ele>8.0</ele><time>2026-04-22T09:14:35.348Z</time></trkpt><trkpt lat="44.6597764" lon="11.6458184"><ele>8.0</ele><time>2026-04-22T09:14:37.348Z</time></trkpt><trkpt lat="44.659675" lon="11.6459193"><ele>8.0</ele><time>2026-04-22T09:14:39.353Z</time></trkpt><trkpt lat="44.659623" lon="11.6459709"><ele>8.0</ele><time>2026-04-22T09:14:40.342Z</time></trkpt><trkpt lat="44.6595716" lon="11.6460237"><ele>8.0</ele><time>2026-04-22T09:14:41.348Z</time></trkpt><trkpt lat="44.6594714" lon="11.6461279"><ele>7.999999999999999</ele><time>2026-04-22T09:14:43.336Z</time></trkpt><trkpt lat="44.6594199" lon="11.6461798"><ele>8.0</ele><time>2026-04-22T09:14:44.341Z</time></trkpt><trkpt lat="44.659369" lon="11.6462321"><ele>8.0</ele><time>2026-04-22T09:14:45.348Z</time></trkpt><trkpt lat="44.6593179" lon="11.6462862"><ele>7.999999999999999</ele><time>2026-04-22T09:14:46.342Z</time></trkpt><trkpt lat="44.6592663" lon="11.6463377"><ele>8.0</ele><time>2026-04-22T09:14:47.365Z</time></trkpt><trkpt lat="44.6592143" lon="11.6463902"><ele>8.0</ele><time>2026-04-22T09:14:48.337Z</time></trkpt><trkpt lat="44.6591624" lon="11.6464422"><ele>8.142857142857142</ele><time>2026-04-22T09:14:49.346Z</time></trkpt><trkpt lat="44.6591103" lon="11.6464948"><ele>8.285714285714285</ele><time>2026-04-22T09:14:50.349Z</time></trkpt><trkpt lat="44.6590587" lon="11.6465483"><ele>8.428571428571429</ele><time>2026-04-22T09:14:51.34Z</time></trkpt><trkpt lat="44.6590074" lon="11.6466012"><ele>8.571428571428571</ele><time>2026-04-22T09:14:52.338Z</time></trkpt><trkpt lat="44.6589041" lon="11.6467022"><ele>8.714285714285715</ele><time>2026-04-22T09:14:54.355Z</time></trkpt><trkpt lat="44.6588523" lon="11.6467526"><ele>8.857142857142858</ele><time>2026-04-22T09:14:55.344Z</time></trkpt><trkpt lat="44.6588004" lon="11.6468058"><ele>9.0</ele><time>2026-04-22T09:14:56.342Z</time></trkpt><trkpt lat="44.6587493" lon="11.6468601"><ele>8.714285714285715</ele><time>2026-04-22T09:14:57.348Z</time></trkpt><trkpt lat="44.6586471" lon="11.646963"><ele>8.428571428571429</ele><time>2026-04-22T09:14:59.344Z</time></trkpt><trkpt lat="44.6585953" lon="11.6470157"><ele>8.142857142857142</ele><time>2026-04-22T09:15:00.346Z</time></trkpt><trkpt lat="44.6585435" lon="11.6470672"><ele>7.857142857142858</ele><time>2026-04-22T09:15:01.346Z</time></trkpt><trkpt lat="44.6584916" lon="11.6471198"><ele>7.571428571428571</ele><time>2026-04-22T09:15:02.349Z</time></trkpt><trkpt lat="44.6584399" lon="11.647172"><ele>7.285714285714286</ele><time>2026-04-22T09:15:03.348Z</time></trkpt><trkpt lat="44.6583889" lon="11.6472246"><ele>7.0</ele><time>2026-04-22T09:15:04.345Z</time></trkpt><trkpt lat="44.6582873" lon="11.6473263"><ele>7.0</ele><time>2026-04-22T09:15:06.341Z</time></trkpt><trkpt lat="44.658187" lon="11.6474279"><ele>6.999999999999999</ele><time>2026-04-22T09:15:08.35Z</time></trkpt><trkpt lat="44.6580857" lon="11.647532"><ele>6.999999999999999</ele><time>2026-04-22T09:15:10.348Z</time></trkpt><trkpt lat="44.6579836" lon="11.6476331"><ele>7.0</ele><time>2026-04-22T09:15:12.352Z</time></trkpt><trkpt lat="44.6579321" lon="11.6476852"><ele>7.0</ele><time>2026-04-22T09:15:13.356Z</time></trkpt><trkpt lat="44.6578805" lon="11.6477363"><ele>7.0</ele><time>2026-04-22T09:15:14.341Z</time></trkpt><trkpt lat="44.6578288" lon="11.647788"><ele>6.999999999999999</ele><time>2026-04-22T09:15:15.348Z</time></trkpt><trkpt lat="44.6577763" lon="11.6478385"><ele>6.999999999999999</ele><time>2026-04-22T09:15:16.34Z</time></trkpt><trkpt lat="44.6576771" lon="11.6479416"><ele>7.0</ele><time>2026-04-22T09:15:18.352Z</time></trkpt><trkpt lat="44.657577" lon="11.6480386"><ele>7.0</ele><time>2026-04-22T09:15:20.349Z</time></trkpt><trkpt lat="44.6574792" lon="11.6481394"><ele>8.0</ele><time>2026-04-22T09:15:22.35Z</time></trkpt><trkpt lat="44.6573802" lon="11.6482393"><ele>9.0</ele><time>2026-04-22T09:15:24.343Z</time></trkpt><trkpt lat="44.6572817" lon="11.6483405"><ele>10.0</ele><time>2026-04-22T09:15:26.353Z</time></trkpt><trkpt lat="44.6571855" lon="11.6484431"><ele>11.0</ele><time>2026-04-22T09:15:28.343Z</time></trkpt><trkpt lat="44.6570907" lon="11.6485461"><ele>10.75</ele><time>2026-04-22T09:15:30.34Z</time></trkpt><trkpt lat="44.656996" lon="11.6486485"><ele>10.5</ele><time>2026-04-22T09:15:32.351Z</time></trkpt><trkpt lat="44.6569095" lon="11.6487623"><ele>10.25</ele><time>2026-04-22T09:15:34.343Z</time></trkpt><trkpt lat="44.6568317" lon="11.6488868"><ele>10.0</ele><time>2026-04-22T09:15:36.342Z</time></trkpt><trkpt lat="44.6567581" lon="11.6490187"><ele>10.0</ele><time>2026-04-22T09:15:38.355Z</time></trkpt><trkpt lat="44.6566913" lon="11.6491598"><ele>10.0</ele><time>2026-04-22T09:15:40.344Z</time></trkpt><trkpt lat="44.6566136" lon="11.6492871"><ele>10.0</ele><time>2026-04-22T09:15:42.352Z</time></trkpt><trkpt lat="44.6565394" lon="11.6494206"><ele>10.0</ele><time>2026-04-22T09:15:44.339Z</time></trkpt><trkpt lat="44.6564652" lon="11.6495599"><ele>9.6</ele><time>2026-04-22T09:15:46.345Z</time></trkpt><trkpt lat="44.6563893" lon="11.6497006"><ele>9.2</ele><time>2026-04-22T09:15:48.344Z</time></trkpt><trkpt lat="44.6563514" lon="11.649772"><ele>8.8</ele><time>2026-04-22T09:15:49.338Z</time></trkpt><trkpt lat="44.6563131" lon="11.6498424"><ele>8.4</ele><time>2026-04-22T09:15:50.342Z</time></trkpt><trkpt lat="44.6562393" lon="11.6499835"><ele>8.0</ele><time>2026-04-22T09:15:52.343Z</time></trkpt><trkpt lat="44.6561684" lon="11.6501272"><ele>8.0</ele><time>2026-04-22T09:15:54.345Z</time></trkpt><trkpt lat="44.6560978" lon="11.6502685"><ele>8.0</ele><time>2026-04-22T09:15:56.346Z</time></trkpt><trkpt lat="44.6560237" lon="11.650405"><ele>8.0</ele><time>2026-04-22T09:15:58.353Z</time></trkpt><trkpt lat="44.6559465" lon="11.6505388"><ele>8.0</ele><time>2026-04-22T09:16:00.351Z</time></trkpt><trkpt lat="44.6558663" lon="11.6506626"><ele>8.0</ele><time>2026-04-22T09:16:02.34Z</time></trkpt><trkpt lat="44.6557918" lon="11.6507908"><ele>8.0</ele><time>2026-04-22T09:16:04.344Z</time></trkpt><trkpt lat="44.6557174" lon="11.6509254"><ele>8.0</ele><time>2026-04-22T09:16:06.339Z</time></trkpt><trkpt lat="44.6556435" lon="11.6510658"><ele>8.0</ele><time>2026-04-22T09:16:08.337Z</time></trkpt><trkpt lat="44.6555669" lon="11.6512006"><ele>7.75</ele><time>2026-04-22T09:16:10.343Z</time></trkpt><trkpt lat="44.6554939" lon="11.6513334"><ele>7.5</ele><time>2026-04-22T09:16:12.359Z</time></trkpt><trkpt lat="44.6554232" lon="11.6514741"><ele>7.25</ele><time>2026-04-22T09:16:14.343Z</time></trkpt><trkpt lat="44.6553508" lon="11.6516149"><ele>7.0</ele><time>2026-04-22T09:16:16.343Z</time></trkpt><trkpt lat="44.6552797" lon="11.6517622"><ele>7.285714285714286</ele><time>2026-04-22T09:16:18.348Z</time></trkpt><trkpt lat="44.6552447" lon="11.6518408"><ele>7.571428571428571</ele><time>2026-04-22T09:16:19.352Z</time></trkpt><trkpt lat="44.6552084" lon="11.6519209"><ele>7.857142857142858</ele><time>2026-04-22T09:16:20.357Z</time></trkpt><trkpt lat="44.6551722" lon="11.6520032"><ele>8.142857142857142</ele><time>2026-04-22T09:16:21.345Z</time></trkpt><trkpt lat="44.655135" lon="11.6520861"><ele>8.428571428571429</ele><time>2026-04-22T09:16:22.344Z</time></trkpt><trkpt lat="44.6550963" lon="11.6521684"><ele>8.714285714285715</ele><time>2026-04-22T09:16:23.332Z</time></trkpt><trkpt lat="44.6550581" lon="11.6522532"><ele>9.0</ele><time>2026-04-22T09:16:24.348Z</time></trkpt><trkpt lat="44.6550211" lon="11.6523403"><ele>9.142857142857144</ele><time>2026-04-22T09:16:25.355Z</time></trkpt><trkpt lat="44.6549837" lon="11.6524264"><ele>9.285714285714286</ele><time>2026-04-22T09:16:26.341Z</time></trkpt><trkpt lat="44.6549461" lon="11.6525128"><ele>9.428571428571429</ele><time>2026-04-22T09:16:27.346Z</time></trkpt><trkpt lat="44.6549076" lon="11.6525979"><ele>9.571428571428573</ele><time>2026-04-22T09:16:28.355Z</time></trkpt><trkpt lat="44.6548684" lon="11.6526838"><ele>9.714285714285715</ele><time>2026-04-22T09:16:29.348Z</time></trkpt><trkpt lat="44.6548298" lon="11.6527695"><ele>9.857142857142858</ele><time>2026-04-22T09:16:30.355Z</time></trkpt><trkpt lat="44.6547917" lon="11.6528555"><ele>10.0</ele><time>2026-04-22T09:16:31.344Z</time></trkpt><trkpt lat="44.6547515" lon="11.6529355"><ele>10.0</ele><time>2026-04-22T09:16:32.344Z</time></trkpt><trkpt lat="44.6547093" lon="11.6530103"><ele>10.0</ele><time>2026-04-22T09:16:33.342Z</time></trkpt><trkpt lat="44.6546648" lon="11.6530792"><ele>10.0</ele><time>2026-04-22T09:16:34.341Z</time></trkpt><trkpt lat="44.6545802" lon="11.6532063"><ele>10.0</ele><time>2026-04-22T09:16:36.338Z</time></trkpt><trkpt lat="44.6544999" lon="11.6533229"><ele>10.0</ele><time>2026-04-22T09:16:38.34Z</time></trkpt><trkpt lat="44.6544228" lon="11.6534304"><ele>9.8</ele><time>2026-04-22T09:16:40.344Z</time></trkpt><trkpt lat="44.6543493" lon="11.6535373"><ele>9.6</ele><time>2026-04-22T09:16:42.342Z</time></trkpt><trkpt lat="44.6542738" lon="11.6536397"><ele>9.4</ele><time>2026-04-22T09:16:44.341Z</time></trkpt><trkpt lat="44.654201" lon="11.6537417"><ele>9.2</ele><time>2026-04-22T09:16:46.343Z</time></trkpt><trkpt lat="44.6541293" lon="11.6538444"><ele>9.0</ele><time>2026-04-22T09:16:48.346Z</time></trkpt><trkpt lat="44.6540545" lon="11.6539435"><ele>8.8</ele><time>2026-04-22T09:16:50.347Z</time></trkpt><trkpt lat="44.6539802" lon="11.6540414"><ele>8.600000000000001</ele><time>2026-04-22T09:16:52.353Z</time></trkpt><trkpt lat="44.6539041" lon="11.6541393"><ele>8.4</ele><time>2026-04-22T09:16:54.353Z</time></trkpt><trkpt lat="44.6538268" lon="11.6542371"><ele>8.200000000000001</ele><time>2026-04-22T09:16:56.342Z</time></trkpt><trkpt lat="44.6537462" lon="11.6543283"><ele>8.0</ele><time>2026-04-22T09:16:58.345Z</time></trkpt><trkpt lat="44.6536658" lon="11.6544152"><ele>7.800000000000001</ele><time>2026-04-22T09:17:00.342Z</time></trkpt><trkpt lat="44.6535873" lon="11.6545019"><ele>7.6000000000000005</ele><time>2026-04-22T09:17:02.349Z</time></trkpt><trkpt lat="44.653512" lon="11.6545947"><ele>7.3999999999999995</ele><time>2026-04-22T09:17:04.354Z</time></trkpt><trkpt lat="44.653441" lon="11.6547027"><ele>7.199999999999999</ele><time>2026-04-22T09:17:06.351Z</time></trkpt><trkpt lat="44.6533664" lon="11.6548135"><ele>7.0</ele><time>2026-04-22T09:17:08.34Z</time></trkpt><trkpt lat="44.6532924" lon="11.6549353"><ele>7.0</ele><time>2026-04-22T09:17:10.348Z</time></trkpt><trkpt lat="44.6532166" lon="11.6550555"><ele>7.0</ele><time>2026-04-22T09:17:12.35Z</time></trkpt><trkpt lat="44.6531434" lon="11.6551762"><ele>7.0</ele><time>2026-04-22T09:17:14.337Z</time></trkpt><trkpt lat="44.6530694" lon="11.655297"><ele>7.0</ele><time>2026-04-22T09:17:16.353Z</time></trkpt><trkpt lat="44.6529957" lon="11.6554201"><ele>6.75</ele><time>2026-04-22T09:17:18.337Z</time></trkpt><trkpt lat="44.6529199" lon="11.6555432"><ele>6.5</ele><time>2026-04-22T09:17:20.353Z</time></trkpt><trkpt lat="44.6528452" lon="11.6556658"><ele>6.25</ele><time>2026-04-22T09:17:22.345Z</time></trkpt><trkpt lat="44.652772" lon="11.6557888"><ele>6.0</ele><time>2026-04-22T09:17:24.345Z</time></trkpt><trkpt lat="44.6526964" lon="11.6559112"><ele>6.5</ele><time>2026-04-22T09:17:26.355Z</time></trkpt><trkpt lat="44.6526209" lon="11.6560337"><ele>7.0</ele><time>2026-04-22T09:17:28.352Z</time></trkpt><trkpt lat="44.6525473" lon="11.6561565"><ele>7.5</ele><time>2026-04-22T09:17:30.337Z</time></trkpt><trkpt lat="44.6524726" lon="11.656278"><ele>8.0</ele><time>2026-04-22T09:17:32.339Z</time></trkpt><trkpt lat="44.6523984" lon="11.6564006"><ele>8.0</ele><time>2026-04-22T09:17:34.344Z</time></trkpt><trkpt lat="44.6523234" lon="11.6565239"><ele>8.0</ele><time>2026-04-22T09:17:36.344Z</time></trkpt><trkpt lat="44.6522471" lon="11.656648"><ele>8.0</ele><time>2026-04-22T09:17:38.342Z</time></trkpt><trkpt lat="44.6521707" lon="11.6567736"><ele>8.0</ele><time>2026-04-22T09:17:40.351Z</time></trkpt><trkpt lat="44.6520943" lon="11.6568987"><ele>7.75</ele><time>2026-04-22T09:17:42.345Z</time></trkpt><trkpt lat="44.6520183" lon="11.6570232"><ele>7.5</ele><time>2026-04-22T09:17:44.335Z</time></trkpt><trkpt lat="44.6519433" lon="11.6571478"><ele>7.25</ele><time>2026-04-22T09:17:46.342Z</time></trkpt><trkpt lat="44.6518673" lon="11.6572716"><ele>7.0</ele><time>2026-04-22T09:17:48.346Z</time></trkpt><trkpt lat="44.6517934" lon="11.6573945"><ele>7.5</ele><time>2026-04-22T09:17:50.341Z</time></trkpt><trkpt lat="44.6517202" lon="11.6575174"><ele>8.0</ele><time>2026-04-22T09:17:52.344Z</time></trkpt><trkpt lat="44.6516466" lon="11.6576385"><ele>8.5</ele><time>2026-04-22T09:17:54.334Z</time></trkpt><trkpt lat="44.6515705" lon="11.6577599"><ele>9.0</ele><time>2026-04-22T09:17:56.347Z</time></trkpt><trkpt lat="44.651495" lon="11.6578831"><ele>9.0</ele><time>2026-04-22T09:17:58.344Z</time></trkpt><trkpt lat="44.6514199" lon="11.6580079"><ele>9.0</ele><time>2026-04-22T09:18:00.339Z</time></trkpt><trkpt lat="44.6513461" lon="11.658131"><ele>9.0</ele><time>2026-04-22T09:18:02.336Z</time></trkpt><trkpt lat="44.6512727" lon="11.658253"><ele>9.0</ele><time>2026-04-22T09:18:04.346Z</time></trkpt><trkpt lat="44.6511997" lon="11.658373"><ele>9.0</ele><time>2026-04-22T09:18:06.353Z</time></trkpt><trkpt lat="44.6511268" lon="11.6584937"><ele>9.0</ele><time>2026-04-22T09:18:08.341Z</time></trkpt><trkpt lat="44.6510533" lon="11.6586146"><ele>9.0</ele><time>2026-04-22T09:18:10.338Z</time></trkpt><trkpt lat="44.6509806" lon="11.6587371"><ele>9.0</ele><time>2026-04-22T09:18:12.344Z</time></trkpt><trkpt lat="44.6509078" lon="11.6588573"><ele>8.75</ele><time>2026-04-22T09:18:14.35Z</time></trkpt><trkpt lat="44.6508337" lon="11.6589782"><ele>8.5</ele><time>2026-04-22T09:18:16.343Z</time></trkpt><trkpt lat="44.6507609" lon="11.6591003"><ele>8.25</ele><time>2026-04-22T09:18:18.343Z</time></trkpt><trkpt lat="44.6506865" lon="11.6592236"><ele>8.0</ele><time>2026-04-22T09:18:20.343Z</time></trkpt><trkpt lat="44.6506121" lon="11.659348"><ele>8.75</ele><time>2026-04-22T09:18:22.342Z</time></trkpt><trkpt lat="44.6505362" lon="11.6594736"><ele>9.5</ele><time>2026-04-22T09:18:24.348Z</time></trkpt><trkpt lat="44.6504589" lon="11.6595995"><ele>10.25</ele><time>2026-04-22T09:18:26.335Z</time></trkpt><trkpt lat="44.6503829" lon="11.6597263"><ele>11.0</ele><time>2026-04-22T09:18:28.334Z</time></trkpt><trkpt lat="44.6503068" lon="11.6598501"><ele>11.0</ele><time>2026-04-22T09:18:30.339Z</time></trkpt><trkpt lat="44.6502314" lon="11.6599757"><ele>11.0</ele><time>2026-04-22T09:18:32.345Z</time></trkpt><trkpt lat="44.6501555" lon="11.660101"><ele>11.0</ele><time>2026-04-22T09:18:34.343Z</time></trkpt><trkpt lat="44.6500794" lon="11.6602281"><ele>11.0</ele><time>2026-04-22T09:18:36.349Z</time></trkpt><trkpt lat="44.6500032" lon="11.6603536"><ele>11.0</ele><time>2026-04-22T09:18:38.354Z</time></trkpt><trkpt lat="44.6499277" lon="11.6604782"><ele>11.0</ele><time>2026-04-22T09:18:40.342Z</time></trkpt><trkpt lat="44.6498527" lon="11.6606031"><ele>11.0</ele><time>2026-04-22T09:18:42.337Z</time></trkpt><trkpt lat="44.6497769" lon="11.6607301"><ele>11.0</ele><time>2026-04-22T09:18:44.342Z</time></trkpt><trkpt lat="44.6496994" lon="11.6608563"><ele>11.0</ele><time>2026-04-22T09:18:46.338Z</time></trkpt><trkpt lat="44.6496231" lon="11.660982"><ele>11.0</ele><time>2026-04-22T09:18:48.351Z</time></trkpt><trkpt lat="44.6495471" lon="11.6611087"><ele>11.0</ele><time>2026-04-22T09:18:50.347Z</time></trkpt><trkpt lat="44.6494715" lon="11.6612347"><ele>11.0</ele><time>2026-04-22T09:18:52.346Z</time></trkpt><trkpt lat="44.6493967" lon="11.6613582"><ele>10.75</ele><time>2026-04-22T09:18:54.338Z</time></trkpt><trkpt lat="44.6493214" lon="11.6614837"><ele>10.5</ele><time>2026-04-22T09:18:56.374Z</time></trkpt><trkpt lat="44.649245" lon="11.6616107"><ele>10.25</ele><time>2026-04-22T09:18:58.349Z</time></trkpt><trkpt lat="44.6491673" lon="11.6617386"><ele>10.0</ele><time>2026-04-22T09:19:00.343Z</time></trkpt><trkpt lat="44.6490889" lon="11.661866"><ele>10.25</ele><time>2026-04-22T09:19:02.34Z</time></trkpt><trkpt lat="44.6490094" lon="11.6619977"><ele>10.5</ele><time>2026-04-22T09:19:04.339Z</time></trkpt><trkpt lat="44.6489279" lon="11.6621275"><ele>10.75</ele><time>2026-04-22T09:19:06.335Z</time></trkpt><trkpt lat="44.6488493" lon="11.6622575"><ele>11.0</ele><time>2026-04-22T09:19:08.339Z</time></trkpt><trkpt lat="44.6487711" lon="11.6623876"><ele>11.0</ele><time>2026-04-22T09:19:10.335Z</time></trkpt><trkpt lat="44.6486925" lon="11.6625181"><ele>11.0</ele><time>2026-04-22T09:19:12.344Z</time></trkpt><trkpt lat="44.648614" lon="11.6626486"><ele>11.0</ele><time>2026-04-22T09:19:14.352Z</time></trkpt><trkpt lat="44.6485362" lon="11.6627768"><ele>11.0</ele><time>2026-04-22T09:19:16.34Z</time></trkpt><trkpt lat="44.6484594" lon="11.6629059"><ele>9.75</ele><time>2026-04-22T09:19:18.343Z</time></trkpt><trkpt lat="44.6483823" lon="11.6630348"><ele>8.5</ele><time>2026-04-22T09:19:20.35Z</time></trkpt><trkpt lat="44.648305" lon="11.6631601"><ele>7.25</ele><time>2026-04-22T09:19:22.342Z</time></trkpt><trkpt lat="44.6482293" lon="11.6632877"><ele>6.0</ele><time>2026-04-22T09:19:24.343Z</time></trkpt><trkpt lat="44.6481531" lon="11.6634134"><ele>6.0</ele><time>2026-04-22T09:19:26.34Z</time></trkpt><trkpt lat="44.6480772" lon="11.6635399"><ele>6.0</ele><time>2026-04-22T09:19:28.338Z</time></trkpt><trkpt lat="44.6480004" lon="11.6636679"><ele>6.0</ele><time>2026-04-22T09:19:30.344Z</time></trkpt><trkpt lat="44.6479235" lon="11.6637945"><ele>6.0</ele><time>2026-04-22T09:19:32.352Z</time></trkpt><trkpt lat="44.6478467" lon="11.663923"><ele>6.5</ele><time>2026-04-22T09:19:34.343Z</time></trkpt><trkpt lat="44.6477687" lon="11.6640505"><ele>7.0</ele><time>2026-04-22T09:19:36.349Z</time></trkpt><trkpt lat="44.6476908" lon="11.6641791"><ele>7.5</ele><time>2026-04-22T09:19:38.353Z</time></trkpt><trkpt lat="44.647613" lon="11.6643071"><ele>8.0</ele><time>2026-04-22T09:19:40.354Z</time></trkpt><trkpt lat="44.6475342" lon="11.6644342"><ele>8.0</ele><time>2026-04-22T09:19:42.342Z</time></trkpt><trkpt lat="44.6474566" lon="11.6645648"><ele>8.0</ele><time>2026-04-22T09:19:44.348Z</time></trkpt><trkpt lat="44.6473772" lon="11.6646928"><ele>8.0</ele><time>2026-04-22T09:19:46.35Z</time></trkpt><trkpt lat="44.6472994" lon="11.6648224"><ele>8.0</ele><time>2026-04-22T09:19:48.343Z</time></trkpt><trkpt lat="44.6472204" lon="11.6649519"><ele>8.0</ele><time>2026-04-22T09:19:50.343Z</time></trkpt><trkpt lat="44.6471411" lon="11.6650802"><ele>8.0</ele><time>2026-04-22T09:19:52.34Z</time></trkpt><trkpt lat="44.6470631" lon="11.6652107"><ele>8.0</ele><time>2026-04-22T09:19:54.353Z</time></trkpt><trkpt lat="44.6469849" lon="11.6653405"><ele>8.0</ele><time>2026-04-22T09:19:56.344Z</time></trkpt><trkpt lat="44.6469073" lon="11.6654684"><ele>8.25</ele><time>2026-04-22T09:19:58.34Z</time></trkpt><trkpt lat="44.6468291" lon="11.6655978"><ele>8.5</ele><time>2026-04-22T09:20:00.34Z</time></trkpt><trkpt lat="44.6467517" lon="11.6657258"><ele>8.75</ele><time>2026-04-22T09:20:02.344Z</time></trkpt><trkpt lat="44.646674" lon="11.6658539"><ele>9.0</ele><time>2026-04-22T09:20:04.345Z</time></trkpt><trkpt lat="44.6465975" lon="11.6659814"><ele>9.0</ele><time>2026-04-22T09:20:06.342Z</time></trkpt><trkpt lat="44.6465212" lon="11.6661092"><ele>9.0</ele><time>2026-04-22T09:20:08.349Z</time></trkpt><trkpt lat="44.646445" lon="11.6662372"><ele>9.0</ele><time>2026-04-22T09:20:10.344Z</time></trkpt><trkpt lat="44.6463676" lon="11.6663651"><ele>9.0</ele><time>2026-04-22T09:20:12.344Z</time></trkpt><trkpt lat="44.6462905" lon="11.6664935"><ele>9.0</ele><time>2026-04-22T09:20:14.345Z</time></trkpt><trkpt lat="44.6462152" lon="11.6666219"><ele>9.0</ele><time>2026-04-22T09:20:16.33Z</time></trkpt><trkpt lat="44.6461415" lon="11.6667485"><ele>9.0</ele><time>2026-04-22T09:20:18.343Z</time></trkpt><trkpt lat="44.6460674" lon="11.6668734"><ele>9.0</ele><time>2026-04-22T09:20:20.351Z</time></trkpt><trkpt lat="44.6459933" lon="11.6669983"><ele>9.0</ele><time>2026-04-22T09:20:22.345Z</time></trkpt><trkpt lat="44.6459188" lon="11.6671224"><ele>9.0</ele><time>2026-04-22T09:20:24.34Z</time></trkpt><trkpt lat="44.6458437" lon="11.6672477"><ele>9.0</ele><time>2026-04-22T09:20:26.354Z</time></trkpt><trkpt lat="44.6457669" lon="11.6673721"><ele>9.0</ele><time>2026-04-22T09:20:28.334Z</time></trkpt><trkpt lat="44.6456899" lon="11.6674985"><ele>9.0</ele><time>2026-04-22T09:20:30.346Z</time></trkpt><trkpt lat="44.6456119" lon="11.6676253"><ele>9.0</ele><time>2026-04-22T09:20:32.339Z</time></trkpt><trkpt lat="44.6455331" lon="11.667754"><ele>9.0</ele><time>2026-04-22T09:20:34.348Z</time></trkpt><trkpt lat="44.6454559" lon="11.6678842"><ele>9.0</ele><time>2026-04-22T09:20:36.345Z</time></trkpt><trkpt lat="44.6453778" lon="11.6680118"><ele>8.5</ele><time>2026-04-22T09:20:38.345Z</time></trkpt><trkpt lat="44.6453" lon="11.6681407"><ele>8.0</ele><time>2026-04-22T09:20:40.337Z</time></trkpt><trkpt lat="44.6452225" lon="11.668271"><ele>7.5</ele><time>2026-04-22T09:20:42.342Z</time></trkpt><trkpt lat="44.6451449" lon="11.6684004"><ele>7.0</ele><time>2026-04-22T09:20:44.346Z</time></trkpt><trkpt lat="44.6450665" lon="11.6685292"><ele>6.75</ele><time>2026-04-22T09:20:46.333Z</time></trkpt><trkpt lat="44.6449897" lon="11.668658"><ele>6.5</ele><time>2026-04-22T09:20:48.341Z</time></trkpt><trkpt lat="44.6449124" lon="11.6687866"><ele>6.25</ele><time>2026-04-22T09:20:50.348Z</time></trkpt><trkpt lat="44.6448357" lon="11.6689182"><ele>6.0</ele><time>2026-04-22T09:20:52.341Z</time></trkpt><trkpt lat="44.6447609" lon="11.6690497"><ele>6.0</ele><time>2026-04-22T09:20:54.351Z</time></trkpt><trkpt lat="44.6446879" lon="11.6691816"><ele>6.0</ele><time>2026-04-22T09:20:56.342Z</time></trkpt><trkpt lat="44.6446169" lon="11.6693086"><ele>6.0</ele><time>2026-04-22T09:20:58.343Z</time></trkpt><trkpt lat="44.6445481" lon="11.6694385"><ele>6.0</ele><time>2026-04-22T09:21:00.35Z</time></trkpt><trkpt lat="44.6444808" lon="11.6695693"><ele>6.0</ele><time>2026-04-22T09:21:02.323Z</time></trkpt><trkpt lat="44.6444157" lon="11.6697012"><ele>6.0</ele><time>2026-04-22T09:21:04.34Z</time></trkpt><trkpt lat="44.6443523" lon="11.6698329"><ele>6.0</ele><time>2026-04-22T09:21:06.348Z</time></trkpt><trkpt lat="44.6442891" lon="11.6699612"><ele>6.0</ele><time>2026-04-22T09:21:08.343Z</time></trkpt><trkpt lat="44.644228" lon="11.6700922"><ele>6.0</ele><time>2026-04-22T09:21:10.34Z</time></trkpt><trkpt lat="44.6441666" lon="11.670224"><ele>6.0</ele><time>2026-04-22T09:21:12.346Z</time></trkpt><trkpt lat="44.6441053" lon="11.6703558"><ele>6.0</ele><time>2026-04-22T09:21:14.335Z</time></trkpt><trkpt lat="44.6440465" lon="11.6704876"><ele>6.0</ele><time>2026-04-22T09:21:16.34Z</time></trkpt><trkpt lat="44.6439857" lon="11.6706214"><ele>6.0</ele><time>2026-04-22T09:21:18.345Z</time></trkpt><trkpt lat="44.643923" lon="11.6707569"><ele>5.75</ele><time>2026-04-22T09:21:20.337Z</time></trkpt><trkpt lat="44.6438602" lon="11.6708921"><ele>5.5</ele><time>2026-04-22T09:21:22.348Z</time></trkpt><trkpt lat="44.643801" lon="11.6710261"><ele>5.25</ele><time>2026-04-22T09:21:24.342Z</time></trkpt><trkpt lat="44.6437416" lon="11.6711596"><ele>5.0</ele><time>2026-04-22T09:21:26.333Z</time></trkpt><trkpt lat="44.6436853" lon="11.6712932"><ele>5.2</ele><time>2026-04-22T09:21:28.343Z</time></trkpt><trkpt lat="44.6436265" lon="11.6714266"><ele>5.4</ele><time>2026-04-22T09:21:30.349Z</time></trkpt><trkpt lat="44.6435703" lon="11.6715628"><ele>5.6</ele><time>2026-04-22T09:21:32.349Z</time></trkpt><trkpt lat="44.6435158" lon="11.6716999"><ele>5.8</ele><time>2026-04-22T09:21:34.344Z</time></trkpt><trkpt lat="44.6434603" lon="11.6718359"><ele>6.0</ele><time>2026-04-22T09:21:36.352Z</time></trkpt><trkpt lat="44.6434061" lon="11.6719755"><ele>6.25</ele><time>2026-04-22T09:21:38.35Z</time></trkpt><trkpt lat="44.6433523" lon="11.6721149"><ele>6.5</ele><time>2026-04-22T09:21:40.336Z</time></trkpt><trkpt lat="44.6432972" lon="11.6722543"><ele>6.75</ele><time>2026-04-22T09:21:42.343Z</time></trkpt><trkpt lat="44.6432433" lon="11.6723955"><ele>7.0</ele><time>2026-04-22T09:21:44.338Z</time></trkpt><trkpt lat="44.6431902" lon="11.6725386"><ele>7.0</ele><time>2026-04-22T09:21:46.341Z</time></trkpt><trkpt lat="44.643134" lon="11.6726817"><ele>7.0</ele><time>2026-04-22T09:21:48.345Z</time></trkpt><trkpt lat="44.6430787" lon="11.6728275"><ele>7.0</ele><time>2026-04-22T09:21:50.341Z</time></trkpt><trkpt lat="44.6430233" lon="11.6729751"><ele>7.0</ele><time>2026-04-22T09:21:52.345Z</time></trkpt><trkpt lat="44.642967" lon="11.6731234"><ele>7.0</ele><time>2026-04-22T09:21:54.341Z</time></trkpt><trkpt lat="44.6429113" lon="11.673271"><ele>7.0</ele><time>2026-04-22T09:21:56.354Z</time></trkpt><trkpt lat="44.6428595" lon="11.6734243"><ele>7.0</ele><time>2026-04-22T09:21:58.34Z</time></trkpt><trkpt lat="44.6428081" lon="11.6735762"><ele>7.0</ele><time>2026-04-22T09:22:00.346Z</time></trkpt><trkpt lat="44.6427567" lon="11.6737281"><ele>7.3999999999999995</ele><time>2026-04-22T09:22:02.341Z</time></trkpt><trkpt lat="44.642708" lon="11.6738748"><ele>7.799999999999999</ele><time>2026-04-22T09:22:04.339Z</time></trkpt><trkpt lat="44.642662" lon="11.6740097"><ele>8.2</ele><time>2026-04-22T09:22:06.343Z</time></trkpt><trkpt lat="44.6426187" lon="11.6741347"><ele>8.6</ele><time>2026-04-22T09:22:08.335Z</time></trkpt><trkpt lat="44.6425748" lon="11.6742613"><ele>9.0</ele><time>2026-04-22T09:22:10.337Z</time></trkpt><trkpt lat="44.6425294" lon="11.6744002"><ele>9.0</ele><time>2026-04-22T09:22:12.341Z</time></trkpt><trkpt lat="44.6424787" lon="11.674543"><ele>9.0</ele><time>2026-04-22T09:22:14.354Z</time></trkpt><trkpt lat="44.6424298" lon="11.6746899"><ele>9.0</ele><time>2026-04-22T09:22:16.349Z</time></trkpt><trkpt lat="44.6423782" lon="11.674839"><ele>9.0</ele><time>2026-04-22T09:22:18.35Z</time></trkpt><trkpt lat="44.6423281" lon="11.6749908"><ele>9.0</ele><time>2026-04-22T09:22:20.338Z</time></trkpt><trkpt lat="44.6422774" lon="11.6751399"><ele>9.0</ele><time>2026-04-22T09:22:22.344Z</time></trkpt><trkpt lat="44.6422274" lon="11.6752879"><ele>9.0</ele><time>2026-04-22T09:22:24.335Z</time></trkpt><trkpt lat="44.6421783" lon="11.6754367"><ele>9.0</ele><time>2026-04-22T09:22:26.339Z</time></trkpt><trkpt lat="44.6421274" lon="11.6755859"><ele>8.75</ele><time>2026-04-22T09:22:28.348Z</time></trkpt><trkpt lat="44.6420762" lon="11.6757365"><ele>8.5</ele><time>2026-04-22T09:22:30.35Z</time></trkpt><trkpt lat="44.6420278" lon="11.6758871"><ele>8.25</ele><time>2026-04-22T09:22:32.352Z</time></trkpt><trkpt lat="44.6419776" lon="11.6760368"><ele>8.0</ele><time>2026-04-22T09:22:34.336Z</time></trkpt><trkpt lat="44.641927" lon="11.6761868"><ele>8.5</ele><time>2026-04-22T09:22:36.334Z</time></trkpt><trkpt lat="44.6418774" lon="11.6763358"><ele>9.0</ele><time>2026-04-22T09:22:38.343Z</time></trkpt><trkpt lat="44.6418293" lon="11.6764854"><ele>9.5</ele><time>2026-04-22T09:22:40.35Z</time></trkpt><trkpt lat="44.6417802" lon="11.676634"><ele>10.0</ele><time>2026-04-22T09:22:42.346Z</time></trkpt><trkpt lat="44.6417312" lon="11.6767811"><ele>10.0</ele><time>2026-04-22T09:22:44.333Z</time></trkpt><trkpt lat="44.6416817" lon="11.67693"><ele>10.0</ele><time>2026-04-22T09:22:46.344Z</time></trkpt><trkpt lat="44.6416323" lon="11.6770785"><ele>10.0</ele><time>2026-04-22T09:22:48.35Z</time></trkpt><trkpt lat="44.6415837" lon="11.6772283"><ele>10.0</ele><time>2026-04-22T09:22:50.338Z</time></trkpt><trkpt lat="44.641533" lon="11.6773791"><ele>9.5</ele><time>2026-04-22T09:22:52.338Z</time></trkpt><trkpt lat="44.641482" lon="11.6775322"><ele>9.0</ele><time>2026-04-22T09:22:54.344Z</time></trkpt><trkpt lat="44.6414325" lon="11.6776871"><ele>8.5</ele><time>2026-04-22T09:22:56.334Z</time></trkpt><trkpt lat="44.6413822" lon="11.6778396"><ele>8.0</ele><time>2026-04-22T09:22:58.353Z</time></trkpt><trkpt lat="44.6413308" lon="11.6779906"><ele>7.0</ele><time>2026-04-22T09:23:00.342Z</time></trkpt><trkpt lat="44.6412819" lon="11.6781407"><ele>6.0</ele><time>2026-04-22T09:23:02.351Z</time></trkpt><trkpt lat="44.641233" lon="11.6782899"><ele>5.0</ele><time>2026-04-22T09:23:04.344Z</time></trkpt><trkpt lat="44.6411844" lon="11.6784387"><ele>4.0</ele><time>2026-04-22T09:23:06.347Z</time></trkpt><trkpt lat="44.6411353" lon="11.678585"><ele>4.75</ele><time>2026-04-22T09:23:08.343Z</time></trkpt><trkpt lat="44.6410873" lon="11.6787322"><ele>5.5</ele><time>2026-04-22T09:23:10.348Z</time></trkpt><trkpt lat="44.6410404" lon="11.6788765"><ele>6.25</ele><time>2026-04-22T09:23:12.354Z</time></trkpt><trkpt lat="44.6409922" lon="11.6790214"><ele>7.0</ele><time>2026-04-22T09:23:14.34Z</time></trkpt><trkpt lat="44.6409452" lon="11.6791673"><ele>7.0</ele><time>2026-04-22T09:23:16.354Z</time></trkpt><trkpt lat="44.6408971" lon="11.6793144"><ele>7.0</ele><time>2026-04-22T09:23:18.336Z</time></trkpt><trkpt lat="44.6408483" lon="11.6794617"><ele>7.0</ele><time>2026-04-22T09:23:20.343Z</time></trkpt><trkpt lat="44.6407993" lon="11.6796121"><ele>7.0</ele><time>2026-04-22T09:23:22.349Z</time></trkpt><trkpt lat="44.6407505" lon="11.6797641"><ele>6.75</ele><time>2026-04-22T09:23:24.344Z</time></trkpt><trkpt lat="44.6407019" lon="11.6799128"><ele>6.5</ele><time>2026-04-22T09:23:26.338Z</time></trkpt><trkpt lat="44.6406544" lon="11.6800602"><ele>6.25</ele><time>2026-04-22T09:23:28.353Z</time></trkpt><trkpt lat="44.6406067" lon="11.6802103"><ele>6.0</ele><time>2026-04-22T09:23:30.348Z</time></trkpt><trkpt lat="44.6405555" lon="11.680363"><ele>5.75</ele><time>2026-04-22T09:23:32.341Z</time></trkpt><trkpt lat="44.6405059" lon="11.6805151"><ele>5.5</ele><time>2026-04-22T09:23:34.349Z</time></trkpt><trkpt lat="44.6404567" lon="11.6806652"><ele>5.25</ele><time>2026-04-22T09:23:36.339Z</time></trkpt><trkpt lat="44.6404075" lon="11.6808157"><ele>5.0</ele><time>2026-04-22T09:23:38.343Z</time></trkpt><trkpt lat="44.6403577" lon="11.6809672"><ele>4.5</ele><time>2026-04-22T09:23:40.346Z</time></trkpt><trkpt lat="44.6403091" lon="11.6811191"><ele>4.0</ele><time>2026-04-22T09:23:42.343Z</time></trkpt><trkpt lat="44.6402591" lon="11.6812696"><ele>3.5</ele><time>2026-04-22T09:23:44.343Z</time></trkpt><trkpt lat="44.6402085" lon="11.681426"><ele>3.0</ele><time>2026-04-22T09:23:46.349Z</time></trkpt><trkpt lat="44.6401566" lon="11.681581"><ele>4.0</ele><time>2026-04-22T09:23:48.35Z</time></trkpt><trkpt lat="44.640106" lon="11.6817345"><ele>5.0</ele><time>2026-04-22T09:23:50.347Z</time></trkpt><trkpt lat="44.6400562" lon="11.6818868"><ele>6.0</ele><time>2026-04-22T09:23:52.346Z</time></trkpt><trkpt lat="44.6400055" lon="11.6820409"><ele>7.0</ele><time>2026-04-22T09:23:54.34Z</time></trkpt><trkpt lat="44.6399543" lon="11.6821954"><ele>7.5</ele><time>2026-04-22T09:23:56.34Z</time></trkpt><trkpt lat="44.6399049" lon="11.6823511"><ele>8.0</ele><time>2026-04-22T09:23:58.346Z</time></trkpt><trkpt lat="44.6398526" lon="11.6825025"><ele>8.5</ele><time>2026-04-22T09:24:00.349Z</time></trkpt><trkpt lat="44.6398038" lon="11.6826532"><ele>9.0</ele><time>2026-04-22T09:24:02.337Z</time></trkpt><trkpt lat="44.639754" lon="11.6828033"><ele>9.0</ele><time>2026-04-22T09:24:04.352Z</time></trkpt><trkpt lat="44.6397052" lon="11.6829536"><ele>9.0</ele><time>2026-04-22T09:24:06.344Z</time></trkpt><trkpt lat="44.6396577" lon="11.6831044"><ele>9.0</ele><time>2026-04-22T09:24:08.349Z</time></trkpt><trkpt lat="44.6396074" lon="11.6832564"><ele>9.0</ele><time>2026-04-22T09:24:10.342Z</time></trkpt><trkpt lat="44.6395581" lon="11.6834103"><ele>9.0</ele><time>2026-04-22T09:24:12.349Z</time></trkpt><trkpt lat="44.6395073" lon="11.6835611"><ele>9.0</ele><time>2026-04-22T09:24:14.336Z</time></trkpt><trkpt lat="44.6394594" lon="11.6837113"><ele>9.0</ele><time>2026-04-22T09:24:16.343Z</time></trkpt><trkpt lat="44.6394109" lon="11.6838626"><ele>9.0</ele><time>2026-04-22T09:24:18.34Z</time></trkpt><trkpt lat="44.63936" lon="11.684014"><ele>8.0</ele><time>2026-04-22T09:24:20.343Z</time></trkpt><trkpt lat="44.6393114" lon="11.6841665"><ele>7.0</ele><time>2026-04-22T09:24:22.35Z</time></trkpt><trkpt lat="44.6392634" lon="11.6843186"><ele>6.0</ele><time>2026-04-22T09:24:24.343Z</time></trkpt><trkpt lat="44.6392146" lon="11.6844706"><ele>5.0</ele><time>2026-04-22T09:24:26.336Z</time></trkpt><trkpt lat="44.6391682" lon="11.6846168"><ele>5.0</ele><time>2026-04-22T09:24:28.354Z</time></trkpt><trkpt lat="44.6391265" lon="11.6847547"><ele>5.0</ele><time>2026-04-22T09:24:30.342Z</time></trkpt><trkpt lat="44.6390898" lon="11.6848789"><ele>5.0</ele><time>2026-04-22T09:24:32.337Z</time></trkpt><trkpt lat="44.6390522" lon="11.6849917"><ele>5.0</ele><time>2026-04-22T09:24:34.346Z</time></trkpt><trkpt lat="44.6390189" lon="11.685105"><ele>5.0</ele><time>2026-04-22T09:24:36.336Z</time></trkpt><trkpt lat="44.638985" lon="11.6852155"><ele>5.0</ele><time>2026-04-22T09:24:38.338Z</time></trkpt><trkpt lat="44.6389462" lon="11.6853272"><ele>5.0</ele><time>2026-04-22T09:24:40.341Z</time></trkpt><trkpt lat="44.6389097" lon="11.6854558"><ele>5.0</ele><time>2026-04-22T09:24:42.344Z</time></trkpt><trkpt lat="44.6388663" lon="11.6855938"><ele>5.0</ele><time>2026-04-22T09:24:44.352Z</time></trkpt><trkpt lat="44.6388214" lon="11.6857445"><ele>5.0</ele><time>2026-04-22T09:24:46.339Z</time></trkpt><trkpt lat="44.6387741" lon="11.6859042"><ele>5.0</ele><time>2026-04-22T09:24:48.342Z</time></trkpt><trkpt lat="44.6387521" lon="11.6859891"><ele>5.0</ele><time>2026-04-22T09:24:49.352Z</time></trkpt><trkpt lat="44.6387304" lon="11.6860756"><ele>5.0</ele><time>2026-04-22T09:24:50.332Z</time></trkpt><trkpt lat="44.6387087" lon="11.6861655"><ele>5.0</ele><time>2026-04-22T09:24:51.325Z</time></trkpt><trkpt lat="44.6386867" lon="11.6862557"><ele>5.0</ele><time>2026-04-22T09:24:52.336Z</time></trkpt><trkpt lat="44.6386651" lon="11.6863487"><ele>5.0</ele><time>2026-04-22T09:24:53.347Z</time></trkpt><trkpt lat="44.6386433" lon="11.686443"><ele>5.0</ele><time>2026-04-22T09:24:54.34Z</time></trkpt><trkpt lat="44.6386212" lon="11.6865382"><ele>5.285714285714286</ele><time>2026-04-22T09:24:55.337Z</time></trkpt><trkpt lat="44.638598" lon="11.6866345"><ele>5.571428571428571</ele><time>2026-04-22T09:24:56.343Z</time></trkpt><trkpt lat="44.638574" lon="11.6867323"><ele>5.857142857142858</ele><time>2026-04-22T09:24:57.34Z</time></trkpt><trkpt lat="44.6385495" lon="11.6868299"><ele>6.142857142857142</ele><time>2026-04-22T09:24:58.341Z</time></trkpt><trkpt lat="44.6385263" lon="11.6869304"><ele>6.428571428571429</ele><time>2026-04-22T09:24:59.342Z</time></trkpt><trkpt lat="44.6385038" lon="11.6870325"><ele>6.714285714285714</ele><time>2026-04-22T09:25:00.348Z</time></trkpt><trkpt lat="44.6384803" lon="11.6871342"><ele>7.0</ele><time>2026-04-22T09:25:01.347Z</time></trkpt><trkpt lat="44.6384559" lon="11.6872373"><ele>7.000000000000001</ele><time>2026-04-22T09:25:02.339Z</time></trkpt><trkpt lat="44.6384308" lon="11.6873406"><ele>7.0</ele><time>2026-04-22T09:25:03.336Z</time></trkpt><trkpt lat="44.6384065" lon="11.6874466"><ele>7.0</ele><time>2026-04-22T09:25:04.336Z</time></trkpt><trkpt lat="44.6383821" lon="11.6875535"><ele>7.0</ele><time>2026-04-22T09:25:05.35Z</time></trkpt><trkpt lat="44.6383562" lon="11.68766"><ele>7.000000000000001</ele><time>2026-04-22T09:25:06.344Z</time></trkpt><trkpt lat="44.6383312" lon="11.6877667"><ele>7.0</ele><time>2026-04-22T09:25:07.348Z</time></trkpt><trkpt lat="44.6383064" lon="11.6878726"><ele>7.000000000000001</ele><time>2026-04-22T09:25:08.343Z</time></trkpt><trkpt lat="44.63828" lon="11.6879796"><ele>7.0</ele><time>2026-04-22T09:25:09.347Z</time></trkpt><trkpt lat="44.6382539" lon="11.6880875"><ele>7.0</ele><time>2026-04-22T09:25:10.334Z</time></trkpt><trkpt lat="44.6382293" lon="11.6881959"><ele>7.0</ele><time>2026-04-22T09:25:11.349Z</time></trkpt><trkpt lat="44.6382031" lon="11.6883037"><ele>7.000000000000001</ele><time>2026-04-22T09:25:12.35Z</time></trkpt><trkpt lat="44.6381779" lon="11.688411"><ele>7.0</ele><time>2026-04-22T09:25:13.348Z</time></trkpt><trkpt lat="44.6381527" lon="11.6885196"><ele>7.000000000000001</ele><time>2026-04-22T09:25:14.345Z</time></trkpt><trkpt lat="44.6381272" lon="11.6886292"><ele>7.0</ele><time>2026-04-22T09:25:15.343Z</time></trkpt><trkpt lat="44.6381007" lon="11.6887384"><ele>7.0</ele><time>2026-04-22T09:25:16.349Z</time></trkpt><trkpt lat="44.6380741" lon="11.6888479"><ele>7.0</ele><time>2026-04-22T09:25:17.335Z</time></trkpt><trkpt lat="44.6380487" lon="11.6889583"><ele>7.000000000000001</ele><time>2026-04-22T09:25:18.347Z</time></trkpt><trkpt lat="44.6380248" lon="11.6890696"><ele>7.0</ele><time>2026-04-22T09:25:19.35Z</time></trkpt><trkpt lat="44.638003" lon="11.6891806"><ele>7.000000000000001</ele><time>2026-04-22T09:25:20.346Z</time></trkpt><trkpt lat="44.6379854" lon="11.6892921"><ele>7.0</ele><time>2026-04-22T09:25:21.341Z</time></trkpt><trkpt lat="44.6379749" lon="11.6894027"><ele>7.0</ele><time>2026-04-22T09:25:22.339Z</time></trkpt><trkpt lat="44.6379741" lon="11.689512"><ele>7.0</ele><time>2026-04-22T09:25:23.344Z</time></trkpt><trkpt lat="44.6379874" lon="11.6896173"><ele>7.000000000000001</ele><time>2026-04-22T09:25:24.342Z</time></trkpt><trkpt lat="44.6380139" lon="11.6897145"><ele>7.0</ele><time>2026-04-22T09:25:25.346Z</time></trkpt><trkpt lat="44.6380483" lon="11.6898044"><ele>6.857142857142857</ele><time>2026-04-22T09:25:26.35Z</time></trkpt><trkpt lat="44.6380885" lon="11.6898881"><ele>6.714285714285714</ele><time>2026-04-22T09:25:27.353Z</time></trkpt><trkpt lat="44.6381305" lon="11.6899672"><ele>6.571428571428571</ele><time>2026-04-22T09:25:28.351Z</time></trkpt><trkpt lat="44.6381748" lon="11.6900411"><ele>6.428571428571429</ele><time>2026-04-22T09:25:29.348Z</time></trkpt><trkpt lat="44.6382171" lon="11.6901143"><ele>6.285714285714286</ele><time>2026-04-22T09:25:30.342Z</time></trkpt><trkpt lat="44.6382581" lon="11.6901867"><ele>6.142857142857142</ele><time>2026-04-22T09:25:31.343Z</time></trkpt><trkpt lat="44.638299" lon="11.6902574"><ele>6.0</ele><time>2026-04-22T09:25:32.353Z</time></trkpt><trkpt lat="44.6383389" lon="11.6903283"><ele>6.75</ele><time>2026-04-22T09:25:33.35Z</time></trkpt><trkpt lat="44.6384174" lon="11.6904648"><ele>7.5</ele><time>2026-04-22T09:25:35.343Z</time></trkpt><trkpt lat="44.6384887" lon="11.6905862"><ele>8.25</ele><time>2026-04-22T09:25:37.347Z</time></trkpt><trkpt lat="44.6385601" lon="11.690707"><ele>9.0</ele><time>2026-04-22T09:25:39.346Z</time></trkpt><trkpt lat="44.6386331" lon="11.6908199"><ele>8.0</ele><time>2026-04-22T09:25:41.358Z</time></trkpt><trkpt lat="44.6386941" lon="11.6909399"><ele>7.0</ele><time>2026-04-22T09:25:43.35Z</time></trkpt><trkpt lat="44.6387383" lon="11.691069"><ele>6.0</ele><time>2026-04-22T09:25:45.35Z</time></trkpt><trkpt lat="44.6387653" lon="11.6912067"><ele>5.0</ele><time>2026-04-22T09:25:47.345Z</time></trkpt><trkpt lat="44.6387666" lon="11.6913455"><ele>4.0</ele><time>2026-04-22T09:25:49.35Z</time></trkpt><trkpt lat="44.638753" lon="11.6914734"><ele>3.833333333333333</ele><time>2026-04-22T09:25:51.344Z</time></trkpt><trkpt lat="44.6387374" lon="11.6915955"><ele>3.6666666666666665</ele><time>2026-04-22T09:25:53.339Z</time></trkpt><trkpt lat="44.6387209" lon="11.6917154"><ele>3.5</ele><time>2026-04-22T09:25:55.34Z</time></trkpt><trkpt lat="44.6387067" lon="11.691836"><ele>3.333333333333333</ele><time>2026-04-22T09:25:57.343Z</time></trkpt><trkpt lat="44.6386908" lon="11.6919524"><ele>3.1666666666666665</ele><time>2026-04-22T09:25:59.343Z</time></trkpt><trkpt lat="44.6386747" lon="11.6920687"><ele>3.0</ele><time>2026-04-22T09:26:01.342Z</time></trkpt><trkpt lat="44.6386581" lon="11.6921894"><ele>2.8333333333333335</ele><time>2026-04-22T09:26:03.35Z</time></trkpt><trkpt lat="44.6386406" lon="11.6923073"><ele>2.6666666666666665</ele><time>2026-04-22T09:26:05.339Z</time></trkpt><trkpt lat="44.6386195" lon="11.692421"><ele>2.5</ele><time>2026-04-22T09:26:07.34Z</time></trkpt><trkpt lat="44.6385966" lon="11.6925306"><ele>2.333333333333333</ele><time>2026-04-22T09:26:09.342Z</time></trkpt><trkpt lat="44.6385731" lon="11.6926338"><ele>2.1666666666666665</ele><time>2026-04-22T09:26:11.346Z</time></trkpt><trkpt lat="44.6385461" lon="11.6927183"><ele>2.0</ele><time>2026-04-22T09:26:13.35Z</time></trkpt><trkpt lat="44.6385213" lon="11.6928414"><ele>3.142857142857143</ele><time>2026-04-22T09:26:16.35Z</time></trkpt><trkpt lat="44.6385191" lon="11.6929508"><ele>4.285714285714286</ele><time>2026-04-22T09:26:19.347Z</time></trkpt><trkpt lat="44.6385257" lon="11.6930504"><ele>5.428571428571429</ele><time>2026-04-22T09:26:22.341Z</time></trkpt><trkpt lat="44.6385449" lon="11.6931653"><ele>6.571428571428571</ele><time>2026-04-22T09:26:25.34Z</time></trkpt><trkpt lat="44.6385489" lon="11.6932638"><ele>7.714285714285714</ele><time>2026-04-22T09:26:28.35Z</time></trkpt><trkpt lat="44.6385265" lon="11.6933566"><ele>8.857142857142858</ele><time>2026-04-22T09:27:09.349Z</time></trkpt><trkpt lat="44.6385443" lon="11.6934609"><ele>10.0</ele><time>2026-04-22T09:27:13.344Z</time></trkpt><trkpt lat="44.6385622" lon="11.6935501"><ele>10.0</ele><time>2026-04-22T09:27:16.357Z</time></trkpt><trkpt lat="44.6385703" lon="11.6936503"><ele>10.0</ele><time>2026-04-22T09:27:19.341Z</time></trkpt><trkpt lat="44.6385772" lon="11.6937403"><ele>10.0</ele><time>2026-04-22T09:27:21.341Z</time></trkpt><trkpt lat="44.6385861" lon="11.6938435"><ele>10.0</ele><time>2026-04-22T09:27:23.344Z</time></trkpt><trkpt lat="44.6385977" lon="11.6939547"><ele>10.0</ele><time>2026-04-22T09:27:25.347Z</time></trkpt><trkpt lat="44.6386067" lon="11.6940722"><ele>10.0</ele><time>2026-04-22T09:27:27.345Z</time></trkpt><trkpt lat="44.6386158" lon="11.6941965"><ele>10.0</ele><time>2026-04-22T09:27:29.345Z</time></trkpt><trkpt lat="44.6386245" lon="11.6943257"><ele>10.0</ele><time>2026-04-22T09:27:31.349Z</time></trkpt><trkpt lat="44.6386326" lon="11.6944579"><ele>10.0</ele><time>2026-04-22T09:27:33.35Z</time></trkpt><trkpt lat="44.6386421" lon="11.6945941"><ele>10.0</ele><time>2026-04-22T09:27:35.345Z</time></trkpt><trkpt lat="44.6386514" lon="11.6947338"><ele>10.0</ele><time>2026-04-22T09:27:37.346Z</time></trkpt><trkpt lat="44.6386608" lon="11.6948763"><ele>8.8</ele><time>2026-04-22T09:27:39.34Z</time></trkpt><trkpt lat="44.6386699" lon="11.6950206"><ele>7.6</ele><time>2026-04-22T09:27:41.342Z</time></trkpt><trkpt lat="44.6386812" lon="11.6951659"><ele>6.4</ele><time>2026-04-22T09:27:43.357Z</time></trkpt><trkpt lat="44.6386895" lon="11.6953127"><ele>5.2</ele><time>2026-04-22T09:27:45.35Z</time></trkpt><trkpt lat="44.6386989" lon="11.6954589"><ele>4.0</ele><time>2026-04-22T09:27:47.34Z</time></trkpt><trkpt lat="44.6387073" lon="11.6956093"><ele>4.0</ele><time>2026-04-22T09:27:49.349Z</time></trkpt><trkpt lat="44.6387188" lon="11.6957611"><ele>4.0</ele><time>2026-04-22T09:27:51.352Z</time></trkpt><trkpt lat="44.6387247" lon="11.695913"><ele>4.0</ele><time>2026-04-22T09:27:53.344Z</time></trkpt><trkpt lat="44.6387327" lon="11.696066"><ele>4.0</ele><time>2026-04-22T09:27:55.357Z</time></trkpt><trkpt lat="44.6387375" lon="11.6962181"><ele>4.0</ele><time>2026-04-22T09:27:57.346Z</time></trkpt><trkpt lat="44.638727" lon="11.6963735"><ele>4.25</ele><time>2026-04-22T09:27:59.347Z</time></trkpt><trkpt lat="44.6386757" lon="11.6965203"><ele>4.5</ele><time>2026-04-22T09:28:01.344Z</time></trkpt><trkpt lat="44.6385939" lon="11.696638"><ele>4.75</ele><time>2026-04-22T09:28:03.339Z</time></trkpt><trkpt lat="44.6385102" lon="11.6967476"><ele>5.0</ele><time>2026-04-22T09:28:05.348Z</time></trkpt><trkpt lat="44.6384318" lon="11.6968644"><ele>5.75</ele><time>2026-04-22T09:28:07.347Z</time></trkpt><trkpt lat="44.6383618" lon="11.6969909"><ele>6.5</ele><time>2026-04-22T09:28:09.358Z</time></trkpt><trkpt lat="44.6382999" lon="11.6971238"><ele>7.25</ele><time>2026-04-22T09:28:11.339Z</time></trkpt><trkpt lat="44.6382363" lon="11.6972584"><ele>8.0</ele><time>2026-04-22T09:28:13.34Z</time></trkpt><trkpt lat="44.6381636" lon="11.6973837"><ele>8.0</ele><time>2026-04-22T09:28:15.351Z</time></trkpt><trkpt lat="44.6380851" lon="11.697498"><ele>8.0</ele><time>2026-04-22T09:28:17.357Z</time></trkpt><trkpt lat="44.6380024" lon="11.6976047"><ele>8.0</ele><time>2026-04-22T09:28:19.358Z</time></trkpt><trkpt lat="44.6379262" lon="11.6977197"><ele>8.0</ele><time>2026-04-22T09:28:21.348Z</time></trkpt><trkpt lat="44.6378693" lon="11.6978542"><ele>8.0</ele><time>2026-04-22T09:28:23.349Z</time></trkpt><trkpt lat="44.6378349" lon="11.6980068"><ele>8.25</ele><time>2026-04-22T09:28:25.353Z</time></trkpt><trkpt lat="44.6378206" lon="11.6981684"><ele>8.5</ele><time>2026-04-22T09:28:27.351Z</time></trkpt><trkpt lat="44.6378196" lon="11.6983314"><ele>8.75</ele><time>2026-04-22T09:28:29.342Z</time></trkpt><trkpt lat="44.6378253" lon="11.6984939"><ele>9.0</ele><time>2026-04-22T09:28:31.346Z</time></trkpt><trkpt lat="44.6378276" lon="11.6986571"><ele>9.25</ele><time>2026-04-22T09:28:33.354Z</time></trkpt><trkpt lat="44.6378306" lon="11.6988189"><ele>9.5</ele><time>2026-04-22T09:28:35.343Z</time></trkpt><trkpt lat="44.637832" lon="11.6989824"><ele>9.75</ele><time>2026-04-22T09:28:37.351Z</time></trkpt><trkpt lat="44.6378323" lon="11.6991443"><ele>10.0</ele><time>2026-04-22T09:28:39.339Z</time></trkpt><trkpt lat="44.6378283" lon="11.6993092"><ele>9.75</ele><time>2026-04-22T09:28:41.346Z</time></trkpt><trkpt lat="44.6378238" lon="11.6994758"><ele>9.5</ele><time>2026-04-22T09:28:43.344Z</time></trkpt><trkpt lat="44.6378192" lon="11.6996436"><ele>9.25</ele><time>2026-04-22T09:28:45.343Z</time></trkpt><trkpt lat="44.6378141" lon="11.6998119"><ele>9.0</ele><time>2026-04-22T09:28:47.347Z</time></trkpt><trkpt lat="44.6378057" lon="11.6999793"><ele>8.5</ele><time>2026-04-22T09:28:49.347Z</time></trkpt><trkpt lat="44.637796" lon="11.7001458"><ele>8.0</ele><time>2026-04-22T09:28:51.337Z</time></trkpt><trkpt lat="44.6377856" lon="11.7003128"><ele>7.5</ele><time>2026-04-22T09:28:53.341Z</time></trkpt><trkpt lat="44.6377757" lon="11.7004804"><ele>7.0</ele><time>2026-04-22T09:28:55.338Z</time></trkpt><trkpt lat="44.6377609" lon="11.7006468"><ele>7.0</ele><time>2026-04-22T09:28:57.355Z</time></trkpt><trkpt lat="44.6377465" lon="11.700814"><ele>7.0</ele><time>2026-04-22T09:28:59.353Z</time></trkpt><trkpt lat="44.6377313" lon="11.7009822"><ele>7.0</ele><time>2026-04-22T09:29:01.342Z</time></trkpt><trkpt lat="44.6377187" lon="11.7011503"><ele>7.0</ele><time>2026-04-22T09:29:03.345Z</time></trkpt><trkpt lat="44.6377026" lon="11.7013159"><ele>7.5</ele><time>2026-04-22T09:29:05.341Z</time></trkpt><trkpt lat="44.6376871" lon="11.7014809"><ele>8.0</ele><time>2026-04-22T09:29:07.341Z</time></trkpt><trkpt lat="44.6376725" lon="11.7016473"><ele>8.5</ele><time>2026-04-22T09:29:09.341Z</time></trkpt><trkpt lat="44.6376582" lon="11.7018141"><ele>9.0</ele><time>2026-04-22T09:29:11.341Z</time></trkpt><trkpt lat="44.6376416" lon="11.7019802"><ele>9.0</ele><time>2026-04-22T09:29:13.347Z</time></trkpt><trkpt lat="44.6376253" lon="11.7021464"><ele>9.0</ele><time>2026-04-22T09:29:15.344Z</time></trkpt><trkpt lat="44.6376104" lon="11.7023126"><ele>9.0</ele><time>2026-04-22T09:29:17.339Z</time></trkpt><trkpt lat="44.6375939" lon="11.7024794"><ele>9.0</ele><time>2026-04-22T09:29:19.349Z</time></trkpt><trkpt lat="44.6375783" lon="11.702645"><ele>8.75</ele><time>2026-04-22T09:29:21.351Z</time></trkpt><trkpt lat="44.6375603" lon="11.7028099"><ele>8.5</ele><time>2026-04-22T09:29:23.349Z</time></trkpt><trkpt lat="44.6375458" lon="11.7029774"><ele>8.25</ele><time>2026-04-22T09:29:25.35Z</time></trkpt><trkpt lat="44.6375302" lon="11.7031422"><ele>8.0</ele><time>2026-04-22T09:29:27.339Z</time></trkpt><trkpt lat="44.637513" lon="11.7033047"><ele>8.0</ele><time>2026-04-22T09:29:29.338Z</time></trkpt><trkpt lat="44.6375006" lon="11.7034684"><ele>8.0</ele><time>2026-04-22T09:29:31.332Z</time></trkpt><trkpt lat="44.6374832" lon="11.7036294"><ele>8.0</ele><time>2026-04-22T09:29:33.34Z</time></trkpt><trkpt lat="44.6374652" lon="11.7037882"><ele>8.0</ele><time>2026-04-22T09:29:35.351Z</time></trkpt><trkpt lat="44.6374471" lon="11.7039465"><ele>7.75</ele><time>2026-04-22T09:29:37.346Z</time></trkpt><trkpt lat="44.6374277" lon="11.7041055"><ele>7.5</ele><time>2026-04-22T09:29:39.348Z</time></trkpt><trkpt lat="44.6374115" lon="11.7042639"><ele>7.25</ele><time>2026-04-22T09:29:41.347Z</time></trkpt><trkpt lat="44.6373925" lon="11.7044229"><ele>7.0</ele><time>2026-04-22T09:29:43.345Z</time></trkpt><trkpt lat="44.6373739" lon="11.7045835"><ele>7.0</ele><time>2026-04-22T09:29:45.351Z</time></trkpt><trkpt lat="44.6373513" lon="11.7047446"><ele>7.0</ele><time>2026-04-22T09:29:47.352Z</time></trkpt><trkpt lat="44.6373224" lon="11.7049046"><ele>7.0</ele><time>2026-04-22T09:29:49.343Z</time></trkpt><trkpt lat="44.6372857" lon="11.7050573"><ele>7.0</ele><time>2026-04-22T09:29:51.348Z</time></trkpt><trkpt lat="44.637244" lon="11.7052068"><ele>6.5</ele><time>2026-04-22T09:29:53.346Z</time></trkpt><trkpt lat="44.6371991" lon="11.7053554"><ele>6.0</ele><time>2026-04-22T09:29:55.358Z</time></trkpt><trkpt lat="44.6371512" lon="11.7055028"><ele>5.5</ele><time>2026-04-22T09:29:57.342Z</time></trkpt><trkpt lat="44.6371071" lon="11.7056511"><ele>5.0</ele><time>2026-04-22T09:29:59.341Z</time></trkpt><trkpt lat="44.6370656" lon="11.705802"><ele>5.0</ele><time>2026-04-22T09:30:01.347Z</time></trkpt><trkpt lat="44.6370255" lon="11.7059531"><ele>5.0</ele><time>2026-04-22T09:30:03.354Z</time></trkpt><trkpt lat="44.6369928" lon="11.7061067"><ele>5.0</ele><time>2026-04-22T09:30:05.358Z</time></trkpt><trkpt lat="44.6369664" lon="11.7062623"><ele>5.0</ele><time>2026-04-22T09:30:07.349Z</time></trkpt><trkpt lat="44.6369471" lon="11.7064209"><ele>5.5</ele><time>2026-04-22T09:30:09.354Z</time></trkpt><trkpt lat="44.6369341" lon="11.7065834"><ele>6.0</ele><time>2026-04-22T09:30:11.343Z</time></trkpt><trkpt lat="44.636933" lon="11.7067481"><ele>6.5</ele><time>2026-04-22T09:30:13.345Z</time></trkpt><trkpt lat="44.6369494" lon="11.70691"><ele>7.0</ele><time>2026-04-22T09:30:15.347Z</time></trkpt><trkpt lat="44.6369811" lon="11.7070689"><ele>7.5</ele><time>2026-04-22T09:30:17.342Z</time></trkpt><trkpt lat="44.6370297" lon="11.7072184"><ele>8.0</ele><time>2026-04-22T09:30:19.346Z</time></trkpt><trkpt lat="44.6371014" lon="11.7073478"><ele>8.5</ele><time>2026-04-22T09:30:21.343Z</time></trkpt><trkpt lat="44.6371946" lon="11.7074484"><ele>9.0</ele><time>2026-04-22T09:30:23.349Z</time></trkpt><trkpt lat="44.637305" lon="11.7075102"><ele>9.0</ele><time>2026-04-22T09:30:25.339Z</time></trkpt><trkpt lat="44.6374214" lon="11.7075488"><ele>9.0</ele><time>2026-04-22T09:30:27.349Z</time></trkpt><trkpt lat="44.6375394" lon="11.7076004"><ele>9.0</ele><time>2026-04-22T09:30:29.349Z</time></trkpt><trkpt lat="44.6375945" lon="11.7076446"><ele>9.0</ele><time>2026-04-22T09:30:30.358Z</time></trkpt><trkpt lat="44.6376435" lon="11.7077021"><ele>9.0</ele><time>2026-04-22T09:30:31.347Z</time></trkpt><trkpt lat="44.6376849" lon="11.7077709"><ele>9.0</ele><time>2026-04-22T09:30:32.351Z</time></trkpt><trkpt lat="44.6377156" lon="11.7078492"><ele>9.2</ele><time>2026-04-22T09:30:33.35Z</time></trkpt><trkpt lat="44.6377359" lon="11.7079334"><ele>9.4</ele><time>2026-04-22T09:30:34.353Z</time></trkpt><trkpt lat="44.637754" lon="11.708108"><ele>9.6</ele><time>2026-04-22T09:30:36.35Z</time></trkpt><trkpt lat="44.6377499" lon="11.7082832"><ele>9.8</ele><time>2026-04-22T09:30:38.343Z</time></trkpt><trkpt lat="44.6377251" lon="11.7084534"><ele>10.0</ele><time>2026-04-22T09:30:40.346Z</time></trkpt><trkpt lat="44.6376824" lon="11.7086176"><ele>9.6</ele><time>2026-04-22T09:30:42.349Z</time></trkpt><trkpt lat="44.6376554" lon="11.7086978"><ele>9.2</ele><time>2026-04-22T09:30:43.34Z</time></trkpt><trkpt lat="44.6375895" lon="11.7088433"><ele>8.8</ele><time>2026-04-22T09:30:45.35Z</time></trkpt><trkpt lat="44.6375089" lon="11.7089732"><ele>8.4</ele><time>2026-04-22T09:30:47.339Z</time></trkpt><trkpt lat="44.637414" lon="11.7090813"><ele>8.0</ele><time>2026-04-22T09:30:49.342Z</time></trkpt><trkpt lat="44.6373136" lon="11.7091809"><ele>8.0</ele><time>2026-04-22T09:30:51.343Z</time></trkpt><trkpt lat="44.6372077" lon="11.7092711"><ele>8.0</ele><time>2026-04-22T09:30:53.349Z</time></trkpt><trkpt lat="44.6370996" lon="11.7093523"><ele>8.0</ele><time>2026-04-22T09:30:55.344Z</time></trkpt><trkpt lat="44.6369966" lon="11.7094446"><ele>8.0</ele><time>2026-04-22T09:30:57.344Z</time></trkpt><trkpt lat="44.6369034" lon="11.7095546"><ele>7.75</ele><time>2026-04-22T09:30:59.355Z</time></trkpt><trkpt lat="44.6368239" lon="11.709684"><ele>7.5</ele><time>2026-04-22T09:31:01.347Z</time></trkpt><trkpt lat="44.6367582" lon="11.7098262"><ele>7.25</ele><time>2026-04-22T09:31:03.349Z</time></trkpt><trkpt lat="44.636706" lon="11.7099799"><ele>7.0</ele><time>2026-04-22T09:31:05.357Z</time></trkpt><trkpt lat="44.6366695" lon="11.7101427"><ele>6.75</ele><time>2026-04-22T09:31:07.346Z</time></trkpt><trkpt lat="44.6366453" lon="11.7103088"><ele>6.5</ele><time>2026-04-22T09:31:09.347Z</time></trkpt><trkpt lat="44.6366393" lon="11.7104753"><ele>6.25</ele><time>2026-04-22T09:31:11.339Z</time></trkpt><trkpt lat="44.6366469" lon="11.7106405"><ele>6.0</ele><time>2026-04-22T09:31:13.34Z</time></trkpt><trkpt lat="44.636666" lon="11.7108015"><ele>6.0</ele><time>2026-04-22T09:31:15.352Z</time></trkpt><trkpt lat="44.6366941" lon="11.7109589"><ele>6.0</ele><time>2026-04-22T09:31:17.348Z</time></trkpt><trkpt lat="44.6367254" lon="11.7111154"><ele>6.0</ele><time>2026-04-22T09:31:19.347Z</time></trkpt><trkpt lat="44.6367572" lon="11.7112709"><ele>6.0</ele><time>2026-04-22T09:31:21.34Z</time></trkpt><trkpt lat="44.6367923" lon="11.7114261"><ele>6.0</ele><time>2026-04-22T09:31:23.347Z</time></trkpt><trkpt lat="44.6368297" lon="11.7115813"><ele>6.0</ele><time>2026-04-22T09:31:25.337Z</time></trkpt><trkpt lat="44.6368662" lon="11.7117382"><ele>6.0</ele><time>2026-04-22T09:31:27.341Z</time></trkpt><trkpt lat="44.6369046" lon="11.711896"><ele>6.0</ele><time>2026-04-22T09:31:29.337Z</time></trkpt><trkpt lat="44.6369378" lon="11.7120578"><ele>6.25</ele><time>2026-04-22T09:31:31.341Z</time></trkpt><trkpt lat="44.6369591" lon="11.7122228"><ele>6.5</ele><time>2026-04-22T09:31:33.339Z</time></trkpt><trkpt lat="44.6369679" lon="11.7123925"><ele>6.75</ele><time>2026-04-22T09:31:35.332Z</time></trkpt><trkpt lat="44.636967" lon="11.7125625"><ele>7.0</ele><time>2026-04-22T09:31:37.333Z</time></trkpt><trkpt lat="44.63696" lon="11.7127311"><ele>7.25</ele><time>2026-04-22T09:31:39.341Z</time></trkpt><trkpt lat="44.6369529" lon="11.7128975"><ele>7.5</ele><time>2026-04-22T09:31:41.359Z</time></trkpt><trkpt lat="44.6369468" lon="11.7130648"><ele>7.75</ele><time>2026-04-22T09:31:43.338Z</time></trkpt><trkpt lat="44.6369405" lon="11.7132306"><ele>8.0</ele><time>2026-04-22T09:31:45.336Z</time></trkpt><trkpt lat="44.6369335" lon="11.713394"><ele>8.0</ele><time>2026-04-22T09:31:47.346Z</time></trkpt><trkpt lat="44.6369262" lon="11.7135589"><ele>8.0</ele><time>2026-04-22T09:31:49.332Z</time></trkpt><trkpt lat="44.6369204" lon="11.7137257"><ele>8.0</ele><time>2026-04-22T09:31:51.342Z</time></trkpt><trkpt lat="44.6369135" lon="11.7138934"><ele>8.0</ele><time>2026-04-22T09:31:53.35Z</time></trkpt><trkpt lat="44.6369072" lon="11.7140616"><ele>7.75</ele><time>2026-04-22T09:31:55.346Z</time></trkpt><trkpt lat="44.6369017" lon="11.7142308"><ele>7.5</ele><time>2026-04-22T09:31:57.338Z</time></trkpt><trkpt lat="44.6368944" lon="11.7144001"><ele>7.25</ele><time>2026-04-22T09:31:59.342Z</time></trkpt><trkpt lat="44.6368884" lon="11.7145709"><ele>7.0</ele><time>2026-04-22T09:32:01.338Z</time></trkpt><trkpt lat="44.6368811" lon="11.7147408"><ele>7.0</ele><time>2026-04-22T09:32:03.338Z</time></trkpt><trkpt lat="44.6368744" lon="11.7149107"><ele>7.0</ele><time>2026-04-22T09:32:05.342Z</time></trkpt><trkpt lat="44.636868" lon="11.7150805"><ele>7.0</ele><time>2026-04-22T09:32:07.344Z</time></trkpt><trkpt lat="44.6368615" lon="11.7152503"><ele>7.0</ele><time>2026-04-22T09:32:09.344Z</time></trkpt><trkpt lat="44.6368544" lon="11.7154194"><ele>7.25</ele><time>2026-04-22T09:32:11.339Z</time></trkpt><trkpt lat="44.6368454" lon="11.7155855"><ele>7.5</ele><time>2026-04-22T09:32:13.339Z</time></trkpt><trkpt lat="44.6368385" lon="11.7157505"><ele>7.75</ele><time>2026-04-22T09:32:15.346Z</time></trkpt><trkpt lat="44.6368318" lon="11.7159168"><ele>8.0</ele><time>2026-04-22T09:32:17.34Z</time></trkpt><trkpt lat="44.6368239" lon="11.7160838"><ele>8.25</ele><time>2026-04-22T09:32:19.345Z</time></trkpt><trkpt lat="44.6368166" lon="11.7162498"><ele>8.5</ele><time>2026-04-22T09:32:21.347Z</time></trkpt><trkpt lat="44.6368096" lon="11.7164162"><ele>8.75</ele><time>2026-04-22T09:32:23.344Z</time></trkpt><trkpt lat="44.6368022" lon="11.7165803"><ele>9.0</ele><time>2026-04-22T09:32:25.345Z</time></trkpt><trkpt lat="44.6367944" lon="11.7167425"><ele>8.75</ele><time>2026-04-22T09:32:27.339Z</time></trkpt><trkpt lat="44.6367882" lon="11.7169037"><ele>8.5</ele><time>2026-04-22T09:32:29.345Z</time></trkpt><trkpt lat="44.6367807" lon="11.7170678"><ele>8.25</ele><time>2026-04-22T09:32:31.345Z</time></trkpt><trkpt lat="44.6367731" lon="11.7172327"><ele>8.0</ele><time>2026-04-22T09:32:33.339Z</time></trkpt><trkpt lat="44.6367682" lon="11.7173967"><ele>8.0</ele><time>2026-04-22T09:32:35.338Z</time></trkpt><trkpt lat="44.6367637" lon="11.717562"><ele>8.0</ele><time>2026-04-22T09:32:37.328Z</time></trkpt><trkpt lat="44.6367566" lon="11.7177261"><ele>8.0</ele><time>2026-04-22T09:32:39.351Z</time></trkpt><trkpt lat="44.6367499" lon="11.7178881"><ele>8.0</ele><time>2026-04-22T09:32:41.339Z</time></trkpt><trkpt lat="44.6367432" lon="11.7180485"><ele>8.0</ele><time>2026-04-22T09:32:43.342Z</time></trkpt><trkpt lat="44.6367364" lon="11.718208"><ele>8.0</ele><time>2026-04-22T09:32:45.348Z</time></trkpt><trkpt lat="44.6367292" lon="11.7183669"><ele>8.0</ele><time>2026-04-22T09:32:47.349Z</time></trkpt><trkpt lat="44.636722" lon="11.7185253"><ele>8.0</ele><time>2026-04-22T09:32:49.356Z</time></trkpt><trkpt lat="44.6367146" lon="11.7186839"><ele>8.0</ele><time>2026-04-22T09:32:51.349Z</time></trkpt><trkpt lat="44.6367086" lon="11.7188431"><ele>8.0</ele><time>2026-04-22T09:32:53.356Z</time></trkpt><trkpt lat="44.636703" lon="11.719001"><ele>8.0</ele><time>2026-04-22T09:32:55.351Z</time></trkpt><trkpt lat="44.6366953" lon="11.7191579"><ele>8.0</ele><time>2026-04-22T09:32:57.34Z</time></trkpt><trkpt lat="44.6366892" lon="11.7193145"><ele>8.0</ele><time>2026-04-22T09:32:59.348Z</time></trkpt><trkpt lat="44.6366819" lon="11.7194719"><ele>7.75</ele><time>2026-04-22T09:33:01.344Z</time></trkpt><trkpt lat="44.6366754" lon="11.7196295"><ele>7.5</ele><time>2026-04-22T09:33:03.353Z</time></trkpt><trkpt lat="44.6366694" lon="11.7197873"><ele>7.25</ele><time>2026-04-22T09:33:05.355Z</time></trkpt><trkpt lat="44.636663" lon="11.719947"><ele>7.0</ele><time>2026-04-22T09:33:07.336Z</time></trkpt><trkpt lat="44.6366556" lon="11.720106"><ele>7.5</ele><time>2026-04-22T09:33:09.343Z</time></trkpt><trkpt lat="44.6366485" lon="11.7202662"><ele>8.0</ele><time>2026-04-22T09:33:11.347Z</time></trkpt><trkpt lat="44.6366425" lon="11.7204274"><ele>8.5</ele><time>2026-04-22T09:33:13.348Z</time></trkpt><trkpt lat="44.6366375" lon="11.7205877"><ele>9.0</ele><time>2026-04-22T09:33:15.345Z</time></trkpt><trkpt lat="44.6366298" lon="11.7207462"><ele>9.0</ele><time>2026-04-22T09:33:17.35Z</time></trkpt><trkpt lat="44.6366226" lon="11.7209058"><ele>9.0</ele><time>2026-04-22T09:33:19.337Z</time></trkpt><trkpt lat="44.636617" lon="11.7210655"><ele>9.0</ele><time>2026-04-22T09:33:21.347Z</time></trkpt><trkpt lat="44.6366105" lon="11.7212226"><ele>9.0</ele><time>2026-04-22T09:33:23.35Z</time></trkpt><trkpt lat="44.6366043" lon="11.7213795"><ele>9.0</ele><time>2026-04-22T09:33:25.345Z</time></trkpt><trkpt lat="44.6365981" lon="11.7215371"><ele>9.0</ele><time>2026-04-22T09:33:27.352Z</time></trkpt><trkpt lat="44.6365925" lon="11.7216948"><ele>9.0</ele><time>2026-04-22T09:33:29.351Z</time></trkpt><trkpt lat="44.6365873" lon="11.7218526"><ele>9.0</ele><time>2026-04-22T09:33:31.349Z</time></trkpt><trkpt lat="44.6365803" lon="11.7220109"><ele>8.75</ele><time>2026-04-22T09:33:33.339Z</time></trkpt><trkpt lat="44.6365742" lon="11.7221689"><ele>8.5</ele><time>2026-04-22T09:33:35.35Z</time></trkpt><trkpt lat="44.6365682" lon="11.7223284"><ele>8.25</ele><time>2026-04-22T09:33:37.349Z</time></trkpt><trkpt lat="44.6365621" lon="11.7224908"><ele>8.0</ele><time>2026-04-22T09:33:39.34Z</time></trkpt><trkpt lat="44.6365552" lon="11.7226521"><ele>8.0</ele><time>2026-04-22T09:33:41.348Z</time></trkpt><trkpt lat="44.6365488" lon="11.7228139"><ele>8.0</ele><time>2026-04-22T09:33:43.352Z</time></trkpt><trkpt lat="44.6365421" lon="11.7229765"><ele>8.0</ele><time>2026-04-22T09:33:45.347Z</time></trkpt><trkpt lat="44.6365349" lon="11.7231393"><ele>8.0</ele><time>2026-04-22T09:33:47.347Z</time></trkpt><trkpt lat="44.63653" lon="11.7233029"><ele>8.0</ele><time>2026-04-22T09:33:49.343Z</time></trkpt><trkpt lat="44.6365224" lon="11.7234645"><ele>8.0</ele><time>2026-04-22T09:33:51.349Z</time></trkpt><trkpt lat="44.6365139" lon="11.7236282"><ele>8.0</ele><time>2026-04-22T09:33:53.342Z</time></trkpt><trkpt lat="44.636507" lon="11.7237928"><ele>8.0</ele><time>2026-04-22T09:33:55.35Z</time></trkpt><trkpt lat="44.6364996" lon="11.7239558"><ele>7.800000000000001</ele><time>2026-04-22T09:33:57.347Z</time></trkpt><trkpt lat="44.6364864" lon="11.7241171"><ele>7.6000000000000005</ele><time>2026-04-22T09:33:59.346Z</time></trkpt><trkpt lat="44.6364724" lon="11.7242727"><ele>7.3999999999999995</ele><time>2026-04-22T09:34:01.336Z</time></trkpt><trkpt lat="44.6365118" lon="11.7243857"><ele>7.199999999999999</ele><time>2026-04-22T09:34:03.337Z</time></trkpt><trkpt lat="44.6366089" lon="11.7243751"><ele>7.0</ele><time>2026-04-22T09:34:05.347Z</time></trkpt><trkpt lat="44.6366298" lon="11.7241946"><ele>7.000000000000001</ele><time>2026-04-22T09:34:07.347Z</time></trkpt><trkpt lat="44.6366438" lon="11.7240918"><ele>7.0</ele><time>2026-04-22T09:34:08.346Z</time></trkpt><trkpt lat="44.6366893" lon="11.7240013"><ele>7.0</ele><time>2026-04-22T09:34:09.346Z</time></trkpt><trkpt lat="44.6367578" lon="11.7239378"><ele>7.0</ele><time>2026-04-22T09:34:10.351Z</time></trkpt><trkpt lat="44.6368305" lon="11.7239071"><ele>7.000000000000001</ele><time>2026-04-22T09:34:11.341Z</time></trkpt><trkpt lat="44.6369088" lon="11.7239039"><ele>7.0</ele><time>2026-04-22T09:34:12.357Z</time></trkpt><trkpt lat="44.6369841" lon="11.7239153"><ele>7.000000000000001</ele><time>2026-04-22T09:34:13.333Z</time></trkpt><trkpt lat="44.637063" lon="11.723923"><ele>7.0</ele><time>2026-04-22T09:34:14.347Z</time></trkpt><trkpt lat="44.6371389" lon="11.7239274"><ele>7.0</ele><time>2026-04-22T09:34:15.354Z</time></trkpt><trkpt lat="44.6372147" lon="11.7239319"><ele>7.0</ele><time>2026-04-22T09:34:16.344Z</time></trkpt><trkpt lat="44.63729" lon="11.7239372"><ele>7.000000000000001</ele><time>2026-04-22T09:34:17.346Z</time></trkpt><trkpt lat="44.6373666" lon="11.7239423"><ele>7.0</ele><time>2026-04-22T09:34:18.345Z</time></trkpt><trkpt lat="44.6374394" lon="11.7239492"><ele>7.0</ele><time>2026-04-22T09:34:19.336Z</time></trkpt><trkpt lat="44.6375118" lon="11.7239539"><ele>7.0</ele><time>2026-04-22T09:34:20.351Z</time></trkpt><trkpt lat="44.6375847" lon="11.7239594"><ele>7.0</ele><time>2026-04-22T09:34:21.342Z</time></trkpt><trkpt lat="44.6376562" lon="11.7239649"><ele>7.0</ele><time>2026-04-22T09:34:22.351Z</time></trkpt><trkpt lat="44.6377283" lon="11.7239685"><ele>7.0</ele><time>2026-04-22T09:34:23.343Z</time></trkpt><trkpt lat="44.6377976" lon="11.723974"><ele>7.0</ele><time>2026-04-22T09:34:24.365Z</time></trkpt><trkpt lat="44.6378645" lon="11.7239785"><ele>7.0</ele><time>2026-04-22T09:34:25.348Z</time></trkpt><trkpt lat="44.6379303" lon="11.7239813"><ele>7.333333333333334</ele><time>2026-04-22T09:34:26.344Z</time></trkpt><trkpt lat="44.6379947" lon="11.7239853"><ele>7.666666666666667</ele><time>2026-04-22T09:34:27.352Z</time></trkpt><trkpt lat="44.6380592" lon="11.7239898"><ele>8.0</ele><time>2026-04-22T09:34:28.349Z</time></trkpt><trkpt lat="44.6381227" lon="11.7239939"><ele>8.333333333333334</ele><time>2026-04-22T09:34:29.352Z</time></trkpt><trkpt lat="44.6382458" lon="11.7240038"><ele>8.666666666666666</ele><time>2026-04-22T09:34:31.336Z</time></trkpt><trkpt lat="44.6383663" lon="11.7240099"><ele>9.0</ele><time>2026-04-22T09:34:33.343Z</time></trkpt><trkpt lat="44.6384869" lon="11.7240136"><ele>9.0</ele><time>2026-04-22T09:34:35.34Z</time></trkpt><trkpt lat="44.6386071" lon="11.7240159"><ele>9.0</ele><time>2026-04-22T09:34:37.346Z</time></trkpt><trkpt lat="44.63873" lon="11.7240267"><ele>9.0</ele><time>2026-04-22T09:34:39.344Z</time></trkpt><trkpt lat="44.6387931" lon="11.7240301"><ele>9.0</ele><time>2026-04-22T09:34:40.349Z</time></trkpt><trkpt lat="44.6388574" lon="11.7240318"><ele>9.0</ele><time>2026-04-22T09:34:41.348Z</time></trkpt><trkpt lat="44.6389236" lon="11.7240331"><ele>9.0</ele><time>2026-04-22T09:34:42.348Z</time></trkpt><trkpt lat="44.6389868" lon="11.7240347"><ele>8.666666666666666</ele><time>2026-04-22T09:34:43.346Z</time></trkpt><trkpt lat="44.6390532" lon="11.7240402"><ele>8.333333333333334</ele><time>2026-04-22T09:34:44.332Z</time></trkpt><trkpt lat="44.639119" lon="11.7240464"><ele>8.0</ele><time>2026-04-22T09:34:45.335Z</time></trkpt><trkpt lat="44.6391838" lon="11.7240546"><ele>7.666666666666667</ele><time>2026-04-22T09:34:46.341Z</time></trkpt><trkpt lat="44.6392482" lon="11.7240615"><ele>7.333333333333334</ele><time>2026-04-22T09:34:47.345Z</time></trkpt><trkpt lat="44.6393705" lon="11.7240733"><ele>7.0</ele><time>2026-04-22T09:34:49.348Z</time></trkpt><trkpt lat="44.6394847" lon="11.7240836"><ele>6.8</ele><time>2026-04-22T09:34:51.35Z</time></trkpt><trkpt lat="44.6395888" lon="11.7240946"><ele>6.6</ele><time>2026-04-22T09:34:53.354Z</time></trkpt><trkpt lat="44.6396807" lon="11.724129"><ele>6.3999999999999995</ele><time>2026-04-22T09:34:55.349Z</time></trkpt><trkpt lat="44.6397752" lon="11.7241834"><ele>6.199999999999999</ele><time>2026-04-22T09:34:57.345Z</time></trkpt><trkpt lat="44.6398738" lon="11.7242477"><ele>6.0</ele><time>2026-04-22T09:34:59.344Z</time></trkpt><trkpt lat="44.639976" lon="11.7243017"><ele>6.0</ele><time>2026-04-22T09:35:01.351Z</time></trkpt><trkpt lat="44.6400822" lon="11.7243567"><ele>6.0</ele><time>2026-04-22T09:35:03.343Z</time></trkpt><trkpt lat="44.6401903" lon="11.7244021"><ele>6.0</ele><time>2026-04-22T09:35:05.348Z</time></trkpt><trkpt lat="44.6402979" lon="11.7244403"><ele>6.0</ele><time>2026-04-22T09:35:07.347Z</time></trkpt><trkpt lat="44.6404034" lon="11.7244677"><ele>6.0</ele><time>2026-04-22T09:35:09.332Z</time></trkpt><trkpt lat="44.6405278" lon="11.7244906"><ele>6.0</ele><time>2026-04-22T09:35:11.346Z</time></trkpt><trkpt lat="44.6406471" lon="11.7245024"><ele>6.0</ele><time>2026-04-22T09:35:13.336Z</time></trkpt><trkpt lat="44.6407692" lon="11.7244997"><ele>6.0</ele><time>2026-04-22T09:35:15.357Z</time></trkpt><trkpt lat="44.640892" lon="11.7245001"><ele>6.0</ele><time>2026-04-22T09:35:17.35Z</time></trkpt><trkpt lat="44.6410122" lon="11.7244924"><ele>6.0</ele><time>2026-04-22T09:35:19.346Z</time></trkpt><trkpt lat="44.6411365" lon="11.7244737"><ele>6.0</ele><time>2026-04-22T09:35:21.348Z</time></trkpt><trkpt lat="44.6412591" lon="11.7244599"><ele>6.0</ele><time>2026-04-22T09:35:23.349Z</time></trkpt><trkpt lat="44.6413819" lon="11.7244466"><ele>6.0</ele><time>2026-04-22T09:35:25.344Z</time></trkpt><trkpt lat="44.641445" lon="11.7244407"><ele>6.0</ele><time>2026-04-22T09:35:26.347Z</time></trkpt><trkpt lat="44.6415684" lon="11.7244237"><ele>6.0</ele><time>2026-04-22T09:35:28.345Z</time></trkpt><trkpt lat="44.6416898" lon="11.7244045"><ele>6.0</ele><time>2026-04-22T09:35:30.346Z</time></trkpt><trkpt lat="44.6418128" lon="11.7243851"><ele>6.0</ele><time>2026-04-22T09:35:32.348Z</time></trkpt><trkpt lat="44.6419345" lon="11.724359"><ele>6.0</ele><time>2026-04-22T09:35:34.334Z</time></trkpt><trkpt lat="44.642056" lon="11.7243305"><ele>6.0</ele><time>2026-04-22T09:35:36.347Z</time></trkpt><trkpt lat="44.6421745" lon="11.7242952"><ele>6.0</ele><time>2026-04-22T09:35:38.34Z</time></trkpt><trkpt lat="44.6422946" lon="11.7242609"><ele>6.0</ele><time>2026-04-22T09:35:40.355Z</time></trkpt><trkpt lat="44.6424148" lon="11.7242222"><ele>6.0</ele><time>2026-04-22T09:35:42.352Z</time></trkpt><trkpt lat="44.6425353" lon="11.7241839"><ele>6.0</ele><time>2026-04-22T09:35:44.34Z</time></trkpt><trkpt lat="44.6426553" lon="11.7241389"><ele>6.0</ele><time>2026-04-22T09:35:46.343Z</time></trkpt><trkpt lat="44.6427171" lon="11.724115"><ele>6.0</ele><time>2026-04-22T09:35:47.344Z</time></trkpt><trkpt lat="44.6428374" lon="11.7240692"><ele>6.0</ele><time>2026-04-22T09:35:49.351Z</time></trkpt><trkpt lat="44.6429582" lon="11.7240206"><ele>6.0</ele><time>2026-04-22T09:35:51.343Z</time></trkpt><trkpt lat="44.6430786" lon="11.7239679"><ele>6.0</ele><time>2026-04-22T09:35:53.348Z</time></trkpt><trkpt lat="44.6431972" lon="11.723914"><ele>6.0</ele><time>2026-04-22T09:35:55.349Z</time></trkpt><trkpt lat="44.6433168" lon="11.7238633"><ele>6.0</ele><time>2026-04-22T09:35:57.345Z</time></trkpt><trkpt lat="44.6434347" lon="11.7238131"><ele>6.0</ele><time>2026-04-22T09:35:59.346Z</time></trkpt><trkpt lat="44.6435521" lon="11.7237617"><ele>6.25</ele><time>2026-04-22T09:36:01.345Z</time></trkpt><trkpt lat="44.6436685" lon="11.7237117"><ele>6.5</ele><time>2026-04-22T09:36:03.347Z</time></trkpt><trkpt lat="44.6437841" lon="11.7236649"><ele>6.75</ele><time>2026-04-22T09:36:05.357Z</time></trkpt><trkpt lat="44.643898" lon="11.7236188"><ele>7.0</ele><time>2026-04-22T09:36:07.356Z</time></trkpt><trkpt lat="44.6440134" lon="11.7235735"><ele>6.75</ele><time>2026-04-22T09:36:09.339Z</time></trkpt><trkpt lat="44.6441285" lon="11.7235259"><ele>6.5</ele><time>2026-04-22T09:36:11.34Z</time></trkpt><trkpt lat="44.6442433" lon="11.7234768"><ele>6.25</ele><time>2026-04-22T09:36:13.34Z</time></trkpt><trkpt lat="44.644359" lon="11.7234282"><ele>6.0</ele><time>2026-04-22T09:36:15.352Z</time></trkpt><trkpt lat="44.6444735" lon="11.7233871"><ele>6.0</ele><time>2026-04-22T09:36:17.343Z</time></trkpt><trkpt lat="44.6445895" lon="11.7233408"><ele>6.0</ele><time>2026-04-22T09:36:19.349Z</time></trkpt><trkpt lat="44.6447058" lon="11.7232941"><ele>6.0</ele><time>2026-04-22T09:36:21.343Z</time></trkpt><trkpt lat="44.644822" lon="11.7232473"><ele>6.0</ele><time>2026-04-22T09:36:23.35Z</time></trkpt><trkpt lat="44.6449379" lon="11.7232007"><ele>6.0</ele><time>2026-04-22T09:36:25.354Z</time></trkpt><trkpt lat="44.645054" lon="11.7231523"><ele>6.0</ele><time>2026-04-22T09:36:27.344Z</time></trkpt><trkpt lat="44.6451706" lon="11.7231089"><ele>6.0</ele><time>2026-04-22T09:36:29.344Z</time></trkpt><trkpt lat="44.645286" lon="11.7230654"><ele>6.0</ele><time>2026-04-22T09:36:31.352Z</time></trkpt><trkpt lat="44.6454039" lon="11.7230218"><ele>6.25</ele><time>2026-04-22T09:36:33.336Z</time></trkpt><trkpt lat="44.645524" lon="11.7229779"><ele>6.5</ele><time>2026-04-22T09:36:35.337Z</time></trkpt><trkpt lat="44.6456429" lon="11.7229375"><ele>6.75</ele><time>2026-04-22T09:36:37.357Z</time></trkpt><trkpt lat="44.6457665" lon="11.7229093"><ele>7.0</ele><time>2026-04-22T09:36:39.345Z</time></trkpt><trkpt lat="44.6458891" lon="11.722881"><ele>7.0</ele><time>2026-04-22T09:36:41.343Z</time></trkpt><trkpt lat="44.646013" lon="11.7228606"><ele>7.0</ele><time>2026-04-22T09:36:43.354Z</time></trkpt><trkpt lat="44.6461379" lon="11.7228519"><ele>7.0</ele><time>2026-04-22T09:36:45.352Z</time></trkpt><trkpt lat="44.646264" lon="11.7228524"><ele>7.0</ele><time>2026-04-22T09:36:47.348Z</time></trkpt><trkpt lat="44.6463885" lon="11.7228848"><ele>6.833333333333334</ele><time>2026-04-22T09:36:49.351Z</time></trkpt><trkpt lat="44.646449" lon="11.7229127"><ele>6.666666666666667</ele><time>2026-04-22T09:36:50.339Z</time></trkpt><trkpt lat="44.6465067" lon="11.7229503"><ele>6.5</ele><time>2026-04-22T09:36:51.348Z</time></trkpt><trkpt lat="44.6466093" lon="11.7230485"><ele>6.333333333333334</ele><time>2026-04-22T09:36:53.346Z</time></trkpt><trkpt lat="44.646657" lon="11.7231063"><ele>6.166666666666667</ele><time>2026-04-22T09:36:54.346Z</time></trkpt><trkpt lat="44.6467397" lon="11.7232368"><ele>6.0</ele><time>2026-04-22T09:36:56.349Z</time></trkpt><trkpt lat="44.6468037" lon="11.7233833"><ele>6.0</ele><time>2026-04-22T09:36:58.344Z</time></trkpt><trkpt lat="44.6468622" lon="11.7235354"><ele>6.0</ele><time>2026-04-22T09:37:00.341Z</time></trkpt><trkpt lat="44.646913" lon="11.7236931"><ele>6.0</ele><time>2026-04-22T09:37:02.338Z</time></trkpt><trkpt lat="44.6469586" lon="11.7238544"><ele>6.0</ele><time>2026-04-22T09:37:04.347Z</time></trkpt><trkpt lat="44.6470011" lon="11.7240192"><ele>5.5</ele><time>2026-04-22T09:37:06.337Z</time></trkpt><trkpt lat="44.6470445" lon="11.7241839"><ele>5.0</ele><time>2026-04-22T09:37:08.347Z</time></trkpt><trkpt lat="44.6470902" lon="11.7243464"><ele>4.5</ele><time>2026-04-22T09:37:10.347Z</time></trkpt><trkpt lat="44.6471342" lon="11.7245119"><ele>4.0</ele><time>2026-04-22T09:37:12.341Z</time></trkpt><trkpt lat="44.6471796" lon="11.7246766"><ele>4.0</ele><time>2026-04-22T09:37:14.347Z</time></trkpt><trkpt lat="44.6472249" lon="11.7248373"><ele>4.0</ele><time>2026-04-22T09:37:16.35Z</time></trkpt><trkpt lat="44.6472458" lon="11.7249219"><ele>4.0</ele><time>2026-04-22T09:37:17.344Z</time></trkpt><trkpt lat="44.6472943" lon="11.7250786"><ele>4.0</ele><time>2026-04-22T09:37:19.347Z</time></trkpt><trkpt lat="44.6473312" lon="11.7252358"><ele>4.0</ele><time>2026-04-22T09:37:21.34Z</time></trkpt><trkpt lat="44.6473574" lon="11.725324"><ele>4.4</ele><time>2026-04-22T09:37:22.341Z</time></trkpt><trkpt lat="44.6473811" lon="11.725409"><ele>4.800000000000001</ele><time>2026-04-22T09:37:23.336Z</time></trkpt><trkpt lat="44.6474057" lon="11.7254999"><ele>5.199999999999999</ele><time>2026-04-22T09:37:24.344Z</time></trkpt><trkpt lat="44.6474551" lon="11.7256668"><ele>5.6</ele><time>2026-04-22T09:37:26.34Z</time></trkpt><trkpt lat="44.6475015" lon="11.7258253"><ele>6.0</ele><time>2026-04-22T09:37:28.341Z</time></trkpt><trkpt lat="44.6475269" lon="11.7259096"><ele>6.4</ele><time>2026-04-22T09:37:29.344Z</time></trkpt><trkpt lat="44.6475739" lon="11.7260724"><ele>6.8</ele><time>2026-04-22T09:37:31.345Z</time></trkpt><trkpt lat="44.6476204" lon="11.7262361"><ele>7.200000000000001</ele><time>2026-04-22T09:37:33.343Z</time></trkpt><trkpt lat="44.6476433" lon="11.7263186"><ele>7.6000000000000005</ele><time>2026-04-22T09:37:34.342Z</time></trkpt><trkpt lat="44.6476673" lon="11.7264017"><ele>8.0</ele><time>2026-04-22T09:37:35.342Z</time></trkpt><trkpt lat="44.6477157" lon="11.7265585"><ele>8.0</ele><time>2026-04-22T09:37:37.33Z</time></trkpt><trkpt lat="44.6477607" lon="11.7267044"><ele>8.0</ele><time>2026-04-22T09:37:39.344Z</time></trkpt><trkpt lat="44.6478074" lon="11.7268462"><ele>8.0</ele><time>2026-04-22T09:37:41.34Z</time></trkpt><trkpt lat="44.6478418" lon="11.7269281"><ele>8.0</ele><time>2026-04-22T09:37:42.342Z</time></trkpt><trkpt lat="44.6479071" lon="11.7270749"><ele>8.0</ele><time>2026-04-22T09:37:44.341Z</time></trkpt><trkpt lat="44.6479884" lon="11.7272074"><ele>7.6000000000000005</ele><time>2026-04-22T09:37:46.348Z</time></trkpt><trkpt lat="44.6480653" lon="11.7273162"><ele>7.200000000000001</ele><time>2026-04-22T09:37:48.347Z</time></trkpt><trkpt lat="44.6481178" lon="11.7273677"><ele>6.8</ele><time>2026-04-22T09:37:49.338Z</time></trkpt><trkpt lat="44.6482193" lon="11.7274644"><ele>6.4</ele><time>2026-04-22T09:37:51.343Z</time></trkpt><trkpt lat="44.6483227" lon="11.727559"><ele>6.0</ele><time>2026-04-22T09:37:53.35Z</time></trkpt><trkpt lat="44.6484317" lon="11.7276252"><ele>6.0</ele><time>2026-04-22T09:37:55.344Z</time></trkpt><trkpt lat="44.6485472" lon="11.7276777"><ele>6.0</ele><time>2026-04-22T09:37:57.338Z</time></trkpt><trkpt lat="44.648668" lon="11.72771"><ele>6.0</ele><time>2026-04-22T09:37:59.355Z</time></trkpt><trkpt lat="44.648787" lon="11.7277301"><ele>6.0</ele><time>2026-04-22T09:38:01.34Z</time></trkpt><trkpt lat="44.648908" lon="11.7277234"><ele>6.0</ele><time>2026-04-22T09:38:03.344Z</time></trkpt><trkpt lat="44.6490277" lon="11.7276842"><ele>6.0</ele><time>2026-04-22T09:38:05.341Z</time></trkpt><trkpt lat="44.6491437" lon="11.7276368"><ele>6.0</ele><time>2026-04-22T09:38:07.344Z</time></trkpt><trkpt lat="44.6492584" lon="11.7275807"><ele>6.0</ele><time>2026-04-22T09:38:09.346Z</time></trkpt><trkpt lat="44.6493692" lon="11.7275243"><ele>6.25</ele><time>2026-04-22T09:38:11.331Z</time></trkpt><trkpt lat="44.649476" lon="11.7274712"><ele>6.5</ele><time>2026-04-22T09:38:13.339Z</time></trkpt><trkpt lat="44.6495846" lon="11.7274194"><ele>6.75</ele><time>2026-04-22T09:38:15.345Z</time></trkpt><trkpt lat="44.6496958" lon="11.7273567"><ele>7.0</ele><time>2026-04-22T09:38:17.352Z</time></trkpt><trkpt lat="44.6498" lon="11.7272973"><ele>7.0</ele><time>2026-04-22T09:38:19.347Z</time></trkpt><trkpt lat="44.6499125" lon="11.7272371"><ele>6.999999999999999</ele><time>2026-04-22T09:38:21.347Z</time></trkpt><trkpt lat="44.6500176" lon="11.7271783"><ele>6.999999999999999</ele><time>2026-04-22T09:38:23.345Z</time></trkpt><trkpt lat="44.6500771" lon="11.7271426"><ele>7.0</ele><time>2026-04-22T09:38:24.348Z</time></trkpt><trkpt lat="44.6501935" lon="11.7270842"><ele>7.0</ele><time>2026-04-22T09:38:26.346Z</time></trkpt><trkpt lat="44.6503095" lon="11.72702"><ele>6.833333333333334</ele><time>2026-04-22T09:38:28.341Z</time></trkpt><trkpt lat="44.6504209" lon="11.7269529"><ele>6.666666666666667</ele><time>2026-04-22T09:38:30.341Z</time></trkpt><trkpt lat="44.6504811" lon="11.726921"><ele>6.5</ele><time>2026-04-22T09:38:31.346Z</time></trkpt><trkpt lat="44.650542" lon="11.7268913"><ele>6.333333333333334</ele><time>2026-04-22T09:38:32.342Z</time></trkpt><trkpt lat="44.6506562" lon="11.726826"><ele>6.166666666666667</ele><time>2026-04-22T09:38:34.34Z</time></trkpt><trkpt lat="44.6507161" lon="11.726797"><ele>6.0</ele><time>2026-04-22T09:38:35.343Z</time></trkpt><trkpt lat="44.6507766" lon="11.7267659"><ele>6.0</ele><time>2026-04-22T09:38:36.352Z</time></trkpt><trkpt lat="44.6508364" lon="11.726736"><ele>6.0</ele><time>2026-04-22T09:38:37.351Z</time></trkpt><trkpt lat="44.6508961" lon="11.7267064"><ele>6.0</ele><time>2026-04-22T09:38:38.346Z</time></trkpt><trkpt lat="44.6510014" lon="11.7266526"><ele>6.0</ele><time>2026-04-22T09:38:40.359Z</time></trkpt><trkpt lat="44.6510646" lon="11.7266286"><ele>6.0</ele><time>2026-04-22T09:38:41.344Z</time></trkpt><trkpt lat="44.6511779" lon="11.7265784"><ele>6.0</ele><time>2026-04-22T09:38:43.339Z</time></trkpt><trkpt lat="44.6512949" lon="11.7265291"><ele>5.999999999999999</ele><time>2026-04-22T09:38:45.339Z</time></trkpt><trkpt lat="44.6513599" lon="11.7265106"><ele>6.0</ele><time>2026-04-22T09:38:46.349Z</time></trkpt><trkpt lat="44.6514285" lon="11.7264941"><ele>6.0</ele><time>2026-04-22T09:38:47.349Z</time></trkpt><trkpt lat="44.6514989" lon="11.726488"><ele>6.0</ele><time>2026-04-22T09:38:48.353Z</time></trkpt><trkpt lat="44.6515691" lon="11.7264827"><ele>6.0</ele><time>2026-04-22T09:38:49.343Z</time></trkpt><trkpt lat="44.6516341" lon="11.726476"><ele>5.999999999999999</ele><time>2026-04-22T09:38:50.342Z</time></trkpt><trkpt lat="44.6517001" lon="11.7264734"><ele>6.0</ele><time>2026-04-22T09:38:51.351Z</time></trkpt><trkpt lat="44.651764" lon="11.7264727"><ele>5.999999999999999</ele><time>2026-04-22T09:38:52.345Z</time></trkpt><trkpt lat="44.6518272" lon="11.7264788"><ele>6.0</ele><time>2026-04-22T09:38:53.344Z</time></trkpt><trkpt lat="44.6518902" lon="11.7264883"><ele>6.0</ele><time>2026-04-22T09:38:54.338Z</time></trkpt><trkpt lat="44.6519546" lon="11.7264971"><ele>6.0</ele><time>2026-04-22T09:38:55.354Z</time></trkpt><trkpt lat="44.652019" lon="11.7265083"><ele>6.0</ele><time>2026-04-22T09:38:56.341Z</time></trkpt><trkpt lat="44.6520835" lon="11.7265158"><ele>5.999999999999999</ele><time>2026-04-22T09:38:57.348Z</time></trkpt><trkpt lat="44.6521474" lon="11.7265242"><ele>6.0</ele><time>2026-04-22T09:38:58.352Z</time></trkpt><trkpt lat="44.652212" lon="11.7265339"><ele>6.0</ele><time>2026-04-22T09:38:59.348Z</time></trkpt><trkpt lat="44.6522754" lon="11.7265424"><ele>6.0</ele><time>2026-04-22T09:39:00.347Z</time></trkpt><trkpt lat="44.6523401" lon="11.7265531"><ele>6.0</ele><time>2026-04-22T09:39:01.336Z</time></trkpt><trkpt lat="44.6524042" lon="11.7265664"><ele>6.0</ele><time>2026-04-22T09:39:02.346Z</time></trkpt><trkpt lat="44.6524682" lon="11.7265794"><ele>6.0</ele><time>2026-04-22T09:39:03.343Z</time></trkpt><trkpt lat="44.6525302" lon="11.7265978"><ele>6.0</ele><time>2026-04-22T09:39:04.343Z</time></trkpt><trkpt lat="44.6525917" lon="11.7266198"><ele>6.0</ele><time>2026-04-22T09:39:05.341Z</time></trkpt><trkpt lat="44.652652" lon="11.7266456"><ele>6.0</ele><time>2026-04-22T09:39:06.353Z</time></trkpt><trkpt lat="44.6527126" lon="11.7266729"><ele>6.0</ele><time>2026-04-22T09:39:07.337Z</time></trkpt><trkpt lat="44.6527738" lon="11.7267031"><ele>6.0</ele><time>2026-04-22T09:39:08.353Z</time></trkpt><trkpt lat="44.6528345" lon="11.7267325"><ele>6.0</ele><time>2026-04-22T09:39:09.353Z</time></trkpt><trkpt lat="44.6528941" lon="11.7267623"><ele>6.0</ele><time>2026-04-22T09:39:10.343Z</time></trkpt><trkpt lat="44.6530103" lon="11.7268316"><ele>6.0</ele><time>2026-04-22T09:39:12.346Z</time></trkpt><trkpt lat="44.6530678" lon="11.7268708"><ele>6.0</ele><time>2026-04-22T09:39:13.347Z</time></trkpt><trkpt lat="44.6531757" lon="11.7269457"><ele>6.0</ele><time>2026-04-22T09:39:15.354Z</time></trkpt><trkpt lat="44.6532319" lon="11.7269877"><ele>6.0</ele><time>2026-04-22T09:39:16.344Z</time></trkpt><trkpt lat="44.6533404" lon="11.727081"><ele>6.0</ele><time>2026-04-22T09:39:18.339Z</time></trkpt><trkpt lat="44.6534439" lon="11.7271799"><ele>6.0</ele><time>2026-04-22T09:39:20.349Z</time></trkpt><trkpt lat="44.6535392" lon="11.7272868"><ele>6.0</ele><time>2026-04-22T09:39:22.337Z</time></trkpt><trkpt lat="44.6535898" lon="11.7273425"><ele>6.0</ele><time>2026-04-22T09:39:23.355Z</time></trkpt><trkpt lat="44.65364" lon="11.7273966"><ele>6.0</ele><time>2026-04-22T09:39:24.347Z</time></trkpt><trkpt lat="44.6537347" lon="11.7275042"><ele>6.0</ele><time>2026-04-22T09:39:26.341Z</time></trkpt><trkpt lat="44.6537834" lon="11.7275622"><ele>6.0</ele><time>2026-04-22T09:39:27.341Z</time></trkpt><trkpt lat="44.6538777" lon="11.727673"><ele>6.0</ele><time>2026-04-22T09:39:29.34Z</time></trkpt><trkpt lat="44.6539674" lon="11.7277823"><ele>6.0</ele><time>2026-04-22T09:39:31.357Z</time></trkpt><trkpt lat="44.6540641" lon="11.7278904"><ele>6.0</ele><time>2026-04-22T09:39:33.346Z</time></trkpt><trkpt lat="44.6541543" lon="11.7279896"><ele>6.0</ele><time>2026-04-22T09:39:35.344Z</time></trkpt><trkpt lat="44.6542046" lon="11.7280464"><ele>6.0</ele><time>2026-04-22T09:39:36.336Z</time></trkpt><trkpt lat="44.6542571" lon="11.7281023"><ele>6.0</ele><time>2026-04-22T09:39:37.358Z</time></trkpt><trkpt lat="44.6543096" lon="11.7281582"><ele>6.0</ele><time>2026-04-22T09:39:38.34Z</time></trkpt><trkpt lat="44.6543566" lon="11.7282171"><ele>6.0</ele><time>2026-04-22T09:39:39.343Z</time></trkpt><trkpt lat="44.6544497" lon="11.7283341"><ele>6.0</ele><time>2026-04-22T09:39:41.352Z</time></trkpt><trkpt lat="44.6545425" lon="11.7284538"><ele>6.0</ele><time>2026-04-22T09:39:43.342Z</time></trkpt><trkpt lat="44.654633" lon="11.728565"><ele>6.0</ele><time>2026-04-22T09:39:45.348Z</time></trkpt><trkpt lat="44.6546776" lon="11.7286289"><ele>6.0</ele><time>2026-04-22T09:39:46.35Z</time></trkpt><trkpt lat="44.6547209" lon="11.728694"><ele>6.0</ele><time>2026-04-22T09:39:47.35Z</time></trkpt><trkpt lat="44.654765" lon="11.7287586"><ele>6.0</ele><time>2026-04-22T09:39:48.34Z</time></trkpt><trkpt lat="44.6548489" lon="11.7288865"><ele>6.0</ele><time>2026-04-22T09:39:50.339Z</time></trkpt><trkpt lat="44.6548917" lon="11.7289527"><ele>6.0</ele><time>2026-04-22T09:39:51.344Z</time></trkpt><trkpt lat="44.6549335" lon="11.729019"><ele>6.0</ele><time>2026-04-22T09:39:52.349Z</time></trkpt><trkpt lat="44.6550135" lon="11.72915"><ele>6.0</ele><time>2026-04-22T09:39:54.341Z</time></trkpt><trkpt lat="44.655094" lon="11.7292831"><ele>5.999999999999999</ele><time>2026-04-22T09:39:56.349Z</time></trkpt><trkpt lat="44.6551361" lon="11.729352"><ele>6.0</ele><time>2026-04-22T09:39:57.34Z</time></trkpt><trkpt lat="44.6551785" lon="11.7294199"><ele>6.0</ele><time>2026-04-22T09:39:58.344Z</time></trkpt><trkpt lat="44.6552192" lon="11.7294901"><ele>6.0</ele><time>2026-04-22T09:39:59.349Z</time></trkpt><trkpt lat="44.6552596" lon="11.7295608"><ele>6.0</ele><time>2026-04-22T09:40:00.348Z</time></trkpt><trkpt lat="44.6553011" lon="11.7296299"><ele>5.999999999999999</ele><time>2026-04-22T09:40:01.352Z</time></trkpt><trkpt lat="44.6553425" lon="11.729699"><ele>6.0</ele><time>2026-04-22T09:40:02.348Z</time></trkpt><trkpt lat="44.6553831" lon="11.7297696"><ele>6.166666666666667</ele><time>2026-04-22T09:40:03.341Z</time></trkpt><trkpt lat="44.6554248" lon="11.7298376"><ele>6.333333333333334</ele><time>2026-04-22T09:40:04.346Z</time></trkpt><trkpt lat="44.655467" lon="11.7299053"><ele>6.5</ele><time>2026-04-22T09:40:05.346Z</time></trkpt><trkpt lat="44.6555102" lon="11.7299713"><ele>6.666666666666667</ele><time>2026-04-22T09:40:06.338Z</time></trkpt><trkpt lat="44.6555938" lon="11.7301048"><ele>6.833333333333334</ele><time>2026-04-22T09:40:08.341Z</time></trkpt><trkpt lat="44.655677" lon="11.7302359"><ele>7.0</ele><time>2026-04-22T09:40:10.336Z</time></trkpt><trkpt lat="44.6557605" lon="11.7303661"><ele>7.0</ele><time>2026-04-22T09:40:12.344Z</time></trkpt><trkpt lat="44.655843" lon="11.7304949"><ele>7.0</ele><time>2026-04-22T09:40:14.346Z</time></trkpt><trkpt lat="44.6559284" lon="11.7306214"><ele>7.0</ele><time>2026-04-22T09:40:16.338Z</time></trkpt><trkpt lat="44.6560076" lon="11.7307469"><ele>7.0</ele><time>2026-04-22T09:40:18.355Z</time></trkpt><trkpt lat="44.656087" lon="11.7308821"><ele>6.3999999999999995</ele><time>2026-04-22T09:40:20.342Z</time></trkpt><trkpt lat="44.6561581" lon="11.7310222"><ele>5.799999999999999</ele><time>2026-04-22T09:40:22.347Z</time></trkpt><trkpt lat="44.6562245" lon="11.7311678"><ele>5.2</ele><time>2026-04-22T09:40:24.341Z</time></trkpt><trkpt lat="44.6562553" lon="11.7312459"><ele>4.6</ele><time>2026-04-22T09:40:25.344Z</time></trkpt><trkpt lat="44.6563166" lon="11.7313957"><ele>4.0</ele><time>2026-04-22T09:40:27.34Z</time></trkpt><trkpt lat="44.6563777" lon="11.7315432"><ele>4.0</ele><time>2026-04-22T09:40:29.337Z</time></trkpt><trkpt lat="44.6564353" lon="11.7316946"><ele>4.0</ele><time>2026-04-22T09:40:31.346Z</time></trkpt><trkpt lat="44.6564879" lon="11.731844"><ele>4.0</ele><time>2026-04-22T09:40:33.341Z</time></trkpt><trkpt lat="44.6565193" lon="11.7319217"><ele>4.0</ele><time>2026-04-22T09:40:34.343Z</time></trkpt><trkpt lat="44.6565776" lon="11.7320715"><ele>4.0</ele><time>2026-04-22T09:40:36.344Z</time></trkpt><trkpt lat="44.6566334" lon="11.7322232"><ele>4.333333333333333</ele><time>2026-04-22T09:40:38.346Z</time></trkpt><trkpt lat="44.656684" lon="11.7323728"><ele>4.666666666666666</ele><time>2026-04-22T09:40:40.341Z</time></trkpt><trkpt lat="44.6567107" lon="11.7324545"><ele>5.0</ele><time>2026-04-22T09:40:41.347Z</time></trkpt><trkpt lat="44.656735" lon="11.7325363"><ele>5.333333333333333</ele><time>2026-04-22T09:40:42.343Z</time></trkpt><trkpt lat="44.6567789" lon="11.7326967"><ele>5.666666666666667</ele><time>2026-04-22T09:40:44.338Z</time></trkpt><trkpt lat="44.6568012" lon="11.7327858"><ele>6.0</ele><time>2026-04-22T09:40:45.339Z</time></trkpt><trkpt lat="44.6568221" lon="11.7328696"><ele>6.0</ele><time>2026-04-22T09:40:46.34Z</time></trkpt><trkpt lat="44.6568637" lon="11.733037"><ele>6.0</ele><time>2026-04-22T09:40:48.341Z</time></trkpt><trkpt lat="44.6569005" lon="11.7332054"><ele>6.0</ele><time>2026-04-22T09:40:50.337Z</time></trkpt><trkpt lat="44.6569342" lon="11.7333732"><ele>6.0</ele><time>2026-04-22T09:40:52.347Z</time></trkpt><trkpt lat="44.6569663" lon="11.7335319"><ele>4.75</ele><time>2026-04-22T09:40:54.335Z</time></trkpt><trkpt lat="44.656999" lon="11.7336995"><ele>3.5</ele><time>2026-04-22T09:40:56.342Z</time></trkpt><trkpt lat="44.6570308" lon="11.7338698"><ele>2.25</ele><time>2026-04-22T09:40:58.336Z</time></trkpt><trkpt lat="44.6570616" lon="11.7340356"><ele>1.0</ele><time>2026-04-22T09:41:00.342Z</time></trkpt><trkpt lat="44.6570952" lon="11.7342022"><ele>0.9999999999999999</ele><time>2026-04-22T09:41:02.337Z</time></trkpt><trkpt lat="44.6571255" lon="11.7343716"><ele>1.0</ele><time>2026-04-22T09:41:04.351Z</time></trkpt><trkpt lat="44.6571369" lon="11.7344593"><ele>1.0</ele><time>2026-04-22T09:41:05.333Z</time></trkpt><trkpt lat="44.6571478" lon="11.734548"><ele>1.0</ele><time>2026-04-22T09:41:06.341Z</time></trkpt><trkpt lat="44.6571703" lon="11.7347236"><ele>0.9999999999999999</ele><time>2026-04-22T09:41:08.344Z</time></trkpt><trkpt lat="44.6571797" lon="11.7348139"><ele>1.0</ele><time>2026-04-22T09:41:09.342Z</time></trkpt><trkpt lat="44.6571875" lon="11.7349026"><ele>1.0</ele><time>2026-04-22T09:41:10.347Z</time></trkpt><trkpt lat="44.6572045" lon="11.7350749"><ele>1.0</ele><time>2026-04-22T09:41:12.35Z</time></trkpt><trkpt lat="44.6572191" lon="11.7352485"><ele>1.0</ele><time>2026-04-22T09:41:14.345Z</time></trkpt><trkpt lat="44.6572232" lon="11.7353377"><ele>1.0</ele><time>2026-04-22T09:41:15.337Z</time></trkpt><trkpt lat="44.6572255" lon="11.7354275"><ele>1.0</ele><time>2026-04-22T09:41:16.34Z</time></trkpt><trkpt lat="44.6572304" lon="11.7355988"><ele>1.0</ele><time>2026-04-22T09:41:18.339Z</time></trkpt><trkpt lat="44.6572412" lon="11.7357715"><ele>1.0</ele><time>2026-04-22T09:41:20.34Z</time></trkpt><trkpt lat="44.6572458" lon="11.7359438"><ele>1.0</ele><time>2026-04-22T09:41:22.34Z</time></trkpt><trkpt lat="44.657247" lon="11.736112"><ele>1.0</ele><time>2026-04-22T09:41:24.344Z</time></trkpt><trkpt lat="44.6572528" lon="11.7362796"><ele>1.0</ele><time>2026-04-22T09:41:26.351Z</time></trkpt><trkpt lat="44.6572544" lon="11.7364479"><ele>1.0</ele><time>2026-04-22T09:41:28.343Z</time></trkpt><trkpt lat="44.6572586" lon="11.736616"><ele>1.0</ele><time>2026-04-22T09:41:30.342Z</time></trkpt><trkpt lat="44.6572624" lon="11.7367868"><ele>1.0</ele><time>2026-04-22T09:41:32.338Z</time></trkpt><trkpt lat="44.657267" lon="11.7369578"><ele>1.0</ele><time>2026-04-22T09:41:34.34Z</time></trkpt><trkpt lat="44.6572697" lon="11.7371304"><ele>1.0</ele><time>2026-04-22T09:41:36.341Z</time></trkpt><trkpt lat="44.6572735" lon="11.7373014"><ele>1.0</ele><time>2026-04-22T09:41:38.347Z</time></trkpt><trkpt lat="44.6572752" lon="11.7374704"><ele>1.0</ele><time>2026-04-22T09:41:40.333Z</time></trkpt><trkpt lat="44.6572779" lon="11.7376385"><ele>1.25</ele><time>2026-04-22T09:41:42.342Z</time></trkpt><trkpt lat="44.6572798" lon="11.7378074"><ele>1.5</ele><time>2026-04-22T09:41:44.339Z</time></trkpt><trkpt lat="44.6572788" lon="11.7379776"><ele>1.75</ele><time>2026-04-22T09:41:46.327Z</time></trkpt><trkpt lat="44.6572767" lon="11.7381488"><ele>2.0</ele><time>2026-04-22T09:41:48.339Z</time></trkpt><trkpt lat="44.6572705" lon="11.7383191"><ele>2.0</ele><time>2026-04-22T09:41:50.34Z</time></trkpt><trkpt lat="44.657262" lon="11.7384892"><ele>2.0</ele><time>2026-04-22T09:41:52.354Z</time></trkpt><trkpt lat="44.657249" lon="11.7386574"><ele>2.0</ele><time>2026-04-22T09:41:54.341Z</time></trkpt><trkpt lat="44.6572357" lon="11.7388255"><ele>2.0</ele><time>2026-04-22T09:41:56.344Z</time></trkpt><trkpt lat="44.6572253" lon="11.7389928"><ele>2.0</ele><time>2026-04-22T09:41:58.339Z</time></trkpt><trkpt lat="44.6572142" lon="11.7391593"><ele>2.0</ele><time>2026-04-22T09:42:00.34Z</time></trkpt><trkpt lat="44.6572041" lon="11.7393248"><ele>2.0</ele><time>2026-04-22T09:42:02.336Z</time></trkpt><trkpt lat="44.6571922" lon="11.7394897"><ele>2.0</ele><time>2026-04-22T09:42:04.341Z</time></trkpt><trkpt lat="44.6571838" lon="11.7396567"><ele>1.75</ele><time>2026-04-22T09:42:06.349Z</time></trkpt><trkpt lat="44.6571727" lon="11.7398233"><ele>1.5</ele><time>2026-04-22T09:42:08.346Z</time></trkpt><trkpt lat="44.6571639" lon="11.7399911"><ele>1.25</ele><time>2026-04-22T09:42:10.34Z</time></trkpt><trkpt lat="44.6571555" lon="11.7401572"><ele>1.0</ele><time>2026-04-22T09:42:12.329Z</time></trkpt><trkpt lat="44.6571462" lon="11.740324"><ele>1.0</ele><time>2026-04-22T09:42:14.342Z</time></trkpt><trkpt lat="44.6571342" lon="11.7404917"><ele>1.0</ele><time>2026-04-22T09:42:16.348Z</time></trkpt><trkpt lat="44.6571243" lon="11.7406584"><ele>1.0</ele><time>2026-04-22T09:42:18.339Z</time></trkpt><trkpt lat="44.6571148" lon="11.7408223"><ele>1.0</ele><time>2026-04-22T09:42:20.333Z</time></trkpt><trkpt lat="44.6571069" lon="11.740985"><ele>1.2000000000000002</ele><time>2026-04-22T09:42:22.338Z</time></trkpt><trkpt lat="44.6571006" lon="11.7411432"><ele>1.4000000000000001</ele><time>2026-04-22T09:42:24.348Z</time></trkpt><trkpt lat="44.6570908" lon="11.7412937"><ele>1.6</ele><time>2026-04-22T09:42:26.345Z</time></trkpt><trkpt lat="44.6570806" lon="11.7414406"><ele>1.8</ele><time>2026-04-22T09:42:28.339Z</time></trkpt><trkpt lat="44.6570718" lon="11.741577"><ele>2.0</ele><time>2026-04-22T09:42:30.344Z</time></trkpt><trkpt lat="44.6570603" lon="11.7417203"><ele>2.0</ele><time>2026-04-22T09:42:32.34Z</time></trkpt><trkpt lat="44.6570483" lon="11.7418787"><ele>2.0</ele><time>2026-04-22T09:42:34.347Z</time></trkpt><trkpt lat="44.657035" lon="11.7420417"><ele>2.0</ele><time>2026-04-22T09:42:36.353Z</time></trkpt><trkpt lat="44.6570252" lon="11.742204"><ele>2.0</ele><time>2026-04-22T09:42:38.341Z</time></trkpt><trkpt lat="44.6570193" lon="11.7423645"><ele>2.5</ele><time>2026-04-22T09:42:40.342Z</time></trkpt><trkpt lat="44.6570117" lon="11.7425253"><ele>3.0</ele><time>2026-04-22T09:42:42.347Z</time></trkpt><trkpt lat="44.6570097" lon="11.7426877"><ele>3.5</ele><time>2026-04-22T09:42:44.34Z</time></trkpt><trkpt lat="44.657009" lon="11.7428508"><ele>4.0</ele><time>2026-04-22T09:42:46.335Z</time></trkpt><trkpt lat="44.6570083" lon="11.7430117"><ele>4.0</ele><time>2026-04-22T09:42:48.348Z</time></trkpt><trkpt lat="44.657011" lon="11.7431743"><ele>4.0</ele><time>2026-04-22T09:42:50.346Z</time></trkpt><trkpt lat="44.6570135" lon="11.7433384"><ele>4.0</ele><time>2026-04-22T09:42:52.35Z</time></trkpt><trkpt lat="44.6570176" lon="11.7435031"><ele>4.0</ele><time>2026-04-22T09:42:54.346Z</time></trkpt><trkpt lat="44.6570205" lon="11.74367"><ele>3.5</ele><time>2026-04-22T09:42:56.343Z</time></trkpt><trkpt lat="44.6570267" lon="11.7438374"><ele>3.0</ele><time>2026-04-22T09:42:58.335Z</time></trkpt><trkpt lat="44.6570308" lon="11.7440061"><ele>2.5</ele><time>2026-04-22T09:43:00.344Z</time></trkpt><trkpt lat="44.6570364" lon="11.7441742"><ele>2.0</ele><time>2026-04-22T09:43:02.338Z</time></trkpt><trkpt lat="44.6570441" lon="11.7443401"><ele>1.75</ele><time>2026-04-22T09:43:04.332Z</time></trkpt><trkpt lat="44.6570528" lon="11.7445073"><ele>1.5</ele><time>2026-04-22T09:43:06.334Z</time></trkpt><trkpt lat="44.6570615" lon="11.7446752"><ele>1.25</ele><time>2026-04-22T09:43:08.344Z</time></trkpt><trkpt lat="44.6570705" lon="11.744843"><ele>1.0</ele><time>2026-04-22T09:43:10.355Z</time></trkpt><trkpt lat="44.6570787" lon="11.74501"><ele>1.0</ele><time>2026-04-22T09:43:12.34Z</time></trkpt><trkpt lat="44.657087" lon="11.7451788"><ele>1.0</ele><time>2026-04-22T09:43:14.34Z</time></trkpt><trkpt lat="44.6570929" lon="11.745349"><ele>1.0</ele><time>2026-04-22T09:43:16.339Z</time></trkpt><trkpt lat="44.6571017" lon="11.7455186"><ele>1.0</ele><time>2026-04-22T09:43:18.344Z</time></trkpt><trkpt lat="44.6571072" lon="11.7456884"><ele>1.5</ele><time>2026-04-22T09:43:20.333Z</time></trkpt><trkpt lat="44.6571137" lon="11.7458528"><ele>2.0</ele><time>2026-04-22T09:43:22.34Z</time></trkpt><trkpt lat="44.6571207" lon="11.7460168"><ele>2.5</ele><time>2026-04-22T09:43:24.334Z</time></trkpt><trkpt lat="44.6571283" lon="11.746179"><ele>3.0</ele><time>2026-04-22T09:43:26.337Z</time></trkpt><trkpt lat="44.6571386" lon="11.7463457"><ele>3.25</ele><time>2026-04-22T09:43:28.339Z</time></trkpt><trkpt lat="44.6571497" lon="11.7465138"><ele>3.5</ele><time>2026-04-22T09:43:30.34Z</time></trkpt><trkpt lat="44.6571584" lon="11.7466851"><ele>3.75</ele><time>2026-04-22T09:43:32.345Z</time></trkpt><trkpt lat="44.6571657" lon="11.7468572"><ele>4.0</ele><time>2026-04-22T09:43:34.335Z</time></trkpt><trkpt lat="44.6571744" lon="11.7470286"><ele>4.0</ele><time>2026-04-22T09:43:36.344Z</time></trkpt><trkpt lat="44.6571824" lon="11.7472004"><ele>4.0</ele><time>2026-04-22T09:43:38.349Z</time></trkpt><trkpt lat="44.6571918" lon="11.7473706"><ele>4.0</ele><time>2026-04-22T09:43:40.336Z</time></trkpt><trkpt lat="44.6572028" lon="11.7475412"><ele>4.0</ele><time>2026-04-22T09:43:42.343Z</time></trkpt><trkpt lat="44.6572128" lon="11.7477095"><ele>4.0</ele><time>2026-04-22T09:43:44.345Z</time></trkpt><trkpt lat="44.6572237" lon="11.7478791"><ele>4.0</ele><time>2026-04-22T09:43:46.342Z</time></trkpt><trkpt lat="44.6572315" lon="11.7480487"><ele>4.0</ele><time>2026-04-22T09:43:48.348Z</time></trkpt><trkpt lat="44.6572403" lon="11.7482179"><ele>4.0</ele><time>2026-04-22T09:43:50.345Z</time></trkpt><trkpt lat="44.6572493" lon="11.7483882"><ele>4.25</ele><time>2026-04-22T09:43:52.343Z</time></trkpt><trkpt lat="44.6572573" lon="11.7485583"><ele>4.5</ele><time>2026-04-22T09:43:54.347Z</time></trkpt><trkpt lat="44.6572692" lon="11.7487271"><ele>4.75</ele><time>2026-04-22T09:43:56.343Z</time></trkpt><trkpt lat="44.657281" lon="11.7488961"><ele>5.0</ele><time>2026-04-22T09:43:58.351Z</time></trkpt><trkpt lat="44.6572923" lon="11.7490647"><ele>5.0</ele><time>2026-04-22T09:44:00.342Z</time></trkpt><trkpt lat="44.6573011" lon="11.7492351"><ele>5.0</ele><time>2026-04-22T09:44:02.349Z</time></trkpt><trkpt lat="44.6573118" lon="11.7494056"><ele>5.0</ele><time>2026-04-22T09:44:04.342Z</time></trkpt><trkpt lat="44.6573238" lon="11.7495749"><ele>5.0</ele><time>2026-04-22T09:44:06.349Z</time></trkpt><trkpt lat="44.6573347" lon="11.7497441"><ele>5.0</ele><time>2026-04-22T09:44:08.34Z</time></trkpt><trkpt lat="44.6573448" lon="11.7499139"><ele>5.0</ele><time>2026-04-22T09:44:10.342Z</time></trkpt><trkpt lat="44.6573535" lon="11.7500832"><ele>5.0</ele><time>2026-04-22T09:44:12.346Z</time></trkpt><trkpt lat="44.657362" lon="11.7502531"><ele>5.0</ele><time>2026-04-22T09:44:14.34Z</time></trkpt><trkpt lat="44.6573691" lon="11.750422"><ele>5.0</ele><time>2026-04-22T09:44:16.358Z</time></trkpt><trkpt lat="44.6573783" lon="11.750589"><ele>5.0</ele><time>2026-04-22T09:44:18.343Z</time></trkpt><trkpt lat="44.6573857" lon="11.7507562"><ele>5.0</ele><time>2026-04-22T09:44:20.35Z</time></trkpt><trkpt lat="44.6573943" lon="11.750923"><ele>5.0</ele><time>2026-04-22T09:44:22.341Z</time></trkpt><trkpt lat="44.6574023" lon="11.7510882"><ele>5.0</ele><time>2026-04-22T09:44:24.344Z</time></trkpt><trkpt lat="44.6574141" lon="11.7512524"><ele>5.0</ele><time>2026-04-22T09:44:26.335Z</time></trkpt><trkpt lat="44.657418" lon="11.7514185"><ele>5.0</ele><time>2026-04-22T09:44:28.354Z</time></trkpt><trkpt lat="44.6574237" lon="11.7515838"><ele>5.0</ele><time>2026-04-22T09:44:30.345Z</time></trkpt><trkpt lat="44.6574324" lon="11.7517483"><ele>5.25</ele><time>2026-04-22T09:44:32.336Z</time></trkpt><trkpt lat="44.6574401" lon="11.7519124"><ele>5.5</ele><time>2026-04-22T09:44:34.337Z</time></trkpt><trkpt lat="44.6574507" lon="11.7520763"><ele>5.75</ele><time>2026-04-22T09:44:36.342Z</time></trkpt><trkpt lat="44.6574626" lon="11.7522412"><ele>6.0</ele><time>2026-04-22T09:44:38.344Z</time></trkpt><trkpt lat="44.6574736" lon="11.7524071"><ele>6.0</ele><time>2026-04-22T09:44:40.345Z</time></trkpt><trkpt lat="44.6574857" lon="11.7525753"><ele>6.0</ele><time>2026-04-22T09:44:42.343Z</time></trkpt><trkpt lat="44.6574992" lon="11.7527451"><ele>6.0</ele><time>2026-04-22T09:44:44.353Z</time></trkpt><trkpt lat="44.6575147" lon="11.7529146"><ele>6.0</ele><time>2026-04-22T09:44:46.34Z</time></trkpt><trkpt lat="44.6575319" lon="11.7530845"><ele>6.0</ele><time>2026-04-22T09:44:48.353Z</time></trkpt><trkpt lat="44.6575487" lon="11.7532546"><ele>6.0</ele><time>2026-04-22T09:44:50.35Z</time></trkpt><trkpt lat="44.6575668" lon="11.7534229"><ele>6.0</ele><time>2026-04-22T09:44:52.346Z</time></trkpt><trkpt lat="44.6575839" lon="11.7535904"><ele>6.0</ele><time>2026-04-22T09:44:54.349Z</time></trkpt><trkpt lat="44.6576011" lon="11.753757"><ele>6.0</ele><time>2026-04-22T09:44:56.341Z</time></trkpt><trkpt lat="44.6576172" lon="11.7539231"><ele>6.0</ele><time>2026-04-22T09:44:58.338Z</time></trkpt><trkpt lat="44.6576355" lon="11.754089"><ele>6.0</ele><time>2026-04-22T09:45:00.339Z</time></trkpt><trkpt lat="44.6576511" lon="11.7542566"><ele>6.0</ele><time>2026-04-22T09:45:02.339Z</time></trkpt><trkpt lat="44.657664" lon="11.7544247"><ele>6.0</ele><time>2026-04-22T09:45:04.343Z</time></trkpt><trkpt lat="44.6576757" lon="11.7545931"><ele>6.0</ele><time>2026-04-22T09:45:06.348Z</time></trkpt><trkpt lat="44.6576893" lon="11.7547605"><ele>6.0</ele><time>2026-04-22T09:45:08.337Z</time></trkpt><trkpt lat="44.6577016" lon="11.7549292"><ele>6.0</ele><time>2026-04-22T09:45:10.351Z</time></trkpt><trkpt lat="44.6577123" lon="11.7551002"><ele>6.0</ele><time>2026-04-22T09:45:12.357Z</time></trkpt><trkpt lat="44.6577245" lon="11.7552663"><ele>6.0</ele><time>2026-04-22T09:45:14.343Z</time></trkpt><trkpt lat="44.6577322" lon="11.7554351"><ele>6.0</ele><time>2026-04-22T09:45:16.346Z</time></trkpt><trkpt lat="44.6577408" lon="11.7556048"><ele>6.0</ele><time>2026-04-22T09:45:18.346Z</time></trkpt><trkpt lat="44.657745" lon="11.7557741"><ele>6.0</ele><time>2026-04-22T09:45:20.356Z</time></trkpt><trkpt lat="44.6577397" lon="11.7559466"><ele>6.0</ele><time>2026-04-22T09:45:22.343Z</time></trkpt><trkpt lat="44.6577323" lon="11.7561127"><ele>6.0</ele><time>2026-04-22T09:45:24.35Z</time></trkpt><trkpt lat="44.6577169" lon="11.756283"><ele>6.0</ele><time>2026-04-22T09:45:26.346Z</time></trkpt><trkpt lat="44.6577003" lon="11.756457"><ele>6.0</ele><time>2026-04-22T09:45:28.337Z</time></trkpt><trkpt lat="44.6576812" lon="11.7566244"><ele>6.0</ele><time>2026-04-22T09:45:30.355Z</time></trkpt><trkpt lat="44.6576537" lon="11.7567914"><ele>6.0</ele><time>2026-04-22T09:45:32.353Z</time></trkpt><trkpt lat="44.6576227" lon="11.7569559"><ele>6.0</ele><time>2026-04-22T09:45:34.343Z</time></trkpt><trkpt lat="44.6575813" lon="11.7571183"><ele>5.25</ele><time>2026-04-22T09:45:36.346Z</time></trkpt><trkpt lat="44.6575308" lon="11.7572744"><ele>4.5</ele><time>2026-04-22T09:45:38.35Z</time></trkpt><trkpt lat="44.6574794" lon="11.7574258"><ele>3.75</ele><time>2026-04-22T09:45:40.357Z</time></trkpt><trkpt lat="44.6574302" lon="11.7575843"><ele>3.0</ele><time>2026-04-22T09:45:42.348Z</time></trkpt><trkpt lat="44.6574145" lon="11.7577576"><ele>2.6666666666666665</ele><time>2026-04-22T09:45:44.346Z</time></trkpt><trkpt lat="44.657412" lon="11.7578461"><ele>2.3333333333333335</ele><time>2026-04-22T09:45:45.353Z</time></trkpt><trkpt lat="44.6574309" lon="11.7579451"><ele>2.0</ele><time>2026-04-22T09:45:46.341Z</time></trkpt><trkpt lat="44.6574502" lon="11.7580456"><ele>1.6666666666666665</ele><time>2026-04-22T09:45:47.347Z</time></trkpt><trkpt lat="44.6574708" lon="11.7581525"><ele>1.3333333333333333</ele><time>2026-04-22T09:45:48.351Z</time></trkpt><trkpt lat="44.6574912" lon="11.7582566"><ele>1.0</ele><time>2026-04-22T09:45:49.348Z</time></trkpt><trkpt lat="44.6575137" lon="11.7583724"><ele>0.9999999999999999</ele><time>2026-04-22T09:45:50.35Z</time></trkpt><trkpt lat="44.6575377" lon="11.7584873"><ele>1.0</ele><time>2026-04-22T09:45:51.344Z</time></trkpt><trkpt lat="44.6575619" lon="11.7586007"><ele>1.0</ele><time>2026-04-22T09:45:52.336Z</time></trkpt><trkpt lat="44.6575878" lon="11.7587245"><ele>1.0</ele><time>2026-04-22T09:45:53.346Z</time></trkpt><trkpt lat="44.6576115" lon="11.7588422"><ele>0.9999999999999999</ele><time>2026-04-22T09:45:54.346Z</time></trkpt><trkpt lat="44.6576327" lon="11.758961"><ele>1.0</ele><time>2026-04-22T09:45:55.353Z</time></trkpt><trkpt lat="44.657655" lon="11.7590782"><ele>0.8333333333333333</ele><time>2026-04-22T09:45:56.354Z</time></trkpt><trkpt lat="44.6576772" lon="11.7591897"><ele>0.6666666666666666</ele><time>2026-04-22T09:45:57.341Z</time></trkpt><trkpt lat="44.6576981" lon="11.7593032"><ele>0.5</ele><time>2026-04-22T09:45:58.338Z</time></trkpt><trkpt lat="44.6577202" lon="11.7594151"><ele>0.3333333333333333</ele><time>2026-04-22T09:45:59.341Z</time></trkpt><trkpt lat="44.65774" lon="11.7595249"><ele>0.16666666666666666</ele><time>2026-04-22T09:46:00.344Z</time></trkpt><trkpt lat="44.6577616" lon="11.7596294"><ele>0.0</ele><time>2026-04-22T09:46:01.337Z</time></trkpt><trkpt lat="44.6577836" lon="11.7597315"><ele>-0.14285714285714285</ele><time>2026-04-22T09:46:02.339Z</time></trkpt><trkpt lat="44.6578039" lon="11.7598303"><ele>-0.2857142857142857</ele><time>2026-04-22T09:46:03.348Z</time></trkpt><trkpt lat="44.6578211" lon="11.7599273"><ele>-0.42857142857142855</ele><time>2026-04-22T09:46:04.349Z</time></trkpt><trkpt lat="44.6578386" lon="11.760022"><ele>-0.5714285714285714</ele><time>2026-04-22T09:46:05.349Z</time></trkpt><trkpt lat="44.6578588" lon="11.7601154"><ele>-0.7142857142857142</ele><time>2026-04-22T09:46:06.344Z</time></trkpt><trkpt lat="44.6578778" lon="11.7602076"><ele>-0.8571428571428571</ele><time>2026-04-22T09:46:07.345Z</time></trkpt><trkpt lat="44.657897" lon="11.7602967"><ele>-1.0</ele><time>2026-04-22T09:46:08.347Z</time></trkpt><trkpt lat="44.6579168" lon="11.7603843"><ele>-0.5714285714285714</ele><time>2026-04-22T09:46:09.341Z</time></trkpt><trkpt lat="44.6579374" lon="11.760472"><ele>-0.1428571428571428</ele><time>2026-04-22T09:46:10.345Z</time></trkpt><trkpt lat="44.6579582" lon="11.7605581"><ele>0.2857142857142857</ele><time>2026-04-22T09:46:11.344Z</time></trkpt><trkpt lat="44.6579811" lon="11.7606431"><ele>0.7142857142857142</ele><time>2026-04-22T09:46:12.341Z</time></trkpt><trkpt lat="44.658002" lon="11.7607279"><ele>1.1428571428571428</ele><time>2026-04-22T09:46:13.344Z</time></trkpt><trkpt lat="44.6580239" lon="11.760812"><ele>1.5714285714285714</ele><time>2026-04-22T09:46:14.339Z</time></trkpt><trkpt lat="44.6580693" lon="11.7609764"><ele>2.0</ele><time>2026-04-22T09:46:16.346Z</time></trkpt><trkpt lat="44.6581162" lon="11.7611378"><ele>2.25</ele><time>2026-04-22T09:46:18.344Z</time></trkpt><trkpt lat="44.6581643" lon="11.7612962"><ele>2.5</ele><time>2026-04-22T09:46:20.35Z</time></trkpt><trkpt lat="44.6582096" lon="11.7614517"><ele>2.75</ele><time>2026-04-22T09:46:22.349Z</time></trkpt><trkpt lat="44.6582579" lon="11.7616042"><ele>3.0</ele><time>2026-04-22T09:46:24.346Z</time></trkpt><trkpt lat="44.6583038" lon="11.7617509"><ele>2.8</ele><time>2026-04-22T09:46:26.345Z</time></trkpt><trkpt lat="44.6583475" lon="11.7618945"><ele>2.5999999999999996</ele><time>2026-04-22T09:46:28.343Z</time></trkpt><trkpt lat="44.6583882" lon="11.7620338"><ele>2.4000000000000004</ele><time>2026-04-22T09:46:30.353Z</time></trkpt><trkpt lat="44.658393" lon="11.7621809"><ele>2.2</ele><time>2026-04-22T09:46:32.345Z</time></trkpt><trkpt lat="44.6583448" lon="11.7623179"><ele>2.0</ele><time>2026-04-22T09:46:34.352Z</time></trkpt><trkpt lat="44.6582897" lon="11.7624571"><ele>2.0</ele><time>2026-04-22T09:46:36.342Z</time></trkpt><trkpt lat="44.6582328" lon="11.7626012"><ele>2.0</ele><time>2026-04-22T09:46:38.341Z</time></trkpt><trkpt lat="44.658176" lon="11.7627497"><ele>2.0</ele><time>2026-04-22T09:46:40.345Z</time></trkpt><trkpt lat="44.6581148" lon="11.7628972"><ele>2.0</ele><time>2026-04-22T09:46:42.35Z</time></trkpt><trkpt lat="44.6580541" lon="11.7630467"><ele>2.0</ele><time>2026-04-22T09:46:44.346Z</time></trkpt><trkpt lat="44.65799" lon="11.7631956"><ele>2.0</ele><time>2026-04-22T09:46:46.34Z</time></trkpt><trkpt lat="44.6579215" lon="11.763341"><ele>2.0</ele><time>2026-04-22T09:46:48.342Z</time></trkpt><trkpt lat="44.6578482" lon="11.7634805"><ele>2.0</ele><time>2026-04-22T09:46:50.35Z</time></trkpt><trkpt lat="44.6577678" lon="11.763612"><ele>2.0</ele><time>2026-04-22T09:46:52.346Z</time></trkpt><trkpt lat="44.6576829" lon="11.7637366"><ele>2.0</ele><time>2026-04-22T09:46:54.353Z</time></trkpt><trkpt lat="44.6575966" lon="11.7638563"><ele>2.0</ele><time>2026-04-22T09:46:56.358Z</time></trkpt><trkpt lat="44.6575076" lon="11.7639734"><ele>2.0</ele><time>2026-04-22T09:46:58.35Z</time></trkpt><trkpt lat="44.6574175" lon="11.7640882"><ele>2.0</ele><time>2026-04-22T09:47:00.364Z</time></trkpt><trkpt lat="44.6573286" lon="11.7642057"><ele>2.0</ele><time>2026-04-22T09:47:02.342Z</time></trkpt><trkpt lat="44.6572372" lon="11.7643238"><ele>2.0</ele><time>2026-04-22T09:47:04.343Z</time></trkpt><trkpt lat="44.6571451" lon="11.7644448"><ele>2.0</ele><time>2026-04-22T09:47:06.348Z</time></trkpt><trkpt lat="44.6570997" lon="11.7645089"><ele>2.0</ele><time>2026-04-22T09:47:07.346Z</time></trkpt><trkpt lat="44.6570535" lon="11.7645723"><ele>1.857142857142857</ele><time>2026-04-22T09:47:08.348Z</time></trkpt><trkpt lat="44.6570069" lon="11.7646339"><ele>1.714285714285714</ele><time>2026-04-22T09:47:09.349Z</time></trkpt><trkpt lat="44.6569609" lon="11.7646963"><ele>1.5714285714285714</ele><time>2026-04-22T09:47:10.347Z</time></trkpt><trkpt lat="44.6569152" lon="11.7647594"><ele>1.4285714285714284</ele><time>2026-04-22T09:47:11.359Z</time></trkpt><trkpt lat="44.6568693" lon="11.7648229"><ele>1.2857142857142856</ele><time>2026-04-22T09:47:12.349Z</time></trkpt><trkpt lat="44.6568243" lon="11.7648874"><ele>1.1428571428571428</ele><time>2026-04-22T09:47:13.351Z</time></trkpt><trkpt lat="44.6567797" lon="11.7649508"><ele>1.0</ele><time>2026-04-22T09:47:14.345Z</time></trkpt><trkpt lat="44.6566925" lon="11.7650765"><ele>1.0</ele><time>2026-04-22T09:47:16.347Z</time></trkpt><trkpt lat="44.6566056" lon="11.7652009"><ele>1.0</ele><time>2026-04-22T09:47:18.342Z</time></trkpt><trkpt lat="44.6565177" lon="11.7653242"><ele>1.0</ele><time>2026-04-22T09:47:20.35Z</time></trkpt><trkpt lat="44.6564301" lon="11.7654473"><ele>1.0</ele><time>2026-04-22T09:47:22.346Z</time></trkpt><trkpt lat="44.6563432" lon="11.7655695"><ele>1.0</ele><time>2026-04-22T09:47:24.346Z</time></trkpt><trkpt lat="44.6562576" lon="11.7656926"><ele>1.0</ele><time>2026-04-22T09:47:26.351Z</time></trkpt><trkpt lat="44.6561729" lon="11.7658141"><ele>1.0</ele><time>2026-04-22T09:47:28.354Z</time></trkpt><trkpt lat="44.656088" lon="11.7659351"><ele>1.0</ele><time>2026-04-22T09:47:30.345Z</time></trkpt><trkpt lat="44.6560033" lon="11.7660562"><ele>0.75</ele><time>2026-04-22T09:47:32.34Z</time></trkpt><trkpt lat="44.6559172" lon="11.7661739"><ele>0.5</ele><time>2026-04-22T09:47:34.344Z</time></trkpt><trkpt lat="44.6558293" lon="11.7662873"><ele>0.25</ele><time>2026-04-22T09:47:36.349Z</time></trkpt><trkpt lat="44.6557408" lon="11.7663981"><ele>0.0</ele><time>2026-04-22T09:47:38.345Z</time></trkpt><trkpt lat="44.6556478" lon="11.7665099"><ele>0.0</ele><time>2026-04-22T09:47:40.339Z</time></trkpt><trkpt lat="44.6555544" lon="11.7666212"><ele>0.0</ele><time>2026-04-22T09:47:42.34Z</time></trkpt><trkpt lat="44.6554567" lon="11.7667307"><ele>0.0</ele><time>2026-04-22T09:47:44.349Z</time></trkpt><trkpt lat="44.655359" lon="11.766841"><ele>0.0</ele><time>2026-04-22T09:47:46.338Z</time></trkpt><trkpt lat="44.6552613" lon="11.7669498"><ele>0.2857142857142857</ele><time>2026-04-22T09:47:48.352Z</time></trkpt><trkpt lat="44.6551622" lon="11.7670597"><ele>0.5714285714285714</ele><time>2026-04-22T09:47:50.349Z</time></trkpt><trkpt lat="44.655112" lon="11.7671147"><ele>0.8571428571428571</ele><time>2026-04-22T09:47:51.34Z</time></trkpt><trkpt lat="44.6550624" lon="11.767171"><ele>1.1428571428571428</ele><time>2026-04-22T09:47:52.343Z</time></trkpt><trkpt lat="44.6550133" lon="11.7672272"><ele>1.4285714285714284</ele><time>2026-04-22T09:47:53.346Z</time></trkpt><trkpt lat="44.6549632" lon="11.7672838"><ele>1.7142857142857142</ele><time>2026-04-22T09:47:54.342Z</time></trkpt><trkpt lat="44.6549132" lon="11.7673389"><ele>2.0</ele><time>2026-04-22T09:47:55.348Z</time></trkpt><trkpt lat="44.654818" lon="11.767453"><ele>2.0</ele><time>2026-04-22T09:47:57.356Z</time></trkpt><trkpt lat="44.6547284" lon="11.7675695"><ele>2.0</ele><time>2026-04-22T09:47:59.34Z</time></trkpt><trkpt lat="44.6546464" lon="11.7676926"><ele>2.0</ele><time>2026-04-22T09:48:01.339Z</time></trkpt><trkpt lat="44.6545749" lon="11.76782"><ele>2.0</ele><time>2026-04-22T09:48:03.342Z</time></trkpt><trkpt lat="44.6545069" lon="11.7679519"><ele>2.5</ele><time>2026-04-22T09:48:05.346Z</time></trkpt><trkpt lat="44.6544485" lon="11.7680927"><ele>3.0</ele><time>2026-04-22T09:48:07.343Z</time></trkpt><trkpt lat="44.654394" lon="11.7682349"><ele>3.5</ele><time>2026-04-22T09:48:09.345Z</time></trkpt><trkpt lat="44.6543427" lon="11.768374"><ele>4.0</ele><time>2026-04-22T09:48:11.344Z</time></trkpt><trkpt lat="44.654291" lon="11.7685201"><ele>4.25</ele><time>2026-04-22T09:48:13.347Z</time></trkpt><trkpt lat="44.6542373" lon="11.7686677"><ele>4.5</ele><time>2026-04-22T09:48:15.342Z</time></trkpt><trkpt lat="44.6541863" lon="11.7688141"><ele>4.75</ele><time>2026-04-22T09:48:17.351Z</time></trkpt><trkpt lat="44.6541375" lon="11.7689575"><ele>5.0</ele><time>2026-04-22T09:48:19.345Z</time></trkpt><trkpt lat="44.654087" lon="11.7690998"><ele>5.0</ele><time>2026-04-22T09:48:21.346Z</time></trkpt><trkpt lat="44.6540359" lon="11.7692406"><ele>5.0</ele><time>2026-04-22T09:48:23.341Z</time></trkpt><trkpt lat="44.6539867" lon="11.7693793"><ele>5.0</ele><time>2026-04-22T09:48:25.343Z</time></trkpt><trkpt lat="44.6539397" lon="11.769516"><ele>5.0</ele><time>2026-04-22T09:48:27.338Z</time></trkpt><trkpt lat="44.6538933" lon="11.7696491"><ele>5.0</ele><time>2026-04-22T09:48:29.341Z</time></trkpt><trkpt lat="44.6538518" lon="11.7697878"><ele>4.8</ele><time>2026-04-22T09:48:31.35Z</time></trkpt><trkpt lat="44.653815" lon="11.7699294"><ele>4.6</ele><time>2026-04-22T09:48:33.346Z</time></trkpt><trkpt lat="44.6537845" lon="11.7700778"><ele>4.4</ele><time>2026-04-22T09:48:35.35Z</time></trkpt><trkpt lat="44.6537576" lon="11.7702317"><ele>4.2</ele><time>2026-04-22T09:48:37.349Z</time></trkpt><trkpt lat="44.6537316" lon="11.7703833"><ele>4.0</ele><time>2026-04-22T09:48:39.34Z</time></trkpt><trkpt lat="44.6537077" lon="11.7705379"><ele>4.0</ele><time>2026-04-22T09:48:41.353Z</time></trkpt><trkpt lat="44.6536832" lon="11.770695"><ele>4.0</ele><time>2026-04-22T09:48:43.347Z</time></trkpt><trkpt lat="44.6536581" lon="11.7708543"><ele>4.0</ele><time>2026-04-22T09:48:45.334Z</time></trkpt><trkpt lat="44.653633" lon="11.7710138"><ele>4.0</ele><time>2026-04-22T09:48:47.345Z</time></trkpt><trkpt lat="44.6536088" lon="11.7711764"><ele>4.75</ele><time>2026-04-22T09:48:49.34Z</time></trkpt><trkpt lat="44.653582" lon="11.7713386"><ele>5.5</ele><time>2026-04-22T09:48:51.339Z</time></trkpt><trkpt lat="44.6535554" lon="11.771505"><ele>6.25</ele><time>2026-04-22T09:48:53.347Z</time></trkpt><trkpt lat="44.6535294" lon="11.7716723"><ele>7.0</ele><time>2026-04-22T09:48:55.34Z</time></trkpt><trkpt lat="44.6535042" lon="11.7718389"><ele>7.25</ele><time>2026-04-22T09:48:57.339Z</time></trkpt><trkpt lat="44.6534798" lon="11.7720058"><ele>7.5</ele><time>2026-04-22T09:48:59.344Z</time></trkpt><trkpt lat="44.6534542" lon="11.7721736"><ele>7.75</ele><time>2026-04-22T09:49:01.34Z</time></trkpt><trkpt lat="44.6534293" lon="11.7723416"><ele>8.0</ele><time>2026-04-22T09:49:03.342Z</time></trkpt><trkpt lat="44.6534056" lon="11.77251"><ele>8.0</ele><time>2026-04-22T09:49:05.343Z</time></trkpt><trkpt lat="44.6533809" lon="11.7726776"><ele>8.0</ele><time>2026-04-22T09:49:07.339Z</time></trkpt><trkpt lat="44.6533577" lon="11.7728477"><ele>8.0</ele><time>2026-04-22T09:49:09.349Z</time></trkpt><trkpt lat="44.6533337" lon="11.7730162"><ele>8.0</ele><time>2026-04-22T09:49:11.345Z</time></trkpt><trkpt lat="44.6533058" lon="11.773181"><ele>7.75</ele><time>2026-04-22T09:49:13.354Z</time></trkpt><trkpt lat="44.6532765" lon="11.7733442"><ele>7.5</ele><time>2026-04-22T09:49:15.361Z</time></trkpt><trkpt lat="44.6532494" lon="11.7735075"><ele>7.25</ele><time>2026-04-22T09:49:17.346Z</time></trkpt><trkpt lat="44.653224" lon="11.7736741"><ele>7.0</ele><time>2026-04-22T09:49:19.349Z</time></trkpt><trkpt lat="44.6531977" lon="11.773832"><ele>7.0</ele><time>2026-04-22T09:49:21.339Z</time></trkpt><trkpt lat="44.6531885" lon="11.7739819"><ele>7.0</ele><time>2026-04-22T09:49:23.344Z</time></trkpt><trkpt lat="44.6531663" lon="11.7741396"><ele>7.0</ele><time>2026-04-22T09:49:25.356Z</time></trkpt><trkpt lat="44.653138" lon="11.7742984"><ele>7.0</ele><time>2026-04-22T09:49:27.339Z</time></trkpt><trkpt lat="44.6531108" lon="11.7744586"><ele>6.75</ele><time>2026-04-22T09:49:29.347Z</time></trkpt><trkpt lat="44.6530807" lon="11.7746178"><ele>6.5</ele><time>2026-04-22T09:49:31.353Z</time></trkpt><trkpt lat="44.653052" lon="11.7747783"><ele>6.25</ele><time>2026-04-22T09:49:33.345Z</time></trkpt><trkpt lat="44.6530272" lon="11.7749417"><ele>6.0</ele><time>2026-04-22T09:49:35.353Z</time></trkpt><trkpt lat="44.6530056" lon="11.7751077"><ele>5.666666666666667</ele><time>2026-04-22T09:49:37.349Z</time></trkpt><trkpt lat="44.6529845" lon="11.7752773"><ele>5.333333333333333</ele><time>2026-04-22T09:49:39.34Z</time></trkpt><trkpt lat="44.6529559" lon="11.7754473"><ele>5.0</ele><time>2026-04-22T09:49:41.336Z</time></trkpt><trkpt lat="44.652938" lon="11.7755322"><ele>4.666666666666666</ele><time>2026-04-22T09:49:42.343Z</time></trkpt><trkpt lat="44.6529191" lon="11.7756169"><ele>4.333333333333333</ele><time>2026-04-22T09:49:43.35Z</time></trkpt><trkpt lat="44.6529039" lon="11.7757031"><ele>4.0</ele><time>2026-04-22T09:49:44.338Z</time></trkpt><trkpt lat="44.6528905" lon="11.7757916"><ele>4.0</ele><time>2026-04-22T09:49:45.344Z</time></trkpt><trkpt lat="44.6528779" lon="11.7758799"><ele>3.9999999999999996</ele><time>2026-04-22T09:49:46.344Z</time></trkpt><trkpt lat="44.6528647" lon="11.7759682"><ele>4.0</ele><time>2026-04-22T09:49:47.344Z</time></trkpt><trkpt lat="44.6528506" lon="11.7760552"><ele>4.0</ele><time>2026-04-22T09:49:48.355Z</time></trkpt><trkpt lat="44.6528402" lon="11.776144"><ele>3.9999999999999996</ele><time>2026-04-22T09:49:49.35Z</time></trkpt><trkpt lat="44.6528308" lon="11.7762319"><ele>4.0</ele><time>2026-04-22T09:49:50.332Z</time></trkpt><trkpt lat="44.6528044" lon="11.7764023"><ele>4.0</ele><time>2026-04-22T09:49:52.348Z</time></trkpt><trkpt lat="44.6527749" lon="11.7765715"><ele>4.666666666666666</ele><time>2026-04-22T09:49:54.344Z</time></trkpt><trkpt lat="44.652763" lon="11.7766591"><ele>5.333333333333333</ele><time>2026-04-22T09:49:55.342Z</time></trkpt><trkpt lat="44.6527546" lon="11.7767483"><ele>6.0</ele><time>2026-04-22T09:49:56.346Z</time></trkpt><trkpt lat="44.6527499" lon="11.776839"><ele>6.666666666666666</ele><time>2026-04-22T09:49:57.338Z</time></trkpt><trkpt lat="44.6527446" lon="11.7770177"><ele>7.333333333333333</ele><time>2026-04-22T09:49:59.336Z</time></trkpt><trkpt lat="44.6527483" lon="11.7771092"><ele>8.0</ele><time>2026-04-22T09:50:00.34Z</time></trkpt><trkpt lat="44.6527568" lon="11.7772861"><ele>8.0</ele><time>2026-04-22T09:50:02.344Z</time></trkpt><trkpt lat="44.6527657" lon="11.7773759"><ele>7.999999999999999</ele><time>2026-04-22T09:50:03.339Z</time></trkpt><trkpt lat="44.6527743" lon="11.7774663"><ele>8.0</ele><time>2026-04-22T09:50:04.345Z</time></trkpt><trkpt lat="44.6527861" lon="11.7776428"><ele>8.0</ele><time>2026-04-22T09:50:06.354Z</time></trkpt><trkpt lat="44.6527901" lon="11.777732"><ele>7.999999999999999</ele><time>2026-04-22T09:50:07.347Z</time></trkpt><trkpt lat="44.6527915" lon="11.7778221"><ele>8.0</ele><time>2026-04-22T09:50:08.329Z</time></trkpt><trkpt lat="44.6527916" lon="11.777913"><ele>8.0</ele><time>2026-04-22T09:50:09.335Z</time></trkpt><trkpt lat="44.6527884" lon="11.7780044"><ele>7.7142857142857135</ele><time>2026-04-22T09:50:10.347Z</time></trkpt><trkpt lat="44.6527819" lon="11.7780954"><ele>7.428571428571428</ele><time>2026-04-22T09:50:11.34Z</time></trkpt><trkpt lat="44.6527727" lon="11.7781863"><ele>7.142857142857142</ele><time>2026-04-22T09:50:12.332Z</time></trkpt><trkpt lat="44.6527583" lon="11.7782753"><ele>6.857142857142857</ele><time>2026-04-22T09:50:13.344Z</time></trkpt><trkpt lat="44.6527404" lon="11.7783638"><ele>6.571428571428571</ele><time>2026-04-22T09:50:14.347Z</time></trkpt><trkpt lat="44.6527211" lon="11.7784505"><ele>6.285714285714285</ele><time>2026-04-22T09:50:15.357Z</time></trkpt><trkpt lat="44.652702" lon="11.7785378"><ele>6.0</ele><time>2026-04-22T09:50:16.336Z</time></trkpt><trkpt lat="44.6526819" lon="11.7786248"><ele>5.571428571428571</ele><time>2026-04-22T09:50:17.335Z</time></trkpt><trkpt lat="44.6526602" lon="11.7787112"><ele>5.142857142857142</ele><time>2026-04-22T09:50:18.336Z</time></trkpt><trkpt lat="44.6526385" lon="11.7787966"><ele>4.7142857142857135</ele><time>2026-04-22T09:50:19.345Z</time></trkpt><trkpt lat="44.6526185" lon="11.7788823"><ele>4.285714285714286</ele><time>2026-04-22T09:50:20.336Z</time></trkpt><trkpt lat="44.6525984" lon="11.7789677"><ele>3.8571428571428568</ele><time>2026-04-22T09:50:21.341Z</time></trkpt><trkpt lat="44.6525754" lon="11.7790509"><ele>3.4285714285714284</ele><time>2026-04-22T09:50:22.342Z</time></trkpt><trkpt lat="44.6525339" lon="11.7792158"><ele>3.0</ele><time>2026-04-22T09:50:24.348Z</time></trkpt><trkpt lat="44.652494" lon="11.7793787"><ele>2.75</ele><time>2026-04-22T09:50:26.34Z</time></trkpt><trkpt lat="44.6524529" lon="11.7795395"><ele>2.5</ele><time>2026-04-22T09:50:28.348Z</time></trkpt><trkpt lat="44.652415" lon="11.7796976"><ele>2.25</ele><time>2026-04-22T09:50:30.347Z</time></trkpt><trkpt lat="44.6523745" lon="11.7798519"><ele>2.0</ele><time>2026-04-22T09:50:32.349Z</time></trkpt><trkpt lat="44.6523401" lon="11.7800109"><ele>2.0</ele><time>2026-04-22T09:50:34.344Z</time></trkpt><trkpt lat="44.652305" lon="11.7801673"><ele>2.0</ele><time>2026-04-22T09:50:36.348Z</time></trkpt><trkpt lat="44.6522738" lon="11.7803269"><ele>2.0</ele><time>2026-04-22T09:50:38.34Z</time></trkpt><trkpt lat="44.6522525" lon="11.7804875"><ele>2.0</ele><time>2026-04-22T09:50:40.343Z</time></trkpt><trkpt lat="44.6522367" lon="11.7806525"><ele>2.25</ele><time>2026-04-22T09:50:42.341Z</time></trkpt><trkpt lat="44.6522233" lon="11.780816"><ele>2.5</ele><time>2026-04-22T09:50:44.355Z</time></trkpt><trkpt lat="44.6522107" lon="11.7809793"><ele>2.75</ele><time>2026-04-22T09:50:46.35Z</time></trkpt><trkpt lat="44.6521918" lon="11.7811407"><ele>3.0</ele><time>2026-04-22T09:50:48.339Z</time></trkpt><trkpt lat="44.6521615" lon="11.7813039"><ele>3.0</ele><time>2026-04-22T09:50:50.351Z</time></trkpt><trkpt lat="44.6521236" lon="11.7814657"><ele>3.0</ele><time>2026-04-22T09:50:52.355Z</time></trkpt><trkpt lat="44.6520739" lon="11.7816236"><ele>3.0</ele><time>2026-04-22T09:50:54.349Z</time></trkpt><trkpt lat="44.6520194" lon="11.7817773"><ele>3.0</ele><time>2026-04-22T09:50:56.354Z</time></trkpt><trkpt lat="44.6519583" lon="11.781928"><ele>3.2</ele><time>2026-04-22T09:50:58.347Z</time></trkpt><trkpt lat="44.6518945" lon="11.7820778"><ele>3.4</ele><time>2026-04-22T09:51:00.343Z</time></trkpt><trkpt lat="44.6518292" lon="11.7822256"><ele>3.6000000000000005</ele><time>2026-04-22T09:51:02.351Z</time></trkpt><trkpt lat="44.6517972" lon="11.782302"><ele>3.8000000000000003</ele><time>2026-04-22T09:51:03.341Z</time></trkpt><trkpt lat="44.6517328" lon="11.78245"><ele>4.0</ele><time>2026-04-22T09:51:05.346Z</time></trkpt><trkpt lat="44.651666" lon="11.7825951"><ele>3.2</ele><time>2026-04-22T09:51:07.344Z</time></trkpt><trkpt lat="44.6516005" lon="11.7827421"><ele>2.4000000000000004</ele><time>2026-04-22T09:51:09.343Z</time></trkpt><trkpt lat="44.6515324" lon="11.7828865"><ele>1.6</ele><time>2026-04-22T09:51:11.346Z</time></trkpt><trkpt lat="44.6514611" lon="11.7830317"><ele>0.8</ele><time>2026-04-22T09:51:13.35Z</time></trkpt><trkpt lat="44.6514246" lon="11.7831041"><ele>0.0</ele><time>2026-04-22T09:51:14.347Z</time></trkpt><trkpt lat="44.6513885" lon="11.7831781"><ele>0.0</ele><time>2026-04-22T09:51:15.345Z</time></trkpt><trkpt lat="44.6513524" lon="11.7832527"><ele>0.0</ele><time>2026-04-22T09:51:16.35Z</time></trkpt><trkpt lat="44.6513157" lon="11.7833266"><ele>0.0</ele><time>2026-04-22T09:51:17.352Z</time></trkpt><trkpt lat="44.6512788" lon="11.7833996"><ele>0.0</ele><time>2026-04-22T09:51:18.346Z</time></trkpt><trkpt lat="44.6512435" lon="11.7834735"><ele>0.0</ele><time>2026-04-22T09:51:19.344Z</time></trkpt><trkpt lat="44.6511709" lon="11.7836182"><ele>0.0</ele><time>2026-04-22T09:51:21.349Z</time></trkpt><trkpt lat="44.6511" lon="11.7837639"><ele>0.4</ele><time>2026-04-22T09:51:23.343Z</time></trkpt><trkpt lat="44.6510291" lon="11.783909"><ele>0.8</ele><time>2026-04-22T09:51:25.349Z</time></trkpt><trkpt lat="44.6509569" lon="11.7840535"><ele>1.2000000000000002</ele><time>2026-04-22T09:51:27.349Z</time></trkpt><trkpt lat="44.6508862" lon="11.7841989"><ele>1.6</ele><time>2026-04-22T09:51:29.344Z</time></trkpt><trkpt lat="44.6508493" lon="11.7842712"><ele>2.0</ele><time>2026-04-22T09:51:30.348Z</time></trkpt><trkpt lat="44.6507776" lon="11.7844172"><ele>2.333333333333333</ele><time>2026-04-22T09:51:32.344Z</time></trkpt><trkpt lat="44.6507405" lon="11.7844889"><ele>2.6666666666666665</ele><time>2026-04-22T09:51:33.346Z</time></trkpt><trkpt lat="44.6507041" lon="11.7845634"><ele>3.0</ele><time>2026-04-22T09:51:34.353Z</time></trkpt><trkpt lat="44.6506671" lon="11.7846385"><ele>3.333333333333333</ele><time>2026-04-22T09:51:35.345Z</time></trkpt><trkpt lat="44.6505982" lon="11.7847788"><ele>3.6666666666666665</ele><time>2026-04-22T09:51:37.342Z</time></trkpt><trkpt lat="44.6505324" lon="11.7849093"><ele>4.0</ele><time>2026-04-22T09:51:39.346Z</time></trkpt><trkpt lat="44.6504708" lon="11.7850316"><ele>4.0</ele><time>2026-04-22T09:51:41.341Z</time></trkpt><trkpt lat="44.6504088" lon="11.7851539"><ele>4.0</ele><time>2026-04-22T09:51:43.338Z</time></trkpt><trkpt lat="44.6503453" lon="11.7852824"><ele>4.0</ele><time>2026-04-22T09:51:45.336Z</time></trkpt><trkpt lat="44.6502791" lon="11.7854163"><ele>4.0</ele><time>2026-04-22T09:51:47.337Z</time></trkpt><trkpt lat="44.6502122" lon="11.7855468"><ele>4.0</ele><time>2026-04-22T09:51:49.337Z</time></trkpt><trkpt lat="44.6501469" lon="11.7856813"><ele>4.2</ele><time>2026-04-22T09:51:51.345Z</time></trkpt><trkpt lat="44.6500823" lon="11.7858149"><ele>4.4</ele><time>2026-04-22T09:51:53.343Z</time></trkpt><trkpt lat="44.6500153" lon="11.7859444"><ele>4.6</ele><time>2026-04-22T09:51:55.346Z</time></trkpt><trkpt lat="44.6499614" lon="11.7860693"><ele>4.8</ele><time>2026-04-22T09:51:57.354Z</time></trkpt><trkpt lat="44.6499041" lon="11.7861903"><ele>5.0</ele><time>2026-04-22T09:51:59.345Z</time></trkpt><trkpt lat="44.6498462" lon="11.7863129"><ele>4.2</ele><time>2026-04-22T09:52:01.345Z</time></trkpt><trkpt lat="44.6497867" lon="11.7864364"><ele>3.4</ele><time>2026-04-22T09:52:03.339Z</time></trkpt><trkpt lat="44.649732" lon="11.7865649"><ele>2.6</ele><time>2026-04-22T09:52:05.347Z</time></trkpt><trkpt lat="44.6496931" lon="11.7867032"><ele>1.8</ele><time>2026-04-22T09:52:07.344Z</time></trkpt><trkpt lat="44.6496615" lon="11.7868441"><ele>1.0</ele><time>2026-04-22T09:52:09.358Z</time></trkpt><trkpt lat="44.6496313" lon="11.7869873"><ele>1.0</ele><time>2026-04-22T09:52:11.347Z</time></trkpt><trkpt lat="44.6496182" lon="11.78713"><ele>1.0</ele><time>2026-04-22T09:52:13.34Z</time></trkpt><trkpt lat="44.6496596" lon="11.7872568"><ele>1.0</ele><time>2026-04-22T09:52:15.34Z</time></trkpt><trkpt lat="44.649749" lon="11.7873218"><ele>1.0</ele><time>2026-04-22T09:52:17.348Z</time></trkpt><trkpt lat="44.6498529" lon="11.7873274"><ele>1.0</ele><time>2026-04-22T09:52:19.346Z</time></trkpt><trkpt lat="44.6499501" lon="11.7872686"><ele>1.0</ele><time>2026-04-22T09:52:21.353Z</time></trkpt><trkpt lat="44.6500473" lon="11.7872049"><ele>1.0</ele><time>2026-04-22T09:52:23.347Z</time></trkpt><trkpt lat="44.6501456" lon="11.787136"><ele>1.0</ele><time>2026-04-22T09:52:25.354Z</time></trkpt><trkpt lat="44.6502472" lon="11.7870668"><ele>1.0</ele><time>2026-04-22T09:52:27.348Z</time></trkpt><trkpt lat="44.6503494" lon="11.7869922"><ele>1.0</ele><time>2026-04-22T09:52:29.345Z</time></trkpt><trkpt lat="44.6504515" lon="11.7869172"><ele>1.25</ele><time>2026-04-22T09:52:31.354Z</time></trkpt><trkpt lat="44.6505536" lon="11.7868392"><ele>1.5</ele><time>2026-04-22T09:52:33.354Z</time></trkpt><trkpt lat="44.6506568" lon="11.7867601"><ele>1.75</ele><time>2026-04-22T09:52:35.352Z</time></trkpt><trkpt lat="44.6507607" lon="11.7866774"><ele>2.0</ele><time>2026-04-22T09:52:37.353Z</time></trkpt><trkpt lat="44.650864" lon="11.7865914"><ele>2.0</ele><time>2026-04-22T09:52:39.358Z</time></trkpt><trkpt lat="44.6509689" lon="11.7865041"><ele>2.0</ele><time>2026-04-22T09:52:41.345Z</time></trkpt><trkpt lat="44.6510723" lon="11.7864129"><ele>2.0</ele><time>2026-04-22T09:52:43.349Z</time></trkpt><trkpt lat="44.6511752" lon="11.7863216"><ele>2.0</ele><time>2026-04-22T09:52:45.356Z</time></trkpt><trkpt lat="44.6512777" lon="11.7862285"><ele>1.5</ele><time>2026-04-22T09:52:47.35Z</time></trkpt><trkpt lat="44.65138" lon="11.7861316"><ele>1.0</ele><time>2026-04-22T09:52:49.35Z</time></trkpt><trkpt lat="44.6514797" lon="11.7860307"><ele>0.5</ele><time>2026-04-22T09:52:51.357Z</time></trkpt><trkpt lat="44.6515811" lon="11.7859305"><ele>0.0</ele><time>2026-04-22T09:52:53.344Z</time></trkpt><trkpt lat="44.6516798" lon="11.7858271"><ele>0.0</ele><time>2026-04-22T09:52:55.343Z</time></trkpt><trkpt lat="44.6517779" lon="11.7857232"><ele>0.0</ele><time>2026-04-22T09:52:57.348Z</time></trkpt><trkpt lat="44.6518749" lon="11.7856179"><ele>0.0</ele><time>2026-04-22T09:52:59.345Z</time></trkpt><trkpt lat="44.6519705" lon="11.7855105"><ele>0.0</ele><time>2026-04-22T09:53:01.343Z</time></trkpt><trkpt lat="44.6520653" lon="11.7854015"><ele>0.0</ele><time>2026-04-22T09:53:03.345Z</time></trkpt><trkpt lat="44.6521614" lon="11.7852924"><ele>0.0</ele><time>2026-04-22T09:53:05.351Z</time></trkpt><trkpt lat="44.6522557" lon="11.7851824"><ele>0.0</ele><time>2026-04-22T09:53:07.349Z</time></trkpt><trkpt lat="44.6523464" lon="11.7850668"><ele>0.0</ele><time>2026-04-22T09:53:09.35Z</time></trkpt><trkpt lat="44.6524405" lon="11.7849552"><ele>0.0</ele><time>2026-04-22T09:53:11.337Z</time></trkpt><trkpt lat="44.6525361" lon="11.7848413"><ele>0.0</ele><time>2026-04-22T09:53:13.347Z</time></trkpt><trkpt lat="44.6526299" lon="11.7847271"><ele>0.0</ele><time>2026-04-22T09:53:15.354Z</time></trkpt><trkpt lat="44.6527238" lon="11.7846139"><ele>0.0</ele><time>2026-04-22T09:53:17.347Z</time></trkpt><trkpt lat="44.6528172" lon="11.784502"><ele>0.0</ele><time>2026-04-22T09:53:19.344Z</time></trkpt><trkpt lat="44.6529109" lon="11.7843903"><ele>0.0</ele><time>2026-04-22T09:53:21.349Z</time></trkpt><trkpt lat="44.6530058" lon="11.7842757"><ele>0.0</ele><time>2026-04-22T09:53:23.353Z</time></trkpt><trkpt lat="44.6531004" lon="11.784161"><ele>0.0</ele><time>2026-04-22T09:53:25.346Z</time></trkpt><trkpt lat="44.6531482" lon="11.7841034"><ele>0.0</ele><time>2026-04-22T09:53:26.352Z</time></trkpt><trkpt lat="44.6532447" lon="11.7839904"><ele>0.0</ele><time>2026-04-22T09:53:28.345Z</time></trkpt><trkpt lat="44.6533386" lon="11.7838744"><ele>0.0</ele><time>2026-04-22T09:53:30.349Z</time></trkpt><trkpt lat="44.6534338" lon="11.7837609"><ele>0.0</ele><time>2026-04-22T09:53:32.354Z</time></trkpt><trkpt lat="44.6535295" lon="11.7836471"><ele>0.0</ele><time>2026-04-22T09:53:34.35Z</time></trkpt><trkpt lat="44.6535779" lon="11.78359"><ele>0.0</ele><time>2026-04-22T09:53:35.35Z</time></trkpt><trkpt lat="44.6536266" lon="11.7835317"><ele>0.0</ele><time>2026-04-22T09:53:36.343Z</time></trkpt><trkpt lat="44.6536751" lon="11.7834736"><ele>0.0</ele><time>2026-04-22T09:53:37.351Z</time></trkpt><trkpt lat="44.6537234" lon="11.783416"><ele>0.0</ele><time>2026-04-22T09:53:38.342Z</time></trkpt><trkpt lat="44.6537718" lon="11.7833579"><ele>0.0</ele><time>2026-04-22T09:53:39.363Z</time></trkpt><trkpt lat="44.65382" lon="11.7833"><ele>0.0</ele><time>2026-04-22T09:53:40.35Z</time></trkpt><trkpt lat="44.6538671" lon="11.7832411"><ele>0.0</ele><time>2026-04-22T09:53:41.344Z</time></trkpt><trkpt lat="44.6539635" lon="11.7831292"><ele>0.0</ele><time>2026-04-22T09:53:43.348Z</time></trkpt><trkpt lat="44.6540581" lon="11.783012"><ele>0.0</ele><time>2026-04-22T09:53:45.351Z</time></trkpt><trkpt lat="44.6541058" lon="11.7829541"><ele>0.0</ele><time>2026-04-22T09:53:46.347Z</time></trkpt><trkpt lat="44.654154" lon="11.7828946"><ele>0.0</ele><time>2026-04-22T09:53:47.354Z</time></trkpt><trkpt lat="44.6542022" lon="11.7828366"><ele>0.0</ele><time>2026-04-22T09:53:48.342Z</time></trkpt><trkpt lat="44.6542507" lon="11.7827784"><ele>0.0</ele><time>2026-04-22T09:53:49.355Z</time></trkpt><trkpt lat="44.6542995" lon="11.7827215"><ele>0.0</ele><time>2026-04-22T09:53:50.343Z</time></trkpt><trkpt lat="44.6543479" lon="11.7826629"><ele>0.0</ele><time>2026-04-22T09:53:51.346Z</time></trkpt><trkpt lat="44.6543954" lon="11.7826043"><ele>0.0</ele><time>2026-04-22T09:53:52.346Z</time></trkpt><trkpt lat="44.6544432" lon="11.7825452"><ele>0.3333333333333333</ele><time>2026-04-22T09:53:53.352Z</time></trkpt><trkpt lat="44.6544921" lon="11.7824886"><ele>0.6666666666666666</ele><time>2026-04-22T09:53:54.344Z</time></trkpt><trkpt lat="44.654541" lon="11.7824305"><ele>1.0</ele><time>2026-04-22T09:53:55.349Z</time></trkpt><trkpt lat="44.6545893" lon="11.7823724"><ele>1.3333333333333333</ele><time>2026-04-22T09:53:56.349Z</time></trkpt><trkpt lat="44.6546371" lon="11.7823132"><ele>1.6666666666666665</ele><time>2026-04-22T09:53:57.353Z</time></trkpt><trkpt lat="44.6547333" lon="11.7821993"><ele>2.0</ele><time>2026-04-22T09:53:59.354Z</time></trkpt><trkpt lat="44.6548291" lon="11.7820837"><ele>2.0</ele><time>2026-04-22T09:54:01.357Z</time></trkpt><trkpt lat="44.6549241" lon="11.7819682"><ele>2.0</ele><time>2026-04-22T09:54:03.355Z</time></trkpt><trkpt lat="44.6550186" lon="11.7818532"><ele>2.0</ele><time>2026-04-22T09:54:05.354Z</time></trkpt><trkpt lat="44.6551137" lon="11.7817401"><ele>2.0</ele><time>2026-04-22T09:54:07.342Z</time></trkpt><trkpt lat="44.6552086" lon="11.7816252"><ele>2.0</ele><time>2026-04-22T09:54:09.343Z</time></trkpt><trkpt lat="44.655304" lon="11.7815106"><ele>1.9999999999999998</ele><time>2026-04-22T09:54:11.347Z</time></trkpt><trkpt lat="44.6553522" lon="11.781452"><ele>2.0</ele><time>2026-04-22T09:54:12.349Z</time></trkpt><trkpt lat="44.6554007" lon="11.7813936"><ele>2.0</ele><time>2026-04-22T09:54:13.337Z</time></trkpt><trkpt lat="44.6554494" lon="11.7813345"><ele>1.9999999999999998</ele><time>2026-04-22T09:54:14.353Z</time></trkpt><trkpt lat="44.655498" lon="11.7812763"><ele>2.0</ele><time>2026-04-22T09:54:15.359Z</time></trkpt><trkpt lat="44.6555469" lon="11.7812165"><ele>2.0</ele><time>2026-04-22T09:54:16.344Z</time></trkpt><trkpt lat="44.6555961" lon="11.7811568"><ele>2.0</ele><time>2026-04-22T09:54:17.346Z</time></trkpt><trkpt lat="44.6556459" lon="11.7810979"><ele>1.9999999999999998</ele><time>2026-04-22T09:54:18.347Z</time></trkpt><trkpt lat="44.6556955" lon="11.78104"><ele>2.0</ele><time>2026-04-22T09:54:19.351Z</time></trkpt><trkpt lat="44.6557446" lon="11.7809802"><ele>2.0</ele><time>2026-04-22T09:54:20.349Z</time></trkpt><trkpt lat="44.6557935" lon="11.7809217"><ele>1.9999999999999998</ele><time>2026-04-22T09:54:21.343Z</time></trkpt><trkpt lat="44.6558421" lon="11.7808625"><ele>2.0</ele><time>2026-04-22T09:54:22.346Z</time></trkpt><trkpt lat="44.6558904" lon="11.7808035"><ele>2.0</ele><time>2026-04-22T09:54:23.351Z</time></trkpt><trkpt lat="44.6559384" lon="11.7807433"><ele>2.0</ele><time>2026-04-22T09:54:24.349Z</time></trkpt><trkpt lat="44.6559874" lon="11.7806852"><ele>1.9999999999999998</ele><time>2026-04-22T09:54:25.347Z</time></trkpt><trkpt lat="44.6560363" lon="11.7806269"><ele>2.0</ele><time>2026-04-22T09:54:26.352Z</time></trkpt><trkpt lat="44.6560851" lon="11.7805672"><ele>2.0</ele><time>2026-04-22T09:54:27.352Z</time></trkpt><trkpt lat="44.6561346" lon="11.780508"><ele>1.9999999999999998</ele><time>2026-04-22T09:54:28.352Z</time></trkpt><trkpt lat="44.656184" lon="11.7804486"><ele>2.0</ele><time>2026-04-22T09:54:29.341Z</time></trkpt><trkpt lat="44.6562325" lon="11.7803895"><ele>2.0</ele><time>2026-04-22T09:54:30.348Z</time></trkpt><trkpt lat="44.6562813" lon="11.7803298"><ele>1.8333333333333333</ele><time>2026-04-22T09:54:31.35Z</time></trkpt><trkpt lat="44.6563307" lon="11.7802726"><ele>1.6666666666666665</ele><time>2026-04-22T09:54:32.346Z</time></trkpt><trkpt lat="44.6563798" lon="11.7802146"><ele>1.5</ele><time>2026-04-22T09:54:33.352Z</time></trkpt><trkpt lat="44.6564278" lon="11.7801563"><ele>1.3333333333333333</ele><time>2026-04-22T09:54:34.352Z</time></trkpt><trkpt lat="44.6564757" lon="11.7800972"><ele>1.1666666666666665</ele><time>2026-04-22T09:54:35.346Z</time></trkpt><trkpt lat="44.6565714" lon="11.7799816"><ele>1.0</ele><time>2026-04-22T09:54:37.362Z</time></trkpt><trkpt lat="44.656668" lon="11.7798683"><ele>1.0</ele><time>2026-04-22T09:54:39.348Z</time></trkpt><trkpt lat="44.6567171" lon="11.7798115"><ele>1.0</ele><time>2026-04-22T09:54:40.347Z</time></trkpt><trkpt lat="44.6567648" lon="11.7797523"><ele>1.0</ele><time>2026-04-22T09:54:41.339Z</time></trkpt><trkpt lat="44.6568114" lon="11.7796927"><ele>1.0</ele><time>2026-04-22T09:54:42.352Z</time></trkpt><trkpt lat="44.6568595" lon="11.7796356"><ele>1.0</ele><time>2026-04-22T09:54:43.352Z</time></trkpt><trkpt lat="44.6569073" lon="11.7795771"><ele>1.0</ele><time>2026-04-22T09:54:44.344Z</time></trkpt><trkpt lat="44.6569552" lon="11.7795183"><ele>1.0</ele><time>2026-04-22T09:54:45.344Z</time></trkpt><trkpt lat="44.6570034" lon="11.7794604"><ele>1.0</ele><time>2026-04-22T09:54:46.354Z</time></trkpt><trkpt lat="44.6570511" lon="11.7794016"><ele>0.875</ele><time>2026-04-22T09:54:47.349Z</time></trkpt><trkpt lat="44.657099" lon="11.7793423"><ele>0.75</ele><time>2026-04-22T09:54:48.355Z</time></trkpt><trkpt lat="44.6571473" lon="11.7792833"><ele>0.625</ele><time>2026-04-22T09:54:49.346Z</time></trkpt><trkpt lat="44.6571966" lon="11.7792262"><ele>0.5</ele><time>2026-04-22T09:54:50.349Z</time></trkpt><trkpt lat="44.6572452" lon="11.7791689"><ele>0.375</ele><time>2026-04-22T09:54:51.35Z</time></trkpt><trkpt lat="44.6572939" lon="11.7791112"><ele>0.25</ele><time>2026-04-22T09:54:52.343Z</time></trkpt><trkpt lat="44.6573417" lon="11.7790526"><ele>0.125</ele><time>2026-04-22T09:54:53.348Z</time></trkpt><trkpt lat="44.6573887" lon="11.7789927"><ele>0.0</ele><time>2026-04-22T09:54:54.352Z</time></trkpt><trkpt lat="44.6574362" lon="11.7789344"><ele>0.0</ele><time>2026-04-22T09:54:55.348Z</time></trkpt><trkpt lat="44.6574845" lon="11.7788774"><ele>0.0</ele><time>2026-04-22T09:54:56.345Z</time></trkpt><trkpt lat="44.657581" lon="11.7787639"><ele>0.0</ele><time>2026-04-22T09:54:58.349Z</time></trkpt><trkpt lat="44.6576283" lon="11.7787053"><ele>0.0</ele><time>2026-04-22T09:54:59.344Z</time></trkpt><trkpt lat="44.657677" lon="11.7786477"><ele>0.0</ele><time>2026-04-22T09:55:00.351Z</time></trkpt><trkpt lat="44.6577259" lon="11.7785907"><ele>0.0</ele><time>2026-04-22T09:55:01.342Z</time></trkpt><trkpt lat="44.6577735" lon="11.7785318"><ele>0.0</ele><time>2026-04-22T09:55:02.349Z</time></trkpt><trkpt lat="44.6578679" lon="11.7784173"><ele>0.0</ele><time>2026-04-22T09:55:04.347Z</time></trkpt><trkpt lat="44.6579589" lon="11.7783107"><ele>0.0</ele><time>2026-04-22T09:55:06.352Z</time></trkpt><trkpt lat="44.6580398" lon="11.7782031"><ele>0.0</ele><time>2026-04-22T09:55:08.353Z</time></trkpt><trkpt lat="44.6581168" lon="11.7781068"><ele>0.0</ele><time>2026-04-22T09:55:10.348Z</time></trkpt><trkpt lat="44.6581989" lon="11.7780075"><ele>0.0</ele><time>2026-04-22T09:55:12.35Z</time></trkpt><trkpt lat="44.6582594" lon="11.7778903"><ele>0.0</ele><time>2026-04-22T09:55:14.344Z</time></trkpt><trkpt lat="44.6582521" lon="11.7777428"><ele>0.0</ele><time>2026-04-22T09:55:16.353Z</time></trkpt><trkpt lat="44.6581871" lon="11.7776189"><ele>0.0</ele><time>2026-04-22T09:55:18.354Z</time></trkpt><trkpt lat="44.6580887" lon="11.7775349"><ele>0.0</ele><time>2026-04-22T09:55:20.353Z</time></trkpt><trkpt lat="44.65798" lon="11.7774835"><ele>0.0</ele><time>2026-04-22T09:55:22.346Z</time></trkpt><trkpt lat="44.6578644" lon="11.777485"><ele>0.0</ele><time>2026-04-22T09:55:24.354Z</time></trkpt><trkpt lat="44.6577484" lon="11.7775073"><ele>0.0</ele><time>2026-04-22T09:55:26.345Z</time></trkpt><trkpt lat="44.6576337" lon="11.7775423"><ele>0.0</ele><time>2026-04-22T09:55:28.356Z</time></trkpt><trkpt lat="44.6575208" lon="11.7775872"><ele>0.0</ele><time>2026-04-22T09:55:30.348Z</time></trkpt><trkpt lat="44.6574072" lon="11.7776375"><ele>0.0</ele><time>2026-04-22T09:55:32.356Z</time></trkpt><trkpt lat="44.6572988" lon="11.7777019"><ele>0.0</ele><time>2026-04-22T09:55:34.341Z</time></trkpt><trkpt lat="44.6571986" lon="11.7777903"><ele>0.0</ele><time>2026-04-22T09:55:36.341Z</time></trkpt><trkpt lat="44.6571034" lon="11.7778863"><ele>0.0</ele><time>2026-04-22T09:55:38.346Z</time></trkpt><trkpt lat="44.6570061" lon="11.7779754"><ele>0.5</ele><time>2026-04-22T09:55:40.345Z</time></trkpt><trkpt lat="44.6569069" lon="11.778059"><ele>1.0</ele><time>2026-04-22T09:55:42.351Z</time></trkpt><trkpt lat="44.6568054" lon="11.7781429"><ele>1.5</ele><time>2026-04-22T09:55:44.332Z</time></trkpt><trkpt lat="44.6567051" lon="11.7782096"><ele>2.0</ele><time>2026-04-22T09:55:46.346Z</time></trkpt><trkpt lat="44.6565987" lon="11.7782637"><ele>2.0</ele><time>2026-04-22T09:55:48.343Z</time></trkpt><trkpt lat="44.6564928" lon="11.7783063"><ele>2.0</ele><time>2026-04-22T09:55:50.338Z</time></trkpt><trkpt lat="44.6563979" lon="11.778349"><ele>2.0</ele><time>2026-04-22T09:55:52.34Z</time></trkpt><trkpt lat="44.6562921" lon="11.7783973"><ele>2.0</ele><time>2026-04-22T09:55:54.333Z</time></trkpt><trkpt lat="44.6561893" lon="11.7784358"><ele>2.0</ele><time>2026-04-22T09:55:56.348Z</time></trkpt><trkpt lat="44.6560826" lon="11.7784606"><ele>2.2</ele><time>2026-04-22T09:55:58.337Z</time></trkpt><trkpt lat="44.6559684" lon="11.7784778"><ele>2.4000000000000004</ele><time>2026-04-22T09:56:00.352Z</time></trkpt><trkpt lat="44.6558569" lon="11.7784747"><ele>2.5999999999999996</ele><time>2026-04-22T09:56:02.331Z</time></trkpt><trkpt lat="44.6557521" lon="11.7784352"><ele>2.8</ele><time>2026-04-22T09:56:04.355Z</time></trkpt><trkpt lat="44.6556583" lon="11.7783495"><ele>3.0</ele><time>2026-04-22T09:56:06.349Z</time></trkpt><trkpt lat="44.6555797" lon="11.7782378"><ele>3.0</ele><time>2026-04-22T09:56:08.347Z</time></trkpt><trkpt lat="44.6554974" lon="11.7781292"><ele>3.0</ele><time>2026-04-22T09:56:10.344Z</time></trkpt><trkpt lat="44.6554187" lon="11.7780118"><ele>3.0</ele><time>2026-04-22T09:56:12.342Z</time></trkpt><trkpt lat="44.6553424" lon="11.7778971"><ele>3.0</ele><time>2026-04-22T09:56:14.36Z</time></trkpt><trkpt lat="44.6552584" lon="11.7777772"><ele>3.25</ele><time>2026-04-22T09:56:16.346Z</time></trkpt><trkpt lat="44.6551747" lon="11.7776593"><ele>3.5</ele><time>2026-04-22T09:56:18.344Z</time></trkpt><trkpt lat="44.6550918" lon="11.7775499"><ele>3.75</ele><time>2026-04-22T09:56:20.344Z</time></trkpt><trkpt lat="44.6550086" lon="11.7774387"><ele>4.0</ele><time>2026-04-22T09:56:22.346Z</time></trkpt><trkpt lat="44.654924" lon="11.7773267"><ele>4.0</ele><time>2026-04-22T09:56:24.344Z</time></trkpt><trkpt lat="44.6548403" lon="11.7772131"><ele>4.0</ele><time>2026-04-22T09:56:26.344Z</time></trkpt><trkpt lat="44.6547574" lon="11.7771025"><ele>4.0</ele><time>2026-04-22T09:56:28.355Z</time></trkpt><trkpt lat="44.6546806" lon="11.776991"><ele>4.0</ele><time>2026-04-22T09:56:30.351Z</time></trkpt><trkpt lat="44.6546111" lon="11.7768779"><ele>4.0</ele><time>2026-04-22T09:56:32.342Z</time></trkpt><trkpt lat="44.6545496" lon="11.7767536"><ele>4.0</ele><time>2026-04-22T09:56:34.352Z</time></trkpt><trkpt lat="44.6544915" lon="11.7766285"><ele>4.0</ele><time>2026-04-22T09:56:36.35Z</time></trkpt><trkpt lat="44.654432" lon="11.7765045"><ele>4.0</ele><time>2026-04-22T09:56:38.349Z</time></trkpt><trkpt lat="44.6543752" lon="11.7763844"><ele>4.0</ele><time>2026-04-22T09:56:40.344Z</time></trkpt><trkpt lat="44.6543227" lon="11.776267"><ele>4.0</ele><time>2026-04-22T09:56:42.344Z</time></trkpt><trkpt lat="44.6542727" lon="11.7761559"><ele>3.9999999999999996</ele><time>2026-04-22T09:56:44.348Z</time></trkpt><trkpt lat="44.6542223" lon="11.7760505"><ele>4.0</ele><time>2026-04-22T09:56:46.346Z</time></trkpt><trkpt lat="44.6541541" lon="11.775982"><ele>4.0</ele><time>2026-04-22T09:56:48.339Z</time></trkpt><trkpt lat="44.6540733" lon="11.775991"><ele>4.0</ele><time>2026-04-22T09:56:50.342Z</time></trkpt><trkpt lat="44.6539927" lon="11.776047"><ele>3.9999999999999996</ele><time>2026-04-22T09:56:52.349Z</time></trkpt><trkpt lat="44.6539103" lon="11.7761141"><ele>4.0</ele><time>2026-04-22T09:56:54.346Z</time></trkpt><trkpt lat="44.653829" lon="11.7761816"><ele>4.0</ele><time>2026-04-22T09:56:56.343Z</time></trkpt><trkpt lat="44.6537413" lon="11.7762472"><ele>4.0</ele><time>2026-04-22T09:56:58.339Z</time></trkpt><trkpt lat="44.6536536" lon="11.7763075"><ele>4.0</ele><time>2026-04-22T09:57:00.36Z</time></trkpt><trkpt lat="44.6535633" lon="11.7763698"><ele>4.0</ele><time>2026-04-22T09:57:02.347Z</time></trkpt><trkpt lat="44.6534788" lon="11.7764355"><ele>4.0</ele><time>2026-04-22T09:57:04.349Z</time></trkpt><trkpt lat="44.6533967" lon="11.7765057"><ele>4.166666666666666</ele><time>2026-04-22T09:57:06.338Z</time></trkpt><trkpt lat="44.6533272" lon="11.7765593"><ele>4.333333333333333</ele><time>2026-04-22T09:57:08.343Z</time></trkpt><trkpt lat="44.6532507" lon="11.7766164"><ele>4.5</ele><time>2026-04-22T09:57:10.354Z</time></trkpt><trkpt lat="44.653193" lon="11.7766548"><ele>4.666666666666667</ele><time>2026-04-22T09:57:12.344Z</time></trkpt><trkpt lat="44.6532728" lon="11.776653"><ele>4.833333333333334</ele><time>2026-04-22T09:57:17.35Z</time></trkpt><trkpt lat="44.6533293" lon="11.7765934"><ele>5.0</ele><time>2026-04-22T09:57:19.349Z</time></trkpt><trkpt lat="44.6533939" lon="11.7765359"><ele>5.0</ele><time>2026-04-22T09:57:21.339Z</time></trkpt><trkpt lat="44.6534589" lon="11.776476"><ele>5.0</ele><time>2026-04-22T09:57:23.334Z</time></trkpt><trkpt lat="44.6535197" lon="11.7764106"><ele>5.0</ele><time>2026-04-22T09:57:25.335Z</time></trkpt><trkpt lat="44.6535801" lon="11.7763482"><ele>5.0</ele><time>2026-04-22T09:57:27.336Z</time></trkpt><trkpt lat="44.6536444" lon="11.7762929"><ele>5.0</ele><time>2026-04-22T09:57:29.329Z</time></trkpt><trkpt lat="44.6537157" lon="11.7762511"><ele>5.0</ele><time>2026-04-22T09:57:31.342Z</time></trkpt><trkpt lat="44.6537844" lon="11.7761931"><ele>5.0</ele><time>2026-04-22T09:57:33.347Z</time></trkpt><trkpt lat="44.6538535" lon="11.7761334"><ele>5.0</ele><time>2026-04-22T09:57:35.341Z</time></trkpt><trkpt lat="44.6539217" lon="11.7760841"><ele>5.0</ele><time>2026-04-22T09:57:37.332Z</time></trkpt><trkpt lat="44.6539833" lon="11.776038"><ele>5.0</ele><time>2026-04-22T09:57:39.339Z</time></trkpt><trkpt lat="44.6540395" lon="11.7759951"><ele>5.0</ele><time>2026-04-22T09:57:41.344Z</time></trkpt><trkpt lat="44.6541148" lon="11.7759419"><ele>5.0</ele><time>2026-04-22T09:57:44.354Z</time></trkpt><trkpt lat="44.6541577" lon="11.7758672"><ele>5.0</ele><time>2026-04-22T09:57:48.348Z</time></trkpt><trkpt lat="44.6541683" lon="11.7757651"><ele>5.0</ele><time>2026-04-22T09:57:51.34Z</time></trkpt><trkpt lat="44.6541562" lon="11.775672"><ele>5.0</ele><time>2026-04-22T09:57:54.346Z</time></trkpt><trkpt lat="44.6541575" lon="11.7755749"><ele>5.0</ele><time>2026-04-22T09:57:59.347Z</time></trkpt><trkpt lat="44.6542223" lon="11.7756735"><ele>5.0</ele><time>2026-04-22T10:00:38.344Z</time></trkpt><trkpt lat="44.6541709" lon="11.7756218"><ele>5.0</ele><time>2026-04-22T10:07:39.344Z</time></trkpt><trkpt lat="44.65411" lon="11.7755798"><ele>5.0</ele><time>2026-04-22T10:26:03.35Z</time></trkpt><trkpt lat="44.6540736" lon="11.7754819"><ele>5.0</ele><time>2026-04-22T10:26:07.352Z</time></trkpt><trkpt lat="44.6540511" lon="11.7753908"><ele>5.0</ele><time>2026-04-22T10:26:09.352Z</time></trkpt><trkpt lat="44.6540281" lon="11.775298"><ele>5.0</ele><time>2026-04-22T10:26:11.356Z</time></trkpt><trkpt lat="44.6540027" lon="11.775203"><ele>5.0</ele><time>2026-04-22T10:26:13.348Z</time></trkpt><trkpt lat="44.6539744" lon="11.7751009"><ele>5.0</ele><time>2026-04-22T10:26:15.351Z</time></trkpt><trkpt lat="44.6539443" lon="11.7749978"><ele>5.0</ele><time>2026-04-22T10:26:17.341Z</time></trkpt><trkpt lat="44.653918" lon="11.7748827"><ele>5.0</ele><time>2026-04-22T10:26:19.348Z</time></trkpt><trkpt lat="44.6538819" lon="11.7747802"><ele>5.166666666666667</ele><time>2026-04-22T10:26:21.346Z</time></trkpt><trkpt lat="44.6538428" lon="11.7746779"><ele>5.333333333333334</ele><time>2026-04-22T10:26:23.343Z</time></trkpt><trkpt lat="44.6538074" lon="11.7745752"><ele>5.5</ele><time>2026-04-22T10:26:25.36Z</time></trkpt><trkpt lat="44.6537742" lon="11.7744698"><ele>5.666666666666667</ele><time>2026-04-22T10:26:27.343Z</time></trkpt><trkpt lat="44.6537399" lon="11.7743638"><ele>5.833333333333333</ele><time>2026-04-22T10:26:29.351Z</time></trkpt><trkpt lat="44.6537041" lon="11.7742566"><ele>6.0</ele><time>2026-04-22T10:26:31.355Z</time></trkpt><trkpt lat="44.6536667" lon="11.7741496"><ele>6.0</ele><time>2026-04-22T10:26:33.354Z</time></trkpt><trkpt lat="44.6536277" lon="11.7740452"><ele>6.0</ele><time>2026-04-22T10:26:35.35Z</time></trkpt><trkpt lat="44.6535886" lon="11.7739374"><ele>6.0</ele><time>2026-04-22T10:26:37.342Z</time></trkpt><trkpt lat="44.6535459" lon="11.7738318"><ele>6.0</ele><time>2026-04-22T10:26:39.346Z</time></trkpt><trkpt lat="44.6535039" lon="11.7737287"><ele>6.0</ele><time>2026-04-22T10:26:41.346Z</time></trkpt><trkpt lat="44.653456" lon="11.7736314"><ele>6.0</ele><time>2026-04-22T10:26:43.345Z</time></trkpt><trkpt lat="44.6534051" lon="11.77354"><ele>6.166666666666667</ele><time>2026-04-22T10:26:45.341Z</time></trkpt><trkpt lat="44.6533557" lon="11.7734523"><ele>6.333333333333334</ele><time>2026-04-22T10:26:47.334Z</time></trkpt><trkpt lat="44.6533153" lon="11.7733567"><ele>6.5</ele><time>2026-04-22T10:26:49.349Z</time></trkpt><trkpt lat="44.6532986" lon="11.7732441"><ele>6.666666666666667</ele><time>2026-04-22T10:26:51.342Z</time></trkpt><trkpt lat="44.6533136" lon="11.7731238"><ele>6.833333333333334</ele><time>2026-04-22T10:26:53.335Z</time></trkpt><trkpt lat="44.653334" lon="11.7729944"><ele>7.0</ele><time>2026-04-22T10:26:55.346Z</time></trkpt><trkpt lat="44.653356" lon="11.7728557"><ele>7.0</ele><time>2026-04-22T10:26:57.341Z</time></trkpt><trkpt lat="44.6533773" lon="11.7727144"><ele>6.999999999999999</ele><time>2026-04-22T10:26:59.344Z</time></trkpt><trkpt lat="44.6533998" lon="11.7725707"><ele>6.999999999999999</ele><time>2026-04-22T10:27:01.359Z</time></trkpt><trkpt lat="44.6534211" lon="11.7724234"><ele>7.0</ele><time>2026-04-22T10:27:03.349Z</time></trkpt><trkpt lat="44.6534422" lon="11.7722752"><ele>7.0</ele><time>2026-04-22T10:27:05.355Z</time></trkpt><trkpt lat="44.6534647" lon="11.7721281"><ele>7.0</ele><time>2026-04-22T10:27:07.348Z</time></trkpt><trkpt lat="44.6534873" lon="11.771979"><ele>6.999999999999999</ele><time>2026-04-22T10:27:09.346Z</time></trkpt><trkpt lat="44.6535084" lon="11.7718277"><ele>6.999999999999999</ele><time>2026-04-22T10:27:11.359Z</time></trkpt><trkpt lat="44.6535338" lon="11.7716765"><ele>7.0</ele><time>2026-04-22T10:27:13.349Z</time></trkpt><trkpt lat="44.6535567" lon="11.7715255"><ele>7.0</ele><time>2026-04-22T10:27:15.346Z</time></trkpt><trkpt lat="44.6535819" lon="11.7713737"><ele>7.0</ele><time>2026-04-22T10:27:17.345Z</time></trkpt><trkpt lat="44.6536068" lon="11.7712183"><ele>7.0</ele><time>2026-04-22T10:27:19.35Z</time></trkpt><trkpt lat="44.6536315" lon="11.771062"><ele>7.0</ele><time>2026-04-22T10:27:21.346Z</time></trkpt><trkpt lat="44.6536561" lon="11.7709038"><ele>7.0</ele><time>2026-04-22T10:27:23.344Z</time></trkpt><trkpt lat="44.6536803" lon="11.7707457"><ele>6.25</ele><time>2026-04-22T10:27:25.344Z</time></trkpt><trkpt lat="44.6537071" lon="11.7705861"><ele>5.5</ele><time>2026-04-22T10:27:27.35Z</time></trkpt><trkpt lat="44.6537313" lon="11.7704233"><ele>4.75</ele><time>2026-04-22T10:27:29.347Z</time></trkpt><trkpt lat="44.6537571" lon="11.770258"><ele>4.0</ele><time>2026-04-22T10:27:31.349Z</time></trkpt><trkpt lat="44.6537868" lon="11.770091"><ele>4.0</ele><time>2026-04-22T10:27:33.353Z</time></trkpt><trkpt lat="44.6538209" lon="11.7699254"><ele>4.0</ele><time>2026-04-22T10:27:35.359Z</time></trkpt><trkpt lat="44.6538665" lon="11.7697633"><ele>4.0</ele><time>2026-04-22T10:27:37.342Z</time></trkpt><trkpt lat="44.6539207" lon="11.7696037"><ele>4.0</ele><time>2026-04-22T10:27:39.342Z</time></trkpt><trkpt lat="44.653949" lon="11.7695233"><ele>4.0</ele><time>2026-04-22T10:27:40.347Z</time></trkpt><trkpt lat="44.6539777" lon="11.7694424"><ele>4.0</ele><time>2026-04-22T10:27:41.343Z</time></trkpt><trkpt lat="44.6540064" lon="11.7693602"><ele>3.9999999999999996</ele><time>2026-04-22T10:27:42.361Z</time></trkpt><trkpt lat="44.6540352" lon="11.7692776"><ele>4.0</ele><time>2026-04-22T10:27:43.352Z</time></trkpt><trkpt lat="44.6540653" lon="11.7691946"><ele>4.0</ele><time>2026-04-22T10:27:44.348Z</time></trkpt><trkpt lat="44.6540951" lon="11.7691103"><ele>3.9999999999999996</ele><time>2026-04-22T10:27:45.349Z</time></trkpt><trkpt lat="44.6541247" lon="11.7690251"><ele>4.0</ele><time>2026-04-22T10:27:46.345Z</time></trkpt><trkpt lat="44.6541564" lon="11.7689405"><ele>4.0</ele><time>2026-04-22T10:27:47.349Z</time></trkpt><trkpt lat="44.6541863" lon="11.7688549"><ele>4.0</ele><time>2026-04-22T10:27:48.343Z</time></trkpt><trkpt lat="44.654216" lon="11.7687683"><ele>3.9999999999999996</ele><time>2026-04-22T10:27:49.357Z</time></trkpt><trkpt lat="44.6542453" lon="11.7686818"><ele>4.0</ele><time>2026-04-22T10:27:50.351Z</time></trkpt><trkpt lat="44.654276" lon="11.7685967"><ele>4.0</ele><time>2026-04-22T10:27:51.351Z</time></trkpt><trkpt lat="44.6543065" lon="11.768511"><ele>3.9999999999999996</ele><time>2026-04-22T10:27:52.349Z</time></trkpt><trkpt lat="44.6543377" lon="11.7684262"><ele>4.0</ele><time>2026-04-22T10:27:53.346Z</time></trkpt><trkpt lat="44.6543691" lon="11.7683413"><ele>4.0</ele><time>2026-04-22T10:27:54.352Z</time></trkpt><trkpt lat="44.6544008" lon="11.7682558"><ele>4.0</ele><time>2026-04-22T10:27:55.35Z</time></trkpt><trkpt lat="44.6544327" lon="11.768171"><ele>3.9999999999999996</ele><time>2026-04-22T10:27:56.348Z</time></trkpt><trkpt lat="44.6544657" lon="11.7680869"><ele>4.0</ele><time>2026-04-22T10:27:57.353Z</time></trkpt><trkpt lat="44.6545001" lon="11.7680042"><ele>4.0</ele><time>2026-04-22T10:27:58.343Z</time></trkpt><trkpt lat="44.6545374" lon="11.7679236"><ele>3.9999999999999996</ele><time>2026-04-22T10:27:59.353Z</time></trkpt><trkpt lat="44.6545772" lon="11.7678453"><ele>4.0</ele><time>2026-04-22T10:28:00.35Z</time></trkpt><trkpt lat="44.6546187" lon="11.7677682"><ele>4.0</ele><time>2026-04-22T10:28:01.349Z</time></trkpt><trkpt lat="44.6546633" lon="11.7676941"><ele>3.714285714285714</ele><time>2026-04-22T10:28:02.344Z</time></trkpt><trkpt lat="44.6547108" lon="11.7676222"><ele>3.428571428571428</ele><time>2026-04-22T10:28:03.353Z</time></trkpt><trkpt lat="44.6547603" lon="11.7675532"><ele>3.142857142857143</ele><time>2026-04-22T10:28:04.346Z</time></trkpt><trkpt lat="44.6548103" lon="11.7674875"><ele>2.8571428571428568</ele><time>2026-04-22T10:28:05.356Z</time></trkpt><trkpt lat="44.6548626" lon="11.7674256"><ele>2.571428571428571</ele><time>2026-04-22T10:28:06.349Z</time></trkpt><trkpt lat="44.6549158" lon="11.7673647"><ele>2.2857142857142856</ele><time>2026-04-22T10:28:07.346Z</time></trkpt><trkpt lat="44.6549682" lon="11.7673009"><ele>2.0</ele><time>2026-04-22T10:28:08.348Z</time></trkpt><trkpt lat="44.6550196" lon="11.7672363"><ele>2.0</ele><time>2026-04-22T10:28:09.35Z</time></trkpt><trkpt lat="44.655072" lon="11.7671725"><ele>1.9999999999999998</ele><time>2026-04-22T10:28:10.341Z</time></trkpt><trkpt lat="44.6551249" lon="11.7671096"><ele>2.0</ele><time>2026-04-22T10:28:11.352Z</time></trkpt><trkpt lat="44.6551781" lon="11.7670476"><ele>2.0</ele><time>2026-04-22T10:28:12.347Z</time></trkpt><trkpt lat="44.6552323" lon="11.7669883"><ele>1.9999999999999998</ele><time>2026-04-22T10:28:13.349Z</time></trkpt><trkpt lat="44.6552865" lon="11.7669295"><ele>2.0</ele><time>2026-04-22T10:28:14.354Z</time></trkpt><trkpt lat="44.6553401" lon="11.7668694"><ele>2.0</ele><time>2026-04-22T10:28:15.344Z</time></trkpt><trkpt lat="44.6553933" lon="11.7668098"><ele>1.7142857142857142</ele><time>2026-04-22T10:28:16.345Z</time></trkpt><trkpt lat="44.6554473" lon="11.7667514"><ele>1.4285714285714284</ele><time>2026-04-22T10:28:17.35Z</time></trkpt><trkpt lat="44.6555024" lon="11.7666963"><ele>1.1428571428571428</ele><time>2026-04-22T10:28:18.35Z</time></trkpt><trkpt lat="44.6555569" lon="11.7666395"><ele>0.8571428571428571</ele><time>2026-04-22T10:28:19.348Z</time></trkpt><trkpt lat="44.6556098" lon="11.7665797"><ele>0.5714285714285714</ele><time>2026-04-22T10:28:20.35Z</time></trkpt><trkpt lat="44.6556618" lon="11.7665197"><ele>0.2857142857142857</ele><time>2026-04-22T10:28:21.343Z</time></trkpt><trkpt lat="44.6557126" lon="11.7664591"><ele>0.0</ele><time>2026-04-22T10:28:22.347Z</time></trkpt><trkpt lat="44.655763" lon="11.7663978"><ele>0.0</ele><time>2026-04-22T10:28:23.35Z</time></trkpt><trkpt lat="44.6558118" lon="11.766335"><ele>0.0</ele><time>2026-04-22T10:28:24.351Z</time></trkpt><trkpt lat="44.6558597" lon="11.7662715"><ele>0.0</ele><time>2026-04-22T10:28:25.35Z</time></trkpt><trkpt lat="44.6559078" lon="11.7662078"><ele>0.0</ele><time>2026-04-22T10:28:26.348Z</time></trkpt><trkpt lat="44.6559558" lon="11.7661432"><ele>0.0</ele><time>2026-04-22T10:28:27.351Z</time></trkpt><trkpt lat="44.6560039" lon="11.7660776"><ele>0.0</ele><time>2026-04-22T10:28:28.349Z</time></trkpt><trkpt lat="44.6560513" lon="11.7660112"><ele>0.0</ele><time>2026-04-22T10:28:29.352Z</time></trkpt><trkpt lat="44.6560993" lon="11.7659448"><ele>0.14285714285714285</ele><time>2026-04-22T10:28:30.35Z</time></trkpt><trkpt lat="44.6561471" lon="11.7658778"><ele>0.2857142857142857</ele><time>2026-04-22T10:28:31.348Z</time></trkpt><trkpt lat="44.6561944" lon="11.7658093"><ele>0.42857142857142855</ele><time>2026-04-22T10:28:32.353Z</time></trkpt><trkpt lat="44.656242" lon="11.7657416"><ele>0.5714285714285714</ele><time>2026-04-22T10:28:33.352Z</time></trkpt><trkpt lat="44.65629" lon="11.7656732"><ele>0.7142857142857142</ele><time>2026-04-22T10:28:34.339Z</time></trkpt><trkpt lat="44.6563379" lon="11.7656043"><ele>0.8571428571428571</ele><time>2026-04-22T10:28:35.352Z</time></trkpt><trkpt lat="44.6563868" lon="11.7655358"><ele>1.0</ele><time>2026-04-22T10:28:36.349Z</time></trkpt><trkpt lat="44.6564357" lon="11.765467"><ele>1.0</ele><time>2026-04-22T10:28:37.361Z</time></trkpt><trkpt lat="44.6564842" lon="11.765398"><ele>0.9999999999999999</ele><time>2026-04-22T10:28:38.351Z</time></trkpt><trkpt lat="44.6565333" lon="11.7653285"><ele>1.0</ele><time>2026-04-22T10:28:39.357Z</time></trkpt><trkpt lat="44.6565818" lon="11.7652594"><ele>1.0</ele><time>2026-04-22T10:28:40.341Z</time></trkpt><trkpt lat="44.6566299" lon="11.7651905"><ele>0.9999999999999999</ele><time>2026-04-22T10:28:41.352Z</time></trkpt><trkpt lat="44.6566778" lon="11.7651224"><ele>1.0</ele><time>2026-04-22T10:28:42.343Z</time></trkpt><trkpt lat="44.6567255" lon="11.7650544"><ele>1.0</ele><time>2026-04-22T10:28:43.343Z</time></trkpt><trkpt lat="44.6567731" lon="11.764987"><ele>1.0</ele><time>2026-04-22T10:28:44.369Z</time></trkpt><trkpt lat="44.6568202" lon="11.7649192"><ele>0.9999999999999999</ele><time>2026-04-22T10:28:45.35Z</time></trkpt><trkpt lat="44.6568677" lon="11.7648519"><ele>1.0</ele><time>2026-04-22T10:28:46.356Z</time></trkpt><trkpt lat="44.6569154" lon="11.7647851"><ele>1.0</ele><time>2026-04-22T10:28:47.35Z</time></trkpt><trkpt lat="44.6569633" lon="11.764719"><ele>0.9999999999999999</ele><time>2026-04-22T10:28:48.351Z</time></trkpt><trkpt lat="44.6570112" lon="11.7646531"><ele>1.0</ele><time>2026-04-22T10:28:49.35Z</time></trkpt><trkpt lat="44.6570598" lon="11.7645872"><ele>1.0</ele><time>2026-04-22T10:28:50.354Z</time></trkpt><trkpt lat="44.6571087" lon="11.7645202"><ele>1.0</ele><time>2026-04-22T10:28:51.348Z</time></trkpt><trkpt lat="44.6571593" lon="11.7644562"><ele>0.9999999999999999</ele><time>2026-04-22T10:28:52.349Z</time></trkpt><trkpt lat="44.6572089" lon="11.7643909"><ele>1.0</ele><time>2026-04-22T10:28:53.35Z</time></trkpt><trkpt lat="44.6572585" lon="11.7643263"><ele>1.0</ele><time>2026-04-22T10:28:54.347Z</time></trkpt><trkpt lat="44.6573084" lon="11.7642623"><ele>0.9999999999999999</ele><time>2026-04-22T10:28:55.356Z</time></trkpt><trkpt lat="44.6573584" lon="11.7641988"><ele>1.0</ele><time>2026-04-22T10:28:56.352Z</time></trkpt><trkpt lat="44.6574082" lon="11.7641354"><ele>1.0</ele><time>2026-04-22T10:28:57.351Z</time></trkpt><trkpt lat="44.6574574" lon="11.7640722"><ele>1.1428571428571428</ele><time>2026-04-22T10:28:58.348Z</time></trkpt><trkpt lat="44.6575072" lon="11.7640094"><ele>1.2857142857142856</ele><time>2026-04-22T10:28:59.347Z</time></trkpt><trkpt lat="44.6575573" lon="11.7639478"><ele>1.4285714285714284</ele><time>2026-04-22T10:29:00.351Z</time></trkpt><trkpt lat="44.6576062" lon="11.763885"><ele>1.5714285714285714</ele><time>2026-04-22T10:29:01.332Z</time></trkpt><trkpt lat="44.6576538" lon="11.7638219"><ele>1.714285714285714</ele><time>2026-04-22T10:29:02.35Z</time></trkpt><trkpt lat="44.6577008" lon="11.7637574"><ele>1.857142857142857</ele><time>2026-04-22T10:29:03.346Z</time></trkpt><trkpt lat="44.6577474" lon="11.763693"><ele>2.0</ele><time>2026-04-22T10:29:04.356Z</time></trkpt><trkpt lat="44.6577938" lon="11.7636282"><ele>1.857142857142857</ele><time>2026-04-22T10:29:05.348Z</time></trkpt><trkpt lat="44.6578379" lon="11.7635597"><ele>1.714285714285714</ele><time>2026-04-22T10:29:06.347Z</time></trkpt><trkpt lat="44.6578807" lon="11.7634875"><ele>1.5714285714285714</ele><time>2026-04-22T10:29:07.35Z</time></trkpt><trkpt lat="44.6579208" lon="11.7634135"><ele>1.4285714285714284</ele><time>2026-04-22T10:29:08.346Z</time></trkpt><trkpt lat="44.6579601" lon="11.7633391"><ele>1.2857142857142856</ele><time>2026-04-22T10:29:09.357Z</time></trkpt><trkpt lat="44.6579984" lon="11.7632638"><ele>1.1428571428571428</ele><time>2026-04-22T10:29:10.351Z</time></trkpt><trkpt lat="44.6580364" lon="11.763188"><ele>1.0</ele><time>2026-04-22T10:29:11.353Z</time></trkpt><trkpt lat="44.6580727" lon="11.76311"><ele>1.0</ele><time>2026-04-22T10:29:12.354Z</time></trkpt><trkpt lat="44.6581063" lon="11.7630302"><ele>0.9999999999999999</ele><time>2026-04-22T10:29:13.35Z</time></trkpt><trkpt lat="44.6581397" lon="11.7629496"><ele>1.0</ele><time>2026-04-22T10:29:14.358Z</time></trkpt><trkpt lat="44.658174" lon="11.76287"><ele>1.0</ele><time>2026-04-22T10:29:15.352Z</time></trkpt><trkpt lat="44.6582081" lon="11.7627896"><ele>0.9999999999999999</ele><time>2026-04-22T10:29:16.348Z</time></trkpt><trkpt lat="44.6582425" lon="11.7627096"><ele>1.0</ele><time>2026-04-22T10:29:17.349Z</time></trkpt><trkpt lat="44.6582775" lon="11.7626314"><ele>1.0</ele><time>2026-04-22T10:29:18.343Z</time></trkpt><trkpt lat="44.6583102" lon="11.7625527"><ele>1.1428571428571428</ele><time>2026-04-22T10:29:19.354Z</time></trkpt><trkpt lat="44.6583453" lon="11.7624772"><ele>1.2857142857142856</ele><time>2026-04-22T10:29:20.345Z</time></trkpt><trkpt lat="44.6583759" lon="11.7623975"><ele>1.4285714285714284</ele><time>2026-04-22T10:29:21.344Z</time></trkpt><trkpt lat="44.6583969" lon="11.7623126"><ele>1.5714285714285714</ele><time>2026-04-22T10:29:22.35Z</time></trkpt><trkpt lat="44.6584019" lon="11.7622241"><ele>1.714285714285714</ele><time>2026-04-22T10:29:23.347Z</time></trkpt><trkpt lat="44.6583967" lon="11.7621357"><ele>1.857142857142857</ele><time>2026-04-22T10:29:24.35Z</time></trkpt><trkpt lat="44.6583619" lon="11.7619653"><ele>2.0</ele><time>2026-04-22T10:29:26.352Z</time></trkpt><trkpt lat="44.6583383" lon="11.7618799"><ele>2.142857142857143</ele><time>2026-04-22T10:29:27.348Z</time></trkpt><trkpt lat="44.6583132" lon="11.7617935"><ele>2.2857142857142856</ele><time>2026-04-22T10:29:28.341Z</time></trkpt><trkpt lat="44.6582878" lon="11.761707"><ele>2.4285714285714284</ele><time>2026-04-22T10:29:29.346Z</time></trkpt><trkpt lat="44.6582619" lon="11.7616201"><ele>2.571428571428571</ele><time>2026-04-22T10:29:30.35Z</time></trkpt><trkpt lat="44.6582355" lon="11.7615322"><ele>2.7142857142857144</ele><time>2026-04-22T10:29:31.356Z</time></trkpt><trkpt lat="44.6582094" lon="11.7614438"><ele>2.8571428571428568</ele><time>2026-04-22T10:29:32.352Z</time></trkpt><trkpt lat="44.6581833" lon="11.7613549"><ele>3.0</ele><time>2026-04-22T10:29:33.337Z</time></trkpt><trkpt lat="44.6581576" lon="11.7612658"><ele>2.9999999999999996</ele><time>2026-04-22T10:29:34.354Z</time></trkpt><trkpt lat="44.6581319" lon="11.761176"><ele>3.0</ele><time>2026-04-22T10:29:35.346Z</time></trkpt><trkpt lat="44.6581064" lon="11.7610858"><ele>3.0</ele><time>2026-04-22T10:29:36.355Z</time></trkpt><trkpt lat="44.6580804" lon="11.7609956"><ele>3.0</ele><time>2026-04-22T10:29:37.35Z</time></trkpt><trkpt lat="44.658055" lon="11.7609052"><ele>3.0</ele><time>2026-04-22T10:29:38.342Z</time></trkpt><trkpt lat="44.6580302" lon="11.7608151"><ele>2.9999999999999996</ele><time>2026-04-22T10:29:39.358Z</time></trkpt><trkpt lat="44.6580062" lon="11.7607248"><ele>3.0</ele><time>2026-04-22T10:29:40.347Z</time></trkpt><trkpt lat="44.6579822" lon="11.7606351"><ele>2.8571428571428568</ele><time>2026-04-22T10:29:41.345Z</time></trkpt><trkpt lat="44.6579585" lon="11.7605447"><ele>2.7142857142857144</ele><time>2026-04-22T10:29:42.353Z</time></trkpt><trkpt lat="44.6579356" lon="11.7604543"><ele>2.571428571428571</ele><time>2026-04-22T10:29:43.352Z</time></trkpt><trkpt lat="44.6579131" lon="11.7603642"><ele>2.4285714285714284</ele><time>2026-04-22T10:29:44.366Z</time></trkpt><trkpt lat="44.6578923" lon="11.7602735"><ele>2.2857142857142856</ele><time>2026-04-22T10:29:45.349Z</time></trkpt><trkpt lat="44.6578722" lon="11.7601822"><ele>2.142857142857143</ele><time>2026-04-22T10:29:46.35Z</time></trkpt><trkpt lat="44.657852" lon="11.7600916"><ele>2.0</ele><time>2026-04-22T10:29:47.35Z</time></trkpt><trkpt lat="44.6578321" lon="11.7600006"><ele>1.7142857142857142</ele><time>2026-04-22T10:29:48.345Z</time></trkpt><trkpt lat="44.6578127" lon="11.7599089"><ele>1.4285714285714284</ele><time>2026-04-22T10:29:49.344Z</time></trkpt><trkpt lat="44.6577945" lon="11.759816"><ele>1.1428571428571428</ele><time>2026-04-22T10:29:50.351Z</time></trkpt><trkpt lat="44.6577769" lon="11.7597237"><ele>0.8571428571428571</ele><time>2026-04-22T10:29:51.342Z</time></trkpt><trkpt lat="44.6577591" lon="11.759632"><ele>0.5714285714285714</ele><time>2026-04-22T10:29:52.345Z</time></trkpt><trkpt lat="44.6577414" lon="11.7595414"><ele>0.2857142857142857</ele><time>2026-04-22T10:29:53.335Z</time></trkpt><trkpt lat="44.6577227" lon="11.759452"><ele>0.0</ele><time>2026-04-22T10:29:54.351Z</time></trkpt><trkpt lat="44.6577048" lon="11.759364"><ele>0.0</ele><time>2026-04-22T10:29:55.348Z</time></trkpt><trkpt lat="44.6576882" lon="11.7592755"><ele>0.0</ele><time>2026-04-22T10:29:56.353Z</time></trkpt><trkpt lat="44.6576711" lon="11.7591891"><ele>0.0</ele><time>2026-04-22T10:29:57.349Z</time></trkpt><trkpt lat="44.6576364" lon="11.7590219"><ele>0.0</ele><time>2026-04-22T10:29:59.346Z</time></trkpt><trkpt lat="44.6576057" lon="11.7588598"><ele>0.0</ele><time>2026-04-22T10:30:01.356Z</time></trkpt><trkpt lat="44.657574" lon="11.7587057"><ele>0.0</ele><time>2026-04-22T10:30:03.349Z</time></trkpt><trkpt lat="44.6575433" lon="11.7585569"><ele>0.0</ele><time>2026-04-22T10:30:05.354Z</time></trkpt><trkpt lat="44.6575131" lon="11.7584207"><ele>0.0</ele><time>2026-04-22T10:30:07.348Z</time></trkpt><trkpt lat="44.6574855" lon="11.7582909"><ele>0.0</ele><time>2026-04-22T10:30:09.352Z</time></trkpt><trkpt lat="44.6574588" lon="11.7581574"><ele>0.0</ele><time>2026-04-22T10:30:11.34Z</time></trkpt><trkpt lat="44.657433" lon="11.7580326"><ele>0.2</ele><time>2026-04-22T10:30:13.355Z</time></trkpt><trkpt lat="44.6574121" lon="11.7579082"><ele>0.4</ele><time>2026-04-22T10:30:15.35Z</time></trkpt><trkpt lat="44.6574003" lon="11.757785"><ele>0.6000000000000001</ele><time>2026-04-22T10:30:17.358Z</time></trkpt><trkpt lat="44.6573978" lon="11.7576621"><ele>0.8</ele><time>2026-04-22T10:30:19.345Z</time></trkpt><trkpt lat="44.6574203" lon="11.7575373"><ele>1.0</ele><time>2026-04-22T10:30:21.351Z</time></trkpt><trkpt lat="44.6574575" lon="11.7574129"><ele>1.4</ele><time>2026-04-22T10:30:23.352Z</time></trkpt><trkpt lat="44.6575017" lon="11.7572893"><ele>1.8</ele><time>2026-04-22T10:30:25.348Z</time></trkpt><trkpt lat="44.6575442" lon="11.7571595"><ele>2.1999999999999997</ele><time>2026-04-22T10:30:27.347Z</time></trkpt><trkpt lat="44.6575814" lon="11.7570206"><ele>2.6</ele><time>2026-04-22T10:30:29.343Z</time></trkpt><trkpt lat="44.6576107" lon="11.7568791"><ele>3.0</ele><time>2026-04-22T10:30:31.346Z</time></trkpt><trkpt lat="44.6576408" lon="11.7567335"><ele>3.75</ele><time>2026-04-22T10:30:33.349Z</time></trkpt><trkpt lat="44.6576662" lon="11.7565819"><ele>4.5</ele><time>2026-04-22T10:30:35.342Z</time></trkpt><trkpt lat="44.6576904" lon="11.7564261"><ele>5.25</ele><time>2026-04-22T10:30:37.355Z</time></trkpt><trkpt lat="44.6577017" lon="11.7562683"><ele>6.0</ele><time>2026-04-22T10:30:39.347Z</time></trkpt><trkpt lat="44.6577165" lon="11.7561107"><ele>6.0</ele><time>2026-04-22T10:30:41.348Z</time></trkpt><trkpt lat="44.6577251" lon="11.7559509"><ele>6.0</ele><time>2026-04-22T10:30:43.348Z</time></trkpt><trkpt lat="44.6577289" lon="11.7557882"><ele>6.0</ele><time>2026-04-22T10:30:45.349Z</time></trkpt><trkpt lat="44.6577297" lon="11.7556329"><ele>6.0</ele><time>2026-04-22T10:30:47.353Z</time></trkpt><trkpt lat="44.6577207" lon="11.7554761"><ele>6.0</ele><time>2026-04-22T10:30:49.36Z</time></trkpt><trkpt lat="44.6577092" lon="11.7553134"><ele>6.0</ele><time>2026-04-22T10:30:51.342Z</time></trkpt><trkpt lat="44.6577013" lon="11.7551462"><ele>6.0</ele><time>2026-04-22T10:30:53.348Z</time></trkpt><trkpt lat="44.6576885" lon="11.7549787"><ele>6.0</ele><time>2026-04-22T10:30:55.352Z</time></trkpt><trkpt lat="44.6576768" lon="11.7548123"><ele>6.0</ele><time>2026-04-22T10:30:57.353Z</time></trkpt><trkpt lat="44.6576666" lon="11.7546483"><ele>6.0</ele><time>2026-04-22T10:30:59.347Z</time></trkpt><trkpt lat="44.6576568" lon="11.7544852"><ele>6.0</ele><time>2026-04-22T10:31:01.355Z</time></trkpt><trkpt lat="44.6576426" lon="11.7543212"><ele>6.0</ele><time>2026-04-22T10:31:03.347Z</time></trkpt><trkpt lat="44.6576276" lon="11.7541572"><ele>6.0</ele><time>2026-04-22T10:31:05.352Z</time></trkpt><trkpt lat="44.6576087" lon="11.7539909"><ele>6.0</ele><time>2026-04-22T10:31:07.356Z</time></trkpt><trkpt lat="44.6575921" lon="11.7538249"><ele>6.0</ele><time>2026-04-22T10:31:09.353Z</time></trkpt><trkpt lat="44.6575744" lon="11.7536587"><ele>6.0</ele><time>2026-04-22T10:31:11.357Z</time></trkpt><trkpt lat="44.6575575" lon="11.7534945"><ele>5.75</ele><time>2026-04-22T10:31:13.345Z</time></trkpt><trkpt lat="44.6575397" lon="11.7533314"><ele>5.5</ele><time>2026-04-22T10:31:15.353Z</time></trkpt><trkpt lat="44.6575228" lon="11.7531671"><ele>5.25</ele><time>2026-04-22T10:31:17.338Z</time></trkpt><trkpt lat="44.6575062" lon="11.752999"><ele>5.0</ele><time>2026-04-22T10:31:19.345Z</time></trkpt><trkpt lat="44.6574894" lon="11.7528334"><ele>5.25</ele><time>2026-04-22T10:31:21.346Z</time></trkpt><trkpt lat="44.6574747" lon="11.7526657"><ele>5.5</ele><time>2026-04-22T10:31:23.348Z</time></trkpt><trkpt lat="44.6574604" lon="11.752497"><ele>5.75</ele><time>2026-04-22T10:31:25.352Z</time></trkpt><trkpt lat="44.6574485" lon="11.7523306"><ele>6.0</ele><time>2026-04-22T10:31:27.344Z</time></trkpt><trkpt lat="44.6574408" lon="11.7521637"><ele>6.0</ele><time>2026-04-22T10:31:29.35Z</time></trkpt><trkpt lat="44.6574299" lon="11.7519971"><ele>6.0</ele><time>2026-04-22T10:31:31.348Z</time></trkpt><trkpt lat="44.6574202" lon="11.7518293"><ele>6.0</ele><time>2026-04-22T10:31:33.357Z</time></trkpt><trkpt lat="44.6574125" lon="11.7516581"><ele>6.0</ele><time>2026-04-22T10:31:35.353Z</time></trkpt><trkpt lat="44.6574052" lon="11.7514834"><ele>5.875</ele><time>2026-04-22T10:31:37.347Z</time></trkpt><trkpt lat="44.657401" lon="11.7513947"><ele>5.75</ele><time>2026-04-22T10:31:38.354Z</time></trkpt><trkpt lat="44.6573963" lon="11.7513052"><ele>5.625</ele><time>2026-04-22T10:31:39.352Z</time></trkpt><trkpt lat="44.6573931" lon="11.7512159"><ele>5.5</ele><time>2026-04-22T10:31:40.352Z</time></trkpt><trkpt lat="44.6573893" lon="11.7511268"><ele>5.375</ele><time>2026-04-22T10:31:41.344Z</time></trkpt><trkpt lat="44.657384" lon="11.7510376"><ele>5.25</ele><time>2026-04-22T10:31:42.349Z</time></trkpt><trkpt lat="44.6573781" lon="11.7509488"><ele>5.125</ele><time>2026-04-22T10:31:43.349Z</time></trkpt><trkpt lat="44.6573752" lon="11.7508592"><ele>5.0</ele><time>2026-04-22T10:31:44.356Z</time></trkpt><trkpt lat="44.6573735" lon="11.7507695"><ele>5.0</ele><time>2026-04-22T10:31:45.342Z</time></trkpt><trkpt lat="44.6573714" lon="11.7506792"><ele>5.0</ele><time>2026-04-22T10:31:46.354Z</time></trkpt><trkpt lat="44.6573679" lon="11.7505892"><ele>5.0</ele><time>2026-04-22T10:31:47.356Z</time></trkpt><trkpt lat="44.65736" lon="11.7504113"><ele>5.0</ele><time>2026-04-22T10:31:49.36Z</time></trkpt><trkpt lat="44.657356" lon="11.7503221"><ele>5.0</ele><time>2026-04-22T10:31:50.354Z</time></trkpt><trkpt lat="44.6573516" lon="11.7502323"><ele>5.0</ele><time>2026-04-22T10:31:51.349Z</time></trkpt><trkpt lat="44.6573466" lon="11.7501432"><ele>5.0</ele><time>2026-04-22T10:31:52.357Z</time></trkpt><trkpt lat="44.657342" lon="11.7500542"><ele>5.0</ele><time>2026-04-22T10:31:53.352Z</time></trkpt><trkpt lat="44.6573362" lon="11.7499659"><ele>5.0</ele><time>2026-04-22T10:31:54.351Z</time></trkpt><trkpt lat="44.6573309" lon="11.7498776"><ele>5.0</ele><time>2026-04-22T10:31:55.339Z</time></trkpt><trkpt lat="44.6573263" lon="11.7497888"><ele>5.0</ele><time>2026-04-22T10:31:56.346Z</time></trkpt><trkpt lat="44.6573209" lon="11.7497"><ele>5.0</ele><time>2026-04-22T10:31:57.349Z</time></trkpt><trkpt lat="44.657315" lon="11.7496112"><ele>5.0</ele><time>2026-04-22T10:31:58.348Z</time></trkpt><trkpt lat="44.6573027" lon="11.7494344"><ele>5.0</ele><time>2026-04-22T10:32:00.343Z</time></trkpt><trkpt lat="44.6572919" lon="11.7492596"><ele>5.0</ele><time>2026-04-22T10:32:02.344Z</time></trkpt><trkpt lat="44.6572804" lon="11.7490848"><ele>5.0</ele><time>2026-04-22T10:32:04.34Z</time></trkpt><trkpt lat="44.6572681" lon="11.7489114"><ele>5.0</ele><time>2026-04-22T10:32:06.346Z</time></trkpt><trkpt lat="44.6572544" lon="11.7487372"><ele>5.0</ele><time>2026-04-22T10:32:08.34Z</time></trkpt><trkpt lat="44.6572449" lon="11.7485612"><ele>4.833333333333334</ele><time>2026-04-22T10:32:10.347Z</time></trkpt><trkpt lat="44.6572405" lon="11.7484724"><ele>4.666666666666667</ele><time>2026-04-22T10:32:11.342Z</time></trkpt><trkpt lat="44.657235" lon="11.7483837"><ele>4.5</ele><time>2026-04-22T10:32:12.351Z</time></trkpt><trkpt lat="44.6572293" lon="11.7482943"><ele>4.333333333333333</ele><time>2026-04-22T10:32:13.344Z</time></trkpt><trkpt lat="44.6572182" lon="11.7481201"><ele>4.166666666666666</ele><time>2026-04-22T10:32:15.35Z</time></trkpt><trkpt lat="44.6572109" lon="11.7479476"><ele>4.0</ele><time>2026-04-22T10:32:17.354Z</time></trkpt><trkpt lat="44.6572017" lon="11.7477738"><ele>4.0</ele><time>2026-04-22T10:32:19.353Z</time></trkpt><trkpt lat="44.6571891" lon="11.7476026"><ele>4.0</ele><time>2026-04-22T10:32:21.35Z</time></trkpt><trkpt lat="44.6571798" lon="11.7474289"><ele>4.0</ele><time>2026-04-22T10:32:23.348Z</time></trkpt><trkpt lat="44.6571722" lon="11.7472544"><ele>4.0</ele><time>2026-04-22T10:32:25.351Z</time></trkpt><trkpt lat="44.6571641" lon="11.7470787"><ele>4.0</ele><time>2026-04-22T10:32:27.348Z</time></trkpt><trkpt lat="44.6571558" lon="11.7469029"><ele>4.0</ele><time>2026-04-22T10:32:29.333Z</time></trkpt><trkpt lat="44.6571452" lon="11.7467277"><ele>4.0</ele><time>2026-04-22T10:32:31.346Z</time></trkpt><trkpt lat="44.6571354" lon="11.7465532"><ele>4.0</ele><time>2026-04-22T10:32:33.345Z</time></trkpt><trkpt lat="44.657126" lon="11.7463792"><ele>3.9999999999999996</ele><time>2026-04-22T10:32:35.347Z</time></trkpt><trkpt lat="44.6571165" lon="11.7462058"><ele>4.0</ele><time>2026-04-22T10:32:37.346Z</time></trkpt><trkpt lat="44.6571053" lon="11.7460296"><ele>4.0</ele><time>2026-04-22T10:32:39.347Z</time></trkpt><trkpt lat="44.6571019" lon="11.7459398"><ele>4.0</ele><time>2026-04-22T10:32:40.349Z</time></trkpt><trkpt lat="44.6570972" lon="11.7458513"><ele>3.9999999999999996</ele><time>2026-04-22T10:32:41.345Z</time></trkpt><trkpt lat="44.6570925" lon="11.7457616"><ele>4.0</ele><time>2026-04-22T10:32:42.348Z</time></trkpt><trkpt lat="44.6570889" lon="11.745672"><ele>3.8571428571428568</ele><time>2026-04-22T10:32:43.344Z</time></trkpt><trkpt lat="44.6570855" lon="11.7455827"><ele>3.714285714285714</ele><time>2026-04-22T10:32:44.346Z</time></trkpt><trkpt lat="44.6570811" lon="11.7454933"><ele>3.571428571428571</ele><time>2026-04-22T10:32:45.347Z</time></trkpt><trkpt lat="44.6570758" lon="11.7454039"><ele>3.4285714285714284</ele><time>2026-04-22T10:32:46.345Z</time></trkpt><trkpt lat="44.6570712" lon="11.7453145"><ele>3.2857142857142856</ele><time>2026-04-22T10:32:47.361Z</time></trkpt><trkpt lat="44.6570673" lon="11.7452258"><ele>3.1428571428571423</ele><time>2026-04-22T10:32:48.355Z</time></trkpt><trkpt lat="44.6570593" lon="11.7450493"><ele>3.0</ele><time>2026-04-22T10:32:50.351Z</time></trkpt><trkpt lat="44.6570543" lon="11.7449605"><ele>2.8571428571428568</ele><time>2026-04-22T10:32:51.345Z</time></trkpt><trkpt lat="44.6570441" lon="11.7447846"><ele>2.7142857142857144</ele><time>2026-04-22T10:32:53.347Z</time></trkpt><trkpt lat="44.6570394" lon="11.744696"><ele>2.571428571428571</ele><time>2026-04-22T10:32:54.344Z</time></trkpt><trkpt lat="44.6570357" lon="11.7446074"><ele>2.4285714285714284</ele><time>2026-04-22T10:32:55.348Z</time></trkpt><trkpt lat="44.6570326" lon="11.7445184"><ele>2.2857142857142856</ele><time>2026-04-22T10:32:56.345Z</time></trkpt><trkpt lat="44.6570293" lon="11.7444293"><ele>2.142857142857143</ele><time>2026-04-22T10:32:57.352Z</time></trkpt><trkpt lat="44.6570251" lon="11.7443391"><ele>2.0</ele><time>2026-04-22T10:32:58.342Z</time></trkpt><trkpt lat="44.6570202" lon="11.7442494"><ele>2.0</ele><time>2026-04-22T10:32:59.349Z</time></trkpt><trkpt lat="44.6570155" lon="11.7441596"><ele>1.9999999999999998</ele><time>2026-04-22T10:33:00.341Z</time></trkpt><trkpt lat="44.6570104" lon="11.74407"><ele>2.0</ele><time>2026-04-22T10:33:01.35Z</time></trkpt><trkpt lat="44.6570065" lon="11.7439806"><ele>2.0</ele><time>2026-04-22T10:33:02.343Z</time></trkpt><trkpt lat="44.6570021" lon="11.7438916"><ele>1.9999999999999998</ele><time>2026-04-22T10:33:03.341Z</time></trkpt><trkpt lat="44.6569989" lon="11.7438022"><ele>2.0</ele><time>2026-04-22T10:33:04.347Z</time></trkpt><trkpt lat="44.6569967" lon="11.743625"><ele>2.0</ele><time>2026-04-22T10:33:06.346Z</time></trkpt><trkpt lat="44.6569945" lon="11.7434488"><ele>2.5</ele><time>2026-04-22T10:33:08.356Z</time></trkpt><trkpt lat="44.6569917" lon="11.7432744"><ele>3.0</ele><time>2026-04-22T10:33:10.352Z</time></trkpt><trkpt lat="44.6569912" lon="11.7431004"><ele>3.5</ele><time>2026-04-22T10:33:12.345Z</time></trkpt><trkpt lat="44.6569915" lon="11.7429262"><ele>4.0</ele><time>2026-04-22T10:33:14.352Z</time></trkpt><trkpt lat="44.6569912" lon="11.7427518"><ele>4.0</ele><time>2026-04-22T10:33:16.353Z</time></trkpt><trkpt lat="44.6569926" lon="11.7425777"><ele>4.0</ele><time>2026-04-22T10:33:18.351Z</time></trkpt><trkpt lat="44.656995" lon="11.7424027"><ele>4.0</ele><time>2026-04-22T10:33:20.35Z</time></trkpt><trkpt lat="44.6570019" lon="11.7422268"><ele>4.0</ele><time>2026-04-22T10:33:22.348Z</time></trkpt><trkpt lat="44.6570102" lon="11.7420543"><ele>4.0</ele><time>2026-04-22T10:33:24.359Z</time></trkpt><trkpt lat="44.6570157" lon="11.741966"><ele>3.9999999999999996</ele><time>2026-04-22T10:33:25.358Z</time></trkpt><trkpt lat="44.657033" lon="11.741791"><ele>4.0</ele><time>2026-04-22T10:33:27.348Z</time></trkpt><trkpt lat="44.6570382" lon="11.741702"><ele>4.0</ele><time>2026-04-22T10:33:28.343Z</time></trkpt><trkpt lat="44.6570439" lon="11.7416132"><ele>3.9999999999999996</ele><time>2026-04-22T10:33:29.344Z</time></trkpt><trkpt lat="44.6570504" lon="11.741524"><ele>4.0</ele><time>2026-04-22T10:33:30.348Z</time></trkpt><trkpt lat="44.6570562" lon="11.7414347"><ele>4.0</ele><time>2026-04-22T10:33:31.347Z</time></trkpt><trkpt lat="44.6570617" lon="11.7413449"><ele>3.75</ele><time>2026-04-22T10:33:32.349Z</time></trkpt><trkpt lat="44.6570681" lon="11.7412558"><ele>3.5</ele><time>2026-04-22T10:33:33.35Z</time></trkpt><trkpt lat="44.6570739" lon="11.7411661"><ele>3.25</ele><time>2026-04-22T10:33:34.344Z</time></trkpt><trkpt lat="44.6570791" lon="11.7410768"><ele>3.0</ele><time>2026-04-22T10:33:35.349Z</time></trkpt><trkpt lat="44.6570838" lon="11.7409873"><ele>2.75</ele><time>2026-04-22T10:33:36.356Z</time></trkpt><trkpt lat="44.6570898" lon="11.7408985"><ele>2.5</ele><time>2026-04-22T10:33:37.344Z</time></trkpt><trkpt lat="44.6570948" lon="11.7408089"><ele>2.25</ele><time>2026-04-22T10:33:38.348Z</time></trkpt><trkpt lat="44.6570997" lon="11.7407196"><ele>2.0</ele><time>2026-04-22T10:33:39.342Z</time></trkpt><trkpt lat="44.6571056" lon="11.7406302"><ele>1.857142857142857</ele><time>2026-04-22T10:33:40.344Z</time></trkpt><trkpt lat="44.6571124" lon="11.7405407"><ele>1.714285714285714</ele><time>2026-04-22T10:33:41.35Z</time></trkpt><trkpt lat="44.657118" lon="11.7404498"><ele>1.5714285714285714</ele><time>2026-04-22T10:33:42.352Z</time></trkpt><trkpt lat="44.6571234" lon="11.74036"><ele>1.4285714285714284</ele><time>2026-04-22T10:33:43.355Z</time></trkpt><trkpt lat="44.6571287" lon="11.7402693"><ele>1.2857142857142856</ele><time>2026-04-22T10:33:44.351Z</time></trkpt><trkpt lat="44.6571341" lon="11.7401795"><ele>1.1428571428571428</ele><time>2026-04-22T10:33:45.347Z</time></trkpt><trkpt lat="44.6571396" lon="11.7400881"><ele>1.0</ele><time>2026-04-22T10:33:46.337Z</time></trkpt><trkpt lat="44.6571442" lon="11.7399963"><ele>1.0</ele><time>2026-04-22T10:33:47.346Z</time></trkpt><trkpt lat="44.6571497" lon="11.7399045"><ele>0.9999999999999999</ele><time>2026-04-22T10:33:48.348Z</time></trkpt><trkpt lat="44.6571557" lon="11.7398133"><ele>1.0</ele><time>2026-04-22T10:33:49.329Z</time></trkpt><trkpt lat="44.6571603" lon="11.7397226"><ele>1.0</ele><time>2026-04-22T10:33:50.355Z</time></trkpt><trkpt lat="44.6571657" lon="11.739632"><ele>0.9999999999999999</ele><time>2026-04-22T10:33:51.344Z</time></trkpt><trkpt lat="44.657172" lon="11.7395418"><ele>1.0</ele><time>2026-04-22T10:33:52.347Z</time></trkpt><trkpt lat="44.6571771" lon="11.7394508"><ele>1.0</ele><time>2026-04-22T10:33:53.343Z</time></trkpt><trkpt lat="44.6571824" lon="11.7393609"><ele>1.1428571428571428</ele><time>2026-04-22T10:33:54.35Z</time></trkpt><trkpt lat="44.6571888" lon="11.7392708"><ele>1.2857142857142856</ele><time>2026-04-22T10:33:55.342Z</time></trkpt><trkpt lat="44.6571946" lon="11.7391811"><ele>1.4285714285714284</ele><time>2026-04-22T10:33:56.353Z</time></trkpt><trkpt lat="44.6572006" lon="11.7390904"><ele>1.5714285714285714</ele><time>2026-04-22T10:33:57.344Z</time></trkpt><trkpt lat="44.6572057" lon="11.7390002"><ele>1.714285714285714</ele><time>2026-04-22T10:33:58.349Z</time></trkpt><trkpt lat="44.6572119" lon="11.73891"><ele>1.857142857142857</ele><time>2026-04-22T10:33:59.348Z</time></trkpt><trkpt lat="44.6572173" lon="11.7388201"><ele>2.0</ele><time>2026-04-22T10:34:00.349Z</time></trkpt><trkpt lat="44.6572236" lon="11.7387298"><ele>2.0</ele><time>2026-04-22T10:34:01.357Z</time></trkpt><trkpt lat="44.6572303" lon="11.7386401"><ele>2.0</ele><time>2026-04-22T10:34:02.344Z</time></trkpt><trkpt lat="44.6572364" lon="11.7385505"><ele>2.0</ele><time>2026-04-22T10:34:03.346Z</time></trkpt><trkpt lat="44.6572414" lon="11.7384602"><ele>2.0</ele><time>2026-04-22T10:34:04.343Z</time></trkpt><trkpt lat="44.6572462" lon="11.7383704"><ele>2.0</ele><time>2026-04-22T10:34:05.361Z</time></trkpt><trkpt lat="44.6572493" lon="11.7382816"><ele>2.0</ele><time>2026-04-22T10:34:06.346Z</time></trkpt><trkpt lat="44.6572521" lon="11.7381923"><ele>2.0</ele><time>2026-04-22T10:34:07.352Z</time></trkpt><trkpt lat="44.6572547" lon="11.7381027"><ele>2.0</ele><time>2026-04-22T10:34:08.35Z</time></trkpt><trkpt lat="44.6572569" lon="11.7380124"><ele>2.0</ele><time>2026-04-22T10:34:09.356Z</time></trkpt><trkpt lat="44.6572589" lon="11.7379225"><ele>1.9999999999999998</ele><time>2026-04-22T10:34:10.35Z</time></trkpt><trkpt lat="44.6572598" lon="11.7378318"><ele>2.0</ele><time>2026-04-22T10:34:11.339Z</time></trkpt><trkpt lat="44.657259" lon="11.7377408"><ele>2.0</ele><time>2026-04-22T10:34:12.356Z</time></trkpt><trkpt lat="44.6572578" lon="11.737651"><ele>1.9999999999999998</ele><time>2026-04-22T10:34:13.344Z</time></trkpt><trkpt lat="44.6572588" lon="11.7375599"><ele>2.0</ele><time>2026-04-22T10:34:14.344Z</time></trkpt><trkpt lat="44.657258" lon="11.7374693"><ele>2.0</ele><time>2026-04-22T10:34:15.359Z</time></trkpt><trkpt lat="44.6572557" lon="11.737378"><ele>1.857142857142857</ele><time>2026-04-22T10:34:16.344Z</time></trkpt><trkpt lat="44.6572524" lon="11.7372863"><ele>1.714285714285714</ele><time>2026-04-22T10:34:17.352Z</time></trkpt><trkpt lat="44.6572506" lon="11.7371943"><ele>1.5714285714285714</ele><time>2026-04-22T10:34:18.342Z</time></trkpt><trkpt lat="44.6572495" lon="11.737103"><ele>1.4285714285714284</ele><time>2026-04-22T10:34:19.351Z</time></trkpt><trkpt lat="44.6572482" lon="11.7370117"><ele>1.2857142857142856</ele><time>2026-04-22T10:34:20.34Z</time></trkpt><trkpt lat="44.6572459" lon="11.7369215"><ele>1.1428571428571428</ele><time>2026-04-22T10:34:21.351Z</time></trkpt><trkpt lat="44.6572451" lon="11.7368311"><ele>1.0</ele><time>2026-04-22T10:34:22.342Z</time></trkpt><trkpt lat="44.6572439" lon="11.7367411"><ele>1.0</ele><time>2026-04-22T10:34:23.357Z</time></trkpt><trkpt lat="44.6572413" lon="11.7366516"><ele>1.0</ele><time>2026-04-22T10:34:24.336Z</time></trkpt><trkpt lat="44.6572397" lon="11.7365623"><ele>1.0</ele><time>2026-04-22T10:34:25.351Z</time></trkpt><trkpt lat="44.6572374" lon="11.7364733"><ele>1.0</ele><time>2026-04-22T10:34:26.358Z</time></trkpt><trkpt lat="44.6572353" lon="11.7363844"><ele>1.0</ele><time>2026-04-22T10:34:27.349Z</time></trkpt><trkpt lat="44.6572329" lon="11.7362946"><ele>1.0</ele><time>2026-04-22T10:34:28.345Z</time></trkpt><trkpt lat="44.657232" lon="11.736205"><ele>1.0</ele><time>2026-04-22T10:34:29.346Z</time></trkpt><trkpt lat="44.657231" lon="11.7361146"><ele>1.0</ele><time>2026-04-22T10:34:30.354Z</time></trkpt><trkpt lat="44.6572297" lon="11.7360237"><ele>1.0</ele><time>2026-04-22T10:34:31.348Z</time></trkpt><trkpt lat="44.6572278" lon="11.7359331"><ele>0.9999999999999999</ele><time>2026-04-22T10:34:32.341Z</time></trkpt><trkpt lat="44.6572242" lon="11.7358431"><ele>1.0</ele><time>2026-04-22T10:34:33.346Z</time></trkpt><trkpt lat="44.6572192" lon="11.7357523"><ele>1.0</ele><time>2026-04-22T10:34:34.347Z</time></trkpt><trkpt lat="44.6572141" lon="11.7356596"><ele>0.9999999999999999</ele><time>2026-04-22T10:34:35.35Z</time></trkpt><trkpt lat="44.6572093" lon="11.7355677"><ele>1.0</ele><time>2026-04-22T10:34:36.344Z</time></trkpt><trkpt lat="44.6572045" lon="11.7354748"><ele>1.0</ele><time>2026-04-22T10:34:37.356Z</time></trkpt><trkpt lat="44.6572012" lon="11.7353819"><ele>1.0</ele><time>2026-04-22T10:34:38.352Z</time></trkpt><trkpt lat="44.6571974" lon="11.7352902"><ele>0.9999999999999999</ele><time>2026-04-22T10:34:39.342Z</time></trkpt><trkpt lat="44.6571926" lon="11.7351997"><ele>1.0</ele><time>2026-04-22T10:34:40.356Z</time></trkpt><trkpt lat="44.6571871" lon="11.735109"><ele>1.0</ele><time>2026-04-22T10:34:41.359Z</time></trkpt><trkpt lat="44.6571812" lon="11.7350182"><ele>0.9999999999999999</ele><time>2026-04-22T10:34:42.346Z</time></trkpt><trkpt lat="44.6571732" lon="11.7349285"><ele>1.0</ele><time>2026-04-22T10:34:43.345Z</time></trkpt><trkpt lat="44.6571547" lon="11.734763"><ele>1.0</ele><time>2026-04-22T10:34:45.344Z</time></trkpt><trkpt lat="44.6571321" lon="11.7345907"><ele>0.9999999999999999</ele><time>2026-04-22T10:34:47.347Z</time></trkpt><trkpt lat="44.6571098" lon="11.7344235"><ele>1.0</ele><time>2026-04-22T10:34:49.361Z</time></trkpt><trkpt lat="44.6570977" lon="11.7343342"><ele>1.0</ele><time>2026-04-22T10:34:50.346Z</time></trkpt><trkpt lat="44.6570832" lon="11.7342454"><ele>1.0</ele><time>2026-04-22T10:34:51.348Z</time></trkpt><trkpt lat="44.6570532" lon="11.7340891"><ele>0.9999999999999999</ele><time>2026-04-22T10:34:53.347Z</time></trkpt><trkpt lat="44.6570344" lon="11.7339976"><ele>1.0</ele><time>2026-04-22T10:34:54.344Z</time></trkpt><trkpt lat="44.6570165" lon="11.7339058"><ele>1.0</ele><time>2026-04-22T10:34:55.354Z</time></trkpt><trkpt lat="44.6569955" lon="11.7338156"><ele>0.9999999999999999</ele><time>2026-04-22T10:34:56.351Z</time></trkpt><trkpt lat="44.6569766" lon="11.7337272"><ele>1.0</ele><time>2026-04-22T10:34:57.345Z</time></trkpt><trkpt lat="44.6569591" lon="11.733639"><ele>1.0</ele><time>2026-04-22T10:34:58.345Z</time></trkpt><trkpt lat="44.6569413" lon="11.7335501"><ele>0.9999999999999999</ele><time>2026-04-22T10:34:59.35Z</time></trkpt><trkpt lat="44.6569223" lon="11.7334626"><ele>1.0</ele><time>2026-04-22T10:35:00.348Z</time></trkpt><trkpt lat="44.6569077" lon="11.7333748"><ele>1.0</ele><time>2026-04-22T10:35:01.346Z</time></trkpt><trkpt lat="44.6568908" lon="11.7332885"><ele>1.8333333333333333</ele><time>2026-04-22T10:35:02.353Z</time></trkpt><trkpt lat="44.656854" lon="11.7331266"><ele>2.6666666666666665</ele><time>2026-04-22T10:35:04.348Z</time></trkpt><trkpt lat="44.6568346" lon="11.7330391"><ele>3.5</ele><time>2026-04-22T10:35:05.346Z</time></trkpt><trkpt lat="44.6568146" lon="11.7329516"><ele>4.333333333333333</ele><time>2026-04-22T10:35:06.347Z</time></trkpt><trkpt lat="44.6567942" lon="11.7328653"><ele>5.166666666666667</ele><time>2026-04-22T10:35:07.349Z</time></trkpt><trkpt lat="44.6567747" lon="11.7327794"><ele>6.0</ele><time>2026-04-22T10:35:08.348Z</time></trkpt><trkpt lat="44.6567308" lon="11.7326185"><ele>6.199999999999999</ele><time>2026-04-22T10:35:10.341Z</time></trkpt><trkpt lat="44.6566797" lon="11.7324596"><ele>6.3999999999999995</ele><time>2026-04-22T10:35:12.35Z</time></trkpt><trkpt lat="44.6566541" lon="11.7323773"><ele>6.6</ele><time>2026-04-22T10:35:13.34Z</time></trkpt><trkpt lat="44.6565998" lon="11.7322184"><ele>6.8</ele><time>2026-04-22T10:35:15.341Z</time></trkpt><trkpt lat="44.6565443" lon="11.7320656"><ele>7.0</ele><time>2026-04-22T10:35:17.356Z</time></trkpt><trkpt lat="44.6564877" lon="11.7319175"><ele>6.625</ele><time>2026-04-22T10:35:19.356Z</time></trkpt><trkpt lat="44.656459" lon="11.7318357"><ele>6.25</ele><time>2026-04-22T10:35:20.346Z</time></trkpt><trkpt lat="44.6564297" lon="11.7317556"><ele>5.875</ele><time>2026-04-22T10:35:21.35Z</time></trkpt><trkpt lat="44.6564005" lon="11.7316744"><ele>5.5</ele><time>2026-04-22T10:35:22.353Z</time></trkpt><trkpt lat="44.6563714" lon="11.7315947"><ele>5.125</ele><time>2026-04-22T10:35:23.347Z</time></trkpt><trkpt lat="44.6563419" lon="11.7315159"><ele>4.75</ele><time>2026-04-22T10:35:24.351Z</time></trkpt><trkpt lat="44.6563106" lon="11.7314378"><ele>4.375</ele><time>2026-04-22T10:35:25.35Z</time></trkpt><trkpt lat="44.6562774" lon="11.7313619"><ele>4.0</ele><time>2026-04-22T10:35:26.336Z</time></trkpt><trkpt lat="44.6562472" lon="11.7312816"><ele>4.0</ele><time>2026-04-22T10:35:27.349Z</time></trkpt><trkpt lat="44.6561858" lon="11.7311265"><ele>3.9999999999999996</ele><time>2026-04-22T10:35:29.351Z</time></trkpt><trkpt lat="44.6561512" lon="11.7310522"><ele>4.0</ele><time>2026-04-22T10:35:30.341Z</time></trkpt><trkpt lat="44.656114" lon="11.7309781"><ele>4.0</ele><time>2026-04-22T10:35:31.358Z</time></trkpt><trkpt lat="44.6560767" lon="11.7309056"><ele>3.9999999999999996</ele><time>2026-04-22T10:35:32.342Z</time></trkpt><trkpt lat="44.6560375" lon="11.7308349"><ele>4.0</ele><time>2026-04-22T10:35:33.35Z</time></trkpt><trkpt lat="44.6559976" lon="11.7307656"><ele>4.0</ele><time>2026-04-22T10:35:34.35Z</time></trkpt><trkpt lat="44.6559554" lon="11.7306987"><ele>4.428571428571429</ele><time>2026-04-22T10:35:35.351Z</time></trkpt><trkpt lat="44.6559127" lon="11.7306322"><ele>4.857142857142857</ele><time>2026-04-22T10:35:36.349Z</time></trkpt><trkpt lat="44.6558686" lon="11.7305649"><ele>5.285714285714286</ele><time>2026-04-22T10:35:37.349Z</time></trkpt><trkpt lat="44.6558246" lon="11.7304977"><ele>5.714285714285714</ele><time>2026-04-22T10:35:38.346Z</time></trkpt><trkpt lat="44.6557801" lon="11.7304304"><ele>6.142857142857142</ele><time>2026-04-22T10:35:39.351Z</time></trkpt><trkpt lat="44.6557347" lon="11.7303644"><ele>6.571428571428571</ele><time>2026-04-22T10:35:40.352Z</time></trkpt><trkpt lat="44.6556917" lon="11.7302956"><ele>7.0</ele><time>2026-04-22T10:35:41.348Z</time></trkpt><trkpt lat="44.6556484" lon="11.7302256"><ele>6.571428571428571</ele><time>2026-04-22T10:35:42.361Z</time></trkpt><trkpt lat="44.6556052" lon="11.7301567"><ele>6.142857142857142</ele><time>2026-04-22T10:35:43.354Z</time></trkpt><trkpt lat="44.6555623" lon="11.7300877"><ele>5.714285714285714</ele><time>2026-04-22T10:35:44.344Z</time></trkpt><trkpt lat="44.655519" lon="11.7300199"><ele>5.285714285714286</ele><time>2026-04-22T10:35:45.347Z</time></trkpt><trkpt lat="44.655477" lon="11.729952"><ele>4.857142857142857</ele><time>2026-04-22T10:35:46.354Z</time></trkpt><trkpt lat="44.6554352" lon="11.7298845"><ele>4.428571428571429</ele><time>2026-04-22T10:35:47.339Z</time></trkpt><trkpt lat="44.6553929" lon="11.7298181"><ele>4.0</ele><time>2026-04-22T10:35:48.347Z</time></trkpt><trkpt lat="44.6553519" lon="11.7297496"><ele>4.0</ele><time>2026-04-22T10:35:49.355Z</time></trkpt><trkpt lat="44.6553117" lon="11.7296813"><ele>4.0</ele><time>2026-04-22T10:35:50.353Z</time></trkpt><trkpt lat="44.6552303" lon="11.7295476"><ele>4.0</ele><time>2026-04-22T10:35:52.352Z</time></trkpt><trkpt lat="44.6551503" lon="11.729413"><ele>4.0</ele><time>2026-04-22T10:35:54.35Z</time></trkpt><trkpt lat="44.6550687" lon="11.7292818"><ele>4.0</ele><time>2026-04-22T10:35:56.356Z</time></trkpt><trkpt lat="44.654987" lon="11.72915"><ele>4.5</ele><time>2026-04-22T10:35:58.351Z</time></trkpt><trkpt lat="44.6549044" lon="11.7290198"><ele>5.0</ele><time>2026-04-22T10:36:00.363Z</time></trkpt><trkpt lat="44.6548228" lon="11.7288888"><ele>5.5</ele><time>2026-04-22T10:36:02.345Z</time></trkpt><trkpt lat="44.6547403" lon="11.7287593"><ele>6.0</ele><time>2026-04-22T10:36:04.345Z</time></trkpt><trkpt lat="44.6546546" lon="11.7286331"><ele>6.0</ele><time>2026-04-22T10:36:06.341Z</time></trkpt><trkpt lat="44.6545693" lon="11.7285133"><ele>6.0</ele><time>2026-04-22T10:36:08.348Z</time></trkpt><trkpt lat="44.6544848" lon="11.728404"><ele>6.0</ele><time>2026-04-22T10:36:10.351Z</time></trkpt><trkpt lat="44.654435" lon="11.7283481"><ele>6.0</ele><time>2026-04-22T10:36:11.351Z</time></trkpt><trkpt lat="44.654384" lon="11.728292"><ele>6.0</ele><time>2026-04-22T10:36:12.343Z</time></trkpt><trkpt lat="44.654333" lon="11.7282382"><ele>6.0</ele><time>2026-04-22T10:36:13.351Z</time></trkpt><trkpt lat="44.6542844" lon="11.7281803"><ele>6.0</ele><time>2026-04-22T10:36:14.35Z</time></trkpt><trkpt lat="44.6541873" lon="11.7280691"><ele>6.0</ele><time>2026-04-22T10:36:16.349Z</time></trkpt><trkpt lat="44.6540872" lon="11.7279641"><ele>6.0</ele><time>2026-04-22T10:36:18.345Z</time></trkpt><trkpt lat="44.6539911" lon="11.7278521"><ele>6.0</ele><time>2026-04-22T10:36:20.354Z</time></trkpt><trkpt lat="44.6538952" lon="11.7277389"><ele>6.0</ele><time>2026-04-22T10:36:22.354Z</time></trkpt><trkpt lat="44.6537994" lon="11.7276253"><ele>6.0</ele><time>2026-04-22T10:36:24.348Z</time></trkpt><trkpt lat="44.6537521" lon="11.7275668"><ele>6.0</ele><time>2026-04-22T10:36:25.343Z</time></trkpt><trkpt lat="44.6537033" lon="11.7275095"><ele>6.0</ele><time>2026-04-22T10:36:26.352Z</time></trkpt><trkpt lat="44.6536076" lon="11.7273964"><ele>6.0</ele><time>2026-04-22T10:36:28.35Z</time></trkpt><trkpt lat="44.6535598" lon="11.7273381"><ele>6.0</ele><time>2026-04-22T10:36:29.35Z</time></trkpt><trkpt lat="44.6535094" lon="11.7272827"><ele>5.999999999999999</ele><time>2026-04-22T10:36:30.353Z</time></trkpt><trkpt lat="44.6534588" lon="11.727229"><ele>6.0</ele><time>2026-04-22T10:36:31.349Z</time></trkpt><trkpt lat="44.6534069" lon="11.7271777"><ele>6.0</ele><time>2026-04-22T10:36:32.349Z</time></trkpt><trkpt lat="44.6533547" lon="11.7271262"><ele>6.0</ele><time>2026-04-22T10:36:33.359Z</time></trkpt><trkpt lat="44.653301" lon="11.7270762"><ele>6.0</ele><time>2026-04-22T10:36:34.349Z</time></trkpt><trkpt lat="44.6532037" lon="11.7269899"><ele>5.999999999999999</ele><time>2026-04-22T10:36:36.345Z</time></trkpt><trkpt lat="44.6531452" lon="11.7269474"><ele>6.0</ele><time>2026-04-22T10:36:37.343Z</time></trkpt><trkpt lat="44.6530298" lon="11.7268669"><ele>6.0</ele><time>2026-04-22T10:36:39.349Z</time></trkpt><trkpt lat="44.6529683" lon="11.7268293"><ele>6.0</ele><time>2026-04-22T10:36:40.337Z</time></trkpt><trkpt lat="44.6528487" lon="11.7267634"><ele>6.0</ele><time>2026-04-22T10:36:42.343Z</time></trkpt><trkpt lat="44.6527848" lon="11.7267371"><ele>6.0</ele><time>2026-04-22T10:36:43.35Z</time></trkpt><trkpt lat="44.6527221" lon="11.7267108"><ele>6.0</ele><time>2026-04-22T10:36:44.343Z</time></trkpt><trkpt lat="44.6526591" lon="11.7266839"><ele>6.0</ele><time>2026-04-22T10:36:45.349Z</time></trkpt><trkpt lat="44.652596" lon="11.7266589"><ele>5.999999999999999</ele><time>2026-04-22T10:36:46.344Z</time></trkpt><trkpt lat="44.6525319" lon="11.7266375"><ele>6.0</ele><time>2026-04-22T10:36:47.351Z</time></trkpt><trkpt lat="44.6524682" lon="11.7266211"><ele>6.0</ele><time>2026-04-22T10:36:48.348Z</time></trkpt><trkpt lat="44.6524024" lon="11.7266072"><ele>6.0</ele><time>2026-04-22T10:36:49.354Z</time></trkpt><trkpt lat="44.6523367" lon="11.7265948"><ele>6.0</ele><time>2026-04-22T10:36:50.352Z</time></trkpt><trkpt lat="44.6522712" lon="11.726585"><ele>5.999999999999999</ele><time>2026-04-22T10:36:51.352Z</time></trkpt><trkpt lat="44.6522056" lon="11.7265773"><ele>6.0</ele><time>2026-04-22T10:36:52.356Z</time></trkpt><trkpt lat="44.6521409" lon="11.7265678"><ele>6.0</ele><time>2026-04-22T10:36:53.341Z</time></trkpt><trkpt lat="44.6520771" lon="11.7265573"><ele>6.0</ele><time>2026-04-22T10:36:54.343Z</time></trkpt><trkpt lat="44.6520139" lon="11.7265492"><ele>6.0</ele><time>2026-04-22T10:36:55.363Z</time></trkpt><trkpt lat="44.6518893" lon="11.7265334"><ele>6.0</ele><time>2026-04-22T10:36:57.35Z</time></trkpt><trkpt lat="44.6517643" lon="11.7265227"><ele>6.0</ele><time>2026-04-22T10:36:59.34Z</time></trkpt><trkpt lat="44.6516398" lon="11.7265251"><ele>6.0</ele><time>2026-04-22T10:37:01.353Z</time></trkpt><trkpt lat="44.6515153" lon="11.7265375"><ele>6.0</ele><time>2026-04-22T10:37:03.341Z</time></trkpt><trkpt lat="44.6514528" lon="11.7265492"><ele>6.0</ele><time>2026-04-22T10:37:04.346Z</time></trkpt><trkpt lat="44.6513313" lon="11.7265764"><ele>6.0</ele><time>2026-04-22T10:37:06.349Z</time></trkpt><trkpt lat="44.6512217" lon="11.7266131"><ele>6.0</ele><time>2026-04-22T10:37:08.351Z</time></trkpt><trkpt lat="44.6511049" lon="11.7266626"><ele>5.833333333333333</ele><time>2026-04-22T10:37:10.35Z</time></trkpt><trkpt lat="44.6510419" lon="11.7266909"><ele>5.666666666666667</ele><time>2026-04-22T10:37:11.356Z</time></trkpt><trkpt lat="44.6509798" lon="11.7267175"><ele>5.5</ele><time>2026-04-22T10:37:12.35Z</time></trkpt><trkpt lat="44.6509191" lon="11.7267439"><ele>5.333333333333334</ele><time>2026-04-22T10:37:13.346Z</time></trkpt><trkpt lat="44.6508588" lon="11.7267709"><ele>5.166666666666667</ele><time>2026-04-22T10:37:14.343Z</time></trkpt><trkpt lat="44.6507424" lon="11.7268242"><ele>5.0</ele><time>2026-04-22T10:37:16.347Z</time></trkpt><trkpt lat="44.6506294" lon="11.7268798"><ele>5.25</ele><time>2026-04-22T10:37:18.369Z</time></trkpt><trkpt lat="44.6505153" lon="11.7269394"><ele>5.5</ele><time>2026-04-22T10:37:20.343Z</time></trkpt><trkpt lat="44.6504018" lon="11.7270038"><ele>5.75</ele><time>2026-04-22T10:37:22.345Z</time></trkpt><trkpt lat="44.6502869" lon="11.72707"><ele>6.0</ele><time>2026-04-22T10:37:24.341Z</time></trkpt><trkpt lat="44.6501729" lon="11.7271425"><ele>6.25</ele><time>2026-04-22T10:37:26.341Z</time></trkpt><trkpt lat="44.6500577" lon="11.72721"><ele>6.5</ele><time>2026-04-22T10:37:28.341Z</time></trkpt><trkpt lat="44.6499437" lon="11.727271"><ele>6.75</ele><time>2026-04-22T10:37:30.347Z</time></trkpt><trkpt lat="44.6498296" lon="11.7273385"><ele>7.0</ele><time>2026-04-22T10:37:32.348Z</time></trkpt><trkpt lat="44.6497137" lon="11.7274036"><ele>7.0</ele><time>2026-04-22T10:37:34.351Z</time></trkpt><trkpt lat="44.6495996" lon="11.7274655"><ele>6.999999999999999</ele><time>2026-04-22T10:37:36.348Z</time></trkpt><trkpt lat="44.6494853" lon="11.7275277"><ele>6.999999999999999</ele><time>2026-04-22T10:37:38.345Z</time></trkpt><trkpt lat="44.6493663" lon="11.7275892"><ele>7.0</ele><time>2026-04-22T10:37:40.351Z</time></trkpt><trkpt lat="44.6493037" lon="11.727617"><ele>7.0</ele><time>2026-04-22T10:37:41.345Z</time></trkpt><trkpt lat="44.6492411" lon="11.7276401"><ele>6.833333333333334</ele><time>2026-04-22T10:37:42.344Z</time></trkpt><trkpt lat="44.6491245" lon="11.7276887"><ele>6.666666666666667</ele><time>2026-04-22T10:37:44.353Z</time></trkpt><trkpt lat="44.6490586" lon="11.7277127"><ele>6.5</ele><time>2026-04-22T10:37:45.341Z</time></trkpt><trkpt lat="44.6489962" lon="11.7277337"><ele>6.333333333333334</ele><time>2026-04-22T10:37:46.348Z</time></trkpt><trkpt lat="44.648872" lon="11.7277643"><ele>6.166666666666667</ele><time>2026-04-22T10:37:48.351Z</time></trkpt><trkpt lat="44.6488068" lon="11.7277649"><ele>6.0</ele><time>2026-04-22T10:37:49.346Z</time></trkpt><trkpt lat="44.6487427" lon="11.727759"><ele>5.999999999999999</ele><time>2026-04-22T10:37:50.342Z</time></trkpt><trkpt lat="44.6486791" lon="11.7277513"><ele>6.0</ele><time>2026-04-22T10:37:51.342Z</time></trkpt><trkpt lat="44.6486144" lon="11.727737"><ele>6.0</ele><time>2026-04-22T10:37:52.35Z</time></trkpt><trkpt lat="44.6485515" lon="11.7277195"><ele>6.0</ele><time>2026-04-22T10:37:53.347Z</time></trkpt><trkpt lat="44.6484878" lon="11.727694"><ele>6.0</ele><time>2026-04-22T10:37:54.344Z</time></trkpt><trkpt lat="44.6484275" lon="11.7276623"><ele>5.999999999999999</ele><time>2026-04-22T10:37:55.348Z</time></trkpt><trkpt lat="44.6483697" lon="11.7276246"><ele>6.0</ele><time>2026-04-22T10:37:56.342Z</time></trkpt><trkpt lat="44.6482586" lon="11.7275392"><ele>6.0</ele><time>2026-04-22T10:37:58.347Z</time></trkpt><trkpt lat="44.6482053" lon="11.7274919"><ele>6.0</ele><time>2026-04-22T10:37:59.347Z</time></trkpt><trkpt lat="44.6481048" lon="11.7273999"><ele>6.0</ele><time>2026-04-22T10:38:01.346Z</time></trkpt><trkpt lat="44.6480092" lon="11.7273108"><ele>6.0</ele><time>2026-04-22T10:38:03.348Z</time></trkpt><trkpt lat="44.6479194" lon="11.7271979"><ele>6.0</ele><time>2026-04-22T10:38:05.343Z</time></trkpt><trkpt lat="44.6478768" lon="11.7271138"><ele>6.0</ele><time>2026-04-22T10:38:06.353Z</time></trkpt><trkpt lat="44.6478383" lon="11.7270321"><ele>6.0</ele><time>2026-04-22T10:38:07.35Z</time></trkpt><trkpt lat="44.6478039" lon="11.7269578"><ele>6.0</ele><time>2026-04-22T10:38:08.346Z</time></trkpt><trkpt lat="44.6477708" lon="11.7268719"><ele>6.0</ele><time>2026-04-22T10:38:09.35Z</time></trkpt><trkpt lat="44.6477197" lon="11.7267191"><ele>6.0</ele><time>2026-04-22T10:38:11.349Z</time></trkpt><trkpt lat="44.6476691" lon="11.7265696"><ele>6.0</ele><time>2026-04-22T10:38:13.341Z</time></trkpt><trkpt lat="44.6476448" lon="11.7264744"><ele>6.0</ele><time>2026-04-22T10:38:14.343Z</time></trkpt><trkpt lat="44.6476212" lon="11.7263829"><ele>6.0</ele><time>2026-04-22T10:38:15.347Z</time></trkpt><trkpt lat="44.6475976" lon="11.7262985"><ele>6.0</ele><time>2026-04-22T10:38:16.34Z</time></trkpt><trkpt lat="44.6475742" lon="11.7262148"><ele>6.0</ele><time>2026-04-22T10:38:17.346Z</time></trkpt><trkpt lat="44.6475349" lon="11.726068"><ele>6.0</ele><time>2026-04-22T10:38:19.347Z</time></trkpt><trkpt lat="44.6475105" lon="11.725977"><ele>6.0</ele><time>2026-04-22T10:38:20.343Z</time></trkpt><trkpt lat="44.6474661" lon="11.7258129"><ele>6.0</ele><time>2026-04-22T10:38:22.355Z</time></trkpt><trkpt lat="44.647442" lon="11.7257292"><ele>6.0</ele><time>2026-04-22T10:38:23.34Z</time></trkpt><trkpt lat="44.6474184" lon="11.7256466"><ele>6.0</ele><time>2026-04-22T10:38:24.34Z</time></trkpt><trkpt lat="44.6473949" lon="11.7255583"><ele>6.0</ele><time>2026-04-22T10:38:25.351Z</time></trkpt><trkpt lat="44.6473498" lon="11.7253914"><ele>6.0</ele><time>2026-04-22T10:38:27.346Z</time></trkpt><trkpt lat="44.6473084" lon="11.7252278"><ele>6.0</ele><time>2026-04-22T10:38:29.353Z</time></trkpt><trkpt lat="44.6472673" lon="11.725077"><ele>5.666666666666667</ele><time>2026-04-22T10:38:31.349Z</time></trkpt><trkpt lat="44.6472433" lon="11.7249899"><ele>5.333333333333333</ele><time>2026-04-22T10:38:32.344Z</time></trkpt><trkpt lat="44.6471953" lon="11.7248236"><ele>5.0</ele><time>2026-04-22T10:38:34.347Z</time></trkpt><trkpt lat="44.6471729" lon="11.7247405"><ele>4.666666666666666</ele><time>2026-04-22T10:38:35.347Z</time></trkpt><trkpt lat="44.6471301" lon="11.7245826"><ele>4.333333333333333</ele><time>2026-04-22T10:38:37.35Z</time></trkpt><trkpt lat="44.6471064" lon="11.7245005"><ele>4.0</ele><time>2026-04-22T10:38:38.36Z</time></trkpt><trkpt lat="44.6470641" lon="11.7243437"><ele>3.75</ele><time>2026-04-22T10:38:40.341Z</time></trkpt><trkpt lat="44.6470236" lon="11.7241848"><ele>3.5</ele><time>2026-04-22T10:38:42.361Z</time></trkpt><trkpt lat="44.646983" lon="11.7240285"><ele>3.25</ele><time>2026-04-22T10:38:44.348Z</time></trkpt><trkpt lat="44.6469395" lon="11.7238696"><ele>3.0</ele><time>2026-04-22T10:38:46.343Z</time></trkpt><trkpt lat="44.6468975" lon="11.7237088"><ele>3.75</ele><time>2026-04-22T10:38:48.358Z</time></trkpt><trkpt lat="44.6468503" lon="11.7235538"><ele>4.5</ele><time>2026-04-22T10:38:50.35Z</time></trkpt><trkpt lat="44.646795" lon="11.7234072"><ele>5.25</ele><time>2026-04-22T10:38:52.362Z</time></trkpt><trkpt lat="44.6467268" lon="11.7232648"><ele>6.0</ele><time>2026-04-22T10:38:54.347Z</time></trkpt><trkpt lat="44.6466405" lon="11.7231367"><ele>5.999999999999999</ele><time>2026-04-22T10:38:56.35Z</time></trkpt><trkpt lat="44.6465908" lon="11.7230818"><ele>6.0</ele><time>2026-04-22T10:38:57.354Z</time></trkpt><trkpt lat="44.6465378" lon="11.7230338"><ele>6.0</ele><time>2026-04-22T10:38:58.357Z</time></trkpt><trkpt lat="44.6464251" lon="11.7229606"><ele>6.0</ele><time>2026-04-22T10:39:00.35Z</time></trkpt><trkpt lat="44.6463648" lon="11.7229323"><ele>6.0</ele><time>2026-04-22T10:39:01.359Z</time></trkpt><trkpt lat="44.6463026" lon="11.7229139"><ele>5.999999999999999</ele><time>2026-04-22T10:39:02.356Z</time></trkpt><trkpt lat="44.6462396" lon="11.7229048"><ele>6.0</ele><time>2026-04-22T10:39:03.353Z</time></trkpt><trkpt lat="44.6461168" lon="11.7228985"><ele>6.25</ele><time>2026-04-22T10:39:05.351Z</time></trkpt><trkpt lat="44.6459928" lon="11.7229071"><ele>6.5</ele><time>2026-04-22T10:39:07.351Z</time></trkpt><trkpt lat="44.6458701" lon="11.7229273"><ele>6.75</ele><time>2026-04-22T10:39:09.347Z</time></trkpt><trkpt lat="44.645748" lon="11.7229509"><ele>7.0</ele><time>2026-04-22T10:39:11.354Z</time></trkpt><trkpt lat="44.6456282" lon="11.7229828"><ele>7.0</ele><time>2026-04-22T10:39:13.354Z</time></trkpt><trkpt lat="44.6455075" lon="11.7230213"><ele>7.0</ele><time>2026-04-22T10:39:15.347Z</time></trkpt><trkpt lat="44.6453875" lon="11.7230641"><ele>7.0</ele><time>2026-04-22T10:39:17.348Z</time></trkpt><trkpt lat="44.6452671" lon="11.7231089"><ele>7.0</ele><time>2026-04-22T10:39:19.351Z</time></trkpt><trkpt lat="44.6451488" lon="11.7231576"><ele>6.75</ele><time>2026-04-22T10:39:21.36Z</time></trkpt><trkpt lat="44.6450282" lon="11.7232026"><ele>6.5</ele><time>2026-04-22T10:39:23.353Z</time></trkpt><trkpt lat="44.6449083" lon="11.7232486"><ele>6.25</ele><time>2026-04-22T10:39:25.345Z</time></trkpt><trkpt lat="44.6447878" lon="11.7232982"><ele>6.0</ele><time>2026-04-22T10:39:27.346Z</time></trkpt><trkpt lat="44.6446666" lon="11.7233444"><ele>6.0</ele><time>2026-04-22T10:39:29.348Z</time></trkpt><trkpt lat="44.6446058" lon="11.7233676"><ele>6.0</ele><time>2026-04-22T10:39:30.346Z</time></trkpt><trkpt lat="44.6445448" lon="11.7233916"><ele>6.0</ele><time>2026-04-22T10:39:31.344Z</time></trkpt><trkpt lat="44.6444249" lon="11.7234391"><ele>6.0</ele><time>2026-04-22T10:39:33.353Z</time></trkpt><trkpt lat="44.6443045" lon="11.7234875"><ele>6.0</ele><time>2026-04-22T10:39:35.342Z</time></trkpt><trkpt lat="44.6441843" lon="11.7235361"><ele>6.25</ele><time>2026-04-22T10:39:37.351Z</time></trkpt><trkpt lat="44.6440647" lon="11.7235837"><ele>6.5</ele><time>2026-04-22T10:39:39.355Z</time></trkpt><trkpt lat="44.6439465" lon="11.7236323"><ele>6.75</ele><time>2026-04-22T10:39:41.336Z</time></trkpt><trkpt lat="44.643827" lon="11.7236865"><ele>7.0</ele><time>2026-04-22T10:39:43.348Z</time></trkpt><trkpt lat="44.6437082" lon="11.7237361"><ele>6.8</ele><time>2026-04-22T10:39:45.344Z</time></trkpt><trkpt lat="44.6435877" lon="11.7237832"><ele>6.6</ele><time>2026-04-22T10:39:47.347Z</time></trkpt><trkpt lat="44.6434683" lon="11.723837"><ele>6.3999999999999995</ele><time>2026-04-22T10:39:49.352Z</time></trkpt><trkpt lat="44.6434077" lon="11.7238616"><ele>6.199999999999999</ele><time>2026-04-22T10:39:50.354Z</time></trkpt><trkpt lat="44.643287" lon="11.7239121"><ele>6.0</ele><time>2026-04-22T10:39:52.357Z</time></trkpt><trkpt lat="44.6431673" lon="11.7239609"><ele>6.0</ele><time>2026-04-22T10:39:54.348Z</time></trkpt><trkpt lat="44.6430478" lon="11.724012"><ele>6.0</ele><time>2026-04-22T10:39:56.348Z</time></trkpt><trkpt lat="44.642928" lon="11.7240646"><ele>6.0</ele><time>2026-04-22T10:39:58.347Z</time></trkpt><trkpt lat="44.6428091" lon="11.7241102"><ele>6.0</ele><time>2026-04-22T10:40:00.356Z</time></trkpt><trkpt lat="44.6426888" lon="11.7241554"><ele>6.0</ele><time>2026-04-22T10:40:02.364Z</time></trkpt><trkpt lat="44.642569" lon="11.724201"><ele>6.0</ele><time>2026-04-22T10:40:04.351Z</time></trkpt><trkpt lat="44.6424483" lon="11.7242443"><ele>6.0</ele><time>2026-04-22T10:40:06.344Z</time></trkpt><trkpt lat="44.6423263" lon="11.7242835"><ele>6.0</ele><time>2026-04-22T10:40:08.358Z</time></trkpt><trkpt lat="44.6422032" lon="11.7243223"><ele>6.0</ele><time>2026-04-22T10:40:10.339Z</time></trkpt><trkpt lat="44.6420809" lon="11.724357"><ele>6.0</ele><time>2026-04-22T10:40:12.343Z</time></trkpt><trkpt lat="44.6419595" lon="11.7243878"><ele>6.0</ele><time>2026-04-22T10:40:14.351Z</time></trkpt><trkpt lat="44.641897" lon="11.7244019"><ele>6.0</ele><time>2026-04-22T10:40:15.358Z</time></trkpt><trkpt lat="44.6417733" lon="11.724423"><ele>6.0</ele><time>2026-04-22T10:40:17.352Z</time></trkpt><trkpt lat="44.6416513" lon="11.7244427"><ele>6.0</ele><time>2026-04-22T10:40:19.346Z</time></trkpt><trkpt lat="44.6415285" lon="11.7244617"><ele>6.0</ele><time>2026-04-22T10:40:21.353Z</time></trkpt><trkpt lat="44.6414067" lon="11.7244802"><ele>6.0</ele><time>2026-04-22T10:40:23.352Z</time></trkpt><trkpt lat="44.6412844" lon="11.7244963"><ele>6.0</ele><time>2026-04-22T10:40:25.344Z</time></trkpt><trkpt lat="44.641161" lon="11.7245085"><ele>6.0</ele><time>2026-04-22T10:40:27.351Z</time></trkpt><trkpt lat="44.6410381" lon="11.7245257"><ele>6.0</ele><time>2026-04-22T10:40:29.351Z</time></trkpt><trkpt lat="44.640915" lon="11.7245369"><ele>6.0</ele><time>2026-04-22T10:40:31.349Z</time></trkpt><trkpt lat="44.6407908" lon="11.7245414"><ele>6.0</ele><time>2026-04-22T10:40:33.345Z</time></trkpt><trkpt lat="44.6406663" lon="11.7245451"><ele>6.0</ele><time>2026-04-22T10:40:35.346Z</time></trkpt><trkpt lat="44.640543" lon="11.7245347"><ele>6.0</ele><time>2026-04-22T10:40:37.347Z</time></trkpt><trkpt lat="44.640418" lon="11.7245125"><ele>6.0</ele><time>2026-04-22T10:40:39.342Z</time></trkpt><trkpt lat="44.6403551" lon="11.7244987"><ele>6.0</ele><time>2026-04-22T10:40:40.35Z</time></trkpt><trkpt lat="44.6402329" lon="11.7244643"><ele>6.0</ele><time>2026-04-22T10:40:42.353Z</time></trkpt><trkpt lat="44.6401129" lon="11.7244203"><ele>6.0</ele><time>2026-04-22T10:40:44.363Z</time></trkpt><trkpt lat="44.6399924" lon="11.7243716"><ele>6.0</ele><time>2026-04-22T10:40:46.347Z</time></trkpt><trkpt lat="44.6398792" lon="11.7243086"><ele>6.0</ele><time>2026-04-22T10:40:48.36Z</time></trkpt><trkpt lat="44.6397675" lon="11.7242479"><ele>6.0</ele><time>2026-04-22T10:40:50.345Z</time></trkpt><trkpt lat="44.6396517" lon="11.7241863"><ele>6.0</ele><time>2026-04-22T10:40:52.349Z</time></trkpt><trkpt lat="44.6395264" lon="11.7241459"><ele>6.0</ele><time>2026-04-22T10:40:54.349Z</time></trkpt><trkpt lat="44.639461" lon="11.7241299"><ele>6.0</ele><time>2026-04-22T10:40:55.346Z</time></trkpt><trkpt lat="44.6393896" lon="11.7241215"><ele>6.0</ele><time>2026-04-22T10:40:56.35Z</time></trkpt><trkpt lat="44.6393137" lon="11.7241122"><ele>6.0</ele><time>2026-04-22T10:40:57.345Z</time></trkpt><trkpt lat="44.639239" lon="11.7241035"><ele>6.0</ele><time>2026-04-22T10:40:58.344Z</time></trkpt><trkpt lat="44.6391634" lon="11.7240953"><ele>6.142857142857142</ele><time>2026-04-22T10:40:59.342Z</time></trkpt><trkpt lat="44.639089" lon="11.7240873"><ele>6.285714285714286</ele><time>2026-04-22T10:41:00.346Z</time></trkpt><trkpt lat="44.6390152" lon="11.724081"><ele>6.428571428571429</ele><time>2026-04-22T10:41:01.351Z</time></trkpt><trkpt lat="44.6389432" lon="11.7240743"><ele>6.571428571428571</ele><time>2026-04-22T10:41:02.344Z</time></trkpt><trkpt lat="44.6388707" lon="11.7240704"><ele>6.714285714285714</ele><time>2026-04-22T10:41:03.357Z</time></trkpt><trkpt lat="44.6388027" lon="11.7240685"><ele>6.857142857142857</ele><time>2026-04-22T10:41:04.334Z</time></trkpt><trkpt lat="44.638736" lon="11.7240675"><ele>7.0</ele><time>2026-04-22T10:41:05.352Z</time></trkpt><trkpt lat="44.6386703" lon="11.7240629"><ele>7.285714285714286</ele><time>2026-04-22T10:41:06.349Z</time></trkpt><trkpt lat="44.6386047" lon="11.7240591"><ele>7.571428571428571</ele><time>2026-04-22T10:41:07.348Z</time></trkpt><trkpt lat="44.6385392" lon="11.7240519"><ele>7.857142857142858</ele><time>2026-04-22T10:41:08.355Z</time></trkpt><trkpt lat="44.6384745" lon="11.7240435"><ele>8.142857142857142</ele><time>2026-04-22T10:41:09.353Z</time></trkpt><trkpt lat="44.638411" lon="11.7240346"><ele>8.428571428571429</ele><time>2026-04-22T10:41:10.348Z</time></trkpt><trkpt lat="44.6383469" lon="11.7240273"><ele>8.714285714285715</ele><time>2026-04-22T10:41:11.349Z</time></trkpt><trkpt lat="44.6382827" lon="11.7240215"><ele>9.0</ele><time>2026-04-22T10:41:12.358Z</time></trkpt><trkpt lat="44.6382185" lon="11.7240152"><ele>9.000000000000002</ele><time>2026-04-22T10:41:13.339Z</time></trkpt><trkpt lat="44.6381533" lon="11.724009"><ele>9.0</ele><time>2026-04-22T10:41:14.35Z</time></trkpt><trkpt lat="44.6380894" lon="11.7240009"><ele>9.0</ele><time>2026-04-22T10:41:15.355Z</time></trkpt><trkpt lat="44.6380259" lon="11.7239929"><ele>9.0</ele><time>2026-04-22T10:41:16.353Z</time></trkpt><trkpt lat="44.6379622" lon="11.7239853"><ele>9.0</ele><time>2026-04-22T10:41:17.349Z</time></trkpt><trkpt lat="44.6378984" lon="11.7239793"><ele>9.000000000000002</ele><time>2026-04-22T10:41:18.339Z</time></trkpt><trkpt lat="44.6378338" lon="11.7239739"><ele>9.0</ele><time>2026-04-22T10:41:19.345Z</time></trkpt><trkpt lat="44.637769" lon="11.7239681"><ele>8.75</ele><time>2026-04-22T10:41:20.338Z</time></trkpt><trkpt lat="44.6377043" lon="11.7239622"><ele>8.5</ele><time>2026-04-22T10:41:21.351Z</time></trkpt><trkpt lat="44.6376401" lon="11.7239567"><ele>8.25</ele><time>2026-04-22T10:41:22.349Z</time></trkpt><trkpt lat="44.6375759" lon="11.7239513"><ele>8.0</ele><time>2026-04-22T10:41:23.343Z</time></trkpt><trkpt lat="44.6375115" lon="11.7239448"><ele>7.75</ele><time>2026-04-22T10:41:24.348Z</time></trkpt><trkpt lat="44.6374478" lon="11.7239386"><ele>7.5</ele><time>2026-04-22T10:41:25.364Z</time></trkpt><trkpt lat="44.6373841" lon="11.723932"><ele>7.25</ele><time>2026-04-22T10:41:26.346Z</time></trkpt><trkpt lat="44.6373206" lon="11.7239241"><ele>7.0</ele><time>2026-04-22T10:41:27.346Z</time></trkpt><trkpt lat="44.6372575" lon="11.7239172"><ele>7.0</ele><time>2026-04-22T10:41:28.348Z</time></trkpt><trkpt lat="44.6371944" lon="11.7239115"><ele>6.999999999999999</ele><time>2026-04-22T10:41:29.348Z</time></trkpt><trkpt lat="44.6370707" lon="11.723898"><ele>6.999999999999999</ele><time>2026-04-22T10:41:31.359Z</time></trkpt><trkpt lat="44.6369514" lon="11.723885"><ele>7.0</ele><time>2026-04-22T10:41:33.344Z</time></trkpt><trkpt lat="44.6368375" lon="11.7238764"><ele>7.0</ele><time>2026-04-22T10:41:35.35Z</time></trkpt><trkpt lat="44.6367323" lon="11.7238908"><ele>7.000000000000001</ele><time>2026-04-22T10:41:37.338Z</time></trkpt><trkpt lat="44.6366454" lon="11.7239556"><ele>7.0</ele><time>2026-04-22T10:41:39.351Z</time></trkpt><trkpt lat="44.6365913" lon="11.7240558"><ele>7.0</ele><time>2026-04-22T10:41:41.355Z</time></trkpt><trkpt lat="44.6365731" lon="11.7241678"><ele>7.0</ele><time>2026-04-22T10:41:43.349Z</time></trkpt><trkpt lat="44.6365568" lon="11.7242713"><ele>7.000000000000001</ele><time>2026-04-22T10:41:45.342Z</time></trkpt><trkpt lat="44.6364869" lon="11.7243289"><ele>7.0</ele><time>2026-04-22T10:41:48.346Z</time></trkpt><trkpt lat="44.6364683" lon="11.7241945"><ele>7.0</ele><time>2026-04-22T10:41:51.342Z</time></trkpt><trkpt lat="44.6364818" lon="11.7240771"><ele>6.999999999999999</ele><time>2026-04-22T10:41:53.339Z</time></trkpt><trkpt lat="44.636492" lon="11.7239522"><ele>6.999999999999999</ele><time>2026-04-22T10:41:55.352Z</time></trkpt><trkpt lat="44.6364995" lon="11.7238174"><ele>7.0</ele><time>2026-04-22T10:41:57.347Z</time></trkpt><trkpt lat="44.6365046" lon="11.7236795"><ele>7.0</ele><time>2026-04-22T10:41:59.348Z</time></trkpt><trkpt lat="44.6365099" lon="11.7235387"><ele>7.199999999999999</ele><time>2026-04-22T10:42:01.351Z</time></trkpt><trkpt lat="44.6365153" lon="11.7233963"><ele>7.3999999999999995</ele><time>2026-04-22T10:42:03.355Z</time></trkpt><trkpt lat="44.6365205" lon="11.7232493"><ele>7.6000000000000005</ele><time>2026-04-22T10:42:05.352Z</time></trkpt><trkpt lat="44.6365238" lon="11.7230993"><ele>7.800000000000001</ele><time>2026-04-22T10:42:07.356Z</time></trkpt><trkpt lat="44.6365309" lon="11.722947"><ele>8.0</ele><time>2026-04-22T10:42:09.343Z</time></trkpt><trkpt lat="44.6365389" lon="11.7227924"><ele>8.0</ele><time>2026-04-22T10:42:11.344Z</time></trkpt><trkpt lat="44.6365457" lon="11.7226364"><ele>8.0</ele><time>2026-04-22T10:42:13.35Z</time></trkpt><trkpt lat="44.6365502" lon="11.7224792"><ele>8.0</ele><time>2026-04-22T10:42:15.35Z</time></trkpt><trkpt lat="44.6365567" lon="11.7223213"><ele>8.0</ele><time>2026-04-22T10:42:17.347Z</time></trkpt><trkpt lat="44.6365647" lon="11.722163"><ele>8.0</ele><time>2026-04-22T10:42:19.356Z</time></trkpt><trkpt lat="44.6365708" lon="11.7220031"><ele>8.25</ele><time>2026-04-22T10:42:21.358Z</time></trkpt><trkpt lat="44.6365777" lon="11.7218399"><ele>8.5</ele><time>2026-04-22T10:42:23.348Z</time></trkpt><trkpt lat="44.6365851" lon="11.7216761"><ele>8.75</ele><time>2026-04-22T10:42:25.347Z</time></trkpt><trkpt lat="44.6365907" lon="11.7215089"><ele>9.0</ele><time>2026-04-22T10:42:27.347Z</time></trkpt><trkpt lat="44.6365994" lon="11.7213412"><ele>9.0</ele><time>2026-04-22T10:42:29.348Z</time></trkpt><trkpt lat="44.6366056" lon="11.7211705"><ele>9.0</ele><time>2026-04-22T10:42:31.348Z</time></trkpt><trkpt lat="44.6366093" lon="11.7209992"><ele>9.0</ele><time>2026-04-22T10:42:33.35Z</time></trkpt><trkpt lat="44.6366166" lon="11.7208258"><ele>9.0</ele><time>2026-04-22T10:42:35.341Z</time></trkpt><trkpt lat="44.6366268" lon="11.7206534"><ele>9.0</ele><time>2026-04-22T10:42:37.355Z</time></trkpt><trkpt lat="44.6366329" lon="11.7204787"><ele>9.0</ele><time>2026-04-22T10:42:39.34Z</time></trkpt><trkpt lat="44.6366381" lon="11.7203029"><ele>9.0</ele><time>2026-04-22T10:42:41.358Z</time></trkpt><trkpt lat="44.636646" lon="11.7201274"><ele>9.0</ele><time>2026-04-22T10:42:43.35Z</time></trkpt><trkpt lat="44.6366527" lon="11.7199497"><ele>8.875</ele><time>2026-04-22T10:42:45.343Z</time></trkpt><trkpt lat="44.6366562" lon="11.7198602"><ele>8.75</ele><time>2026-04-22T10:42:46.353Z</time></trkpt><trkpt lat="44.6366602" lon="11.7197708"><ele>8.625</ele><time>2026-04-22T10:42:47.351Z</time></trkpt><trkpt lat="44.6366636" lon="11.7196819"><ele>8.5</ele><time>2026-04-22T10:42:48.346Z</time></trkpt><trkpt lat="44.636667" lon="11.719593"><ele>8.375</ele><time>2026-04-22T10:42:49.348Z</time></trkpt><trkpt lat="44.6366715" lon="11.7195042"><ele>8.25</ele><time>2026-04-22T10:42:50.35Z</time></trkpt><trkpt lat="44.636676" lon="11.7194158"><ele>8.125</ele><time>2026-04-22T10:42:51.342Z</time></trkpt><trkpt lat="44.6366792" lon="11.7193273"><ele>8.0</ele><time>2026-04-22T10:42:52.347Z</time></trkpt><trkpt lat="44.6366826" lon="11.7192386"><ele>8.0</ele><time>2026-04-22T10:42:53.355Z</time></trkpt><trkpt lat="44.636686" lon="11.7191499"><ele>7.999999999999999</ele><time>2026-04-22T10:42:54.351Z</time></trkpt><trkpt lat="44.6366897" lon="11.719061"><ele>8.0</ele><time>2026-04-22T10:42:55.342Z</time></trkpt><trkpt lat="44.6366954" lon="11.718884"><ele>8.0</ele><time>2026-04-22T10:42:57.345Z</time></trkpt><trkpt lat="44.6366992" lon="11.7187948"><ele>7.999999999999999</ele><time>2026-04-22T10:42:58.35Z</time></trkpt><trkpt lat="44.6367032" lon="11.7187055"><ele>8.0</ele><time>2026-04-22T10:42:59.343Z</time></trkpt><trkpt lat="44.6367064" lon="11.7186168"><ele>8.0</ele><time>2026-04-22T10:43:00.343Z</time></trkpt><trkpt lat="44.6367157" lon="11.7184402"><ele>8.0</ele><time>2026-04-22T10:43:02.349Z</time></trkpt><trkpt lat="44.6367199" lon="11.7183519"><ele>8.0</ele><time>2026-04-22T10:43:03.353Z</time></trkpt><trkpt lat="44.6367239" lon="11.7182628"><ele>8.0</ele><time>2026-04-22T10:43:04.354Z</time></trkpt><trkpt lat="44.6367275" lon="11.7181733"><ele>8.0</ele><time>2026-04-22T10:43:05.346Z</time></trkpt><trkpt lat="44.6367316" lon="11.7180836"><ele>8.0</ele><time>2026-04-22T10:43:06.355Z</time></trkpt><trkpt lat="44.6367355" lon="11.7179946"><ele>8.0</ele><time>2026-04-22T10:43:07.346Z</time></trkpt><trkpt lat="44.6367385" lon="11.7179056"><ele>8.0</ele><time>2026-04-22T10:43:08.337Z</time></trkpt><trkpt lat="44.6367416" lon="11.7178163"><ele>8.0</ele><time>2026-04-22T10:43:09.352Z</time></trkpt><trkpt lat="44.6367443" lon="11.7177259"><ele>8.0</ele><time>2026-04-22T10:43:10.34Z</time></trkpt><trkpt lat="44.6367486" lon="11.7176355"><ele>7.999999999999999</ele><time>2026-04-22T10:43:11.346Z</time></trkpt><trkpt lat="44.6367527" lon="11.7175454"><ele>8.0</ele><time>2026-04-22T10:43:12.343Z</time></trkpt><trkpt lat="44.6367563" lon="11.7174546"><ele>8.0</ele><time>2026-04-22T10:43:13.344Z</time></trkpt><trkpt lat="44.6367598" lon="11.7173626"><ele>7.999999999999999</ele><time>2026-04-22T10:43:14.349Z</time></trkpt><trkpt lat="44.6367626" lon="11.7172707"><ele>8.0</ele><time>2026-04-22T10:43:15.346Z</time></trkpt><trkpt lat="44.6367653" lon="11.7171781"><ele>8.0</ele><time>2026-04-22T10:43:16.345Z</time></trkpt><trkpt lat="44.6367685" lon="11.7170855"><ele>8.0</ele><time>2026-04-22T10:43:17.348Z</time></trkpt><trkpt lat="44.6367726" lon="11.7169941"><ele>7.999999999999999</ele><time>2026-04-22T10:43:18.343Z</time></trkpt><trkpt lat="44.6367755" lon="11.716903"><ele>8.0</ele><time>2026-04-22T10:43:19.35Z</time></trkpt><trkpt lat="44.6367787" lon="11.7168127"><ele>8.0</ele><time>2026-04-22T10:43:20.358Z</time></trkpt><trkpt lat="44.6367834" lon="11.7167223"><ele>7.999999999999999</ele><time>2026-04-22T10:43:21.346Z</time></trkpt><trkpt lat="44.6367883" lon="11.7166321"><ele>8.0</ele><time>2026-04-22T10:43:22.342Z</time></trkpt><trkpt lat="44.6367924" lon="11.7165416"><ele>8.0</ele><time>2026-04-22T10:43:23.353Z</time></trkpt><trkpt lat="44.6367966" lon="11.7164508"><ele>8.0</ele><time>2026-04-22T10:43:24.355Z</time></trkpt><trkpt lat="44.6368013" lon="11.7163601"><ele>7.999999999999999</ele><time>2026-04-22T10:43:25.345Z</time></trkpt><trkpt lat="44.6368047" lon="11.7162698"><ele>8.0</ele><time>2026-04-22T10:43:26.346Z</time></trkpt><trkpt lat="44.636808" lon="11.7161788"><ele>8.0</ele><time>2026-04-22T10:43:27.343Z</time></trkpt><trkpt lat="44.6368123" lon="11.7160866"><ele>7.999999999999999</ele><time>2026-04-22T10:43:28.354Z</time></trkpt><trkpt lat="44.6368163" lon="11.7159942"><ele>8.0</ele><time>2026-04-22T10:43:29.346Z</time></trkpt><trkpt lat="44.6368208" lon="11.7159008"><ele>8.0</ele><time>2026-04-22T10:43:30.346Z</time></trkpt><trkpt lat="44.6368247" lon="11.7158076"><ele>8.0</ele><time>2026-04-22T10:43:31.347Z</time></trkpt><trkpt lat="44.6368288" lon="11.7157137"><ele>7.999999999999999</ele><time>2026-04-22T10:43:32.35Z</time></trkpt><trkpt lat="44.6368322" lon="11.7156202"><ele>8.0</ele><time>2026-04-22T10:43:33.359Z</time></trkpt><trkpt lat="44.6368357" lon="11.715527"><ele>8.0</ele><time>2026-04-22T10:43:34.348Z</time></trkpt><trkpt lat="44.6368398" lon="11.7154335"><ele>7.999999999999999</ele><time>2026-04-22T10:43:35.354Z</time></trkpt><trkpt lat="44.6368449" lon="11.7153393"><ele>8.0</ele><time>2026-04-22T10:43:36.35Z</time></trkpt><trkpt lat="44.6368496" lon="11.7152449"><ele>8.0</ele><time>2026-04-22T10:43:37.355Z</time></trkpt><trkpt lat="44.6368543" lon="11.7151501"><ele>7.857142857142857</ele><time>2026-04-22T10:43:38.349Z</time></trkpt><trkpt lat="44.6368587" lon="11.7150546"><ele>7.7142857142857135</ele><time>2026-04-22T10:43:39.345Z</time></trkpt><trkpt lat="44.6368625" lon="11.7149587"><ele>7.571428571428571</ele><time>2026-04-22T10:43:40.356Z</time></trkpt><trkpt lat="44.6368664" lon="11.7148633"><ele>7.428571428571429</ele><time>2026-04-22T10:43:41.345Z</time></trkpt><trkpt lat="44.6368696" lon="11.7147674"><ele>7.285714285714286</ele><time>2026-04-22T10:43:42.349Z</time></trkpt><trkpt lat="44.6368741" lon="11.7146706"><ele>7.142857142857142</ele><time>2026-04-22T10:43:43.347Z</time></trkpt><trkpt lat="44.636879" lon="11.7145733"><ele>7.0</ele><time>2026-04-22T10:43:44.341Z</time></trkpt><trkpt lat="44.636883" lon="11.7144769"><ele>7.0</ele><time>2026-04-22T10:43:45.363Z</time></trkpt><trkpt lat="44.6368863" lon="11.7143803"><ele>7.0</ele><time>2026-04-22T10:43:46.344Z</time></trkpt><trkpt lat="44.636891" lon="11.714284"><ele>7.0</ele><time>2026-04-22T10:43:47.35Z</time></trkpt><trkpt lat="44.6368947" lon="11.7141865"><ele>7.0</ele><time>2026-04-22T10:43:48.356Z</time></trkpt><trkpt lat="44.6368991" lon="11.7140901"><ele>7.0</ele><time>2026-04-22T10:43:49.345Z</time></trkpt><trkpt lat="44.6369029" lon="11.7139945"><ele>7.0</ele><time>2026-04-22T10:43:50.352Z</time></trkpt><trkpt lat="44.6369063" lon="11.7138991"><ele>7.0</ele><time>2026-04-22T10:43:51.346Z</time></trkpt><trkpt lat="44.6369099" lon="11.7138043"><ele>7.0</ele><time>2026-04-22T10:43:52.353Z</time></trkpt><trkpt lat="44.6369132" lon="11.7137094"><ele>7.0</ele><time>2026-04-22T10:43:53.35Z</time></trkpt><trkpt lat="44.6369174" lon="11.713615"><ele>7.0</ele><time>2026-04-22T10:43:54.348Z</time></trkpt><trkpt lat="44.6369213" lon="11.7135198"><ele>7.0</ele><time>2026-04-22T10:43:55.348Z</time></trkpt><trkpt lat="44.6369243" lon="11.7134257"><ele>7.0</ele><time>2026-04-22T10:43:56.348Z</time></trkpt><trkpt lat="44.6369281" lon="11.7133312"><ele>7.0</ele><time>2026-04-22T10:43:57.345Z</time></trkpt><trkpt lat="44.6369315" lon="11.7132368"><ele>7.0</ele><time>2026-04-22T10:43:58.349Z</time></trkpt><trkpt lat="44.6369346" lon="11.7131422"><ele>7.0</ele><time>2026-04-22T10:43:59.355Z</time></trkpt><trkpt lat="44.6369384" lon="11.7130487"><ele>7.0</ele><time>2026-04-22T10:44:00.344Z</time></trkpt><trkpt lat="44.6369436" lon="11.7129554"><ele>7.0</ele><time>2026-04-22T10:44:01.356Z</time></trkpt><trkpt lat="44.6369498" lon="11.7128622"><ele>7.0</ele><time>2026-04-22T10:44:02.354Z</time></trkpt><trkpt lat="44.6369538" lon="11.7127685"><ele>7.0</ele><time>2026-04-22T10:44:03.357Z</time></trkpt><trkpt lat="44.6369559" lon="11.7126748"><ele>7.0</ele><time>2026-04-22T10:44:04.352Z</time></trkpt><trkpt lat="44.6369585" lon="11.7125811"><ele>7.0</ele><time>2026-04-22T10:44:05.35Z</time></trkpt><trkpt lat="44.6369603" lon="11.7124877"><ele>7.0</ele><time>2026-04-22T10:44:06.36Z</time></trkpt><trkpt lat="44.6369605" lon="11.712394"><ele>7.0</ele><time>2026-04-22T10:44:07.351Z</time></trkpt><trkpt lat="44.636958" lon="11.7122998"><ele>7.0</ele><time>2026-04-22T10:44:08.347Z</time></trkpt><trkpt lat="44.6369527" lon="11.7122063"><ele>7.0</ele><time>2026-04-22T10:44:09.366Z</time></trkpt><trkpt lat="44.6369425" lon="11.7121137"><ele>7.0</ele><time>2026-04-22T10:44:10.35Z</time></trkpt><trkpt lat="44.6369289" lon="11.7120217"><ele>7.0</ele><time>2026-04-22T10:44:11.353Z</time></trkpt><trkpt lat="44.6369119" lon="11.71193"><ele>7.0</ele><time>2026-04-22T10:44:12.352Z</time></trkpt><trkpt lat="44.6368927" lon="11.7118394"><ele>6.857142857142857</ele><time>2026-04-22T10:44:13.354Z</time></trkpt><trkpt lat="44.6368723" lon="11.7117489"><ele>6.714285714285714</ele><time>2026-04-22T10:44:14.349Z</time></trkpt><trkpt lat="44.6368505" lon="11.7116592"><ele>6.571428571428571</ele><time>2026-04-22T10:44:15.351Z</time></trkpt><trkpt lat="44.6368287" lon="11.711569"><ele>6.428571428571429</ele><time>2026-04-22T10:44:16.343Z</time></trkpt><trkpt lat="44.6368078" lon="11.7114789"><ele>6.285714285714286</ele><time>2026-04-22T10:44:17.348Z</time></trkpt><trkpt lat="44.6367873" lon="11.7113877"><ele>6.142857142857142</ele><time>2026-04-22T10:44:18.36Z</time></trkpt><trkpt lat="44.6367674" lon="11.7112954"><ele>6.0</ele><time>2026-04-22T10:44:19.354Z</time></trkpt><trkpt lat="44.636747" lon="11.7112034"><ele>5.999999999999999</ele><time>2026-04-22T10:44:20.35Z</time></trkpt><trkpt lat="44.6367271" lon="11.7111108"><ele>6.0</ele><time>2026-04-22T10:44:21.345Z</time></trkpt><trkpt lat="44.6367081" lon="11.711018"><ele>6.0</ele><time>2026-04-22T10:44:22.349Z</time></trkpt><trkpt lat="44.6366899" lon="11.7109243"><ele>6.0</ele><time>2026-04-22T10:44:23.345Z</time></trkpt><trkpt lat="44.6366733" lon="11.7108311"><ele>6.0</ele><time>2026-04-22T10:44:24.354Z</time></trkpt><trkpt lat="44.6366575" lon="11.7107367"><ele>5.999999999999999</ele><time>2026-04-22T10:44:25.351Z</time></trkpt><trkpt lat="44.6366436" lon="11.710641"><ele>6.0</ele><time>2026-04-22T10:44:26.355Z</time></trkpt><trkpt lat="44.6366337" lon="11.7105442"><ele>5.999999999999999</ele><time>2026-04-22T10:44:27.353Z</time></trkpt><trkpt lat="44.6366297" lon="11.7104465"><ele>6.0</ele><time>2026-04-22T10:44:28.343Z</time></trkpt><trkpt lat="44.6366319" lon="11.7103485"><ele>6.0</ele><time>2026-04-22T10:44:29.348Z</time></trkpt><trkpt lat="44.6366397" lon="11.7102505"><ele>6.0</ele><time>2026-04-22T10:44:30.356Z</time></trkpt><trkpt lat="44.6366517" lon="11.7101542"><ele>6.0</ele><time>2026-04-22T10:44:31.361Z</time></trkpt><trkpt lat="44.6366692" lon="11.71006"><ele>5.999999999999999</ele><time>2026-04-22T10:44:32.344Z</time></trkpt><trkpt lat="44.6366919" lon="11.7099682"><ele>6.0</ele><time>2026-04-22T10:44:33.354Z</time></trkpt><trkpt lat="44.6367187" lon="11.7098789"><ele>6.142857142857142</ele><time>2026-04-22T10:44:34.349Z</time></trkpt><trkpt lat="44.6367507" lon="11.7097931"><ele>6.285714285714286</ele><time>2026-04-22T10:44:35.351Z</time></trkpt><trkpt lat="44.6367866" lon="11.7097113"><ele>6.428571428571429</ele><time>2026-04-22T10:44:36.339Z</time></trkpt><trkpt lat="44.6368268" lon="11.7096325"><ele>6.571428571428571</ele><time>2026-04-22T10:44:37.353Z</time></trkpt><trkpt lat="44.636871" lon="11.7095591"><ele>6.714285714285714</ele><time>2026-04-22T10:44:38.344Z</time></trkpt><trkpt lat="44.6369207" lon="11.7094922"><ele>6.857142857142857</ele><time>2026-04-22T10:44:39.348Z</time></trkpt><trkpt lat="44.6369743" lon="11.7094325"><ele>7.0</ele><time>2026-04-22T10:44:40.352Z</time></trkpt><trkpt lat="44.6370315" lon="11.709379"><ele>7.142857142857142</ele><time>2026-04-22T10:44:41.353Z</time></trkpt><trkpt lat="44.6370902" lon="11.7093323"><ele>7.285714285714286</ele><time>2026-04-22T10:44:42.348Z</time></trkpt><trkpt lat="44.6371491" lon="11.7092876"><ele>7.428571428571429</ele><time>2026-04-22T10:44:43.35Z</time></trkpt><trkpt lat="44.6372081" lon="11.7092429"><ele>7.571428571428571</ele><time>2026-04-22T10:44:44.357Z</time></trkpt><trkpt lat="44.6372652" lon="11.7091949"><ele>7.7142857142857135</ele><time>2026-04-22T10:44:45.357Z</time></trkpt><trkpt lat="44.6373207" lon="11.7091449"><ele>7.857142857142857</ele><time>2026-04-22T10:44:46.35Z</time></trkpt><trkpt lat="44.6373747" lon="11.7090925"><ele>8.0</ele><time>2026-04-22T10:44:47.358Z</time></trkpt><trkpt lat="44.6374262" lon="11.7090362"><ele>8.0</ele><time>2026-04-22T10:44:48.354Z</time></trkpt><trkpt lat="44.6374762" lon="11.7089756"><ele>7.999999999999999</ele><time>2026-04-22T10:44:49.351Z</time></trkpt><trkpt lat="44.6375227" lon="11.7089113"><ele>8.0</ele><time>2026-04-22T10:44:50.363Z</time></trkpt><trkpt lat="44.6375652" lon="11.7088418"><ele>8.0</ele><time>2026-04-22T10:44:51.351Z</time></trkpt><trkpt lat="44.6376039" lon="11.7087673"><ele>7.999999999999999</ele><time>2026-04-22T10:44:52.352Z</time></trkpt><trkpt lat="44.6376391" lon="11.7086886"><ele>8.0</ele><time>2026-04-22T10:44:53.345Z</time></trkpt><trkpt lat="44.6376703" lon="11.7086055"><ele>8.0</ele><time>2026-04-22T10:44:54.351Z</time></trkpt><trkpt lat="44.6376967" lon="11.7085198"><ele>8.285714285714285</ele><time>2026-04-22T10:44:55.343Z</time></trkpt><trkpt lat="44.6377173" lon="11.7084316"><ele>8.571428571428571</ele><time>2026-04-22T10:44:56.348Z</time></trkpt><trkpt lat="44.6377339" lon="11.7083417"><ele>8.857142857142858</ele><time>2026-04-22T10:44:57.347Z</time></trkpt><trkpt lat="44.6377458" lon="11.7082504"><ele>9.142857142857142</ele><time>2026-04-22T10:44:58.361Z</time></trkpt><trkpt lat="44.6377524" lon="11.7081587"><ele>9.428571428571429</ele><time>2026-04-22T10:44:59.348Z</time></trkpt><trkpt lat="44.6377518" lon="11.7080667"><ele>9.714285714285714</ele><time>2026-04-22T10:45:00.354Z</time></trkpt><trkpt lat="44.6377445" lon="11.707975"><ele>10.0</ele><time>2026-04-22T10:45:01.345Z</time></trkpt><trkpt lat="44.6377292" lon="11.7078849"><ele>10.0</ele><time>2026-04-22T10:45:02.355Z</time></trkpt><trkpt lat="44.6377051" lon="11.7077986"><ele>10.0</ele><time>2026-04-22T10:45:03.355Z</time></trkpt><trkpt lat="44.6376709" lon="11.7077188"><ele>10.0</ele><time>2026-04-22T10:45:04.35Z</time></trkpt><trkpt lat="44.6376274" lon="11.7076487"><ele>10.0</ele><time>2026-04-22T10:45:05.348Z</time></trkpt><trkpt lat="44.6375759" lon="11.7075894"><ele>10.0</ele><time>2026-04-22T10:45:06.353Z</time></trkpt><trkpt lat="44.6375182" lon="11.7075441"><ele>10.0</ele><time>2026-04-22T10:45:07.349Z</time></trkpt><trkpt lat="44.6374572" lon="11.7075101"><ele>10.0</ele><time>2026-04-22T10:45:08.361Z</time></trkpt><trkpt lat="44.6373946" lon="11.7074842"><ele>9.857142857142858</ele><time>2026-04-22T10:45:09.357Z</time></trkpt><trkpt lat="44.6373307" lon="11.7074648"><ele>9.714285714285715</ele><time>2026-04-22T10:45:10.358Z</time></trkpt><trkpt lat="44.6372665" lon="11.7074453"><ele>9.571428571428573</ele><time>2026-04-22T10:45:11.345Z</time></trkpt><trkpt lat="44.6372043" lon="11.7074154"><ele>9.428571428571429</ele><time>2026-04-22T10:45:12.361Z</time></trkpt><trkpt lat="44.6371471" lon="11.7073691"><ele>9.285714285714286</ele><time>2026-04-22T10:45:13.347Z</time></trkpt><trkpt lat="44.6370959" lon="11.7073104"><ele>9.142857142857144</ele><time>2026-04-22T10:45:14.356Z</time></trkpt><trkpt lat="44.6370514" lon="11.7072406"><ele>9.0</ele><time>2026-04-22T10:45:15.339Z</time></trkpt><trkpt lat="44.6370146" lon="11.7071632"><ele>9.000000000000002</ele><time>2026-04-22T10:45:16.358Z</time></trkpt><trkpt lat="44.6369846" lon="11.7070792"><ele>9.0</ele><time>2026-04-22T10:45:17.359Z</time></trkpt><trkpt lat="44.6369612" lon="11.7069913"><ele>9.0</ele><time>2026-04-22T10:45:18.358Z</time></trkpt><trkpt lat="44.6369429" lon="11.7069007"><ele>9.0</ele><time>2026-04-22T10:45:19.354Z</time></trkpt><trkpt lat="44.6369307" lon="11.7068082"><ele>9.0</ele><time>2026-04-22T10:45:20.36Z</time></trkpt><trkpt lat="44.6369235" lon="11.706715"><ele>9.000000000000002</ele><time>2026-04-22T10:45:21.35Z</time></trkpt><trkpt lat="44.6369213" lon="11.7066208"><ele>9.0</ele><time>2026-04-22T10:45:22.356Z</time></trkpt><trkpt lat="44.6369233" lon="11.7065258"><ele>8.714285714285715</ele><time>2026-04-22T10:45:23.362Z</time></trkpt><trkpt lat="44.6369294" lon="11.7064311"><ele>8.428571428571429</ele><time>2026-04-22T10:45:24.345Z</time></trkpt><trkpt lat="44.6369398" lon="11.706337"><ele>8.142857142857142</ele><time>2026-04-22T10:45:25.357Z</time></trkpt><trkpt lat="44.6369534" lon="11.7062445"><ele>7.857142857142858</ele><time>2026-04-22T10:45:26.345Z</time></trkpt><trkpt lat="44.6369688" lon="11.7061519"><ele>7.571428571428571</ele><time>2026-04-22T10:45:27.347Z</time></trkpt><trkpt lat="44.6369857" lon="11.7060604"><ele>7.285714285714286</ele><time>2026-04-22T10:45:28.352Z</time></trkpt><trkpt lat="44.6370043" lon="11.7059695"><ele>7.0</ele><time>2026-04-22T10:45:29.352Z</time></trkpt><trkpt lat="44.6370258" lon="11.7058796"><ele>6.714285714285714</ele><time>2026-04-22T10:45:30.344Z</time></trkpt><trkpt lat="44.6370497" lon="11.7057902"><ele>6.428571428571429</ele><time>2026-04-22T10:45:31.359Z</time></trkpt><trkpt lat="44.6370747" lon="11.7057015"><ele>6.142857142857142</ele><time>2026-04-22T10:45:32.354Z</time></trkpt><trkpt lat="44.6371008" lon="11.7056134"><ele>5.857142857142858</ele><time>2026-04-22T10:45:33.347Z</time></trkpt><trkpt lat="44.6371275" lon="11.7055263"><ele>5.571428571428571</ele><time>2026-04-22T10:45:34.349Z</time></trkpt><trkpt lat="44.6371544" lon="11.7054386"><ele>5.285714285714286</ele><time>2026-04-22T10:45:35.36Z</time></trkpt><trkpt lat="44.6371816" lon="11.7053515"><ele>5.0</ele><time>2026-04-22T10:45:36.35Z</time></trkpt><trkpt lat="44.6372083" lon="11.7052647"><ele>5.285714285714286</ele><time>2026-04-22T10:45:37.353Z</time></trkpt><trkpt lat="44.6372346" lon="11.7051781"><ele>5.571428571428571</ele><time>2026-04-22T10:45:38.359Z</time></trkpt><trkpt lat="44.6372593" lon="11.7050904"><ele>5.857142857142858</ele><time>2026-04-22T10:45:39.351Z</time></trkpt><trkpt lat="44.6372826" lon="11.7050033"><ele>6.142857142857142</ele><time>2026-04-22T10:45:40.353Z</time></trkpt><trkpt lat="44.6373024" lon="11.7049145"><ele>6.428571428571429</ele><time>2026-04-22T10:45:41.353Z</time></trkpt><trkpt lat="44.6373209" lon="11.7048246"><ele>6.714285714285714</ele><time>2026-04-22T10:45:42.354Z</time></trkpt><trkpt lat="44.6373374" lon="11.7047333"><ele>7.0</ele><time>2026-04-22T10:45:43.352Z</time></trkpt><trkpt lat="44.637351" lon="11.7046417"><ele>7.0</ele><time>2026-04-22T10:45:44.351Z</time></trkpt><trkpt lat="44.6373628" lon="11.7045502"><ele>7.0</ele><time>2026-04-22T10:45:45.352Z</time></trkpt><trkpt lat="44.6373734" lon="11.7044583"><ele>7.0</ele><time>2026-04-22T10:45:46.347Z</time></trkpt><trkpt lat="44.6373822" lon="11.704366"><ele>7.0</ele><time>2026-04-22T10:45:47.352Z</time></trkpt><trkpt lat="44.6373914" lon="11.7042735"><ele>7.0</ele><time>2026-04-22T10:45:48.36Z</time></trkpt><trkpt lat="44.6374015" lon="11.7041821"><ele>7.0</ele><time>2026-04-22T10:45:49.355Z</time></trkpt><trkpt lat="44.6374119" lon="11.7040902"><ele>7.0</ele><time>2026-04-22T10:45:50.357Z</time></trkpt><trkpt lat="44.637422" lon="11.7039976"><ele>7.0</ele><time>2026-04-22T10:45:51.359Z</time></trkpt><trkpt lat="44.6374322" lon="11.7039042"><ele>7.0</ele><time>2026-04-22T10:45:52.356Z</time></trkpt><trkpt lat="44.6374421" lon="11.7038109"><ele>7.0</ele><time>2026-04-22T10:45:53.356Z</time></trkpt><trkpt lat="44.6374525" lon="11.7037169"><ele>7.0</ele><time>2026-04-22T10:45:54.351Z</time></trkpt><trkpt lat="44.6374624" lon="11.703623"><ele>7.0</ele><time>2026-04-22T10:45:55.347Z</time></trkpt><trkpt lat="44.6374716" lon="11.7035288"><ele>7.0</ele><time>2026-04-22T10:45:56.348Z</time></trkpt><trkpt lat="44.637482" lon="11.7034349"><ele>7.0</ele><time>2026-04-22T10:45:57.355Z</time></trkpt><trkpt lat="44.6374926" lon="11.7033408"><ele>7.142857142857142</ele><time>2026-04-22T10:45:58.36Z</time></trkpt><trkpt lat="44.6375018" lon="11.7032471"><ele>7.285714285714286</ele><time>2026-04-22T10:45:59.358Z</time></trkpt><trkpt lat="44.637511" lon="11.7031532"><ele>7.428571428571429</ele><time>2026-04-22T10:46:00.351Z</time></trkpt><trkpt lat="44.6375194" lon="11.7030598"><ele>7.571428571428571</ele><time>2026-04-22T10:46:01.346Z</time></trkpt><trkpt lat="44.6375275" lon="11.7029667"><ele>7.7142857142857135</ele><time>2026-04-22T10:46:02.354Z</time></trkpt><trkpt lat="44.6375355" lon="11.7028733"><ele>7.857142857142857</ele><time>2026-04-22T10:46:03.354Z</time></trkpt><trkpt lat="44.6375442" lon="11.7027802"><ele>8.0</ele><time>2026-04-22T10:46:04.355Z</time></trkpt><trkpt lat="44.6375542" lon="11.7026881"><ele>8.142857142857142</ele><time>2026-04-22T10:46:05.346Z</time></trkpt><trkpt lat="44.6375639" lon="11.7025967"><ele>8.285714285714285</ele><time>2026-04-22T10:46:06.358Z</time></trkpt><trkpt lat="44.6375721" lon="11.7025045"><ele>8.428571428571429</ele><time>2026-04-22T10:46:07.329Z</time></trkpt><trkpt lat="44.6375813" lon="11.702412"><ele>8.571428571428571</ele><time>2026-04-22T10:46:08.344Z</time></trkpt><trkpt lat="44.6375908" lon="11.7023194"><ele>8.714285714285715</ele><time>2026-04-22T10:46:09.349Z</time></trkpt><trkpt lat="44.6376008" lon="11.7022264"><ele>8.857142857142858</ele><time>2026-04-22T10:46:10.352Z</time></trkpt><trkpt lat="44.63761" lon="11.7021328"><ele>9.0</ele><time>2026-04-22T10:46:11.346Z</time></trkpt><trkpt lat="44.6376185" lon="11.7020389"><ele>9.000000000000002</ele><time>2026-04-22T10:46:12.355Z</time></trkpt><trkpt lat="44.6376274" lon="11.7019456"><ele>9.0</ele><time>2026-04-22T10:46:13.352Z</time></trkpt><trkpt lat="44.6376359" lon="11.7018515"><ele>9.0</ele><time>2026-04-22T10:46:14.35Z</time></trkpt><trkpt lat="44.6376432" lon="11.7017572"><ele>9.0</ele><time>2026-04-22T10:46:15.349Z</time></trkpt><trkpt lat="44.6376512" lon="11.7016625"><ele>9.0</ele><time>2026-04-22T10:46:16.352Z</time></trkpt><trkpt lat="44.6376598" lon="11.7015689"><ele>9.000000000000002</ele><time>2026-04-22T10:46:17.345Z</time></trkpt><trkpt lat="44.6376695" lon="11.701476"><ele>9.0</ele><time>2026-04-22T10:46:18.348Z</time></trkpt><trkpt lat="44.6376788" lon="11.7013828"><ele>9.000000000000002</ele><time>2026-04-22T10:46:19.34Z</time></trkpt><trkpt lat="44.637687" lon="11.7012887"><ele>9.0</ele><time>2026-04-22T10:46:20.35Z</time></trkpt><trkpt lat="44.6376948" lon="11.7011953"><ele>9.0</ele><time>2026-04-22T10:46:21.346Z</time></trkpt><trkpt lat="44.6377018" lon="11.7011014"><ele>9.0</ele><time>2026-04-22T10:46:22.351Z</time></trkpt><trkpt lat="44.6377089" lon="11.7010078"><ele>9.0</ele><time>2026-04-22T10:46:23.351Z</time></trkpt><trkpt lat="44.6377165" lon="11.7009143"><ele>9.000000000000002</ele><time>2026-04-22T10:46:24.347Z</time></trkpt><trkpt lat="44.6377251" lon="11.7008222"><ele>9.0</ele><time>2026-04-22T10:46:25.345Z</time></trkpt><trkpt lat="44.6377339" lon="11.7007307"><ele>8.714285714285715</ele><time>2026-04-22T10:46:26.356Z</time></trkpt><trkpt lat="44.637742" lon="11.700639"><ele>8.428571428571429</ele><time>2026-04-22T10:46:27.346Z</time></trkpt><trkpt lat="44.6377485" lon="11.7005465"><ele>8.142857142857142</ele><time>2026-04-22T10:46:28.347Z</time></trkpt><trkpt lat="44.6377544" lon="11.7004544"><ele>7.857142857142858</ele><time>2026-04-22T10:46:29.358Z</time></trkpt><trkpt lat="44.6377612" lon="11.7003626"><ele>7.571428571428571</ele><time>2026-04-22T10:46:30.353Z</time></trkpt><trkpt lat="44.6377687" lon="11.7002708"><ele>7.285714285714286</ele><time>2026-04-22T10:46:31.359Z</time></trkpt><trkpt lat="44.6377755" lon="11.7001793"><ele>7.0</ele><time>2026-04-22T10:46:32.353Z</time></trkpt><trkpt lat="44.6377811" lon="11.7000874"><ele>7.0</ele><time>2026-04-22T10:46:33.352Z</time></trkpt><trkpt lat="44.6377864" lon="11.6999963"><ele>7.0</ele><time>2026-04-22T10:46:34.355Z</time></trkpt><trkpt lat="44.6377911" lon="11.6999049"><ele>7.0</ele><time>2026-04-22T10:46:35.356Z</time></trkpt><trkpt lat="44.637795" lon="11.6998134"><ele>7.0</ele><time>2026-04-22T10:46:36.35Z</time></trkpt><trkpt lat="44.6377989" lon="11.6997215"><ele>7.0</ele><time>2026-04-22T10:46:37.352Z</time></trkpt><trkpt lat="44.6378041" lon="11.6996294"><ele>7.0</ele><time>2026-04-22T10:46:38.357Z</time></trkpt><trkpt lat="44.6378084" lon="11.6995375"><ele>7.0</ele><time>2026-04-22T10:46:39.358Z</time></trkpt><trkpt lat="44.6378128" lon="11.6994454"><ele>7.428571428571429</ele><time>2026-04-22T10:46:40.344Z</time></trkpt><trkpt lat="44.6378151" lon="11.6993533"><ele>7.857142857142858</ele><time>2026-04-22T10:46:41.334Z</time></trkpt><trkpt lat="44.6378149" lon="11.6992615"><ele>8.285714285714285</ele><time>2026-04-22T10:46:42.356Z</time></trkpt><trkpt lat="44.6378148" lon="11.6991705"><ele>8.714285714285715</ele><time>2026-04-22T10:46:43.349Z</time></trkpt><trkpt lat="44.6378153" lon="11.69908"><ele>9.142857142857142</ele><time>2026-04-22T10:46:44.352Z</time></trkpt><trkpt lat="44.6378167" lon="11.6989896"><ele>9.571428571428571</ele><time>2026-04-22T10:46:45.356Z</time></trkpt><trkpt lat="44.6378171" lon="11.6988997"><ele>10.0</ele><time>2026-04-22T10:46:46.346Z</time></trkpt><trkpt lat="44.6378163" lon="11.6988087"><ele>10.0</ele><time>2026-04-22T10:46:47.347Z</time></trkpt><trkpt lat="44.6378143" lon="11.6987183"><ele>10.0</ele><time>2026-04-22T10:46:48.36Z</time></trkpt><trkpt lat="44.6378115" lon="11.6986279"><ele>10.0</ele><time>2026-04-22T10:46:49.362Z</time></trkpt><trkpt lat="44.6378092" lon="11.6985378"><ele>10.0</ele><time>2026-04-22T10:46:50.368Z</time></trkpt><trkpt lat="44.6378075" lon="11.6984475"><ele>10.0</ele><time>2026-04-22T10:46:51.351Z</time></trkpt><trkpt lat="44.6378054" lon="11.6983564"><ele>10.0</ele><time>2026-04-22T10:46:52.349Z</time></trkpt><trkpt lat="44.6378035" lon="11.6982651"><ele>10.0</ele><time>2026-04-22T10:46:53.343Z</time></trkpt><trkpt lat="44.6378039" lon="11.6981743"><ele>9.857142857142858</ele><time>2026-04-22T10:46:54.35Z</time></trkpt><trkpt lat="44.637807" lon="11.6980829"><ele>9.714285714285715</ele><time>2026-04-22T10:46:55.352Z</time></trkpt><trkpt lat="44.6378165" lon="11.697992"><ele>9.571428571428573</ele><time>2026-04-22T10:46:56.346Z</time></trkpt><trkpt lat="44.6378339" lon="11.6979021"><ele>9.428571428571429</ele><time>2026-04-22T10:46:57.347Z</time></trkpt><trkpt lat="44.6378589" lon="11.6978156"><ele>9.285714285714286</ele><time>2026-04-22T10:46:58.349Z</time></trkpt><trkpt lat="44.6378911" lon="11.6977345"><ele>9.142857142857144</ele><time>2026-04-22T10:46:59.348Z</time></trkpt><trkpt lat="44.63793" lon="11.6976614"><ele>9.0</ele><time>2026-04-22T10:47:00.347Z</time></trkpt><trkpt lat="44.6379737" lon="11.6975934"><ele>8.857142857142858</ele><time>2026-04-22T10:47:01.354Z</time></trkpt><trkpt lat="44.6380201" lon="11.6975292"><ele>8.714285714285715</ele><time>2026-04-22T10:47:02.35Z</time></trkpt><trkpt lat="44.6380672" lon="11.6974664"><ele>8.571428571428571</ele><time>2026-04-22T10:47:03.347Z</time></trkpt><trkpt lat="44.6381128" lon="11.6974016"><ele>8.428571428571429</ele><time>2026-04-22T10:47:04.355Z</time></trkpt><trkpt lat="44.6381549" lon="11.6973339"><ele>8.285714285714285</ele><time>2026-04-22T10:47:05.348Z</time></trkpt><trkpt lat="44.6381945" lon="11.697263"><ele>8.142857142857142</ele><time>2026-04-22T10:47:06.348Z</time></trkpt><trkpt lat="44.6382318" lon="11.6971892"><ele>8.0</ele><time>2026-04-22T10:47:07.361Z</time></trkpt><trkpt lat="44.6382674" lon="11.6971144"><ele>8.0</ele><time>2026-04-22T10:47:08.346Z</time></trkpt><trkpt lat="44.638303" lon="11.6970381"><ele>7.999999999999999</ele><time>2026-04-22T10:47:09.352Z</time></trkpt><trkpt lat="44.6383393" lon="11.696961"><ele>8.0</ele><time>2026-04-22T10:47:10.348Z</time></trkpt><trkpt lat="44.6383781" lon="11.6968851"><ele>8.0</ele><time>2026-04-22T10:47:11.362Z</time></trkpt><trkpt lat="44.6384215" lon="11.6968144"><ele>7.999999999999999</ele><time>2026-04-22T10:47:12.35Z</time></trkpt><trkpt lat="44.6384675" lon="11.6967472"><ele>8.0</ele><time>2026-04-22T10:47:13.35Z</time></trkpt><trkpt lat="44.6385136" lon="11.6966807"><ele>8.0</ele><time>2026-04-22T10:47:14.348Z</time></trkpt><trkpt lat="44.6385602" lon="11.6966158"><ele>8.375</ele><time>2026-04-22T10:47:15.35Z</time></trkpt><trkpt lat="44.6386058" lon="11.6965508"><ele>8.75</ele><time>2026-04-22T10:47:16.352Z</time></trkpt><trkpt lat="44.638646" lon="11.6964794"><ele>9.125</ele><time>2026-04-22T10:47:17.348Z</time></trkpt><trkpt lat="44.638676" lon="11.6963991"><ele>9.5</ele><time>2026-04-22T10:47:18.347Z</time></trkpt><trkpt lat="44.6386954" lon="11.6963139"><ele>9.875</ele><time>2026-04-22T10:47:19.353Z</time></trkpt><trkpt lat="44.6387065" lon="11.6962262"><ele>10.25</ele><time>2026-04-22T10:47:20.346Z</time></trkpt><trkpt lat="44.6387121" lon="11.6961371"><ele>10.625</ele><time>2026-04-22T10:47:21.35Z</time></trkpt><trkpt lat="44.6387144" lon="11.6960467"><ele>11.0</ele><time>2026-04-22T10:47:22.353Z</time></trkpt><trkpt lat="44.6387149" lon="11.6959554"><ele>10.0</ele><time>2026-04-22T10:47:23.358Z</time></trkpt><trkpt lat="44.6387114" lon="11.6958643"><ele>9.0</ele><time>2026-04-22T10:47:24.349Z</time></trkpt><trkpt lat="44.6387071" lon="11.6957723"><ele>8.0</ele><time>2026-04-22T10:47:25.352Z</time></trkpt><trkpt lat="44.6387019" lon="11.6956809"><ele>7.0</ele><time>2026-04-22T10:47:26.351Z</time></trkpt><trkpt lat="44.638697" lon="11.6955903"><ele>6.0</ele><time>2026-04-22T10:47:27.354Z</time></trkpt><trkpt lat="44.6386914" lon="11.6954997"><ele>5.0</ele><time>2026-04-22T10:47:28.348Z</time></trkpt><trkpt lat="44.6386856" lon="11.6954091"><ele>4.0</ele><time>2026-04-22T10:47:29.351Z</time></trkpt><trkpt lat="44.6386803" lon="11.695318"><ele>4.0</ele><time>2026-04-22T10:47:30.356Z</time></trkpt><trkpt lat="44.6386741" lon="11.695228"><ele>3.9999999999999996</ele><time>2026-04-22T10:47:31.356Z</time></trkpt><trkpt lat="44.6386689" lon="11.6951362"><ele>4.0</ele><time>2026-04-22T10:47:32.347Z</time></trkpt><trkpt lat="44.6386631" lon="11.6950437"><ele>4.0</ele><time>2026-04-22T10:47:33.359Z</time></trkpt><trkpt lat="44.6386576" lon="11.6949512"><ele>3.9999999999999996</ele><time>2026-04-22T10:47:34.347Z</time></trkpt><trkpt lat="44.6386524" lon="11.6948584"><ele>4.0</ele><time>2026-04-22T10:47:35.343Z</time></trkpt><trkpt lat="44.6386467" lon="11.6947668"><ele>4.0</ele><time>2026-04-22T10:47:36.349Z</time></trkpt><trkpt lat="44.6386398" lon="11.6946749"><ele>4.857142857142857</ele><time>2026-04-22T10:47:37.344Z</time></trkpt><trkpt lat="44.6386341" lon="11.6945821"><ele>5.7142857142857135</ele><time>2026-04-22T10:47:38.351Z</time></trkpt><trkpt lat="44.6386282" lon="11.6944885"><ele>6.571428571428571</ele><time>2026-04-22T10:47:39.34Z</time></trkpt><trkpt lat="44.6386225" lon="11.6943958"><ele>7.428571428571429</ele><time>2026-04-22T10:47:40.349Z</time></trkpt><trkpt lat="44.6386166" lon="11.6943039"><ele>8.285714285714286</ele><time>2026-04-22T10:47:41.354Z</time></trkpt><trkpt lat="44.6386093" lon="11.6942129"><ele>9.142857142857142</ele><time>2026-04-22T10:47:42.349Z</time></trkpt><trkpt lat="44.6386021" lon="11.6941219"><ele>10.0</ele><time>2026-04-22T10:47:43.357Z</time></trkpt><trkpt lat="44.6385949" lon="11.6940316"><ele>10.0</ele><time>2026-04-22T10:47:44.356Z</time></trkpt><trkpt lat="44.6385894" lon="11.6939407"><ele>10.0</ele><time>2026-04-22T10:47:45.346Z</time></trkpt><trkpt lat="44.6385835" lon="11.6938494"><ele>10.0</ele><time>2026-04-22T10:47:46.346Z</time></trkpt><trkpt lat="44.6385773" lon="11.6937586"><ele>10.0</ele><time>2026-04-22T10:47:47.345Z</time></trkpt><trkpt lat="44.6385704" lon="11.693668"><ele>10.0</ele><time>2026-04-22T10:47:48.344Z</time></trkpt><trkpt lat="44.6385626" lon="11.6935798"><ele>10.0</ele><time>2026-04-22T10:47:49.354Z</time></trkpt><trkpt lat="44.6385485" lon="11.6934103"><ele>10.0</ele><time>2026-04-22T10:47:51.358Z</time></trkpt><trkpt lat="44.638535" lon="11.6932504"><ele>10.0</ele><time>2026-04-22T10:47:53.346Z</time></trkpt><trkpt lat="44.6385238" lon="11.6930961"><ele>10.0</ele><time>2026-04-22T10:47:55.338Z</time></trkpt><trkpt lat="44.6385107" lon="11.692946"><ele>10.0</ele><time>2026-04-22T10:47:57.339Z</time></trkpt><trkpt lat="44.6385132" lon="11.6928006"><ele>10.0</ele><time>2026-04-22T10:47:59.343Z</time></trkpt><trkpt lat="44.6385446" lon="11.6926791"><ele>10.0</ele><time>2026-04-22T10:48:01.344Z</time></trkpt><trkpt lat="44.638575" lon="11.6925581"><ele>10.166666666666668</ele><time>2026-04-22T10:48:03.351Z</time></trkpt><trkpt lat="44.638607" lon="11.692414"><ele>10.333333333333334</ele><time>2026-04-22T10:48:05.346Z</time></trkpt><trkpt lat="44.6386388" lon="11.6922424"><ele>10.5</ele><time>2026-04-22T10:48:07.345Z</time></trkpt><trkpt lat="44.6386555" lon="11.6921503"><ele>10.666666666666666</ele><time>2026-04-22T10:48:08.347Z</time></trkpt><trkpt lat="44.6386709" lon="11.6920544"><ele>10.833333333333332</ele><time>2026-04-22T10:48:09.354Z</time></trkpt><trkpt lat="44.6386855" lon="11.6919543"><ele>11.0</ele><time>2026-04-22T10:48:10.349Z</time></trkpt><trkpt lat="44.6387001" lon="11.6918504"><ele>9.666666666666666</ele><time>2026-04-22T10:48:11.349Z</time></trkpt><trkpt lat="44.6387149" lon="11.6917436"><ele>8.333333333333332</ele><time>2026-04-22T10:48:12.354Z</time></trkpt><trkpt lat="44.6387288" lon="11.6916339"><ele>7.0</ele><time>2026-04-22T10:48:13.35Z</time></trkpt><trkpt lat="44.6387405" lon="11.6915231"><ele>5.666666666666666</ele><time>2026-04-22T10:48:14.342Z</time></trkpt><trkpt lat="44.6387522" lon="11.6914111"><ele>4.333333333333333</ele><time>2026-04-22T10:48:15.357Z</time></trkpt><trkpt lat="44.6387634" lon="11.6913056"><ele>3.0</ele><time>2026-04-22T10:48:16.355Z</time></trkpt><trkpt lat="44.6387725" lon="11.6912105"><ele>3.2</ele><time>2026-04-22T10:48:17.349Z</time></trkpt><trkpt lat="44.638776" lon="11.6910392"><ele>3.4</ele><time>2026-04-22T10:48:19.352Z</time></trkpt><trkpt lat="44.6387236" lon="11.6908772"><ele>3.6000000000000005</ele><time>2026-04-22T10:48:21.353Z</time></trkpt><trkpt lat="44.6386816" lon="11.6908023"><ele>3.8000000000000003</ele><time>2026-04-22T10:48:22.351Z</time></trkpt><trkpt lat="44.638637" lon="11.6907272"><ele>4.0</ele><time>2026-04-22T10:48:23.348Z</time></trkpt><trkpt lat="44.6385917" lon="11.6906509"><ele>4.285714285714286</ele><time>2026-04-22T10:48:24.347Z</time></trkpt><trkpt lat="44.6385466" lon="11.6905725"><ele>4.571428571428571</ele><time>2026-04-22T10:48:25.355Z</time></trkpt><trkpt lat="44.6385004" lon="11.690494"><ele>4.857142857142857</ele><time>2026-04-22T10:48:26.351Z</time></trkpt><trkpt lat="44.6384548" lon="11.690415"><ele>5.142857142857142</ele><time>2026-04-22T10:48:27.343Z</time></trkpt><trkpt lat="44.6384099" lon="11.690335"><ele>5.428571428571429</ele><time>2026-04-22T10:48:28.353Z</time></trkpt><trkpt lat="44.638364" lon="11.6902563"><ele>5.7142857142857135</ele><time>2026-04-22T10:48:29.352Z</time></trkpt><trkpt lat="44.6383189" lon="11.6901773"><ele>6.0</ele><time>2026-04-22T10:48:30.351Z</time></trkpt><trkpt lat="44.6382736" lon="11.6900977"><ele>5.999999999999999</ele><time>2026-04-22T10:48:31.355Z</time></trkpt><trkpt lat="44.6382287" lon="11.6900167"><ele>6.0</ele><time>2026-04-22T10:48:32.354Z</time></trkpt><trkpt lat="44.6381835" lon="11.6899356"><ele>6.0</ele><time>2026-04-22T10:48:33.362Z</time></trkpt><trkpt lat="44.6381382" lon="11.6898535"><ele>6.0</ele><time>2026-04-22T10:48:34.349Z</time></trkpt><trkpt lat="44.638095" lon="11.6897692"><ele>6.0</ele><time>2026-04-22T10:48:35.355Z</time></trkpt><trkpt lat="44.6380581" lon="11.6896781"><ele>5.999999999999999</ele><time>2026-04-22T10:48:36.351Z</time></trkpt><trkpt lat="44.6380319" lon="11.6895789"><ele>6.0</ele><time>2026-04-22T10:48:37.346Z</time></trkpt><trkpt lat="44.6380162" lon="11.6894741"><ele>6.142857142857142</ele><time>2026-04-22T10:48:38.351Z</time></trkpt><trkpt lat="44.6380144" lon="11.6893677"><ele>6.285714285714286</ele><time>2026-04-22T10:48:39.359Z</time></trkpt><trkpt lat="44.6380229" lon="11.6892634"><ele>6.428571428571429</ele><time>2026-04-22T10:48:40.356Z</time></trkpt><trkpt lat="44.6380339" lon="11.6891612"><ele>6.571428571428571</ele><time>2026-04-22T10:48:41.348Z</time></trkpt><trkpt lat="44.6380475" lon="11.6890615"><ele>6.714285714285714</ele><time>2026-04-22T10:48:42.354Z</time></trkpt><trkpt lat="44.6380632" lon="11.6889639"><ele>6.857142857142857</ele><time>2026-04-22T10:48:43.352Z</time></trkpt><trkpt lat="44.6380812" lon="11.6888697"><ele>7.0</ele><time>2026-04-22T10:48:44.353Z</time></trkpt><trkpt lat="44.6381015" lon="11.6887801"><ele>7.000000000000001</ele><time>2026-04-22T10:48:45.354Z</time></trkpt><trkpt lat="44.6381213" lon="11.688693"><ele>7.0</ele><time>2026-04-22T10:48:46.356Z</time></trkpt><trkpt lat="44.6381408" lon="11.6886072"><ele>7.0</ele><time>2026-04-22T10:48:47.359Z</time></trkpt><trkpt lat="44.6381617" lon="11.6885235"><ele>7.0</ele><time>2026-04-22T10:48:48.351Z</time></trkpt><trkpt lat="44.638199" lon="11.6883597"><ele>7.000000000000001</ele><time>2026-04-22T10:48:50.35Z</time></trkpt><trkpt lat="44.6382366" lon="11.6881991"><ele>7.0</ele><time>2026-04-22T10:48:52.344Z</time></trkpt><trkpt lat="44.6382728" lon="11.6880413"><ele>7.0</ele><time>2026-04-22T10:48:54.339Z</time></trkpt><trkpt lat="44.6383111" lon="11.6878885"><ele>6.999999999999999</ele><time>2026-04-22T10:48:56.357Z</time></trkpt><trkpt lat="44.638346" lon="11.68774"><ele>6.999999999999999</ele><time>2026-04-22T10:48:58.351Z</time></trkpt><trkpt lat="44.6383817" lon="11.6875967"><ele>7.0</ele><time>2026-04-22T10:49:00.35Z</time></trkpt><trkpt lat="44.6384143" lon="11.6874513"><ele>7.0</ele><time>2026-04-22T10:49:02.351Z</time></trkpt><trkpt lat="44.6384477" lon="11.6873095"><ele>7.0</ele><time>2026-04-22T10:49:04.35Z</time></trkpt><trkpt lat="44.6384821" lon="11.6871686"><ele>6.999999999999999</ele><time>2026-04-22T10:49:06.353Z</time></trkpt><trkpt lat="44.6385144" lon="11.6870285"><ele>6.999999999999999</ele><time>2026-04-22T10:49:08.332Z</time></trkpt><trkpt lat="44.6385469" lon="11.6868904"><ele>7.0</ele><time>2026-04-22T10:49:10.344Z</time></trkpt><trkpt lat="44.6385796" lon="11.686754"><ele>7.0</ele><time>2026-04-22T10:49:12.348Z</time></trkpt><trkpt lat="44.6386123" lon="11.6866174"><ele>6.6</ele><time>2026-04-22T10:49:14.354Z</time></trkpt><trkpt lat="44.6386442" lon="11.6864823"><ele>6.199999999999999</ele><time>2026-04-22T10:49:16.35Z</time></trkpt><trkpt lat="44.6386744" lon="11.6863462"><ele>5.8</ele><time>2026-04-22T10:49:18.363Z</time></trkpt><trkpt lat="44.6387062" lon="11.6862135"><ele>5.4</ele><time>2026-04-22T10:49:20.344Z</time></trkpt><trkpt lat="44.6387402" lon="11.686083"><ele>5.0</ele><time>2026-04-22T10:49:22.347Z</time></trkpt><trkpt lat="44.6387755" lon="11.6859502"><ele>5.0</ele><time>2026-04-22T10:49:24.346Z</time></trkpt><trkpt lat="44.638815" lon="11.6858208"><ele>5.0</ele><time>2026-04-22T10:49:26.346Z</time></trkpt><trkpt lat="44.6388559" lon="11.6857"><ele>5.0</ele><time>2026-04-22T10:49:28.352Z</time></trkpt><trkpt lat="44.6388966" lon="11.6855815"><ele>5.0</ele><time>2026-04-22T10:49:30.355Z</time></trkpt><trkpt lat="44.6389343" lon="11.6854693"><ele>5.0</ele><time>2026-04-22T10:49:32.352Z</time></trkpt><trkpt lat="44.6389553" lon="11.6853501"><ele>5.0</ele><time>2026-04-22T10:49:34.361Z</time></trkpt><trkpt lat="44.638943" lon="11.685226"><ele>5.0</ele><time>2026-04-22T10:49:36.351Z</time></trkpt><trkpt lat="44.6388884" lon="11.6851182"><ele>5.0</ele><time>2026-04-22T10:49:38.349Z</time></trkpt><trkpt lat="44.638822" lon="11.6850155"><ele>5.0</ele><time>2026-04-22T10:49:40.341Z</time></trkpt><trkpt lat="44.6387515" lon="11.68491"><ele>5.0</ele><time>2026-04-22T10:49:42.347Z</time></trkpt><trkpt lat="44.6386777" lon="11.6847993"><ele>5.6</ele><time>2026-04-22T10:49:44.357Z</time></trkpt><trkpt lat="44.6386034" lon="11.6846887"><ele>6.2</ele><time>2026-04-22T10:49:46.346Z</time></trkpt><trkpt lat="44.6385286" lon="11.6845773"><ele>6.800000000000001</ele><time>2026-04-22T10:49:48.356Z</time></trkpt><trkpt lat="44.6384515" lon="11.6844632"><ele>7.4</ele><time>2026-04-22T10:49:50.349Z</time></trkpt><trkpt lat="44.6383719" lon="11.6843486"><ele>8.0</ele><time>2026-04-22T10:49:52.348Z</time></trkpt><trkpt lat="44.6382938" lon="11.6842378"><ele>8.0</ele><time>2026-04-22T10:49:54.35Z</time></trkpt><trkpt lat="44.6382163" lon="11.6841298"><ele>8.0</ele><time>2026-04-22T10:49:56.346Z</time></trkpt><trkpt lat="44.6381361" lon="11.6840165"><ele>8.0</ele><time>2026-04-22T10:49:58.35Z</time></trkpt><trkpt lat="44.6380502" lon="11.6839085"><ele>8.0</ele><time>2026-04-22T10:50:00.348Z</time></trkpt><trkpt lat="44.6379621" lon="11.6837942"><ele>8.0</ele><time>2026-04-22T10:50:02.351Z</time></trkpt><trkpt lat="44.637921" lon="11.6837264"><ele>7.999999999999999</ele><time>2026-04-22T10:50:03.348Z</time></trkpt><trkpt lat="44.6378761" lon="11.6836575"><ele>8.0</ele><time>2026-04-22T10:50:04.355Z</time></trkpt><trkpt lat="44.6378273" lon="11.6835889"><ele>8.0</ele><time>2026-04-22T10:50:05.347Z</time></trkpt><trkpt lat="44.6377777" lon="11.6835175"><ele>7.999999999999999</ele><time>2026-04-22T10:50:06.341Z</time></trkpt><trkpt lat="44.6377268" lon="11.6834441"><ele>8.0</ele><time>2026-04-22T10:50:07.346Z</time></trkpt><trkpt lat="44.6376742" lon="11.6833703"><ele>8.0</ele><time>2026-04-22T10:50:08.357Z</time></trkpt><trkpt lat="44.6376195" lon="11.6832956"><ele>8.5</ele><time>2026-04-22T10:50:09.34Z</time></trkpt><trkpt lat="44.6375645" lon="11.6832197"><ele>9.0</ele><time>2026-04-22T10:50:10.345Z</time></trkpt><trkpt lat="44.6375088" lon="11.6831406"><ele>9.5</ele><time>2026-04-22T10:50:11.327Z</time></trkpt><trkpt lat="44.637452" lon="11.6830622"><ele>10.0</ele><time>2026-04-22T10:50:12.352Z</time></trkpt><trkpt lat="44.6373962" lon="11.6829825"><ele>10.5</ele><time>2026-04-22T10:50:13.34Z</time></trkpt><trkpt lat="44.6373417" lon="11.6829015"><ele>11.0</ele><time>2026-04-22T10:50:14.351Z</time></trkpt><trkpt lat="44.6372854" lon="11.6828224"><ele>11.0</ele><time>2026-04-22T10:50:15.357Z</time></trkpt><trkpt lat="44.6372288" lon="11.6827439"><ele>11.0</ele><time>2026-04-22T10:50:16.357Z</time></trkpt><trkpt lat="44.6371726" lon="11.6826644"><ele>11.0</ele><time>2026-04-22T10:50:17.342Z</time></trkpt><trkpt lat="44.6371165" lon="11.6825842"><ele>11.0</ele><time>2026-04-22T10:50:18.349Z</time></trkpt><trkpt lat="44.6370594" lon="11.682504"><ele>11.0</ele><time>2026-04-22T10:50:19.346Z</time></trkpt><trkpt lat="44.6370025" lon="11.682423"><ele>11.0</ele><time>2026-04-22T10:50:20.349Z</time></trkpt><trkpt lat="44.6369444" lon="11.6823425"><ele>11.0</ele><time>2026-04-22T10:50:21.347Z</time></trkpt><trkpt lat="44.6368857" lon="11.6822615"><ele>11.0</ele><time>2026-04-22T10:50:22.344Z</time></trkpt><trkpt lat="44.636827" lon="11.6821785"><ele>11.0</ele><time>2026-04-22T10:50:23.344Z</time></trkpt><trkpt lat="44.6367697" lon="11.6820926"><ele>11.0</ele><time>2026-04-22T10:50:24.361Z</time></trkpt><trkpt lat="44.6367114" lon="11.6820073"><ele>11.0</ele><time>2026-04-22T10:50:25.34Z</time></trkpt><trkpt lat="44.6366511" lon="11.6819234"><ele>11.0</ele><time>2026-04-22T10:50:26.35Z</time></trkpt><trkpt lat="44.6365902" lon="11.6818381"><ele>10.833333333333332</ele><time>2026-04-22T10:50:27.351Z</time></trkpt><trkpt lat="44.6365294" lon="11.6817527"><ele>10.666666666666666</ele><time>2026-04-22T10:50:28.355Z</time></trkpt><trkpt lat="44.6364685" lon="11.6816677"><ele>10.5</ele><time>2026-04-22T10:50:29.35Z</time></trkpt><trkpt lat="44.6364135" lon="11.6815737"><ele>10.333333333333334</ele><time>2026-04-22T10:50:30.345Z</time></trkpt><trkpt lat="44.6363612" lon="11.6814767"><ele>10.166666666666668</ele><time>2026-04-22T10:50:31.347Z</time></trkpt><trkpt lat="44.6363077" lon="11.6813803"><ele>10.0</ele><time>2026-04-22T10:50:32.348Z</time></trkpt><trkpt lat="44.6362524" lon="11.6812865"><ele>10.0</ele><time>2026-04-22T10:50:33.359Z</time></trkpt><trkpt lat="44.6361969" lon="11.681193"><ele>10.0</ele><time>2026-04-22T10:50:34.344Z</time></trkpt><trkpt lat="44.6361453" lon="11.681097"><ele>10.0</ele><time>2026-04-22T10:50:35.343Z</time></trkpt><trkpt lat="44.6360943" lon="11.6810021"><ele>10.0</ele><time>2026-04-22T10:50:36.354Z</time></trkpt><trkpt lat="44.6360428" lon="11.6809083"><ele>10.0</ele><time>2026-04-22T10:50:37.348Z</time></trkpt><trkpt lat="44.6359909" lon="11.6808194"><ele>10.0</ele><time>2026-04-22T10:50:38.341Z</time></trkpt><trkpt lat="44.6359386" lon="11.6807266"><ele>9.333333333333334</ele><time>2026-04-22T10:50:39.343Z</time></trkpt><trkpt lat="44.6358864" lon="11.6806363"><ele>8.666666666666668</ele><time>2026-04-22T10:50:40.348Z</time></trkpt><trkpt lat="44.6358349" lon="11.6805441"><ele>8.0</ele><time>2026-04-22T10:50:41.348Z</time></trkpt><trkpt lat="44.6357832" lon="11.6804501"><ele>7.333333333333334</ele><time>2026-04-22T10:50:42.352Z</time></trkpt><trkpt lat="44.635731" lon="11.680356"><ele>6.666666666666667</ele><time>2026-04-22T10:50:43.349Z</time></trkpt><trkpt lat="44.635678" lon="11.6802626"><ele>6.0</ele><time>2026-04-22T10:50:44.356Z</time></trkpt><trkpt lat="44.6356231" lon="11.6801696"><ele>5.8</ele><time>2026-04-22T10:50:45.354Z</time></trkpt><trkpt lat="44.6355678" lon="11.6800748"><ele>5.6</ele><time>2026-04-22T10:50:46.346Z</time></trkpt><trkpt lat="44.635513" lon="11.6799764"><ele>5.4</ele><time>2026-04-22T10:50:47.346Z</time></trkpt><trkpt lat="44.6354571" lon="11.6798759"><ele>5.2</ele><time>2026-04-22T10:50:48.343Z</time></trkpt><trkpt lat="44.6354007" lon="11.6797748"><ele>5.0</ele><time>2026-04-22T10:50:49.344Z</time></trkpt><trkpt lat="44.6353448" lon="11.679672"><ele>5.0</ele><time>2026-04-22T10:50:50.345Z</time></trkpt><trkpt lat="44.635288" lon="11.679569"><ele>5.0</ele><time>2026-04-22T10:50:51.357Z</time></trkpt><trkpt lat="44.6352316" lon="11.6794638"><ele>5.0</ele><time>2026-04-22T10:50:52.351Z</time></trkpt><trkpt lat="44.6351747" lon="11.6793594"><ele>5.0</ele><time>2026-04-22T10:50:53.342Z</time></trkpt><trkpt lat="44.6351176" lon="11.6792572"><ele>5.0</ele><time>2026-04-22T10:50:54.354Z</time></trkpt><trkpt lat="44.6350607" lon="11.6791564"><ele>4.833333333333334</ele><time>2026-04-22T10:50:55.354Z</time></trkpt><trkpt lat="44.6350047" lon="11.6790564"><ele>4.666666666666667</ele><time>2026-04-22T10:50:56.359Z</time></trkpt><trkpt lat="44.6349492" lon="11.6789572"><ele>4.5</ele><time>2026-04-22T10:50:57.354Z</time></trkpt><trkpt lat="44.6348949" lon="11.6788587"><ele>4.333333333333333</ele><time>2026-04-22T10:50:58.348Z</time></trkpt><trkpt lat="44.6348423" lon="11.6787609"><ele>4.166666666666666</ele><time>2026-04-22T10:50:59.351Z</time></trkpt><trkpt lat="44.6347883" lon="11.6786655"><ele>4.0</ele><time>2026-04-22T10:51:00.355Z</time></trkpt><trkpt lat="44.6347355" lon="11.6785701"><ele>3.9999999999999996</ele><time>2026-04-22T10:51:01.356Z</time></trkpt><trkpt lat="44.634683" lon="11.6784755"><ele>4.0</ele><time>2026-04-22T10:51:02.348Z</time></trkpt><trkpt lat="44.6346301" lon="11.6783817"><ele>4.0</ele><time>2026-04-22T10:51:03.344Z</time></trkpt><trkpt lat="44.634578" lon="11.6782885"><ele>4.0</ele><time>2026-04-22T10:51:04.36Z</time></trkpt><trkpt lat="44.6345265" lon="11.6781951"><ele>3.9999999999999996</ele><time>2026-04-22T10:51:05.348Z</time></trkpt><trkpt lat="44.6344757" lon="11.6781021"><ele>4.0</ele><time>2026-04-22T10:51:06.354Z</time></trkpt><trkpt lat="44.6344244" lon="11.6780097"><ele>4.166666666666666</ele><time>2026-04-22T10:51:07.355Z</time></trkpt><trkpt lat="44.6343737" lon="11.6779175"><ele>4.333333333333333</ele><time>2026-04-22T10:51:08.352Z</time></trkpt><trkpt lat="44.6343231" lon="11.6778259"><ele>4.5</ele><time>2026-04-22T10:51:09.363Z</time></trkpt><trkpt lat="44.634272" lon="11.6777346"><ele>4.666666666666667</ele><time>2026-04-22T10:51:10.347Z</time></trkpt><trkpt lat="44.6342219" lon="11.6776438"><ele>4.833333333333334</ele><time>2026-04-22T10:51:11.361Z</time></trkpt><trkpt lat="44.634172" lon="11.6775529"><ele>5.0</ele><time>2026-04-22T10:51:12.353Z</time></trkpt><trkpt lat="44.6341219" lon="11.6774631"><ele>5.0</ele><time>2026-04-22T10:51:13.352Z</time></trkpt><trkpt lat="44.6340717" lon="11.6773733"><ele>5.0</ele><time>2026-04-22T10:51:14.341Z</time></trkpt><trkpt lat="44.6340223" lon="11.6772845"><ele>5.0</ele><time>2026-04-22T10:51:15.366Z</time></trkpt><trkpt lat="44.6339726" lon="11.6771963"><ele>5.0</ele><time>2026-04-22T10:51:16.345Z</time></trkpt><trkpt lat="44.633924" lon="11.6771086"><ele>5.0</ele><time>2026-04-22T10:51:17.351Z</time></trkpt><trkpt lat="44.6338754" lon="11.677021"><ele>5.0</ele><time>2026-04-22T10:51:18.357Z</time></trkpt><trkpt lat="44.633827" lon="11.676935"><ele>5.0</ele><time>2026-04-22T10:51:19.347Z</time></trkpt><trkpt lat="44.6337793" lon="11.6768495"><ele>5.0</ele><time>2026-04-22T10:51:20.342Z</time></trkpt><trkpt lat="44.6337314" lon="11.6767649"><ele>5.0</ele><time>2026-04-22T10:51:21.361Z</time></trkpt><trkpt lat="44.6336843" lon="11.6766798"><ele>5.0</ele><time>2026-04-22T10:51:22.348Z</time></trkpt><trkpt lat="44.6336374" lon="11.6765957"><ele>5.0</ele><time>2026-04-22T10:51:23.352Z</time></trkpt><trkpt lat="44.6335911" lon="11.6765107"><ele>5.0</ele><time>2026-04-22T10:51:24.35Z</time></trkpt><trkpt lat="44.6335446" lon="11.6764262"><ele>5.0</ele><time>2026-04-22T10:51:25.348Z</time></trkpt><trkpt lat="44.6334976" lon="11.6763433"><ele>5.0</ele><time>2026-04-22T10:51:26.35Z</time></trkpt><trkpt lat="44.6334506" lon="11.676261"><ele>5.0</ele><time>2026-04-22T10:51:27.35Z</time></trkpt><trkpt lat="44.6334049" lon="11.6761782"><ele>5.0</ele><time>2026-04-22T10:51:28.349Z</time></trkpt><trkpt lat="44.6333594" lon="11.6760953"><ele>5.0</ele><time>2026-04-22T10:51:29.359Z</time></trkpt><trkpt lat="44.6333133" lon="11.676013"><ele>5.0</ele><time>2026-04-22T10:51:30.35Z</time></trkpt><trkpt lat="44.6332666" lon="11.6759295"><ele>5.0</ele><time>2026-04-22T10:51:31.357Z</time></trkpt><trkpt lat="44.6332205" lon="11.6758475"><ele>5.0</ele><time>2026-04-22T10:51:32.356Z</time></trkpt><trkpt lat="44.6331741" lon="11.6757655"><ele>5.0</ele><time>2026-04-22T10:51:33.342Z</time></trkpt><trkpt lat="44.6331281" lon="11.6756828"><ele>5.0</ele><time>2026-04-22T10:51:34.34Z</time></trkpt><trkpt lat="44.6330815" lon="11.6756004"><ele>5.0</ele><time>2026-04-22T10:51:35.356Z</time></trkpt><trkpt lat="44.633035" lon="11.6755181"><ele>5.0</ele><time>2026-04-22T10:51:36.352Z</time></trkpt><trkpt lat="44.6329892" lon="11.6754361"><ele>5.0</ele><time>2026-04-22T10:51:37.355Z</time></trkpt><trkpt lat="44.632943" lon="11.6753543"><ele>5.0</ele><time>2026-04-22T10:51:38.348Z</time></trkpt><trkpt lat="44.6328966" lon="11.6752733"><ele>5.0</ele><time>2026-04-22T10:51:39.355Z</time></trkpt><trkpt lat="44.6328507" lon="11.6751922"><ele>5.0</ele><time>2026-04-22T10:51:40.344Z</time></trkpt><trkpt lat="44.6328056" lon="11.6751129"><ele>5.0</ele><time>2026-04-22T10:51:41.356Z</time></trkpt><trkpt lat="44.6327608" lon="11.675035"><ele>5.0</ele><time>2026-04-22T10:51:42.351Z</time></trkpt><trkpt lat="44.6327167" lon="11.6749559"><ele>5.0</ele><time>2026-04-22T10:51:43.355Z</time></trkpt><trkpt lat="44.6326728" lon="11.6748797"><ele>5.0</ele><time>2026-04-22T10:51:44.348Z</time></trkpt><trkpt lat="44.6326313" lon="11.6748003"><ele>5.571428571428571</ele><time>2026-04-22T10:51:45.361Z</time></trkpt><trkpt lat="44.6325894" lon="11.674722"><ele>6.142857142857143</ele><time>2026-04-22T10:51:46.343Z</time></trkpt><trkpt lat="44.6325481" lon="11.6746444"><ele>6.714285714285715</ele><time>2026-04-22T10:51:47.354Z</time></trkpt><trkpt lat="44.6325092" lon="11.674565"><ele>7.2857142857142865</ele><time>2026-04-22T10:51:48.343Z</time></trkpt><trkpt lat="44.6324723" lon="11.674484"><ele>7.857142857142858</ele><time>2026-04-22T10:51:49.355Z</time></trkpt><trkpt lat="44.6324427" lon="11.6743985"><ele>8.428571428571429</ele><time>2026-04-22T10:51:50.343Z</time></trkpt><trkpt lat="44.6324231" lon="11.6743078"><ele>9.0</ele><time>2026-04-22T10:51:51.358Z</time></trkpt><trkpt lat="44.6324155" lon="11.6742138"><ele>9.142857142857144</ele><time>2026-04-22T10:51:52.348Z</time></trkpt><trkpt lat="44.6324183" lon="11.6741187"><ele>9.285714285714286</ele><time>2026-04-22T10:51:53.341Z</time></trkpt><trkpt lat="44.6324329" lon="11.6740252"><ele>9.428571428571429</ele><time>2026-04-22T10:51:54.344Z</time></trkpt><trkpt lat="44.6324613" lon="11.6739371"><ele>9.571428571428573</ele><time>2026-04-22T10:51:55.352Z</time></trkpt><trkpt lat="44.6325029" lon="11.6738587"><ele>9.714285714285715</ele><time>2026-04-22T10:51:56.348Z</time></trkpt><trkpt lat="44.632554" lon="11.6737915"><ele>9.857142857142858</ele><time>2026-04-22T10:51:57.347Z</time></trkpt><trkpt lat="44.6326084" lon="11.6737298"><ele>10.0</ele><time>2026-04-22T10:51:58.35Z</time></trkpt><trkpt lat="44.6326639" lon="11.6736716"><ele>10.0</ele><time>2026-04-22T10:51:59.354Z</time></trkpt><trkpt lat="44.6327201" lon="11.673614"><ele>10.0</ele><time>2026-04-22T10:52:00.35Z</time></trkpt><trkpt lat="44.6327753" lon="11.6735549"><ele>10.0</ele><time>2026-04-22T10:52:01.355Z</time></trkpt><trkpt lat="44.6328276" lon="11.6734917"><ele>10.0</ele><time>2026-04-22T10:52:02.352Z</time></trkpt><trkpt lat="44.6328754" lon="11.6734223"><ele>10.0</ele><time>2026-04-22T10:52:03.348Z</time></trkpt><trkpt lat="44.6329165" lon="11.6733462"><ele>10.0</ele><time>2026-04-22T10:52:04.353Z</time></trkpt><trkpt lat="44.6329488" lon="11.6732638"><ele>10.0</ele><time>2026-04-22T10:52:05.356Z</time></trkpt><trkpt lat="44.6329701" lon="11.6731757"><ele>9.857142857142858</ele><time>2026-04-22T10:52:06.35Z</time></trkpt><trkpt lat="44.6329758" lon="11.6730848"><ele>9.714285714285715</ele><time>2026-04-22T10:52:07.345Z</time></trkpt><trkpt lat="44.6329628" lon="11.6729952"><ele>9.571428571428573</ele><time>2026-04-22T10:52:08.349Z</time></trkpt><trkpt lat="44.6329343" lon="11.6729126"><ele>9.428571428571429</ele><time>2026-04-22T10:52:09.338Z</time></trkpt><trkpt lat="44.6328943" lon="11.6728398"><ele>9.285714285714286</ele><time>2026-04-22T10:52:10.36Z</time></trkpt><trkpt lat="44.6328459" lon="11.6727759"><ele>9.142857142857144</ele><time>2026-04-22T10:52:11.347Z</time></trkpt><trkpt lat="44.6327923" lon="11.6727187"><ele>9.0</ele><time>2026-04-22T10:52:12.361Z</time></trkpt><trkpt lat="44.632736" lon="11.672664"><ele>8.857142857142858</ele><time>2026-04-22T10:52:13.351Z</time></trkpt><trkpt lat="44.6326783" lon="11.6726118"><ele>8.714285714285715</ele><time>2026-04-22T10:52:14.348Z</time></trkpt><trkpt lat="44.6326199" lon="11.6725607"><ele>8.571428571428571</ele><time>2026-04-22T10:52:15.352Z</time></trkpt><trkpt lat="44.632561" lon="11.6725111"><ele>8.428571428571429</ele><time>2026-04-22T10:52:16.344Z</time></trkpt><trkpt lat="44.6325012" lon="11.6724617"><ele>8.285714285714285</ele><time>2026-04-22T10:52:17.354Z</time></trkpt><trkpt lat="44.632442" lon="11.6724125"><ele>8.142857142857142</ele><time>2026-04-22T10:52:18.345Z</time></trkpt><trkpt lat="44.6323837" lon="11.6723617"><ele>8.0</ele><time>2026-04-22T10:52:19.357Z</time></trkpt><trkpt lat="44.6323259" lon="11.6723086"><ele>8.0</ele><time>2026-04-22T10:52:20.348Z</time></trkpt><trkpt lat="44.6322669" lon="11.6722559"><ele>7.999999999999999</ele><time>2026-04-22T10:52:21.348Z</time></trkpt><trkpt lat="44.6322068" lon="11.672205"><ele>8.0</ele><time>2026-04-22T10:52:22.347Z</time></trkpt><trkpt lat="44.632146" lon="11.6721559"><ele>8.0</ele><time>2026-04-22T10:52:23.35Z</time></trkpt><trkpt lat="44.6320851" lon="11.6721061"><ele>7.999999999999999</ele><time>2026-04-22T10:52:24.358Z</time></trkpt><trkpt lat="44.6320248" lon="11.6720556"><ele>8.0</ele><time>2026-04-22T10:52:25.355Z</time></trkpt><trkpt lat="44.6319642" lon="11.6720064"><ele>8.0</ele><time>2026-04-22T10:52:26.343Z</time></trkpt><trkpt lat="44.6319027" lon="11.6719577"><ele>7.857142857142857</ele><time>2026-04-22T10:52:27.351Z</time></trkpt><trkpt lat="44.6318408" lon="11.6719097"><ele>7.7142857142857135</ele><time>2026-04-22T10:52:28.356Z</time></trkpt><trkpt lat="44.6317783" lon="11.6718611"><ele>7.571428571428571</ele><time>2026-04-22T10:52:29.353Z</time></trkpt><trkpt lat="44.6317164" lon="11.6718102"><ele>7.428571428571429</ele><time>2026-04-22T10:52:30.35Z</time></trkpt><trkpt lat="44.6316544" lon="11.6717596"><ele>7.285714285714286</ele><time>2026-04-22T10:52:31.351Z</time></trkpt><trkpt lat="44.6315924" lon="11.6717085"><ele>7.142857142857142</ele><time>2026-04-22T10:52:32.355Z</time></trkpt><trkpt lat="44.6315302" lon="11.6716572"><ele>7.0</ele><time>2026-04-22T10:52:33.344Z</time></trkpt><trkpt lat="44.6314684" lon="11.6716058"><ele>7.0</ele><time>2026-04-22T10:52:34.349Z</time></trkpt><trkpt lat="44.6314061" lon="11.6715547"><ele>7.0</ele><time>2026-04-22T10:52:35.35Z</time></trkpt><trkpt lat="44.6313444" lon="11.6715029"><ele>7.0</ele><time>2026-04-22T10:52:36.353Z</time></trkpt><trkpt lat="44.6312828" lon="11.6714508"><ele>7.0</ele><time>2026-04-22T10:52:37.352Z</time></trkpt><trkpt lat="44.6312201" lon="11.6713998"><ele>7.0</ele><time>2026-04-22T10:52:38.347Z</time></trkpt><trkpt lat="44.6311575" lon="11.671348"><ele>7.0</ele><time>2026-04-22T10:52:39.356Z</time></trkpt><trkpt lat="44.6310946" lon="11.6712956"><ele>7.0</ele><time>2026-04-22T10:52:40.357Z</time></trkpt><trkpt lat="44.6310317" lon="11.6712438"><ele>6.857142857142857</ele><time>2026-04-22T10:52:41.354Z</time></trkpt><trkpt lat="44.6309691" lon="11.671193"><ele>6.714285714285714</ele><time>2026-04-22T10:52:42.35Z</time></trkpt><trkpt lat="44.6309067" lon="11.6711417"><ele>6.571428571428571</ele><time>2026-04-22T10:52:43.345Z</time></trkpt><trkpt lat="44.6308439" lon="11.671091"><ele>6.428571428571429</ele><time>2026-04-22T10:52:44.352Z</time></trkpt><trkpt lat="44.630781" lon="11.6710403"><ele>6.285714285714286</ele><time>2026-04-22T10:52:45.35Z</time></trkpt><trkpt lat="44.6307182" lon="11.6709895"><ele>6.142857142857142</ele><time>2026-04-22T10:52:46.353Z</time></trkpt><trkpt lat="44.6306563" lon="11.6709379"><ele>6.0</ele><time>2026-04-22T10:52:47.345Z</time></trkpt><trkpt lat="44.6305937" lon="11.6708872"><ele>6.285714285714285</ele><time>2026-04-22T10:52:48.354Z</time></trkpt><trkpt lat="44.6305313" lon="11.6708368"><ele>6.571428571428571</ele><time>2026-04-22T10:52:49.348Z</time></trkpt><trkpt lat="44.6304689" lon="11.6707853"><ele>6.857142857142857</ele><time>2026-04-22T10:52:50.35Z</time></trkpt><trkpt lat="44.6304067" lon="11.6707328"><ele>7.142857142857142</ele><time>2026-04-22T10:52:51.353Z</time></trkpt><trkpt lat="44.6303447" lon="11.6706808"><ele>7.428571428571428</ele><time>2026-04-22T10:52:52.348Z</time></trkpt><trkpt lat="44.6302825" lon="11.6706283"><ele>7.7142857142857135</ele><time>2026-04-22T10:52:53.348Z</time></trkpt><trkpt lat="44.6302204" lon="11.6705753"><ele>8.0</ele><time>2026-04-22T10:52:54.358Z</time></trkpt><trkpt lat="44.6301577" lon="11.6705235"><ele>8.142857142857142</ele><time>2026-04-22T10:52:55.356Z</time></trkpt><trkpt lat="44.6300944" lon="11.6704721"><ele>8.285714285714285</ele><time>2026-04-22T10:52:56.348Z</time></trkpt><trkpt lat="44.6300317" lon="11.6704201"><ele>8.428571428571429</ele><time>2026-04-22T10:52:57.341Z</time></trkpt><trkpt lat="44.629969" lon="11.6703677"><ele>8.571428571428571</ele><time>2026-04-22T10:52:58.346Z</time></trkpt><trkpt lat="44.6299054" lon="11.6703167"><ele>8.714285714285715</ele><time>2026-04-22T10:52:59.347Z</time></trkpt><trkpt lat="44.6298421" lon="11.6702654"><ele>8.857142857142858</ele><time>2026-04-22T10:53:00.352Z</time></trkpt><trkpt lat="44.6297792" lon="11.6702127"><ele>9.0</ele><time>2026-04-22T10:53:01.348Z</time></trkpt><trkpt lat="44.6297194" lon="11.6701633"><ele>9.000000000000002</ele><time>2026-04-22T10:53:02.345Z</time></trkpt><trkpt lat="44.6296575" lon="11.6701097"><ele>9.0</ele><time>2026-04-22T10:53:03.351Z</time></trkpt><trkpt lat="44.6295944" lon="11.6700597"><ele>9.0</ele><time>2026-04-22T10:53:04.357Z</time></trkpt><trkpt lat="44.6295311" lon="11.6700081"><ele>9.0</ele><time>2026-04-22T10:53:05.352Z</time></trkpt><trkpt lat="44.6294677" lon="11.6699572"><ele>9.0</ele><time>2026-04-22T10:53:06.349Z</time></trkpt><trkpt lat="44.6294059" lon="11.669907"><ele>9.000000000000002</ele><time>2026-04-22T10:53:07.35Z</time></trkpt><trkpt lat="44.6293429" lon="11.6698568"><ele>9.0</ele><time>2026-04-22T10:53:08.358Z</time></trkpt><trkpt lat="44.6292805" lon="11.6698092"><ele>9.000000000000002</ele><time>2026-04-22T10:53:09.348Z</time></trkpt><trkpt lat="44.6292181" lon="11.6697624"><ele>9.0</ele><time>2026-04-22T10:53:10.347Z</time></trkpt><trkpt lat="44.6291525" lon="11.6697233"><ele>9.0</ele><time>2026-04-22T10:53:11.342Z</time></trkpt><trkpt lat="44.629085" lon="11.6696943"><ele>9.0</ele><time>2026-04-22T10:53:12.352Z</time></trkpt><trkpt lat="44.6290148" lon="11.6696761"><ele>9.0</ele><time>2026-04-22T10:53:13.356Z</time></trkpt><trkpt lat="44.6289433" lon="11.6696661"><ele>9.000000000000002</ele><time>2026-04-22T10:53:14.35Z</time></trkpt><trkpt lat="44.6288717" lon="11.6696639"><ele>9.0</ele><time>2026-04-22T10:53:15.355Z</time></trkpt><trkpt lat="44.6288" lon="11.6696714"><ele>9.000000000000002</ele><time>2026-04-22T10:53:16.351Z</time></trkpt><trkpt lat="44.6287286" lon="11.6696846"><ele>9.0</ele><time>2026-04-22T10:53:17.36Z</time></trkpt><trkpt lat="44.6286575" lon="11.6696983"><ele>9.0</ele><time>2026-04-22T10:53:18.35Z</time></trkpt><trkpt lat="44.6285869" lon="11.6697117"><ele>9.0</ele><time>2026-04-22T10:53:19.35Z</time></trkpt><trkpt lat="44.628516" lon="11.6697253"><ele>9.0</ele><time>2026-04-22T10:53:20.347Z</time></trkpt><trkpt lat="44.628446" lon="11.6697367"><ele>9.000000000000002</ele><time>2026-04-22T10:53:21.351Z</time></trkpt><trkpt lat="44.6283741" lon="11.669746"><ele>9.0</ele><time>2026-04-22T10:53:22.347Z</time></trkpt><trkpt lat="44.6283043" lon="11.669757"><ele>8.571428571428573</ele><time>2026-04-22T10:53:23.353Z</time></trkpt><trkpt lat="44.6282355" lon="11.6697675"><ele>8.142857142857142</ele><time>2026-04-22T10:53:24.361Z</time></trkpt><trkpt lat="44.628168" lon="11.6697781"><ele>7.714285714285714</ele><time>2026-04-22T10:53:25.347Z</time></trkpt><trkpt lat="44.6281028" lon="11.6697912"><ele>7.2857142857142865</ele><time>2026-04-22T10:53:26.352Z</time></trkpt><trkpt lat="44.6280374" lon="11.6698018"><ele>6.857142857142858</ele><time>2026-04-22T10:53:27.347Z</time></trkpt><trkpt lat="44.6279737" lon="11.6698027"><ele>6.428571428571428</ele><time>2026-04-22T10:53:28.339Z</time></trkpt><trkpt lat="44.6279107" lon="11.6697911"><ele>6.0</ele><time>2026-04-22T10:53:29.351Z</time></trkpt><trkpt lat="44.6278495" lon="11.6697599"><ele>6.285714285714285</ele><time>2026-04-22T10:53:30.359Z</time></trkpt><trkpt lat="44.6277906" lon="11.6697265"><ele>6.571428571428571</ele><time>2026-04-22T10:53:31.343Z</time></trkpt><trkpt lat="44.6277451" lon="11.6696557"><ele>6.857142857142857</ele><time>2026-04-22T10:53:32.354Z</time></trkpt><trkpt lat="44.6277047" lon="11.6695808"><ele>7.142857142857142</ele><time>2026-04-22T10:53:33.359Z</time></trkpt><trkpt lat="44.6276656" lon="11.669505"><ele>7.428571428571428</ele><time>2026-04-22T10:53:34.343Z</time></trkpt><trkpt lat="44.6276226" lon="11.6694348"><ele>7.7142857142857135</ele><time>2026-04-22T10:53:35.349Z</time></trkpt><trkpt lat="44.6275864" lon="11.6693549"><ele>8.0</ele><time>2026-04-22T10:53:36.358Z</time></trkpt><trkpt lat="44.6275497" lon="11.6692766"><ele>8.0</ele><time>2026-04-22T10:53:37.347Z</time></trkpt><trkpt lat="44.6275143" lon="11.6691976"><ele>7.999999999999999</ele><time>2026-04-22T10:53:38.356Z</time></trkpt><trkpt lat="44.6274781" lon="11.6691185"><ele>8.0</ele><time>2026-04-22T10:53:39.355Z</time></trkpt><trkpt lat="44.6274413" lon="11.6690401"><ele>8.0</ele><time>2026-04-22T10:53:40.358Z</time></trkpt><trkpt lat="44.6274018" lon="11.6689634"><ele>7.999999999999999</ele><time>2026-04-22T10:53:41.347Z</time></trkpt><trkpt lat="44.627351" lon="11.6689024"><ele>8.0</ele><time>2026-04-22T10:53:42.346Z</time></trkpt><trkpt lat="44.6272881" lon="11.66887"><ele>8.0</ele><time>2026-04-22T10:53:43.351Z</time></trkpt><trkpt lat="44.6271856" lon="11.6688524"><ele>7.999999999999999</ele><time>2026-04-22T10:53:45.348Z</time></trkpt><trkpt lat="44.6271245" lon="11.6688877"><ele>8.0</ele><time>2026-04-22T10:53:47.346Z</time></trkpt><trkpt lat="44.6270701" lon="11.668969"><ele>8.0</ele><time>2026-04-22T10:53:49.363Z</time></trkpt><trkpt lat="44.6270274" lon="11.6690781"><ele>8.0</ele><time>2026-04-22T10:53:51.341Z</time></trkpt><trkpt lat="44.6269992" lon="11.6692117"><ele>7.999999999999999</ele><time>2026-04-22T10:53:53.341Z</time></trkpt><trkpt lat="44.6269633" lon="11.6693542"><ele>8.0</ele><time>2026-04-22T10:53:55.346Z</time></trkpt><trkpt lat="44.6269296" lon="11.6695028"><ele>8.0</ele><time>2026-04-22T10:53:57.348Z</time></trkpt><trkpt lat="44.626894" lon="11.6696574"><ele>8.0</ele><time>2026-04-22T10:53:59.349Z</time></trkpt><trkpt lat="44.6268572" lon="11.669816"><ele>8.0</ele><time>2026-04-22T10:54:01.351Z</time></trkpt><trkpt lat="44.626777" lon="11.669945"><ele>8.0</ele><time>2026-04-22T10:54:03.349Z</time></trkpt><trkpt lat="44.6267218" lon="11.6699879"><ele>8.0</ele><time>2026-04-22T10:54:04.357Z</time></trkpt><trkpt lat="44.6266598" lon="11.6700128"><ele>8.0</ele><time>2026-04-22T10:54:05.344Z</time></trkpt><trkpt lat="44.6265953" lon="11.6700206"><ele>7.999999999999999</ele><time>2026-04-22T10:54:06.35Z</time></trkpt><trkpt lat="44.6265307" lon="11.6700237"><ele>8.0</ele><time>2026-04-22T10:54:07.355Z</time></trkpt><trkpt lat="44.6264655" lon="11.6700249"><ele>8.0</ele><time>2026-04-22T10:54:08.346Z</time></trkpt><trkpt lat="44.6263999" lon="11.6700253"><ele>7.999999999999999</ele><time>2026-04-22T10:54:09.343Z</time></trkpt><trkpt lat="44.6263342" lon="11.6700272"><ele>8.0</ele><time>2026-04-22T10:54:10.35Z</time></trkpt><trkpt lat="44.6262684" lon="11.6700272"><ele>8.0</ele><time>2026-04-22T10:54:11.343Z</time></trkpt><trkpt lat="44.6262025" lon="11.6700212"><ele>8.0</ele><time>2026-04-22T10:54:12.347Z</time></trkpt><trkpt lat="44.6261332" lon="11.6700152"><ele>7.999999999999999</ele><time>2026-04-22T10:54:13.354Z</time></trkpt><trkpt lat="44.6260678" lon="11.670003"><ele>8.0</ele><time>2026-04-22T10:54:14.348Z</time></trkpt><trkpt lat="44.6260004" lon="11.6699918"><ele>8.0</ele><time>2026-04-22T10:54:15.345Z</time></trkpt><trkpt lat="44.6259346" lon="11.6699785"><ele>7.999999999999999</ele><time>2026-04-22T10:54:16.341Z</time></trkpt><trkpt lat="44.6258687" lon="11.6699654"><ele>8.0</ele><time>2026-04-22T10:54:17.341Z</time></trkpt><trkpt lat="44.6258032" lon="11.6699493"><ele>8.0</ele><time>2026-04-22T10:54:18.34Z</time></trkpt><trkpt lat="44.6257384" lon="11.6699311"><ele>8.0</ele><time>2026-04-22T10:54:19.349Z</time></trkpt><trkpt lat="44.6256728" lon="11.6699144"><ele>7.999999999999999</ele><time>2026-04-22T10:54:20.344Z</time></trkpt><trkpt lat="44.6256067" lon="11.6698956"><ele>8.0</ele><time>2026-04-22T10:54:21.347Z</time></trkpt><trkpt lat="44.6255402" lon="11.669874"><ele>8.0</ele><time>2026-04-22T10:54:22.347Z</time></trkpt><trkpt lat="44.625474" lon="11.6698537"><ele>7.999999999999999</ele><time>2026-04-22T10:54:23.345Z</time></trkpt><trkpt lat="44.6254063" lon="11.6698384"><ele>8.0</ele><time>2026-04-22T10:54:24.353Z</time></trkpt><trkpt lat="44.625338" lon="11.6698217"><ele>8.0</ele><time>2026-04-22T10:54:25.343Z</time></trkpt><trkpt lat="44.6252695" lon="11.6698075"><ele>8.142857142857142</ele><time>2026-04-22T10:54:26.357Z</time></trkpt><trkpt lat="44.6252" lon="11.6698003"><ele>8.285714285714285</ele><time>2026-04-22T10:54:27.345Z</time></trkpt><trkpt lat="44.6251309" lon="11.6697983"><ele>8.428571428571429</ele><time>2026-04-22T10:54:28.352Z</time></trkpt><trkpt lat="44.6250613" lon="11.6698005"><ele>8.571428571428571</ele><time>2026-04-22T10:54:29.355Z</time></trkpt><trkpt lat="44.6249915" lon="11.6698044"><ele>8.714285714285715</ele><time>2026-04-22T10:54:30.346Z</time></trkpt><trkpt lat="44.6249218" lon="11.6698069"><ele>8.857142857142858</ele><time>2026-04-22T10:54:31.354Z</time></trkpt><trkpt lat="44.6248512" lon="11.6698099"><ele>9.0</ele><time>2026-04-22T10:54:32.349Z</time></trkpt><trkpt lat="44.6247806" lon="11.6698131"><ele>9.000000000000002</ele><time>2026-04-22T10:54:33.341Z</time></trkpt><trkpt lat="44.6247104" lon="11.6698195"><ele>9.0</ele><time>2026-04-22T10:54:34.349Z</time></trkpt><trkpt lat="44.6246406" lon="11.6698317"><ele>9.0</ele><time>2026-04-22T10:54:35.345Z</time></trkpt><trkpt lat="44.6245713" lon="11.6698453"><ele>9.0</ele><time>2026-04-22T10:54:36.353Z</time></trkpt><trkpt lat="44.6245022" lon="11.6698612"><ele>9.0</ele><time>2026-04-22T10:54:37.346Z</time></trkpt><trkpt lat="44.6244346" lon="11.669879"><ele>9.000000000000002</ele><time>2026-04-22T10:54:38.349Z</time></trkpt><trkpt lat="44.6243665" lon="11.6698956"><ele>9.0</ele><time>2026-04-22T10:54:39.351Z</time></trkpt><trkpt lat="44.6242981" lon="11.6699077"><ele>9.000000000000002</ele><time>2026-04-22T10:54:40.34Z</time></trkpt><trkpt lat="44.6242295" lon="11.669918"><ele>9.0</ele><time>2026-04-22T10:54:41.355Z</time></trkpt><trkpt lat="44.6241602" lon="11.6699286"><ele>9.0</ele><time>2026-04-22T10:54:42.353Z</time></trkpt><trkpt lat="44.6240939" lon="11.6699386"><ele>9.0</ele><time>2026-04-22T10:54:43.355Z</time></trkpt><trkpt lat="44.6240255" lon="11.6699494"><ele>9.0</ele><time>2026-04-22T10:54:44.344Z</time></trkpt><trkpt lat="44.6239556" lon="11.6699576"><ele>9.000000000000002</ele><time>2026-04-22T10:54:45.347Z</time></trkpt><trkpt lat="44.6238895" lon="11.6699649"><ele>9.0</ele><time>2026-04-22T10:54:46.357Z</time></trkpt><trkpt lat="44.6238181" lon="11.6699746"><ele>9.0</ele><time>2026-04-22T10:54:47.347Z</time></trkpt><trkpt lat="44.6237527" lon="11.6699825"><ele>9.0</ele><time>2026-04-22T10:54:48.35Z</time></trkpt><trkpt lat="44.6236873" lon="11.6699898"><ele>9.0</ele><time>2026-04-22T10:54:49.351Z</time></trkpt><trkpt lat="44.6236239" lon="11.6699861"><ele>9.0</ele><time>2026-04-22T10:54:50.358Z</time></trkpt><trkpt lat="44.623503" lon="11.6699807"><ele>9.0</ele><time>2026-04-22T10:54:52.355Z</time></trkpt><trkpt lat="44.6233824" lon="11.6699455"><ele>9.0</ele><time>2026-04-22T10:54:54.339Z</time></trkpt><trkpt lat="44.6232636" lon="11.6698966"><ele>8.75</ele><time>2026-04-22T10:54:56.34Z</time></trkpt><trkpt lat="44.6232031" lon="11.6698721"><ele>8.5</ele><time>2026-04-22T10:54:57.347Z</time></trkpt><trkpt lat="44.6231416" lon="11.6698515"><ele>8.25</ele><time>2026-04-22T10:54:58.344Z</time></trkpt><trkpt lat="44.6230787" lon="11.6698341"><ele>8.0</ele><time>2026-04-22T10:54:59.35Z</time></trkpt><trkpt lat="44.6230139" lon="11.6698193"><ele>7.75</ele><time>2026-04-22T10:55:00.339Z</time></trkpt><trkpt lat="44.62295" lon="11.6698051"><ele>7.5</ele><time>2026-04-22T10:55:01.347Z</time></trkpt><trkpt lat="44.6228868" lon="11.6697897"><ele>7.25</ele><time>2026-04-22T10:55:02.348Z</time></trkpt><trkpt lat="44.6228234" lon="11.6697734"><ele>7.0</ele><time>2026-04-22T10:55:03.35Z</time></trkpt><trkpt lat="44.6227598" lon="11.6697572"><ele>6.857142857142857</ele><time>2026-04-22T10:55:04.34Z</time></trkpt><trkpt lat="44.6226957" lon="11.6697459"><ele>6.714285714285714</ele><time>2026-04-22T10:55:05.352Z</time></trkpt><trkpt lat="44.6226316" lon="11.6697371"><ele>6.571428571428571</ele><time>2026-04-22T10:55:06.356Z</time></trkpt><trkpt lat="44.622567" lon="11.6697288"><ele>6.428571428571429</ele><time>2026-04-22T10:55:07.359Z</time></trkpt><trkpt lat="44.6225043" lon="11.6697145"><ele>6.285714285714286</ele><time>2026-04-22T10:55:08.357Z</time></trkpt><trkpt lat="44.6224416" lon="11.6697012"><ele>6.142857142857142</ele><time>2026-04-22T10:55:09.359Z</time></trkpt><trkpt lat="44.6223196" lon="11.6696684"><ele>6.0</ele><time>2026-04-22T10:55:11.345Z</time></trkpt><trkpt lat="44.6222048" lon="11.6696433"><ele>6.0</ele><time>2026-04-22T10:55:13.342Z</time></trkpt><trkpt lat="44.6220995" lon="11.6696269"><ele>6.0</ele><time>2026-04-22T10:55:15.346Z</time></trkpt><trkpt lat="44.6219954" lon="11.6696142"><ele>6.0</ele><time>2026-04-22T10:55:17.345Z</time></trkpt><trkpt lat="44.6218871" lon="11.669605"><ele>6.0</ele><time>2026-04-22T10:55:19.34Z</time></trkpt><trkpt lat="44.6217764" lon="11.6695748"><ele>6.0</ele><time>2026-04-22T10:55:21.352Z</time></trkpt><trkpt lat="44.6216708" lon="11.6695479"><ele>6.0</ele><time>2026-04-22T10:55:23.343Z</time></trkpt><trkpt lat="44.6215635" lon="11.6695114"><ele>6.0</ele><time>2026-04-22T10:55:25.346Z</time></trkpt><trkpt lat="44.6214548" lon="11.6694798"><ele>6.0</ele><time>2026-04-22T10:55:27.352Z</time></trkpt><trkpt lat="44.6213472" lon="11.6694407"><ele>6.0</ele><time>2026-04-22T10:55:29.365Z</time></trkpt><trkpt lat="44.6212366" lon="11.6694033"><ele>6.0</ele><time>2026-04-22T10:55:31.337Z</time></trkpt><trkpt lat="44.6211272" lon="11.6693582"><ele>6.6</ele><time>2026-04-22T10:55:33.359Z</time></trkpt><trkpt lat="44.6210218" lon="11.669303"><ele>7.199999999999999</ele><time>2026-04-22T10:55:35.354Z</time></trkpt><trkpt lat="44.6209211" lon="11.6692557"><ele>7.800000000000001</ele><time>2026-04-22T10:55:37.346Z</time></trkpt><trkpt lat="44.6208315" lon="11.6692189"><ele>8.4</ele><time>2026-04-22T10:55:39.354Z</time></trkpt><trkpt lat="44.6207451" lon="11.6691731"><ele>9.0</ele><time>2026-04-22T10:55:41.344Z</time></trkpt><trkpt lat="44.6206601" lon="11.6691048"><ele>9.0</ele><time>2026-04-22T10:55:43.361Z</time></trkpt><trkpt lat="44.6205656" lon="11.6690473"><ele>9.0</ele><time>2026-04-22T10:55:45.342Z</time></trkpt><trkpt lat="44.6204679" lon="11.6689951"><ele>9.0</ele><time>2026-04-22T10:55:47.356Z</time></trkpt><trkpt lat="44.6203703" lon="11.668945"><ele>9.0</ele><time>2026-04-22T10:55:49.347Z</time></trkpt><trkpt lat="44.6202699" lon="11.6688947"><ele>9.0</ele><time>2026-04-22T10:55:51.347Z</time></trkpt><trkpt lat="44.6201691" lon="11.6688443"><ele>9.0</ele><time>2026-04-22T10:55:53.352Z</time></trkpt><trkpt lat="44.6200742" lon="11.6687995"><ele>9.0</ele><time>2026-04-22T10:55:55.348Z</time></trkpt><trkpt lat="44.6199852" lon="11.6687466"><ele>9.0</ele><time>2026-04-22T10:55:57.349Z</time></trkpt><trkpt lat="44.6199022" lon="11.6686987"><ele>9.0</ele><time>2026-04-22T10:55:59.338Z</time></trkpt><trkpt lat="44.6198262" lon="11.6686452"><ele>9.0</ele><time>2026-04-22T10:56:01.348Z</time></trkpt><trkpt lat="44.6197532" lon="11.6685999"><ele>9.0</ele><time>2026-04-22T10:56:03.343Z</time></trkpt><trkpt lat="44.6196859" lon="11.668553"><ele>9.0</ele><time>2026-04-22T10:56:05.353Z</time></trkpt><trkpt lat="44.6196231" lon="11.6685065"><ele>9.0</ele><time>2026-04-22T10:56:07.341Z</time></trkpt><trkpt lat="44.61956" lon="11.6684647"><ele>9.0</ele><time>2026-04-22T10:56:09.343Z</time></trkpt><trkpt lat="44.6194827" lon="11.6684166"><ele>9.0</ele><time>2026-04-22T10:56:11.337Z</time></trkpt><trkpt lat="44.6193993" lon="11.668358"><ele>9.0</ele><time>2026-04-22T10:56:13.343Z</time></trkpt><trkpt lat="44.6193022" lon="11.6682905"><ele>9.0</ele><time>2026-04-22T10:56:15.342Z</time></trkpt><trkpt lat="44.6191958" lon="11.668222"><ele>9.0</ele><time>2026-04-22T10:56:17.344Z</time></trkpt><trkpt lat="44.6190862" lon="11.6681491"><ele>9.0</ele><time>2026-04-22T10:56:19.341Z</time></trkpt><trkpt lat="44.6189751" lon="11.6680825"><ele>9.0</ele><time>2026-04-22T10:56:21.35Z</time></trkpt><trkpt lat="44.6188665" lon="11.6680127"><ele>9.0</ele><time>2026-04-22T10:56:23.365Z</time></trkpt><trkpt lat="44.618757" lon="11.6679445"><ele>9.0</ele><time>2026-04-22T10:56:25.353Z</time></trkpt><trkpt lat="44.6186465" lon="11.6678714"><ele>9.0</ele><time>2026-04-22T10:56:27.349Z</time></trkpt><trkpt lat="44.6185378" lon="11.6678005"><ele>9.0</ele><time>2026-04-22T10:56:29.339Z</time></trkpt><trkpt lat="44.6184323" lon="11.6677344"><ele>8.75</ele><time>2026-04-22T10:56:31.342Z</time></trkpt><trkpt lat="44.6183239" lon="11.6676661"><ele>8.5</ele><time>2026-04-22T10:56:33.343Z</time></trkpt><trkpt lat="44.6182193" lon="11.667599"><ele>8.25</ele><time>2026-04-22T10:56:35.345Z</time></trkpt><trkpt lat="44.6181223" lon="11.6675117"><ele>8.0</ele><time>2026-04-22T10:56:37.352Z</time></trkpt><trkpt lat="44.6180477" lon="11.6673926"><ele>8.0</ele><time>2026-04-22T10:56:39.346Z</time></trkpt><trkpt lat="44.6180176" lon="11.6672344"><ele>8.0</ele><time>2026-04-22T10:56:41.35Z</time></trkpt><trkpt lat="44.6179881" lon="11.6670702"><ele>8.0</ele><time>2026-04-22T10:56:43.338Z</time></trkpt><trkpt lat="44.6179623" lon="11.6668989"><ele>8.0</ele><time>2026-04-22T10:56:45.352Z</time></trkpt><trkpt lat="44.617946" lon="11.6668126"><ele>8.0</ele><time>2026-04-22T10:56:46.351Z</time></trkpt><trkpt lat="44.617916" lon="11.6666427"><ele>7.5</ele><time>2026-04-22T10:56:48.352Z</time></trkpt><trkpt lat="44.6178859" lon="11.6664736"><ele>7.0</ele><time>2026-04-22T10:56:50.348Z</time></trkpt><trkpt lat="44.6178597" lon="11.6663075"><ele>6.5</ele><time>2026-04-22T10:56:52.349Z</time></trkpt><trkpt lat="44.6178513" lon="11.6661448"><ele>6.0</ele><time>2026-04-22T10:56:54.348Z</time></trkpt><trkpt lat="44.617878" lon="11.665995"><ele>6.0</ele><time>2026-04-22T10:56:56.349Z</time></trkpt><trkpt lat="44.6179337" lon="11.6658847"><ele>6.0</ele><time>2026-04-22T10:56:58.356Z</time></trkpt><trkpt lat="44.617993" lon="11.6657829"><ele>6.0</ele><time>2026-04-22T10:57:00.343Z</time></trkpt><trkpt lat="44.6180011" lon="11.6656611"><ele>6.0</ele><time>2026-04-22T10:57:02.355Z</time></trkpt><trkpt lat="44.6179455" lon="11.6655349"><ele>6.0</ele><time>2026-04-22T10:57:04.348Z</time></trkpt><trkpt lat="44.6178642" lon="11.6654241"><ele>5.75</ele><time>2026-04-22T10:57:06.346Z</time></trkpt><trkpt lat="44.6177858" lon="11.6653095"><ele>5.5</ele><time>2026-04-22T10:57:08.353Z</time></trkpt><trkpt lat="44.6177152" lon="11.665167"><ele>5.25</ele><time>2026-04-22T10:57:10.342Z</time></trkpt><trkpt lat="44.6176598" lon="11.665009"><ele>5.0</ele><time>2026-04-22T10:57:12.344Z</time></trkpt><trkpt lat="44.6176242" lon="11.6648387"><ele>5.285714285714286</ele><time>2026-04-22T10:57:14.346Z</time></trkpt><trkpt lat="44.6176088" lon="11.664751"><ele>5.571428571428571</ele><time>2026-04-22T10:57:15.353Z</time></trkpt><trkpt lat="44.6175946" lon="11.6646627"><ele>5.857142857142858</ele><time>2026-04-22T10:57:16.351Z</time></trkpt><trkpt lat="44.6175806" lon="11.6645748"><ele>6.142857142857142</ele><time>2026-04-22T10:57:17.354Z</time></trkpt><trkpt lat="44.6175656" lon="11.6644882"><ele>6.428571428571429</ele><time>2026-04-22T10:57:18.348Z</time></trkpt><trkpt lat="44.6175516" lon="11.664399"><ele>6.714285714285714</ele><time>2026-04-22T10:57:19.334Z</time></trkpt><trkpt lat="44.6175391" lon="11.6643099"><ele>7.0</ele><time>2026-04-22T10:57:20.34Z</time></trkpt><trkpt lat="44.6175271" lon="11.6642194"><ele>7.0</ele><time>2026-04-22T10:57:21.349Z</time></trkpt><trkpt lat="44.6175142" lon="11.6641282"><ele>7.0</ele><time>2026-04-22T10:57:22.351Z</time></trkpt><trkpt lat="44.6175003" lon="11.6640381"><ele>7.0</ele><time>2026-04-22T10:57:23.347Z</time></trkpt><trkpt lat="44.6174857" lon="11.6639475"><ele>7.0</ele><time>2026-04-22T10:57:24.355Z</time></trkpt><trkpt lat="44.6174727" lon="11.6638565"><ele>7.0</ele><time>2026-04-22T10:57:25.347Z</time></trkpt><trkpt lat="44.6174583" lon="11.6637655"><ele>7.0</ele><time>2026-04-22T10:57:26.349Z</time></trkpt><trkpt lat="44.6174423" lon="11.6636748"><ele>7.0</ele><time>2026-04-22T10:57:27.343Z</time></trkpt><trkpt lat="44.6174255" lon="11.6635847"><ele>6.571428571428571</ele><time>2026-04-22T10:57:28.358Z</time></trkpt><trkpt lat="44.6174091" lon="11.6634955"><ele>6.142857142857142</ele><time>2026-04-22T10:57:29.345Z</time></trkpt><trkpt lat="44.6173936" lon="11.663405"><ele>5.714285714285714</ele><time>2026-04-22T10:57:30.346Z</time></trkpt><trkpt lat="44.6173777" lon="11.6633143"><ele>5.285714285714286</ele><time>2026-04-22T10:57:31.361Z</time></trkpt><trkpt lat="44.6173606" lon="11.6632243"><ele>4.857142857142857</ele><time>2026-04-22T10:57:32.347Z</time></trkpt><trkpt lat="44.6173424" lon="11.6631342"><ele>4.428571428571429</ele><time>2026-04-22T10:57:33.355Z</time></trkpt><trkpt lat="44.6173235" lon="11.6630437"><ele>4.0</ele><time>2026-04-22T10:57:34.354Z</time></trkpt><trkpt lat="44.6173047" lon="11.6629536"><ele>4.0</ele><time>2026-04-22T10:57:35.344Z</time></trkpt><trkpt lat="44.6172851" lon="11.6628626"><ele>3.9999999999999996</ele><time>2026-04-22T10:57:36.353Z</time></trkpt><trkpt lat="44.6172657" lon="11.6627721"><ele>4.0</ele><time>2026-04-22T10:57:37.346Z</time></trkpt><trkpt lat="44.6172478" lon="11.6626803"><ele>4.0</ele><time>2026-04-22T10:57:38.34Z</time></trkpt><trkpt lat="44.6172303" lon="11.6625868"><ele>3.9999999999999996</ele><time>2026-04-22T10:57:39.351Z</time></trkpt><trkpt lat="44.6172148" lon="11.6624924"><ele>4.0</ele><time>2026-04-22T10:57:40.349Z</time></trkpt><trkpt lat="44.6171994" lon="11.6623989"><ele>4.0</ele><time>2026-04-22T10:57:41.346Z</time></trkpt><trkpt lat="44.6171844" lon="11.6623045"><ele>4.142857142857142</ele><time>2026-04-22T10:57:42.351Z</time></trkpt><trkpt lat="44.6171692" lon="11.6622101"><ele>4.285714285714286</ele><time>2026-04-22T10:57:43.346Z</time></trkpt><trkpt lat="44.6171526" lon="11.6621149"><ele>4.428571428571429</ele><time>2026-04-22T10:57:44.348Z</time></trkpt><trkpt lat="44.617134" lon="11.6620206"><ele>4.571428571428571</ele><time>2026-04-22T10:57:45.355Z</time></trkpt><trkpt lat="44.6171153" lon="11.6619259"><ele>4.714285714285714</ele><time>2026-04-22T10:57:46.346Z</time></trkpt><trkpt lat="44.6170984" lon="11.6618307"><ele>4.857142857142857</ele><time>2026-04-22T10:57:47.347Z</time></trkpt><trkpt lat="44.6170818" lon="11.6617355"><ele>5.0</ele><time>2026-04-22T10:57:48.349Z</time></trkpt><trkpt lat="44.6170638" lon="11.6616408"><ele>5.0</ele><time>2026-04-22T10:57:49.349Z</time></trkpt><trkpt lat="44.617046" lon="11.6615461"><ele>5.0</ele><time>2026-04-22T10:57:50.355Z</time></trkpt><trkpt lat="44.6170292" lon="11.6614509"><ele>5.0</ele><time>2026-04-22T10:57:51.344Z</time></trkpt><trkpt lat="44.617013" lon="11.6613557"><ele>5.0</ele><time>2026-04-22T10:57:52.35Z</time></trkpt><trkpt lat="44.6169969" lon="11.6612592"><ele>5.0</ele><time>2026-04-22T10:57:53.347Z</time></trkpt><trkpt lat="44.6169803" lon="11.6611633"><ele>5.0</ele><time>2026-04-22T10:57:54.353Z</time></trkpt><trkpt lat="44.616962" lon="11.6610683"><ele>5.0</ele><time>2026-04-22T10:57:55.343Z</time></trkpt><trkpt lat="44.6169447" lon="11.6609728"><ele>5.285714285714286</ele><time>2026-04-22T10:57:56.349Z</time></trkpt><trkpt lat="44.616927" lon="11.6608784"><ele>5.571428571428571</ele><time>2026-04-22T10:57:57.345Z</time></trkpt><trkpt lat="44.6169081" lon="11.6607839"><ele>5.857142857142858</ele><time>2026-04-22T10:57:58.352Z</time></trkpt><trkpt lat="44.6168907" lon="11.6606884"><ele>6.142857142857142</ele><time>2026-04-22T10:57:59.347Z</time></trkpt><trkpt lat="44.6168738" lon="11.6605932"><ele>6.428571428571429</ele><time>2026-04-22T10:58:00.342Z</time></trkpt><trkpt lat="44.6168562" lon="11.6604979"><ele>6.714285714285714</ele><time>2026-04-22T10:58:01.346Z</time></trkpt><trkpt lat="44.6168376" lon="11.6604021"><ele>7.0</ele><time>2026-04-22T10:58:02.354Z</time></trkpt><trkpt lat="44.6168196" lon="11.6603065"><ele>6.714285714285714</ele><time>2026-04-22T10:58:03.348Z</time></trkpt><trkpt lat="44.6168029" lon="11.6602109"><ele>6.428571428571429</ele><time>2026-04-22T10:58:04.345Z</time></trkpt><trkpt lat="44.6167861" lon="11.6601161"><ele>6.142857142857142</ele><time>2026-04-22T10:58:05.348Z</time></trkpt><trkpt lat="44.6167696" lon="11.6600211"><ele>5.857142857142858</ele><time>2026-04-22T10:58:06.345Z</time></trkpt><trkpt lat="44.6167539" lon="11.6599264"><ele>5.571428571428571</ele><time>2026-04-22T10:58:07.345Z</time></trkpt><trkpt lat="44.6167406" lon="11.6598324"><ele>5.285714285714286</ele><time>2026-04-22T10:58:08.355Z</time></trkpt><trkpt lat="44.6167328" lon="11.6597367"><ele>5.0</ele><time>2026-04-22T10:58:09.348Z</time></trkpt><trkpt lat="44.6167334" lon="11.6596402"><ele>5.0</ele><time>2026-04-22T10:58:10.348Z</time></trkpt><trkpt lat="44.6167412" lon="11.6595441"><ele>5.0</ele><time>2026-04-22T10:58:11.351Z</time></trkpt><trkpt lat="44.6167515" lon="11.6594502"><ele>5.0</ele><time>2026-04-22T10:58:12.349Z</time></trkpt><trkpt lat="44.6167587" lon="11.6593571"><ele>5.0</ele><time>2026-04-22T10:58:13.345Z</time></trkpt><trkpt lat="44.6167583" lon="11.659264"><ele>5.0</ele><time>2026-04-22T10:58:14.343Z</time></trkpt><trkpt lat="44.616748" lon="11.6591721"><ele>5.0</ele><time>2026-04-22T10:58:15.348Z</time></trkpt><trkpt lat="44.6167268" lon="11.6590833"><ele>5.0</ele><time>2026-04-22T10:58:16.345Z</time></trkpt><trkpt lat="44.616693" lon="11.6590012"><ele>4.857142857142857</ele><time>2026-04-22T10:58:17.35Z</time></trkpt><trkpt lat="44.6166508" lon="11.6589281"><ele>4.714285714285714</ele><time>2026-04-22T10:58:18.345Z</time></trkpt><trkpt lat="44.616604" lon="11.6588589"><ele>4.571428571428571</ele><time>2026-04-22T10:58:19.347Z</time></trkpt><trkpt lat="44.616563" lon="11.658782"><ele>4.428571428571429</ele><time>2026-04-22T10:58:20.346Z</time></trkpt><trkpt lat="44.616531" lon="11.6586976"><ele>4.285714285714286</ele><time>2026-04-22T10:58:21.352Z</time></trkpt><trkpt lat="44.6165059" lon="11.6586076"><ele>4.142857142857142</ele><time>2026-04-22T10:58:22.347Z</time></trkpt><trkpt lat="44.6164855" lon="11.6585162"><ele>4.0</ele><time>2026-04-22T10:58:23.353Z</time></trkpt><trkpt lat="44.6164676" lon="11.658424"><ele>4.0</ele><time>2026-04-22T10:58:24.35Z</time></trkpt><trkpt lat="44.6164499" lon="11.6583308"><ele>3.9999999999999996</ele><time>2026-04-22T10:58:25.344Z</time></trkpt><trkpt lat="44.6164328" lon="11.6582379"><ele>4.0</ele><time>2026-04-22T10:58:26.36Z</time></trkpt><trkpt lat="44.6164168" lon="11.6581436"><ele>4.0</ele><time>2026-04-22T10:58:27.347Z</time></trkpt><trkpt lat="44.6164009" lon="11.6580495"><ele>3.9999999999999996</ele><time>2026-04-22T10:58:28.351Z</time></trkpt><trkpt lat="44.6163843" lon="11.6579556"><ele>4.0</ele><time>2026-04-22T10:58:29.357Z</time></trkpt><trkpt lat="44.6163656" lon="11.6578634"><ele>4.0</ele><time>2026-04-22T10:58:30.348Z</time></trkpt><trkpt lat="44.6163468" lon="11.6577704"><ele>4.142857142857142</ele><time>2026-04-22T10:58:31.353Z</time></trkpt><trkpt lat="44.6163299" lon="11.6576769"><ele>4.285714285714286</ele><time>2026-04-22T10:58:32.353Z</time></trkpt><trkpt lat="44.6163136" lon="11.6575842"><ele>4.428571428571429</ele><time>2026-04-22T10:58:33.348Z</time></trkpt><trkpt lat="44.6162974" lon="11.657491"><ele>4.571428571428571</ele><time>2026-04-22T10:58:34.346Z</time></trkpt><trkpt lat="44.6162808" lon="11.6573974"><ele>4.714285714285714</ele><time>2026-04-22T10:58:35.353Z</time></trkpt><trkpt lat="44.6162637" lon="11.6573034"><ele>4.857142857142857</ele><time>2026-04-22T10:58:36.341Z</time></trkpt><trkpt lat="44.6162461" lon="11.6572091"><ele>5.0</ele><time>2026-04-22T10:58:37.335Z</time></trkpt><trkpt lat="44.61623" lon="11.6571149"><ele>5.0</ele><time>2026-04-22T10:58:38.351Z</time></trkpt><trkpt lat="44.6162141" lon="11.6570197"><ele>5.0</ele><time>2026-04-22T10:58:39.348Z</time></trkpt><trkpt lat="44.6161982" lon="11.6569244"><ele>5.0</ele><time>2026-04-22T10:58:40.344Z</time></trkpt><trkpt lat="44.6161813" lon="11.6568288"><ele>5.0</ele><time>2026-04-22T10:58:41.338Z</time></trkpt><trkpt lat="44.6161652" lon="11.6567337"><ele>5.0</ele><time>2026-04-22T10:58:42.356Z</time></trkpt><trkpt lat="44.6161491" lon="11.6566407"><ele>5.0</ele><time>2026-04-22T10:58:43.354Z</time></trkpt><trkpt lat="44.6161345" lon="11.656546"><ele>5.0</ele><time>2026-04-22T10:58:44.343Z</time></trkpt><trkpt lat="44.6161204" lon="11.6564513"><ele>4.857142857142857</ele><time>2026-04-22T10:58:45.364Z</time></trkpt><trkpt lat="44.6161056" lon="11.656357"><ele>4.714285714285714</ele><time>2026-04-22T10:58:46.349Z</time></trkpt><trkpt lat="44.6160914" lon="11.6562597"><ele>4.571428571428571</ele><time>2026-04-22T10:58:47.353Z</time></trkpt><trkpt lat="44.6160769" lon="11.6561632"><ele>4.428571428571429</ele><time>2026-04-22T10:58:48.352Z</time></trkpt><trkpt lat="44.6160626" lon="11.6560653"><ele>4.285714285714286</ele><time>2026-04-22T10:58:49.345Z</time></trkpt><trkpt lat="44.6160478" lon="11.6559686"><ele>4.142857142857142</ele><time>2026-04-22T10:58:50.349Z</time></trkpt><trkpt lat="44.6160334" lon="11.6558723"><ele>4.0</ele><time>2026-04-22T10:58:51.346Z</time></trkpt><trkpt lat="44.6160198" lon="11.6557755"><ele>4.0</ele><time>2026-04-22T10:58:52.348Z</time></trkpt><trkpt lat="44.6160054" lon="11.655678"><ele>3.9999999999999996</ele><time>2026-04-22T10:58:53.345Z</time></trkpt><trkpt lat="44.6159912" lon="11.6555791"><ele>4.0</ele><time>2026-04-22T10:58:54.341Z</time></trkpt><trkpt lat="44.6159758" lon="11.655481"><ele>4.0</ele><time>2026-04-22T10:58:55.354Z</time></trkpt><trkpt lat="44.615961" lon="11.6553827"><ele>3.9999999999999996</ele><time>2026-04-22T10:58:56.357Z</time></trkpt><trkpt lat="44.6159466" lon="11.6552849"><ele>4.0</ele><time>2026-04-22T10:58:57.343Z</time></trkpt><trkpt lat="44.6159328" lon="11.6551864"><ele>4.0</ele><time>2026-04-22T10:58:58.363Z</time></trkpt><trkpt lat="44.6159191" lon="11.6550889"><ele>4.285714285714286</ele><time>2026-04-22T10:58:59.345Z</time></trkpt><trkpt lat="44.6159054" lon="11.6549909"><ele>4.571428571428571</ele><time>2026-04-22T10:59:00.352Z</time></trkpt><trkpt lat="44.615891" lon="11.6548933"><ele>4.857142857142857</ele><time>2026-04-22T10:59:01.354Z</time></trkpt><trkpt lat="44.6158769" lon="11.6547952"><ele>5.142857142857142</ele><time>2026-04-22T10:59:02.343Z</time></trkpt><trkpt lat="44.6158635" lon="11.6546995"><ele>5.428571428571429</ele><time>2026-04-22T10:59:03.346Z</time></trkpt><trkpt lat="44.6158492" lon="11.6546033"><ele>5.7142857142857135</ele><time>2026-04-22T10:59:04.342Z</time></trkpt><trkpt lat="44.6158357" lon="11.6545063"><ele>6.0</ele><time>2026-04-22T10:59:05.353Z</time></trkpt><trkpt lat="44.6158206" lon="11.6544086"><ele>5.999999999999999</ele><time>2026-04-22T10:59:06.342Z</time></trkpt><trkpt lat="44.6158059" lon="11.6543099"><ele>6.0</ele><time>2026-04-22T10:59:07.352Z</time></trkpt><trkpt lat="44.6157921" lon="11.6542112"><ele>6.0</ele><time>2026-04-22T10:59:08.344Z</time></trkpt><trkpt lat="44.6157777" lon="11.6541122"><ele>6.0</ele><time>2026-04-22T10:59:09.348Z</time></trkpt><trkpt lat="44.6157635" lon="11.6540131"><ele>6.0</ele><time>2026-04-22T10:59:10.358Z</time></trkpt><trkpt lat="44.6157493" lon="11.6539158"><ele>5.999999999999999</ele><time>2026-04-22T10:59:11.355Z</time></trkpt><trkpt lat="44.6157352" lon="11.6538163"><ele>6.0</ele><time>2026-04-22T10:59:12.343Z</time></trkpt><trkpt lat="44.6157213" lon="11.6537186"><ele>6.142857142857142</ele><time>2026-04-22T10:59:13.351Z</time></trkpt><trkpt lat="44.6157081" lon="11.6536199"><ele>6.285714285714286</ele><time>2026-04-22T10:59:14.357Z</time></trkpt><trkpt lat="44.6156941" lon="11.6535223"><ele>6.428571428571429</ele><time>2026-04-22T10:59:15.345Z</time></trkpt><trkpt lat="44.6156798" lon="11.6534252"><ele>6.571428571428571</ele><time>2026-04-22T10:59:16.351Z</time></trkpt><trkpt lat="44.6156657" lon="11.6533276"><ele>6.714285714285714</ele><time>2026-04-22T10:59:17.343Z</time></trkpt><trkpt lat="44.6156519" lon="11.6532278"><ele>6.857142857142857</ele><time>2026-04-22T10:59:18.351Z</time></trkpt><trkpt lat="44.6156384" lon="11.6531279"><ele>7.0</ele><time>2026-04-22T10:59:19.356Z</time></trkpt><trkpt lat="44.6156242" lon="11.6530278"><ele>7.0</ele><time>2026-04-22T10:59:20.351Z</time></trkpt><trkpt lat="44.6156098" lon="11.6529282"><ele>7.0</ele><time>2026-04-22T10:59:21.348Z</time></trkpt><trkpt lat="44.6155948" lon="11.6528273"><ele>7.0</ele><time>2026-04-22T10:59:22.348Z</time></trkpt><trkpt lat="44.6155806" lon="11.6527267"><ele>7.0</ele><time>2026-04-22T10:59:23.35Z</time></trkpt><trkpt lat="44.6155679" lon="11.6526261"><ele>7.0</ele><time>2026-04-22T10:59:24.352Z</time></trkpt><trkpt lat="44.6155529" lon="11.6525263"><ele>7.0</ele><time>2026-04-22T10:59:25.346Z</time></trkpt><trkpt lat="44.6155381" lon="11.6524274"><ele>7.0</ele><time>2026-04-22T10:59:26.355Z</time></trkpt><trkpt lat="44.6155242" lon="11.6523282"><ele>7.0</ele><time>2026-04-22T10:59:27.357Z</time></trkpt><trkpt lat="44.6155103" lon="11.6522284"><ele>7.0</ele><time>2026-04-22T10:59:28.344Z</time></trkpt><trkpt lat="44.6154966" lon="11.6521277"><ele>7.0</ele><time>2026-04-22T10:59:29.35Z</time></trkpt><trkpt lat="44.6154825" lon="11.6520264"><ele>7.0</ele><time>2026-04-22T10:59:30.359Z</time></trkpt><trkpt lat="44.6154677" lon="11.6519263"><ele>7.0</ele><time>2026-04-22T10:59:31.344Z</time></trkpt><trkpt lat="44.615452" lon="11.6518265"><ele>7.0</ele><time>2026-04-22T10:59:32.352Z</time></trkpt><trkpt lat="44.6154375" lon="11.6517269"><ele>7.0</ele><time>2026-04-22T10:59:33.359Z</time></trkpt><trkpt lat="44.6154233" lon="11.6516262"><ele>7.0</ele><time>2026-04-22T10:59:34.347Z</time></trkpt><trkpt lat="44.6154083" lon="11.6515256"><ele>7.0</ele><time>2026-04-22T10:59:35.351Z</time></trkpt><trkpt lat="44.6153937" lon="11.6514249"><ele>7.0</ele><time>2026-04-22T10:59:36.347Z</time></trkpt><trkpt lat="44.6153791" lon="11.6513235"><ele>7.0</ele><time>2026-04-22T10:59:37.348Z</time></trkpt><trkpt lat="44.6153646" lon="11.6512227"><ele>7.0</ele><time>2026-04-22T10:59:38.354Z</time></trkpt><trkpt lat="44.615349" lon="11.6511219"><ele>7.0</ele><time>2026-04-22T10:59:39.348Z</time></trkpt><trkpt lat="44.6153342" lon="11.651021"><ele>7.0</ele><time>2026-04-22T10:59:40.339Z</time></trkpt><trkpt lat="44.6153195" lon="11.6509199"><ele>7.0</ele><time>2026-04-22T10:59:41.361Z</time></trkpt><trkpt lat="44.6153052" lon="11.6508187"><ele>7.0</ele><time>2026-04-22T10:59:42.351Z</time></trkpt><trkpt lat="44.6152909" lon="11.6507172"><ele>7.0</ele><time>2026-04-22T10:59:43.341Z</time></trkpt><trkpt lat="44.6152766" lon="11.6506162"><ele>7.0</ele><time>2026-04-22T10:59:44.35Z</time></trkpt><trkpt lat="44.6152617" lon="11.6505154"><ele>7.0</ele><time>2026-04-22T10:59:45.344Z</time></trkpt><trkpt lat="44.6152461" lon="11.6504139"><ele>7.0</ele><time>2026-04-22T10:59:46.346Z</time></trkpt><trkpt lat="44.6152326" lon="11.6503126"><ele>7.0</ele><time>2026-04-22T10:59:47.346Z</time></trkpt><trkpt lat="44.615218" lon="11.6502116"><ele>6.857142857142857</ele><time>2026-04-22T10:59:48.35Z</time></trkpt><trkpt lat="44.615203" lon="11.6501113"><ele>6.714285714285714</ele><time>2026-04-22T10:59:49.346Z</time></trkpt><trkpt lat="44.6151886" lon="11.650011"><ele>6.571428571428571</ele><time>2026-04-22T10:59:50.346Z</time></trkpt><trkpt lat="44.6151741" lon="11.6499117"><ele>6.428571428571429</ele><time>2026-04-22T10:59:51.358Z</time></trkpt><trkpt lat="44.6151587" lon="11.6498132"><ele>6.285714285714286</ele><time>2026-04-22T10:59:52.345Z</time></trkpt><trkpt lat="44.6151449" lon="11.6497161"><ele>6.142857142857142</ele><time>2026-04-22T10:59:53.341Z</time></trkpt><trkpt lat="44.6151312" lon="11.6496186"><ele>6.0</ele><time>2026-04-22T10:59:54.352Z</time></trkpt><trkpt lat="44.6151175" lon="11.6495214"><ele>6.142857142857142</ele><time>2026-04-22T10:59:55.347Z</time></trkpt><trkpt lat="44.6151032" lon="11.6494235"><ele>6.285714285714286</ele><time>2026-04-22T10:59:56.353Z</time></trkpt><trkpt lat="44.6150893" lon="11.649325"><ele>6.428571428571429</ele><time>2026-04-22T10:59:57.36Z</time></trkpt><trkpt lat="44.6150752" lon="11.6492274"><ele>6.571428571428571</ele><time>2026-04-22T10:59:58.361Z</time></trkpt><trkpt lat="44.6150612" lon="11.6491289"><ele>6.714285714285714</ele><time>2026-04-22T10:59:59.355Z</time></trkpt><trkpt lat="44.6150476" lon="11.6490307"><ele>6.857142857142857</ele><time>2026-04-22T11:00:00.356Z</time></trkpt><trkpt lat="44.615033" lon="11.6489314"><ele>7.0</ele><time>2026-04-22T11:00:01.349Z</time></trkpt><trkpt lat="44.6150189" lon="11.6488332"><ele>7.0</ele><time>2026-04-22T11:00:02.348Z</time></trkpt><trkpt lat="44.615005" lon="11.6487342"><ele>7.0</ele><time>2026-04-22T11:00:03.349Z</time></trkpt><trkpt lat="44.6149907" lon="11.6486371"><ele>7.0</ele><time>2026-04-22T11:00:04.343Z</time></trkpt><trkpt lat="44.6149766" lon="11.6485399"><ele>7.0</ele><time>2026-04-22T11:00:05.342Z</time></trkpt><trkpt lat="44.6149632" lon="11.648443"><ele>7.0</ele><time>2026-04-22T11:00:06.342Z</time></trkpt><trkpt lat="44.6149495" lon="11.6483466"><ele>7.0</ele><time>2026-04-22T11:00:07.341Z</time></trkpt><trkpt lat="44.6149357" lon="11.6482506"><ele>7.0</ele><time>2026-04-22T11:00:08.35Z</time></trkpt><trkpt lat="44.6149216" lon="11.6481542"><ele>7.142857142857142</ele><time>2026-04-22T11:00:09.349Z</time></trkpt><trkpt lat="44.6149073" lon="11.6480576"><ele>7.285714285714286</ele><time>2026-04-22T11:00:10.346Z</time></trkpt><trkpt lat="44.6148934" lon="11.6479614"><ele>7.428571428571429</ele><time>2026-04-22T11:00:11.344Z</time></trkpt><trkpt lat="44.6148801" lon="11.6478654"><ele>7.571428571428571</ele><time>2026-04-22T11:00:12.349Z</time></trkpt><trkpt lat="44.6148666" lon="11.6477693"><ele>7.7142857142857135</ele><time>2026-04-22T11:00:13.351Z</time></trkpt><trkpt lat="44.614852" lon="11.6476726"><ele>7.857142857142857</ele><time>2026-04-22T11:00:14.358Z</time></trkpt><trkpt lat="44.6148374" lon="11.6475766"><ele>8.0</ele><time>2026-04-22T11:00:15.351Z</time></trkpt><trkpt lat="44.6148231" lon="11.6474799"><ele>8.0</ele><time>2026-04-22T11:00:16.339Z</time></trkpt><trkpt lat="44.6148086" lon="11.6473841"><ele>7.999999999999999</ele><time>2026-04-22T11:00:17.342Z</time></trkpt><trkpt lat="44.6147933" lon="11.6472882"><ele>8.0</ele><time>2026-04-22T11:00:18.345Z</time></trkpt><trkpt lat="44.614778" lon="11.6471923"><ele>8.0</ele><time>2026-04-22T11:00:19.354Z</time></trkpt><trkpt lat="44.6147621" lon="11.6470964"><ele>7.999999999999999</ele><time>2026-04-22T11:00:20.343Z</time></trkpt><trkpt lat="44.6147454" lon="11.6470006"><ele>8.0</ele><time>2026-04-22T11:00:21.343Z</time></trkpt><trkpt lat="44.6147284" lon="11.6469045"><ele>8.0</ele><time>2026-04-22T11:00:22.358Z</time></trkpt><trkpt lat="44.614711" lon="11.6468085"><ele>8.0</ele><time>2026-04-22T11:00:23.348Z</time></trkpt><trkpt lat="44.6146933" lon="11.6467126"><ele>7.999999999999999</ele><time>2026-04-22T11:00:24.353Z</time></trkpt><trkpt lat="44.6146752" lon="11.6466164"><ele>8.0</ele><time>2026-04-22T11:00:25.352Z</time></trkpt><trkpt lat="44.6146577" lon="11.6465204"><ele>8.0</ele><time>2026-04-22T11:00:26.341Z</time></trkpt><trkpt lat="44.6146398" lon="11.6464241"><ele>7.999999999999999</ele><time>2026-04-22T11:00:27.344Z</time></trkpt><trkpt lat="44.6146211" lon="11.6463291"><ele>8.0</ele><time>2026-04-22T11:00:28.361Z</time></trkpt><trkpt lat="44.614602" lon="11.646233"><ele>8.0</ele><time>2026-04-22T11:00:29.342Z</time></trkpt><trkpt lat="44.6145831" lon="11.6461368"><ele>8.0</ele><time>2026-04-22T11:00:30.343Z</time></trkpt><trkpt lat="44.6145622" lon="11.6460405"><ele>7.999999999999999</ele><time>2026-04-22T11:00:31.35Z</time></trkpt><trkpt lat="44.6145423" lon="11.6459442"><ele>8.0</ele><time>2026-04-22T11:00:32.346Z</time></trkpt><trkpt lat="44.6145223" lon="11.6458474"><ele>8.0</ele><time>2026-04-22T11:00:33.349Z</time></trkpt><trkpt lat="44.6145021" lon="11.6457504"><ele>7.999999999999999</ele><time>2026-04-22T11:00:34.345Z</time></trkpt><trkpt lat="44.6144818" lon="11.6456526"><ele>8.0</ele><time>2026-04-22T11:00:35.346Z</time></trkpt><trkpt lat="44.6144634" lon="11.6455549"><ele>8.0</ele><time>2026-04-22T11:00:36.354Z</time></trkpt><trkpt lat="44.6144444" lon="11.6454571"><ele>7.7142857142857135</ele><time>2026-04-22T11:00:37.341Z</time></trkpt><trkpt lat="44.6144249" lon="11.6453602"><ele>7.428571428571428</ele><time>2026-04-22T11:00:38.351Z</time></trkpt><trkpt lat="44.6144054" lon="11.6452634"><ele>7.142857142857142</ele><time>2026-04-22T11:00:39.344Z</time></trkpt><trkpt lat="44.6143863" lon="11.6451667"><ele>6.857142857142857</ele><time>2026-04-22T11:00:40.348Z</time></trkpt><trkpt lat="44.6143671" lon="11.6450704"><ele>6.571428571428571</ele><time>2026-04-22T11:00:41.352Z</time></trkpt><trkpt lat="44.6143467" lon="11.6449741"><ele>6.285714285714285</ele><time>2026-04-22T11:00:42.354Z</time></trkpt><trkpt lat="44.614327" lon="11.6448783"><ele>6.0</ele><time>2026-04-22T11:00:43.345Z</time></trkpt><trkpt lat="44.614308" lon="11.6447832"><ele>5.999999999999999</ele><time>2026-04-22T11:00:44.348Z</time></trkpt><trkpt lat="44.6142887" lon="11.6446885"><ele>6.0</ele><time>2026-04-22T11:00:45.361Z</time></trkpt><trkpt lat="44.6142689" lon="11.6445923"><ele>6.0</ele><time>2026-04-22T11:00:46.342Z</time></trkpt><trkpt lat="44.6142492" lon="11.6444955"><ele>6.0</ele><time>2026-04-22T11:00:47.351Z</time></trkpt><trkpt lat="44.6142299" lon="11.6443992"><ele>6.0</ele><time>2026-04-22T11:00:48.355Z</time></trkpt><trkpt lat="44.6142098" lon="11.6443028"><ele>5.999999999999999</ele><time>2026-04-22T11:00:49.344Z</time></trkpt><trkpt lat="44.6141908" lon="11.6442063"><ele>6.0</ele><time>2026-04-22T11:00:50.334Z</time></trkpt><trkpt lat="44.6141715" lon="11.6441098"><ele>5.999999999999999</ele><time>2026-04-22T11:00:51.349Z</time></trkpt><trkpt lat="44.6141524" lon="11.6440136"><ele>6.0</ele><time>2026-04-22T11:00:52.35Z</time></trkpt><trkpt lat="44.6141347" lon="11.6439172"><ele>6.0</ele><time>2026-04-22T11:00:53.332Z</time></trkpt><trkpt lat="44.6141168" lon="11.6438209"><ele>6.0</ele><time>2026-04-22T11:00:54.351Z</time></trkpt><trkpt lat="44.6140986" lon="11.6437243"><ele>6.0</ele><time>2026-04-22T11:00:55.348Z</time></trkpt><trkpt lat="44.6140796" lon="11.6436281"><ele>5.999999999999999</ele><time>2026-04-22T11:00:56.332Z</time></trkpt><trkpt lat="44.6140604" lon="11.643532"><ele>6.0</ele><time>2026-04-22T11:00:57.346Z</time></trkpt><trkpt lat="44.6140415" lon="11.6434359"><ele>6.285714285714285</ele><time>2026-04-22T11:00:58.349Z</time></trkpt><trkpt lat="44.6140237" lon="11.64334"><ele>6.571428571428571</ele><time>2026-04-22T11:00:59.351Z</time></trkpt><trkpt lat="44.6140066" lon="11.643245"><ele>6.857142857142857</ele><time>2026-04-22T11:01:00.345Z</time></trkpt><trkpt lat="44.6139899" lon="11.6431509"><ele>7.142857142857142</ele><time>2026-04-22T11:01:01.333Z</time></trkpt><trkpt lat="44.6139727" lon="11.6430567"><ele>7.428571428571428</ele><time>2026-04-22T11:01:02.355Z</time></trkpt><trkpt lat="44.6139535" lon="11.642964"><ele>7.7142857142857135</ele><time>2026-04-22T11:01:03.347Z</time></trkpt><trkpt lat="44.6139342" lon="11.6428741"><ele>8.0</ele><time>2026-04-22T11:01:04.337Z</time></trkpt><trkpt lat="44.6139156" lon="11.6427881"><ele>8.75</ele><time>2026-04-22T11:01:05.354Z</time></trkpt><trkpt lat="44.6138683" lon="11.6426294"><ele>9.5</ele><time>2026-04-22T11:01:07.339Z</time></trkpt><trkpt lat="44.6138581" lon="11.6424696"><ele>10.25</ele><time>2026-04-22T11:01:09.362Z</time></trkpt><trkpt lat="44.6139411" lon="11.6423579"><ele>11.0</ele><time>2026-04-22T11:01:11.34Z</time></trkpt><trkpt lat="44.6140371" lon="11.6422634"><ele>11.0</ele><time>2026-04-22T11:01:13.35Z</time></trkpt><trkpt lat="44.6141361" lon="11.6421627"><ele>11.0</ele><time>2026-04-22T11:01:15.354Z</time></trkpt><trkpt lat="44.6142381" lon="11.6420609"><ele>11.0</ele><time>2026-04-22T11:01:17.348Z</time></trkpt><trkpt lat="44.6143431" lon="11.6419628"><ele>11.0</ele><time>2026-04-22T11:01:19.35Z</time></trkpt><trkpt lat="44.6143951" lon="11.6419129"><ele>11.0</ele><time>2026-04-22T11:01:20.34Z</time></trkpt><trkpt lat="44.6144969" lon="11.6418073"><ele>11.0</ele><time>2026-04-22T11:01:22.339Z</time></trkpt><trkpt lat="44.6145487" lon="11.6417544"><ele>11.0</ele><time>2026-04-22T11:01:23.341Z</time></trkpt><trkpt lat="44.6146012" lon="11.6417013"><ele>11.0</ele><time>2026-04-22T11:01:24.348Z</time></trkpt><trkpt lat="44.6146545" lon="11.6416481"><ele>11.0</ele><time>2026-04-22T11:01:25.348Z</time></trkpt><trkpt lat="44.6147084" lon="11.6415947"><ele>11.0</ele><time>2026-04-22T11:01:26.342Z</time></trkpt><trkpt lat="44.6147614" lon="11.6415382"><ele>11.0</ele><time>2026-04-22T11:01:27.35Z</time></trkpt><trkpt lat="44.6148138" lon="11.641481"><ele>11.0</ele><time>2026-04-22T11:01:28.351Z</time></trkpt><trkpt lat="44.6148672" lon="11.6414259"><ele>11.0</ele><time>2026-04-22T11:01:29.341Z</time></trkpt><trkpt lat="44.6149203" lon="11.6413691"><ele>11.0</ele><time>2026-04-22T11:01:30.348Z</time></trkpt><trkpt lat="44.614973" lon="11.6413115"><ele>11.0</ele><time>2026-04-22T11:01:31.355Z</time></trkpt><trkpt lat="44.6150255" lon="11.6412541"><ele>11.0</ele><time>2026-04-22T11:01:32.347Z</time></trkpt><trkpt lat="44.615078" lon="11.6411979"><ele>11.0</ele><time>2026-04-22T11:01:33.342Z</time></trkpt><trkpt lat="44.6151319" lon="11.6411439"><ele>11.0</ele><time>2026-04-22T11:01:34.341Z</time></trkpt><trkpt lat="44.6151884" lon="11.641096"><ele>11.0</ele><time>2026-04-22T11:01:35.352Z</time></trkpt><trkpt lat="44.6152472" lon="11.6410519"><ele>10.571428571428571</ele><time>2026-04-22T11:01:36.341Z</time></trkpt><trkpt lat="44.6153037" lon="11.6410039"><ele>10.142857142857142</ele><time>2026-04-22T11:01:37.348Z</time></trkpt><trkpt lat="44.615357" lon="11.640948"><ele>9.714285714285714</ele><time>2026-04-22T11:01:38.354Z</time></trkpt><trkpt lat="44.6154085" lon="11.6408883"><ele>9.285714285714285</ele><time>2026-04-22T11:01:39.34Z</time></trkpt><trkpt lat="44.615462" lon="11.6408316"><ele>8.857142857142856</ele><time>2026-04-22T11:01:40.34Z</time></trkpt><trkpt lat="44.6155156" lon="11.6407775"><ele>8.428571428571429</ele><time>2026-04-22T11:01:41.35Z</time></trkpt><trkpt lat="44.6155694" lon="11.6407233"><ele>8.0</ele><time>2026-04-22T11:01:42.341Z</time></trkpt><trkpt lat="44.6156232" lon="11.6406709"><ele>7.833333333333333</ele><time>2026-04-22T11:01:43.336Z</time></trkpt><trkpt lat="44.6156774" lon="11.6406199"><ele>7.666666666666666</ele><time>2026-04-22T11:01:44.348Z</time></trkpt><trkpt lat="44.6157315" lon="11.6405696"><ele>7.5</ele><time>2026-04-22T11:01:45.348Z</time></trkpt><trkpt lat="44.6157843" lon="11.6405185"><ele>7.333333333333334</ele><time>2026-04-22T11:01:46.335Z</time></trkpt><trkpt lat="44.6158362" lon="11.6404664"><ele>7.166666666666667</ele><time>2026-04-22T11:01:47.359Z</time></trkpt><trkpt lat="44.6159353" lon="11.6403615"><ele>7.0</ele><time>2026-04-22T11:01:49.352Z</time></trkpt><trkpt lat="44.6160329" lon="11.6402606"><ele>7.000000000000001</ele><time>2026-04-22T11:01:51.334Z</time></trkpt><trkpt lat="44.6161265" lon="11.6401656"><ele>7.0</ele><time>2026-04-22T11:01:53.345Z</time></trkpt><trkpt lat="44.6162105" lon="11.6400835"><ele>7.0</ele><time>2026-04-22T11:01:55.344Z</time></trkpt><trkpt lat="44.6162808" lon="11.6400132"><ele>7.0</ele><time>2026-04-22T11:01:57.345Z</time></trkpt><trkpt lat="44.616335" lon="11.6399603"><ele>7.000000000000001</ele><time>2026-04-22T11:01:59.352Z</time></trkpt><trkpt lat="44.6163873" lon="11.6398976"><ele>7.0</ele><time>2026-04-22T11:02:02.356Z</time></trkpt><trkpt lat="44.6164001" lon="11.6397972"><ele>7.000000000000001</ele><time>2026-04-22T11:02:07.343Z</time></trkpt><trkpt lat="44.6164319" lon="11.6398754"><ele>7.0</ele><time>2026-04-22T11:04:30.346Z</time></trkpt><trkpt lat="44.616506" lon="11.6397992"><ele>7.0</ele><time>2026-04-22T11:04:34.339Z</time></trkpt><trkpt lat="44.6165642" lon="11.6397397"><ele>7.0</ele><time>2026-04-22T11:04:36.346Z</time></trkpt><trkpt lat="44.6166278" lon="11.639687"><ele>7.000000000000001</ele><time>2026-04-22T11:04:38.342Z</time></trkpt><trkpt lat="44.6166933" lon="11.6396211"><ele>7.0</ele><time>2026-04-22T11:04:40.341Z</time></trkpt><trkpt lat="44.6167623" lon="11.6395488"><ele>7.0</ele><time>2026-04-22T11:04:42.346Z</time></trkpt><trkpt lat="44.6168348" lon="11.6394749"><ele>6.999999999999999</ele><time>2026-04-22T11:04:44.34Z</time></trkpt><trkpt lat="44.6169119" lon="11.6393999"><ele>6.999999999999999</ele><time>2026-04-22T11:04:46.339Z</time></trkpt><trkpt lat="44.6169902" lon="11.6393223"><ele>7.0</ele><time>2026-04-22T11:04:48.349Z</time></trkpt><trkpt lat="44.617069" lon="11.6392397"><ele>7.0</ele><time>2026-04-22T11:04:50.34Z</time></trkpt><trkpt lat="44.6171508" lon="11.6391562"><ele>7.0</ele><time>2026-04-22T11:04:52.349Z</time></trkpt><trkpt lat="44.6172347" lon="11.6390719"><ele>6.999999999999999</ele><time>2026-04-22T11:04:54.345Z</time></trkpt><trkpt lat="44.6173195" lon="11.6389848"><ele>6.999999999999999</ele><time>2026-04-22T11:04:56.345Z</time></trkpt><trkpt lat="44.6174034" lon="11.6388977"><ele>7.0</ele><time>2026-04-22T11:04:58.33Z</time></trkpt><trkpt lat="44.6174849" lon="11.6388056"><ele>7.0</ele><time>2026-04-22T11:05:00.342Z</time></trkpt><trkpt lat="44.6175718" lon="11.6387172"><ele>7.3999999999999995</ele><time>2026-04-22T11:05:02.353Z</time></trkpt><trkpt lat="44.6176618" lon="11.6386308"><ele>7.799999999999999</ele><time>2026-04-22T11:05:04.356Z</time></trkpt><trkpt lat="44.6177504" lon="11.6385396"><ele>8.2</ele><time>2026-04-22T11:05:06.345Z</time></trkpt><trkpt lat="44.6178396" lon="11.6384478"><ele>8.6</ele><time>2026-04-22T11:05:08.352Z</time></trkpt><trkpt lat="44.6179316" lon="11.6383565"><ele>9.0</ele><time>2026-04-22T11:05:10.336Z</time></trkpt><trkpt lat="44.6180232" lon="11.6382625"><ele>9.0</ele><time>2026-04-22T11:05:12.343Z</time></trkpt><trkpt lat="44.6181127" lon="11.6381644"><ele>9.0</ele><time>2026-04-22T11:05:14.348Z</time></trkpt><trkpt lat="44.6182078" lon="11.638078"><ele>9.0</ele><time>2026-04-22T11:05:16.343Z</time></trkpt><trkpt lat="44.6183028" lon="11.6379918"><ele>9.0</ele><time>2026-04-22T11:05:18.348Z</time></trkpt><trkpt lat="44.618397" lon="11.6378966"><ele>8.25</ele><time>2026-04-22T11:05:20.346Z</time></trkpt><trkpt lat="44.6184915" lon="11.6378006"><ele>7.5</ele><time>2026-04-22T11:05:22.345Z</time></trkpt><trkpt lat="44.6185863" lon="11.637704"><ele>6.75</ele><time>2026-04-22T11:05:24.346Z</time></trkpt><trkpt lat="44.6186801" lon="11.6376067"><ele>6.0</ele><time>2026-04-22T11:05:26.353Z</time></trkpt><trkpt lat="44.6187757" lon="11.6375119"><ele>6.0</ele><time>2026-04-22T11:05:28.342Z</time></trkpt><trkpt lat="44.6188706" lon="11.6374147"><ele>6.0</ele><time>2026-04-22T11:05:30.342Z</time></trkpt><trkpt lat="44.6189664" lon="11.6373177"><ele>6.0</ele><time>2026-04-22T11:05:32.353Z</time></trkpt><trkpt lat="44.6190631" lon="11.6372215"><ele>6.0</ele><time>2026-04-22T11:05:34.355Z</time></trkpt><trkpt lat="44.6191581" lon="11.6371242"><ele>6.0</ele><time>2026-04-22T11:05:36.344Z</time></trkpt><trkpt lat="44.619253" lon="11.6370269"><ele>6.0</ele><time>2026-04-22T11:05:38.34Z</time></trkpt><trkpt lat="44.6193484" lon="11.6369283"><ele>6.0</ele><time>2026-04-22T11:05:40.353Z</time></trkpt><trkpt lat="44.6194433" lon="11.6368244"><ele>6.0</ele><time>2026-04-22T11:05:42.349Z</time></trkpt><trkpt lat="44.6195435" lon="11.6367255"><ele>7.0</ele><time>2026-04-22T11:05:44.345Z</time></trkpt><trkpt lat="44.619645" lon="11.6366274"><ele>8.0</ele><time>2026-04-22T11:05:46.342Z</time></trkpt><trkpt lat="44.6197459" lon="11.636527"><ele>9.0</ele><time>2026-04-22T11:05:48.35Z</time></trkpt><trkpt lat="44.6198467" lon="11.6364232"><ele>10.0</ele><time>2026-04-22T11:05:50.347Z</time></trkpt><trkpt lat="44.6199459" lon="11.636319"><ele>10.0</ele><time>2026-04-22T11:05:52.347Z</time></trkpt><trkpt lat="44.6200421" lon="11.6362174"><ele>10.0</ele><time>2026-04-22T11:05:54.351Z</time></trkpt><trkpt lat="44.6201428" lon="11.6361095"><ele>10.0</ele><time>2026-04-22T11:05:56.35Z</time></trkpt><trkpt lat="44.6201951" lon="11.6360569"><ele>10.0</ele><time>2026-04-22T11:05:57.342Z</time></trkpt><trkpt lat="44.620246" lon="11.6360027"><ele>10.0</ele><time>2026-04-22T11:05:58.352Z</time></trkpt><trkpt lat="44.6202973" lon="11.6359476"><ele>10.0</ele><time>2026-04-22T11:05:59.351Z</time></trkpt><trkpt lat="44.62035" lon="11.6358911"><ele>9.857142857142858</ele><time>2026-04-22T11:06:00.35Z</time></trkpt><trkpt lat="44.6204044" lon="11.6358394"><ele>9.714285714285715</ele><time>2026-04-22T11:06:01.346Z</time></trkpt><trkpt lat="44.6204573" lon="11.6357879"><ele>9.571428571428573</ele><time>2026-04-22T11:06:02.343Z</time></trkpt><trkpt lat="44.6205104" lon="11.6357365"><ele>9.428571428571429</ele><time>2026-04-22T11:06:03.333Z</time></trkpt><trkpt lat="44.6205649" lon="11.635687"><ele>9.285714285714286</ele><time>2026-04-22T11:06:04.348Z</time></trkpt><trkpt lat="44.6206173" lon="11.6356355"><ele>9.142857142857144</ele><time>2026-04-22T11:06:05.352Z</time></trkpt><trkpt lat="44.6206706" lon="11.6355844"><ele>9.0</ele><time>2026-04-22T11:06:06.344Z</time></trkpt><trkpt lat="44.6207245" lon="11.6355331"><ele>9.000000000000002</ele><time>2026-04-22T11:06:07.356Z</time></trkpt><trkpt lat="44.6207773" lon="11.635482"><ele>9.0</ele><time>2026-04-22T11:06:08.338Z</time></trkpt><trkpt lat="44.6208311" lon="11.6354311"><ele>9.0</ele><time>2026-04-22T11:06:09.344Z</time></trkpt><trkpt lat="44.620883" lon="11.6353766"><ele>9.0</ele><time>2026-04-22T11:06:10.34Z</time></trkpt><trkpt lat="44.6209352" lon="11.6353207"><ele>9.0</ele><time>2026-04-22T11:06:11.327Z</time></trkpt><trkpt lat="44.6209876" lon="11.635266"><ele>9.000000000000002</ele><time>2026-04-22T11:06:12.34Z</time></trkpt><trkpt lat="44.6210404" lon="11.635213"><ele>9.0</ele><time>2026-04-22T11:06:13.349Z</time></trkpt><trkpt lat="44.6210932" lon="11.6351605"><ele>8.875</ele><time>2026-04-22T11:06:14.337Z</time></trkpt><trkpt lat="44.6211459" lon="11.635109"><ele>8.75</ele><time>2026-04-22T11:06:15.35Z</time></trkpt><trkpt lat="44.6211986" lon="11.6350573"><ele>8.625</ele><time>2026-04-22T11:06:16.335Z</time></trkpt><trkpt lat="44.6212509" lon="11.635006"><ele>8.5</ele><time>2026-04-22T11:06:17.332Z</time></trkpt><trkpt lat="44.6213029" lon="11.6349542"><ele>8.375</ele><time>2026-04-22T11:06:18.339Z</time></trkpt><trkpt lat="44.6213557" lon="11.6349028"><ele>8.25</ele><time>2026-04-22T11:06:19.35Z</time></trkpt><trkpt lat="44.621408" lon="11.634851"><ele>8.125</ele><time>2026-04-22T11:06:20.348Z</time></trkpt><trkpt lat="44.6214602" lon="11.6348"><ele>8.0</ele><time>2026-04-22T11:06:21.346Z</time></trkpt><trkpt lat="44.6215124" lon="11.6347492"><ele>7.800000000000001</ele><time>2026-04-22T11:06:22.344Z</time></trkpt><trkpt lat="44.6215643" lon="11.6346987"><ele>7.6000000000000005</ele><time>2026-04-22T11:06:23.344Z</time></trkpt><trkpt lat="44.6216661" lon="11.6345965"><ele>7.3999999999999995</ele><time>2026-04-22T11:06:25.351Z</time></trkpt><trkpt lat="44.6217675" lon="11.6344946"><ele>7.199999999999999</ele><time>2026-04-22T11:06:27.338Z</time></trkpt><trkpt lat="44.6218708" lon="11.6343955"><ele>7.0</ele><time>2026-04-22T11:06:29.351Z</time></trkpt><trkpt lat="44.6219726" lon="11.6342941"><ele>6.75</ele><time>2026-04-22T11:06:31.335Z</time></trkpt><trkpt lat="44.6220738" lon="11.634192"><ele>6.5</ele><time>2026-04-22T11:06:33.348Z</time></trkpt><trkpt lat="44.6221759" lon="11.6340898"><ele>6.25</ele><time>2026-04-22T11:06:35.343Z</time></trkpt><trkpt lat="44.6222779" lon="11.6339891"><ele>6.0</ele><time>2026-04-22T11:06:37.349Z</time></trkpt><trkpt lat="44.6223794" lon="11.6338883"><ele>6.0</ele><time>2026-04-22T11:06:39.348Z</time></trkpt><trkpt lat="44.6224808" lon="11.633787"><ele>6.0</ele><time>2026-04-22T11:06:41.343Z</time></trkpt><trkpt lat="44.6225809" lon="11.6336853"><ele>6.0</ele><time>2026-04-22T11:06:43.352Z</time></trkpt><trkpt lat="44.6226801" lon="11.6335814"><ele>6.0</ele><time>2026-04-22T11:06:45.338Z</time></trkpt><trkpt lat="44.6227822" lon="11.6334809"><ele>6.25</ele><time>2026-04-22T11:06:47.349Z</time></trkpt><trkpt lat="44.6228843" lon="11.6333806"><ele>6.5</ele><time>2026-04-22T11:06:49.347Z</time></trkpt><trkpt lat="44.6229862" lon="11.6332782"><ele>6.75</ele><time>2026-04-22T11:06:51.358Z</time></trkpt><trkpt lat="44.6230878" lon="11.6331733"><ele>7.0</ele><time>2026-04-22T11:06:53.35Z</time></trkpt><trkpt lat="44.62319" lon="11.6330707"><ele>7.0</ele><time>2026-04-22T11:06:55.344Z</time></trkpt><trkpt lat="44.6232422" lon="11.63302"><ele>7.0</ele><time>2026-04-22T11:06:56.341Z</time></trkpt><trkpt lat="44.623294" lon="11.6329685"><ele>7.0</ele><time>2026-04-22T11:06:57.345Z</time></trkpt><trkpt lat="44.6233458" lon="11.6329171"><ele>7.0</ele><time>2026-04-22T11:06:58.346Z</time></trkpt><trkpt lat="44.623397" lon="11.6328641"><ele>7.0</ele><time>2026-04-22T11:06:59.346Z</time></trkpt><trkpt lat="44.6234479" lon="11.6328116"><ele>7.0</ele><time>2026-04-22T11:07:00.344Z</time></trkpt><trkpt lat="44.6234996" lon="11.6327596"><ele>7.0</ele><time>2026-04-22T11:07:01.348Z</time></trkpt><trkpt lat="44.6235513" lon="11.6327076"><ele>7.0</ele><time>2026-04-22T11:07:02.349Z</time></trkpt><trkpt lat="44.623603" lon="11.6326563"><ele>7.125</ele><time>2026-04-22T11:07:03.346Z</time></trkpt><trkpt lat="44.6236545" lon="11.6326043"><ele>7.25</ele><time>2026-04-22T11:07:04.343Z</time></trkpt><trkpt lat="44.623706" lon="11.6325528"><ele>7.375</ele><time>2026-04-22T11:07:05.349Z</time></trkpt><trkpt lat="44.6237574" lon="11.6325013"><ele>7.5</ele><time>2026-04-22T11:07:06.351Z</time></trkpt><trkpt lat="44.623809" lon="11.63245"><ele>7.625</ele><time>2026-04-22T11:07:07.341Z</time></trkpt><trkpt lat="44.6238614" lon="11.6323998"><ele>7.75</ele><time>2026-04-22T11:07:08.342Z</time></trkpt><trkpt lat="44.6239141" lon="11.6323492"><ele>7.875</ele><time>2026-04-22T11:07:09.347Z</time></trkpt><trkpt lat="44.623966" lon="11.6322955"><ele>8.0</ele><time>2026-04-22T11:07:10.343Z</time></trkpt><trkpt lat="44.6240182" lon="11.6322435"><ele>8.0</ele><time>2026-04-22T11:07:11.358Z</time></trkpt><trkpt lat="44.6240708" lon="11.6321929"><ele>8.0</ele><time>2026-04-22T11:07:12.343Z</time></trkpt><trkpt lat="44.6241232" lon="11.6321418"><ele>8.0</ele><time>2026-04-22T11:07:13.348Z</time></trkpt><trkpt lat="44.6241744" lon="11.6320891"><ele>8.0</ele><time>2026-04-22T11:07:14.34Z</time></trkpt><trkpt lat="44.6242259" lon="11.6320359"><ele>8.0</ele><time>2026-04-22T11:07:15.345Z</time></trkpt><trkpt lat="44.6242775" lon="11.6319836"><ele>8.0</ele><time>2026-04-22T11:07:16.34Z</time></trkpt><trkpt lat="44.624329" lon="11.631932"><ele>8.0</ele><time>2026-04-22T11:07:17.346Z</time></trkpt><trkpt lat="44.6243805" lon="11.631881"><ele>8.0</ele><time>2026-04-22T11:07:18.352Z</time></trkpt><trkpt lat="44.6244832" lon="11.6317798"><ele>8.0</ele><time>2026-04-22T11:07:20.356Z</time></trkpt><trkpt lat="44.6245843" lon="11.6316753"><ele>8.0</ele><time>2026-04-22T11:07:22.337Z</time></trkpt><trkpt lat="44.6246865" lon="11.6315731"><ele>8.0</ele><time>2026-04-22T11:07:24.349Z</time></trkpt><trkpt lat="44.6247894" lon="11.6314717"><ele>8.0</ele><time>2026-04-22T11:07:26.341Z</time></trkpt><trkpt lat="44.6248406" lon="11.6314194"><ele>8.0</ele><time>2026-04-22T11:07:27.352Z</time></trkpt><trkpt lat="44.624943" lon="11.6313161"><ele>8.0</ele><time>2026-04-22T11:07:29.333Z</time></trkpt><trkpt lat="44.6249945" lon="11.6312644"><ele>8.0</ele><time>2026-04-22T11:07:30.335Z</time></trkpt><trkpt lat="44.6250462" lon="11.6312124"><ele>8.0</ele><time>2026-04-22T11:07:31.346Z</time></trkpt><trkpt lat="44.6250976" lon="11.6311602"><ele>8.0</ele><time>2026-04-22T11:07:32.33Z</time></trkpt><trkpt lat="44.6251491" lon="11.6311061"><ele>8.0</ele><time>2026-04-22T11:07:33.348Z</time></trkpt><trkpt lat="44.6252015" lon="11.6310544"><ele>8.0</ele><time>2026-04-22T11:07:34.346Z</time></trkpt><trkpt lat="44.6252537" lon="11.6310016"><ele>8.0</ele><time>2026-04-22T11:07:35.341Z</time></trkpt><trkpt lat="44.6253066" lon="11.630948"><ele>8.0</ele><time>2026-04-22T11:07:36.345Z</time></trkpt><trkpt lat="44.625359" lon="11.6308937"><ele>8.0</ele><time>2026-04-22T11:07:37.357Z</time></trkpt><trkpt lat="44.6254119" lon="11.6308402"><ele>7.999999999999999</ele><time>2026-04-22T11:07:38.348Z</time></trkpt><trkpt lat="44.6254647" lon="11.6307874"><ele>8.0</ele><time>2026-04-22T11:07:39.341Z</time></trkpt><trkpt lat="44.6255171" lon="11.6307338"><ele>8.0</ele><time>2026-04-22T11:07:40.346Z</time></trkpt><trkpt lat="44.6255693" lon="11.6306807"><ele>7.999999999999999</ele><time>2026-04-22T11:07:41.351Z</time></trkpt><trkpt lat="44.6256214" lon="11.6306291"><ele>8.0</ele><time>2026-04-22T11:07:42.35Z</time></trkpt><trkpt lat="44.6256729" lon="11.6305768"><ele>8.0</ele><time>2026-04-22T11:07:43.343Z</time></trkpt><trkpt lat="44.625724" lon="11.630524"><ele>8.0</ele><time>2026-04-22T11:07:44.347Z</time></trkpt><trkpt lat="44.6257753" lon="11.6304716"><ele>8.0</ele><time>2026-04-22T11:07:45.344Z</time></trkpt><trkpt lat="44.6258275" lon="11.6304203"><ele>8.0</ele><time>2026-04-22T11:07:46.351Z</time></trkpt><trkpt lat="44.6258793" lon="11.6303687"><ele>8.0</ele><time>2026-04-22T11:07:47.357Z</time></trkpt><trkpt lat="44.625931" lon="11.6303164"><ele>8.0</ele><time>2026-04-22T11:07:48.345Z</time></trkpt><trkpt lat="44.6259828" lon="11.6302638"><ele>8.0</ele><time>2026-04-22T11:07:49.351Z</time></trkpt><trkpt lat="44.6260357" lon="11.6302131"><ele>8.0</ele><time>2026-04-22T11:07:50.344Z</time></trkpt><trkpt lat="44.6260885" lon="11.6301611"><ele>8.0</ele><time>2026-04-22T11:07:51.349Z</time></trkpt><trkpt lat="44.6261408" lon="11.6301081"><ele>8.0</ele><time>2026-04-22T11:07:52.336Z</time></trkpt><trkpt lat="44.6261928" lon="11.6300558"><ele>7.999999999999999</ele><time>2026-04-22T11:07:53.35Z</time></trkpt><trkpt lat="44.6262452" lon="11.6300035"><ele>8.0</ele><time>2026-04-22T11:07:54.343Z</time></trkpt><trkpt lat="44.6262977" lon="11.6299523"><ele>8.0</ele><time>2026-04-22T11:07:55.343Z</time></trkpt><trkpt lat="44.6263494" lon="11.6299004"><ele>7.999999999999999</ele><time>2026-04-22T11:07:56.344Z</time></trkpt><trkpt lat="44.6264012" lon="11.6298491"><ele>8.0</ele><time>2026-04-22T11:07:57.347Z</time></trkpt><trkpt lat="44.626503" lon="11.6297462"><ele>8.0</ele><time>2026-04-22T11:07:59.35Z</time></trkpt><trkpt lat="44.6266048" lon="11.6296439"><ele>8.0</ele><time>2026-04-22T11:08:01.351Z</time></trkpt><trkpt lat="44.6267079" lon="11.6295428"><ele>7.999999999999999</ele><time>2026-04-22T11:08:03.348Z</time></trkpt><trkpt lat="44.6267593" lon="11.6294913"><ele>8.0</ele><time>2026-04-22T11:08:04.343Z</time></trkpt><trkpt lat="44.6268111" lon="11.6294394"><ele>8.0</ele><time>2026-04-22T11:08:05.35Z</time></trkpt><trkpt lat="44.6268628" lon="11.6293874"><ele>7.999999999999999</ele><time>2026-04-22T11:08:06.347Z</time></trkpt><trkpt lat="44.6269142" lon="11.6293353"><ele>8.0</ele><time>2026-04-22T11:08:07.345Z</time></trkpt><trkpt lat="44.6269661" lon="11.6292831"><ele>8.0</ele><time>2026-04-22T11:08:08.351Z</time></trkpt><trkpt lat="44.6270187" lon="11.6292323"><ele>8.0</ele><time>2026-04-22T11:08:09.342Z</time></trkpt><trkpt lat="44.627071" lon="11.6291804"><ele>7.999999999999999</ele><time>2026-04-22T11:08:10.345Z</time></trkpt><trkpt lat="44.6271233" lon="11.6291278"><ele>8.0</ele><time>2026-04-22T11:08:11.344Z</time></trkpt><trkpt lat="44.6271755" lon="11.6290753"><ele>8.0</ele><time>2026-04-22T11:08:12.347Z</time></trkpt><trkpt lat="44.6272279" lon="11.6290227"><ele>7.999999999999999</ele><time>2026-04-22T11:08:13.348Z</time></trkpt><trkpt lat="44.6272806" lon="11.6289706"><ele>8.0</ele><time>2026-04-22T11:08:14.349Z</time></trkpt><trkpt lat="44.6273328" lon="11.6289184"><ele>8.0</ele><time>2026-04-22T11:08:15.343Z</time></trkpt><trkpt lat="44.6273857" lon="11.6288664"><ele>8.0</ele><time>2026-04-22T11:08:16.34Z</time></trkpt><trkpt lat="44.6274383" lon="11.6288147"><ele>8.0</ele><time>2026-04-22T11:08:17.336Z</time></trkpt><trkpt lat="44.6274896" lon="11.6287603"><ele>8.0</ele><time>2026-04-22T11:08:18.353Z</time></trkpt><trkpt lat="44.6275413" lon="11.6287071"><ele>8.0</ele><time>2026-04-22T11:08:19.352Z</time></trkpt><trkpt lat="44.6275933" lon="11.6286551"><ele>8.0</ele><time>2026-04-22T11:08:20.343Z</time></trkpt><trkpt lat="44.6276456" lon="11.6286022"><ele>8.0</ele><time>2026-04-22T11:08:21.344Z</time></trkpt><trkpt lat="44.6276983" lon="11.6285506"><ele>8.0</ele><time>2026-04-22T11:08:22.35Z</time></trkpt><trkpt lat="44.6277506" lon="11.6284989"><ele>8.0</ele><time>2026-04-22T11:08:23.347Z</time></trkpt><trkpt lat="44.6278034" lon="11.6284479"><ele>8.714285714285714</ele><time>2026-04-22T11:08:24.337Z</time></trkpt><trkpt lat="44.6278565" lon="11.6283972"><ele>9.428571428571427</ele><time>2026-04-22T11:08:25.339Z</time></trkpt><trkpt lat="44.6279084" lon="11.6283441"><ele>10.142857142857142</ele><time>2026-04-22T11:08:26.357Z</time></trkpt><trkpt lat="44.6279602" lon="11.628292"><ele>10.857142857142858</ele><time>2026-04-22T11:08:27.339Z</time></trkpt><trkpt lat="44.6280114" lon="11.6282397"><ele>11.571428571428573</ele><time>2026-04-22T11:08:28.34Z</time></trkpt><trkpt lat="44.6280624" lon="11.6281873"><ele>12.285714285714285</ele><time>2026-04-22T11:08:29.356Z</time></trkpt><trkpt lat="44.6281142" lon="11.628137"><ele>13.0</ele><time>2026-04-22T11:08:30.34Z</time></trkpt><trkpt lat="44.6282162" lon="11.6280354"><ele>13.0</ele><time>2026-04-22T11:08:32.345Z</time></trkpt><trkpt lat="44.6283174" lon="11.6279369"><ele>13.0</ele><time>2026-04-22T11:08:34.344Z</time></trkpt><trkpt lat="44.6284182" lon="11.6278376"><ele>13.0</ele><time>2026-04-22T11:08:36.352Z</time></trkpt><trkpt lat="44.6285182" lon="11.627738"><ele>13.0</ele><time>2026-04-22T11:08:38.344Z</time></trkpt><trkpt lat="44.6286184" lon="11.6276388"><ele>13.5</ele><time>2026-04-22T11:08:40.34Z</time></trkpt><trkpt lat="44.6287176" lon="11.6275393"><ele>14.0</ele><time>2026-04-22T11:08:42.343Z</time></trkpt><trkpt lat="44.6288159" lon="11.6274431"><ele>14.5</ele><time>2026-04-22T11:08:44.34Z</time></trkpt><trkpt lat="44.6289104" lon="11.6273465"><ele>15.0</ele><time>2026-04-22T11:08:46.346Z</time></trkpt><trkpt lat="44.6290033" lon="11.6272518"><ele>15.0</ele><time>2026-04-22T11:08:48.354Z</time></trkpt><trkpt lat="44.6290934" lon="11.6271598"><ele>15.0</ele><time>2026-04-22T11:08:50.347Z</time></trkpt><trkpt lat="44.6291816" lon="11.6270698"><ele>15.0</ele><time>2026-04-22T11:08:52.359Z</time></trkpt><trkpt lat="44.6292642" lon="11.6269767"><ele>15.0</ele><time>2026-04-22T11:08:54.351Z</time></trkpt><trkpt lat="44.6293455" lon="11.6268903"><ele>15.0</ele><time>2026-04-22T11:08:56.345Z</time></trkpt><trkpt lat="44.6294266" lon="11.6268178"><ele>14.2</ele><time>2026-04-22T11:08:58.339Z</time></trkpt><trkpt lat="44.6295037" lon="11.6267476"><ele>13.4</ele><time>2026-04-22T11:09:00.342Z</time></trkpt><trkpt lat="44.6295827" lon="11.6266835"><ele>12.600000000000001</ele><time>2026-04-22T11:09:02.34Z</time></trkpt><trkpt lat="44.6296738" lon="11.6266446"><ele>11.8</ele><time>2026-04-22T11:09:04.349Z</time></trkpt><trkpt lat="44.6297769" lon="11.6266449"><ele>11.0</ele><time>2026-04-22T11:09:06.342Z</time></trkpt><trkpt lat="44.6298849" lon="11.6266549"><ele>11.0</ele><time>2026-04-22T11:09:08.348Z</time></trkpt><trkpt lat="44.6299944" lon="11.6266766"><ele>11.0</ele><time>2026-04-22T11:09:10.347Z</time></trkpt><trkpt lat="44.6301059" lon="11.6267037"><ele>11.0</ele><time>2026-04-22T11:09:12.348Z</time></trkpt><trkpt lat="44.6302185" lon="11.6267337"><ele>11.0</ele><time>2026-04-22T11:09:14.354Z</time></trkpt><trkpt lat="44.6303319" lon="11.6267617"><ele>11.0</ele><time>2026-04-22T11:09:16.355Z</time></trkpt><trkpt lat="44.6304464" lon="11.6267899"><ele>11.0</ele><time>2026-04-22T11:09:18.354Z</time></trkpt><trkpt lat="44.6305606" lon="11.6268191"><ele>11.0</ele><time>2026-04-22T11:09:20.356Z</time></trkpt><trkpt lat="44.6306751" lon="11.6268434"><ele>11.0</ele><time>2026-04-22T11:09:22.343Z</time></trkpt><trkpt lat="44.6307893" lon="11.6268661"><ele>11.0</ele><time>2026-04-22T11:09:24.346Z</time></trkpt><trkpt lat="44.6309044" lon="11.626884"><ele>11.0</ele><time>2026-04-22T11:09:26.337Z</time></trkpt><trkpt lat="44.6310195" lon="11.6269059"><ele>11.0</ele><time>2026-04-22T11:09:28.346Z</time></trkpt><trkpt lat="44.6311371" lon="11.6269274"><ele>11.0</ele><time>2026-04-22T11:09:30.34Z</time></trkpt><trkpt lat="44.6312528" lon="11.6269441"><ele>10.75</ele><time>2026-04-22T11:09:32.347Z</time></trkpt><trkpt lat="44.6313693" lon="11.6269583"><ele>10.5</ele><time>2026-04-22T11:09:34.34Z</time></trkpt><trkpt lat="44.6314862" lon="11.6269726"><ele>10.25</ele><time>2026-04-22T11:09:36.343Z</time></trkpt><trkpt lat="44.6316045" lon="11.6269832"><ele>10.0</ele><time>2026-04-22T11:09:38.342Z</time></trkpt><trkpt lat="44.6317233" lon="11.6269941"><ele>9.5</ele><time>2026-04-22T11:09:40.351Z</time></trkpt><trkpt lat="44.6318399" lon="11.6269986"><ele>9.0</ele><time>2026-04-22T11:09:42.352Z</time></trkpt><trkpt lat="44.631957" lon="11.6270018"><ele>8.5</ele><time>2026-04-22T11:09:44.351Z</time></trkpt><trkpt lat="44.6320756" lon="11.6270045"><ele>8.0</ele><time>2026-04-22T11:09:46.353Z</time></trkpt><trkpt lat="44.6321939" lon="11.6270069"><ele>8.0</ele><time>2026-04-22T11:09:48.339Z</time></trkpt><trkpt lat="44.632312" lon="11.6270167"><ele>8.0</ele><time>2026-04-22T11:09:50.344Z</time></trkpt><trkpt lat="44.6324287" lon="11.6270181"><ele>8.0</ele><time>2026-04-22T11:09:52.35Z</time></trkpt><trkpt lat="44.6325495" lon="11.6270284"><ele>8.0</ele><time>2026-04-22T11:09:54.356Z</time></trkpt><trkpt lat="44.6326738" lon="11.6270386"><ele>8.0</ele><time>2026-04-22T11:09:56.355Z</time></trkpt><trkpt lat="44.6327922" lon="11.6270461"><ele>8.0</ele><time>2026-04-22T11:09:58.338Z</time></trkpt><trkpt lat="44.6329117" lon="11.6270525"><ele>8.0</ele><time>2026-04-22T11:10:00.354Z</time></trkpt><trkpt lat="44.6330251" lon="11.627056"><ele>8.0</ele><time>2026-04-22T11:10:02.356Z</time></trkpt><trkpt lat="44.6331365" lon="11.6270592"><ele>8.75</ele><time>2026-04-22T11:10:04.345Z</time></trkpt><trkpt lat="44.6332495" lon="11.6270597"><ele>9.5</ele><time>2026-04-22T11:10:06.333Z</time></trkpt><trkpt lat="44.6333647" lon="11.6270396"><ele>10.25</ele><time>2026-04-22T11:10:08.343Z</time></trkpt><trkpt lat="44.6334686" lon="11.6269631"><ele>11.0</ele><time>2026-04-22T11:10:10.344Z</time></trkpt><trkpt lat="44.6335516" lon="11.6268364"><ele>11.142857142857142</ele><time>2026-04-22T11:10:12.352Z</time></trkpt><trkpt lat="44.6335892" lon="11.6267634"><ele>11.285714285714285</ele><time>2026-04-22T11:10:13.338Z</time></trkpt><trkpt lat="44.6336266" lon="11.6266885"><ele>11.428571428571427</ele><time>2026-04-22T11:10:14.351Z</time></trkpt><trkpt lat="44.6336632" lon="11.6266106"><ele>11.571428571428571</ele><time>2026-04-22T11:10:15.339Z</time></trkpt><trkpt lat="44.6336995" lon="11.6265303"><ele>11.714285714285714</ele><time>2026-04-22T11:10:16.352Z</time></trkpt><trkpt lat="44.6337377" lon="11.6264496"><ele>11.857142857142856</ele><time>2026-04-22T11:10:17.346Z</time></trkpt><trkpt lat="44.6337776" lon="11.6263688"><ele>12.0</ele><time>2026-04-22T11:10:18.354Z</time></trkpt><trkpt lat="44.6338179" lon="11.6262867"><ele>11.857142857142856</ele><time>2026-04-22T11:10:19.358Z</time></trkpt><trkpt lat="44.6338581" lon="11.6262052"><ele>11.714285714285714</ele><time>2026-04-22T11:10:20.353Z</time></trkpt><trkpt lat="44.6338988" lon="11.6261225"><ele>11.571428571428571</ele><time>2026-04-22T11:10:21.355Z</time></trkpt><trkpt lat="44.6339404" lon="11.6260404"><ele>11.428571428571427</ele><time>2026-04-22T11:10:22.34Z</time></trkpt><trkpt lat="44.6339815" lon="11.6259578"><ele>11.285714285714285</ele><time>2026-04-22T11:10:23.343Z</time></trkpt><trkpt lat="44.6340222" lon="11.6258745"><ele>11.142857142857142</ele><time>2026-04-22T11:10:24.354Z</time></trkpt><trkpt lat="44.6340632" lon="11.6257918"><ele>11.0</ele><time>2026-04-22T11:10:25.348Z</time></trkpt><trkpt lat="44.6341064" lon="11.6257103"><ele>11.0</ele><time>2026-04-22T11:10:26.345Z</time></trkpt><trkpt lat="44.6341488" lon="11.6256288"><ele>11.0</ele><time>2026-04-22T11:10:27.339Z</time></trkpt><trkpt lat="44.6341912" lon="11.6255482"><ele>11.0</ele><time>2026-04-22T11:10:28.347Z</time></trkpt><trkpt lat="44.6342332" lon="11.6254672"><ele>11.0</ele><time>2026-04-22T11:10:29.349Z</time></trkpt><trkpt lat="44.6342749" lon="11.6253863"><ele>11.0</ele><time>2026-04-22T11:10:30.351Z</time></trkpt><trkpt lat="44.6343168" lon="11.6253065"><ele>11.0</ele><time>2026-04-22T11:10:31.339Z</time></trkpt><trkpt lat="44.6343591" lon="11.6252272"><ele>11.0</ele><time>2026-04-22T11:10:32.353Z</time></trkpt><trkpt lat="44.6344007" lon="11.6251472"><ele>10.285714285714286</ele><time>2026-04-22T11:10:33.338Z</time></trkpt><trkpt lat="44.6344427" lon="11.6250677"><ele>9.571428571428571</ele><time>2026-04-22T11:10:34.337Z</time></trkpt><trkpt lat="44.6344847" lon="11.6249876"><ele>8.857142857142858</ele><time>2026-04-22T11:10:35.339Z</time></trkpt><trkpt lat="44.6345266" lon="11.6249086"><ele>8.142857142857142</ele><time>2026-04-22T11:10:36.339Z</time></trkpt><trkpt lat="44.6345683" lon="11.6248292"><ele>7.428571428571429</ele><time>2026-04-22T11:10:37.342Z</time></trkpt><trkpt lat="44.63461" lon="11.6247503"><ele>6.7142857142857135</ele><time>2026-04-22T11:10:38.336Z</time></trkpt><trkpt lat="44.6346526" lon="11.6246706"><ele>6.0</ele><time>2026-04-22T11:10:39.341Z</time></trkpt><trkpt lat="44.6346956" lon="11.624593"><ele>5.999999999999999</ele><time>2026-04-22T11:10:40.34Z</time></trkpt><trkpt lat="44.634738" lon="11.6245149"><ele>6.0</ele><time>2026-04-22T11:10:41.348Z</time></trkpt><trkpt lat="44.6347799" lon="11.6244365"><ele>6.0</ele><time>2026-04-22T11:10:42.352Z</time></trkpt><trkpt lat="44.6348226" lon="11.6243589"><ele>6.0</ele><time>2026-04-22T11:10:43.341Z</time></trkpt><trkpt lat="44.6348642" lon="11.6242807"><ele>6.0</ele><time>2026-04-22T11:10:44.348Z</time></trkpt><trkpt lat="44.6349052" lon="11.6242022"><ele>5.999999999999999</ele><time>2026-04-22T11:10:45.351Z</time></trkpt><trkpt lat="44.6349463" lon="11.6241241"><ele>6.0</ele><time>2026-04-22T11:10:46.346Z</time></trkpt><trkpt lat="44.6349868" lon="11.6240466"><ele>5.999999999999999</ele><time>2026-04-22T11:10:47.352Z</time></trkpt><trkpt lat="44.635028" lon="11.623969"><ele>6.0</ele><time>2026-04-22T11:10:48.344Z</time></trkpt><trkpt lat="44.6350688" lon="11.6238921"><ele>6.0</ele><time>2026-04-22T11:10:49.339Z</time></trkpt><trkpt lat="44.63511" lon="11.6238152"><ele>6.0</ele><time>2026-04-22T11:10:50.353Z</time></trkpt><trkpt lat="44.635151" lon="11.6237381"><ele>6.0</ele><time>2026-04-22T11:10:51.353Z</time></trkpt><trkpt lat="44.635192" lon="11.6236603"><ele>5.999999999999999</ele><time>2026-04-22T11:10:52.354Z</time></trkpt><trkpt lat="44.6352335" lon="11.6235823"><ele>6.0</ele><time>2026-04-22T11:10:53.345Z</time></trkpt><trkpt lat="44.635275" lon="11.6235045"><ele>5.857142857142857</ele><time>2026-04-22T11:10:54.347Z</time></trkpt><trkpt lat="44.6353162" lon="11.6234267"><ele>5.714285714285714</ele><time>2026-04-22T11:10:55.347Z</time></trkpt><trkpt lat="44.6353572" lon="11.6233486"><ele>5.571428571428571</ele><time>2026-04-22T11:10:56.347Z</time></trkpt><trkpt lat="44.6353993" lon="11.6232713"><ele>5.428571428571429</ele><time>2026-04-22T11:10:57.33Z</time></trkpt><trkpt lat="44.6354409" lon="11.6231943"><ele>5.285714285714286</ele><time>2026-04-22T11:10:58.341Z</time></trkpt><trkpt lat="44.6354822" lon="11.6231175"><ele>5.142857142857142</ele><time>2026-04-22T11:10:59.338Z</time></trkpt><trkpt lat="44.6355236" lon="11.6230404"><ele>5.0</ele><time>2026-04-22T11:11:00.35Z</time></trkpt><trkpt lat="44.6355644" lon="11.6229635"><ele>5.0</ele><time>2026-04-22T11:11:01.341Z</time></trkpt><trkpt lat="44.6356044" lon="11.6228856"><ele>5.0</ele><time>2026-04-22T11:11:02.36Z</time></trkpt><trkpt lat="44.6356438" lon="11.6228074"><ele>5.0</ele><time>2026-04-22T11:11:03.341Z</time></trkpt><trkpt lat="44.6356844" lon="11.6227301"><ele>5.0</ele><time>2026-04-22T11:11:04.342Z</time></trkpt><trkpt lat="44.6357278" lon="11.622656"><ele>5.0</ele><time>2026-04-22T11:11:05.348Z</time></trkpt><trkpt lat="44.6357697" lon="11.6225808"><ele>5.0</ele><time>2026-04-22T11:11:06.342Z</time></trkpt><trkpt lat="44.6358111" lon="11.6225048"><ele>5.0</ele><time>2026-04-22T11:11:07.342Z</time></trkpt><trkpt lat="44.6358524" lon="11.6224289"><ele>5.142857142857142</ele><time>2026-04-22T11:11:08.351Z</time></trkpt><trkpt lat="44.6358929" lon="11.6223519"><ele>5.285714285714286</ele><time>2026-04-22T11:11:09.346Z</time></trkpt><trkpt lat="44.6359329" lon="11.6222744"><ele>5.428571428571429</ele><time>2026-04-22T11:11:10.36Z</time></trkpt><trkpt lat="44.6359724" lon="11.6221974"><ele>5.571428571428571</ele><time>2026-04-22T11:11:11.36Z</time></trkpt><trkpt lat="44.6360113" lon="11.6221197"><ele>5.714285714285714</ele><time>2026-04-22T11:11:12.352Z</time></trkpt><trkpt lat="44.6360516" lon="11.6220425"><ele>5.857142857142857</ele><time>2026-04-22T11:11:13.352Z</time></trkpt><trkpt lat="44.6360922" lon="11.6219672"><ele>6.0</ele><time>2026-04-22T11:11:14.355Z</time></trkpt><trkpt lat="44.6361336" lon="11.6218922"><ele>5.857142857142857</ele><time>2026-04-22T11:11:15.36Z</time></trkpt><trkpt lat="44.6361743" lon="11.6218164"><ele>5.714285714285714</ele><time>2026-04-22T11:11:16.35Z</time></trkpt><trkpt lat="44.6362157" lon="11.6217415"><ele>5.571428571428571</ele><time>2026-04-22T11:11:17.348Z</time></trkpt><trkpt lat="44.6362563" lon="11.6216646"><ele>5.428571428571429</ele><time>2026-04-22T11:11:18.355Z</time></trkpt><trkpt lat="44.6362968" lon="11.6215887"><ele>5.285714285714286</ele><time>2026-04-22T11:11:19.338Z</time></trkpt><trkpt lat="44.6363371" lon="11.6215121"><ele>5.142857142857142</ele><time>2026-04-22T11:11:20.343Z</time></trkpt><trkpt lat="44.6363778" lon="11.621436"><ele>5.0</ele><time>2026-04-22T11:11:21.347Z</time></trkpt><trkpt lat="44.6364179" lon="11.6213603"><ele>5.0</ele><time>2026-04-22T11:11:22.357Z</time></trkpt><trkpt lat="44.6364577" lon="11.6212845"><ele>5.0</ele><time>2026-04-22T11:11:23.357Z</time></trkpt><trkpt lat="44.6364972" lon="11.6212088"><ele>5.0</ele><time>2026-04-22T11:11:24.358Z</time></trkpt><trkpt lat="44.6365373" lon="11.6211345"><ele>5.0</ele><time>2026-04-22T11:11:25.352Z</time></trkpt><trkpt lat="44.6365774" lon="11.62106"><ele>5.0</ele><time>2026-04-22T11:11:26.355Z</time></trkpt><trkpt lat="44.6366167" lon="11.6209848"><ele>5.0</ele><time>2026-04-22T11:11:27.348Z</time></trkpt><trkpt lat="44.6366556" lon="11.6209097"><ele>5.0</ele><time>2026-04-22T11:11:28.346Z</time></trkpt><trkpt lat="44.6366947" lon="11.6208334"><ele>5.0</ele><time>2026-04-22T11:11:29.36Z</time></trkpt><trkpt lat="44.6367337" lon="11.6207569"><ele>5.0</ele><time>2026-04-22T11:11:30.341Z</time></trkpt><trkpt lat="44.6367726" lon="11.6206805"><ele>5.0</ele><time>2026-04-22T11:11:31.351Z</time></trkpt><trkpt lat="44.6368105" lon="11.6206025"><ele>5.0</ele><time>2026-04-22T11:11:32.346Z</time></trkpt><trkpt lat="44.6368483" lon="11.6205238"><ele>5.0</ele><time>2026-04-22T11:11:33.348Z</time></trkpt><trkpt lat="44.636889" lon="11.6204477"><ele>5.0</ele><time>2026-04-22T11:11:34.358Z</time></trkpt><trkpt lat="44.6369304" lon="11.6203716"><ele>5.0</ele><time>2026-04-22T11:11:35.341Z</time></trkpt><trkpt lat="44.6369716" lon="11.6202964"><ele>5.571428571428571</ele><time>2026-04-22T11:11:36.34Z</time></trkpt><trkpt lat="44.637013" lon="11.620221"><ele>6.142857142857143</ele><time>2026-04-22T11:11:37.354Z</time></trkpt><trkpt lat="44.6370549" lon="11.6201456"><ele>6.714285714285715</ele><time>2026-04-22T11:11:38.345Z</time></trkpt><trkpt lat="44.6370959" lon="11.6200699"><ele>7.2857142857142865</ele><time>2026-04-22T11:11:39.347Z</time></trkpt><trkpt lat="44.6371361" lon="11.6199923"><ele>7.857142857142858</ele><time>2026-04-22T11:11:40.345Z</time></trkpt><trkpt lat="44.6371768" lon="11.6199156"><ele>8.428571428571429</ele><time>2026-04-22T11:11:41.345Z</time></trkpt><trkpt lat="44.6372166" lon="11.6198379"><ele>9.0</ele><time>2026-04-22T11:11:42.352Z</time></trkpt><trkpt lat="44.6372556" lon="11.6197596"><ele>9.000000000000002</ele><time>2026-04-22T11:11:43.353Z</time></trkpt><trkpt lat="44.6372964" lon="11.6196841"><ele>9.0</ele><time>2026-04-22T11:11:44.348Z</time></trkpt><trkpt lat="44.637339" lon="11.6196098"><ele>9.0</ele><time>2026-04-22T11:11:45.344Z</time></trkpt><trkpt lat="44.6373814" lon="11.6195358"><ele>9.0</ele><time>2026-04-22T11:11:46.353Z</time></trkpt><trkpt lat="44.6374221" lon="11.6194601"><ele>9.0</ele><time>2026-04-22T11:11:47.359Z</time></trkpt><trkpt lat="44.6374621" lon="11.6193834"><ele>9.000000000000002</ele><time>2026-04-22T11:11:48.357Z</time></trkpt><trkpt lat="44.6375022" lon="11.6193072"><ele>9.0</ele><time>2026-04-22T11:11:49.35Z</time></trkpt><trkpt lat="44.6375428" lon="11.6192324"><ele>8.571428571428573</ele><time>2026-04-22T11:11:50.347Z</time></trkpt><trkpt lat="44.6375837" lon="11.6191572"><ele>8.142857142857142</ele><time>2026-04-22T11:11:51.34Z</time></trkpt><trkpt lat="44.6376239" lon="11.6190816"><ele>7.714285714285714</ele><time>2026-04-22T11:11:52.354Z</time></trkpt><trkpt lat="44.637664" lon="11.619006"><ele>7.2857142857142865</ele><time>2026-04-22T11:11:53.352Z</time></trkpt><trkpt lat="44.6377041" lon="11.61893"><ele>6.857142857142858</ele><time>2026-04-22T11:11:54.351Z</time></trkpt><trkpt lat="44.6377444" lon="11.6188539"><ele>6.428571428571428</ele><time>2026-04-22T11:11:55.347Z</time></trkpt><trkpt lat="44.6377851" lon="11.6187771"><ele>6.0</ele><time>2026-04-22T11:11:56.343Z</time></trkpt><trkpt lat="44.6378255" lon="11.6186996"><ele>5.857142857142857</ele><time>2026-04-22T11:11:57.355Z</time></trkpt><trkpt lat="44.6378662" lon="11.618622"><ele>5.714285714285714</ele><time>2026-04-22T11:11:58.352Z</time></trkpt><trkpt lat="44.6379077" lon="11.6185448"><ele>5.571428571428571</ele><time>2026-04-22T11:11:59.353Z</time></trkpt><trkpt lat="44.6379497" lon="11.6184682"><ele>5.428571428571429</ele><time>2026-04-22T11:12:00.343Z</time></trkpt><trkpt lat="44.6379918" lon="11.6183901"><ele>5.285714285714286</ele><time>2026-04-22T11:12:01.353Z</time></trkpt><trkpt lat="44.6380325" lon="11.6183111"><ele>5.142857142857142</ele><time>2026-04-22T11:12:02.348Z</time></trkpt><trkpt lat="44.6380734" lon="11.618232"><ele>5.0</ele><time>2026-04-22T11:12:03.345Z</time></trkpt><trkpt lat="44.6381141" lon="11.6181525"><ele>5.0</ele><time>2026-04-22T11:12:04.362Z</time></trkpt><trkpt lat="44.6381548" lon="11.618073"><ele>5.0</ele><time>2026-04-22T11:12:05.349Z</time></trkpt><trkpt lat="44.6381968" lon="11.6179939"><ele>5.0</ele><time>2026-04-22T11:12:06.358Z</time></trkpt><trkpt lat="44.6382391" lon="11.6179161"><ele>5.0</ele><time>2026-04-22T11:12:07.344Z</time></trkpt><trkpt lat="44.6382815" lon="11.6178391"><ele>5.0</ele><time>2026-04-22T11:12:08.344Z</time></trkpt><trkpt lat="44.638324" lon="11.6177625"><ele>5.0</ele><time>2026-04-22T11:12:09.359Z</time></trkpt><trkpt lat="44.6383657" lon="11.6176837"><ele>5.0</ele><time>2026-04-22T11:12:10.345Z</time></trkpt><trkpt lat="44.6384075" lon="11.6176058"><ele>5.0</ele><time>2026-04-22T11:12:11.354Z</time></trkpt><trkpt lat="44.6384486" lon="11.6175273"><ele>5.0</ele><time>2026-04-22T11:12:12.352Z</time></trkpt><trkpt lat="44.6384903" lon="11.6174495"><ele>5.0</ele><time>2026-04-22T11:12:13.36Z</time></trkpt><trkpt lat="44.6385328" lon="11.6173732"><ele>5.0</ele><time>2026-04-22T11:12:14.341Z</time></trkpt><trkpt lat="44.6385749" lon="11.6172958"><ele>5.0</ele><time>2026-04-22T11:12:15.347Z</time></trkpt><trkpt lat="44.6386157" lon="11.6172173"><ele>5.0</ele><time>2026-04-22T11:12:16.351Z</time></trkpt><trkpt lat="44.638656" lon="11.6171378"><ele>5.0</ele><time>2026-04-22T11:12:17.339Z</time></trkpt><trkpt lat="44.638696" lon="11.6170583"><ele>5.0</ele><time>2026-04-22T11:12:18.345Z</time></trkpt><trkpt lat="44.6387375" lon="11.6169793"><ele>5.0</ele><time>2026-04-22T11:12:19.352Z</time></trkpt><trkpt lat="44.6387801" lon="11.6169017"><ele>5.0</ele><time>2026-04-22T11:12:20.352Z</time></trkpt><trkpt lat="44.6388231" lon="11.6168247"><ele>5.0</ele><time>2026-04-22T11:12:21.359Z</time></trkpt><trkpt lat="44.6388653" lon="11.6167468"><ele>5.0</ele><time>2026-04-22T11:12:22.349Z</time></trkpt><trkpt lat="44.6389072" lon="11.6166687"><ele>5.0</ele><time>2026-04-22T11:12:23.354Z</time></trkpt><trkpt lat="44.6389487" lon="11.6165899"><ele>5.0</ele><time>2026-04-22T11:12:24.354Z</time></trkpt><trkpt lat="44.6389902" lon="11.6165125"><ele>5.0</ele><time>2026-04-22T11:12:25.351Z</time></trkpt><trkpt lat="44.6390315" lon="11.6164352"><ele>5.0</ele><time>2026-04-22T11:12:26.35Z</time></trkpt><trkpt lat="44.6390734" lon="11.6163588"><ele>5.0</ele><time>2026-04-22T11:12:27.343Z</time></trkpt><trkpt lat="44.6391158" lon="11.6162829"><ele>5.0</ele><time>2026-04-22T11:12:28.346Z</time></trkpt><trkpt lat="44.6391577" lon="11.6162063"><ele>5.0</ele><time>2026-04-22T11:12:29.342Z</time></trkpt><trkpt lat="44.639198" lon="11.6161288"><ele>5.0</ele><time>2026-04-22T11:12:30.346Z</time></trkpt><trkpt lat="44.6392394" lon="11.616052"><ele>5.0</ele><time>2026-04-22T11:12:31.347Z</time></trkpt><trkpt lat="44.6392815" lon="11.6159764"><ele>5.0</ele><time>2026-04-22T11:12:32.342Z</time></trkpt><trkpt lat="44.6393234" lon="11.6158995"><ele>5.0</ele><time>2026-04-22T11:12:33.351Z</time></trkpt><trkpt lat="44.6393651" lon="11.615822"><ele>5.0</ele><time>2026-04-22T11:12:34.346Z</time></trkpt><trkpt lat="44.6394065" lon="11.6157438"><ele>5.0</ele><time>2026-04-22T11:12:35.357Z</time></trkpt><trkpt lat="44.639449" lon="11.6156655"><ele>5.0</ele><time>2026-04-22T11:12:36.348Z</time></trkpt><trkpt lat="44.6394924" lon="11.6155879"><ele>5.0</ele><time>2026-04-22T11:12:37.35Z</time></trkpt><trkpt lat="44.6395347" lon="11.6155095"><ele>5.0</ele><time>2026-04-22T11:12:38.345Z</time></trkpt><trkpt lat="44.6395771" lon="11.6154316"><ele>5.0</ele><time>2026-04-22T11:12:39.355Z</time></trkpt><trkpt lat="44.6396194" lon="11.6153537"><ele>5.0</ele><time>2026-04-22T11:12:40.347Z</time></trkpt><trkpt lat="44.6396617" lon="11.6152756"><ele>5.0</ele><time>2026-04-22T11:12:41.358Z</time></trkpt><trkpt lat="44.6397034" lon="11.6151968"><ele>5.0</ele><time>2026-04-22T11:12:42.349Z</time></trkpt><trkpt lat="44.6397453" lon="11.6151182"><ele>5.0</ele><time>2026-04-22T11:12:43.348Z</time></trkpt><trkpt lat="44.6397873" lon="11.6150404"><ele>5.0</ele><time>2026-04-22T11:12:44.348Z</time></trkpt><trkpt lat="44.6398286" lon="11.6149619"><ele>5.0</ele><time>2026-04-22T11:12:45.35Z</time></trkpt><trkpt lat="44.6398707" lon="11.6148838"><ele>4.857142857142857</ele><time>2026-04-22T11:12:46.345Z</time></trkpt><trkpt lat="44.6399133" lon="11.6148048"><ele>4.714285714285714</ele><time>2026-04-22T11:12:47.351Z</time></trkpt><trkpt lat="44.6399559" lon="11.6147266"><ele>4.571428571428571</ele><time>2026-04-22T11:12:48.351Z</time></trkpt><trkpt lat="44.6399982" lon="11.6146484"><ele>4.428571428571429</ele><time>2026-04-22T11:12:49.349Z</time></trkpt><trkpt lat="44.64004" lon="11.6145697"><ele>4.285714285714286</ele><time>2026-04-22T11:12:50.338Z</time></trkpt><trkpt lat="44.6400821" lon="11.6144907"><ele>4.142857142857142</ele><time>2026-04-22T11:12:51.34Z</time></trkpt><trkpt lat="44.6401242" lon="11.6144123"><ele>4.0</ele><time>2026-04-22T11:12:52.359Z</time></trkpt><trkpt lat="44.640166" lon="11.6143338"><ele>4.0</ele><time>2026-04-22T11:12:53.348Z</time></trkpt><trkpt lat="44.6402081" lon="11.6142559"><ele>3.9999999999999996</ele><time>2026-04-22T11:12:54.351Z</time></trkpt><trkpt lat="44.6402497" lon="11.6141775"><ele>4.0</ele><time>2026-04-22T11:12:55.35Z</time></trkpt><trkpt lat="44.6402917" lon="11.6140987"><ele>4.0</ele><time>2026-04-22T11:12:56.35Z</time></trkpt><trkpt lat="44.640334" lon="11.6140206"><ele>3.9999999999999996</ele><time>2026-04-22T11:12:57.348Z</time></trkpt><trkpt lat="44.6403766" lon="11.6139425"><ele>4.0</ele><time>2026-04-22T11:12:58.344Z</time></trkpt><trkpt lat="44.6404186" lon="11.6138646"><ele>4.0</ele><time>2026-04-22T11:12:59.349Z</time></trkpt><trkpt lat="44.6404601" lon="11.6137857"><ele>4.0</ele><time>2026-04-22T11:13:00.344Z</time></trkpt><trkpt lat="44.6405007" lon="11.6137067"><ele>3.9999999999999996</ele><time>2026-04-22T11:13:01.346Z</time></trkpt><trkpt lat="44.6405424" lon="11.6136286"><ele>4.0</ele><time>2026-04-22T11:13:02.359Z</time></trkpt><trkpt lat="44.6405847" lon="11.6135509"><ele>4.0</ele><time>2026-04-22T11:13:03.342Z</time></trkpt><trkpt lat="44.6406272" lon="11.6134727"><ele>3.9999999999999996</ele><time>2026-04-22T11:13:04.356Z</time></trkpt><trkpt lat="44.6406697" lon="11.613394"><ele>4.0</ele><time>2026-04-22T11:13:05.349Z</time></trkpt><trkpt lat="44.6407122" lon="11.6133161"><ele>4.0</ele><time>2026-04-22T11:13:06.355Z</time></trkpt><trkpt lat="44.6407552" lon="11.6132385"><ele>4.0</ele><time>2026-04-22T11:13:07.342Z</time></trkpt><trkpt lat="44.640797" lon="11.6131594"><ele>3.9999999999999996</ele><time>2026-04-22T11:13:08.345Z</time></trkpt><trkpt lat="44.6408393" lon="11.6130796"><ele>4.0</ele><time>2026-04-22T11:13:09.355Z</time></trkpt><trkpt lat="44.6408822" lon="11.6130012"><ele>4.0</ele><time>2026-04-22T11:13:10.357Z</time></trkpt><trkpt lat="44.6409254" lon="11.6129224"><ele>3.9999999999999996</ele><time>2026-04-22T11:13:11.363Z</time></trkpt><trkpt lat="44.6409686" lon="11.6128437"><ele>4.0</ele><time>2026-04-22T11:13:12.348Z</time></trkpt><trkpt lat="44.6410114" lon="11.6127633"><ele>4.0</ele><time>2026-04-22T11:13:13.344Z</time></trkpt><trkpt lat="44.6410541" lon="11.6126834"><ele>4.285714285714286</ele><time>2026-04-22T11:13:14.352Z</time></trkpt><trkpt lat="44.6410969" lon="11.6126034"><ele>4.571428571428571</ele><time>2026-04-22T11:13:15.35Z</time></trkpt><trkpt lat="44.6411399" lon="11.6125246"><ele>4.857142857142857</ele><time>2026-04-22T11:13:16.357Z</time></trkpt><trkpt lat="44.6411824" lon="11.612444"><ele>5.142857142857142</ele><time>2026-04-22T11:13:17.35Z</time></trkpt><trkpt lat="44.6412251" lon="11.6123648"><ele>5.428571428571429</ele><time>2026-04-22T11:13:18.351Z</time></trkpt><trkpt lat="44.6412677" lon="11.6122852"><ele>5.7142857142857135</ele><time>2026-04-22T11:13:19.348Z</time></trkpt><trkpt lat="44.6413088" lon="11.6122039"><ele>6.0</ele><time>2026-04-22T11:13:20.357Z</time></trkpt><trkpt lat="44.6413508" lon="11.6121225"><ele>5.999999999999999</ele><time>2026-04-22T11:13:21.325Z</time></trkpt><trkpt lat="44.6413938" lon="11.6120436"><ele>6.0</ele><time>2026-04-22T11:13:22.347Z</time></trkpt><trkpt lat="44.6414374" lon="11.6119656"><ele>6.0</ele><time>2026-04-22T11:13:23.336Z</time></trkpt><trkpt lat="44.6414801" lon="11.6118868"><ele>6.0</ele><time>2026-04-22T11:13:24.343Z</time></trkpt><trkpt lat="44.6415228" lon="11.611808"><ele>6.0</ele><time>2026-04-22T11:13:25.353Z</time></trkpt><trkpt lat="44.6415657" lon="11.61173"><ele>5.999999999999999</ele><time>2026-04-22T11:13:26.334Z</time></trkpt><trkpt lat="44.6416079" lon="11.6116519"><ele>6.0</ele><time>2026-04-22T11:13:27.347Z</time></trkpt><trkpt lat="44.641649" lon="11.6115729"><ele>5.999999999999999</ele><time>2026-04-22T11:13:28.35Z</time></trkpt><trkpt lat="44.6416918" lon="11.611496"><ele>6.0</ele><time>2026-04-22T11:13:29.336Z</time></trkpt><trkpt lat="44.6417338" lon="11.6114186"><ele>6.0</ele><time>2026-04-22T11:13:30.339Z</time></trkpt><trkpt lat="44.641775" lon="11.6113414"><ele>6.0</ele><time>2026-04-22T11:13:31.345Z</time></trkpt><trkpt lat="44.6418162" lon="11.6112641"><ele>6.0</ele><time>2026-04-22T11:13:32.348Z</time></trkpt><trkpt lat="44.6418567" lon="11.6111865"><ele>5.999999999999999</ele><time>2026-04-22T11:13:33.345Z</time></trkpt><trkpt lat="44.641898" lon="11.6111097"><ele>6.0</ele><time>2026-04-22T11:13:34.349Z</time></trkpt><trkpt lat="44.6419396" lon="11.6110334"><ele>5.857142857142857</ele><time>2026-04-22T11:13:35.349Z</time></trkpt><trkpt lat="44.6419801" lon="11.610957"><ele>5.714285714285714</ele><time>2026-04-22T11:13:36.347Z</time></trkpt><trkpt lat="44.6420205" lon="11.6108798"><ele>5.571428571428571</ele><time>2026-04-22T11:13:37.353Z</time></trkpt><trkpt lat="44.6420613" lon="11.6108033"><ele>5.428571428571429</ele><time>2026-04-22T11:13:38.352Z</time></trkpt><trkpt lat="44.6421022" lon="11.6107273"><ele>5.285714285714286</ele><time>2026-04-22T11:13:39.344Z</time></trkpt><trkpt lat="44.6421434" lon="11.6106511"><ele>5.142857142857142</ele><time>2026-04-22T11:13:40.347Z</time></trkpt><trkpt lat="44.6421847" lon="11.6105758"><ele>5.0</ele><time>2026-04-22T11:13:41.347Z</time></trkpt><trkpt lat="44.6422262" lon="11.6105003"><ele>5.0</ele><time>2026-04-22T11:13:42.345Z</time></trkpt><trkpt lat="44.6422675" lon="11.6104242"><ele>5.0</ele><time>2026-04-22T11:13:43.351Z</time></trkpt><trkpt lat="44.6423089" lon="11.6103482"><ele>5.0</ele><time>2026-04-22T11:13:44.345Z</time></trkpt><trkpt lat="44.6423494" lon="11.6102707"><ele>5.0</ele><time>2026-04-22T11:13:45.35Z</time></trkpt><trkpt lat="44.6423889" lon="11.610193"><ele>5.0</ele><time>2026-04-22T11:13:46.349Z</time></trkpt><trkpt lat="44.642427" lon="11.6101137"><ele>5.0</ele><time>2026-04-22T11:13:47.348Z</time></trkpt><trkpt lat="44.6424688" lon="11.6100381"><ele>5.0</ele><time>2026-04-22T11:13:48.348Z</time></trkpt><trkpt lat="44.6425128" lon="11.6099652"><ele>5.142857142857142</ele><time>2026-04-22T11:13:49.349Z</time></trkpt><trkpt lat="44.6425562" lon="11.6098906"><ele>5.285714285714286</ele><time>2026-04-22T11:13:50.328Z</time></trkpt><trkpt lat="44.6425974" lon="11.6098151"><ele>5.428571428571429</ele><time>2026-04-22T11:13:51.364Z</time></trkpt><trkpt lat="44.6426377" lon="11.6097386"><ele>5.571428571428571</ele><time>2026-04-22T11:13:52.343Z</time></trkpt><trkpt lat="44.642679" lon="11.6096621"><ele>5.714285714285714</ele><time>2026-04-22T11:13:53.348Z</time></trkpt><trkpt lat="44.6427206" lon="11.6095859"><ele>5.857142857142857</ele><time>2026-04-22T11:13:54.344Z</time></trkpt><trkpt lat="44.6427615" lon="11.6095081"><ele>6.0</ele><time>2026-04-22T11:13:55.35Z</time></trkpt><trkpt lat="44.6428023" lon="11.6094312"><ele>5.999999999999999</ele><time>2026-04-22T11:13:56.348Z</time></trkpt><trkpt lat="44.6428433" lon="11.6093545"><ele>6.0</ele><time>2026-04-22T11:13:57.355Z</time></trkpt><trkpt lat="44.6428846" lon="11.6092779"><ele>6.0</ele><time>2026-04-22T11:13:58.35Z</time></trkpt><trkpt lat="44.6429264" lon="11.609202"><ele>6.0</ele><time>2026-04-22T11:13:59.347Z</time></trkpt><trkpt lat="44.6429678" lon="11.6091252"><ele>6.0</ele><time>2026-04-22T11:14:00.342Z</time></trkpt><trkpt lat="44.6430091" lon="11.6090496"><ele>5.999999999999999</ele><time>2026-04-22T11:14:01.358Z</time></trkpt><trkpt lat="44.6430512" lon="11.6089747"><ele>6.0</ele><time>2026-04-22T11:14:02.346Z</time></trkpt><trkpt lat="44.643093" lon="11.6088988"><ele>5.999999999999999</ele><time>2026-04-22T11:14:03.338Z</time></trkpt><trkpt lat="44.6431342" lon="11.6088224"><ele>6.0</ele><time>2026-04-22T11:14:04.351Z</time></trkpt><trkpt lat="44.6431752" lon="11.6087457"><ele>6.0</ele><time>2026-04-22T11:14:05.349Z</time></trkpt><trkpt lat="44.6432161" lon="11.6086698"><ele>6.0</ele><time>2026-04-22T11:14:06.359Z</time></trkpt><trkpt lat="44.6432566" lon="11.6085939"><ele>6.0</ele><time>2026-04-22T11:14:07.345Z</time></trkpt><trkpt lat="44.6432974" lon="11.6085175"><ele>5.999999999999999</ele><time>2026-04-22T11:14:08.342Z</time></trkpt><trkpt lat="44.6433385" lon="11.6084416"><ele>6.0</ele><time>2026-04-22T11:14:09.347Z</time></trkpt><trkpt lat="44.6433798" lon="11.608366"><ele>6.142857142857142</ele><time>2026-04-22T11:14:10.358Z</time></trkpt><trkpt lat="44.6434205" lon="11.6082899"><ele>6.285714285714286</ele><time>2026-04-22T11:14:11.347Z</time></trkpt><trkpt lat="44.6434615" lon="11.6082144"><ele>6.428571428571429</ele><time>2026-04-22T11:14:12.348Z</time></trkpt><trkpt lat="44.643503" lon="11.6081393"><ele>6.571428571428571</ele><time>2026-04-22T11:14:13.347Z</time></trkpt><trkpt lat="44.6435443" lon="11.6080642"><ele>6.714285714285714</ele><time>2026-04-22T11:14:14.358Z</time></trkpt><trkpt lat="44.6435852" lon="11.6079891"><ele>6.857142857142857</ele><time>2026-04-22T11:14:15.348Z</time></trkpt><trkpt lat="44.6436262" lon="11.6079128"><ele>7.0</ele><time>2026-04-22T11:14:16.356Z</time></trkpt><trkpt lat="44.6436665" lon="11.6078369"><ele>7.142857142857142</ele><time>2026-04-22T11:14:17.346Z</time></trkpt><trkpt lat="44.6437073" lon="11.6077603"><ele>7.285714285714286</ele><time>2026-04-22T11:14:18.339Z</time></trkpt><trkpt lat="44.6437485" lon="11.6076838"><ele>7.428571428571429</ele><time>2026-04-22T11:14:19.344Z</time></trkpt><trkpt lat="44.64379" lon="11.607607"><ele>7.571428571428571</ele><time>2026-04-22T11:14:20.348Z</time></trkpt><trkpt lat="44.6438316" lon="11.6075293"><ele>7.7142857142857135</ele><time>2026-04-22T11:14:21.354Z</time></trkpt><trkpt lat="44.6438734" lon="11.6074522"><ele>7.857142857142857</ele><time>2026-04-22T11:14:22.347Z</time></trkpt><trkpt lat="44.6439153" lon="11.607374"><ele>8.0</ele><time>2026-04-22T11:14:23.346Z</time></trkpt><trkpt lat="44.6439575" lon="11.6072959"><ele>8.0</ele><time>2026-04-22T11:14:24.357Z</time></trkpt><trkpt lat="44.6439987" lon="11.6072162"><ele>7.999999999999999</ele><time>2026-04-22T11:14:25.348Z</time></trkpt><trkpt lat="44.644041" lon="11.6071381"><ele>8.0</ele><time>2026-04-22T11:14:26.349Z</time></trkpt><trkpt lat="44.6440839" lon="11.607061"><ele>8.0</ele><time>2026-04-22T11:14:27.343Z</time></trkpt><trkpt lat="44.6441265" lon="11.6069834"><ele>7.999999999999999</ele><time>2026-04-22T11:14:28.342Z</time></trkpt><trkpt lat="44.6441679" lon="11.6069053"><ele>8.0</ele><time>2026-04-22T11:14:29.343Z</time></trkpt><trkpt lat="44.6442097" lon="11.6068261"><ele>8.0</ele><time>2026-04-22T11:14:30.346Z</time></trkpt><trkpt lat="44.6442509" lon="11.606748"><ele>7.7142857142857135</ele><time>2026-04-22T11:14:31.358Z</time></trkpt><trkpt lat="44.6442933" lon="11.6066718"><ele>7.428571428571428</ele><time>2026-04-22T11:14:32.347Z</time></trkpt><trkpt lat="44.6443352" lon="11.6065955"><ele>7.142857142857142</ele><time>2026-04-22T11:14:33.348Z</time></trkpt><trkpt lat="44.6443765" lon="11.6065164"><ele>6.857142857142857</ele><time>2026-04-22T11:14:34.351Z</time></trkpt><trkpt lat="44.6444185" lon="11.6064373"><ele>6.571428571428571</ele><time>2026-04-22T11:14:35.345Z</time></trkpt><trkpt lat="44.6444599" lon="11.6063585"><ele>6.285714285714285</ele><time>2026-04-22T11:14:36.344Z</time></trkpt><trkpt lat="44.6445019" lon="11.6062798"><ele>6.0</ele><time>2026-04-22T11:14:37.348Z</time></trkpt><trkpt lat="44.6445431" lon="11.6062026"><ele>5.857142857142857</ele><time>2026-04-22T11:14:38.345Z</time></trkpt><trkpt lat="44.6445839" lon="11.6061238"><ele>5.714285714285714</ele><time>2026-04-22T11:14:39.342Z</time></trkpt><trkpt lat="44.6446247" lon="11.6060456"><ele>5.571428571428571</ele><time>2026-04-22T11:14:40.353Z</time></trkpt><trkpt lat="44.6446663" lon="11.6059681"><ele>5.428571428571429</ele><time>2026-04-22T11:14:41.348Z</time></trkpt><trkpt lat="44.644709" lon="11.6058924"><ele>5.285714285714286</ele><time>2026-04-22T11:14:42.346Z</time></trkpt><trkpt lat="44.6447509" lon="11.6058168"><ele>5.142857142857142</ele><time>2026-04-22T11:14:43.346Z</time></trkpt><trkpt lat="44.6447918" lon="11.6057395"><ele>5.0</ele><time>2026-04-22T11:14:44.35Z</time></trkpt><trkpt lat="44.6448323" lon="11.6056629"><ele>5.0</ele><time>2026-04-22T11:14:45.346Z</time></trkpt><trkpt lat="44.6448735" lon="11.6055866"><ele>5.0</ele><time>2026-04-22T11:14:46.357Z</time></trkpt><trkpt lat="44.6449161" lon="11.6055113"><ele>5.0</ele><time>2026-04-22T11:14:47.346Z</time></trkpt><trkpt lat="44.6449578" lon="11.6054343"><ele>5.0</ele><time>2026-04-22T11:14:48.368Z</time></trkpt><trkpt lat="44.6449995" lon="11.6053552"><ele>5.0</ele><time>2026-04-22T11:14:49.35Z</time></trkpt><trkpt lat="44.6450416" lon="11.6052775"><ele>5.0</ele><time>2026-04-22T11:14:50.365Z</time></trkpt><trkpt lat="44.6450841" lon="11.6051998"><ele>5.0</ele><time>2026-04-22T11:14:51.347Z</time></trkpt><trkpt lat="44.6451269" lon="11.6051225"><ele>5.0</ele><time>2026-04-22T11:14:52.344Z</time></trkpt><trkpt lat="44.6451701" lon="11.6050449"><ele>5.0</ele><time>2026-04-22T11:14:53.352Z</time></trkpt><trkpt lat="44.6452116" lon="11.604966"><ele>5.0</ele><time>2026-04-22T11:14:54.347Z</time></trkpt><trkpt lat="44.6452533" lon="11.6048868"><ele>5.0</ele><time>2026-04-22T11:14:55.354Z</time></trkpt><trkpt lat="44.6452948" lon="11.6048072"><ele>5.0</ele><time>2026-04-22T11:14:56.341Z</time></trkpt><trkpt lat="44.6453361" lon="11.6047281"><ele>5.0</ele><time>2026-04-22T11:14:57.35Z</time></trkpt><trkpt lat="44.645378" lon="11.6046491"><ele>5.0</ele><time>2026-04-22T11:14:58.358Z</time></trkpt><trkpt lat="44.6454202" lon="11.6045709"><ele>4.857142857142857</ele><time>2026-04-22T11:14:59.341Z</time></trkpt><trkpt lat="44.6454638" lon="11.6044933"><ele>4.714285714285714</ele><time>2026-04-22T11:15:00.347Z</time></trkpt><trkpt lat="44.6455076" lon="11.604416"><ele>4.571428571428571</ele><time>2026-04-22T11:15:01.344Z</time></trkpt><trkpt lat="44.6455536" lon="11.6043392"><ele>4.428571428571429</ele><time>2026-04-22T11:15:02.35Z</time></trkpt><trkpt lat="44.6456018" lon="11.6042662"><ele>4.285714285714286</ele><time>2026-04-22T11:15:03.348Z</time></trkpt><trkpt lat="44.6456534" lon="11.6041986"><ele>4.142857142857142</ele><time>2026-04-22T11:15:04.343Z</time></trkpt><trkpt lat="44.645708" lon="11.6041356"><ele>4.0</ele><time>2026-04-22T11:15:05.359Z</time></trkpt><trkpt lat="44.6457656" lon="11.604077"><ele>4.0</ele><time>2026-04-22T11:15:06.348Z</time></trkpt><trkpt lat="44.6458261" lon="11.6040276"><ele>3.9999999999999996</ele><time>2026-04-22T11:15:07.353Z</time></trkpt><trkpt lat="44.6458878" lon="11.6039815"><ele>4.0</ele><time>2026-04-22T11:15:08.355Z</time></trkpt><trkpt lat="44.6459473" lon="11.6039305"><ele>4.0</ele><time>2026-04-22T11:15:09.352Z</time></trkpt><trkpt lat="44.6460069" lon="11.603879"><ele>3.9999999999999996</ele><time>2026-04-22T11:15:10.346Z</time></trkpt><trkpt lat="44.6460658" lon="11.6038267"><ele>4.0</ele><time>2026-04-22T11:15:11.351Z</time></trkpt><trkpt lat="44.6461242" lon="11.6037747"><ele>4.0</ele><time>2026-04-22T11:15:12.352Z</time></trkpt><trkpt lat="44.6461829" lon="11.6037222"><ele>4.0</ele><time>2026-04-22T11:15:13.361Z</time></trkpt><trkpt lat="44.6462412" lon="11.6036709"><ele>3.9999999999999996</ele><time>2026-04-22T11:15:14.343Z</time></trkpt><trkpt lat="44.6463" lon="11.6036194"><ele>4.0</ele><time>2026-04-22T11:15:15.341Z</time></trkpt><trkpt lat="44.6463593" lon="11.6035691"><ele>4.0</ele><time>2026-04-22T11:15:16.354Z</time></trkpt><trkpt lat="44.6464179" lon="11.603518"><ele>3.9999999999999996</ele><time>2026-04-22T11:15:17.35Z</time></trkpt><trkpt lat="44.6464763" lon="11.603467"><ele>4.0</ele><time>2026-04-22T11:15:18.354Z</time></trkpt><trkpt lat="44.6465357" lon="11.6034178"><ele>4.0</ele><time>2026-04-22T11:15:19.349Z</time></trkpt><trkpt lat="44.6465935" lon="11.603365"><ele>4.0</ele><time>2026-04-22T11:15:20.349Z</time></trkpt><trkpt lat="44.6466495" lon="11.6033118"><ele>3.9999999999999996</ele><time>2026-04-22T11:15:21.348Z</time></trkpt><trkpt lat="44.6467062" lon="11.6032595"><ele>4.0</ele><time>2026-04-22T11:15:22.351Z</time></trkpt><trkpt lat="44.6467651" lon="11.6032081"><ele>4.0</ele><time>2026-04-22T11:15:23.343Z</time></trkpt><trkpt lat="44.6468227" lon="11.6031535"><ele>3.9999999999999996</ele><time>2026-04-22T11:15:24.351Z</time></trkpt><trkpt lat="44.646881" lon="11.6031"><ele>4.0</ele><time>2026-04-22T11:15:25.35Z</time></trkpt><trkpt lat="44.6469393" lon="11.6030481"><ele>4.0</ele><time>2026-04-22T11:15:26.357Z</time></trkpt><trkpt lat="44.6469979" lon="11.6029967"><ele>4.0</ele><time>2026-04-22T11:15:27.341Z</time></trkpt><trkpt lat="44.647056" lon="11.602944"><ele>3.9999999999999996</ele><time>2026-04-22T11:15:28.359Z</time></trkpt><trkpt lat="44.6471138" lon="11.602891"><ele>4.0</ele><time>2026-04-22T11:15:29.355Z</time></trkpt><trkpt lat="44.6471719" lon="11.6028383"><ele>4.0</ele><time>2026-04-22T11:15:30.359Z</time></trkpt><trkpt lat="44.6472304" lon="11.602787"><ele>3.9999999999999996</ele><time>2026-04-22T11:15:31.351Z</time></trkpt><trkpt lat="44.6472892" lon="11.602736"><ele>4.0</ele><time>2026-04-22T11:15:32.35Z</time></trkpt><trkpt lat="44.6473479" lon="11.602685"><ele>4.0</ele><time>2026-04-22T11:15:33.354Z</time></trkpt><trkpt lat="44.6474069" lon="11.6026328"><ele>4.0</ele><time>2026-04-22T11:15:34.351Z</time></trkpt><trkpt lat="44.6474654" lon="11.6025812"><ele>3.9999999999999996</ele><time>2026-04-22T11:15:35.353Z</time></trkpt><trkpt lat="44.6475239" lon="11.6025292"><ele>4.0</ele><time>2026-04-22T11:15:36.336Z</time></trkpt><trkpt lat="44.6475813" lon="11.6024749"><ele>4.0</ele><time>2026-04-22T11:15:37.348Z</time></trkpt><trkpt lat="44.6476385" lon="11.6024205"><ele>3.9999999999999996</ele><time>2026-04-22T11:15:38.344Z</time></trkpt><trkpt lat="44.6476969" lon="11.6023676"><ele>4.0</ele><time>2026-04-22T11:15:39.342Z</time></trkpt><trkpt lat="44.6477568" lon="11.6023194"><ele>4.0</ele><time>2026-04-22T11:15:40.352Z</time></trkpt><trkpt lat="44.6478169" lon="11.6022707"><ele>4.0</ele><time>2026-04-22T11:15:41.349Z</time></trkpt><trkpt lat="44.6478759" lon="11.6022203"><ele>3.9999999999999996</ele><time>2026-04-22T11:15:42.343Z</time></trkpt><trkpt lat="44.647935" lon="11.602169"><ele>4.0</ele><time>2026-04-22T11:15:43.345Z</time></trkpt><trkpt lat="44.6479957" lon="11.6021205"><ele>4.0</ele><time>2026-04-22T11:15:44.349Z</time></trkpt><trkpt lat="44.6480556" lon="11.6020709"><ele>3.9999999999999996</ele><time>2026-04-22T11:15:45.346Z</time></trkpt><trkpt lat="44.6481142" lon="11.6020184"><ele>4.0</ele><time>2026-04-22T11:15:46.334Z</time></trkpt><trkpt lat="44.6481724" lon="11.6019669"><ele>4.0</ele><time>2026-04-22T11:15:47.337Z</time></trkpt><trkpt lat="44.6482298" lon="11.6019139"><ele>4.0</ele><time>2026-04-22T11:15:48.351Z</time></trkpt><trkpt lat="44.6482867" lon="11.6018648"><ele>3.9999999999999996</ele><time>2026-04-22T11:15:49.352Z</time></trkpt><trkpt lat="44.6483421" lon="11.6018159"><ele>4.0</ele><time>2026-04-22T11:15:50.348Z</time></trkpt><trkpt lat="44.6483968" lon="11.6017671"><ele>4.0</ele><time>2026-04-22T11:15:51.349Z</time></trkpt><trkpt lat="44.6484507" lon="11.6017185"><ele>3.9999999999999996</ele><time>2026-04-22T11:15:52.347Z</time></trkpt><trkpt lat="44.6485043" lon="11.6016708"><ele>4.0</ele><time>2026-04-22T11:15:53.366Z</time></trkpt><trkpt lat="44.6485579" lon="11.6016241"><ele>4.0</ele><time>2026-04-22T11:15:54.349Z</time></trkpt><trkpt lat="44.6486618" lon="11.6015311"><ele>3.75</ele><time>2026-04-22T11:15:56.35Z</time></trkpt><trkpt lat="44.6487642" lon="11.6014392"><ele>3.5</ele><time>2026-04-22T11:15:58.347Z</time></trkpt><trkpt lat="44.6488663" lon="11.601349"><ele>3.25</ele><time>2026-04-22T11:16:00.345Z</time></trkpt><trkpt lat="44.6489686" lon="11.601258"><ele>3.0</ele><time>2026-04-22T11:16:02.352Z</time></trkpt><trkpt lat="44.6490724" lon="11.6011625"><ele>2.9999999999999996</ele><time>2026-04-22T11:16:04.349Z</time></trkpt><trkpt lat="44.649127" lon="11.601116"><ele>3.0</ele><time>2026-04-22T11:16:05.347Z</time></trkpt><trkpt lat="44.6491813" lon="11.6010679"><ele>3.0</ele><time>2026-04-22T11:16:06.349Z</time></trkpt><trkpt lat="44.6492371" lon="11.6010186"><ele>3.0</ele><time>2026-04-22T11:16:07.345Z</time></trkpt><trkpt lat="44.6492932" lon="11.6009693"><ele>3.0</ele><time>2026-04-22T11:16:08.353Z</time></trkpt><trkpt lat="44.6493507" lon="11.6009195"><ele>2.9999999999999996</ele><time>2026-04-22T11:16:09.347Z</time></trkpt><trkpt lat="44.6494077" lon="11.6008695"><ele>3.0</ele><time>2026-04-22T11:16:10.36Z</time></trkpt><trkpt lat="44.6494646" lon="11.6008196"><ele>3.1428571428571423</ele><time>2026-04-22T11:16:11.348Z</time></trkpt><trkpt lat="44.6495214" lon="11.6007697"><ele>3.2857142857142856</ele><time>2026-04-22T11:16:12.35Z</time></trkpt><trkpt lat="44.6495778" lon="11.6007196"><ele>3.4285714285714284</ele><time>2026-04-22T11:16:13.341Z</time></trkpt><trkpt lat="44.6496329" lon="11.6006689"><ele>3.571428571428571</ele><time>2026-04-22T11:16:14.353Z</time></trkpt><trkpt lat="44.6496879" lon="11.6006192"><ele>3.714285714285714</ele><time>2026-04-22T11:16:15.355Z</time></trkpt><trkpt lat="44.6497429" lon="11.6005703"><ele>3.8571428571428568</ele><time>2026-04-22T11:16:16.347Z</time></trkpt><trkpt lat="44.6497985" lon="11.6005214"><ele>4.0</ele><time>2026-04-22T11:16:17.342Z</time></trkpt><trkpt lat="44.649855" lon="11.6004734"><ele>4.0</ele><time>2026-04-22T11:16:18.351Z</time></trkpt><trkpt lat="44.6499111" lon="11.6004248"><ele>3.9999999999999996</ele><time>2026-04-22T11:16:19.35Z</time></trkpt><trkpt lat="44.6499669" lon="11.6003757"><ele>4.0</ele><time>2026-04-22T11:16:20.347Z</time></trkpt><trkpt lat="44.6500224" lon="11.6003267"><ele>4.0</ele><time>2026-04-22T11:16:21.329Z</time></trkpt><trkpt lat="44.6500784" lon="11.6002765"><ele>3.9999999999999996</ele><time>2026-04-22T11:16:22.346Z</time></trkpt><trkpt lat="44.6501349" lon="11.6002272"><ele>4.0</ele><time>2026-04-22T11:16:23.356Z</time></trkpt><trkpt lat="44.650191" lon="11.6001787"><ele>4.0</ele><time>2026-04-22T11:16:24.35Z</time></trkpt><trkpt lat="44.6502461" lon="11.6001285"><ele>3.8571428571428568</ele><time>2026-04-22T11:16:25.35Z</time></trkpt><trkpt lat="44.6503015" lon="11.6000785"><ele>3.714285714285714</ele><time>2026-04-22T11:16:26.352Z</time></trkpt><trkpt lat="44.6503576" lon="11.60003"><ele>3.571428571428571</ele><time>2026-04-22T11:16:27.344Z</time></trkpt><trkpt lat="44.650413" lon="11.5999814"><ele>3.4285714285714284</ele><time>2026-04-22T11:16:28.361Z</time></trkpt><trkpt lat="44.6504685" lon="11.5999338"><ele>3.2857142857142856</ele><time>2026-04-22T11:16:29.355Z</time></trkpt><trkpt lat="44.650523" lon="11.5998859"><ele>3.1428571428571423</ele><time>2026-04-22T11:16:30.339Z</time></trkpt><trkpt lat="44.6505781" lon="11.5998374"><ele>3.0</ele><time>2026-04-22T11:16:31.352Z</time></trkpt><trkpt lat="44.6506332" lon="11.5997878"><ele>2.9999999999999996</ele><time>2026-04-22T11:16:32.336Z</time></trkpt><trkpt lat="44.6506885" lon="11.5997392"><ele>3.0</ele><time>2026-04-22T11:16:33.342Z</time></trkpt><trkpt lat="44.650745" lon="11.5996912"><ele>3.0</ele><time>2026-04-22T11:16:34.347Z</time></trkpt><trkpt lat="44.6508014" lon="11.5996422"><ele>3.0</ele><time>2026-04-22T11:16:35.346Z</time></trkpt><trkpt lat="44.6508578" lon="11.5995926"><ele>3.0</ele><time>2026-04-22T11:16:36.355Z</time></trkpt><trkpt lat="44.6509134" lon="11.5995446"><ele>2.9999999999999996</ele><time>2026-04-22T11:16:37.343Z</time></trkpt><trkpt lat="44.6509677" lon="11.5994956"><ele>3.0</ele><time>2026-04-22T11:16:38.348Z</time></trkpt><trkpt lat="44.6510228" lon="11.5994485"><ele>3.0</ele><time>2026-04-22T11:16:39.359Z</time></trkpt><trkpt lat="44.6510767" lon="11.5993986"><ele>3.0</ele><time>2026-04-22T11:16:40.339Z</time></trkpt><trkpt lat="44.6511314" lon="11.5993495"><ele>3.0</ele><time>2026-04-22T11:16:41.349Z</time></trkpt><trkpt lat="44.6511856" lon="11.5993018"><ele>3.0</ele><time>2026-04-22T11:16:42.353Z</time></trkpt><trkpt lat="44.6512401" lon="11.5992538"><ele>3.0</ele><time>2026-04-22T11:16:43.346Z</time></trkpt><trkpt lat="44.6512938" lon="11.5992055"><ele>3.0</ele><time>2026-04-22T11:16:44.34Z</time></trkpt><trkpt lat="44.651346" lon="11.5991551"><ele>3.0</ele><time>2026-04-22T11:16:45.351Z</time></trkpt><trkpt lat="44.6513984" lon="11.5991047"><ele>3.0</ele><time>2026-04-22T11:16:46.359Z</time></trkpt><trkpt lat="44.6515045" lon="11.5990099"><ele>3.1428571428571423</ele><time>2026-04-22T11:16:48.346Z</time></trkpt><trkpt lat="44.6515584" lon="11.5989635"><ele>3.2857142857142856</ele><time>2026-04-22T11:16:49.351Z</time></trkpt><trkpt lat="44.6516653" lon="11.5988695"><ele>3.4285714285714284</ele><time>2026-04-22T11:16:51.351Z</time></trkpt><trkpt lat="44.6517191" lon="11.598822"><ele>3.571428571428571</ele><time>2026-04-22T11:16:52.346Z</time></trkpt><trkpt lat="44.6517729" lon="11.5987757"><ele>3.714285714285714</ele><time>2026-04-22T11:16:53.342Z</time></trkpt><trkpt lat="44.651827" lon="11.5987297"><ele>3.8571428571428568</ele><time>2026-04-22T11:16:54.341Z</time></trkpt><trkpt lat="44.6518805" lon="11.5986818"><ele>4.0</ele><time>2026-04-22T11:16:55.352Z</time></trkpt><trkpt lat="44.6519866" lon="11.5985866"><ele>4.0</ele><time>2026-04-22T11:16:57.349Z</time></trkpt><trkpt lat="44.65204" lon="11.5985393"><ele>3.9999999999999996</ele><time>2026-04-22T11:16:58.345Z</time></trkpt><trkpt lat="44.652147" lon="11.598446"><ele>4.0</ele><time>2026-04-22T11:17:00.353Z</time></trkpt><trkpt lat="44.6522007" lon="11.5983984"><ele>4.0</ele><time>2026-04-22T11:17:01.346Z</time></trkpt><trkpt lat="44.6522547" lon="11.5983521"><ele>3.9999999999999996</ele><time>2026-04-22T11:17:02.346Z</time></trkpt><trkpt lat="44.6523082" lon="11.5983044"><ele>4.0</ele><time>2026-04-22T11:17:03.343Z</time></trkpt><trkpt lat="44.6523612" lon="11.5982564"><ele>4.0</ele><time>2026-04-22T11:17:04.342Z</time></trkpt><trkpt lat="44.6524673" lon="11.5981626"><ele>3.9999999999999996</ele><time>2026-04-22T11:17:06.351Z</time></trkpt><trkpt lat="44.6525743" lon="11.5980696"><ele>4.0</ele><time>2026-04-22T11:17:08.348Z</time></trkpt><trkpt lat="44.6526284" lon="11.5980228"><ele>4.0</ele><time>2026-04-22T11:17:09.339Z</time></trkpt><trkpt lat="44.6526817" lon="11.5979748"><ele>4.0</ele><time>2026-04-22T11:17:10.345Z</time></trkpt><trkpt lat="44.6527347" lon="11.5979267"><ele>3.9999999999999996</ele><time>2026-04-22T11:17:11.354Z</time></trkpt><trkpt lat="44.6527881" lon="11.5978798"><ele>4.0</ele><time>2026-04-22T11:17:12.347Z</time></trkpt><trkpt lat="44.6528958" lon="11.5977895"><ele>4.142857142857142</ele><time>2026-04-22T11:17:14.354Z</time></trkpt><trkpt lat="44.6529505" lon="11.597744"><ele>4.285714285714286</ele><time>2026-04-22T11:17:15.351Z</time></trkpt><trkpt lat="44.6530048" lon="11.5976978"><ele>4.428571428571429</ele><time>2026-04-22T11:17:16.341Z</time></trkpt><trkpt lat="44.6530591" lon="11.5976528"><ele>4.571428571428571</ele><time>2026-04-22T11:17:17.354Z</time></trkpt><trkpt lat="44.6531648" lon="11.5975574"><ele>4.714285714285714</ele><time>2026-04-22T11:17:19.365Z</time></trkpt><trkpt lat="44.6532183" lon="11.5975101"><ele>4.857142857142857</ele><time>2026-04-22T11:17:20.352Z</time></trkpt><trkpt lat="44.6532717" lon="11.5974623"><ele>5.0</ele><time>2026-04-22T11:17:21.356Z</time></trkpt><trkpt lat="44.6533762" lon="11.5973645"><ele>5.0</ele><time>2026-04-22T11:17:23.347Z</time></trkpt><trkpt lat="44.6534832" lon="11.5972708"><ele>5.0</ele><time>2026-04-22T11:17:25.344Z</time></trkpt><trkpt lat="44.6535379" lon="11.5972258"><ele>5.0</ele><time>2026-04-22T11:17:26.345Z</time></trkpt><trkpt lat="44.6535911" lon="11.597176"><ele>5.0</ele><time>2026-04-22T11:17:27.346Z</time></trkpt><trkpt lat="44.6536427" lon="11.5971239"><ele>5.0</ele><time>2026-04-22T11:17:28.344Z</time></trkpt><trkpt lat="44.6536954" lon="11.597074"><ele>5.0</ele><time>2026-04-22T11:17:29.348Z</time></trkpt><trkpt lat="44.6537486" lon="11.5970266"><ele>5.0</ele><time>2026-04-22T11:17:30.344Z</time></trkpt><trkpt lat="44.6538022" lon="11.5969786"><ele>5.142857142857142</ele><time>2026-04-22T11:17:31.365Z</time></trkpt><trkpt lat="44.653855" lon="11.5969284"><ele>5.285714285714286</ele><time>2026-04-22T11:17:32.341Z</time></trkpt><trkpt lat="44.6539616" lon="11.5968351"><ele>5.428571428571429</ele><time>2026-04-22T11:17:34.351Z</time></trkpt><trkpt lat="44.654016" lon="11.59679"><ele>5.571428571428571</ele><time>2026-04-22T11:17:35.359Z</time></trkpt><trkpt lat="44.6540695" lon="11.5967422"><ele>5.714285714285714</ele><time>2026-04-22T11:17:36.342Z</time></trkpt><trkpt lat="44.6541226" lon="11.5966929"><ele>5.857142857142857</ele><time>2026-04-22T11:17:37.35Z</time></trkpt><trkpt lat="44.6541765" lon="11.5966438"><ele>6.0</ele><time>2026-04-22T11:17:38.346Z</time></trkpt><trkpt lat="44.6542312" lon="11.5965975"><ele>5.999999999999999</ele><time>2026-04-22T11:17:39.348Z</time></trkpt><trkpt lat="44.6542868" lon="11.5965532"><ele>6.0</ele><time>2026-04-22T11:17:40.352Z</time></trkpt><trkpt lat="44.6543417" lon="11.5965069"><ele>6.0</ele><time>2026-04-22T11:17:41.351Z</time></trkpt><trkpt lat="44.6543956" lon="11.5964586"><ele>6.0</ele><time>2026-04-22T11:17:42.356Z</time></trkpt><trkpt lat="44.654449" lon="11.5964074"><ele>6.0</ele><time>2026-04-22T11:17:43.35Z</time></trkpt><trkpt lat="44.6545038" lon="11.5963606"><ele>5.999999999999999</ele><time>2026-04-22T11:17:44.349Z</time></trkpt><trkpt lat="44.6546121" lon="11.5962682"><ele>6.0</ele><time>2026-04-22T11:17:46.356Z</time></trkpt><trkpt lat="44.6546673" lon="11.5962203"><ele>5.857142857142857</ele><time>2026-04-22T11:17:47.347Z</time></trkpt><trkpt lat="44.6547233" lon="11.5961719"><ele>5.714285714285714</ele><time>2026-04-22T11:17:48.351Z</time></trkpt><trkpt lat="44.6547795" lon="11.5961231"><ele>5.571428571428571</ele><time>2026-04-22T11:17:49.346Z</time></trkpt><trkpt lat="44.6548337" lon="11.5960725"><ele>5.428571428571429</ele><time>2026-04-22T11:17:50.342Z</time></trkpt><trkpt lat="44.6548884" lon="11.5960224"><ele>5.285714285714286</ele><time>2026-04-22T11:17:51.348Z</time></trkpt><trkpt lat="44.6549431" lon="11.595972"><ele>5.142857142857142</ele><time>2026-04-22T11:17:52.359Z</time></trkpt><trkpt lat="44.6549981" lon="11.5959218"><ele>5.0</ele><time>2026-04-22T11:17:53.337Z</time></trkpt><trkpt lat="44.6550536" lon="11.595872"><ele>5.0</ele><time>2026-04-22T11:17:54.354Z</time></trkpt><trkpt lat="44.6551089" lon="11.5958224"><ele>5.0</ele><time>2026-04-22T11:17:55.343Z</time></trkpt><trkpt lat="44.6551645" lon="11.5957748"><ele>5.0</ele><time>2026-04-22T11:17:56.347Z</time></trkpt><trkpt lat="44.65522" lon="11.5957283"><ele>5.0</ele><time>2026-04-22T11:17:57.359Z</time></trkpt><trkpt lat="44.6552727" lon="11.5956781"><ele>5.0</ele><time>2026-04-22T11:17:58.366Z</time></trkpt><trkpt lat="44.6553263" lon="11.5956292"><ele>5.0</ele><time>2026-04-22T11:17:59.354Z</time></trkpt><trkpt lat="44.655379" lon="11.5955795"><ele>5.0</ele><time>2026-04-22T11:18:00.347Z</time></trkpt><trkpt lat="44.6554315" lon="11.5955306"><ele>5.0</ele><time>2026-04-22T11:18:01.341Z</time></trkpt><trkpt lat="44.6555383" lon="11.5954352"><ele>5.0</ele><time>2026-04-22T11:18:03.348Z</time></trkpt><trkpt lat="44.6555918" lon="11.5953877"><ele>5.0</ele><time>2026-04-22T11:18:04.34Z</time></trkpt><trkpt lat="44.6556988" lon="11.595295"><ele>5.0</ele><time>2026-04-22T11:18:06.356Z</time></trkpt><trkpt lat="44.6558071" lon="11.5952061"><ele>5.0</ele><time>2026-04-22T11:18:08.352Z</time></trkpt><trkpt lat="44.6559145" lon="11.5951171"><ele>5.0</ele><time>2026-04-22T11:18:10.349Z</time></trkpt><trkpt lat="44.6560204" lon="11.5950216"><ele>5.0</ele><time>2026-04-22T11:18:12.351Z</time></trkpt><trkpt lat="44.6560742" lon="11.5949739"><ele>5.0</ele><time>2026-04-22T11:18:13.344Z</time></trkpt><trkpt lat="44.6561286" lon="11.594928"><ele>5.0</ele><time>2026-04-22T11:18:14.341Z</time></trkpt><trkpt lat="44.656183" lon="11.5948802"><ele>5.0</ele><time>2026-04-22T11:18:15.346Z</time></trkpt><trkpt lat="44.6562366" lon="11.5948314"><ele>5.0</ele><time>2026-04-22T11:18:16.352Z</time></trkpt><trkpt lat="44.6562903" lon="11.5947837"><ele>5.0</ele><time>2026-04-22T11:18:17.344Z</time></trkpt><trkpt lat="44.656344" lon="11.5947353"><ele>5.0</ele><time>2026-04-22T11:18:18.353Z</time></trkpt><trkpt lat="44.6563978" lon="11.5946869"><ele>5.0</ele><time>2026-04-22T11:18:19.341Z</time></trkpt><trkpt lat="44.6564515" lon="11.5946385"><ele>5.0</ele><time>2026-04-22T11:18:20.347Z</time></trkpt><trkpt lat="44.6565053" lon="11.594591"><ele>5.0</ele><time>2026-04-22T11:18:21.341Z</time></trkpt><trkpt lat="44.6565596" lon="11.5945443"><ele>5.0</ele><time>2026-04-22T11:18:22.348Z</time></trkpt><trkpt lat="44.6566137" lon="11.5944967"><ele>5.0</ele><time>2026-04-22T11:18:23.356Z</time></trkpt><trkpt lat="44.6566679" lon="11.5944487"><ele>5.0</ele><time>2026-04-22T11:18:24.349Z</time></trkpt><trkpt lat="44.656723" lon="11.5944017"><ele>5.0</ele><time>2026-04-22T11:18:25.347Z</time></trkpt><trkpt lat="44.6567772" lon="11.5943531"><ele>5.0</ele><time>2026-04-22T11:18:26.351Z</time></trkpt><trkpt lat="44.6568319" lon="11.5943051"><ele>5.0</ele><time>2026-04-22T11:18:27.352Z</time></trkpt><trkpt lat="44.6568863" lon="11.5942568"><ele>5.0</ele><time>2026-04-22T11:18:28.337Z</time></trkpt><trkpt lat="44.6569414" lon="11.5942084"><ele>5.0</ele><time>2026-04-22T11:18:29.343Z</time></trkpt><trkpt lat="44.6569968" lon="11.5941591"><ele>5.0</ele><time>2026-04-22T11:18:30.344Z</time></trkpt><trkpt lat="44.6570528" lon="11.5941109"><ele>5.0</ele><time>2026-04-22T11:18:31.343Z</time></trkpt><trkpt lat="44.6571078" lon="11.5940621"><ele>5.0</ele><time>2026-04-22T11:18:32.345Z</time></trkpt><trkpt lat="44.6571624" lon="11.5940124"><ele>5.0</ele><time>2026-04-22T11:18:33.347Z</time></trkpt><trkpt lat="44.6572181" lon="11.5939642"><ele>5.0</ele><time>2026-04-22T11:18:34.352Z</time></trkpt><trkpt lat="44.6572744" lon="11.5939161"><ele>4.714285714285714</ele><time>2026-04-22T11:18:35.354Z</time></trkpt><trkpt lat="44.6573299" lon="11.593868"><ele>4.428571428571429</ele><time>2026-04-22T11:18:36.345Z</time></trkpt><trkpt lat="44.6573851" lon="11.5938197"><ele>4.142857142857142</ele><time>2026-04-22T11:18:37.372Z</time></trkpt><trkpt lat="44.6574402" lon="11.5937707"><ele>3.8571428571428568</ele><time>2026-04-22T11:18:38.335Z</time></trkpt><trkpt lat="44.6574952" lon="11.5937213"><ele>3.571428571428571</ele><time>2026-04-22T11:18:39.343Z</time></trkpt><trkpt lat="44.6575505" lon="11.5936724"><ele>3.2857142857142856</ele><time>2026-04-22T11:18:40.343Z</time></trkpt><trkpt lat="44.6576057" lon="11.593625"><ele>3.0</ele><time>2026-04-22T11:18:41.344Z</time></trkpt><trkpt lat="44.6576607" lon="11.593577"><ele>2.9999999999999996</ele><time>2026-04-22T11:18:42.339Z</time></trkpt><trkpt lat="44.6577154" lon="11.5935286"><ele>3.0</ele><time>2026-04-22T11:18:43.337Z</time></trkpt><trkpt lat="44.6577699" lon="11.5934801"><ele>3.0</ele><time>2026-04-22T11:18:44.355Z</time></trkpt><trkpt lat="44.6578241" lon="11.5934311"><ele>3.0</ele><time>2026-04-22T11:18:45.352Z</time></trkpt><trkpt lat="44.6578782" lon="11.5933829"><ele>3.0</ele><time>2026-04-22T11:18:46.353Z</time></trkpt><trkpt lat="44.6579336" lon="11.5933362"><ele>2.9999999999999996</ele><time>2026-04-22T11:18:47.341Z</time></trkpt><trkpt lat="44.6579887" lon="11.5932894"><ele>3.0</ele><time>2026-04-22T11:18:48.338Z</time></trkpt><trkpt lat="44.6580431" lon="11.5932421"><ele>3.125</ele><time>2026-04-22T11:18:49.357Z</time></trkpt><trkpt lat="44.6580971" lon="11.5931936"><ele>3.25</ele><time>2026-04-22T11:18:50.344Z</time></trkpt><trkpt lat="44.658151" lon="11.5931454"><ele>3.375</ele><time>2026-04-22T11:18:51.34Z</time></trkpt><trkpt lat="44.658205" lon="11.5930968"><ele>3.5</ele><time>2026-04-22T11:18:52.351Z</time></trkpt><trkpt lat="44.6582597" lon="11.5930495"><ele>3.625</ele><time>2026-04-22T11:18:53.349Z</time></trkpt><trkpt lat="44.6583146" lon="11.5930021"><ele>3.75</ele><time>2026-04-22T11:18:54.347Z</time></trkpt><trkpt lat="44.6583689" lon="11.5929529"><ele>3.875</ele><time>2026-04-22T11:18:55.351Z</time></trkpt><trkpt lat="44.6584227" lon="11.5929059"><ele>4.0</ele><time>2026-04-22T11:18:56.343Z</time></trkpt><trkpt lat="44.6584764" lon="11.592859"><ele>3.8571428571428568</ele><time>2026-04-22T11:18:57.344Z</time></trkpt><trkpt lat="44.6585294" lon="11.5928107"><ele>3.714285714285714</ele><time>2026-04-22T11:18:58.354Z</time></trkpt><trkpt lat="44.6585826" lon="11.5927629"><ele>3.571428571428571</ele><time>2026-04-22T11:18:59.342Z</time></trkpt><trkpt lat="44.6586359" lon="11.5927154"><ele>3.4285714285714284</ele><time>2026-04-22T11:19:00.351Z</time></trkpt><trkpt lat="44.6586896" lon="11.5926684"><ele>3.2857142857142856</ele><time>2026-04-22T11:19:01.35Z</time></trkpt><trkpt lat="44.6587428" lon="11.5926206"><ele>3.1428571428571423</ele><time>2026-04-22T11:19:02.345Z</time></trkpt><trkpt lat="44.6588503" lon="11.592527"><ele>3.0</ele><time>2026-04-22T11:19:04.35Z</time></trkpt><trkpt lat="44.6589043" lon="11.5924783"><ele>2.9999999999999996</ele><time>2026-04-22T11:19:05.341Z</time></trkpt><trkpt lat="44.6589587" lon="11.59243"><ele>3.0</ele><time>2026-04-22T11:19:06.35Z</time></trkpt><trkpt lat="44.6590122" lon="11.5923809"><ele>3.0</ele><time>2026-04-22T11:19:07.362Z</time></trkpt><trkpt lat="44.6590659" lon="11.5923331"><ele>3.0</ele><time>2026-04-22T11:19:08.351Z</time></trkpt><trkpt lat="44.6591198" lon="11.592287"><ele>3.0</ele><time>2026-04-22T11:19:09.352Z</time></trkpt><trkpt lat="44.6592257" lon="11.5921924"><ele>2.9999999999999996</ele><time>2026-04-22T11:19:11.341Z</time></trkpt><trkpt lat="44.6592791" lon="11.5921446"><ele>3.0</ele><time>2026-04-22T11:19:12.342Z</time></trkpt><trkpt lat="44.6593323" lon="11.5920964"><ele>3.0</ele><time>2026-04-22T11:19:13.348Z</time></trkpt><trkpt lat="44.6593855" lon="11.5920485"><ele>3.0</ele><time>2026-04-22T11:19:14.352Z</time></trkpt><trkpt lat="44.6594381" lon="11.5919991"><ele>3.0</ele><time>2026-04-22T11:19:15.333Z</time></trkpt><trkpt lat="44.6594904" lon="11.5919491"><ele>3.0</ele><time>2026-04-22T11:19:16.351Z</time></trkpt><trkpt lat="44.6595437" lon="11.5919006"><ele>3.0</ele><time>2026-04-22T11:19:17.345Z</time></trkpt><trkpt lat="44.6595989" lon="11.5918542"><ele>3.0</ele><time>2026-04-22T11:19:18.353Z</time></trkpt><trkpt lat="44.6596545" lon="11.5918101"><ele>3.0</ele><time>2026-04-22T11:19:19.343Z</time></trkpt><trkpt lat="44.6597092" lon="11.591765"><ele>3.0</ele><time>2026-04-22T11:19:20.345Z</time></trkpt><trkpt lat="44.6597616" lon="11.5917159"><ele>3.0</ele><time>2026-04-22T11:19:21.348Z</time></trkpt><trkpt lat="44.6598669" lon="11.5916177"><ele>3.0</ele><time>2026-04-22T11:19:23.36Z</time></trkpt><trkpt lat="44.6599213" lon="11.5915689"><ele>3.0</ele><time>2026-04-22T11:19:24.354Z</time></trkpt><trkpt lat="44.6599769" lon="11.591521"><ele>3.0</ele><time>2026-04-22T11:19:25.352Z</time></trkpt><trkpt lat="44.6600332" lon="11.5914737"><ele>3.0</ele><time>2026-04-22T11:19:26.342Z</time></trkpt><trkpt lat="44.6600885" lon="11.5914235"><ele>3.0</ele><time>2026-04-22T11:19:27.352Z</time></trkpt><trkpt lat="44.660144" lon="11.5913733"><ele>2.9999999999999996</ele><time>2026-04-22T11:19:28.345Z</time></trkpt><trkpt lat="44.6602" lon="11.5913257"><ele>3.0</ele><time>2026-04-22T11:19:29.352Z</time></trkpt><trkpt lat="44.6602562" lon="11.5912781"><ele>3.0</ele><time>2026-04-22T11:19:30.349Z</time></trkpt><trkpt lat="44.6603123" lon="11.5912301"><ele>3.0</ele><time>2026-04-22T11:19:31.351Z</time></trkpt><trkpt lat="44.6603677" lon="11.591182"><ele>3.0</ele><time>2026-04-22T11:19:32.345Z</time></trkpt><trkpt lat="44.6604232" lon="11.5911323"><ele>2.9999999999999996</ele><time>2026-04-22T11:19:33.346Z</time></trkpt><trkpt lat="44.660478" lon="11.5910829"><ele>3.0</ele><time>2026-04-22T11:19:34.349Z</time></trkpt><trkpt lat="44.6605321" lon="11.5910333"><ele>3.1666666666666665</ele><time>2026-04-22T11:19:35.34Z</time></trkpt><trkpt lat="44.6605858" lon="11.5909841"><ele>3.333333333333333</ele><time>2026-04-22T11:19:36.34Z</time></trkpt><trkpt lat="44.6606386" lon="11.5909346"><ele>3.5</ele><time>2026-04-22T11:19:37.345Z</time></trkpt><trkpt lat="44.6606918" lon="11.5908859"><ele>3.6666666666666665</ele><time>2026-04-22T11:19:38.352Z</time></trkpt><trkpt lat="44.6607981" lon="11.5907924"><ele>3.833333333333333</ele><time>2026-04-22T11:19:40.348Z</time></trkpt><trkpt lat="44.6609044" lon="11.5907041"><ele>4.0</ele><time>2026-04-22T11:19:42.347Z</time></trkpt><trkpt lat="44.6610109" lon="11.5906142"><ele>4.2</ele><time>2026-04-22T11:19:44.359Z</time></trkpt><trkpt lat="44.6611169" lon="11.5905205"><ele>4.4</ele><time>2026-04-22T11:19:46.351Z</time></trkpt><trkpt lat="44.6611705" lon="11.5904735"><ele>4.6</ele><time>2026-04-22T11:19:47.353Z</time></trkpt><trkpt lat="44.6612747" lon="11.5903763"><ele>4.8</ele><time>2026-04-22T11:19:49.354Z</time></trkpt><trkpt lat="44.6613813" lon="11.5902834"><ele>5.0</ele><time>2026-04-22T11:19:51.344Z</time></trkpt><trkpt lat="44.6614874" lon="11.5901911"><ele>5.0</ele><time>2026-04-22T11:19:53.338Z</time></trkpt><trkpt lat="44.6615927" lon="11.5900981"><ele>5.0</ele><time>2026-04-22T11:19:55.344Z</time></trkpt><trkpt lat="44.6616976" lon="11.590006"><ele>5.0</ele><time>2026-04-22T11:19:57.344Z</time></trkpt><trkpt lat="44.661802" lon="11.5899146"><ele>5.0</ele><time>2026-04-22T11:19:59.342Z</time></trkpt><trkpt lat="44.6619066" lon="11.5898218"><ele>5.25</ele><time>2026-04-22T11:20:01.346Z</time></trkpt><trkpt lat="44.6620113" lon="11.5897303"><ele>5.5</ele><time>2026-04-22T11:20:03.349Z</time></trkpt><trkpt lat="44.6621153" lon="11.5896363"><ele>5.75</ele><time>2026-04-22T11:20:05.347Z</time></trkpt><trkpt lat="44.6622206" lon="11.5895452"><ele>6.0</ele><time>2026-04-22T11:20:07.356Z</time></trkpt><trkpt lat="44.6623244" lon="11.5894538"><ele>6.0</ele><time>2026-04-22T11:20:09.353Z</time></trkpt><trkpt lat="44.6624282" lon="11.5893599"><ele>6.0</ele><time>2026-04-22T11:20:11.347Z</time></trkpt><trkpt lat="44.6625329" lon="11.5892677"><ele>6.0</ele><time>2026-04-22T11:20:13.345Z</time></trkpt><trkpt lat="44.6626372" lon="11.5891742"><ele>6.0</ele><time>2026-04-22T11:20:15.35Z</time></trkpt><trkpt lat="44.6627426" lon="11.5890825"><ele>5.833333333333333</ele><time>2026-04-22T11:20:17.341Z</time></trkpt><trkpt lat="44.6628484" lon="11.5889882"><ele>5.666666666666667</ele><time>2026-04-22T11:20:19.349Z</time></trkpt><trkpt lat="44.6629541" lon="11.5888925"><ele>5.5</ele><time>2026-04-22T11:20:21.347Z</time></trkpt><trkpt lat="44.6630078" lon="11.5888458"><ele>5.333333333333334</ele><time>2026-04-22T11:20:22.348Z</time></trkpt><trkpt lat="44.6630617" lon="11.5887977"><ele>5.166666666666667</ele><time>2026-04-22T11:20:23.349Z</time></trkpt><trkpt lat="44.6631147" lon="11.5887494"><ele>5.0</ele><time>2026-04-22T11:20:24.338Z</time></trkpt><trkpt lat="44.6632216" lon="11.5886562"><ele>5.0</ele><time>2026-04-22T11:20:26.352Z</time></trkpt><trkpt lat="44.6633279" lon="11.5885629"><ele>5.0</ele><time>2026-04-22T11:20:28.34Z</time></trkpt><trkpt lat="44.6634331" lon="11.5884679"><ele>5.0</ele><time>2026-04-22T11:20:30.347Z</time></trkpt><trkpt lat="44.663541" lon="11.5883766"><ele>5.0</ele><time>2026-04-22T11:20:32.35Z</time></trkpt><trkpt lat="44.6636467" lon="11.5882821"><ele>5.0</ele><time>2026-04-22T11:20:34.341Z</time></trkpt><trkpt lat="44.6636998" lon="11.5882344"><ele>5.0</ele><time>2026-04-22T11:20:35.353Z</time></trkpt><trkpt lat="44.6638041" lon="11.5881426"><ele>5.0</ele><time>2026-04-22T11:20:37.347Z</time></trkpt><trkpt lat="44.6639082" lon="11.5880508"><ele>5.0</ele><time>2026-04-22T11:20:39.345Z</time></trkpt><trkpt lat="44.6640107" lon="11.5879552"><ele>5.0</ele><time>2026-04-22T11:20:41.34Z</time></trkpt><trkpt lat="44.6641159" lon="11.5878634"><ele>5.0</ele><time>2026-04-22T11:20:43.347Z</time></trkpt><trkpt lat="44.6642214" lon="11.5877715"><ele>5.0</ele><time>2026-04-22T11:20:45.347Z</time></trkpt><trkpt lat="44.664327" lon="11.5876782"><ele>5.0</ele><time>2026-04-22T11:20:47.357Z</time></trkpt><trkpt lat="44.6644322" lon="11.5875849"><ele>5.0</ele><time>2026-04-22T11:20:49.349Z</time></trkpt><trkpt lat="44.664536" lon="11.5874928"><ele>5.0</ele><time>2026-04-22T11:20:51.347Z</time></trkpt><trkpt lat="44.6646405" lon="11.5874031"><ele>5.0</ele><time>2026-04-22T11:20:53.354Z</time></trkpt><trkpt lat="44.6647407" lon="11.5873022"><ele>5.0</ele><time>2026-04-22T11:20:55.359Z</time></trkpt><trkpt lat="44.6648436" lon="11.5872084"><ele>5.0</ele><time>2026-04-22T11:20:57.347Z</time></trkpt><trkpt lat="44.6649488" lon="11.5871154"><ele>5.0</ele><time>2026-04-22T11:20:59.339Z</time></trkpt><trkpt lat="44.6650535" lon="11.5870209"><ele>5.0</ele><time>2026-04-22T11:21:01.352Z</time></trkpt><trkpt lat="44.6651072" lon="11.5869733"><ele>5.0</ele><time>2026-04-22T11:21:02.349Z</time></trkpt><trkpt lat="44.6651608" lon="11.5869266"><ele>5.0</ele><time>2026-04-22T11:21:03.356Z</time></trkpt><trkpt lat="44.6652164" lon="11.5868842"><ele>5.0</ele><time>2026-04-22T11:21:04.358Z</time></trkpt><trkpt lat="44.6652714" lon="11.5868406"><ele>5.0</ele><time>2026-04-22T11:21:05.341Z</time></trkpt><trkpt lat="44.6653246" lon="11.5867925"><ele>5.0</ele><time>2026-04-22T11:21:06.343Z</time></trkpt><trkpt lat="44.6654309" lon="11.5866993"><ele>5.4</ele><time>2026-04-22T11:21:08.349Z</time></trkpt><trkpt lat="44.6655357" lon="11.5866068"><ele>5.8</ele><time>2026-04-22T11:21:10.347Z</time></trkpt><trkpt lat="44.6656413" lon="11.5865152"><ele>6.199999999999999</ele><time>2026-04-22T11:21:12.356Z</time></trkpt><trkpt lat="44.6657483" lon="11.5864224"><ele>6.6</ele><time>2026-04-22T11:21:14.354Z</time></trkpt><trkpt lat="44.6658022" lon="11.5863756"><ele>7.0</ele><time>2026-04-22T11:21:15.353Z</time></trkpt><trkpt lat="44.6658558" lon="11.5863283"><ele>7.0</ele><time>2026-04-22T11:21:16.351Z</time></trkpt><trkpt lat="44.6659093" lon="11.5862812"><ele>6.999999999999999</ele><time>2026-04-22T11:21:17.357Z</time></trkpt><trkpt lat="44.6660133" lon="11.5861867"><ele>6.999999999999999</ele><time>2026-04-22T11:21:19.357Z</time></trkpt><trkpt lat="44.6661174" lon="11.5860962"><ele>7.0</ele><time>2026-04-22T11:21:21.355Z</time></trkpt><trkpt lat="44.6662162" lon="11.5860091"><ele>7.0</ele><time>2026-04-22T11:21:23.351Z</time></trkpt><trkpt lat="44.6663059" lon="11.585928"><ele>7.199999999999999</ele><time>2026-04-22T11:21:25.36Z</time></trkpt><trkpt lat="44.6663885" lon="11.5858528"><ele>7.3999999999999995</ele><time>2026-04-22T11:21:27.345Z</time></trkpt><trkpt lat="44.6664633" lon="11.5857772"><ele>7.6000000000000005</ele><time>2026-04-22T11:21:29.348Z</time></trkpt><trkpt lat="44.6665439" lon="11.5857072"><ele>7.800000000000001</ele><time>2026-04-22T11:21:31.363Z</time></trkpt><trkpt lat="44.6666198" lon="11.5856395"><ele>8.0</ele><time>2026-04-22T11:21:33.341Z</time></trkpt><trkpt lat="44.6666888" lon="11.5855848"><ele>7.999999999999999</ele><time>2026-04-22T11:21:35.348Z</time></trkpt><trkpt lat="44.6667535" lon="11.5855265"><ele>8.0</ele><time>2026-04-22T11:21:37.359Z</time></trkpt><trkpt lat="44.6668075" lon="11.5854473"><ele>8.0</ele><time>2026-04-22T11:21:39.342Z</time></trkpt><trkpt lat="44.6668502" lon="11.5853553"><ele>8.0</ele><time>2026-04-22T11:21:41.341Z</time></trkpt><trkpt lat="44.6668792" lon="11.5852573"><ele>7.999999999999999</ele><time>2026-04-22T11:21:43.362Z</time></trkpt><trkpt lat="44.6668847" lon="11.5851339"><ele>8.0</ele><time>2026-04-22T11:21:45.343Z</time></trkpt><trkpt lat="44.666867" lon="11.5849917"><ele>8.0</ele><time>2026-04-22T11:21:47.34Z</time></trkpt><trkpt lat="44.666838" lon="11.5848257"><ele>8.0</ele><time>2026-04-22T11:21:49.347Z</time></trkpt><trkpt lat="44.6668076" lon="11.5846609"><ele>8.0</ele><time>2026-04-22T11:21:51.356Z</time></trkpt><trkpt lat="44.6667794" lon="11.584492"><ele>8.0</ele><time>2026-04-22T11:21:53.348Z</time></trkpt><trkpt lat="44.66675" lon="11.5843244"><ele>8.0</ele><time>2026-04-22T11:21:55.35Z</time></trkpt><trkpt lat="44.6667211" lon="11.584156"><ele>8.0</ele><time>2026-04-22T11:21:57.343Z</time></trkpt><trkpt lat="44.6666901" lon="11.5839897"><ele>8.0</ele><time>2026-04-22T11:21:59.35Z</time></trkpt><trkpt lat="44.666659" lon="11.583821"><ele>8.0</ele><time>2026-04-22T11:22:01.337Z</time></trkpt><trkpt lat="44.6666278" lon="11.5836512"><ele>7.999999999999999</ele><time>2026-04-22T11:22:03.346Z</time></trkpt><trkpt lat="44.6665983" lon="11.5834802"><ele>8.0</ele><time>2026-04-22T11:22:05.353Z</time></trkpt><trkpt lat="44.6665837" lon="11.5833939"><ele>8.0</ele><time>2026-04-22T11:22:06.34Z</time></trkpt><trkpt lat="44.6665532" lon="11.5832214"><ele>8.0</ele><time>2026-04-22T11:22:08.342Z</time></trkpt><trkpt lat="44.6665384" lon="11.5831337"><ele>7.999999999999999</ele><time>2026-04-22T11:22:09.348Z</time></trkpt><trkpt lat="44.6665232" lon="11.5830463"><ele>8.0</ele><time>2026-04-22T11:22:10.338Z</time></trkpt><trkpt lat="44.6665081" lon="11.5829577"><ele>8.0</ele><time>2026-04-22T11:22:11.348Z</time></trkpt><trkpt lat="44.666493" lon="11.582869"><ele>7.999999999999999</ele><time>2026-04-22T11:22:12.351Z</time></trkpt><trkpt lat="44.6664763" lon="11.5827802"><ele>8.0</ele><time>2026-04-22T11:22:13.352Z</time></trkpt><trkpt lat="44.6664607" lon="11.5826921"><ele>8.0</ele><time>2026-04-22T11:22:14.349Z</time></trkpt><trkpt lat="44.6664454" lon="11.5826039"><ele>7.999999999999999</ele><time>2026-04-22T11:22:15.34Z</time></trkpt><trkpt lat="44.6664317" lon="11.5825153"><ele>8.0</ele><time>2026-04-22T11:22:16.34Z</time></trkpt><trkpt lat="44.6664168" lon="11.5824274"><ele>8.0</ele><time>2026-04-22T11:22:17.341Z</time></trkpt><trkpt lat="44.6664015" lon="11.5823395"><ele>8.0</ele><time>2026-04-22T11:22:18.344Z</time></trkpt><trkpt lat="44.6663867" lon="11.5822507"><ele>8.0</ele><time>2026-04-22T11:22:19.338Z</time></trkpt><trkpt lat="44.6663719" lon="11.5821631"><ele>8.0</ele><time>2026-04-22T11:22:20.351Z</time></trkpt><trkpt lat="44.6663569" lon="11.5820748"><ele>8.0</ele><time>2026-04-22T11:22:21.349Z</time></trkpt><trkpt lat="44.6663415" lon="11.5819879"><ele>8.0</ele><time>2026-04-22T11:22:22.352Z</time></trkpt><trkpt lat="44.6663264" lon="11.5819006"><ele>8.0</ele><time>2026-04-22T11:22:23.336Z</time></trkpt><trkpt lat="44.6663119" lon="11.5818127"><ele>8.0</ele><time>2026-04-22T11:22:24.336Z</time></trkpt><trkpt lat="44.6662963" lon="11.5817259"><ele>8.0</ele><time>2026-04-22T11:22:25.339Z</time></trkpt><trkpt lat="44.6662803" lon="11.5816387"><ele>8.0</ele><time>2026-04-22T11:22:26.346Z</time></trkpt><trkpt lat="44.6662636" lon="11.5815524"><ele>8.0</ele><time>2026-04-22T11:22:27.338Z</time></trkpt><trkpt lat="44.6662482" lon="11.5814655"><ele>8.0</ele><time>2026-04-22T11:22:28.346Z</time></trkpt><trkpt lat="44.6662331" lon="11.5813787"><ele>8.0</ele><time>2026-04-22T11:22:29.351Z</time></trkpt><trkpt lat="44.6662185" lon="11.5812915"><ele>8.0</ele><time>2026-04-22T11:22:30.347Z</time></trkpt><trkpt lat="44.6662036" lon="11.5812042"><ele>8.0</ele><time>2026-04-22T11:22:31.351Z</time></trkpt><trkpt lat="44.6661888" lon="11.581117"><ele>8.0</ele><time>2026-04-22T11:22:32.351Z</time></trkpt><trkpt lat="44.6661736" lon="11.58103"><ele>8.0</ele><time>2026-04-22T11:22:33.349Z</time></trkpt><trkpt lat="44.6661588" lon="11.5809425"><ele>7.999999999999999</ele><time>2026-04-22T11:22:34.351Z</time></trkpt><trkpt lat="44.6661427" lon="11.5808555"><ele>8.0</ele><time>2026-04-22T11:22:35.342Z</time></trkpt><trkpt lat="44.6661113" lon="11.5806824"><ele>8.0</ele><time>2026-04-22T11:22:37.346Z</time></trkpt><trkpt lat="44.6660954" lon="11.5805946"><ele>8.0</ele><time>2026-04-22T11:22:38.351Z</time></trkpt><trkpt lat="44.6660636" lon="11.5804194"><ele>7.999999999999999</ele><time>2026-04-22T11:22:40.347Z</time></trkpt><trkpt lat="44.6660487" lon="11.5803317"><ele>8.0</ele><time>2026-04-22T11:22:41.341Z</time></trkpt><trkpt lat="44.6660329" lon="11.5802448"><ele>8.285714285714285</ele><time>2026-04-22T11:22:42.341Z</time></trkpt><trkpt lat="44.6660181" lon="11.5801585"><ele>8.571428571428571</ele><time>2026-04-22T11:22:43.351Z</time></trkpt><trkpt lat="44.6659898" lon="11.5799858"><ele>8.857142857142858</ele><time>2026-04-22T11:22:45.344Z</time></trkpt><trkpt lat="44.6659747" lon="11.5798997"><ele>9.142857142857142</ele><time>2026-04-22T11:22:46.35Z</time></trkpt><trkpt lat="44.6659585" lon="11.5798128"><ele>9.428571428571429</ele><time>2026-04-22T11:22:47.352Z</time></trkpt><trkpt lat="44.6659413" lon="11.5797262"><ele>9.714285714285714</ele><time>2026-04-22T11:22:48.348Z</time></trkpt><trkpt lat="44.6659255" lon="11.5796389"><ele>10.0</ele><time>2026-04-22T11:22:49.344Z</time></trkpt><trkpt lat="44.6659101" lon="11.5795512"><ele>10.0</ele><time>2026-04-22T11:22:50.354Z</time></trkpt><trkpt lat="44.6658937" lon="11.5794631"><ele>10.0</ele><time>2026-04-22T11:22:51.344Z</time></trkpt><trkpt lat="44.665879" lon="11.5793731"><ele>10.0</ele><time>2026-04-22T11:22:52.347Z</time></trkpt><trkpt lat="44.6658643" lon="11.5792815"><ele>10.0</ele><time>2026-04-22T11:22:53.331Z</time></trkpt><trkpt lat="44.6658496" lon="11.57919"><ele>10.0</ele><time>2026-04-22T11:22:54.344Z</time></trkpt><trkpt lat="44.6658351" lon="11.5790986"><ele>10.0</ele><time>2026-04-22T11:22:55.345Z</time></trkpt><trkpt lat="44.6658206" lon="11.5790085"><ele>10.0</ele><time>2026-04-22T11:22:56.349Z</time></trkpt><trkpt lat="44.6658046" lon="11.5789167"><ele>10.0</ele><time>2026-04-22T11:22:57.35Z</time></trkpt><trkpt lat="44.6657897" lon="11.5788259"><ele>10.0</ele><time>2026-04-22T11:22:58.327Z</time></trkpt><trkpt lat="44.6657744" lon="11.5787349"><ele>10.0</ele><time>2026-04-22T11:22:59.348Z</time></trkpt><trkpt lat="44.6657612" lon="11.5786424"><ele>10.0</ele><time>2026-04-22T11:23:00.343Z</time></trkpt><trkpt lat="44.665748" lon="11.5785503"><ele>10.0</ele><time>2026-04-22T11:23:01.343Z</time></trkpt><trkpt lat="44.6657347" lon="11.5784592"><ele>10.0</ele><time>2026-04-22T11:23:02.338Z</time></trkpt><trkpt lat="44.6657211" lon="11.5783677"><ele>10.0</ele><time>2026-04-22T11:23:03.329Z</time></trkpt><trkpt lat="44.6657087" lon="11.5782758"><ele>10.142857142857142</ele><time>2026-04-22T11:23:04.332Z</time></trkpt><trkpt lat="44.665699" lon="11.5781836"><ele>10.285714285714286</ele><time>2026-04-22T11:23:05.327Z</time></trkpt><trkpt lat="44.6656909" lon="11.5780909"><ele>10.428571428571429</ele><time>2026-04-22T11:23:06.335Z</time></trkpt><trkpt lat="44.6656827" lon="11.578"><ele>10.571428571428571</ele><time>2026-04-22T11:23:07.345Z</time></trkpt><trkpt lat="44.6656752" lon="11.5779083"><ele>10.714285714285714</ele><time>2026-04-22T11:23:08.348Z</time></trkpt><trkpt lat="44.6656676" lon="11.5778147"><ele>10.857142857142858</ele><time>2026-04-22T11:23:09.349Z</time></trkpt><trkpt lat="44.6656604" lon="11.5777199"><ele>11.0</ele><time>2026-04-22T11:23:10.347Z</time></trkpt><trkpt lat="44.6656537" lon="11.5776269"><ele>10.714285714285715</ele><time>2026-04-22T11:23:11.346Z</time></trkpt><trkpt lat="44.665646" lon="11.5775327"><ele>10.428571428571429</ele><time>2026-04-22T11:23:12.356Z</time></trkpt><trkpt lat="44.6656362" lon="11.5774365"><ele>10.142857142857142</ele><time>2026-04-22T11:23:13.341Z</time></trkpt><trkpt lat="44.6656235" lon="11.5773407"><ele>9.857142857142858</ele><time>2026-04-22T11:23:14.346Z</time></trkpt><trkpt lat="44.6656105" lon="11.5772465"><ele>9.571428571428571</ele><time>2026-04-22T11:23:15.339Z</time></trkpt><trkpt lat="44.6655978" lon="11.5771524"><ele>9.285714285714286</ele><time>2026-04-22T11:23:16.342Z</time></trkpt><trkpt lat="44.6655816" lon="11.5770575"><ele>9.0</ele><time>2026-04-22T11:23:17.342Z</time></trkpt><trkpt lat="44.6655666" lon="11.5769633"><ele>8.857142857142858</ele><time>2026-04-22T11:23:18.342Z</time></trkpt><trkpt lat="44.665551" lon="11.57687"><ele>8.714285714285715</ele><time>2026-04-22T11:23:19.337Z</time></trkpt><trkpt lat="44.6655311" lon="11.5767741"><ele>8.571428571428571</ele><time>2026-04-22T11:23:20.341Z</time></trkpt><trkpt lat="44.6655107" lon="11.5766788"><ele>8.428571428571429</ele><time>2026-04-22T11:23:21.338Z</time></trkpt><trkpt lat="44.6654891" lon="11.5765844"><ele>8.285714285714285</ele><time>2026-04-22T11:23:22.342Z</time></trkpt><trkpt lat="44.6654703" lon="11.5764903"><ele>8.142857142857142</ele><time>2026-04-22T11:23:23.352Z</time></trkpt><trkpt lat="44.6654524" lon="11.5763974"><ele>8.0</ele><time>2026-04-22T11:23:24.347Z</time></trkpt><trkpt lat="44.6654328" lon="11.5763049"><ele>8.0</ele><time>2026-04-22T11:23:25.339Z</time></trkpt><trkpt lat="44.6654127" lon="11.5762124"><ele>7.999999999999999</ele><time>2026-04-22T11:23:26.347Z</time></trkpt><trkpt lat="44.6653925" lon="11.5761187"><ele>8.0</ele><time>2026-04-22T11:23:27.341Z</time></trkpt><trkpt lat="44.6653732" lon="11.5760252"><ele>8.0</ele><time>2026-04-22T11:23:28.34Z</time></trkpt><trkpt lat="44.6653531" lon="11.5759321"><ele>7.999999999999999</ele><time>2026-04-22T11:23:29.355Z</time></trkpt><trkpt lat="44.6653335" lon="11.5758386"><ele>8.0</ele><time>2026-04-22T11:23:30.342Z</time></trkpt><trkpt lat="44.6653142" lon="11.5757436"><ele>8.0</ele><time>2026-04-22T11:23:31.343Z</time></trkpt><trkpt lat="44.6652937" lon="11.5756488"><ele>8.142857142857142</ele><time>2026-04-22T11:23:32.343Z</time></trkpt><trkpt lat="44.6652731" lon="11.5755535"><ele>8.285714285714285</ele><time>2026-04-22T11:23:33.34Z</time></trkpt><trkpt lat="44.6652516" lon="11.5754593"><ele>8.428571428571429</ele><time>2026-04-22T11:23:34.338Z</time></trkpt><trkpt lat="44.6652311" lon="11.5753639"><ele>8.571428571428571</ele><time>2026-04-22T11:23:35.355Z</time></trkpt><trkpt lat="44.6652105" lon="11.575268"><ele>8.714285714285715</ele><time>2026-04-22T11:23:36.337Z</time></trkpt><trkpt lat="44.6651902" lon="11.5751697"><ele>8.857142857142858</ele><time>2026-04-22T11:23:37.34Z</time></trkpt><trkpt lat="44.6651706" lon="11.575072"><ele>9.0</ele><time>2026-04-22T11:23:38.351Z</time></trkpt><trkpt lat="44.6651498" lon="11.5749738"><ele>9.000000000000002</ele><time>2026-04-22T11:23:39.338Z</time></trkpt><trkpt lat="44.6651305" lon="11.5748755"><ele>9.0</ele><time>2026-04-22T11:23:40.345Z</time></trkpt><trkpt lat="44.6651109" lon="11.5747769"><ele>9.0</ele><time>2026-04-22T11:23:41.344Z</time></trkpt><trkpt lat="44.6650904" lon="11.57468"><ele>9.0</ele><time>2026-04-22T11:23:42.335Z</time></trkpt><trkpt lat="44.6650683" lon="11.5745839"><ele>9.0</ele><time>2026-04-22T11:23:43.343Z</time></trkpt><trkpt lat="44.6650471" lon="11.5744864"><ele>9.000000000000002</ele><time>2026-04-22T11:23:44.343Z</time></trkpt><trkpt lat="44.6650282" lon="11.5743882"><ele>9.0</ele><time>2026-04-22T11:23:45.34Z</time></trkpt><trkpt lat="44.6650094" lon="11.5742907"><ele>8.857142857142858</ele><time>2026-04-22T11:23:46.338Z</time></trkpt><trkpt lat="44.6649904" lon="11.574194"><ele>8.714285714285715</ele><time>2026-04-22T11:23:47.352Z</time></trkpt><trkpt lat="44.6649712" lon="11.5740979"><ele>8.571428571428571</ele><time>2026-04-22T11:23:48.356Z</time></trkpt><trkpt lat="44.664952" lon="11.5740021"><ele>8.428571428571429</ele><time>2026-04-22T11:23:49.349Z</time></trkpt><trkpt lat="44.6649339" lon="11.5739061"><ele>8.285714285714285</ele><time>2026-04-22T11:23:50.346Z</time></trkpt><trkpt lat="44.6649165" lon="11.5738095"><ele>8.142857142857142</ele><time>2026-04-22T11:23:51.34Z</time></trkpt><trkpt lat="44.6649002" lon="11.573713"><ele>8.0</ele><time>2026-04-22T11:23:52.346Z</time></trkpt><trkpt lat="44.6648845" lon="11.5736157"><ele>8.0</ele><time>2026-04-22T11:23:53.34Z</time></trkpt><trkpt lat="44.6648703" lon="11.5735179"><ele>7.999999999999999</ele><time>2026-04-22T11:23:54.34Z</time></trkpt><trkpt lat="44.6648554" lon="11.5734199"><ele>8.0</ele><time>2026-04-22T11:23:55.34Z</time></trkpt><trkpt lat="44.6648406" lon="11.5733206"><ele>8.0</ele><time>2026-04-22T11:23:56.346Z</time></trkpt><trkpt lat="44.6648265" lon="11.5732199"><ele>7.999999999999999</ele><time>2026-04-22T11:23:57.346Z</time></trkpt><trkpt lat="44.6648124" lon="11.5731193"><ele>8.0</ele><time>2026-04-22T11:23:58.34Z</time></trkpt><trkpt lat="44.6647982" lon="11.573018"><ele>8.0</ele><time>2026-04-22T11:23:59.332Z</time></trkpt><trkpt lat="44.6647844" lon="11.5729161"><ele>8.142857142857142</ele><time>2026-04-22T11:24:00.352Z</time></trkpt><trkpt lat="44.6647711" lon="11.5728159"><ele>8.285714285714285</ele><time>2026-04-22T11:24:01.354Z</time></trkpt><trkpt lat="44.6647597" lon="11.5727145"><ele>8.428571428571429</ele><time>2026-04-22T11:24:02.346Z</time></trkpt><trkpt lat="44.664746" lon="11.5726145"><ele>8.571428571428571</ele><time>2026-04-22T11:24:03.356Z</time></trkpt><trkpt lat="44.6647303" lon="11.5725152"><ele>8.714285714285715</ele><time>2026-04-22T11:24:04.34Z</time></trkpt><trkpt lat="44.664716" lon="11.5724163"><ele>8.857142857142858</ele><time>2026-04-22T11:24:05.37Z</time></trkpt><trkpt lat="44.6647032" lon="11.5723173"><ele>9.0</ele><time>2026-04-22T11:24:06.343Z</time></trkpt><trkpt lat="44.6646901" lon="11.5722183"><ele>9.000000000000002</ele><time>2026-04-22T11:24:07.345Z</time></trkpt><trkpt lat="44.6646762" lon="11.57212"><ele>9.0</ele><time>2026-04-22T11:24:08.347Z</time></trkpt><trkpt lat="44.6646624" lon="11.5720231"><ele>9.0</ele><time>2026-04-22T11:24:09.355Z</time></trkpt><trkpt lat="44.6646474" lon="11.5719266"><ele>9.0</ele><time>2026-04-22T11:24:10.35Z</time></trkpt><trkpt lat="44.6646307" lon="11.571831"><ele>9.0</ele><time>2026-04-22T11:24:11.35Z</time></trkpt><trkpt lat="44.6646131" lon="11.5717352"><ele>9.000000000000002</ele><time>2026-04-22T11:24:12.344Z</time></trkpt><trkpt lat="44.6645949" lon="11.5716394"><ele>9.0</ele><time>2026-04-22T11:24:13.349Z</time></trkpt><trkpt lat="44.6645776" lon="11.5715423"><ele>9.000000000000002</ele><time>2026-04-22T11:24:14.358Z</time></trkpt><trkpt lat="44.6645594" lon="11.5714451"><ele>9.0</ele><time>2026-04-22T11:24:15.344Z</time></trkpt><trkpt lat="44.6645398" lon="11.5713476"><ele>9.0</ele><time>2026-04-22T11:24:16.345Z</time></trkpt><trkpt lat="44.6645196" lon="11.5712505"><ele>9.0</ele><time>2026-04-22T11:24:17.349Z</time></trkpt><trkpt lat="44.6645002" lon="11.5711528"><ele>9.0</ele><time>2026-04-22T11:24:18.348Z</time></trkpt><trkpt lat="44.6644824" lon="11.5710546"><ele>9.000000000000002</ele><time>2026-04-22T11:24:19.336Z</time></trkpt><trkpt lat="44.6644639" lon="11.5709563"><ele>9.0</ele><time>2026-04-22T11:24:20.358Z</time></trkpt><trkpt lat="44.6644451" lon="11.5708582"><ele>9.000000000000002</ele><time>2026-04-22T11:24:21.345Z</time></trkpt><trkpt lat="44.664425" lon="11.57076"><ele>9.0</ele><time>2026-04-22T11:24:22.34Z</time></trkpt><trkpt lat="44.6644035" lon="11.5706621"><ele>9.0</ele><time>2026-04-22T11:24:23.354Z</time></trkpt><trkpt lat="44.6643814" lon="11.5705654"><ele>9.0</ele><time>2026-04-22T11:24:24.355Z</time></trkpt><trkpt lat="44.664359" lon="11.5704685"><ele>9.0</ele><time>2026-04-22T11:24:25.351Z</time></trkpt><trkpt lat="44.6643371" lon="11.5703722"><ele>9.000000000000002</ele><time>2026-04-22T11:24:26.349Z</time></trkpt><trkpt lat="44.6643144" lon="11.5702763"><ele>9.0</ele><time>2026-04-22T11:24:27.351Z</time></trkpt><trkpt lat="44.6642925" lon="11.5701808"><ele>9.000000000000002</ele><time>2026-04-22T11:24:28.357Z</time></trkpt><trkpt lat="44.6642726" lon="11.5700851"><ele>9.0</ele><time>2026-04-22T11:24:29.34Z</time></trkpt><trkpt lat="44.6642522" lon="11.5699906"><ele>9.0</ele><time>2026-04-22T11:24:30.348Z</time></trkpt><trkpt lat="44.6642335" lon="11.5698948"><ele>9.0</ele><time>2026-04-22T11:24:31.346Z</time></trkpt><trkpt lat="44.6642146" lon="11.5698003"><ele>9.0</ele><time>2026-04-22T11:24:32.339Z</time></trkpt><trkpt lat="44.6641962" lon="11.569706"><ele>9.000000000000002</ele><time>2026-04-22T11:24:33.348Z</time></trkpt><trkpt lat="44.6641782" lon="11.5696116"><ele>9.0</ele><time>2026-04-22T11:24:34.346Z</time></trkpt><trkpt lat="44.664159" lon="11.5695167"><ele>9.142857142857144</ele><time>2026-04-22T11:24:35.341Z</time></trkpt><trkpt lat="44.6641409" lon="11.5694209"><ele>9.285714285714286</ele><time>2026-04-22T11:24:36.345Z</time></trkpt><trkpt lat="44.6641255" lon="11.5693244"><ele>9.428571428571429</ele><time>2026-04-22T11:24:37.34Z</time></trkpt><trkpt lat="44.6641086" lon="11.5692275"><ele>9.571428571428573</ele><time>2026-04-22T11:24:38.348Z</time></trkpt><trkpt lat="44.6640927" lon="11.5691303"><ele>9.714285714285715</ele><time>2026-04-22T11:24:39.344Z</time></trkpt><trkpt lat="44.6640777" lon="11.5690315"><ele>9.857142857142858</ele><time>2026-04-22T11:24:40.34Z</time></trkpt><trkpt lat="44.6640633" lon="11.5689331"><ele>10.0</ele><time>2026-04-22T11:24:41.344Z</time></trkpt><trkpt lat="44.6640492" lon="11.5688342"><ele>10.0</ele><time>2026-04-22T11:24:42.338Z</time></trkpt><trkpt lat="44.6640351" lon="11.5687357"><ele>10.0</ele><time>2026-04-22T11:24:43.344Z</time></trkpt><trkpt lat="44.6640203" lon="11.5686369"><ele>10.0</ele><time>2026-04-22T11:24:44.342Z</time></trkpt><trkpt lat="44.6640068" lon="11.5685385"><ele>10.0</ele><time>2026-04-22T11:24:45.346Z</time></trkpt><trkpt lat="44.663994" lon="11.5684395"><ele>10.0</ele><time>2026-04-22T11:24:46.345Z</time></trkpt><trkpt lat="44.6639797" lon="11.5683418"><ele>10.0</ele><time>2026-04-22T11:24:47.338Z</time></trkpt><trkpt lat="44.6639673" lon="11.5682423"><ele>10.0</ele><time>2026-04-22T11:24:48.351Z</time></trkpt><trkpt lat="44.6639556" lon="11.5681432"><ele>9.857142857142858</ele><time>2026-04-22T11:24:49.345Z</time></trkpt><trkpt lat="44.6639417" lon="11.568044"><ele>9.714285714285715</ele><time>2026-04-22T11:24:50.369Z</time></trkpt><trkpt lat="44.6639271" lon="11.5679449"><ele>9.571428571428573</ele><time>2026-04-22T11:24:51.339Z</time></trkpt><trkpt lat="44.6639155" lon="11.5678454"><ele>9.428571428571429</ele><time>2026-04-22T11:24:52.345Z</time></trkpt><trkpt lat="44.6639035" lon="11.5677466"><ele>9.285714285714286</ele><time>2026-04-22T11:24:53.347Z</time></trkpt><trkpt lat="44.6638913" lon="11.5676487"><ele>9.142857142857144</ele><time>2026-04-22T11:24:54.35Z</time></trkpt><trkpt lat="44.6638783" lon="11.5675512"><ele>9.0</ele><time>2026-04-22T11:24:55.341Z</time></trkpt><trkpt lat="44.6638617" lon="11.5674556"><ele>8.857142857142858</ele><time>2026-04-22T11:24:56.354Z</time></trkpt><trkpt lat="44.6638457" lon="11.5673606"><ele>8.714285714285715</ele><time>2026-04-22T11:24:57.346Z</time></trkpt><trkpt lat="44.6638298" lon="11.5672655"><ele>8.571428571428571</ele><time>2026-04-22T11:24:58.348Z</time></trkpt><trkpt lat="44.6638133" lon="11.5671715"><ele>8.428571428571429</ele><time>2026-04-22T11:24:59.345Z</time></trkpt><trkpt lat="44.6637936" lon="11.567078"><ele>8.285714285714285</ele><time>2026-04-22T11:25:00.337Z</time></trkpt><trkpt lat="44.6637731" lon="11.566985"><ele>8.142857142857142</ele><time>2026-04-22T11:25:01.349Z</time></trkpt><trkpt lat="44.6637527" lon="11.5668916"><ele>8.0</ele><time>2026-04-22T11:25:02.345Z</time></trkpt><trkpt lat="44.6637321" lon="11.5667984"><ele>8.0</ele><time>2026-04-22T11:25:03.352Z</time></trkpt><trkpt lat="44.663711" lon="11.566705"><ele>7.999999999999999</ele><time>2026-04-22T11:25:04.347Z</time></trkpt><trkpt lat="44.6636878" lon="11.5666116"><ele>8.0</ele><time>2026-04-22T11:25:05.347Z</time></trkpt><trkpt lat="44.6636634" lon="11.5665193"><ele>8.0</ele><time>2026-04-22T11:25:06.33Z</time></trkpt><trkpt lat="44.6636392" lon="11.566426"><ele>7.999999999999999</ele><time>2026-04-22T11:25:07.35Z</time></trkpt><trkpt lat="44.663616" lon="11.5663321"><ele>8.0</ele><time>2026-04-22T11:25:08.34Z</time></trkpt><trkpt lat="44.6635907" lon="11.5662386"><ele>8.0</ele><time>2026-04-22T11:25:09.348Z</time></trkpt><trkpt lat="44.6635627" lon="11.5661475"><ele>8.142857142857142</ele><time>2026-04-22T11:25:10.359Z</time></trkpt><trkpt lat="44.6635324" lon="11.566057"><ele>8.285714285714285</ele><time>2026-04-22T11:25:11.342Z</time></trkpt><trkpt lat="44.6635017" lon="11.5659663"><ele>8.428571428571429</ele><time>2026-04-22T11:25:12.338Z</time></trkpt><trkpt lat="44.6634699" lon="11.5658751"><ele>8.571428571428571</ele><time>2026-04-22T11:25:13.345Z</time></trkpt><trkpt lat="44.6634364" lon="11.5657855"><ele>8.714285714285715</ele><time>2026-04-22T11:25:14.347Z</time></trkpt><trkpt lat="44.6634017" lon="11.5656962"><ele>8.857142857142858</ele><time>2026-04-22T11:25:15.34Z</time></trkpt><trkpt lat="44.6633654" lon="11.5656069"><ele>9.0</ele><time>2026-04-22T11:25:16.348Z</time></trkpt><trkpt lat="44.6633264" lon="11.5655193"><ele>9.000000000000002</ele><time>2026-04-22T11:25:17.341Z</time></trkpt><trkpt lat="44.6632854" lon="11.5654339"><ele>9.0</ele><time>2026-04-22T11:25:18.357Z</time></trkpt><trkpt lat="44.6632458" lon="11.565348"><ele>9.0</ele><time>2026-04-22T11:25:19.35Z</time></trkpt><trkpt lat="44.6632064" lon="11.565261"><ele>9.0</ele><time>2026-04-22T11:25:20.342Z</time></trkpt><trkpt lat="44.6631648" lon="11.5651768"><ele>9.0</ele><time>2026-04-22T11:25:21.342Z</time></trkpt><trkpt lat="44.6631236" lon="11.5650933"><ele>9.000000000000002</ele><time>2026-04-22T11:25:22.349Z</time></trkpt><trkpt lat="44.6630823" lon="11.5650098"><ele>9.0</ele><time>2026-04-22T11:25:23.348Z</time></trkpt><trkpt lat="44.6630419" lon="11.5649246"><ele>9.000000000000002</ele><time>2026-04-22T11:25:24.349Z</time></trkpt><trkpt lat="44.6630006" lon="11.5648409"><ele>9.0</ele><time>2026-04-22T11:25:25.352Z</time></trkpt><trkpt lat="44.6629598" lon="11.5647579"><ele>9.0</ele><time>2026-04-22T11:25:26.343Z</time></trkpt><trkpt lat="44.6629191" lon="11.564674"><ele>9.0</ele><time>2026-04-22T11:25:27.356Z</time></trkpt><trkpt lat="44.6628783" lon="11.5645896"><ele>9.0</ele><time>2026-04-22T11:25:28.355Z</time></trkpt><trkpt lat="44.6628386" lon="11.5645034"><ele>9.000000000000002</ele><time>2026-04-22T11:25:29.337Z</time></trkpt><trkpt lat="44.6627979" lon="11.5644185"><ele>9.0</ele><time>2026-04-22T11:25:30.344Z</time></trkpt><trkpt lat="44.6627564" lon="11.5643336"><ele>9.000000000000002</ele><time>2026-04-22T11:25:31.351Z</time></trkpt><trkpt lat="44.6627148" lon="11.5642503"><ele>9.0</ele><time>2026-04-22T11:25:32.342Z</time></trkpt><trkpt lat="44.6626729" lon="11.5641668"><ele>9.0</ele><time>2026-04-22T11:25:33.349Z</time></trkpt><trkpt lat="44.6626308" lon="11.5640835"><ele>9.0</ele><time>2026-04-22T11:25:34.344Z</time></trkpt><trkpt lat="44.6625892" lon="11.5639998"><ele>9.0</ele><time>2026-04-22T11:25:35.337Z</time></trkpt><trkpt lat="44.6625463" lon="11.5639169"><ele>9.000000000000002</ele><time>2026-04-22T11:25:36.339Z</time></trkpt><trkpt lat="44.6625036" lon="11.5638337"><ele>9.0</ele><time>2026-04-22T11:25:37.352Z</time></trkpt><trkpt lat="44.662462" lon="11.5637483"><ele>9.000000000000002</ele><time>2026-04-22T11:25:38.343Z</time></trkpt><trkpt lat="44.6624204" lon="11.5636638"><ele>9.0</ele><time>2026-04-22T11:25:39.357Z</time></trkpt><trkpt lat="44.6623787" lon="11.5635784"><ele>9.0</ele><time>2026-04-22T11:25:40.346Z</time></trkpt><trkpt lat="44.6623382" lon="11.5634916"><ele>9.0</ele><time>2026-04-22T11:25:41.343Z</time></trkpt><trkpt lat="44.6622965" lon="11.5634046"><ele>9.0</ele><time>2026-04-22T11:25:42.341Z</time></trkpt><trkpt lat="44.6622558" lon="11.5633201"><ele>9.000000000000002</ele><time>2026-04-22T11:25:43.339Z</time></trkpt><trkpt lat="44.6622151" lon="11.5632346"><ele>9.0</ele><time>2026-04-22T11:25:44.352Z</time></trkpt><trkpt lat="44.6621732" lon="11.5631476"><ele>9.000000000000002</ele><time>2026-04-22T11:25:45.349Z</time></trkpt><trkpt lat="44.6621304" lon="11.5630614"><ele>9.0</ele><time>2026-04-22T11:25:46.343Z</time></trkpt><trkpt lat="44.6620881" lon="11.5629751"><ele>9.0</ele><time>2026-04-22T11:25:47.346Z</time></trkpt><trkpt lat="44.6620463" lon="11.5628887"><ele>9.0</ele><time>2026-04-22T11:25:48.338Z</time></trkpt><trkpt lat="44.6620044" lon="11.5628018"><ele>9.0</ele><time>2026-04-22T11:25:49.343Z</time></trkpt><trkpt lat="44.66196" lon="11.562717"><ele>9.000000000000002</ele><time>2026-04-22T11:25:50.355Z</time></trkpt><trkpt lat="44.6619159" lon="11.5626306"><ele>9.0</ele><time>2026-04-22T11:25:51.352Z</time></trkpt><trkpt lat="44.6618738" lon="11.5625446"><ele>9.0</ele><time>2026-04-22T11:25:52.353Z</time></trkpt><trkpt lat="44.6618339" lon="11.5624558"><ele>9.0</ele><time>2026-04-22T11:25:53.347Z</time></trkpt><trkpt lat="44.6617918" lon="11.5623652"><ele>9.0</ele><time>2026-04-22T11:25:54.354Z</time></trkpt><trkpt lat="44.6617482" lon="11.5622782"><ele>9.0</ele><time>2026-04-22T11:25:55.348Z</time></trkpt><trkpt lat="44.6617043" lon="11.5621923"><ele>9.0</ele><time>2026-04-22T11:25:56.362Z</time></trkpt><trkpt lat="44.6616614" lon="11.5621058"><ele>9.0</ele><time>2026-04-22T11:25:57.35Z</time></trkpt><trkpt lat="44.6616194" lon="11.5620202"><ele>9.0</ele><time>2026-04-22T11:25:58.345Z</time></trkpt><trkpt lat="44.6615777" lon="11.5619328"><ele>9.0</ele><time>2026-04-22T11:25:59.351Z</time></trkpt><trkpt lat="44.6615364" lon="11.5618452"><ele>9.0</ele><time>2026-04-22T11:26:00.349Z</time></trkpt><trkpt lat="44.6614956" lon="11.5617569"><ele>9.0</ele><time>2026-04-22T11:26:01.345Z</time></trkpt><trkpt lat="44.6614547" lon="11.5616678"><ele>9.0</ele><time>2026-04-22T11:26:02.353Z</time></trkpt><trkpt lat="44.6614121" lon="11.5615795"><ele>9.0</ele><time>2026-04-22T11:26:03.339Z</time></trkpt><trkpt lat="44.6613689" lon="11.5614917"><ele>9.0</ele><time>2026-04-22T11:26:04.34Z</time></trkpt><trkpt lat="44.661327" lon="11.5614024"><ele>9.0</ele><time>2026-04-22T11:26:05.351Z</time></trkpt><trkpt lat="44.661284" lon="11.5613142"><ele>9.0</ele><time>2026-04-22T11:26:06.348Z</time></trkpt><trkpt lat="44.6612428" lon="11.5612253"><ele>9.0</ele><time>2026-04-22T11:26:07.347Z</time></trkpt><trkpt lat="44.6612015" lon="11.5611364"><ele>9.0</ele><time>2026-04-22T11:26:08.35Z</time></trkpt><trkpt lat="44.6611596" lon="11.5610476"><ele>9.0</ele><time>2026-04-22T11:26:09.351Z</time></trkpt><trkpt lat="44.661119" lon="11.5609578"><ele>8.833333333333334</ele><time>2026-04-22T11:26:10.346Z</time></trkpt><trkpt lat="44.6610767" lon="11.560868"><ele>8.666666666666666</ele><time>2026-04-22T11:26:11.349Z</time></trkpt><trkpt lat="44.6610343" lon="11.5607783"><ele>8.5</ele><time>2026-04-22T11:26:12.347Z</time></trkpt><trkpt lat="44.6609912" lon="11.560687"><ele>8.333333333333332</ele><time>2026-04-22T11:26:13.329Z</time></trkpt><trkpt lat="44.6609482" lon="11.5605956"><ele>8.166666666666666</ele><time>2026-04-22T11:26:14.346Z</time></trkpt><trkpt lat="44.6609047" lon="11.5605047"><ele>8.0</ele><time>2026-04-22T11:26:15.333Z</time></trkpt><trkpt lat="44.6608627" lon="11.5604107"><ele>7.999999999999999</ele><time>2026-04-22T11:26:16.338Z</time></trkpt><trkpt lat="44.6608206" lon="11.560319"><ele>8.0</ele><time>2026-04-22T11:26:17.359Z</time></trkpt><trkpt lat="44.6607772" lon="11.560229"><ele>8.0</ele><time>2026-04-22T11:26:18.339Z</time></trkpt><trkpt lat="44.660735" lon="11.5601373"><ele>8.0</ele><time>2026-04-22T11:26:19.344Z</time></trkpt><trkpt lat="44.660693" lon="11.5600459"><ele>7.999999999999999</ele><time>2026-04-22T11:26:20.348Z</time></trkpt><trkpt lat="44.6606504" lon="11.5599548"><ele>8.0</ele><time>2026-04-22T11:26:21.35Z</time></trkpt><trkpt lat="44.6606056" lon="11.5598656"><ele>7.999999999999999</ele><time>2026-04-22T11:26:22.345Z</time></trkpt><trkpt lat="44.6605627" lon="11.5597755"><ele>8.0</ele><time>2026-04-22T11:26:23.348Z</time></trkpt><trkpt lat="44.6605219" lon="11.5596846"><ele>8.0</ele><time>2026-04-22T11:26:24.357Z</time></trkpt><trkpt lat="44.6604811" lon="11.5595931"><ele>8.0</ele><time>2026-04-22T11:26:25.348Z</time></trkpt><trkpt lat="44.6604386" lon="11.5595029"><ele>7.999999999999999</ele><time>2026-04-22T11:26:26.347Z</time></trkpt><trkpt lat="44.6603939" lon="11.5594152"><ele>8.0</ele><time>2026-04-22T11:26:27.342Z</time></trkpt><trkpt lat="44.6603515" lon="11.5593257"><ele>7.999999999999999</ele><time>2026-04-22T11:26:28.346Z</time></trkpt><trkpt lat="44.6603076" lon="11.5592356"><ele>8.0</ele><time>2026-04-22T11:26:29.359Z</time></trkpt><trkpt lat="44.6602671" lon="11.5591435"><ele>8.0</ele><time>2026-04-22T11:26:30.338Z</time></trkpt><trkpt lat="44.6602281" lon="11.5590504"><ele>8.0</ele><time>2026-04-22T11:26:31.352Z</time></trkpt><trkpt lat="44.6601897" lon="11.5589578"><ele>7.999999999999999</ele><time>2026-04-22T11:26:32.341Z</time></trkpt><trkpt lat="44.6601521" lon="11.5588642"><ele>8.0</ele><time>2026-04-22T11:26:33.352Z</time></trkpt><trkpt lat="44.6601136" lon="11.5587727"><ele>8.166666666666666</ele><time>2026-04-22T11:26:34.345Z</time></trkpt><trkpt lat="44.6600732" lon="11.5586813"><ele>8.333333333333332</ele><time>2026-04-22T11:26:35.347Z</time></trkpt><trkpt lat="44.6600337" lon="11.5585901"><ele>8.5</ele><time>2026-04-22T11:26:36.353Z</time></trkpt><trkpt lat="44.6599934" lon="11.558499"><ele>8.666666666666666</ele><time>2026-04-22T11:26:37.357Z</time></trkpt><trkpt lat="44.6599522" lon="11.5584096"><ele>8.833333333333334</ele><time>2026-04-22T11:26:38.361Z</time></trkpt><trkpt lat="44.6599115" lon="11.5583188"><ele>9.0</ele><time>2026-04-22T11:26:39.342Z</time></trkpt><trkpt lat="44.6598715" lon="11.5582286"><ele>9.0</ele><time>2026-04-22T11:26:40.35Z</time></trkpt><trkpt lat="44.6598316" lon="11.5581369"><ele>9.0</ele><time>2026-04-22T11:26:41.363Z</time></trkpt><trkpt lat="44.6597905" lon="11.5580444"><ele>9.0</ele><time>2026-04-22T11:26:42.348Z</time></trkpt><trkpt lat="44.6597487" lon="11.5579535"><ele>9.0</ele><time>2026-04-22T11:26:43.343Z</time></trkpt><trkpt lat="44.6597077" lon="11.5578626"><ele>9.0</ele><time>2026-04-22T11:26:44.342Z</time></trkpt><trkpt lat="44.6596684" lon="11.5577712"><ele>9.0</ele><time>2026-04-22T11:26:45.348Z</time></trkpt><trkpt lat="44.6596298" lon="11.5576795"><ele>8.857142857142858</ele><time>2026-04-22T11:26:46.366Z</time></trkpt><trkpt lat="44.6595903" lon="11.5575891"><ele>8.714285714285715</ele><time>2026-04-22T11:26:47.347Z</time></trkpt><trkpt lat="44.6595496" lon="11.5575002"><ele>8.571428571428571</ele><time>2026-04-22T11:26:48.348Z</time></trkpt><trkpt lat="44.6595084" lon="11.5574128"><ele>8.428571428571429</ele><time>2026-04-22T11:26:49.357Z</time></trkpt><trkpt lat="44.6594676" lon="11.5573241"><ele>8.285714285714285</ele><time>2026-04-22T11:26:50.356Z</time></trkpt><trkpt lat="44.6594288" lon="11.5572347"><ele>8.142857142857142</ele><time>2026-04-22T11:26:51.355Z</time></trkpt><trkpt lat="44.6593904" lon="11.5571454"><ele>8.0</ele><time>2026-04-22T11:26:52.348Z</time></trkpt><trkpt lat="44.6593509" lon="11.5570571"><ele>8.0</ele><time>2026-04-22T11:26:53.356Z</time></trkpt><trkpt lat="44.6593117" lon="11.5569701"><ele>7.999999999999999</ele><time>2026-04-22T11:26:54.356Z</time></trkpt><trkpt lat="44.6592718" lon="11.5568834"><ele>8.0</ele><time>2026-04-22T11:26:55.347Z</time></trkpt><trkpt lat="44.6592321" lon="11.556798"><ele>8.0</ele><time>2026-04-22T11:26:56.35Z</time></trkpt><trkpt lat="44.6591927" lon="11.5567119"><ele>7.999999999999999</ele><time>2026-04-22T11:26:57.35Z</time></trkpt><trkpt lat="44.6591551" lon="11.5566251"><ele>8.0</ele><time>2026-04-22T11:26:58.333Z</time></trkpt><trkpt lat="44.6591164" lon="11.5565382"><ele>8.0</ele><time>2026-04-22T11:26:59.344Z</time></trkpt><trkpt lat="44.6590764" lon="11.556452"><ele>8.0</ele><time>2026-04-22T11:27:00.347Z</time></trkpt><trkpt lat="44.6590372" lon="11.5563663"><ele>7.999999999999999</ele><time>2026-04-22T11:27:01.345Z</time></trkpt><trkpt lat="44.6589985" lon="11.5562802"><ele>8.0</ele><time>2026-04-22T11:27:02.351Z</time></trkpt><trkpt lat="44.6589609" lon="11.5561923"><ele>8.0</ele><time>2026-04-22T11:27:03.344Z</time></trkpt><trkpt lat="44.6589231" lon="11.5561041"><ele>7.999999999999999</ele><time>2026-04-22T11:27:04.346Z</time></trkpt><trkpt lat="44.6588829" lon="11.5560178"><ele>8.0</ele><time>2026-04-22T11:27:05.344Z</time></trkpt><trkpt lat="44.6588427" lon="11.5559321"><ele>8.0</ele><time>2026-04-22T11:27:06.354Z</time></trkpt><trkpt lat="44.6588038" lon="11.5558462"><ele>8.142857142857142</ele><time>2026-04-22T11:27:07.354Z</time></trkpt><trkpt lat="44.6587665" lon="11.5557593"><ele>8.285714285714285</ele><time>2026-04-22T11:27:08.337Z</time></trkpt><trkpt lat="44.6587272" lon="11.5556736"><ele>8.428571428571429</ele><time>2026-04-22T11:27:09.35Z</time></trkpt><trkpt lat="44.6586882" lon="11.5555874"><ele>8.571428571428571</ele><time>2026-04-22T11:27:10.353Z</time></trkpt><trkpt lat="44.6586476" lon="11.5555029"><ele>8.714285714285715</ele><time>2026-04-22T11:27:11.362Z</time></trkpt><trkpt lat="44.6586065" lon="11.5554182"><ele>8.857142857142858</ele><time>2026-04-22T11:27:12.346Z</time></trkpt><trkpt lat="44.6585665" lon="11.5553322"><ele>9.0</ele><time>2026-04-22T11:27:13.34Z</time></trkpt><trkpt lat="44.6585268" lon="11.5552454"><ele>9.000000000000002</ele><time>2026-04-22T11:27:14.349Z</time></trkpt><trkpt lat="44.6584878" lon="11.5551583"><ele>9.0</ele><time>2026-04-22T11:27:15.354Z</time></trkpt><trkpt lat="44.6584494" lon="11.5550719"><ele>9.0</ele><time>2026-04-22T11:27:16.342Z</time></trkpt><trkpt lat="44.6584115" lon="11.5549849"><ele>9.0</ele><time>2026-04-22T11:27:17.344Z</time></trkpt><trkpt lat="44.6583738" lon="11.5548981"><ele>9.0</ele><time>2026-04-22T11:27:18.353Z</time></trkpt><trkpt lat="44.658336" lon="11.554811"><ele>9.000000000000002</ele><time>2026-04-22T11:27:19.345Z</time></trkpt><trkpt lat="44.6582982" lon="11.5547236"><ele>9.0</ele><time>2026-04-22T11:27:20.346Z</time></trkpt><trkpt lat="44.6582614" lon="11.5546369"><ele>9.000000000000002</ele><time>2026-04-22T11:27:21.36Z</time></trkpt><trkpt lat="44.6582244" lon="11.5545504"><ele>9.0</ele><time>2026-04-22T11:27:22.341Z</time></trkpt><trkpt lat="44.6581872" lon="11.5544645"><ele>9.0</ele><time>2026-04-22T11:27:23.352Z</time></trkpt><trkpt lat="44.6581498" lon="11.5543786"><ele>9.0</ele><time>2026-04-22T11:27:24.355Z</time></trkpt><trkpt lat="44.6581112" lon="11.5542937"><ele>9.0</ele><time>2026-04-22T11:27:25.342Z</time></trkpt><trkpt lat="44.6580734" lon="11.5542093"><ele>9.000000000000002</ele><time>2026-04-22T11:27:26.34Z</time></trkpt><trkpt lat="44.6580346" lon="11.5541252"><ele>9.0</ele><time>2026-04-22T11:27:27.341Z</time></trkpt><trkpt lat="44.6579964" lon="11.5540408"><ele>9.000000000000002</ele><time>2026-04-22T11:27:28.348Z</time></trkpt><trkpt lat="44.6579585" lon="11.5539566"><ele>9.0</ele><time>2026-04-22T11:27:29.34Z</time></trkpt><trkpt lat="44.6579219" lon="11.5538706"><ele>9.0</ele><time>2026-04-22T11:27:30.344Z</time></trkpt><trkpt lat="44.6578856" lon="11.5537844"><ele>9.0</ele><time>2026-04-22T11:27:31.353Z</time></trkpt><trkpt lat="44.6578488" lon="11.5536985"><ele>9.0</ele><time>2026-04-22T11:27:32.353Z</time></trkpt><trkpt lat="44.6578102" lon="11.5536142"><ele>9.000000000000002</ele><time>2026-04-22T11:27:33.338Z</time></trkpt><trkpt lat="44.6577741" lon="11.5535286"><ele>9.0</ele><time>2026-04-22T11:27:34.338Z</time></trkpt><trkpt lat="44.6577389" lon="11.5534423"><ele>9.000000000000002</ele><time>2026-04-22T11:27:35.353Z</time></trkpt><trkpt lat="44.6577027" lon="11.5533564"><ele>9.0</ele><time>2026-04-22T11:27:36.356Z</time></trkpt><trkpt lat="44.6576649" lon="11.5532731"><ele>9.0</ele><time>2026-04-22T11:27:37.347Z</time></trkpt><trkpt lat="44.6576264" lon="11.5531893"><ele>9.0</ele><time>2026-04-22T11:27:38.346Z</time></trkpt><trkpt lat="44.6575879" lon="11.5531059"><ele>9.0</ele><time>2026-04-22T11:27:39.338Z</time></trkpt><trkpt lat="44.6575481" lon="11.5530237"><ele>9.000000000000002</ele><time>2026-04-22T11:27:40.36Z</time></trkpt><trkpt lat="44.6575083" lon="11.5529416"><ele>9.0</ele><time>2026-04-22T11:27:41.342Z</time></trkpt><trkpt lat="44.6574691" lon="11.5528584"><ele>9.142857142857144</ele><time>2026-04-22T11:27:42.344Z</time></trkpt><trkpt lat="44.6574318" lon="11.5527744"><ele>9.285714285714286</ele><time>2026-04-22T11:27:43.359Z</time></trkpt><trkpt lat="44.6573949" lon="11.55269"><ele>9.428571428571429</ele><time>2026-04-22T11:27:44.336Z</time></trkpt><trkpt lat="44.6573579" lon="11.5526055"><ele>9.571428571428573</ele><time>2026-04-22T11:27:45.346Z</time></trkpt><trkpt lat="44.6573218" lon="11.5525209"><ele>9.714285714285715</ele><time>2026-04-22T11:27:46.355Z</time></trkpt><trkpt lat="44.6572847" lon="11.5524368"><ele>9.857142857142858</ele><time>2026-04-22T11:27:47.33Z</time></trkpt><trkpt lat="44.6572477" lon="11.5523516"><ele>10.0</ele><time>2026-04-22T11:27:48.344Z</time></trkpt><trkpt lat="44.6572102" lon="11.5522671"><ele>10.0</ele><time>2026-04-22T11:27:49.35Z</time></trkpt><trkpt lat="44.6571719" lon="11.5521834"><ele>10.0</ele><time>2026-04-22T11:27:50.343Z</time></trkpt><trkpt lat="44.6571335" lon="11.5520993"><ele>10.0</ele><time>2026-04-22T11:27:51.344Z</time></trkpt><trkpt lat="44.6570948" lon="11.5520155"><ele>10.0</ele><time>2026-04-22T11:27:52.353Z</time></trkpt><trkpt lat="44.6570552" lon="11.5519322"><ele>10.0</ele><time>2026-04-22T11:27:53.366Z</time></trkpt><trkpt lat="44.6570146" lon="11.5518487"><ele>10.0</ele><time>2026-04-22T11:27:54.355Z</time></trkpt><trkpt lat="44.6569744" lon="11.5517663"><ele>10.0</ele><time>2026-04-22T11:27:55.352Z</time></trkpt><trkpt lat="44.6569331" lon="11.5516848"><ele>10.0</ele><time>2026-04-22T11:27:56.346Z</time></trkpt><trkpt lat="44.6568924" lon="11.551602"><ele>10.0</ele><time>2026-04-22T11:27:57.349Z</time></trkpt><trkpt lat="44.6568521" lon="11.5515194"><ele>10.0</ele><time>2026-04-22T11:27:58.347Z</time></trkpt><trkpt lat="44.6568116" lon="11.5514359"><ele>10.0</ele><time>2026-04-22T11:27:59.348Z</time></trkpt><trkpt lat="44.6567701" lon="11.5513529"><ele>10.0</ele><time>2026-04-22T11:28:00.344Z</time></trkpt><trkpt lat="44.6567287" lon="11.5512701"><ele>10.0</ele><time>2026-04-22T11:28:01.348Z</time></trkpt><trkpt lat="44.6566872" lon="11.5511871"><ele>10.0</ele><time>2026-04-22T11:28:02.349Z</time></trkpt><trkpt lat="44.6566461" lon="11.551106"><ele>10.142857142857142</ele><time>2026-04-22T11:28:03.346Z</time></trkpt><trkpt lat="44.6566054" lon="11.5510244"><ele>10.285714285714286</ele><time>2026-04-22T11:28:04.341Z</time></trkpt><trkpt lat="44.6565639" lon="11.5509411"><ele>10.428571428571429</ele><time>2026-04-22T11:28:05.35Z</time></trkpt><trkpt lat="44.6565222" lon="11.5508591"><ele>10.571428571428571</ele><time>2026-04-22T11:28:06.353Z</time></trkpt><trkpt lat="44.65648" lon="11.5507769"><ele>10.714285714285714</ele><time>2026-04-22T11:28:07.353Z</time></trkpt><trkpt lat="44.6564385" lon="11.5506917"><ele>10.857142857142858</ele><time>2026-04-22T11:28:08.343Z</time></trkpt><trkpt lat="44.6563974" lon="11.5506076"><ele>11.0</ele><time>2026-04-22T11:28:09.344Z</time></trkpt><trkpt lat="44.6563554" lon="11.5505253"><ele>11.0</ele><time>2026-04-22T11:28:10.346Z</time></trkpt><trkpt lat="44.6563143" lon="11.5504429"><ele>11.0</ele><time>2026-04-22T11:28:11.345Z</time></trkpt><trkpt lat="44.6562739" lon="11.5503614"><ele>11.0</ele><time>2026-04-22T11:28:12.35Z</time></trkpt><trkpt lat="44.6562338" lon="11.55028"><ele>11.0</ele><time>2026-04-22T11:28:13.343Z</time></trkpt><trkpt lat="44.6561942" lon="11.5501992"><ele>11.0</ele><time>2026-04-22T11:28:14.36Z</time></trkpt><trkpt lat="44.6561536" lon="11.5501206"><ele>11.0</ele><time>2026-04-22T11:28:15.341Z</time></trkpt><trkpt lat="44.6561127" lon="11.5500422"><ele>11.0</ele><time>2026-04-22T11:28:16.344Z</time></trkpt><trkpt lat="44.6560725" lon="11.5499636"><ele>10.857142857142858</ele><time>2026-04-22T11:28:17.339Z</time></trkpt><trkpt lat="44.6560324" lon="11.5498856"><ele>10.714285714285714</ele><time>2026-04-22T11:28:18.348Z</time></trkpt><trkpt lat="44.6559925" lon="11.5498063"><ele>10.571428571428571</ele><time>2026-04-22T11:28:19.338Z</time></trkpt><trkpt lat="44.6559528" lon="11.5497276"><ele>10.428571428571429</ele><time>2026-04-22T11:28:20.361Z</time></trkpt><trkpt lat="44.6559128" lon="11.5496497"><ele>10.285714285714286</ele><time>2026-04-22T11:28:21.345Z</time></trkpt><trkpt lat="44.6558723" lon="11.5495709"><ele>10.142857142857142</ele><time>2026-04-22T11:28:22.345Z</time></trkpt><trkpt lat="44.6558319" lon="11.549491"><ele>10.0</ele><time>2026-04-22T11:28:23.344Z</time></trkpt><trkpt lat="44.6557922" lon="11.5494118"><ele>10.0</ele><time>2026-04-22T11:28:24.352Z</time></trkpt><trkpt lat="44.6557521" lon="11.5493324"><ele>10.0</ele><time>2026-04-22T11:28:25.353Z</time></trkpt><trkpt lat="44.655712" lon="11.5492528"><ele>10.0</ele><time>2026-04-22T11:28:26.346Z</time></trkpt><trkpt lat="44.6556731" lon="11.5491724"><ele>10.0</ele><time>2026-04-22T11:28:27.35Z</time></trkpt><trkpt lat="44.6556335" lon="11.5490913"><ele>10.0</ele><time>2026-04-22T11:28:28.348Z</time></trkpt><trkpt lat="44.6555946" lon="11.5490091"><ele>10.0</ele><time>2026-04-22T11:28:29.34Z</time></trkpt><trkpt lat="44.6555564" lon="11.5489256"><ele>10.0</ele><time>2026-04-22T11:28:30.34Z</time></trkpt><trkpt lat="44.6555175" lon="11.5488423"><ele>10.0</ele><time>2026-04-22T11:28:31.354Z</time></trkpt><trkpt lat="44.6554778" lon="11.548759"><ele>10.0</ele><time>2026-04-22T11:28:32.339Z</time></trkpt><trkpt lat="44.6554379" lon="11.5486755"><ele>10.0</ele><time>2026-04-22T11:28:33.353Z</time></trkpt><trkpt lat="44.6553981" lon="11.548593"><ele>10.0</ele><time>2026-04-22T11:28:34.349Z</time></trkpt><trkpt lat="44.6553592" lon="11.5485095"><ele>10.0</ele><time>2026-04-22T11:28:35.347Z</time></trkpt><trkpt lat="44.6553202" lon="11.5484258"><ele>10.0</ele><time>2026-04-22T11:28:36.346Z</time></trkpt><trkpt lat="44.655281" lon="11.5483422"><ele>10.0</ele><time>2026-04-22T11:28:37.343Z</time></trkpt><trkpt lat="44.6552416" lon="11.5482579"><ele>10.0</ele><time>2026-04-22T11:28:38.344Z</time></trkpt><trkpt lat="44.6552027" lon="11.5481742"><ele>10.0</ele><time>2026-04-22T11:28:39.352Z</time></trkpt><trkpt lat="44.6551631" lon="11.5480907"><ele>10.0</ele><time>2026-04-22T11:28:40.349Z</time></trkpt><trkpt lat="44.6551234" lon="11.5480065"><ele>10.0</ele><time>2026-04-22T11:28:41.341Z</time></trkpt><trkpt lat="44.6550847" lon="11.5479211"><ele>10.0</ele><time>2026-04-22T11:28:42.336Z</time></trkpt><trkpt lat="44.6550454" lon="11.5478361"><ele>10.0</ele><time>2026-04-22T11:28:43.342Z</time></trkpt><trkpt lat="44.6550053" lon="11.5477515"><ele>10.0</ele><time>2026-04-22T11:28:44.348Z</time></trkpt><trkpt lat="44.6549657" lon="11.5476667"><ele>10.0</ele><time>2026-04-22T11:28:45.347Z</time></trkpt><trkpt lat="44.6549255" lon="11.5475816"><ele>10.0</ele><time>2026-04-22T11:28:46.331Z</time></trkpt><trkpt lat="44.6548855" lon="11.5474972"><ele>10.0</ele><time>2026-04-22T11:28:47.34Z</time></trkpt><trkpt lat="44.6548454" lon="11.5474128"><ele>10.0</ele><time>2026-04-22T11:28:48.345Z</time></trkpt><trkpt lat="44.6548047" lon="11.5473284"><ele>10.0</ele><time>2026-04-22T11:28:49.339Z</time></trkpt><trkpt lat="44.6547646" lon="11.5472437"><ele>10.0</ele><time>2026-04-22T11:28:50.349Z</time></trkpt><trkpt lat="44.654724" lon="11.5471592"><ele>10.0</ele><time>2026-04-22T11:28:51.345Z</time></trkpt><trkpt lat="44.6546831" lon="11.5470755"><ele>10.0</ele><time>2026-04-22T11:28:52.35Z</time></trkpt><trkpt lat="44.6546414" lon="11.5469929"><ele>10.0</ele><time>2026-04-22T11:28:53.345Z</time></trkpt><trkpt lat="44.6545998" lon="11.5469102"><ele>10.0</ele><time>2026-04-22T11:28:54.341Z</time></trkpt><trkpt lat="44.6545581" lon="11.5468281"><ele>10.0</ele><time>2026-04-22T11:28:55.336Z</time></trkpt><trkpt lat="44.6545157" lon="11.546746"><ele>10.0</ele><time>2026-04-22T11:28:56.352Z</time></trkpt><trkpt lat="44.6544728" lon="11.5466636"><ele>10.0</ele><time>2026-04-22T11:28:57.345Z</time></trkpt><trkpt lat="44.6544295" lon="11.5465808"><ele>10.0</ele><time>2026-04-22T11:28:58.348Z</time></trkpt><trkpt lat="44.6543845" lon="11.5464992"><ele>10.0</ele><time>2026-04-22T11:28:59.346Z</time></trkpt><trkpt lat="44.6543389" lon="11.5464181"><ele>10.0</ele><time>2026-04-22T11:29:00.342Z</time></trkpt><trkpt lat="44.6542928" lon="11.546337"><ele>10.0</ele><time>2026-04-22T11:29:01.351Z</time></trkpt><trkpt lat="44.6542468" lon="11.5462561"><ele>10.0</ele><time>2026-04-22T11:29:02.34Z</time></trkpt><trkpt lat="44.6542006" lon="11.5461756"><ele>10.0</ele><time>2026-04-22T11:29:03.361Z</time></trkpt><trkpt lat="44.6541538" lon="11.5460954"><ele>10.0</ele><time>2026-04-22T11:29:04.345Z</time></trkpt><trkpt lat="44.6541059" lon="11.546016"><ele>10.0</ele><time>2026-04-22T11:29:05.34Z</time></trkpt><trkpt lat="44.6540577" lon="11.5459369"><ele>10.142857142857142</ele><time>2026-04-22T11:29:06.345Z</time></trkpt><trkpt lat="44.6540102" lon="11.5458581"><ele>10.285714285714286</ele><time>2026-04-22T11:29:07.344Z</time></trkpt><trkpt lat="44.6539616" lon="11.5457806"><ele>10.428571428571429</ele><time>2026-04-22T11:29:08.343Z</time></trkpt><trkpt lat="44.6539136" lon="11.5457029"><ele>10.571428571428571</ele><time>2026-04-22T11:29:09.346Z</time></trkpt><trkpt lat="44.6538648" lon="11.5456259"><ele>10.714285714285714</ele><time>2026-04-22T11:29:10.338Z</time></trkpt><trkpt lat="44.6538163" lon="11.5455488"><ele>10.857142857142858</ele><time>2026-04-22T11:29:11.352Z</time></trkpt><trkpt lat="44.6537682" lon="11.5454721"><ele>11.0</ele><time>2026-04-22T11:29:12.341Z</time></trkpt><trkpt lat="44.6537195" lon="11.5453959"><ele>11.0</ele><time>2026-04-22T11:29:13.345Z</time></trkpt><trkpt lat="44.6536711" lon="11.545319"><ele>11.0</ele><time>2026-04-22T11:29:14.342Z</time></trkpt><trkpt lat="44.6536227" lon="11.5452431"><ele>11.0</ele><time>2026-04-22T11:29:15.353Z</time></trkpt><trkpt lat="44.6535753" lon="11.5451679"><ele>11.0</ele><time>2026-04-22T11:29:16.343Z</time></trkpt><trkpt lat="44.653527" lon="11.5450905"><ele>11.0</ele><time>2026-04-22T11:29:17.359Z</time></trkpt><trkpt lat="44.653478" lon="11.5450121"><ele>11.0</ele><time>2026-04-22T11:29:18.346Z</time></trkpt><trkpt lat="44.6534288" lon="11.5449337"><ele>11.0</ele><time>2026-04-22T11:29:19.354Z</time></trkpt><trkpt lat="44.65338" lon="11.5448559"><ele>10.666666666666666</ele><time>2026-04-22T11:29:20.34Z</time></trkpt><trkpt lat="44.6533302" lon="11.544777"><ele>10.333333333333332</ele><time>2026-04-22T11:29:21.348Z</time></trkpt><trkpt lat="44.6532811" lon="11.5446976"><ele>10.0</ele><time>2026-04-22T11:29:22.352Z</time></trkpt><trkpt lat="44.6532322" lon="11.544617"><ele>9.666666666666666</ele><time>2026-04-22T11:29:23.352Z</time></trkpt><trkpt lat="44.6531828" lon="11.5445373"><ele>9.333333333333334</ele><time>2026-04-22T11:29:24.352Z</time></trkpt><trkpt lat="44.6531326" lon="11.5444589"><ele>9.0</ele><time>2026-04-22T11:29:25.341Z</time></trkpt><trkpt lat="44.6530823" lon="11.5443799"><ele>9.0</ele><time>2026-04-22T11:29:26.34Z</time></trkpt><trkpt lat="44.6530318" lon="11.5443006"><ele>9.0</ele><time>2026-04-22T11:29:27.345Z</time></trkpt><trkpt lat="44.6529813" lon="11.5442198"><ele>9.0</ele><time>2026-04-22T11:29:28.353Z</time></trkpt><trkpt lat="44.652932" lon="11.5441384"><ele>9.0</ele><time>2026-04-22T11:29:29.348Z</time></trkpt><trkpt lat="44.6528815" lon="11.5440587"><ele>9.0</ele><time>2026-04-22T11:29:30.339Z</time></trkpt><trkpt lat="44.6528309" lon="11.5439789"><ele>9.0</ele><time>2026-04-22T11:29:31.351Z</time></trkpt><trkpt lat="44.6527803" lon="11.5438988"><ele>9.0</ele><time>2026-04-22T11:29:32.35Z</time></trkpt><trkpt lat="44.6527292" lon="11.5438209"><ele>9.0</ele><time>2026-04-22T11:29:33.341Z</time></trkpt><trkpt lat="44.6526779" lon="11.5437415"><ele>9.0</ele><time>2026-04-22T11:29:34.346Z</time></trkpt><trkpt lat="44.6526275" lon="11.5436616"><ele>9.0</ele><time>2026-04-22T11:29:35.344Z</time></trkpt><trkpt lat="44.6525764" lon="11.5435826"><ele>9.0</ele><time>2026-04-22T11:29:36.34Z</time></trkpt><trkpt lat="44.6525258" lon="11.5435049"><ele>9.0</ele><time>2026-04-22T11:29:37.337Z</time></trkpt><trkpt lat="44.6524752" lon="11.5434281"><ele>9.142857142857144</ele><time>2026-04-22T11:29:38.366Z</time></trkpt><trkpt lat="44.6524243" lon="11.5433518"><ele>9.285714285714286</ele><time>2026-04-22T11:29:39.334Z</time></trkpt><trkpt lat="44.6523725" lon="11.5432748"><ele>9.428571428571429</ele><time>2026-04-22T11:29:40.343Z</time></trkpt><trkpt lat="44.6523216" lon="11.5431992"><ele>9.571428571428573</ele><time>2026-04-22T11:29:41.356Z</time></trkpt><trkpt lat="44.65227" lon="11.5431237"><ele>9.714285714285715</ele><time>2026-04-22T11:29:42.343Z</time></trkpt><trkpt lat="44.652219" lon="11.5430494"><ele>9.857142857142858</ele><time>2026-04-22T11:29:43.336Z</time></trkpt><trkpt lat="44.6521667" lon="11.5429732"><ele>10.0</ele><time>2026-04-22T11:29:44.332Z</time></trkpt><trkpt lat="44.652116" lon="11.5428966"><ele>10.0</ele><time>2026-04-22T11:29:45.355Z</time></trkpt><trkpt lat="44.6520639" lon="11.5428211"><ele>10.0</ele><time>2026-04-22T11:29:46.351Z</time></trkpt><trkpt lat="44.6520127" lon="11.5427438"><ele>10.0</ele><time>2026-04-22T11:29:47.35Z</time></trkpt><trkpt lat="44.6519624" lon="11.5426681"><ele>10.0</ele><time>2026-04-22T11:29:48.352Z</time></trkpt><trkpt lat="44.6519119" lon="11.5425931"><ele>10.0</ele><time>2026-04-22T11:29:49.352Z</time></trkpt><trkpt lat="44.6518624" lon="11.5425171"><ele>10.0</ele><time>2026-04-22T11:29:50.346Z</time></trkpt><trkpt lat="44.6518114" lon="11.5424415"><ele>10.0</ele><time>2026-04-22T11:29:51.35Z</time></trkpt><trkpt lat="44.651761" lon="11.5423655"><ele>10.0</ele><time>2026-04-22T11:29:52.351Z</time></trkpt><trkpt lat="44.6517113" lon="11.5422888"><ele>10.0</ele><time>2026-04-22T11:29:53.353Z</time></trkpt><trkpt lat="44.6516611" lon="11.5422126"><ele>10.0</ele><time>2026-04-22T11:29:54.345Z</time></trkpt><trkpt lat="44.6516108" lon="11.5421357"><ele>10.0</ele><time>2026-04-22T11:29:55.345Z</time></trkpt><trkpt lat="44.6515611" lon="11.542059"><ele>10.0</ele><time>2026-04-22T11:29:56.351Z</time></trkpt><trkpt lat="44.6515099" lon="11.5419836"><ele>10.0</ele><time>2026-04-22T11:29:57.346Z</time></trkpt><trkpt lat="44.6514594" lon="11.541908"><ele>10.0</ele><time>2026-04-22T11:29:58.346Z</time></trkpt><trkpt lat="44.6514089" lon="11.5418324"><ele>10.0</ele><time>2026-04-22T11:29:59.363Z</time></trkpt><trkpt lat="44.6513586" lon="11.5417571"><ele>10.0</ele><time>2026-04-22T11:30:00.339Z</time></trkpt><trkpt lat="44.6513086" lon="11.5416827"><ele>10.0</ele><time>2026-04-22T11:30:01.342Z</time></trkpt><trkpt lat="44.6512568" lon="11.541609"><ele>10.0</ele><time>2026-04-22T11:30:02.344Z</time></trkpt><trkpt lat="44.651206" lon="11.541534"><ele>10.0</ele><time>2026-04-22T11:30:03.34Z</time></trkpt><trkpt lat="44.6511559" lon="11.5414572"><ele>10.0</ele><time>2026-04-22T11:30:04.345Z</time></trkpt><trkpt lat="44.6511074" lon="11.5413782"><ele>10.0</ele><time>2026-04-22T11:30:05.344Z</time></trkpt><trkpt lat="44.6510582" lon="11.5412997"><ele>10.0</ele><time>2026-04-22T11:30:06.341Z</time></trkpt><trkpt lat="44.6510074" lon="11.5412202"><ele>10.0</ele><time>2026-04-22T11:30:07.342Z</time></trkpt><trkpt lat="44.6509558" lon="11.541142"><ele>10.0</ele><time>2026-04-22T11:30:08.337Z</time></trkpt><trkpt lat="44.6509051" lon="11.541064"><ele>10.0</ele><time>2026-04-22T11:30:09.339Z</time></trkpt><trkpt lat="44.6508539" lon="11.5409891"><ele>10.0</ele><time>2026-04-22T11:30:10.346Z</time></trkpt><trkpt lat="44.6508025" lon="11.5409105"><ele>10.0</ele><time>2026-04-22T11:30:11.348Z</time></trkpt><trkpt lat="44.6507524" lon="11.5408314"><ele>10.166666666666668</ele><time>2026-04-22T11:30:12.349Z</time></trkpt><trkpt lat="44.6507012" lon="11.5407506"><ele>10.333333333333334</ele><time>2026-04-22T11:30:13.348Z</time></trkpt><trkpt lat="44.6506503" lon="11.5406712"><ele>10.5</ele><time>2026-04-22T11:30:14.346Z</time></trkpt><trkpt lat="44.6505996" lon="11.5405896"><ele>10.666666666666666</ele><time>2026-04-22T11:30:15.337Z</time></trkpt><trkpt lat="44.6505492" lon="11.5405098"><ele>10.833333333333332</ele><time>2026-04-22T11:30:16.339Z</time></trkpt><trkpt lat="44.6504991" lon="11.5404297"><ele>11.0</ele><time>2026-04-22T11:30:17.338Z</time></trkpt><trkpt lat="44.6504494" lon="11.5403503"><ele>11.166666666666666</ele><time>2026-04-22T11:30:18.343Z</time></trkpt><trkpt lat="44.6503998" lon="11.5402703"><ele>11.333333333333332</ele><time>2026-04-22T11:30:19.34Z</time></trkpt><trkpt lat="44.6503517" lon="11.5401884"><ele>11.5</ele><time>2026-04-22T11:30:20.346Z</time></trkpt><trkpt lat="44.6503035" lon="11.5401081"><ele>11.666666666666666</ele><time>2026-04-22T11:30:21.35Z</time></trkpt><trkpt lat="44.6502561" lon="11.5400275"><ele>11.833333333333334</ele><time>2026-04-22T11:30:22.351Z</time></trkpt><trkpt lat="44.6502081" lon="11.5399462"><ele>12.0</ele><time>2026-04-22T11:30:23.356Z</time></trkpt><trkpt lat="44.6501615" lon="11.5398646"><ele>12.0</ele><time>2026-04-22T11:30:24.343Z</time></trkpt><trkpt lat="44.6501146" lon="11.5397823"><ele>12.0</ele><time>2026-04-22T11:30:25.349Z</time></trkpt><trkpt lat="44.6500683" lon="11.5396999"><ele>12.0</ele><time>2026-04-22T11:30:26.341Z</time></trkpt><trkpt lat="44.6500218" lon="11.5396166"><ele>12.0</ele><time>2026-04-22T11:30:27.341Z</time></trkpt><trkpt lat="44.6499751" lon="11.5395327"><ele>12.0</ele><time>2026-04-22T11:30:28.339Z</time></trkpt><trkpt lat="44.6499281" lon="11.5394492"><ele>12.0</ele><time>2026-04-22T11:30:29.345Z</time></trkpt><trkpt lat="44.6498812" lon="11.5393655"><ele>11.833333333333334</ele><time>2026-04-22T11:30:30.359Z</time></trkpt><trkpt lat="44.6498348" lon="11.5392812"><ele>11.666666666666666</ele><time>2026-04-22T11:30:31.353Z</time></trkpt><trkpt lat="44.6497879" lon="11.5391982"><ele>11.5</ele><time>2026-04-22T11:30:32.343Z</time></trkpt><trkpt lat="44.6497411" lon="11.5391142"><ele>11.333333333333332</ele><time>2026-04-22T11:30:33.339Z</time></trkpt><trkpt lat="44.6496939" lon="11.5390292"><ele>11.166666666666666</ele><time>2026-04-22T11:30:34.338Z</time></trkpt><trkpt lat="44.6496463" lon="11.5389455"><ele>11.0</ele><time>2026-04-22T11:30:35.338Z</time></trkpt><trkpt lat="44.6495999" lon="11.538863"><ele>11.0</ele><time>2026-04-22T11:30:36.341Z</time></trkpt><trkpt lat="44.6495546" lon="11.5387827"><ele>11.0</ele><time>2026-04-22T11:30:37.339Z</time></trkpt><trkpt lat="44.6495104" lon="11.5387045"><ele>11.0</ele><time>2026-04-22T11:30:38.332Z</time></trkpt><trkpt lat="44.6494675" lon="11.5386276"><ele>11.0</ele><time>2026-04-22T11:30:39.35Z</time></trkpt><trkpt lat="44.6494244" lon="11.5385505"><ele>11.0</ele><time>2026-04-22T11:30:40.34Z</time></trkpt><trkpt lat="44.6493827" lon="11.5384745"><ele>11.0</ele><time>2026-04-22T11:30:41.341Z</time></trkpt><trkpt lat="44.6493409" lon="11.5383987"><ele>11.0</ele><time>2026-04-22T11:30:42.343Z</time></trkpt><trkpt lat="44.6493001" lon="11.5383242"><ele>10.8</ele><time>2026-04-22T11:30:43.347Z</time></trkpt><trkpt lat="44.6492604" lon="11.5382523"><ele>10.600000000000001</ele><time>2026-04-22T11:30:44.356Z</time></trkpt><trkpt lat="44.6491816" lon="11.5381138"><ele>10.4</ele><time>2026-04-22T11:30:46.357Z</time></trkpt><trkpt lat="44.6491028" lon="11.5379744"><ele>10.2</ele><time>2026-04-22T11:30:48.348Z</time></trkpt><trkpt lat="44.6490619" lon="11.5378997"><ele>10.0</ele><time>2026-04-22T11:30:49.338Z</time></trkpt><trkpt lat="44.6490209" lon="11.5378281"><ele>9.714285714285714</ele><time>2026-04-22T11:30:50.349Z</time></trkpt><trkpt lat="44.6489794" lon="11.537757"><ele>9.428571428571429</ele><time>2026-04-22T11:30:51.342Z</time></trkpt><trkpt lat="44.648938" lon="11.537687"><ele>9.142857142857142</ele><time>2026-04-22T11:30:52.345Z</time></trkpt><trkpt lat="44.6488975" lon="11.5376155"><ele>8.857142857142858</ele><time>2026-04-22T11:30:53.348Z</time></trkpt><trkpt lat="44.648858" lon="11.5375444"><ele>8.571428571428571</ele><time>2026-04-22T11:30:54.346Z</time></trkpt><trkpt lat="44.6488183" lon="11.5374715"><ele>8.285714285714285</ele><time>2026-04-22T11:30:55.341Z</time></trkpt><trkpt lat="44.6487776" lon="11.5373983"><ele>8.0</ele><time>2026-04-22T11:30:56.331Z</time></trkpt><trkpt lat="44.6487372" lon="11.5373241"><ele>8.0</ele><time>2026-04-22T11:30:57.332Z</time></trkpt><trkpt lat="44.6486982" lon="11.5372476"><ele>7.999999999999999</ele><time>2026-04-22T11:30:58.356Z</time></trkpt><trkpt lat="44.6486593" lon="11.5371708"><ele>8.0</ele><time>2026-04-22T11:30:59.337Z</time></trkpt><trkpt lat="44.6486194" lon="11.5370944"><ele>8.0</ele><time>2026-04-22T11:31:00.34Z</time></trkpt><trkpt lat="44.6485796" lon="11.5370189"><ele>7.999999999999999</ele><time>2026-04-22T11:31:01.347Z</time></trkpt><trkpt lat="44.6485395" lon="11.5369417"><ele>8.0</ele><time>2026-04-22T11:31:02.34Z</time></trkpt><trkpt lat="44.648498" lon="11.5368648"><ele>8.0</ele><time>2026-04-22T11:31:03.342Z</time></trkpt><trkpt lat="44.6484566" lon="11.5367875"><ele>8.0</ele><time>2026-04-22T11:31:04.345Z</time></trkpt><trkpt lat="44.6484146" lon="11.5367127"><ele>7.999999999999999</ele><time>2026-04-22T11:31:05.352Z</time></trkpt><trkpt lat="44.6483728" lon="11.5366385"><ele>8.0</ele><time>2026-04-22T11:31:06.342Z</time></trkpt><trkpt lat="44.6483314" lon="11.5365635"><ele>8.0</ele><time>2026-04-22T11:31:07.342Z</time></trkpt><trkpt lat="44.6482903" lon="11.5364879"><ele>7.999999999999999</ele><time>2026-04-22T11:31:08.342Z</time></trkpt><trkpt lat="44.6482486" lon="11.536412"><ele>8.0</ele><time>2026-04-22T11:31:09.329Z</time></trkpt><trkpt lat="44.648208" lon="11.5363362"><ele>8.0</ele><time>2026-04-22T11:31:10.349Z</time></trkpt><trkpt lat="44.6481665" lon="11.5362615"><ele>8.0</ele><time>2026-04-22T11:31:11.35Z</time></trkpt><trkpt lat="44.6481249" lon="11.5361874"><ele>7.999999999999999</ele><time>2026-04-22T11:31:12.348Z</time></trkpt><trkpt lat="44.6480835" lon="11.5361124"><ele>8.0</ele><time>2026-04-22T11:31:13.344Z</time></trkpt><trkpt lat="44.6480424" lon="11.5360372"><ele>8.0</ele><time>2026-04-22T11:31:14.334Z</time></trkpt><trkpt lat="44.6480019" lon="11.5359626"><ele>7.999999999999999</ele><time>2026-04-22T11:31:15.343Z</time></trkpt><trkpt lat="44.647962" lon="11.5358886"><ele>8.0</ele><time>2026-04-22T11:31:16.34Z</time></trkpt><trkpt lat="44.6479209" lon="11.5358142"><ele>8.0</ele><time>2026-04-22T11:31:17.349Z</time></trkpt><trkpt lat="44.6478789" lon="11.5357394"><ele>8.0</ele><time>2026-04-22T11:31:18.348Z</time></trkpt><trkpt lat="44.6478364" lon="11.5356653"><ele>7.999999999999999</ele><time>2026-04-22T11:31:19.354Z</time></trkpt><trkpt lat="44.6477931" lon="11.535592"><ele>8.0</ele><time>2026-04-22T11:31:20.355Z</time></trkpt><trkpt lat="44.6477501" lon="11.5355194"><ele>8.0</ele><time>2026-04-22T11:31:21.351Z</time></trkpt><trkpt lat="44.6477094" lon="11.5354441"><ele>7.999999999999999</ele><time>2026-04-22T11:31:22.337Z</time></trkpt><trkpt lat="44.6476691" lon="11.5353676"><ele>8.0</ele><time>2026-04-22T11:31:23.341Z</time></trkpt><trkpt lat="44.6476275" lon="11.5352912"><ele>8.0</ele><time>2026-04-22T11:31:24.34Z</time></trkpt><trkpt lat="44.6475875" lon="11.5352141"><ele>8.142857142857142</ele><time>2026-04-22T11:31:25.35Z</time></trkpt><trkpt lat="44.6475454" lon="11.5351388"><ele>8.285714285714285</ele><time>2026-04-22T11:31:26.362Z</time></trkpt><trkpt lat="44.6475027" lon="11.5350635"><ele>8.428571428571429</ele><time>2026-04-22T11:31:27.34Z</time></trkpt><trkpt lat="44.6474597" lon="11.5349885"><ele>8.571428571428571</ele><time>2026-04-22T11:31:28.346Z</time></trkpt><trkpt lat="44.6474177" lon="11.5349121"><ele>8.714285714285715</ele><time>2026-04-22T11:31:29.344Z</time></trkpt><trkpt lat="44.6473747" lon="11.5348365"><ele>8.857142857142858</ele><time>2026-04-22T11:31:30.35Z</time></trkpt><trkpt lat="44.6473316" lon="11.5347596"><ele>9.0</ele><time>2026-04-22T11:31:31.365Z</time></trkpt><trkpt lat="44.6472893" lon="11.5346823"><ele>9.000000000000002</ele><time>2026-04-22T11:31:32.34Z</time></trkpt><trkpt lat="44.6472474" lon="11.5346039"><ele>9.0</ele><time>2026-04-22T11:31:33.349Z</time></trkpt><trkpt lat="44.6472055" lon="11.5345258"><ele>9.0</ele><time>2026-04-22T11:31:34.337Z</time></trkpt><trkpt lat="44.6471637" lon="11.5344478"><ele>9.0</ele><time>2026-04-22T11:31:35.343Z</time></trkpt><trkpt lat="44.6471217" lon="11.5343705"><ele>9.0</ele><time>2026-04-22T11:31:36.342Z</time></trkpt><trkpt lat="44.6470784" lon="11.534295"><ele>9.000000000000002</ele><time>2026-04-22T11:31:37.335Z</time></trkpt><trkpt lat="44.6470358" lon="11.5342202"><ele>9.0</ele><time>2026-04-22T11:31:38.338Z</time></trkpt><trkpt lat="44.6469935" lon="11.5341458"><ele>9.142857142857144</ele><time>2026-04-22T11:31:39.344Z</time></trkpt><trkpt lat="44.6469522" lon="11.5340715"><ele>9.285714285714286</ele><time>2026-04-22T11:31:40.342Z</time></trkpt><trkpt lat="44.6469108" lon="11.5339998"><ele>9.428571428571429</ele><time>2026-04-22T11:31:41.338Z</time></trkpt><trkpt lat="44.6468717" lon="11.5339247"><ele>9.571428571428573</ele><time>2026-04-22T11:31:42.34Z</time></trkpt><trkpt lat="44.646833" lon="11.5338505"><ele>9.714285714285715</ele><time>2026-04-22T11:31:43.344Z</time></trkpt><trkpt lat="44.6467939" lon="11.5337794"><ele>9.857142857142858</ele><time>2026-04-22T11:31:44.343Z</time></trkpt><trkpt lat="44.6467541" lon="11.533708"><ele>10.0</ele><time>2026-04-22T11:31:45.33Z</time></trkpt><trkpt lat="44.6467132" lon="11.5336358"><ele>10.0</ele><time>2026-04-22T11:31:46.351Z</time></trkpt><trkpt lat="44.6466718" lon="11.5335654"><ele>10.0</ele><time>2026-04-22T11:31:47.336Z</time></trkpt><trkpt lat="44.6466317" lon="11.5334912"><ele>10.0</ele><time>2026-04-22T11:31:48.344Z</time></trkpt><trkpt lat="44.6465926" lon="11.5334141"><ele>10.0</ele><time>2026-04-22T11:31:49.348Z</time></trkpt><trkpt lat="44.6465504" lon="11.5333422"><ele>10.0</ele><time>2026-04-22T11:31:50.354Z</time></trkpt><trkpt lat="44.6465064" lon="11.5332715"><ele>10.0</ele><time>2026-04-22T11:31:51.349Z</time></trkpt><trkpt lat="44.6464622" lon="11.5331987"><ele>10.0</ele><time>2026-04-22T11:31:52.349Z</time></trkpt><trkpt lat="44.6464178" lon="11.5331256"><ele>10.0</ele><time>2026-04-22T11:31:53.343Z</time></trkpt><trkpt lat="44.6463731" lon="11.5330541"><ele>10.0</ele><time>2026-04-22T11:31:54.344Z</time></trkpt><trkpt lat="44.6463283" lon="11.5329849"><ele>10.0</ele><time>2026-04-22T11:31:55.339Z</time></trkpt><trkpt lat="44.6462849" lon="11.5329136"><ele>10.0</ele><time>2026-04-22T11:31:56.345Z</time></trkpt><trkpt lat="44.6462398" lon="11.5328426"><ele>10.0</ele><time>2026-04-22T11:31:57.348Z</time></trkpt><trkpt lat="44.6461955" lon="11.5327698"><ele>10.0</ele><time>2026-04-22T11:31:58.341Z</time></trkpt><trkpt lat="44.6461531" lon="11.5326992"><ele>10.0</ele><time>2026-04-22T11:31:59.347Z</time></trkpt><trkpt lat="44.6461087" lon="11.5326284"><ele>10.0</ele><time>2026-04-22T11:32:00.347Z</time></trkpt><trkpt lat="44.6460636" lon="11.5325589"><ele>10.0</ele><time>2026-04-22T11:32:01.359Z</time></trkpt><trkpt lat="44.6460188" lon="11.5324873"><ele>10.0</ele><time>2026-04-22T11:32:02.35Z</time></trkpt><trkpt lat="44.6459737" lon="11.5324155"><ele>10.0</ele><time>2026-04-22T11:32:03.35Z</time></trkpt><trkpt lat="44.6459281" lon="11.5323453"><ele>10.0</ele><time>2026-04-22T11:32:04.338Z</time></trkpt><trkpt lat="44.6458804" lon="11.5322755"><ele>10.0</ele><time>2026-04-22T11:32:05.347Z</time></trkpt><trkpt lat="44.6458332" lon="11.5322046"><ele>10.0</ele><time>2026-04-22T11:32:06.343Z</time></trkpt><trkpt lat="44.6457882" lon="11.5321323"><ele>10.0</ele><time>2026-04-22T11:32:07.349Z</time></trkpt><trkpt lat="44.6457433" lon="11.5320584"><ele>10.0</ele><time>2026-04-22T11:32:08.341Z</time></trkpt><trkpt lat="44.6456985" lon="11.5319864"><ele>10.0</ele><time>2026-04-22T11:32:09.336Z</time></trkpt><trkpt lat="44.6456557" lon="11.5319139"><ele>10.0</ele><time>2026-04-22T11:32:10.347Z</time></trkpt><trkpt lat="44.645616" lon="11.5318422"><ele>10.0</ele><time>2026-04-22T11:32:11.344Z</time></trkpt><trkpt lat="44.6455756" lon="11.5317737"><ele>10.0</ele><time>2026-04-22T11:32:12.347Z</time></trkpt><trkpt lat="44.6454954" lon="11.5316405"><ele>9.75</ele><time>2026-04-22T11:32:14.345Z</time></trkpt><trkpt lat="44.6454162" lon="11.5315131"><ele>9.5</ele><time>2026-04-22T11:32:16.337Z</time></trkpt><trkpt lat="44.6453428" lon="11.5313881"><ele>9.25</ele><time>2026-04-22T11:32:18.342Z</time></trkpt><trkpt lat="44.6453031" lon="11.5312339"><ele>9.0</ele><time>2026-04-22T11:32:20.345Z</time></trkpt><trkpt lat="44.6453515" lon="11.5310743"><ele>9.0</ele><time>2026-04-22T11:32:22.348Z</time></trkpt><trkpt lat="44.6454002" lon="11.5310182"><ele>9.0</ele><time>2026-04-22T11:32:23.344Z</time></trkpt><trkpt lat="44.6454512" lon="11.5309654"><ele>9.0</ele><time>2026-04-22T11:32:24.346Z</time></trkpt><trkpt lat="44.6455039" lon="11.5309099"><ele>9.0</ele><time>2026-04-22T11:32:25.339Z</time></trkpt><trkpt lat="44.6455575" lon="11.5308576"><ele>9.0</ele><time>2026-04-22T11:32:26.341Z</time></trkpt><trkpt lat="44.6456087" lon="11.5308043"><ele>9.0</ele><time>2026-04-22T11:32:27.348Z</time></trkpt><trkpt lat="44.6456593" lon="11.5307513"><ele>9.0</ele><time>2026-04-22T11:32:28.344Z</time></trkpt><trkpt lat="44.6457102" lon="11.5306976"><ele>9.0</ele><time>2026-04-22T11:32:29.346Z</time></trkpt><trkpt lat="44.6457618" lon="11.5306451"><ele>9.000000000000002</ele><time>2026-04-22T11:32:30.348Z</time></trkpt><trkpt lat="44.6458122" lon="11.5305892"><ele>9.0</ele><time>2026-04-22T11:32:31.356Z</time></trkpt><trkpt lat="44.6458626" lon="11.5305351"><ele>9.0</ele><time>2026-04-22T11:32:32.351Z</time></trkpt><trkpt lat="44.6459127" lon="11.5304793"><ele>9.0</ele><time>2026-04-22T11:32:33.34Z</time></trkpt><trkpt lat="44.6459627" lon="11.5304233"><ele>9.0</ele><time>2026-04-22T11:32:34.36Z</time></trkpt><trkpt lat="44.6460117" lon="11.5303651"><ele>9.000000000000002</ele><time>2026-04-22T11:32:35.354Z</time></trkpt><trkpt lat="44.6460599" lon="11.5303036"><ele>9.0</ele><time>2026-04-22T11:32:36.349Z</time></trkpt><trkpt lat="44.6461064" lon="11.5302389"><ele>9.000000000000002</ele><time>2026-04-22T11:32:37.348Z</time></trkpt><trkpt lat="44.6461534" lon="11.530173"><ele>9.0</ele><time>2026-04-22T11:32:38.356Z</time></trkpt><trkpt lat="44.6462011" lon="11.5301049"><ele>9.0</ele><time>2026-04-22T11:32:39.341Z</time></trkpt><trkpt lat="44.6462487" lon="11.5300359"><ele>9.0</ele><time>2026-04-22T11:32:40.349Z</time></trkpt><trkpt lat="44.6462955" lon="11.5299658"><ele>9.0</ele><time>2026-04-22T11:32:41.348Z</time></trkpt><trkpt lat="44.6463414" lon="11.5298964"><ele>9.000000000000002</ele><time>2026-04-22T11:32:42.352Z</time></trkpt><trkpt lat="44.6463884" lon="11.5298285"><ele>9.0</ele><time>2026-04-22T11:32:43.346Z</time></trkpt><trkpt lat="44.6464359" lon="11.5297613"><ele>9.000000000000002</ele><time>2026-04-22T11:32:44.355Z</time></trkpt><trkpt lat="44.6464824" lon="11.5296912"><ele>9.0</ele><time>2026-04-22T11:32:45.34Z</time></trkpt><trkpt lat="44.6465291" lon="11.5296205"><ele>9.0</ele><time>2026-04-22T11:32:46.353Z</time></trkpt><trkpt lat="44.6465755" lon="11.5295496"><ele>9.0</ele><time>2026-04-22T11:32:47.335Z</time></trkpt><trkpt lat="44.6466213" lon="11.5294796"><ele>9.0</ele><time>2026-04-22T11:32:48.344Z</time></trkpt><trkpt lat="44.646667" lon="11.5294085"><ele>9.000000000000002</ele><time>2026-04-22T11:32:49.347Z</time></trkpt><trkpt lat="44.6467119" lon="11.5293405"><ele>9.0</ele><time>2026-04-22T11:32:50.355Z</time></trkpt><trkpt lat="44.6467583" lon="11.5292719"><ele>9.000000000000002</ele><time>2026-04-22T11:32:51.351Z</time></trkpt><trkpt lat="44.6468037" lon="11.5292027"><ele>9.0</ele><time>2026-04-22T11:32:52.352Z</time></trkpt><trkpt lat="44.646851" lon="11.5291335"><ele>9.0</ele><time>2026-04-22T11:32:53.362Z</time></trkpt><trkpt lat="44.6468962" lon="11.5290634"><ele>9.0</ele><time>2026-04-22T11:32:54.351Z</time></trkpt><trkpt lat="44.6469415" lon="11.528994"><ele>9.0</ele><time>2026-04-22T11:32:55.358Z</time></trkpt><trkpt lat="44.6469866" lon="11.528923"><ele>9.000000000000002</ele><time>2026-04-22T11:32:56.343Z</time></trkpt><trkpt lat="44.6470329" lon="11.5288514"><ele>9.0</ele><time>2026-04-22T11:32:57.345Z</time></trkpt><trkpt lat="44.6470797" lon="11.5287808"><ele>9.000000000000002</ele><time>2026-04-22T11:32:58.345Z</time></trkpt><trkpt lat="44.6471248" lon="11.5287089"><ele>9.0</ele><time>2026-04-22T11:32:59.354Z</time></trkpt><trkpt lat="44.6471693" lon="11.5286364"><ele>9.0</ele><time>2026-04-22T11:33:00.357Z</time></trkpt><trkpt lat="44.6472158" lon="11.5285666"><ele>9.0</ele><time>2026-04-22T11:33:01.346Z</time></trkpt><trkpt lat="44.6472625" lon="11.5284956"><ele>9.0</ele><time>2026-04-22T11:33:02.346Z</time></trkpt><trkpt lat="44.6473086" lon="11.5284234"><ele>9.000000000000002</ele><time>2026-04-22T11:33:03.35Z</time></trkpt><trkpt lat="44.647355" lon="11.5283505"><ele>9.0</ele><time>2026-04-22T11:33:04.34Z</time></trkpt><trkpt lat="44.6474005" lon="11.5282798"><ele>9.000000000000002</ele><time>2026-04-22T11:33:05.341Z</time></trkpt><trkpt lat="44.6474483" lon="11.5282086"><ele>9.0</ele><time>2026-04-22T11:33:06.337Z</time></trkpt><trkpt lat="44.6474951" lon="11.5281367"><ele>9.0</ele><time>2026-04-22T11:33:07.346Z</time></trkpt><trkpt lat="44.6475406" lon="11.5280655"><ele>9.0</ele><time>2026-04-22T11:33:08.354Z</time></trkpt><trkpt lat="44.6475868" lon="11.527994"><ele>9.0</ele><time>2026-04-22T11:33:09.344Z</time></trkpt><trkpt lat="44.6476325" lon="11.5279214"><ele>9.000000000000002</ele><time>2026-04-22T11:33:10.35Z</time></trkpt><trkpt lat="44.6476793" lon="11.5278483"><ele>9.0</ele><time>2026-04-22T11:33:11.339Z</time></trkpt><trkpt lat="44.6477261" lon="11.5277762"><ele>8.857142857142858</ele><time>2026-04-22T11:33:12.352Z</time></trkpt><trkpt lat="44.6477718" lon="11.5277034"><ele>8.714285714285715</ele><time>2026-04-22T11:33:13.348Z</time></trkpt><trkpt lat="44.6478185" lon="11.5276311"><ele>8.571428571428571</ele><time>2026-04-22T11:33:14.35Z</time></trkpt><trkpt lat="44.6478651" lon="11.5275577"><ele>8.428571428571429</ele><time>2026-04-22T11:33:15.341Z</time></trkpt><trkpt lat="44.6479115" lon="11.5274852"><ele>8.285714285714285</ele><time>2026-04-22T11:33:16.337Z</time></trkpt><trkpt lat="44.6479585" lon="11.5274122"><ele>8.142857142857142</ele><time>2026-04-22T11:33:17.357Z</time></trkpt><trkpt lat="44.648006" lon="11.5273399"><ele>8.0</ele><time>2026-04-22T11:33:18.347Z</time></trkpt><trkpt lat="44.648053" lon="11.5272677"><ele>8.0</ele><time>2026-04-22T11:33:19.347Z</time></trkpt><trkpt lat="44.6481005" lon="11.5271962"><ele>7.999999999999999</ele><time>2026-04-22T11:33:20.354Z</time></trkpt><trkpt lat="44.648147" lon="11.5271253"><ele>8.0</ele><time>2026-04-22T11:33:21.351Z</time></trkpt><trkpt lat="44.6481936" lon="11.5270531"><ele>8.0</ele><time>2026-04-22T11:33:22.346Z</time></trkpt><trkpt lat="44.6482396" lon="11.5269813"><ele>7.999999999999999</ele><time>2026-04-22T11:33:23.352Z</time></trkpt><trkpt lat="44.6482851" lon="11.5269087"><ele>8.0</ele><time>2026-04-22T11:33:24.338Z</time></trkpt><trkpt lat="44.6483307" lon="11.5268364"><ele>8.0</ele><time>2026-04-22T11:33:25.352Z</time></trkpt><trkpt lat="44.6483767" lon="11.5267655"><ele>7.857142857142857</ele><time>2026-04-22T11:33:26.333Z</time></trkpt><trkpt lat="44.6484232" lon="11.5266947"><ele>7.7142857142857135</ele><time>2026-04-22T11:33:27.346Z</time></trkpt><trkpt lat="44.6484685" lon="11.5266225"><ele>7.571428571428571</ele><time>2026-04-22T11:33:28.346Z</time></trkpt><trkpt lat="44.6485147" lon="11.5265511"><ele>7.428571428571429</ele><time>2026-04-22T11:33:29.354Z</time></trkpt><trkpt lat="44.648561" lon="11.52648"><ele>7.285714285714286</ele><time>2026-04-22T11:33:30.353Z</time></trkpt><trkpt lat="44.648607" lon="11.5264074"><ele>7.142857142857142</ele><time>2026-04-22T11:33:31.354Z</time></trkpt><trkpt lat="44.6486534" lon="11.5263337"><ele>7.0</ele><time>2026-04-22T11:33:32.343Z</time></trkpt><trkpt lat="44.6487001" lon="11.5262607"><ele>7.0</ele><time>2026-04-22T11:33:33.344Z</time></trkpt><trkpt lat="44.6487461" lon="11.5261889"><ele>7.0</ele><time>2026-04-22T11:33:34.348Z</time></trkpt><trkpt lat="44.648793" lon="11.5261181"><ele>7.0</ele><time>2026-04-22T11:33:35.347Z</time></trkpt><trkpt lat="44.6488389" lon="11.526046"><ele>7.0</ele><time>2026-04-22T11:33:36.351Z</time></trkpt><trkpt lat="44.6488852" lon="11.5259744"><ele>7.0</ele><time>2026-04-22T11:33:37.335Z</time></trkpt><trkpt lat="44.6489308" lon="11.5259038"><ele>7.0</ele><time>2026-04-22T11:33:38.351Z</time></trkpt><trkpt lat="44.6489758" lon="11.5258324"><ele>7.0</ele><time>2026-04-22T11:33:39.341Z</time></trkpt><trkpt lat="44.6490216" lon="11.5257612"><ele>7.0</ele><time>2026-04-22T11:33:40.349Z</time></trkpt><trkpt lat="44.6490681" lon="11.5256891"><ele>7.0</ele><time>2026-04-22T11:33:41.349Z</time></trkpt><trkpt lat="44.6491139" lon="11.5256188"><ele>7.0</ele><time>2026-04-22T11:33:42.354Z</time></trkpt><trkpt lat="44.6491616" lon="11.5255453"><ele>7.0</ele><time>2026-04-22T11:33:43.346Z</time></trkpt><trkpt lat="44.6492084" lon="11.5254728"><ele>7.0</ele><time>2026-04-22T11:33:44.326Z</time></trkpt><trkpt lat="44.6492559" lon="11.5253979"><ele>7.0</ele><time>2026-04-22T11:33:45.343Z</time></trkpt><trkpt lat="44.6493042" lon="11.5253242"><ele>7.0</ele><time>2026-04-22T11:33:46.346Z</time></trkpt><trkpt lat="44.6493519" lon="11.5252506"><ele>7.142857142857142</ele><time>2026-04-22T11:33:47.34Z</time></trkpt><trkpt lat="44.6493997" lon="11.5251795"><ele>7.285714285714286</ele><time>2026-04-22T11:33:48.349Z</time></trkpt><trkpt lat="44.6494462" lon="11.5251079"><ele>7.428571428571429</ele><time>2026-04-22T11:33:49.347Z</time></trkpt><trkpt lat="44.6494928" lon="11.5250363"><ele>7.571428571428571</ele><time>2026-04-22T11:33:50.347Z</time></trkpt><trkpt lat="44.6495392" lon="11.5249647"><ele>7.7142857142857135</ele><time>2026-04-22T11:33:51.343Z</time></trkpt><trkpt lat="44.6495854" lon="11.5248945"><ele>7.857142857142857</ele><time>2026-04-22T11:33:52.35Z</time></trkpt><trkpt lat="44.6496327" lon="11.5248236"><ele>8.0</ele><time>2026-04-22T11:33:53.347Z</time></trkpt><trkpt lat="44.6496792" lon="11.5247541"><ele>8.0</ele><time>2026-04-22T11:33:54.346Z</time></trkpt><trkpt lat="44.6497257" lon="11.5246853"><ele>7.999999999999999</ele><time>2026-04-22T11:33:55.353Z</time></trkpt><trkpt lat="44.6497713" lon="11.5246167"><ele>8.0</ele><time>2026-04-22T11:33:56.344Z</time></trkpt><trkpt lat="44.6498175" lon="11.5245484"><ele>8.0</ele><time>2026-04-22T11:33:57.345Z</time></trkpt><trkpt lat="44.6498636" lon="11.5244813"><ele>7.999999999999999</ele><time>2026-04-22T11:33:58.354Z</time></trkpt><trkpt lat="44.6499094" lon="11.5244134"><ele>8.0</ele><time>2026-04-22T11:33:59.351Z</time></trkpt><trkpt lat="44.6499545" lon="11.5243451"><ele>8.0</ele><time>2026-04-22T11:34:00.345Z</time></trkpt><trkpt lat="44.6499992" lon="11.5242759"><ele>8.0</ele><time>2026-04-22T11:34:01.354Z</time></trkpt><trkpt lat="44.6500447" lon="11.5242071"><ele>7.999999999999999</ele><time>2026-04-22T11:34:02.363Z</time></trkpt><trkpt lat="44.6500894" lon="11.5241389"><ele>8.0</ele><time>2026-04-22T11:34:03.353Z</time></trkpt><trkpt lat="44.6501334" lon="11.5240709"><ele>8.0</ele><time>2026-04-22T11:34:04.341Z</time></trkpt><trkpt lat="44.6501779" lon="11.5240038"><ele>7.999999999999999</ele><time>2026-04-22T11:34:05.344Z</time></trkpt><trkpt lat="44.6502231" lon="11.5239373"><ele>8.0</ele><time>2026-04-22T11:34:06.345Z</time></trkpt><trkpt lat="44.6502678" lon="11.5238696"><ele>8.0</ele><time>2026-04-22T11:34:07.35Z</time></trkpt><trkpt lat="44.6503128" lon="11.5238014"><ele>8.0</ele><time>2026-04-22T11:34:08.342Z</time></trkpt><trkpt lat="44.6503577" lon="11.5237324"><ele>7.999999999999999</ele><time>2026-04-22T11:34:09.352Z</time></trkpt><trkpt lat="44.6504026" lon="11.5236634"><ele>8.0</ele><time>2026-04-22T11:34:10.343Z</time></trkpt><trkpt lat="44.6504482" lon="11.5235947"><ele>8.0</ele><time>2026-04-22T11:34:11.361Z</time></trkpt><trkpt lat="44.6504945" lon="11.5235281"><ele>7.999999999999999</ele><time>2026-04-22T11:34:12.345Z</time></trkpt><trkpt lat="44.6505407" lon="11.5234602"><ele>8.0</ele><time>2026-04-22T11:34:13.349Z</time></trkpt><trkpt lat="44.6505862" lon="11.5233919"><ele>8.0</ele><time>2026-04-22T11:34:14.347Z</time></trkpt><trkpt lat="44.6506314" lon="11.5233231"><ele>8.142857142857142</ele><time>2026-04-22T11:34:15.349Z</time></trkpt><trkpt lat="44.6506768" lon="11.5232546"><ele>8.285714285714285</ele><time>2026-04-22T11:34:16.356Z</time></trkpt><trkpt lat="44.6507221" lon="11.5231865"><ele>8.428571428571429</ele><time>2026-04-22T11:34:17.355Z</time></trkpt><trkpt lat="44.6507679" lon="11.5231182"><ele>8.571428571428571</ele><time>2026-04-22T11:34:18.344Z</time></trkpt><trkpt lat="44.6508142" lon="11.5230494"><ele>8.714285714285715</ele><time>2026-04-22T11:34:19.358Z</time></trkpt><trkpt lat="44.6508595" lon="11.5229804"><ele>8.857142857142858</ele><time>2026-04-22T11:34:20.352Z</time></trkpt><trkpt lat="44.6509047" lon="11.5229115"><ele>9.0</ele><time>2026-04-22T11:34:21.356Z</time></trkpt><trkpt lat="44.6509503" lon="11.522843"><ele>9.000000000000002</ele><time>2026-04-22T11:34:22.351Z</time></trkpt><trkpt lat="44.650996" lon="11.5227747"><ele>9.0</ele><time>2026-04-22T11:34:23.347Z</time></trkpt><trkpt lat="44.6510409" lon="11.5227058"><ele>9.0</ele><time>2026-04-22T11:34:24.36Z</time></trkpt><trkpt lat="44.6510856" lon="11.5226373"><ele>9.0</ele><time>2026-04-22T11:34:25.354Z</time></trkpt><trkpt lat="44.6511311" lon="11.5225701"><ele>9.0</ele><time>2026-04-22T11:34:26.347Z</time></trkpt><trkpt lat="44.6511761" lon="11.5225026"><ele>9.000000000000002</ele><time>2026-04-22T11:34:27.349Z</time></trkpt><trkpt lat="44.6512207" lon="11.5224343"><ele>9.0</ele><time>2026-04-22T11:34:28.36Z</time></trkpt><trkpt lat="44.6512658" lon="11.522366"><ele>9.000000000000002</ele><time>2026-04-22T11:34:29.356Z</time></trkpt><trkpt lat="44.6513109" lon="11.5222974"><ele>9.0</ele><time>2026-04-22T11:34:30.346Z</time></trkpt><trkpt lat="44.6513564" lon="11.5222303"><ele>9.0</ele><time>2026-04-22T11:34:31.351Z</time></trkpt><trkpt lat="44.6514009" lon="11.5221621"><ele>9.0</ele><time>2026-04-22T11:34:32.345Z</time></trkpt><trkpt lat="44.6514453" lon="11.5220942"><ele>9.0</ele><time>2026-04-22T11:34:33.348Z</time></trkpt><trkpt lat="44.6514899" lon="11.5220262"><ele>9.000000000000002</ele><time>2026-04-22T11:34:34.356Z</time></trkpt><trkpt lat="44.6515347" lon="11.5219585"><ele>9.0</ele><time>2026-04-22T11:34:35.362Z</time></trkpt><trkpt lat="44.6515795" lon="11.5218912"><ele>9.142857142857144</ele><time>2026-04-22T11:34:36.347Z</time></trkpt><trkpt lat="44.6516238" lon="11.5218245"><ele>9.285714285714286</ele><time>2026-04-22T11:34:37.349Z</time></trkpt><trkpt lat="44.6516679" lon="11.5217578"><ele>9.428571428571429</ele><time>2026-04-22T11:34:38.361Z</time></trkpt><trkpt lat="44.6517119" lon="11.5216906"><ele>9.571428571428573</ele><time>2026-04-22T11:34:39.357Z</time></trkpt><trkpt lat="44.6517566" lon="11.5216234"><ele>9.714285714285715</ele><time>2026-04-22T11:34:40.35Z</time></trkpt><trkpt lat="44.6518006" lon="11.5215555"><ele>9.857142857142858</ele><time>2026-04-22T11:34:41.358Z</time></trkpt><trkpt lat="44.651845" lon="11.5214885"><ele>10.0</ele><time>2026-04-22T11:34:42.342Z</time></trkpt><trkpt lat="44.6518896" lon="11.5214218"><ele>10.0</ele><time>2026-04-22T11:34:43.342Z</time></trkpt><trkpt lat="44.6519335" lon="11.5213546"><ele>10.0</ele><time>2026-04-22T11:34:44.342Z</time></trkpt><trkpt lat="44.6519778" lon="11.5212882"><ele>10.0</ele><time>2026-04-22T11:34:45.341Z</time></trkpt><trkpt lat="44.6520226" lon="11.521222"><ele>10.0</ele><time>2026-04-22T11:34:46.348Z</time></trkpt><trkpt lat="44.6520672" lon="11.5211557"><ele>10.0</ele><time>2026-04-22T11:34:47.351Z</time></trkpt><trkpt lat="44.6521114" lon="11.5210885"><ele>10.0</ele><time>2026-04-22T11:34:48.336Z</time></trkpt><trkpt lat="44.6521555" lon="11.5210218"><ele>10.0</ele><time>2026-04-22T11:34:49.35Z</time></trkpt><trkpt lat="44.652199" lon="11.5209546"><ele>10.0</ele><time>2026-04-22T11:34:50.338Z</time></trkpt><trkpt lat="44.6522412" lon="11.5208859"><ele>10.0</ele><time>2026-04-22T11:34:51.347Z</time></trkpt><trkpt lat="44.6522853" lon="11.52082"><ele>10.0</ele><time>2026-04-22T11:34:52.361Z</time></trkpt><trkpt lat="44.6523291" lon="11.5207531"><ele>10.0</ele><time>2026-04-22T11:34:53.357Z</time></trkpt><trkpt lat="44.6523732" lon="11.5206863"><ele>10.0</ele><time>2026-04-22T11:34:54.361Z</time></trkpt><trkpt lat="44.6524178" lon="11.520619"><ele>10.0</ele><time>2026-04-22T11:34:55.35Z</time></trkpt><trkpt lat="44.6524623" lon="11.5205519"><ele>10.0</ele><time>2026-04-22T11:34:56.34Z</time></trkpt><trkpt lat="44.6525063" lon="11.5204853"><ele>10.0</ele><time>2026-04-22T11:34:57.362Z</time></trkpt><trkpt lat="44.6525505" lon="11.5204189"><ele>10.0</ele><time>2026-04-22T11:34:58.35Z</time></trkpt><trkpt lat="44.6525947" lon="11.5203529"><ele>10.0</ele><time>2026-04-22T11:34:59.345Z</time></trkpt><trkpt lat="44.6526387" lon="11.520286"><ele>10.0</ele><time>2026-04-22T11:35:00.359Z</time></trkpt><trkpt lat="44.6526831" lon="11.5202187"><ele>10.0</ele><time>2026-04-22T11:35:01.363Z</time></trkpt><trkpt lat="44.6527279" lon="11.5201516"><ele>10.0</ele><time>2026-04-22T11:35:02.342Z</time></trkpt><trkpt lat="44.652773" lon="11.5200852"><ele>10.0</ele><time>2026-04-22T11:35:03.353Z</time></trkpt><trkpt lat="44.6528176" lon="11.5200174"><ele>10.0</ele><time>2026-04-22T11:35:04.35Z</time></trkpt><trkpt lat="44.6528625" lon="11.5199498"><ele>10.0</ele><time>2026-04-22T11:35:05.35Z</time></trkpt><trkpt lat="44.6529074" lon="11.5198822"><ele>10.0</ele><time>2026-04-22T11:35:06.355Z</time></trkpt><trkpt lat="44.6529521" lon="11.5198142"><ele>10.0</ele><time>2026-04-22T11:35:07.352Z</time></trkpt><trkpt lat="44.6529965" lon="11.5197468"><ele>10.0</ele><time>2026-04-22T11:35:08.351Z</time></trkpt><trkpt lat="44.6530409" lon="11.5196801"><ele>10.0</ele><time>2026-04-22T11:35:09.338Z</time></trkpt><trkpt lat="44.6530853" lon="11.5196139"><ele>10.0</ele><time>2026-04-22T11:35:10.351Z</time></trkpt><trkpt lat="44.653129" lon="11.519547"><ele>10.0</ele><time>2026-04-22T11:35:11.35Z</time></trkpt><trkpt lat="44.6531726" lon="11.5194799"><ele>10.0</ele><time>2026-04-22T11:35:12.35Z</time></trkpt><trkpt lat="44.6532166" lon="11.5194128"><ele>10.0</ele><time>2026-04-22T11:35:13.355Z</time></trkpt><trkpt lat="44.6532611" lon="11.5193452"><ele>10.0</ele><time>2026-04-22T11:35:14.346Z</time></trkpt><trkpt lat="44.6533057" lon="11.5192775"><ele>10.0</ele><time>2026-04-22T11:35:15.339Z</time></trkpt><trkpt lat="44.6533512" lon="11.519211"><ele>10.0</ele><time>2026-04-22T11:35:16.349Z</time></trkpt><trkpt lat="44.6533955" lon="11.5191435"><ele>10.0</ele><time>2026-04-22T11:35:17.345Z</time></trkpt><trkpt lat="44.6534392" lon="11.519075"><ele>10.0</ele><time>2026-04-22T11:35:18.342Z</time></trkpt><trkpt lat="44.6534828" lon="11.5190069"><ele>10.0</ele><time>2026-04-22T11:35:19.349Z</time></trkpt><trkpt lat="44.6535267" lon="11.5189402"><ele>10.0</ele><time>2026-04-22T11:35:20.357Z</time></trkpt><trkpt lat="44.6535707" lon="11.5188743"><ele>10.0</ele><time>2026-04-22T11:35:21.348Z</time></trkpt><trkpt lat="44.6536149" lon="11.5188074"><ele>10.0</ele><time>2026-04-22T11:35:22.357Z</time></trkpt><trkpt lat="44.6536588" lon="11.5187404"><ele>10.0</ele><time>2026-04-22T11:35:23.354Z</time></trkpt><trkpt lat="44.653703" lon="11.5186731"><ele>10.0</ele><time>2026-04-22T11:35:24.354Z</time></trkpt><trkpt lat="44.6537473" lon="11.5186064"><ele>9.714285714285714</ele><time>2026-04-22T11:35:25.35Z</time></trkpt><trkpt lat="44.6537916" lon="11.5185392"><ele>9.428571428571429</ele><time>2026-04-22T11:35:26.348Z</time></trkpt><trkpt lat="44.6538354" lon="11.5184714"><ele>9.142857142857142</ele><time>2026-04-22T11:35:27.346Z</time></trkpt><trkpt lat="44.6538794" lon="11.5184029"><ele>8.857142857142858</ele><time>2026-04-22T11:35:28.342Z</time></trkpt><trkpt lat="44.6539241" lon="11.5183357"><ele>8.571428571428571</ele><time>2026-04-22T11:35:29.344Z</time></trkpt><trkpt lat="44.6539693" lon="11.5182687"><ele>8.285714285714285</ele><time>2026-04-22T11:35:30.354Z</time></trkpt><trkpt lat="44.6540148" lon="11.5182028"><ele>8.0</ele><time>2026-04-22T11:35:31.348Z</time></trkpt><trkpt lat="44.6540597" lon="11.5181361"><ele>8.0</ele><time>2026-04-22T11:35:32.352Z</time></trkpt><trkpt lat="44.6541036" lon="11.5180684"><ele>7.999999999999999</ele><time>2026-04-22T11:35:33.35Z</time></trkpt><trkpt lat="44.6541472" lon="11.5179998"><ele>8.0</ele><time>2026-04-22T11:35:34.344Z</time></trkpt><trkpt lat="44.6541913" lon="11.5179322"><ele>8.0</ele><time>2026-04-22T11:35:35.352Z</time></trkpt><trkpt lat="44.6542365" lon="11.5178661"><ele>7.999999999999999</ele><time>2026-04-22T11:35:36.36Z</time></trkpt><trkpt lat="44.6542813" lon="11.5177997"><ele>8.0</ele><time>2026-04-22T11:35:37.348Z</time></trkpt><trkpt lat="44.6543267" lon="11.5177335"><ele>8.0</ele><time>2026-04-22T11:35:38.345Z</time></trkpt><trkpt lat="44.654371" lon="11.5176648"><ele>7.857142857142857</ele><time>2026-04-22T11:35:39.356Z</time></trkpt><trkpt lat="44.6544155" lon="11.5175959"><ele>7.7142857142857135</ele><time>2026-04-22T11:35:40.339Z</time></trkpt><trkpt lat="44.6544601" lon="11.517527"><ele>7.571428571428571</ele><time>2026-04-22T11:35:41.353Z</time></trkpt><trkpt lat="44.654505" lon="11.5174584"><ele>7.428571428571429</ele><time>2026-04-22T11:35:42.354Z</time></trkpt><trkpt lat="44.65455" lon="11.51739"><ele>7.285714285714286</ele><time>2026-04-22T11:35:43.357Z</time></trkpt><trkpt lat="44.6545947" lon="11.5173215"><ele>7.142857142857142</ele><time>2026-04-22T11:35:44.343Z</time></trkpt><trkpt lat="44.6546402" lon="11.5172541"><ele>7.0</ele><time>2026-04-22T11:35:45.354Z</time></trkpt><trkpt lat="44.654686" lon="11.5171867"><ele>7.285714285714286</ele><time>2026-04-22T11:35:46.345Z</time></trkpt><trkpt lat="44.6547313" lon="11.5171188"><ele>7.571428571428571</ele><time>2026-04-22T11:35:47.343Z</time></trkpt><trkpt lat="44.6547764" lon="11.5170508"><ele>7.857142857142858</ele><time>2026-04-22T11:35:48.351Z</time></trkpt><trkpt lat="44.654822" lon="11.5169832"><ele>8.142857142857142</ele><time>2026-04-22T11:35:49.343Z</time></trkpt><trkpt lat="44.6548687" lon="11.5169167"><ele>8.428571428571429</ele><time>2026-04-22T11:35:50.359Z</time></trkpt><trkpt lat="44.6549158" lon="11.5168503"><ele>8.714285714285715</ele><time>2026-04-22T11:35:51.352Z</time></trkpt><trkpt lat="44.6549648" lon="11.5167858"><ele>9.0</ele><time>2026-04-22T11:35:52.343Z</time></trkpt><trkpt lat="44.655015" lon="11.5167229"><ele>9.000000000000002</ele><time>2026-04-22T11:35:53.353Z</time></trkpt><trkpt lat="44.6550674" lon="11.5166627"><ele>9.0</ele><time>2026-04-22T11:35:54.346Z</time></trkpt><trkpt lat="44.6551227" lon="11.5166071"><ele>9.0</ele><time>2026-04-22T11:35:55.347Z</time></trkpt><trkpt lat="44.6551791" lon="11.516554"><ele>9.0</ele><time>2026-04-22T11:35:56.35Z</time></trkpt><trkpt lat="44.6552378" lon="11.5165056"><ele>9.0</ele><time>2026-04-22T11:35:57.347Z</time></trkpt><trkpt lat="44.6552991" lon="11.5164633"><ele>9.000000000000002</ele><time>2026-04-22T11:35:58.343Z</time></trkpt><trkpt lat="44.6553623" lon="11.5164241"><ele>9.0</ele><time>2026-04-22T11:35:59.348Z</time></trkpt><trkpt lat="44.6554261" lon="11.5163902"><ele>9.285714285714286</ele><time>2026-04-22T11:36:00.35Z</time></trkpt><trkpt lat="44.6554911" lon="11.5163621"><ele>9.571428571428571</ele><time>2026-04-22T11:36:01.348Z</time></trkpt><trkpt lat="44.6555562" lon="11.5163382"><ele>9.857142857142858</ele><time>2026-04-22T11:36:02.347Z</time></trkpt><trkpt lat="44.6556214" lon="11.5163174"><ele>10.142857142857142</ele><time>2026-04-22T11:36:03.339Z</time></trkpt><trkpt lat="44.6556868" lon="11.5163003"><ele>10.428571428571429</ele><time>2026-04-22T11:36:04.346Z</time></trkpt><trkpt lat="44.6557521" lon="11.5162863"><ele>10.714285714285715</ele><time>2026-04-22T11:36:05.346Z</time></trkpt><trkpt lat="44.6558175" lon="11.5162726"><ele>11.0</ele><time>2026-04-22T11:36:06.359Z</time></trkpt><trkpt lat="44.6558829" lon="11.5162589"><ele>11.0</ele><time>2026-04-22T11:36:07.342Z</time></trkpt><trkpt lat="44.6559473" lon="11.5162453"><ele>11.0</ele><time>2026-04-22T11:36:08.356Z</time></trkpt><trkpt lat="44.6560107" lon="11.5162321"><ele>11.0</ele><time>2026-04-22T11:36:09.348Z</time></trkpt><trkpt lat="44.6560737" lon="11.5162167"><ele>11.0</ele><time>2026-04-22T11:36:10.346Z</time></trkpt><trkpt lat="44.6561371" lon="11.516204"><ele>11.0</ele><time>2026-04-22T11:36:11.353Z</time></trkpt><trkpt lat="44.6561997" lon="11.5161918"><ele>11.0</ele><time>2026-04-22T11:36:12.355Z</time></trkpt><trkpt lat="44.6563238" lon="11.5161645"><ele>11.0</ele><time>2026-04-22T11:36:14.344Z</time></trkpt><trkpt lat="44.6564486" lon="11.5161413"><ele>11.0</ele><time>2026-04-22T11:36:16.349Z</time></trkpt><trkpt lat="44.6565729" lon="11.5161141"><ele>11.0</ele><time>2026-04-22T11:36:18.349Z</time></trkpt><trkpt lat="44.6566355" lon="11.5161003"><ele>11.0</ele><time>2026-04-22T11:36:19.343Z</time></trkpt><trkpt lat="44.6566984" lon="11.5160878"><ele>11.0</ele><time>2026-04-22T11:36:20.345Z</time></trkpt><trkpt lat="44.6567614" lon="11.5160757"><ele>11.0</ele><time>2026-04-22T11:36:21.346Z</time></trkpt><trkpt lat="44.6568238" lon="11.5160619"><ele>11.0</ele><time>2026-04-22T11:36:22.355Z</time></trkpt><trkpt lat="44.6568863" lon="11.5160473"><ele>11.0</ele><time>2026-04-22T11:36:23.351Z</time></trkpt><trkpt lat="44.6569492" lon="11.5160335"><ele>11.0</ele><time>2026-04-22T11:36:24.347Z</time></trkpt><trkpt lat="44.6570121" lon="11.5160208"><ele>11.0</ele><time>2026-04-22T11:36:25.359Z</time></trkpt><trkpt lat="44.6570746" lon="11.5160068"><ele>11.0</ele><time>2026-04-22T11:36:26.346Z</time></trkpt><trkpt lat="44.6571371" lon="11.5159934"><ele>11.0</ele><time>2026-04-22T11:36:27.348Z</time></trkpt><trkpt lat="44.6572613" lon="11.5159683"><ele>11.0</ele><time>2026-04-22T11:36:29.346Z</time></trkpt><trkpt lat="44.6573855" lon="11.5159419"><ele>11.0</ele><time>2026-04-22T11:36:31.355Z</time></trkpt><trkpt lat="44.6574478" lon="11.5159272"><ele>11.0</ele><time>2026-04-22T11:36:32.342Z</time></trkpt><trkpt lat="44.6575101" lon="11.5159112"><ele>11.0</ele><time>2026-04-22T11:36:33.347Z</time></trkpt><trkpt lat="44.6575725" lon="11.5158929"><ele>11.0</ele><time>2026-04-22T11:36:34.344Z</time></trkpt><trkpt lat="44.6576342" lon="11.5158726"><ele>11.0</ele><time>2026-04-22T11:36:35.339Z</time></trkpt><trkpt lat="44.6577547" lon="11.5158244"><ele>11.0</ele><time>2026-04-22T11:36:37.345Z</time></trkpt><trkpt lat="44.6578725" lon="11.5157626"><ele>11.0</ele><time>2026-04-22T11:36:39.354Z</time></trkpt><trkpt lat="44.6579296" lon="11.5157251"><ele>11.0</ele><time>2026-04-22T11:36:40.354Z</time></trkpt><trkpt lat="44.6579864" lon="11.5156846"><ele>11.0</ele><time>2026-04-22T11:36:41.346Z</time></trkpt><trkpt lat="44.658042" lon="11.5156399"><ele>11.0</ele><time>2026-04-22T11:36:42.341Z</time></trkpt><trkpt lat="44.6580956" lon="11.5155898"><ele>11.0</ele><time>2026-04-22T11:36:43.354Z</time></trkpt><trkpt lat="44.6581466" lon="11.515534"><ele>11.0</ele><time>2026-04-22T11:36:44.349Z</time></trkpt><trkpt lat="44.6581953" lon="11.5154748"><ele>11.0</ele><time>2026-04-22T11:36:45.362Z</time></trkpt><trkpt lat="44.6582411" lon="11.5154107"><ele>11.0</ele><time>2026-04-22T11:36:46.349Z</time></trkpt><trkpt lat="44.6582845" lon="11.5153427"><ele>11.0</ele><time>2026-04-22T11:36:47.345Z</time></trkpt><trkpt lat="44.6583255" lon="11.5152722"><ele>11.0</ele><time>2026-04-22T11:36:48.356Z</time></trkpt><trkpt lat="44.6583644" lon="11.515199"><ele>11.0</ele><time>2026-04-22T11:36:49.355Z</time></trkpt><trkpt lat="44.6584008" lon="11.5151222"><ele>11.0</ele><time>2026-04-22T11:36:50.345Z</time></trkpt><trkpt lat="44.6584333" lon="11.5150423"><ele>11.0</ele><time>2026-04-22T11:36:51.36Z</time></trkpt><trkpt lat="44.6584637" lon="11.5149603"><ele>11.0</ele><time>2026-04-22T11:36:52.351Z</time></trkpt><trkpt lat="44.6584896" lon="11.5148753"><ele>11.0</ele><time>2026-04-22T11:36:53.346Z</time></trkpt><trkpt lat="44.6585118" lon="11.5147874"><ele>11.0</ele><time>2026-04-22T11:36:54.351Z</time></trkpt><trkpt lat="44.6585315" lon="11.5146977"><ele>11.0</ele><time>2026-04-22T11:36:55.357Z</time></trkpt><trkpt lat="44.6585495" lon="11.5146066"><ele>11.0</ele><time>2026-04-22T11:36:56.352Z</time></trkpt><trkpt lat="44.6585645" lon="11.5145138"><ele>11.0</ele><time>2026-04-22T11:36:57.351Z</time></trkpt><trkpt lat="44.6585769" lon="11.5144203"><ele>11.0</ele><time>2026-04-22T11:36:58.358Z</time></trkpt><trkpt lat="44.6585884" lon="11.5143254"><ele>11.0</ele><time>2026-04-22T11:36:59.355Z</time></trkpt><trkpt lat="44.6585978" lon="11.5142305"><ele>11.0</ele><time>2026-04-22T11:37:00.345Z</time></trkpt><trkpt lat="44.6586058" lon="11.5141343"><ele>11.142857142857142</ele><time>2026-04-22T11:37:01.348Z</time></trkpt><trkpt lat="44.6586141" lon="11.5140375"><ele>11.285714285714285</ele><time>2026-04-22T11:37:02.346Z</time></trkpt><trkpt lat="44.6586238" lon="11.5139409"><ele>11.428571428571427</ele><time>2026-04-22T11:37:03.348Z</time></trkpt><trkpt lat="44.6586331" lon="11.5138438"><ele>11.571428571428571</ele><time>2026-04-22T11:37:04.357Z</time></trkpt><trkpt lat="44.6586418" lon="11.5137462"><ele>11.714285714285714</ele><time>2026-04-22T11:37:05.342Z</time></trkpt><trkpt lat="44.6586499" lon="11.5136474"><ele>11.857142857142856</ele><time>2026-04-22T11:37:06.345Z</time></trkpt><trkpt lat="44.6586571" lon="11.5135481"><ele>12.0</ele><time>2026-04-22T11:37:07.352Z</time></trkpt><trkpt lat="44.658665" lon="11.5134488"><ele>11.714285714285714</ele><time>2026-04-22T11:37:08.345Z</time></trkpt><trkpt lat="44.6586738" lon="11.51335"><ele>11.428571428571429</ele><time>2026-04-22T11:37:09.351Z</time></trkpt><trkpt lat="44.6586836" lon="11.5132511"><ele>11.142857142857142</ele><time>2026-04-22T11:37:10.347Z</time></trkpt><trkpt lat="44.6586926" lon="11.5131528"><ele>10.857142857142858</ele><time>2026-04-22T11:37:11.353Z</time></trkpt><trkpt lat="44.6587004" lon="11.5130542"><ele>10.571428571428571</ele><time>2026-04-22T11:37:12.35Z</time></trkpt><trkpt lat="44.6587101" lon="11.5129561"><ele>10.285714285714285</ele><time>2026-04-22T11:37:13.352Z</time></trkpt><trkpt lat="44.658719" lon="11.5128584"><ele>10.0</ele><time>2026-04-22T11:37:14.339Z</time></trkpt><trkpt lat="44.6587275" lon="11.5127616"><ele>10.0</ele><time>2026-04-22T11:37:15.356Z</time></trkpt><trkpt lat="44.658736" lon="11.5126651"><ele>10.0</ele><time>2026-04-22T11:37:16.357Z</time></trkpt><trkpt lat="44.6587441" lon="11.5125683"><ele>10.0</ele><time>2026-04-22T11:37:17.351Z</time></trkpt><trkpt lat="44.6587525" lon="11.512472"><ele>10.0</ele><time>2026-04-22T11:37:18.34Z</time></trkpt><trkpt lat="44.6587617" lon="11.512376"><ele>10.0</ele><time>2026-04-22T11:37:19.342Z</time></trkpt><trkpt lat="44.6587705" lon="11.5122794"><ele>10.0</ele><time>2026-04-22T11:37:20.352Z</time></trkpt><trkpt lat="44.6587791" lon="11.512182"><ele>10.0</ele><time>2026-04-22T11:37:21.348Z</time></trkpt><trkpt lat="44.6587866" lon="11.5120846"><ele>10.0</ele><time>2026-04-22T11:37:22.331Z</time></trkpt><trkpt lat="44.6587946" lon="11.5119875"><ele>10.0</ele><time>2026-04-22T11:37:23.348Z</time></trkpt><trkpt lat="44.6588036" lon="11.5118909"><ele>10.0</ele><time>2026-04-22T11:37:24.348Z</time></trkpt><trkpt lat="44.6588118" lon="11.5117941"><ele>10.0</ele><time>2026-04-22T11:37:25.368Z</time></trkpt><trkpt lat="44.6588208" lon="11.5116968"><ele>10.0</ele><time>2026-04-22T11:37:26.348Z</time></trkpt><trkpt lat="44.6588292" lon="11.5115986"><ele>10.0</ele><time>2026-04-22T11:37:27.357Z</time></trkpt><trkpt lat="44.6588378" lon="11.5115012"><ele>10.0</ele><time>2026-04-22T11:37:28.339Z</time></trkpt><trkpt lat="44.6588455" lon="11.511404"><ele>10.0</ele><time>2026-04-22T11:37:29.342Z</time></trkpt><trkpt lat="44.6588538" lon="11.5113067"><ele>10.0</ele><time>2026-04-22T11:37:30.353Z</time></trkpt><trkpt lat="44.6588629" lon="11.5112093"><ele>10.0</ele><time>2026-04-22T11:37:31.358Z</time></trkpt><trkpt lat="44.6588712" lon="11.5111115"><ele>10.0</ele><time>2026-04-22T11:37:32.348Z</time></trkpt><trkpt lat="44.6588795" lon="11.5110135"><ele>10.0</ele><time>2026-04-22T11:37:33.357Z</time></trkpt><trkpt lat="44.6588876" lon="11.5109153"><ele>10.0</ele><time>2026-04-22T11:37:34.341Z</time></trkpt><trkpt lat="44.6588965" lon="11.5108175"><ele>10.0</ele><time>2026-04-22T11:37:35.344Z</time></trkpt><trkpt lat="44.6589049" lon="11.5107199"><ele>10.142857142857142</ele><time>2026-04-22T11:37:36.358Z</time></trkpt><trkpt lat="44.6589131" lon="11.5106219"><ele>10.285714285714286</ele><time>2026-04-22T11:37:37.352Z</time></trkpt><trkpt lat="44.658921" lon="11.5105239"><ele>10.428571428571429</ele><time>2026-04-22T11:37:38.342Z</time></trkpt><trkpt lat="44.6589296" lon="11.5104259"><ele>10.571428571428571</ele><time>2026-04-22T11:37:39.341Z</time></trkpt><trkpt lat="44.6589374" lon="11.5103277"><ele>10.714285714285714</ele><time>2026-04-22T11:37:40.354Z</time></trkpt><trkpt lat="44.6589455" lon="11.5102322"><ele>10.857142857142858</ele><time>2026-04-22T11:37:41.341Z</time></trkpt><trkpt lat="44.6589523" lon="11.5101403"><ele>11.0</ele><time>2026-04-22T11:37:42.35Z</time></trkpt><trkpt lat="44.6589599" lon="11.5100515"><ele>11.0</ele><time>2026-04-22T11:37:43.357Z</time></trkpt><trkpt lat="44.6589762" lon="11.509879"><ele>11.0</ele><time>2026-04-22T11:37:45.349Z</time></trkpt><trkpt lat="44.6589898" lon="11.5097114"><ele>11.0</ele><time>2026-04-22T11:37:47.345Z</time></trkpt><trkpt lat="44.6590045" lon="11.5095428"><ele>11.0</ele><time>2026-04-22T11:37:49.348Z</time></trkpt><trkpt lat="44.6590119" lon="11.5094542"><ele>11.0</ele><time>2026-04-22T11:37:50.351Z</time></trkpt><trkpt lat="44.659027" lon="11.509286"><ele>11.0</ele><time>2026-04-22T11:37:52.348Z</time></trkpt><trkpt lat="44.6590362" lon="11.5091971"><ele>11.0</ele><time>2026-04-22T11:37:53.345Z</time></trkpt><trkpt lat="44.6590444" lon="11.5091075"><ele>11.0</ele><time>2026-04-22T11:37:54.341Z</time></trkpt><trkpt lat="44.6590602" lon="11.50893"><ele>11.0</ele><time>2026-04-22T11:37:56.343Z</time></trkpt><trkpt lat="44.6590665" lon="11.5088381"><ele>11.0</ele><time>2026-04-22T11:37:57.356Z</time></trkpt><trkpt lat="44.6590747" lon="11.5087473"><ele>11.0</ele><time>2026-04-22T11:37:58.356Z</time></trkpt><trkpt lat="44.6590826" lon="11.5086572"><ele>11.0</ele><time>2026-04-22T11:37:59.336Z</time></trkpt><trkpt lat="44.6590903" lon="11.5085658"><ele>11.0</ele><time>2026-04-22T11:38:00.347Z</time></trkpt><trkpt lat="44.6590986" lon="11.5084743"><ele>11.0</ele><time>2026-04-22T11:38:01.342Z</time></trkpt><trkpt lat="44.6591066" lon="11.5083824"><ele>11.0</ele><time>2026-04-22T11:38:02.35Z</time></trkpt><trkpt lat="44.6591138" lon="11.5082902"><ele>11.0</ele><time>2026-04-22T11:38:03.354Z</time></trkpt><trkpt lat="44.6591213" lon="11.508198"><ele>11.0</ele><time>2026-04-22T11:38:04.356Z</time></trkpt><trkpt lat="44.659129" lon="11.5081058"><ele>11.0</ele><time>2026-04-22T11:38:05.352Z</time></trkpt><trkpt lat="44.6591373" lon="11.5080133"><ele>11.0</ele><time>2026-04-22T11:38:06.351Z</time></trkpt><trkpt lat="44.6591462" lon="11.5079207"><ele>11.0</ele><time>2026-04-22T11:38:07.352Z</time></trkpt><trkpt lat="44.6591551" lon="11.5078276"><ele>11.0</ele><time>2026-04-22T11:38:08.354Z</time></trkpt><trkpt lat="44.6591633" lon="11.5077343"><ele>11.0</ele><time>2026-04-22T11:38:09.347Z</time></trkpt><trkpt lat="44.659171" lon="11.5076414"><ele>11.0</ele><time>2026-04-22T11:38:10.366Z</time></trkpt><trkpt lat="44.6591791" lon="11.5075489"><ele>11.0</ele><time>2026-04-22T11:38:11.349Z</time></trkpt><trkpt lat="44.659187" lon="11.5074558"><ele>11.0</ele><time>2026-04-22T11:38:12.352Z</time></trkpt><trkpt lat="44.6591955" lon="11.5073622"><ele>10.714285714285715</ele><time>2026-04-22T11:38:13.346Z</time></trkpt><trkpt lat="44.659204" lon="11.5072685"><ele>10.428571428571429</ele><time>2026-04-22T11:38:14.346Z</time></trkpt><trkpt lat="44.6592121" lon="11.5071742"><ele>10.142857142857142</ele><time>2026-04-22T11:38:15.363Z</time></trkpt><trkpt lat="44.65922" lon="11.50708"><ele>9.857142857142858</ele><time>2026-04-22T11:38:16.344Z</time></trkpt><trkpt lat="44.6592276" lon="11.5069858"><ele>9.571428571428571</ele><time>2026-04-22T11:38:17.349Z</time></trkpt><trkpt lat="44.6592367" lon="11.5068913"><ele>9.285714285714286</ele><time>2026-04-22T11:38:18.339Z</time></trkpt><trkpt lat="44.659245" lon="11.5067969"><ele>9.0</ele><time>2026-04-22T11:38:19.335Z</time></trkpt><trkpt lat="44.6592529" lon="11.5067026"><ele>9.000000000000002</ele><time>2026-04-22T11:38:20.343Z</time></trkpt><trkpt lat="44.6592608" lon="11.5066078"><ele>9.0</ele><time>2026-04-22T11:38:21.357Z</time></trkpt><trkpt lat="44.6592687" lon="11.5065144"><ele>9.0</ele><time>2026-04-22T11:38:22.34Z</time></trkpt><trkpt lat="44.6592761" lon="11.5064212"><ele>9.0</ele><time>2026-04-22T11:38:23.348Z</time></trkpt><trkpt lat="44.6592843" lon="11.5063284"><ele>9.0</ele><time>2026-04-22T11:38:24.359Z</time></trkpt><trkpt lat="44.659293" lon="11.5062353"><ele>9.000000000000002</ele><time>2026-04-22T11:38:25.345Z</time></trkpt><trkpt lat="44.6593011" lon="11.5061423"><ele>9.0</ele><time>2026-04-22T11:38:26.346Z</time></trkpt><trkpt lat="44.6593086" lon="11.5060496"><ele>9.285714285714286</ele><time>2026-04-22T11:38:27.354Z</time></trkpt><trkpt lat="44.6593161" lon="11.5059563"><ele>9.571428571428571</ele><time>2026-04-22T11:38:28.345Z</time></trkpt><trkpt lat="44.6593246" lon="11.5058629"><ele>9.857142857142858</ele><time>2026-04-22T11:38:29.347Z</time></trkpt><trkpt lat="44.6593318" lon="11.5057687"><ele>10.142857142857142</ele><time>2026-04-22T11:38:30.347Z</time></trkpt><trkpt lat="44.6593404" lon="11.5056767"><ele>10.428571428571429</ele><time>2026-04-22T11:38:31.351Z</time></trkpt><trkpt lat="44.6593487" lon="11.5055844"><ele>10.714285714285715</ele><time>2026-04-22T11:38:32.347Z</time></trkpt><trkpt lat="44.6593561" lon="11.505492"><ele>11.0</ele><time>2026-04-22T11:38:33.352Z</time></trkpt><trkpt lat="44.6593629" lon="11.5053996"><ele>11.0</ele><time>2026-04-22T11:38:34.356Z</time></trkpt><trkpt lat="44.6593712" lon="11.5053077"><ele>11.0</ele><time>2026-04-22T11:38:35.35Z</time></trkpt><trkpt lat="44.6593802" lon="11.5052145"><ele>11.0</ele><time>2026-04-22T11:38:36.35Z</time></trkpt><trkpt lat="44.6593882" lon="11.5051194"><ele>11.0</ele><time>2026-04-22T11:38:37.357Z</time></trkpt><trkpt lat="44.6593944" lon="11.5050228"><ele>11.0</ele><time>2026-04-22T11:38:38.357Z</time></trkpt><trkpt lat="44.6594044" lon="11.5049261"><ele>11.0</ele><time>2026-04-22T11:38:39.356Z</time></trkpt><trkpt lat="44.6594172" lon="11.5048296"><ele>11.0</ele><time>2026-04-22T11:38:40.344Z</time></trkpt><trkpt lat="44.6594303" lon="11.5047339"><ele>11.0</ele><time>2026-04-22T11:38:41.344Z</time></trkpt><trkpt lat="44.6594426" lon="11.5046375"><ele>11.0</ele><time>2026-04-22T11:38:42.357Z</time></trkpt><trkpt lat="44.6594549" lon="11.5045415"><ele>11.0</ele><time>2026-04-22T11:38:43.344Z</time></trkpt><trkpt lat="44.6594687" lon="11.5044455"><ele>11.0</ele><time>2026-04-22T11:38:44.358Z</time></trkpt><trkpt lat="44.6594839" lon="11.5043498"><ele>11.0</ele><time>2026-04-22T11:38:45.345Z</time></trkpt><trkpt lat="44.6594998" lon="11.5042536"><ele>11.0</ele><time>2026-04-22T11:38:46.34Z</time></trkpt><trkpt lat="44.6595158" lon="11.5041574"><ele>11.0</ele><time>2026-04-22T11:38:47.352Z</time></trkpt><trkpt lat="44.6595335" lon="11.5040614"><ele>11.0</ele><time>2026-04-22T11:38:48.352Z</time></trkpt><trkpt lat="44.6595516" lon="11.5039657"><ele>11.0</ele><time>2026-04-22T11:38:49.361Z</time></trkpt><trkpt lat="44.6595702" lon="11.5038704"><ele>11.0</ele><time>2026-04-22T11:38:50.356Z</time></trkpt><trkpt lat="44.659589" lon="11.5037758"><ele>11.0</ele><time>2026-04-22T11:38:51.358Z</time></trkpt><trkpt lat="44.6596089" lon="11.5036808"><ele>11.0</ele><time>2026-04-22T11:38:52.353Z</time></trkpt><trkpt lat="44.659629" lon="11.5035859"><ele>11.0</ele><time>2026-04-22T11:38:53.352Z</time></trkpt><trkpt lat="44.6596493" lon="11.5034916"><ele>11.0</ele><time>2026-04-22T11:38:54.343Z</time></trkpt><trkpt lat="44.6596714" lon="11.5033978"><ele>11.0</ele><time>2026-04-22T11:38:55.343Z</time></trkpt><trkpt lat="44.6596946" lon="11.5033044"><ele>11.0</ele><time>2026-04-22T11:38:56.338Z</time></trkpt><trkpt lat="44.6597192" lon="11.5032121"><ele>11.0</ele><time>2026-04-22T11:38:57.341Z</time></trkpt><trkpt lat="44.6597444" lon="11.5031197"><ele>11.0</ele><time>2026-04-22T11:38:58.348Z</time></trkpt><trkpt lat="44.6597699" lon="11.5030265"><ele>11.0</ele><time>2026-04-22T11:38:59.357Z</time></trkpt><trkpt lat="44.6597958" lon="11.502934"><ele>11.0</ele><time>2026-04-22T11:39:00.361Z</time></trkpt><trkpt lat="44.6598228" lon="11.5028419"><ele>11.0</ele><time>2026-04-22T11:39:01.342Z</time></trkpt><trkpt lat="44.6598507" lon="11.50275"><ele>11.285714285714286</ele><time>2026-04-22T11:39:02.346Z</time></trkpt><trkpt lat="44.6598788" lon="11.502658"><ele>11.571428571428571</ele><time>2026-04-22T11:39:03.35Z</time></trkpt><trkpt lat="44.6599066" lon="11.5025652"><ele>11.857142857142858</ele><time>2026-04-22T11:39:04.351Z</time></trkpt><trkpt lat="44.659936" lon="11.5024727"><ele>12.142857142857142</ele><time>2026-04-22T11:39:05.345Z</time></trkpt><trkpt lat="44.6599656" lon="11.5023801"><ele>12.428571428571429</ele><time>2026-04-22T11:39:06.354Z</time></trkpt><trkpt lat="44.659995" lon="11.5022867"><ele>12.714285714285714</ele><time>2026-04-22T11:39:07.354Z</time></trkpt><trkpt lat="44.6600252" lon="11.5021939"><ele>13.0</ele><time>2026-04-22T11:39:08.344Z</time></trkpt><trkpt lat="44.6600555" lon="11.5021005"><ele>13.0</ele><time>2026-04-22T11:39:09.347Z</time></trkpt><trkpt lat="44.6600859" lon="11.5020069"><ele>13.0</ele><time>2026-04-22T11:39:10.349Z</time></trkpt><trkpt lat="44.6601155" lon="11.5019137"><ele>13.0</ele><time>2026-04-22T11:39:11.353Z</time></trkpt><trkpt lat="44.660146" lon="11.5018214"><ele>13.0</ele><time>2026-04-22T11:39:12.35Z</time></trkpt><trkpt lat="44.6601771" lon="11.5017304"><ele>13.0</ele><time>2026-04-22T11:39:13.349Z</time></trkpt><trkpt lat="44.6602083" lon="11.50164"><ele>13.0</ele><time>2026-04-22T11:39:14.345Z</time></trkpt><trkpt lat="44.6602378" lon="11.5015495"><ele>13.0</ele><time>2026-04-22T11:39:15.361Z</time></trkpt><trkpt lat="44.6602676" lon="11.5014608"><ele>13.0</ele><time>2026-04-22T11:39:16.345Z</time></trkpt><trkpt lat="44.6602977" lon="11.5013726"><ele>13.0</ele><time>2026-04-22T11:39:17.355Z</time></trkpt><trkpt lat="44.6603283" lon="11.5012846"><ele>13.0</ele><time>2026-04-22T11:39:18.347Z</time></trkpt><trkpt lat="44.6603582" lon="11.5011956"><ele>13.0</ele><time>2026-04-22T11:39:19.356Z</time></trkpt><trkpt lat="44.6603891" lon="11.5011064"><ele>13.0</ele><time>2026-04-22T11:39:20.347Z</time></trkpt><trkpt lat="44.6604199" lon="11.5010157"><ele>13.0</ele><time>2026-04-22T11:39:21.356Z</time></trkpt><trkpt lat="44.66045" lon="11.5009244"><ele>13.0</ele><time>2026-04-22T11:39:22.347Z</time></trkpt><trkpt lat="44.6604805" lon="11.5008331"><ele>13.0</ele><time>2026-04-22T11:39:23.345Z</time></trkpt><trkpt lat="44.6605122" lon="11.500742"><ele>13.0</ele><time>2026-04-22T11:39:24.347Z</time></trkpt><trkpt lat="44.6605443" lon="11.5006513"><ele>13.0</ele><time>2026-04-22T11:39:25.356Z</time></trkpt><trkpt lat="44.6605755" lon="11.5005596"><ele>13.0</ele><time>2026-04-22T11:39:26.352Z</time></trkpt><trkpt lat="44.660607" lon="11.5004678"><ele>13.0</ele><time>2026-04-22T11:39:27.352Z</time></trkpt><trkpt lat="44.6606389" lon="11.5003773"><ele>13.0</ele><time>2026-04-22T11:39:28.339Z</time></trkpt><trkpt lat="44.6606716" lon="11.5002869"><ele>13.0</ele><time>2026-04-22T11:39:29.344Z</time></trkpt><trkpt lat="44.6607036" lon="11.5001967"><ele>12.857142857142856</ele><time>2026-04-22T11:39:30.345Z</time></trkpt><trkpt lat="44.6607358" lon="11.5001066"><ele>12.714285714285715</ele><time>2026-04-22T11:39:31.351Z</time></trkpt><trkpt lat="44.6607677" lon="11.5000159"><ele>12.571428571428571</ele><time>2026-04-22T11:39:32.348Z</time></trkpt><trkpt lat="44.6607991" lon="11.4999263"><ele>12.428571428571427</ele><time>2026-04-22T11:39:33.345Z</time></trkpt><trkpt lat="44.66083" lon="11.4998359"><ele>12.285714285714285</ele><time>2026-04-22T11:39:34.352Z</time></trkpt><trkpt lat="44.6608602" lon="11.499745"><ele>12.142857142857142</ele><time>2026-04-22T11:39:35.335Z</time></trkpt><trkpt lat="44.6608904" lon="11.4996538"><ele>12.0</ele><time>2026-04-22T11:39:36.349Z</time></trkpt><trkpt lat="44.6609193" lon="11.499561"><ele>11.999999999999998</ele><time>2026-04-22T11:39:37.348Z</time></trkpt><trkpt lat="44.6609483" lon="11.4994687"><ele>12.0</ele><time>2026-04-22T11:39:38.354Z</time></trkpt><trkpt lat="44.6609774" lon="11.499376"><ele>12.0</ele><time>2026-04-22T11:39:39.354Z</time></trkpt><trkpt lat="44.6610052" lon="11.4992819"><ele>12.0</ele><time>2026-04-22T11:39:40.353Z</time></trkpt><trkpt lat="44.6610324" lon="11.4991871"><ele>12.0</ele><time>2026-04-22T11:39:41.356Z</time></trkpt><trkpt lat="44.6610595" lon="11.4990913"><ele>11.999999999999998</ele><time>2026-04-22T11:39:42.356Z</time></trkpt><trkpt lat="44.6610856" lon="11.498995"><ele>12.0</ele><time>2026-04-22T11:39:43.346Z</time></trkpt><trkpt lat="44.6611122" lon="11.4988988"><ele>11.857142857142856</ele><time>2026-04-22T11:39:44.359Z</time></trkpt><trkpt lat="44.66114" lon="11.4988035"><ele>11.714285714285714</ele><time>2026-04-22T11:39:45.347Z</time></trkpt><trkpt lat="44.6611687" lon="11.4987088"><ele>11.571428571428571</ele><time>2026-04-22T11:39:46.349Z</time></trkpt><trkpt lat="44.6611974" lon="11.4986138"><ele>11.428571428571427</ele><time>2026-04-22T11:39:47.351Z</time></trkpt><trkpt lat="44.661226" lon="11.49852"><ele>11.285714285714285</ele><time>2026-04-22T11:39:48.346Z</time></trkpt><trkpt lat="44.6612545" lon="11.4984263"><ele>11.142857142857142</ele><time>2026-04-22T11:39:49.357Z</time></trkpt><trkpt lat="44.661283" lon="11.4983323"><ele>11.0</ele><time>2026-04-22T11:39:50.348Z</time></trkpt><trkpt lat="44.661312" lon="11.4982386"><ele>11.0</ele><time>2026-04-22T11:39:51.343Z</time></trkpt><trkpt lat="44.6613424" lon="11.4981443"><ele>11.0</ele><time>2026-04-22T11:39:52.349Z</time></trkpt><trkpt lat="44.6613727" lon="11.4980505"><ele>11.0</ele><time>2026-04-22T11:39:53.348Z</time></trkpt><trkpt lat="44.6614025" lon="11.4979562"><ele>11.0</ele><time>2026-04-22T11:39:54.347Z</time></trkpt><trkpt lat="44.6614313" lon="11.4978629"><ele>11.0</ele><time>2026-04-22T11:39:55.35Z</time></trkpt><trkpt lat="44.661459" lon="11.4977697"><ele>11.0</ele><time>2026-04-22T11:39:56.345Z</time></trkpt><trkpt lat="44.6614861" lon="11.4976762"><ele>11.0</ele><time>2026-04-22T11:39:57.343Z</time></trkpt><trkpt lat="44.6615127" lon="11.4975831"><ele>11.0</ele><time>2026-04-22T11:39:58.357Z</time></trkpt><trkpt lat="44.6615374" lon="11.4974889"><ele>11.0</ele><time>2026-04-22T11:39:59.352Z</time></trkpt><trkpt lat="44.6615616" lon="11.4973946"><ele>11.0</ele><time>2026-04-22T11:40:00.348Z</time></trkpt><trkpt lat="44.6615847" lon="11.497299"><ele>11.0</ele><time>2026-04-22T11:40:01.344Z</time></trkpt><trkpt lat="44.6616061" lon="11.4972019"><ele>11.0</ele><time>2026-04-22T11:40:02.345Z</time></trkpt><trkpt lat="44.6616265" lon="11.4971044"><ele>11.0</ele><time>2026-04-22T11:40:03.347Z</time></trkpt><trkpt lat="44.661647" lon="11.4970066"><ele>11.0</ele><time>2026-04-22T11:40:04.355Z</time></trkpt><trkpt lat="44.6616686" lon="11.4969092"><ele>11.285714285714286</ele><time>2026-04-22T11:40:05.335Z</time></trkpt><trkpt lat="44.6616901" lon="11.4968127"><ele>11.571428571428571</ele><time>2026-04-22T11:40:06.345Z</time></trkpt><trkpt lat="44.6617119" lon="11.4967157"><ele>11.857142857142858</ele><time>2026-04-22T11:40:07.346Z</time></trkpt><trkpt lat="44.6617336" lon="11.4966175"><ele>12.142857142857142</ele><time>2026-04-22T11:40:08.355Z</time></trkpt><trkpt lat="44.6617561" lon="11.4965202"><ele>12.428571428571429</ele><time>2026-04-22T11:40:09.337Z</time></trkpt><trkpt lat="44.6617778" lon="11.4964212"><ele>12.714285714285714</ele><time>2026-04-22T11:40:10.347Z</time></trkpt><trkpt lat="44.6617994" lon="11.4963218"><ele>13.0</ele><time>2026-04-22T11:40:11.343Z</time></trkpt><trkpt lat="44.6618222" lon="11.4962222"><ele>13.0</ele><time>2026-04-22T11:40:12.344Z</time></trkpt><trkpt lat="44.661844" lon="11.4961238"><ele>13.0</ele><time>2026-04-22T11:40:13.347Z</time></trkpt><trkpt lat="44.6618649" lon="11.4960256"><ele>13.0</ele><time>2026-04-22T11:40:14.346Z</time></trkpt><trkpt lat="44.6618859" lon="11.4959278"><ele>13.0</ele><time>2026-04-22T11:40:15.351Z</time></trkpt><trkpt lat="44.6619079" lon="11.4958308"><ele>13.0</ele><time>2026-04-22T11:40:16.344Z</time></trkpt><trkpt lat="44.6619302" lon="11.4957342"><ele>13.0</ele><time>2026-04-22T11:40:17.349Z</time></trkpt><trkpt lat="44.6619523" lon="11.4956377"><ele>13.0</ele><time>2026-04-22T11:40:18.345Z</time></trkpt><trkpt lat="44.6619749" lon="11.495542"><ele>13.0</ele><time>2026-04-22T11:40:19.347Z</time></trkpt><trkpt lat="44.6619965" lon="11.4954459"><ele>13.0</ele><time>2026-04-22T11:40:20.349Z</time></trkpt><trkpt lat="44.6620182" lon="11.4953496"><ele>13.0</ele><time>2026-04-22T11:40:21.358Z</time></trkpt><trkpt lat="44.6620385" lon="11.495254"><ele>13.0</ele><time>2026-04-22T11:40:22.343Z</time></trkpt><trkpt lat="44.6620578" lon="11.4951605"><ele>13.0</ele><time>2026-04-22T11:40:23.349Z</time></trkpt><trkpt lat="44.6620767" lon="11.4950712"><ele>13.0</ele><time>2026-04-22T11:40:24.35Z</time></trkpt><trkpt lat="44.6620986" lon="11.4949864"><ele>13.0</ele><time>2026-04-22T11:40:25.351Z</time></trkpt><trkpt lat="44.6621413" lon="11.4948234"><ele>13.0</ele><time>2026-04-22T11:40:27.345Z</time></trkpt><trkpt lat="44.6621777" lon="11.4946663"><ele>13.0</ele><time>2026-04-22T11:40:29.347Z</time></trkpt><trkpt lat="44.6622118" lon="11.4945177"><ele>13.0</ele><time>2026-04-22T11:40:31.352Z</time></trkpt><trkpt lat="44.6622438" lon="11.4943735"><ele>13.0</ele><time>2026-04-22T11:40:33.346Z</time></trkpt><trkpt lat="44.6622713" lon="11.4942342"><ele>13.0</ele><time>2026-04-22T11:40:35.348Z</time></trkpt><trkpt lat="44.6622984" lon="11.4940979"><ele>12.833333333333332</ele><time>2026-04-22T11:40:37.344Z</time></trkpt><trkpt lat="44.6623295" lon="11.4939604"><ele>12.666666666666666</ele><time>2026-04-22T11:40:39.345Z</time></trkpt><trkpt lat="44.6623672" lon="11.4938165"><ele>12.5</ele><time>2026-04-22T11:40:41.345Z</time></trkpt><trkpt lat="44.6623947" lon="11.4937364"><ele>12.333333333333332</ele><time>2026-04-22T11:40:42.357Z</time></trkpt><trkpt lat="44.6624236" lon="11.4936514"><ele>12.166666666666666</ele><time>2026-04-22T11:40:43.354Z</time></trkpt><trkpt lat="44.6624545" lon="11.4935573"><ele>12.0</ele><time>2026-04-22T11:40:44.343Z</time></trkpt><trkpt lat="44.6624862" lon="11.4934618"><ele>12.0</ele><time>2026-04-22T11:40:45.349Z</time></trkpt><trkpt lat="44.662517" lon="11.4933618"><ele>12.0</ele><time>2026-04-22T11:40:46.351Z</time></trkpt><trkpt lat="44.6625468" lon="11.4932599"><ele>12.0</ele><time>2026-04-22T11:40:47.345Z</time></trkpt><trkpt lat="44.6625787" lon="11.4931571"><ele>12.0</ele><time>2026-04-22T11:40:48.347Z</time></trkpt><trkpt lat="44.6626107" lon="11.4930538"><ele>12.0</ele><time>2026-04-22T11:40:49.348Z</time></trkpt><trkpt lat="44.6626431" lon="11.4929506"><ele>12.0</ele><time>2026-04-22T11:40:50.359Z</time></trkpt><trkpt lat="44.6626766" lon="11.4928487"><ele>11.999999999999998</ele><time>2026-04-22T11:40:51.355Z</time></trkpt><trkpt lat="44.66271" lon="11.4927505"><ele>12.0</ele><time>2026-04-22T11:40:52.34Z</time></trkpt><trkpt lat="44.6627407" lon="11.4926533"><ele>12.0</ele><time>2026-04-22T11:40:53.357Z</time></trkpt><trkpt lat="44.6627702" lon="11.4925589"><ele>12.0</ele><time>2026-04-22T11:40:54.354Z</time></trkpt><trkpt lat="44.6627989" lon="11.4924663"><ele>12.0</ele><time>2026-04-22T11:40:55.349Z</time></trkpt><trkpt lat="44.6628271" lon="11.492376"><ele>11.999999999999998</ele><time>2026-04-22T11:40:56.348Z</time></trkpt><trkpt lat="44.662855" lon="11.492286"><ele>12.0</ele><time>2026-04-22T11:40:57.352Z</time></trkpt><trkpt lat="44.6628826" lon="11.4921971"><ele>11.999999999999998</ele><time>2026-04-22T11:40:58.345Z</time></trkpt><trkpt lat="44.66291" lon="11.4921083"><ele>12.0</ele><time>2026-04-22T11:40:59.35Z</time></trkpt><trkpt lat="44.6629385" lon="11.4920199"><ele>12.0</ele><time>2026-04-22T11:41:00.347Z</time></trkpt><trkpt lat="44.6629666" lon="11.4919314"><ele>12.0</ele><time>2026-04-22T11:41:01.352Z</time></trkpt><trkpt lat="44.6629937" lon="11.4918413"><ele>12.0</ele><time>2026-04-22T11:41:02.351Z</time></trkpt><trkpt lat="44.6630213" lon="11.491751"><ele>11.999999999999998</ele><time>2026-04-22T11:41:03.345Z</time></trkpt><trkpt lat="44.6630508" lon="11.4916603"><ele>12.0</ele><time>2026-04-22T11:41:04.351Z</time></trkpt><trkpt lat="44.6630801" lon="11.4915701"><ele>12.285714285714285</ele><time>2026-04-22T11:41:05.35Z</time></trkpt><trkpt lat="44.6631092" lon="11.4914778"><ele>12.571428571428571</ele><time>2026-04-22T11:41:06.351Z</time></trkpt><trkpt lat="44.6631378" lon="11.491385"><ele>12.857142857142858</ele><time>2026-04-22T11:41:07.34Z</time></trkpt><trkpt lat="44.663167" lon="11.4912916"><ele>13.142857142857142</ele><time>2026-04-22T11:41:08.353Z</time></trkpt><trkpt lat="44.663196" lon="11.4911986"><ele>13.428571428571429</ele><time>2026-04-22T11:41:09.352Z</time></trkpt><trkpt lat="44.663225" lon="11.491105"><ele>13.714285714285714</ele><time>2026-04-22T11:41:10.345Z</time></trkpt><trkpt lat="44.6632548" lon="11.4910119"><ele>14.0</ele><time>2026-04-22T11:41:11.352Z</time></trkpt><trkpt lat="44.6632848" lon="11.4909185"><ele>14.142857142857142</ele><time>2026-04-22T11:41:12.343Z</time></trkpt><trkpt lat="44.663314" lon="11.4908249"><ele>14.285714285714285</ele><time>2026-04-22T11:41:13.356Z</time></trkpt><trkpt lat="44.6633442" lon="11.4907311"><ele>14.428571428571429</ele><time>2026-04-22T11:41:14.343Z</time></trkpt><trkpt lat="44.6633739" lon="11.4906359"><ele>14.571428571428571</ele><time>2026-04-22T11:41:15.347Z</time></trkpt><trkpt lat="44.6634034" lon="11.490541"><ele>14.714285714285714</ele><time>2026-04-22T11:41:16.354Z</time></trkpt><trkpt lat="44.6634324" lon="11.4904448"><ele>14.857142857142858</ele><time>2026-04-22T11:41:17.339Z</time></trkpt><trkpt lat="44.6634615" lon="11.4903478"><ele>15.0</ele><time>2026-04-22T11:41:18.339Z</time></trkpt><trkpt lat="44.6634902" lon="11.4902511"><ele>14.833333333333334</ele><time>2026-04-22T11:41:19.351Z</time></trkpt><trkpt lat="44.6635189" lon="11.4901538"><ele>14.666666666666668</ele><time>2026-04-22T11:41:20.355Z</time></trkpt><trkpt lat="44.6635493" lon="11.4900563"><ele>14.5</ele><time>2026-04-22T11:41:21.35Z</time></trkpt><trkpt lat="44.6635802" lon="11.4899586"><ele>14.333333333333334</ele><time>2026-04-22T11:41:22.352Z</time></trkpt><trkpt lat="44.6636104" lon="11.4898608"><ele>14.166666666666668</ele><time>2026-04-22T11:41:23.342Z</time></trkpt><trkpt lat="44.6636423" lon="11.4897635"><ele>14.0</ele><time>2026-04-22T11:41:24.367Z</time></trkpt><trkpt lat="44.6636734" lon="11.4896644"><ele>14.000000000000002</ele><time>2026-04-22T11:41:25.342Z</time></trkpt><trkpt lat="44.6637034" lon="11.4895668"><ele>14.0</ele><time>2026-04-22T11:41:26.347Z</time></trkpt><trkpt lat="44.6637336" lon="11.4894694"><ele>14.0</ele><time>2026-04-22T11:41:27.348Z</time></trkpt><trkpt lat="44.6637635" lon="11.4893721"><ele>14.0</ele><time>2026-04-22T11:41:28.348Z</time></trkpt><trkpt lat="44.6637928" lon="11.4892744"><ele>14.000000000000002</ele><time>2026-04-22T11:41:29.353Z</time></trkpt><trkpt lat="44.6638233" lon="11.4891781"><ele>14.0</ele><time>2026-04-22T11:41:30.351Z</time></trkpt><trkpt lat="44.6638544" lon="11.489082"><ele>14.0</ele><time>2026-04-22T11:41:31.359Z</time></trkpt><trkpt lat="44.6638857" lon="11.4889858"><ele>14.0</ele><time>2026-04-22T11:41:32.351Z</time></trkpt><trkpt lat="44.6639157" lon="11.4888884"><ele>14.0</ele><time>2026-04-22T11:41:33.342Z</time></trkpt><trkpt lat="44.6639448" lon="11.4887906"><ele>14.0</ele><time>2026-04-22T11:41:34.352Z</time></trkpt><trkpt lat="44.6639737" lon="11.4886947"><ele>14.0</ele><time>2026-04-22T11:41:35.356Z</time></trkpt><trkpt lat="44.6640028" lon="11.4886003"><ele>14.0</ele><time>2026-04-22T11:41:36.347Z</time></trkpt><trkpt lat="44.6640309" lon="11.4885067"><ele>14.0</ele><time>2026-04-22T11:41:37.351Z</time></trkpt><trkpt lat="44.6640599" lon="11.4884138"><ele>14.0</ele><time>2026-04-22T11:41:38.343Z</time></trkpt><trkpt lat="44.6640893" lon="11.4883226"><ele>14.0</ele><time>2026-04-22T11:41:39.345Z</time></trkpt><trkpt lat="44.6641183" lon="11.4882314"><ele>14.0</ele><time>2026-04-22T11:41:40.351Z</time></trkpt><trkpt lat="44.6641461" lon="11.48814"><ele>14.0</ele><time>2026-04-22T11:41:41.348Z</time></trkpt><trkpt lat="44.6641733" lon="11.4880498"><ele>14.0</ele><time>2026-04-22T11:41:42.345Z</time></trkpt><trkpt lat="44.6641996" lon="11.4879597"><ele>14.0</ele><time>2026-04-22T11:41:43.351Z</time></trkpt><trkpt lat="44.6642268" lon="11.487873"><ele>14.0</ele><time>2026-04-22T11:41:44.345Z</time></trkpt><trkpt lat="44.6642535" lon="11.4877878"><ele>14.0</ele><time>2026-04-22T11:41:45.354Z</time></trkpt><trkpt lat="44.6642787" lon="11.4877045"><ele>13.999999999999998</ele><time>2026-04-22T11:41:46.344Z</time></trkpt><trkpt lat="44.6643216" lon="11.4875425"><ele>13.999999999999998</ele><time>2026-04-22T11:41:48.347Z</time></trkpt><trkpt lat="44.6643635" lon="11.4873942"><ele>14.0</ele><time>2026-04-22T11:41:50.348Z</time></trkpt><trkpt lat="44.6644049" lon="11.4872474"><ele>14.0</ele><time>2026-04-22T11:41:52.354Z</time></trkpt><trkpt lat="44.6644503" lon="11.487106"><ele>14.166666666666668</ele><time>2026-04-22T11:41:54.346Z</time></trkpt><trkpt lat="44.6644959" lon="11.486982"><ele>14.333333333333334</ele><time>2026-04-22T11:41:56.354Z</time></trkpt><trkpt lat="44.6645512" lon="11.4868519"><ele>14.5</ele><time>2026-04-22T11:41:58.349Z</time></trkpt><trkpt lat="44.6646109" lon="11.4867569"><ele>14.666666666666668</ele><time>2026-04-22T11:42:00.346Z</time></trkpt><trkpt lat="44.6646845" lon="11.486714"><ele>14.833333333333334</ele><time>2026-04-22T11:42:03.354Z</time></trkpt><trkpt lat="44.6647403" lon="11.4866704"><ele>15.0</ele><time>2026-04-22T11:42:06.346Z</time></trkpt><trkpt lat="44.6647566" lon="11.486548"><ele>15.0</ele><time>2026-04-22T11:42:09.356Z</time></trkpt><trkpt lat="44.6647818" lon="11.4864189"><ele>15.0</ele><time>2026-04-22T11:42:12.342Z</time></trkpt><trkpt lat="44.664811" lon="11.4863016"><ele>15.0</ele><time>2026-04-22T11:42:15.338Z</time></trkpt><trkpt lat="44.664832" lon="11.4861883"><ele>15.0</ele><time>2026-04-22T11:42:18.351Z</time></trkpt><trkpt lat="44.6648686" lon="11.4860807"><ele>15.0</ele><time>2026-04-22T11:42:21.343Z</time></trkpt><trkpt lat="44.6648946" lon="11.485969"><ele>15.0</ele><time>2026-04-22T11:42:23.348Z</time></trkpt><trkpt lat="44.664921" lon="11.4858433"><ele>15.0</ele><time>2026-04-22T11:42:25.346Z</time></trkpt><trkpt lat="44.664947" lon="11.4857073"><ele>15.0</ele><time>2026-04-22T11:42:27.348Z</time></trkpt><trkpt lat="44.6649739" lon="11.4855639"><ele>15.0</ele><time>2026-04-22T11:42:29.344Z</time></trkpt><trkpt lat="44.6650039" lon="11.4854186"><ele>15.0</ele><time>2026-04-22T11:42:31.346Z</time></trkpt><trkpt lat="44.6650355" lon="11.485273"><ele>15.0</ele><time>2026-04-22T11:42:33.348Z</time></trkpt><trkpt lat="44.6650643" lon="11.4851265"><ele>14.8</ele><time>2026-04-22T11:42:35.352Z</time></trkpt><trkpt lat="44.6650946" lon="11.4849801"><ele>14.6</ele><time>2026-04-22T11:42:37.349Z</time></trkpt><trkpt lat="44.6651247" lon="11.4848326"><ele>14.399999999999999</ele><time>2026-04-22T11:42:39.352Z</time></trkpt><trkpt lat="44.6651548" lon="11.4846826"><ele>14.2</ele><time>2026-04-22T11:42:41.348Z</time></trkpt><trkpt lat="44.6651852" lon="11.4845314"><ele>14.0</ele><time>2026-04-22T11:42:43.345Z</time></trkpt><trkpt lat="44.6652139" lon="11.4843813"><ele>13.799999999999999</ele><time>2026-04-22T11:42:45.35Z</time></trkpt><trkpt lat="44.6652402" lon="11.4842313"><ele>13.599999999999998</ele><time>2026-04-22T11:42:47.349Z</time></trkpt><trkpt lat="44.6652615" lon="11.484082"><ele>13.4</ele><time>2026-04-22T11:42:49.345Z</time></trkpt><trkpt lat="44.6652865" lon="11.4839363"><ele>13.2</ele><time>2026-04-22T11:42:51.34Z</time></trkpt><trkpt lat="44.665312" lon="11.483794"><ele>13.0</ele><time>2026-04-22T11:42:53.338Z</time></trkpt><trkpt lat="44.6653274" lon="11.4836561"><ele>12.833333333333332</ele><time>2026-04-22T11:42:55.362Z</time></trkpt><trkpt lat="44.6653396" lon="11.4835242"><ele>12.666666666666666</ele><time>2026-04-22T11:42:57.341Z</time></trkpt><trkpt lat="44.6653587" lon="11.4834023"><ele>12.5</ele><time>2026-04-22T11:42:59.354Z</time></trkpt><trkpt lat="44.6653774" lon="11.4833007"><ele>12.333333333333332</ele><time>2026-04-22T11:43:01.357Z</time></trkpt><trkpt lat="44.6652988" lon="11.4832319"><ele>12.166666666666666</ele><time>2026-04-22T11:43:05.344Z</time></trkpt><trkpt lat="44.6652144" lon="11.4832067"><ele>12.0</ele><time>2026-04-22T11:43:07.344Z</time></trkpt><trkpt lat="44.6651307" lon="11.4831724"><ele>11.833333333333334</ele><time>2026-04-22T11:43:09.357Z</time></trkpt><trkpt lat="44.6650474" lon="11.4831401"><ele>11.666666666666666</ele><time>2026-04-22T11:43:11.338Z</time></trkpt><trkpt lat="44.6649687" lon="11.4830904"><ele>11.5</ele><time>2026-04-22T11:43:13.348Z</time></trkpt><trkpt lat="44.6648959" lon="11.4830521"><ele>11.333333333333332</ele><time>2026-04-22T11:43:15.346Z</time></trkpt><trkpt lat="44.6648195" lon="11.4830293"><ele>11.166666666666666</ele><time>2026-04-22T11:43:17.348Z</time></trkpt><trkpt lat="44.6647501" lon="11.4830002"><ele>11.0</ele><time>2026-04-22T11:43:19.342Z</time></trkpt><trkpt lat="44.6646815" lon="11.4829421"><ele>11.0</ele><time>2026-04-22T11:43:22.339Z</time></trkpt><trkpt lat="44.6647437" lon="11.4829117"><ele>10.0</ele><time>2026-04-22T11:44:03.337Z</time></trkpt></trkseg></trk></gpx>